<?xml version='1.0' encoding='UTF-8'?><gpx version="1.1" creator="JPX - https://github.com/jenetics/jpx" xmlns="http://www.topografix.com/GPX/1/1"><trk><trkseg><trkpt lat="43.50471864153532" lon="10.620138110786513"><ele>309.0</ele><time>2026-04-18T07:15:09Z</time></trkpt><trkpt lat="43.504801534394375" lon="10.620061181869595"><ele>309.0</ele><time>2026-04-18T07:15:16Z</time></trkpt><trkpt lat="43.50487160587397" lon="10.619976549004797"><ele>309.0</ele><time>2026-04-18T07:15:17Z</time></trkpt><trkpt lat="43.50493981259078" lon="10.619894394391133"><ele>309.0</ele><time>2026-04-18T07:15:18Z</time></trkpt><trkpt lat="43.50500715720477" lon="10.619868042796236"><ele>309.0</ele><time>2026-04-18T07:15:19Z</time></trkpt><trkpt lat="43.50505181662899" lon="10.619798638915778"><ele>309.0</ele><time>2026-04-18T07:15:20Z</time></trkpt><trkpt lat="43.505097979636496" lon="10.619637084885106"><ele>309.0</ele><time>2026-04-18T07:15:22Z</time></trkpt><trkpt lat="43.50514294432731" lon="10.619505043309232"><ele>309.0</ele><time>2026-04-18T07:15:24Z</time></trkpt><trkpt lat="43.50517836324454" lon="10.619389920003435"><ele>309.0</ele><time>2026-04-18T07:15:26Z</time></trkpt><trkpt lat="43.50524912004792" lon="10.619341162918872"><ele>309.0</ele><time>2026-04-18T07:15:28Z</time></trkpt><trkpt lat="43.505345330046985" lon="10.61938511153071"><ele>309.0</ele><time>2026-04-18T07:15:30Z</time></trkpt><trkpt lat="43.505447098728084" lon="10.619414282192798"><ele>307.2</ele><time>2026-04-18T07:15:32Z</time></trkpt><trkpt lat="43.505544911778" lon="10.619424813432833"><ele>305.4</ele><time>2026-04-18T07:15:34Z</time></trkpt><trkpt lat="43.50561847472552" lon="10.619473517689466"><ele>303.6</ele><time>2026-04-18T07:15:36Z</time></trkpt><trkpt lat="43.505703380030035" lon="10.619501377440132"><ele>301.8</ele><time>2026-04-18T07:15:38Z</time></trkpt><trkpt lat="43.505809641821486" lon="10.61947396958837"><ele>300.0</ele><time>2026-04-18T07:15:40Z</time></trkpt><trkpt lat="43.50591962629543" lon="10.619437343949683"><ele>300.0</ele><time>2026-04-18T07:15:42Z</time></trkpt><trkpt lat="43.506028486794634" lon="10.61939451771009"><ele>300.0</ele><time>2026-04-18T07:15:44Z</time></trkpt><trkpt lat="43.506136507664735" lon="10.619355827056935"><ele>300.0</ele><time>2026-04-18T07:15:46Z</time></trkpt><trkpt lat="43.5062565101083" lon="10.619344864784566"><ele>300.0</ele><time>2026-04-18T07:15:48Z</time></trkpt><trkpt lat="43.50637331424205" lon="10.619341889911246"><ele>297.8</ele><time>2026-04-18T07:15:50Z</time></trkpt><trkpt lat="43.50644066608054" lon="10.61934857463507"><ele>295.6</ele><time>2026-04-18T07:15:51Z</time></trkpt><trkpt lat="43.506562020870945" lon="10.619355238950117"><ele>293.4</ele><time>2026-04-18T07:15:53Z</time></trkpt><trkpt lat="43.506625752558335" lon="10.619340997024633"><ele>291.2</ele><time>2026-04-18T07:15:54Z</time></trkpt><trkpt lat="43.50673737520966" lon="10.61929654177342"><ele>289.0</ele><time>2026-04-18T07:15:56Z</time></trkpt><trkpt lat="43.50681681977124" lon="10.619261771035031"><ele>289.0</ele><time>2026-04-18T07:15:58Z</time></trkpt><trkpt lat="43.5069142585636" lon="10.61920067504627"><ele>289.0</ele><time>2026-04-18T07:16:00Z</time></trkpt><trkpt lat="43.50696443519964" lon="10.619133787940234"><ele>289.0</ele><time>2026-04-18T07:16:01Z</time></trkpt><trkpt lat="43.507010799646956" lon="10.619063569276346"><ele>289.0</ele><time>2026-04-18T07:16:02Z</time></trkpt><trkpt lat="43.507068893900446" lon="10.618985633386329"><ele>289.0</ele><time>2026-04-18T07:16:03Z</time></trkpt><trkpt lat="43.507145814523014" lon="10.618912102102001"><ele>289.0</ele><time>2026-04-18T07:16:04Z</time></trkpt><trkpt lat="43.50724152891745" lon="10.618838908131945"><ele>288.2</ele><time>2026-04-18T07:16:05Z</time></trkpt><trkpt lat="43.50733779481142" lon="10.618790029511707"><ele>287.4</ele><time>2026-04-18T07:16:06Z</time></trkpt><trkpt lat="43.507426848443615" lon="10.618774903508129"><ele>286.6</ele><time>2026-04-18T07:16:07Z</time></trkpt><trkpt lat="43.50751920405683" lon="10.618743886548263"><ele>285.8</ele><time>2026-04-18T07:16:08Z</time></trkpt><trkpt lat="43.5075931276486" lon="10.618655998556369"><ele>285.0</ele><time>2026-04-18T07:16:09Z</time></trkpt><trkpt lat="43.5076652479294" lon="10.618596207732091"><ele>285.0</ele><time>2026-04-18T07:16:10Z</time></trkpt><trkpt lat="43.507750314576825" lon="10.618494518151065"><ele>285.0</ele><time>2026-04-18T07:16:11Z</time></trkpt><trkpt lat="43.50790685299538" lon="10.61824800060086"><ele>285.0</ele><time>2026-04-18T07:16:13Z</time></trkpt><trkpt lat="43.50798192761813" lon="10.61810239031918"><ele>286.0</ele><time>2026-04-18T07:16:14Z</time></trkpt><trkpt lat="43.508055061904294" lon="10.617927178941839"><ele>287.0</ele><time>2026-04-18T07:16:15Z</time></trkpt><trkpt lat="43.50812561790956" lon="10.617732407561562"><ele>288.0</ele><time>2026-04-18T07:16:16Z</time></trkpt><trkpt lat="43.508180484279016" lon="10.617574585159108"><ele>289.0</ele><time>2026-04-18T07:16:17Z</time></trkpt><trkpt lat="43.50822318622569" lon="10.617458448589987"><ele>289.0</ele><time>2026-04-18T07:16:18Z</time></trkpt><trkpt lat="43.50825305126489" lon="10.617358124986541"><ele>289.0</ele><time>2026-04-18T07:16:19Z</time></trkpt><trkpt lat="43.508281460407055" lon="10.617271060172312"><ele>289.0</ele><time>2026-04-18T07:16:20Z</time></trkpt><trkpt lat="43.50833755046436" lon="10.61717777467012"><ele>289.0</ele><time>2026-04-18T07:16:21Z</time></trkpt><trkpt lat="43.508402338340396" lon="10.617065519243338"><ele>289.0</ele><time>2026-04-18T07:16:22Z</time></trkpt><trkpt lat="43.50847223956103" lon="10.616936161758426"><ele>289.59999999999997</ele><time>2026-04-18T07:16:23Z</time></trkpt><trkpt lat="43.50856322927897" lon="10.616817463056472"><ele>290.2</ele><time>2026-04-18T07:16:24Z</time></trkpt><trkpt lat="43.50865332379816" lon="10.616720424295911"><ele>290.79999999999995</ele><time>2026-04-18T07:16:25Z</time></trkpt><trkpt lat="43.50873970914251" lon="10.616621918031987"><ele>291.4</ele><time>2026-04-18T07:16:26Z</time></trkpt><trkpt lat="43.50881320790842" lon="10.616534537885904"><ele>292.0</ele><time>2026-04-18T07:16:27Z</time></trkpt><trkpt lat="43.50886913192382" lon="10.6164643466115"><ele>292.0</ele><time>2026-04-18T07:16:28Z</time></trkpt><trkpt lat="43.50895183786334" lon="10.616398483028092"><ele>292.0</ele><time>2026-04-18T07:16:30Z</time></trkpt><trkpt lat="43.50904560648885" lon="10.61638670672369"><ele>292.0</ele><time>2026-04-18T07:16:33Z</time></trkpt><trkpt lat="43.5090829595793" lon="10.616525953745418"><ele>292.0</ele><time>2026-04-18T07:16:34Z</time></trkpt><trkpt lat="43.5091277721726" lon="10.616626621757502"><ele>292.0</ele><time>2026-04-18T07:16:35Z</time></trkpt><trkpt lat="43.50918245351029" lon="10.616737857725603"><ele>292.0</ele><time>2026-04-18T07:16:36Z</time></trkpt><trkpt lat="43.509249195990854" lon="10.61685553989902"><ele>292.0</ele><time>2026-04-18T07:16:37Z</time></trkpt><trkpt lat="43.509319299046474" lon="10.616978805640379"><ele>292.0</ele><time>2026-04-18T07:16:38Z</time></trkpt><trkpt lat="43.50939841058807" lon="10.617126571878384"><ele>292.0</ele><time>2026-04-18T07:16:39Z</time></trkpt><trkpt lat="43.50947810565426" lon="10.617275427894322"><ele>290.75</ele><time>2026-04-18T07:16:40Z</time></trkpt><trkpt lat="43.509573563559734" lon="10.61741941857168"><ele>289.5</ele><time>2026-04-18T07:16:41Z</time></trkpt><trkpt lat="43.509655125043885" lon="10.61757433384424"><ele>288.25</ele><time>2026-04-18T07:16:42Z</time></trkpt><trkpt lat="43.509722349736926" lon="10.61771428514705"><ele>287.0</ele><time>2026-04-18T07:16:43Z</time></trkpt><trkpt lat="43.50977673102465" lon="10.617863676861324"><ele>286.2</ele><time>2026-04-18T07:16:44Z</time></trkpt><trkpt lat="43.50983939890297" lon="10.617989176067816"><ele>285.4</ele><time>2026-04-18T07:16:45Z</time></trkpt><trkpt lat="43.509891031081416" lon="10.618129195350708"><ele>284.6</ele><time>2026-04-18T07:16:46Z</time></trkpt><trkpt lat="43.50992945983927" lon="10.618277537638273"><ele>283.8</ele><time>2026-04-18T07:16:47Z</time></trkpt><trkpt lat="43.50998627827439" lon="10.618403764835183"><ele>283.0</ele><time>2026-04-18T07:16:48Z</time></trkpt><trkpt lat="43.510015904266844" lon="10.618513529145543"><ele>283.0</ele><time>2026-04-18T07:16:49Z</time></trkpt><trkpt lat="43.51007003664406" lon="10.618597453689091"><ele>283.0</ele><time>2026-04-18T07:16:50Z</time></trkpt><trkpt lat="43.510150943418516" lon="10.618620548102388"><ele>283.0</ele><time>2026-04-18T07:16:51Z</time></trkpt><trkpt lat="43.510246043794425" lon="10.618578615939182"><ele>283.0</ele><time>2026-04-18T07:16:52Z</time></trkpt><trkpt lat="43.51035438149209" lon="10.618490746483834"><ele>283.0</ele><time>2026-04-18T07:16:53Z</time></trkpt><trkpt lat="43.51046703072593" lon="10.618387442038541"><ele>280.5</ele><time>2026-04-18T07:16:54Z</time></trkpt><trkpt lat="43.51056662980917" lon="10.618296979455549"><ele>278.0</ele><time>2026-04-18T07:16:55Z</time></trkpt><trkpt lat="43.51065310265383" lon="10.618237592006288"><ele>275.5</ele><time>2026-04-18T07:16:56Z</time></trkpt><trkpt lat="43.51074554721901" lon="10.61820541646276"><ele>273.0</ele><time>2026-04-18T07:16:57Z</time></trkpt><trkpt lat="43.51088841602552" lon="10.618171005438363"><ele>273.0</ele><time>2026-04-18T07:16:58Z</time></trkpt><trkpt lat="43.51103067839659" lon="10.618225880060546"><ele>273.0</ele><time>2026-04-18T07:16:59Z</time></trkpt><trkpt lat="43.511183570046974" lon="10.618255602508542"><ele>273.0</ele><time>2026-04-18T07:17:00Z</time></trkpt><trkpt lat="43.5113241041557" lon="10.61826564076112"><ele>273.0</ele><time>2026-04-18T07:17:01Z</time></trkpt><trkpt lat="43.5114493604085" lon="10.618293807372595"><ele>270.75</ele><time>2026-04-18T07:17:02Z</time></trkpt><trkpt lat="43.51156985315811" lon="10.61832195191441"><ele>268.5</ele><time>2026-04-18T07:17:03Z</time></trkpt><trkpt lat="43.51168102196151" lon="10.618360340106106"><ele>266.25</ele><time>2026-04-18T07:17:04Z</time></trkpt><trkpt lat="43.51178308996051" lon="10.618413240794519"><ele>264.0</ele><time>2026-04-18T07:17:05Z</time></trkpt><trkpt lat="43.5118827521055" lon="10.61849058541741"><ele>264.0</ele><time>2026-04-18T07:17:06Z</time></trkpt><trkpt lat="43.511981987152026" lon="10.618590506011001"><ele>264.0</ele><time>2026-04-18T07:17:07Z</time></trkpt><trkpt lat="43.51207814430956" lon="10.61868321972511"><ele>264.0</ele><time>2026-04-18T07:17:08Z</time></trkpt><trkpt lat="43.51217246050565" lon="10.618773889151514"><ele>264.0</ele><time>2026-04-18T07:17:09Z</time></trkpt><trkpt lat="43.51228190568817" lon="10.618853128660346"><ele>261.0</ele><time>2026-04-18T07:17:10Z</time></trkpt><trkpt lat="43.512407478256165" lon="10.61892413063965"><ele>258.0</ele><time>2026-04-18T07:17:11Z</time></trkpt><trkpt lat="43.51256701823456" lon="10.619003933967187"><ele>255.0</ele><time>2026-04-18T07:17:12Z</time></trkpt><trkpt lat="43.51273300431393" lon="10.619098105137395"><ele>255.0</ele><time>2026-04-18T07:17:13Z</time></trkpt><trkpt lat="43.51287727748719" lon="10.619167611018604"><ele>255.0</ele><time>2026-04-18T07:17:14Z</time></trkpt><trkpt lat="43.513032505294085" lon="10.61924059326281"><ele>255.0</ele><time>2026-04-18T07:17:15Z</time></trkpt><trkpt lat="43.51321875066705" lon="10.619327602257345"><ele>252.0</ele><time>2026-04-18T07:17:16Z</time></trkpt><trkpt lat="43.51340112404084" lon="10.61938893631266"><ele>249.0</ele><time>2026-04-18T07:17:17Z</time></trkpt><trkpt lat="43.513554544982796" lon="10.619472819309912"><ele>246.0</ele><time>2026-04-18T07:17:18Z</time></trkpt><trkpt lat="43.51369710634547" lon="10.619540244893608"><ele>244.0</ele><time>2026-04-18T07:17:19Z</time></trkpt><trkpt lat="43.51382837129579" lon="10.619598411228255"><ele>242.00000000000003</ele><time>2026-04-18T07:17:20Z</time></trkpt><trkpt lat="43.51393381602175" lon="10.61964793505596"><ele>240.00000000000003</ele><time>2026-04-18T07:17:21Z</time></trkpt><trkpt lat="43.51401078080227" lon="10.619700979385813"><ele>238.0</ele><time>2026-04-18T07:17:22Z</time></trkpt><trkpt lat="43.5140630371062" lon="10.61978821844614"><ele>236.0</ele><time>2026-04-18T07:17:23Z</time></trkpt><trkpt lat="43.5140977411368" lon="10.619897870679786"><ele>236.0</ele><time>2026-04-18T07:17:24Z</time></trkpt><trkpt lat="43.51410276668786" lon="10.62000324922242"><ele>236.00000000000003</ele><time>2026-04-18T07:17:25Z</time></trkpt><trkpt lat="43.514071151155065" lon="10.620125796544794"><ele>236.00000000000003</ele><time>2026-04-18T07:17:26Z</time></trkpt><trkpt lat="43.514021872916885" lon="10.620268980816858"><ele>236.0</ele><time>2026-04-18T07:17:27Z</time></trkpt><trkpt lat="43.5139509429213" lon="10.620410910496094"><ele>236.0</ele><time>2026-04-18T07:17:28Z</time></trkpt><trkpt lat="43.51385356633058" lon="10.62052047653726"><ele>235.60000000000002</ele><time>2026-04-18T07:17:29Z</time></trkpt><trkpt lat="43.513759473995826" lon="10.620665277976679"><ele>235.20000000000002</ele><time>2026-04-18T07:17:30Z</time></trkpt><trkpt lat="43.5136838601861" lon="10.62076725412022"><ele>234.79999999999998</ele><time>2026-04-18T07:17:31Z</time></trkpt><trkpt lat="43.51361847999016" lon="10.620857126143017"><ele>234.39999999999998</ele><time>2026-04-18T07:17:32Z</time></trkpt><trkpt lat="43.513563948471294" lon="10.620927345496014"><ele>234.0</ele><time>2026-04-18T07:17:33Z</time></trkpt><trkpt lat="43.513517863499764" lon="10.620990305768222"><ele>234.0</ele><time>2026-04-18T07:17:34Z</time></trkpt><trkpt lat="43.51347375133477" lon="10.621061717152717"><ele>234.0</ele><time>2026-04-18T07:17:35Z</time></trkpt><trkpt lat="43.513440258996276" lon="10.621145524762966"><ele>234.0</ele><time>2026-04-18T07:17:36Z</time></trkpt><trkpt lat="43.51342778082254" lon="10.621310549785829"><ele>234.0</ele><time>2026-04-18T07:17:38Z</time></trkpt><trkpt lat="43.51346881315986" lon="10.621399127406699"><ele>234.0</ele><time>2026-04-18T07:17:39Z</time></trkpt><trkpt lat="43.51350372922303" lon="10.621473249104994"><ele>234.0</ele><time>2026-04-18T07:17:40Z</time></trkpt><trkpt lat="43.51356468900868" lon="10.621520644777238"><ele>232.0</ele><time>2026-04-18T07:17:41Z</time></trkpt><trkpt lat="43.513649397923764" lon="10.621583342120775"><ele>230.0</ele><time>2026-04-18T07:17:42Z</time></trkpt><trkpt lat="43.51379350569087" lon="10.621629459903474"><ele>228.0</ele><time>2026-04-18T07:17:43Z</time></trkpt><trkpt lat="43.51395776396609" lon="10.62165779335909"><ele>226.0</ele><time>2026-04-18T07:17:44Z</time></trkpt><trkpt lat="43.51412334051024" lon="10.621747129933565"><ele>225.0</ele><time>2026-04-18T07:17:45Z</time></trkpt><trkpt lat="43.51426317581364" lon="10.621855910419077"><ele>224.0</ele><time>2026-04-18T07:17:46Z</time></trkpt><trkpt lat="43.514390007142" lon="10.62196244325785"><ele>223.0</ele><time>2026-04-18T07:17:47Z</time></trkpt><trkpt lat="43.514535320083766" lon="10.622047227799973"><ele>220.0</ele><time>2026-04-18T07:17:48Z</time></trkpt><trkpt lat="43.514697437722674" lon="10.622103575375506"><ele>217.0</ele><time>2026-04-18T07:17:49Z</time></trkpt><trkpt lat="43.51485753166362" lon="10.622139080408036"><ele>214.0</ele><time>2026-04-18T07:17:50Z</time></trkpt><trkpt lat="43.51500718831805" lon="10.622163652230668"><ele>214.0</ele><time>2026-04-18T07:17:51Z</time></trkpt><trkpt lat="43.515140797244804" lon="10.62218459976067"><ele>214.0</ele><time>2026-04-18T07:17:52Z</time></trkpt><trkpt lat="43.51526206347691" lon="10.622197509843616"><ele>214.0</ele><time>2026-04-18T07:17:53Z</time></trkpt><trkpt lat="43.51538524783649" lon="10.622204555064124"><ele>214.0</ele><time>2026-04-18T07:17:54Z</time></trkpt><trkpt lat="43.51551249559672" lon="10.622208957463664"><ele>212.5</ele><time>2026-04-18T07:17:55Z</time></trkpt><trkpt lat="43.51564771901577" lon="10.622210676979485"><ele>211.0</ele><time>2026-04-18T07:17:56Z</time></trkpt><trkpt lat="43.515790995613386" lon="10.622208730814267"><ele>209.5</ele><time>2026-04-18T07:17:57Z</time></trkpt><trkpt lat="43.51595069864083" lon="10.622218973310147"><ele>208.0</ele><time>2026-04-18T07:17:58Z</time></trkpt><trkpt lat="43.51612123015304" lon="10.622257288687328"><ele>206.33333333333331</ele><time>2026-04-18T07:17:59Z</time></trkpt><trkpt lat="43.51627862213456" lon="10.622330200273959"><ele>204.66666666666669</ele><time>2026-04-18T07:18:00Z</time></trkpt><trkpt lat="43.51640807206735" lon="10.622431835815021"><ele>203.0</ele><time>2026-04-18T07:18:01Z</time></trkpt><trkpt lat="43.51651045057091" lon="10.622576106896233"><ele>203.0</ele><time>2026-04-18T07:18:02Z</time></trkpt><trkpt lat="43.516618265069326" lon="10.622706799805504"><ele>203.0</ele><time>2026-04-18T07:18:03Z</time></trkpt><trkpt lat="43.51670900321041" lon="10.622881825541675"><ele>203.0</ele><time>2026-04-18T07:18:04Z</time></trkpt><trkpt lat="43.51678471272221" lon="10.623062634780743"><ele>202.75</ele><time>2026-04-18T07:18:04.999Z</time></trkpt><trkpt lat="43.516848416710346" lon="10.623246973131357"><ele>202.5</ele><time>2026-04-18T07:18:05.999Z</time></trkpt><trkpt lat="43.51688730647198" lon="10.623419226491258"><ele>202.25</ele><time>2026-04-18T07:18:06.999Z</time></trkpt><trkpt lat="43.516924907111374" lon="10.623588634734517"><ele>202.0</ele><time>2026-04-18T07:18:07.999Z</time></trkpt><trkpt lat="43.51696824157119" lon="10.623754051301615"><ele>201.75</ele><time>2026-04-18T07:18:08.999Z</time></trkpt><trkpt lat="43.51702704642809" lon="10.623912849584597"><ele>201.5</ele><time>2026-04-18T07:18:09.999Z</time></trkpt><trkpt lat="43.517120804929974" lon="10.624041612273064"><ele>201.25</ele><time>2026-04-18T07:18:10.999Z</time></trkpt><trkpt lat="43.51725364229471" lon="10.624130560733063"><ele>201.0</ele><time>2026-04-18T07:18:11.999Z</time></trkpt><trkpt lat="43.517415761002866" lon="10.624186784392817"><ele>198.0</ele><time>2026-04-18T07:18:12.999Z</time></trkpt><trkpt lat="43.517595596250864" lon="10.624223604184664"><ele>195.0</ele><time>2026-04-18T07:18:13.999Z</time></trkpt><trkpt lat="43.517807585071786" lon="10.62426427674354"><ele>192.0</ele><time>2026-04-18T07:18:14.999Z</time></trkpt><trkpt lat="43.518017661735165" lon="10.624308925621404"><ele>188.0</ele><time>2026-04-18T07:18:15.999Z</time></trkpt><trkpt lat="43.51820776615649" lon="10.624358496356502"><ele>184.0</ele><time>2026-04-18T07:18:16.999Z</time></trkpt><trkpt lat="43.518388770907244" lon="10.624408894463885"><ele>180.0</ele><time>2026-04-18T07:18:17.999Z</time></trkpt><trkpt lat="43.51855644098908" lon="10.624451729709232"><ele>178.33333333333334</ele><time>2026-04-18T07:18:18.999Z</time></trkpt><trkpt lat="43.51872210466056" lon="10.624493740986214"><ele>176.66666666666669</ele><time>2026-04-18T07:18:19.999Z</time></trkpt><trkpt lat="43.518882472622536" lon="10.624534386384992"><ele>175.0</ele><time>2026-04-18T07:18:20.999Z</time></trkpt><trkpt lat="43.519038110363276" lon="10.624572631560618"><ele>174.4</ele><time>2026-04-18T07:18:21.999Z</time></trkpt><trkpt lat="43.519181639208675" lon="10.624612268516591"><ele>173.8</ele><time>2026-04-18T07:18:22.999Z</time></trkpt><trkpt lat="43.51930022359018" lon="10.624654814042374"><ele>173.2</ele><time>2026-04-18T07:18:23.999Z</time></trkpt><trkpt lat="43.519394680919724" lon="10.624700736602973"><ele>172.6</ele><time>2026-04-18T07:18:24.999Z</time></trkpt><trkpt lat="43.5194554324789" lon="10.624740342381532"><ele>172.0</ele><time>2026-04-18T07:18:25.999Z</time></trkpt><trkpt lat="43.51954966433193" lon="10.624760084510795"><ele>170.6</ele><time>2026-04-18T07:18:29.999Z</time></trkpt><trkpt lat="43.51961264284836" lon="10.62479329577732"><ele>169.2</ele><time>2026-04-18T07:18:31Z</time></trkpt><trkpt lat="43.519694449232766" lon="10.62486337149973"><ele>167.8</ele><time>2026-04-18T07:18:32Z</time></trkpt><trkpt lat="43.519785046152194" lon="10.624984708367888"><ele>166.4</ele><time>2026-04-18T07:18:33Z</time></trkpt><trkpt lat="43.519902217357476" lon="10.625073447088374"><ele>165.0</ele><time>2026-04-18T07:18:34Z</time></trkpt><trkpt lat="43.520002178178956" lon="10.62516598144428"><ele>165.0</ele><time>2026-04-18T07:18:35Z</time></trkpt><trkpt lat="43.52009210981477" lon="10.625248993620488"><ele>165.0</ele><time>2026-04-18T07:18:36Z</time></trkpt><trkpt lat="43.52017988926099" lon="10.62531489011642"><ele>165.0</ele><time>2026-04-18T07:18:37Z</time></trkpt><trkpt lat="43.52027150461999" lon="10.625385773445915"><ele>165.0</ele><time>2026-04-18T07:18:38Z</time></trkpt><trkpt lat="43.52036833626167" lon="10.625466715283167"><ele>165.0</ele><time>2026-04-18T07:18:39Z</time></trkpt><trkpt lat="43.52045881502024" lon="10.625522109681093"><ele>164.2</ele><time>2026-04-18T07:18:40Z</time></trkpt><trkpt lat="43.5205496767739" lon="10.625619023689834"><ele>163.4</ele><time>2026-04-18T07:18:42Z</time></trkpt><trkpt lat="43.52058688094121" lon="10.625703748483575"><ele>162.60000000000002</ele><time>2026-04-18T07:18:43Z</time></trkpt><trkpt lat="43.5206288753351" lon="10.625842145331116"><ele>161.8</ele><time>2026-04-18T07:18:44Z</time></trkpt><trkpt lat="43.520673370435865" lon="10.62600699755079"><ele>161.0</ele><time>2026-04-18T07:18:45Z</time></trkpt><trkpt lat="43.52070510850161" lon="10.626127915196244"><ele>161.5</ele><time>2026-04-18T07:18:46Z</time></trkpt><trkpt lat="43.52075120444187" lon="10.62620375540385"><ele>162.0</ele><time>2026-04-18T07:18:47Z</time></trkpt><trkpt lat="43.520802993536925" lon="10.626257447450866"><ele>162.5</ele><time>2026-04-18T07:18:48Z</time></trkpt><trkpt lat="43.52086692315355" lon="10.626312030666096"><ele>163.0</ele><time>2026-04-18T07:18:49Z</time></trkpt><trkpt lat="43.52095312158468" lon="10.626369082175561"><ele>163.5</ele><time>2026-04-18T07:18:50Z</time></trkpt><trkpt lat="43.5210597180863" lon="10.626422724737411"><ele>164.0</ele><time>2026-04-18T07:18:51Z</time></trkpt><trkpt lat="43.52118295637442" lon="10.626497645633906"><ele>163.0</ele><time>2026-04-18T07:18:52Z</time></trkpt><trkpt lat="43.52132771026557" lon="10.626583944646008"><ele>162.0</ele><time>2026-04-18T07:18:53Z</time></trkpt><trkpt lat="43.52147705373465" lon="10.626693240918692"><ele>161.0</ele><time>2026-04-18T07:18:54Z</time></trkpt><trkpt lat="43.52161216577281" lon="10.626771739996757"><ele>161.0</ele><time>2026-04-18T07:18:55Z</time></trkpt><trkpt lat="43.52172977114001" lon="10.626837705399938"><ele>161.0</ele><time>2026-04-18T07:18:56Z</time></trkpt><trkpt lat="43.52185276725018" lon="10.626893952400915"><ele>161.0</ele><time>2026-04-18T07:18:57Z</time></trkpt><trkpt lat="43.52198817119304" lon="10.626952765346337"><ele>161.0</ele><time>2026-04-18T07:18:58Z</time></trkpt><trkpt lat="43.52213655376376" lon="10.627006070225498"><ele>159.66666666666666</ele><time>2026-04-18T07:18:59Z</time></trkpt><trkpt lat="43.52229673936905" lon="10.627052828047585"><ele>158.33333333333334</ele><time>2026-04-18T07:19:00Z</time></trkpt><trkpt lat="43.522469412484" lon="10.627102030926048"><ele>157.0</ele><time>2026-04-18T07:19:01Z</time></trkpt><trkpt lat="43.52263392219538" lon="10.627144360710828"><ele>157.0</ele><time>2026-04-18T07:19:02Z</time></trkpt><trkpt lat="43.5227771802662" lon="10.627208045247945"><ele>157.0</ele><time>2026-04-18T07:19:03Z</time></trkpt><trkpt lat="43.52291031220156" lon="10.627247902012021"><ele>157.0</ele><time>2026-04-18T07:19:04Z</time></trkpt><trkpt lat="43.523031021613846" lon="10.62726671616412"><ele>157.0</ele><time>2026-04-18T07:19:05Z</time></trkpt><trkpt lat="43.523128466277484" lon="10.62732963261723"><ele>155.83333333333334</ele><time>2026-04-18T07:19:06Z</time></trkpt><trkpt lat="43.52320923003177" lon="10.627376912186001"><ele>154.66666666666669</ele><time>2026-04-18T07:19:07Z</time></trkpt><trkpt lat="43.52326845221007" lon="10.627441589053142"><ele>153.5</ele><time>2026-04-18T07:19:08Z</time></trkpt><trkpt lat="43.52333772166931" lon="10.62751364703792"><ele>152.33333333333334</ele><time>2026-04-18T07:19:09Z</time></trkpt><trkpt lat="43.52340006554592" lon="10.627614050447068"><ele>151.16666666666666</ele><time>2026-04-18T07:19:10Z</time></trkpt><trkpt lat="43.523466427112" lon="10.627696722970013"><ele>150.0</ele><time>2026-04-18T07:19:11Z</time></trkpt><trkpt lat="43.52353663223178" lon="10.627778520694832"><ele>150.2</ele><time>2026-04-18T07:19:12Z</time></trkpt><trkpt lat="43.523642032313354" lon="10.627815988327857"><ele>150.4</ele><time>2026-04-18T07:19:13Z</time></trkpt><trkpt lat="43.523768021503294" lon="10.627797205768678"><ele>150.6</ele><time>2026-04-18T07:19:14Z</time></trkpt><trkpt lat="43.52387737288872" lon="10.62779248198022"><ele>150.8</ele><time>2026-04-18T07:19:15Z</time></trkpt><trkpt lat="43.5239681001304" lon="10.627799096573447"><ele>151.0</ele><time>2026-04-18T07:19:16Z</time></trkpt><trkpt lat="43.52406308174778" lon="10.627814908888938"><ele>149.6</ele><time>2026-04-18T07:19:17Z</time></trkpt><trkpt lat="43.52414747923672" lon="10.62782578025815"><ele>148.2</ele><time>2026-04-18T07:19:18Z</time></trkpt><trkpt lat="43.524212768002016" lon="10.627821947601312"><ele>146.8</ele><time>2026-04-18T07:19:19Z</time></trkpt><trkpt lat="43.52430246581164" lon="10.627814591740352"><ele>145.4</ele><time>2026-04-18T07:19:22Z</time></trkpt><trkpt lat="43.524297221521614" lon="10.627644104235833"><ele>144.0</ele><time>2026-04-18T07:19:23Z</time></trkpt><trkpt lat="43.524475362902294" lon="10.627594753327598"><ele>143.66666666666666</ele><time>2026-04-18T07:19:27Z</time></trkpt><trkpt lat="43.52454098507659" lon="10.627583084219129"><ele>143.33333333333334</ele><time>2026-04-18T07:19:52Z</time></trkpt><trkpt lat="43.524609500742145" lon="10.627562727606302"><ele>143.0</ele><time>2026-04-18T07:19:53Z</time></trkpt><trkpt lat="43.52469204483407" lon="10.627541937022086"><ele>142.66666666666669</ele><time>2026-04-18T07:19:54Z</time></trkpt><trkpt lat="43.524777126980425" lon="10.62752349827345"><ele>142.33333333333334</ele><time>2026-04-18T07:19:55Z</time></trkpt><trkpt lat="43.52487909963231" lon="10.627516200609902"><ele>142.0</ele><time>2026-04-18T07:19:56Z</time></trkpt><trkpt lat="43.524982409436014" lon="10.627497638347492"><ele>141.66666666666669</ele><time>2026-04-18T07:19:57Z</time></trkpt><trkpt lat="43.525075579595004" lon="10.627467988475374"><ele>141.33333333333334</ele><time>2026-04-18T07:19:58Z</time></trkpt><trkpt lat="43.52515618370598" lon="10.62743972127514"><ele>141.0</ele><time>2026-04-18T07:19:59Z</time></trkpt><trkpt lat="43.52523500918534" lon="10.627411728891833"><ele>140.66666666666666</ele><time>2026-04-18T07:20:00Z</time></trkpt><trkpt lat="43.52529577744024" lon="10.627381420435752"><ele>140.33333333333331</ele><time>2026-04-18T07:20:01Z</time></trkpt><trkpt lat="43.52537464518441" lon="10.627333558018071"><ele>140.0</ele><time>2026-04-18T07:20:02Z</time></trkpt><trkpt lat="43.52547243296774" lon="10.627269865439551"><ele>140.0</ele><time>2026-04-18T07:20:03Z</time></trkpt><trkpt lat="43.5255698905731" lon="10.627210764366003"><ele>140.0</ele><time>2026-04-18T07:20:04Z</time></trkpt><trkpt lat="43.5256601265301" lon="10.627152001158704"><ele>140.0</ele><time>2026-04-18T07:20:05Z</time></trkpt><trkpt lat="43.525738532146526" lon="10.627092801260133"><ele>140.0</ele><time>2026-04-18T07:20:06Z</time></trkpt><trkpt lat="43.525820852117945" lon="10.627033549337936"><ele>140.0</ele><time>2026-04-18T07:20:07Z</time></trkpt><trkpt lat="43.525905997062544" lon="10.626987617851206"><ele>139.6</ele><time>2026-04-18T07:20:08Z</time></trkpt><trkpt lat="43.52598802092941" lon="10.626958261447875"><ele>139.2</ele><time>2026-04-18T07:20:09Z</time></trkpt><trkpt lat="43.52607717329696" lon="10.626947982870899"><ele>138.8</ele><time>2026-04-18T07:20:10Z</time></trkpt><trkpt lat="43.52619102811292" lon="10.626914982749657"><ele>138.4</ele><time>2026-04-18T07:20:10.999Z</time></trkpt><trkpt lat="43.52628402291081" lon="10.626881150383934"><ele>138.0</ele><time>2026-04-18T07:20:11.999Z</time></trkpt><trkpt lat="43.52636632375138" lon="10.626855182692498"><ele>137.66666666666666</ele><time>2026-04-18T07:20:12.999Z</time></trkpt><trkpt lat="43.52643237094973" lon="10.626832217273781"><ele>137.33333333333334</ele><time>2026-04-18T07:20:13.999Z</time></trkpt><trkpt lat="43.526512283837604" lon="10.626802548014801"><ele>137.0</ele><time>2026-04-18T07:20:14.999Z</time></trkpt><trkpt lat="43.52658156773085" lon="10.626778260046013"><ele>136.66666666666669</ele><time>2026-04-18T07:20:15.999Z</time></trkpt><trkpt lat="43.52665261121085" lon="10.62676943552799"><ele>136.33333333333334</ele><time>2026-04-18T07:20:16.999Z</time></trkpt><trkpt lat="43.52672340276019" lon="10.626781860811748"><ele>136.0</ele><time>2026-04-18T07:20:17.999Z</time></trkpt><trkpt lat="43.52684757793047" lon="10.626746500786663"><ele>136.0</ele><time>2026-04-18T07:20:19.999Z</time></trkpt><trkpt lat="43.526935662971326" lon="10.626706864146005"><ele>136.0</ele><time>2026-04-18T07:20:20.999Z</time></trkpt><trkpt lat="43.527017063821674" lon="10.626669990720771"><ele>136.0</ele><time>2026-04-18T07:20:21.999Z</time></trkpt><trkpt lat="43.5270810878213" lon="10.626621864575487"><ele>136.0</ele><time>2026-04-18T07:20:22.999Z</time></trkpt><trkpt lat="43.52713537019984" lon="10.626561655728176"><ele>136.0</ele><time>2026-04-18T07:20:24Z</time></trkpt><trkpt lat="43.52719460714548" lon="10.62649366829688"><ele>136.0</ele><time>2026-04-18T07:20:25Z</time></trkpt><trkpt lat="43.52725508030565" lon="10.62641755995505"><ele>134.6</ele><time>2026-04-18T07:20:26Z</time></trkpt><trkpt lat="43.527346112639336" lon="10.626320082222685"><ele>133.2</ele><time>2026-04-18T07:20:28Z</time></trkpt><trkpt lat="43.52746205711728" lon="10.626276615413316"><ele>131.8</ele><time>2026-04-18T07:20:30Z</time></trkpt><trkpt lat="43.527580458379546" lon="10.626277002581162"><ele>130.4</ele><time>2026-04-18T07:20:32Z</time></trkpt><trkpt lat="43.527654484834905" lon="10.62628492233722"><ele>129.0</ele><time>2026-04-18T07:20:33Z</time></trkpt><trkpt lat="43.52774951785419" lon="10.626280188887762"><ele>129.0</ele><time>2026-04-18T07:20:34Z</time></trkpt><trkpt lat="43.52784344638761" lon="10.62627892020517"><ele>129.0</ele><time>2026-04-18T07:20:35Z</time></trkpt><trkpt lat="43.527938653495994" lon="10.62628412978928"><ele>129.0</ele><time>2026-04-18T07:20:36Z</time></trkpt><trkpt lat="43.528046801330525" lon="10.626295881737736"><ele>129.0</ele><time>2026-04-18T07:20:37Z</time></trkpt><trkpt lat="43.52814333888377" lon="10.62628359833149"><ele>129.0</ele><time>2026-04-18T07:20:38Z</time></trkpt><trkpt lat="43.528221230621874" lon="10.626265638286899"><ele>128.0</ele><time>2026-04-18T07:20:39Z</time></trkpt><trkpt lat="43.52830014522867" lon="10.626238652352905"><ele>127.0</ele><time>2026-04-18T07:20:40Z</time></trkpt><trkpt lat="43.52838161867972" lon="10.626239734151316"><ele>126.0</ele><time>2026-04-18T07:20:41Z</time></trkpt><trkpt lat="43.52844595658729" lon="10.626263673018785"><ele>125.0</ele><time>2026-04-18T07:20:42Z</time></trkpt><trkpt lat="43.528513684132996" lon="10.626301245124457"><ele>124.0</ele><time>2026-04-18T07:20:43Z</time></trkpt><trkpt lat="43.52858352150463" lon="10.626326160175322"><ele>123.0</ele><time>2026-04-18T07:20:44Z</time></trkpt><trkpt lat="43.528711779560034" lon="10.626366882872125"><ele>123.16666666666667</ele><time>2026-04-18T07:20:46Z</time></trkpt><trkpt lat="43.528808152961" lon="10.62639833595916"><ele>123.33333333333334</ele><time>2026-04-18T07:20:47Z</time></trkpt><trkpt lat="43.52891461052433" lon="10.6264166289906"><ele>123.5</ele><time>2026-04-18T07:20:48Z</time></trkpt><trkpt lat="43.52898579274616" lon="10.626403480093556"><ele>123.66666666666667</ele><time>2026-04-18T07:20:49Z</time></trkpt><trkpt lat="43.52904825855101" lon="10.626369374383403"><ele>123.83333333333334</ele><time>2026-04-18T07:20:50Z</time></trkpt><trkpt lat="43.52911981941723" lon="10.626327112530602"><ele>124.0</ele><time>2026-04-18T07:20:51Z</time></trkpt><trkpt lat="43.52920658679831" lon="10.626277668696359"><ele>124.00000000000001</ele><time>2026-04-18T07:20:52Z</time></trkpt><trkpt lat="43.52926882075266" lon="10.62623543107845"><ele>124.0</ele><time>2026-04-18T07:20:53Z</time></trkpt><trkpt lat="43.52934016983214" lon="10.626212621154755"><ele>124.0</ele><time>2026-04-18T07:20:54Z</time></trkpt><trkpt lat="43.52941550009165" lon="10.62622053727433"><ele>124.0</ele><time>2026-04-18T07:20:55Z</time></trkpt><trkpt lat="43.529506790105664" lon="10.626238370253544"><ele>124.00000000000001</ele><time>2026-04-18T07:20:56Z</time></trkpt><trkpt lat="43.52960144345956" lon="10.626223957708048"><ele>124.0</ele><time>2026-04-18T07:20:57Z</time></trkpt><trkpt lat="43.52970029362353" lon="10.626194323774428"><ele>122.80000000000001</ele><time>2026-04-18T07:20:58Z</time></trkpt><trkpt lat="43.5298043729448" lon="10.62615883075625"><ele>121.60000000000001</ele><time>2026-04-18T07:20:59Z</time></trkpt><trkpt lat="43.529919315001216" lon="10.626117879929113"><ele>120.4</ele><time>2026-04-18T07:21:00Z</time></trkpt><trkpt lat="43.52999241855014" lon="10.626094116662111"><ele>119.2</ele><time>2026-04-18T07:21:01Z</time></trkpt><trkpt lat="43.53005686923469" lon="10.626077451846065"><ele>118.0</ele><time>2026-04-18T07:21:02Z</time></trkpt><trkpt lat="43.53017649425207" lon="10.626064898856146"><ele>117.80000000000001</ele><time>2026-04-18T07:21:04Z</time></trkpt><trkpt lat="43.53024287522532" lon="10.626084509335255"><ele>117.60000000000001</ele><time>2026-04-18T07:21:05Z</time></trkpt><trkpt lat="43.53032946158499" lon="10.626101722978882"><ele>117.39999999999999</ele><time>2026-04-18T07:21:06Z</time></trkpt><trkpt lat="43.53042532996297" lon="10.6261120100316"><ele>117.19999999999999</ele><time>2026-04-18T07:21:07Z</time></trkpt><trkpt lat="43.53054309018788" lon="10.626117192702552"><ele>117.0</ele><time>2026-04-18T07:21:08Z</time></trkpt><trkpt lat="43.530664661829874" lon="10.62613729017804"><ele>117.0</ele><time>2026-04-18T07:21:09Z</time></trkpt><trkpt lat="43.53075936042069" lon="10.626158131743775"><ele>117.0</ele><time>2026-04-18T07:21:10Z</time></trkpt><trkpt lat="43.53085904897953" lon="10.626173329713783"><ele>117.0</ele><time>2026-04-18T07:21:11Z</time></trkpt><trkpt lat="43.530958419165785" lon="10.626176059086553"><ele>117.0</ele><time>2026-04-18T07:21:12Z</time></trkpt><trkpt lat="43.53103592764485" lon="10.62617521996382"><ele>117.0</ele><time>2026-04-18T07:21:13Z</time></trkpt><trkpt lat="43.531106342216155" lon="10.626189227801833"><ele>117.0</ele><time>2026-04-18T07:21:14Z</time></trkpt><trkpt lat="43.53117912818138" lon="10.626213810147052"><ele>118.6</ele><time>2026-04-18T07:21:15Z</time></trkpt><trkpt lat="43.53127640140382" lon="10.626248159994338"><ele>120.19999999999999</ele><time>2026-04-18T07:21:16Z</time></trkpt><trkpt lat="43.53137489759835" lon="10.626280724985875"><ele>121.8</ele><time>2026-04-18T07:21:17Z</time></trkpt><trkpt lat="43.53147481240533" lon="10.626300373981113"><ele>123.4</ele><time>2026-04-18T07:21:18Z</time></trkpt><trkpt lat="43.53158670244732" lon="10.626312112747613"><ele>125.0</ele><time>2026-04-18T07:21:19Z</time></trkpt><trkpt lat="43.53171635646804" lon="10.626326528204808"><ele>125.0</ele><time>2026-04-18T07:21:20Z</time></trkpt><trkpt lat="43.531821400613715" lon="10.626345018969081"><ele>125.0</ele><time>2026-04-18T07:21:21Z</time></trkpt><trkpt lat="43.531930469554915" lon="10.626382410330988"><ele>125.0</ele><time>2026-04-18T07:21:22Z</time></trkpt><trkpt lat="43.53203145734563" lon="10.626429801272563"><ele>125.0</ele><time>2026-04-18T07:21:23Z</time></trkpt><trkpt lat="43.53211370636552" lon="10.626471843482888"><ele>125.0</ele><time>2026-04-18T07:21:24Z</time></trkpt><trkpt lat="43.532221328479544" lon="10.626501542930557"><ele>124.99999999999999</ele><time>2026-04-18T07:21:26Z</time></trkpt><trkpt lat="43.532298616424804" lon="10.626522512376031"><ele>125.0</ele><time>2026-04-18T07:21:27Z</time></trkpt><trkpt lat="43.53237534897658" lon="10.626556350884336"><ele>125.0</ele><time>2026-04-18T07:21:28Z</time></trkpt><trkpt lat="43.5324429318529" lon="10.626612212767487"><ele>125.0</ele><time>2026-04-18T07:21:31Z</time></trkpt><trkpt lat="43.53237439750243" lon="10.626628049804008"><ele>124.99999999999999</ele><time>2026-04-18T07:25:55Z</time></trkpt><trkpt lat="43.5323090466" lon="10.626658712346732"><ele>125.0</ele><time>2026-04-18T07:25:59Z</time></trkpt><trkpt lat="43.53250080414391" lon="10.626704964174586"><ele>124.99999999999999</ele><time>2026-04-18T07:26:00Z</time></trkpt><trkpt lat="43.532569933922325" lon="10.626755355791186"><ele>125.0</ele><time>2026-04-18T07:26:05Z</time></trkpt><trkpt lat="43.53264325844601" lon="10.626823795663421"><ele>125.0</ele><time>2026-04-18T07:26:08Z</time></trkpt><trkpt lat="43.53272527570743" lon="10.626847689232976"><ele>125.0</ele><time>2026-04-18T07:26:11Z</time></trkpt><trkpt lat="43.53279492615284" lon="10.626865871152141"><ele>124.99999999999999</ele><time>2026-04-18T07:26:16Z</time></trkpt><trkpt lat="43.53285730713402" lon="10.626897993020675"><ele>125.0</ele><time>2026-04-18T07:26:20Z</time></trkpt><trkpt lat="43.532923161990325" lon="10.626917456631483"><ele>124.33333333333333</ele><time>2026-04-18T07:26:23Z</time></trkpt><trkpt lat="43.53299377066739" lon="10.62694017085106"><ele>123.66666666666666</ele><time>2026-04-18T07:26:25Z</time></trkpt><trkpt lat="43.53311483838144" lon="10.626956626540732"><ele>123.0</ele><time>2026-04-18T07:26:27Z</time></trkpt><trkpt lat="43.53318393440789" lon="10.626961452136754"><ele>122.33333333333334</ele><time>2026-04-18T07:26:28Z</time></trkpt><trkpt lat="43.533250996532956" lon="10.62696955659231"><ele>121.66666666666667</ele><time>2026-04-18T07:26:29Z</time></trkpt><trkpt lat="43.53331375563365" lon="10.626959461735796"><ele>121.0</ele><time>2026-04-18T07:26:30Z</time></trkpt><trkpt lat="43.533417166271" lon="10.62695266198511"><ele>121.00000000000001</ele><time>2026-04-18T07:26:32Z</time></trkpt><trkpt lat="43.53349358347283" lon="10.626932943196802"><ele>121.0</ele><time>2026-04-18T07:26:34Z</time></trkpt><trkpt lat="43.533555446941186" lon="10.62689517155053"><ele>121.0</ele><time>2026-04-18T07:26:35Z</time></trkpt><trkpt lat="43.53363038177632" lon="10.626833122653977"><ele>121.0</ele><time>2026-04-18T07:26:36Z</time></trkpt><trkpt lat="43.53369398772806" lon="10.626779834894336"><ele>121.00000000000001</ele><time>2026-04-18T07:26:37Z</time></trkpt><trkpt lat="43.53380612937082" lon="10.626699181321353"><ele>121.0</ele><time>2026-04-18T07:26:39Z</time></trkpt><trkpt lat="43.5338726025819" lon="10.62666044932783"><ele>121.33333333333334</ele><time>2026-04-18T07:26:40Z</time></trkpt><trkpt lat="43.533933083565614" lon="10.62662320765394"><ele>121.66666666666667</ele><time>2026-04-18T07:26:41Z</time></trkpt><trkpt lat="43.53403958917418" lon="10.626518595131397"><ele>122.0</ele><time>2026-04-18T07:26:43Z</time></trkpt><trkpt lat="43.53408686804995" lon="10.626447694806815"><ele>122.33333333333334</ele><time>2026-04-18T07:26:44Z</time></trkpt><trkpt lat="43.53412646588974" lon="10.626378526960734"><ele>122.66666666666667</ele><time>2026-04-18T07:26:45Z</time></trkpt><trkpt lat="43.534170836914726" lon="10.626298481782667"><ele>123.0</ele><time>2026-04-18T07:26:46Z</time></trkpt><trkpt lat="43.53421241447859" lon="10.62621730615957"><ele>122.5</ele><time>2026-04-18T07:26:47Z</time></trkpt><trkpt lat="43.534253873116995" lon="10.626132937677802"><ele>122.0</ele><time>2026-04-18T07:26:48Z</time></trkpt><trkpt lat="43.53430007965015" lon="10.626046851652038"><ele>121.5</ele><time>2026-04-18T07:26:49Z</time></trkpt><trkpt lat="43.53434332837455" lon="10.625973313309661"><ele>121.0</ele><time>2026-04-18T07:26:50Z</time></trkpt><trkpt lat="43.534408030237564" lon="10.625862689571058"><ele>120.5</ele><time>2026-04-18T07:26:52Z</time></trkpt><trkpt lat="43.534475844943344" lon="10.625730195053075"><ele>120.0</ele><time>2026-04-18T07:26:54Z</time></trkpt><trkpt lat="43.53457075820102" lon="10.625631338044695"><ele>119.16666666666667</ele><time>2026-04-18T07:26:56Z</time></trkpt><trkpt lat="43.53463856884184" lon="10.625573154647778"><ele>118.33333333333334</ele><time>2026-04-18T07:26:57Z</time></trkpt><trkpt lat="43.53472008502904" lon="10.625510971662202"><ele>117.5</ele><time>2026-04-18T07:26:58Z</time></trkpt><trkpt lat="43.534792867758" lon="10.625460918817494"><ele>116.66666666666667</ele><time>2026-04-18T07:26:59Z</time></trkpt><trkpt lat="43.53490209380527" lon="10.625394633379369"><ele>115.83333333333334</ele><time>2026-04-18T07:27:01Z</time></trkpt><trkpt lat="43.534960299588384" lon="10.625356263544235"><ele>115.0</ele><time>2026-04-18T07:27:02Z</time></trkpt><trkpt lat="43.535077768897146" lon="10.625278918976264"><ele>114.8</ele><time>2026-04-18T07:27:04Z</time></trkpt><trkpt lat="43.53517249139969" lon="10.62521708116046"><ele>114.6</ele><time>2026-04-18T07:27:06Z</time></trkpt><trkpt lat="43.5352883360992" lon="10.625129260348775"><ele>114.4</ele><time>2026-04-18T07:27:08Z</time></trkpt><trkpt lat="43.53536953928071" lon="10.625071927194915"><ele>114.2</ele><time>2026-04-18T07:27:09Z</time></trkpt><trkpt lat="43.53543415014863" lon="10.625030365807582"><ele>114.0</ele><time>2026-04-18T07:27:10Z</time></trkpt><trkpt lat="43.53553423505773" lon="10.62497579345517"><ele>113.16666666666667</ele><time>2026-04-18T07:27:12Z</time></trkpt><trkpt lat="43.535609240680756" lon="10.624948050392184"><ele>112.33333333333334</ele><time>2026-04-18T07:27:14Z</time></trkpt><trkpt lat="43.535698620830296" lon="10.624920512393803"><ele>111.5</ele><time>2026-04-18T07:27:20Z</time></trkpt><trkpt lat="43.535761334319965" lon="10.624898212467482"><ele>110.66666666666667</ele><time>2026-04-18T07:27:24Z</time></trkpt><trkpt lat="43.53582235652587" lon="10.624874617318524"><ele>109.83333333333334</ele><time>2026-04-18T07:27:27Z</time></trkpt><trkpt lat="43.53589899942134" lon="10.624860085330669"><ele>109.0</ele><time>2026-04-18T07:27:30Z</time></trkpt><trkpt lat="43.53597755381638" lon="10.624864198667725"><ele>109.0</ele><time>2026-04-18T07:27:35Z</time></trkpt><trkpt lat="43.5360567798165" lon="10.62490386913415"><ele>109.0</ele><time>2026-04-18T07:27:46Z</time></trkpt><trkpt lat="43.53612660224194" lon="10.624932648574207"><ele>109.0</ele><time>2026-04-18T07:27:50Z</time></trkpt><trkpt lat="43.536188327867805" lon="10.624955148343005"><ele>109.0</ele><time>2026-04-18T07:27:56Z</time></trkpt><trkpt lat="43.53625325159682" lon="10.624969144340572"><ele>109.0</ele><time>2026-04-18T07:27:58Z</time></trkpt><trkpt lat="43.53631761201024" lon="10.624978868562344"><ele>109.0</ele><time>2026-04-18T07:28:01Z</time></trkpt><trkpt lat="43.53638248048642" lon="10.624989450855674"><ele>109.0</ele><time>2026-04-18T07:28:05Z</time></trkpt><trkpt lat="43.53645517673763" lon="10.62499938373615"><ele>108.16666666666667</ele><time>2026-04-18T07:28:09Z</time></trkpt><trkpt lat="43.536538422440145" lon="10.625006798532581"><ele>107.33333333333334</ele><time>2026-04-18T07:28:11Z</time></trkpt><trkpt lat="43.53660742017577" lon="10.6250167575998"><ele>106.5</ele><time>2026-04-18T07:28:12Z</time></trkpt><trkpt lat="43.53667435895518" lon="10.625030755339576"><ele>105.66666666666666</ele><time>2026-04-18T07:28:13Z</time></trkpt><trkpt lat="43.5367968977106" lon="10.625076259882308"><ele>104.83333333333333</ele><time>2026-04-18T07:28:15Z</time></trkpt><trkpt lat="43.53689406064288" lon="10.625116100235813"><ele>104.0</ele><time>2026-04-18T07:28:17Z</time></trkpt><trkpt lat="43.53700248398979" lon="10.625150721651153"><ele>103.0</ele><time>2026-04-18T07:28:19Z</time></trkpt><trkpt lat="43.537119497438894" lon="10.625180244903998"><ele>102.0</ele><time>2026-04-18T07:28:21Z</time></trkpt><trkpt lat="43.5371963883683" lon="10.62520889215793"><ele>101.0</ele><time>2026-04-18T07:28:22Z</time></trkpt><trkpt lat="43.537278562961404" lon="10.625229953641195"><ele>100.0</ele><time>2026-04-18T07:28:23Z</time></trkpt><trkpt lat="43.53738199075804" lon="10.625261031907964"><ele>99.0</ele><time>2026-04-18T07:28:24Z</time></trkpt><trkpt lat="43.53747324291935" lon="10.625285512755843"><ele>99.4</ele><time>2026-04-18T07:28:25Z</time></trkpt><trkpt lat="43.537548456895216" lon="10.625312997836309"><ele>99.80000000000001</ele><time>2026-04-18T07:28:26Z</time></trkpt><trkpt lat="43.537647178493344" lon="10.62536562217257"><ele>100.19999999999999</ele><time>2026-04-18T07:28:28Z</time></trkpt><trkpt lat="43.53773113287971" lon="10.625407263455068"><ele>100.6</ele><time>2026-04-18T07:28:30Z</time></trkpt><trkpt lat="43.53780881522793" lon="10.625431337073655"><ele>101.0</ele><time>2026-04-18T07:28:31Z</time></trkpt><trkpt lat="43.53790924609293" lon="10.625450438981636"><ele>100.99999999999999</ele><time>2026-04-18T07:28:32Z</time></trkpt><trkpt lat="43.53801574958558" lon="10.625459591238297"><ele>101.0</ele><time>2026-04-18T07:28:33Z</time></trkpt><trkpt lat="43.53809866459281" lon="10.625456531148451"><ele>101.0</ele><time>2026-04-18T07:28:34Z</time></trkpt><trkpt lat="43.53816850051177" lon="10.625444198909664"><ele>101.0</ele><time>2026-04-18T07:28:35Z</time></trkpt><trkpt lat="43.53827064319696" lon="10.625394290166831"><ele>100.99999999999999</ele><time>2026-04-18T07:28:37Z</time></trkpt><trkpt lat="43.53833583096262" lon="10.625338908449224"><ele>101.0</ele><time>2026-04-18T07:28:38Z</time></trkpt><trkpt lat="43.538403201362506" lon="10.625275988026297"><ele>101.16666666666666</ele><time>2026-04-18T07:28:39Z</time></trkpt><trkpt lat="43.53846298883078" lon="10.625210514294709"><ele>101.33333333333333</ele><time>2026-04-18T07:28:40Z</time></trkpt><trkpt lat="43.53851100936401" lon="10.625153714561014"><ele>101.5</ele><time>2026-04-18T07:28:41Z</time></trkpt><trkpt lat="43.53856069455348" lon="10.625088488230842"><ele>101.66666666666666</ele><time>2026-04-18T07:28:42Z</time></trkpt><trkpt lat="43.53861157447606" lon="10.625013962075647"><ele>101.83333333333333</ele><time>2026-04-18T07:28:43Z</time></trkpt><trkpt lat="43.538671078956625" lon="10.624932763410863"><ele>102.0</ele><time>2026-04-18T07:28:44Z</time></trkpt><trkpt lat="43.538738494591826" lon="10.624838181022563"><ele>103.33333333333333</ele><time>2026-04-18T07:28:45Z</time></trkpt><trkpt lat="43.53879432136692" lon="10.624749909272476"><ele>104.66666666666666</ele><time>2026-04-18T07:28:46Z</time></trkpt><trkpt lat="43.538847811750244" lon="10.624662320721537"><ele>106.0</ele><time>2026-04-18T07:28:47Z</time></trkpt><trkpt lat="43.53889820634914" lon="10.62458899193507"><ele>107.33333333333333</ele><time>2026-04-18T07:28:48Z</time></trkpt><trkpt lat="43.53895237182007" lon="10.624520501424756"><ele>108.66666666666666</ele><time>2026-04-18T07:28:49Z</time></trkpt><trkpt lat="43.53901033705182" lon="10.624443780639147"><ele>110.0</ele><time>2026-04-18T07:28:50Z</time></trkpt><trkpt lat="43.53906407871126" lon="10.624370665495958"><ele>109.99999999999999</ele><time>2026-04-18T07:28:51Z</time></trkpt><trkpt lat="43.53911433302279" lon="10.624302724561991"><ele>110.0</ele><time>2026-04-18T07:28:52Z</time></trkpt><trkpt lat="43.53918688358008" lon="10.624191784170218"><ele>110.0</ele><time>2026-04-18T07:28:54Z</time></trkpt><trkpt lat="43.53924123930288" lon="10.624069741282828"><ele>110.0</ele><time>2026-04-18T07:28:56Z</time></trkpt><trkpt lat="43.53927414696591" lon="10.623982963478301"><ele>109.99999999999999</ele><time>2026-04-18T07:29:00Z</time></trkpt><trkpt lat="43.539314907820504" lon="10.623912509544747"><ele>110.0</ele><time>2026-04-18T07:29:02Z</time></trkpt><trkpt lat="43.539371821347494" lon="10.623854537900607"><ele>109.99999999999999</ele><time>2026-04-18T07:29:07Z</time></trkpt><trkpt lat="43.53943395897271" lon="10.623794079510452"><ele>110.0</ele><time>2026-04-18T07:29:57Z</time></trkpt><trkpt lat="43.53945322616686" lon="10.62371016292591"><ele>110.0</ele><time>2026-04-18T07:29:59Z</time></trkpt><trkpt lat="43.539411613198574" lon="10.623874980298236"><ele>110.0</ele><time>2026-04-18T07:30:02Z</time></trkpt><trkpt lat="43.53933902176125" lon="10.623923818211496"><ele>109.99999999999999</ele><time>2026-04-18T07:30:10Z</time></trkpt><trkpt lat="43.539262786595486" lon="10.6238953235404"><ele>110.0</ele><time>2026-04-18T07:30:14Z</time></trkpt><trkpt lat="43.53921823650552" lon="10.623814832835878"><ele>109.99999999999999</ele><time>2026-04-18T07:30:17Z</time></trkpt><trkpt lat="43.53926300006463" lon="10.623735562111339"><ele>110.0</ele><time>2026-04-18T07:30:22Z</time></trkpt><trkpt lat="43.539348451665376" lon="10.62371669572885"><ele>110.0</ele><time>2026-04-18T07:30:25Z</time></trkpt><trkpt lat="43.53941760527036" lon="10.623723612959717"><ele>110.0</ele><time>2026-04-18T07:30:28Z</time></trkpt><trkpt lat="43.539490892317396" lon="10.62378180181232"><ele>109.99999999999999</ele><time>2026-04-18T07:30:33Z</time></trkpt><trkpt lat="43.539547888424316" lon="10.623874057582888"><ele>110.0</ele><time>2026-04-18T07:30:37Z</time></trkpt><trkpt lat="43.539595406205166" lon="10.623944449149855"><ele>109.0</ele><time>2026-04-18T07:30:46Z</time></trkpt><trkpt lat="43.5396704044386" lon="10.624014215881235"><ele>108.0</ele><time>2026-04-18T07:30:49Z</time></trkpt><trkpt lat="43.539774818026075" lon="10.624127152745745"><ele>107.0</ele><time>2026-04-18T07:30:51Z</time></trkpt><trkpt lat="43.53980944644543" lon="10.624219749465839"><ele>106.0</ele><time>2026-04-18T07:30:52Z</time></trkpt><trkpt lat="43.53986114293805" lon="10.624307843334558"><ele>105.0</ele><time>2026-04-18T07:30:53Z</time></trkpt><trkpt lat="43.53992693201962" lon="10.624389205740204"><ele>105.0</ele><time>2026-04-18T07:30:54Z</time></trkpt><trkpt lat="43.54000328598586" lon="10.624474395107688"><ele>105.0</ele><time>2026-04-18T07:30:55Z</time></trkpt><trkpt lat="43.54005394890962" lon="10.624561847299866"><ele>105.0</ele><time>2026-04-18T07:30:56Z</time></trkpt><trkpt lat="43.54011712313673" lon="10.62463496307745"><ele>105.0</ele><time>2026-04-18T07:30:57Z</time></trkpt><trkpt lat="43.54018824789466" lon="10.624690256132325"><ele>105.0</ele><time>2026-04-18T07:30:58Z</time></trkpt><trkpt lat="43.54023783546399" lon="10.624751536408205"><ele>105.0</ele><time>2026-04-18T07:30:59Z</time></trkpt><trkpt lat="43.54032182188304" lon="10.624871108971892"><ele>105.16666666666667</ele><time>2026-04-18T07:31:01Z</time></trkpt><trkpt lat="43.5403385668091" lon="10.625008864740439"><ele>105.33333333333334</ele><time>2026-04-18T07:31:03Z</time></trkpt><trkpt lat="43.54032370507242" lon="10.625150158845198"><ele>105.5</ele><time>2026-04-18T07:31:05Z</time></trkpt><trkpt lat="43.54033938670587" lon="10.625238058765428"><ele>105.66666666666667</ele><time>2026-04-18T07:31:06Z</time></trkpt><trkpt lat="43.54035532317023" lon="10.625333628361341"><ele>105.83333333333334</ele><time>2026-04-18T07:31:08Z</time></trkpt><trkpt lat="43.540392874139975" lon="10.6254235957229"><ele>106.0</ele><time>2026-04-18T07:34:10Z</time></trkpt><trkpt lat="43.54044315589816" lon="10.625533664228934"><ele>106.00000000000001</ele><time>2026-04-18T07:34:13Z</time></trkpt><trkpt lat="43.540477603455265" lon="10.625620065685853"><ele>106.0</ele><time>2026-04-18T07:34:15Z</time></trkpt><trkpt lat="43.54050808039445" lon="10.625712624715359"><ele>106.0</ele><time>2026-04-18T07:34:18Z</time></trkpt><trkpt lat="43.54042705242387" lon="10.6258144126323"><ele>106.0</ele><time>2026-04-18T07:34:27Z</time></trkpt><trkpt lat="43.54036219685448" lon="10.625863501518856"><ele>106.00000000000001</ele><time>2026-04-18T07:34:28Z</time></trkpt><trkpt lat="43.540302453282415" lon="10.625909337762693"><ele>106.0</ele><time>2026-04-18T07:34:29Z</time></trkpt><trkpt lat="43.540212075519264" lon="10.625983675849271"><ele>106.00000000000001</ele><time>2026-04-18T07:34:31Z</time></trkpt><trkpt lat="43.54015479099281" lon="10.62603403056222"><ele>106.0</ele><time>2026-04-18T07:34:33Z</time></trkpt><trkpt lat="43.54008832623613" lon="10.626098867814209"><ele>106.0</ele><time>2026-04-18T07:34:35Z</time></trkpt><trkpt lat="43.54004042694211" lon="10.626173902568404"><ele>106.0</ele><time>2026-04-18T07:34:37Z</time></trkpt><trkpt lat="43.5400633279517" lon="10.626263631792124"><ele>106.00000000000001</ele><time>2026-04-18T07:34:39Z</time></trkpt><trkpt lat="43.54009790183577" lon="10.62634921956915"><ele>106.0</ele><time>2026-04-18T07:34:41Z</time></trkpt><trkpt lat="43.540143751074204" lon="10.626456410523813"><ele>103.8</ele><time>2026-04-18T07:34:43Z</time></trkpt><trkpt lat="43.54019509366075" lon="10.626558033404555"><ele>101.6</ele><time>2026-04-18T07:34:45Z</time></trkpt><trkpt lat="43.54025422669496" lon="10.626682537574533"><ele>99.4</ele><time>2026-04-18T07:34:47Z</time></trkpt><trkpt lat="43.54030910740474" lon="10.62680981227627"><ele>97.2</ele><time>2026-04-18T07:34:49Z</time></trkpt><trkpt lat="43.540362042542114" lon="10.626925796667209"><ele>95.0</ele><time>2026-04-18T07:34:51Z</time></trkpt><trkpt lat="43.54041685861054" lon="10.627048712148587"><ele>93.5</ele><time>2026-04-18T07:34:54Z</time></trkpt><trkpt lat="43.54046898559539" lon="10.627160791685688"><ele>92.0</ele><time>2026-04-18T07:34:56Z</time></trkpt><trkpt lat="43.540509644963244" lon="10.627247152144964"><ele>90.5</ele><time>2026-04-18T07:34:58Z</time></trkpt><trkpt lat="43.54056082866024" lon="10.627350066161538"><ele>89.0</ele><time>2026-04-18T07:35:00Z</time></trkpt><trkpt lat="43.540604365887795" lon="10.627451358947047"><ele>87.5</ele><time>2026-04-18T07:35:02Z</time></trkpt><trkpt lat="43.54064193207424" lon="10.627535130561101"><ele>86.0</ele><time>2026-04-18T07:35:04Z</time></trkpt><trkpt lat="43.54069568234896" lon="10.627642209134885"><ele>86.0</ele><time>2026-04-18T07:35:06Z</time></trkpt><trkpt lat="43.54073338175806" lon="10.627766564630448"><ele>86.0</ele><time>2026-04-18T07:35:08Z</time></trkpt><trkpt lat="43.54079802831206" lon="10.627905042228784"><ele>86.0</ele><time>2026-04-18T07:35:10Z</time></trkpt><trkpt lat="43.54084509128622" lon="10.628005854523712"><ele>86.0</ele><time>2026-04-18T07:35:12Z</time></trkpt><trkpt lat="43.54089181242944" lon="10.628105934593245"><ele>86.0</ele><time>2026-04-18T07:35:14Z</time></trkpt><trkpt lat="43.54093915231581" lon="10.628207340052175"><ele>84.66666666666667</ele><time>2026-04-18T07:35:16Z</time></trkpt><trkpt lat="43.540982574478505" lon="10.628300353465995"><ele>83.33333333333334</ele><time>2026-04-18T07:35:18Z</time></trkpt><trkpt lat="43.541033689499116" lon="10.628387610332275"><ele>82.0</ele><time>2026-04-18T07:35:20Z</time></trkpt><trkpt lat="43.54107089107251" lon="10.628518215634852"><ele>80.66666666666667</ele><time>2026-04-18T07:35:22Z</time></trkpt><trkpt lat="43.54112132415184" lon="10.628608064127747"><ele>79.33333333333333</ele><time>2026-04-18T07:35:24Z</time></trkpt><trkpt lat="43.541185170346466" lon="10.628712961466139"><ele>78.0</ele><time>2026-04-18T07:35:26Z</time></trkpt><trkpt lat="43.54123541928569" lon="10.62882757354495"><ele>75.4</ele><time>2026-04-18T07:35:28Z</time></trkpt><trkpt lat="43.54128885699331" lon="10.628937604057128"><ele>72.8</ele><time>2026-04-18T07:35:30Z</time></trkpt><trkpt lat="43.541347724855136" lon="10.629059803957569"><ele>70.2</ele><time>2026-04-18T07:35:32Z</time></trkpt><trkpt lat="43.54141250301622" lon="10.629199876849833"><ele>67.6</ele><time>2026-04-18T07:35:34Z</time></trkpt><trkpt lat="43.54146534698477" lon="10.629318235729592"><ele>65.0</ele><time>2026-04-18T07:35:36Z</time></trkpt><trkpt lat="43.54152248068348" lon="10.62945175357352"><ele>63.6</ele><time>2026-04-18T07:35:38Z</time></trkpt><trkpt lat="43.541575432583635" lon="10.629572037589275"><ele>62.2</ele><time>2026-04-18T07:35:40Z</time></trkpt><trkpt lat="43.54164175644047" lon="10.629750335009298"><ele>60.8</ele><time>2026-04-18T07:35:43Z</time></trkpt><trkpt lat="43.541687719600574" lon="10.629852253760834"><ele>59.4</ele><time>2026-04-18T07:35:45Z</time></trkpt><trkpt lat="43.54172489942165" lon="10.629924016523692"><ele>58.0</ele><time>2026-04-18T07:35:48Z</time></trkpt><trkpt lat="43.54166534490953" lon="10.630030995183729"><ele>58.0</ele><time>2026-04-18T07:35:51Z</time></trkpt><trkpt lat="43.54158866210353" lon="10.630119565187156"><ele>58.0</ele><time>2026-04-18T07:35:53Z</time></trkpt><trkpt lat="43.54152312007899" lon="10.630262675604238"><ele>58.0</ele><time>2026-04-18T07:35:55Z</time></trkpt><trkpt lat="43.54146060243215" lon="10.630374298939486"><ele>58.0</ele><time>2026-04-18T07:35:57Z</time></trkpt><trkpt lat="43.541423623334296" lon="10.630450549581607"><ele>58.0</ele><time>2026-04-18T07:35:58Z</time></trkpt><trkpt lat="43.54135299070494" lon="10.630596153504595"><ele>57.0</ele><time>2026-04-18T07:36:00Z</time></trkpt><trkpt lat="43.541282861548034" lon="10.6307260578932"><ele>56.0</ele><time>2026-04-18T07:36:02Z</time></trkpt><trkpt lat="43.541235285989735" lon="10.63086562300484"><ele>55.0</ele><time>2026-04-18T07:36:04Z</time></trkpt><trkpt lat="43.541190979761964" lon="10.630936066364564"><ele>54.0</ele><time>2026-04-18T07:36:05Z</time></trkpt><trkpt lat="43.5411435892815" lon="10.631084598614885"><ele>53.0</ele><time>2026-04-18T07:36:07Z</time></trkpt><trkpt lat="43.541110161754894" lon="10.631161380258893"><ele>53.0</ele><time>2026-04-18T07:36:08Z</time></trkpt><trkpt lat="43.54106241973361" lon="10.63129881881891"><ele>53.0</ele><time>2026-04-18T07:36:10.001Z</time></trkpt><trkpt lat="43.54102265239259" lon="10.631418512150242"><ele>53.0</ele><time>2026-04-18T07:36:12.001Z</time></trkpt><trkpt lat="43.54095935049968" lon="10.631562636229203"><ele>53.0</ele><time>2026-04-18T07:36:14.001Z</time></trkpt><trkpt lat="43.54090576849121" lon="10.631667893829704"><ele>53.0</ele><time>2026-04-18T07:36:16.001Z</time></trkpt><trkpt lat="43.540835025165975" lon="10.631776550635411"><ele>53.00000000000001</ele><time>2026-04-18T07:36:18.001Z</time></trkpt><trkpt lat="43.54079189184595" lon="10.631842188327061"><ele>53.0</ele><time>2026-04-18T07:36:19.001Z</time></trkpt><trkpt lat="43.5407305141009" lon="10.631974396079697"><ele>53.0</ele><time>2026-04-18T07:36:21.001Z</time></trkpt><trkpt lat="43.54069842584338" lon="10.632062859948963"><ele>53.0</ele><time>2026-04-18T07:36:22.001Z</time></trkpt><trkpt lat="43.54066150078254" lon="10.632156763660143"><ele>53.00000000000001</ele><time>2026-04-18T07:36:23.001Z</time></trkpt><trkpt lat="43.540622083788435" lon="10.632255399730933"><ele>53.0</ele><time>2026-04-18T07:36:25.001Z</time></trkpt><trkpt lat="43.54057809435203" lon="10.632390132900404"><ele>53.2</ele><time>2026-04-18T07:36:27.001Z</time></trkpt><trkpt lat="43.54052636483271" lon="10.632488839431494"><ele>53.4</ele><time>2026-04-18T07:36:28.001Z</time></trkpt><trkpt lat="43.54046766494865" lon="10.632599430339901"><ele>53.60000000000001</ele><time>2026-04-18T07:36:29.001Z</time></trkpt><trkpt lat="43.54040192479298" lon="10.632723121070471"><ele>53.800000000000004</ele><time>2026-04-18T07:36:30.001Z</time></trkpt><trkpt lat="43.54034381017823" lon="10.632843378209166"><ele>54.0</ele><time>2026-04-18T07:36:31.001Z</time></trkpt><trkpt lat="43.540274973844575" lon="10.632978536339902"><ele>55.2</ele><time>2026-04-18T07:36:32.001Z</time></trkpt><trkpt lat="43.54019688817673" lon="10.633123350878893"><ele>56.400000000000006</ele><time>2026-04-18T07:36:33.001Z</time></trkpt><trkpt lat="43.54013733091046" lon="10.63324226085099"><ele>57.6</ele><time>2026-04-18T07:36:34.001Z</time></trkpt><trkpt lat="43.54008634910863" lon="10.633341427209373"><ele>58.8</ele><time>2026-04-18T07:36:35.001Z</time></trkpt><trkpt lat="43.54003055526629" lon="10.63345178411981"><ele>60.0</ele><time>2026-04-18T07:36:36.001Z</time></trkpt><trkpt lat="43.540002099903234" lon="10.633578900898403"><ele>59.333333333333336</ele><time>2026-04-18T07:36:37.001Z</time></trkpt><trkpt lat="43.53996316227727" lon="10.63369502015059"><ele>58.66666666666667</ele><time>2026-04-18T07:36:38.001Z</time></trkpt><trkpt lat="43.53989416700387" lon="10.633788523406759"><ele>58.0</ele><time>2026-04-18T07:36:39.001Z</time></trkpt><trkpt lat="43.53983951099747" lon="10.633885439073511"><ele>57.333333333333336</ele><time>2026-04-18T07:36:40.001Z</time></trkpt><trkpt lat="43.53979466356816" lon="10.633979525600886"><ele>56.66666666666667</ele><time>2026-04-18T07:36:41.001Z</time></trkpt><trkpt lat="43.539748961546195" lon="10.63405872190798"><ele>56.0</ele><time>2026-04-18T07:36:42.001Z</time></trkpt><trkpt lat="43.53970864595228" lon="10.634130593228136"><ele>56.0</ele><time>2026-04-18T07:36:43.001Z</time></trkpt><trkpt lat="43.53966018838039" lon="10.634216245602477"><ele>55.99999999999999</ele><time>2026-04-18T07:36:44.001Z</time></trkpt><trkpt lat="43.539613086446835" lon="10.634299391664168"><ele>55.99999999999999</ele><time>2026-04-18T07:36:45.001Z</time></trkpt><trkpt lat="43.53955466661724" lon="10.634403472339578"><ele>56.0</ele><time>2026-04-18T07:36:46.001Z</time></trkpt><trkpt lat="43.539490277289076" lon="10.634518586455318"><ele>56.0</ele><time>2026-04-18T07:36:47.001Z</time></trkpt><trkpt lat="43.53943221253303" lon="10.634621592394026"><ele>56.00000000000001</ele><time>2026-04-18T07:36:48.001Z</time></trkpt><trkpt lat="43.53938315756369" lon="10.634710531622497"><ele>56.0</ele><time>2026-04-18T07:36:49.001Z</time></trkpt><trkpt lat="43.539345562448496" lon="10.63478445890841"><ele>56.0</ele><time>2026-04-18T07:36:50.001Z</time></trkpt><trkpt lat="43.53930629419212" lon="10.634856190436636"><ele>56.0</ele><time>2026-04-18T07:36:51.001Z</time></trkpt><trkpt lat="43.539264614028404" lon="10.634937032580416"><ele>56.00000000000001</ele><time>2026-04-18T07:36:52.001Z</time></trkpt><trkpt lat="43.53921483518002" lon="10.634995966079401"><ele>56.0</ele><time>2026-04-18T07:36:53.001Z</time></trkpt><trkpt lat="43.53912265919659" lon="10.635105545095467"><ele>56.0</ele><time>2026-04-18T07:36:55.001Z</time></trkpt><trkpt lat="43.53902243208093" lon="10.635112178908447"><ele>55.99999999999999</ele><time>2026-04-18T07:36:57.001Z</time></trkpt><trkpt lat="43.53899218974425" lon="10.635258393013805"><ele>55.99999999999999</ele><time>2026-04-18T07:36:58.001Z</time></trkpt><trkpt lat="43.53894493847791" lon="10.635340518435951"><ele>56.0</ele><time>2026-04-18T07:36:59Z</time></trkpt><trkpt lat="43.53889040728124" lon="10.635433337254064"><ele>56.0</ele><time>2026-04-18T07:37:00Z</time></trkpt><trkpt lat="43.538829455407274" lon="10.635533616163771"><ele>56.00000000000001</ele><time>2026-04-18T07:37:01Z</time></trkpt><trkpt lat="43.538766436514635" lon="10.635637295761855"><ele>56.0</ele><time>2026-04-18T07:37:02Z</time></trkpt><trkpt lat="43.53871355493886" lon="10.635759134523056"><ele>56.0</ele><time>2026-04-18T07:37:03Z</time></trkpt><trkpt lat="43.53866229429017" lon="10.635837758402552"><ele>56.0</ele><time>2026-04-18T07:37:04Z</time></trkpt><trkpt lat="43.53861189666413" lon="10.635924736780353"><ele>56.00000000000001</ele><time>2026-04-18T07:37:05Z</time></trkpt><trkpt lat="43.5385762305594" lon="10.636026395660766"><ele>56.0</ele><time>2026-04-18T07:37:06Z</time></trkpt><trkpt lat="43.53856031636475" lon="10.636127745432178"><ele>56.599999999999994</ele><time>2026-04-18T07:37:07Z</time></trkpt><trkpt lat="43.5385508603036" lon="10.63624276300803"><ele>57.199999999999996</ele><time>2026-04-18T07:37:08Z</time></trkpt><trkpt lat="43.538535275682726" lon="10.636327214015909"><ele>57.800000000000004</ele><time>2026-04-18T07:37:09Z</time></trkpt><trkpt lat="43.538503674454184" lon="10.636487648943152"><ele>58.400000000000006</ele><time>2026-04-18T07:37:11Z</time></trkpt><trkpt lat="43.538474055962205" lon="10.636639817369895"><ele>59.0</ele><time>2026-04-18T07:37:13Z</time></trkpt><trkpt lat="43.53843175648206" lon="10.636791298116801"><ele>59.0</ele><time>2026-04-18T07:37:15Z</time></trkpt><trkpt lat="43.53836593180492" lon="10.636918866784763"><ele>59.0</ele><time>2026-04-18T07:37:17Z</time></trkpt><trkpt lat="43.538324050449795" lon="10.636993436027605"><ele>59.0</ele><time>2026-04-18T07:37:19Z</time></trkpt><trkpt lat="43.53844285524631" lon="10.637181292872267"><ele>59.0</ele><time>2026-04-18T07:37:20Z</time></trkpt><trkpt lat="43.53851572092326" lon="10.63727506812066"><ele>58.333333333333336</ele><time>2026-04-18T07:37:21Z</time></trkpt><trkpt lat="43.53859313455651" lon="10.637374696410943"><ele>57.66666666666667</ele><time>2026-04-18T07:37:22Z</time></trkpt><trkpt lat="43.53864731635008" lon="10.637444904038619"><ele>57.0</ele><time>2026-04-18T07:37:23Z</time></trkpt><trkpt lat="43.53870092227448" lon="10.637515351340282"><ele>56.33333333333333</ele><time>2026-04-18T07:37:24Z</time></trkpt><trkpt lat="43.538761151636244" lon="10.63759435543782"><ele>55.666666666666664</ele><time>2026-04-18T07:37:25Z</time></trkpt><trkpt lat="43.53882627727684" lon="10.637678727727256"><ele>55.0</ele><time>2026-04-18T07:37:26Z</time></trkpt><trkpt lat="43.538913682657395" lon="10.637791964109676"><ele>53.666666666666664</ele><time>2026-04-18T07:37:27Z</time></trkpt><trkpt lat="43.53901643027839" lon="10.637922954804687"><ele>52.33333333333333</ele><time>2026-04-18T07:37:28Z</time></trkpt><trkpt lat="43.539130603687326" lon="10.638064824562898"><ele>51.0</ele><time>2026-04-18T07:37:29Z</time></trkpt><trkpt lat="43.539254691588376" lon="10.638213536663173"><ele>51.0</ele><time>2026-04-18T07:37:30Z</time></trkpt><trkpt lat="43.5393703451357" lon="10.638318509017031"><ele>51.0</ele><time>2026-04-18T07:37:31Z</time></trkpt><trkpt lat="43.53945460721686" lon="10.638439082377703"><ele>51.0</ele><time>2026-04-18T07:37:32Z</time></trkpt><trkpt lat="43.539553155750234" lon="10.638532655155458"><ele>51.0</ele><time>2026-04-18T07:37:33Z</time></trkpt><trkpt lat="43.53964876973191" lon="10.638599807418718"><ele>51.5</ele><time>2026-04-18T07:37:34Z</time></trkpt><trkpt lat="43.539724230265485" lon="10.638689835464952"><ele>52.0</ele><time>2026-04-18T07:37:35Z</time></trkpt><trkpt lat="43.539780649859736" lon="10.638813899991462"><ele>52.5</ele><time>2026-04-18T07:37:36Z</time></trkpt><trkpt lat="43.539864912705816" lon="10.638955642071847"><ele>53.0</ele><time>2026-04-18T07:37:37Z</time></trkpt><trkpt lat="43.53998671865464" lon="10.639096763114345"><ele>53.0</ele><time>2026-04-18T07:37:38Z</time></trkpt><trkpt lat="43.540101041906176" lon="10.639263956333327"><ele>53.0</ele><time>2026-04-18T07:37:39Z</time></trkpt><trkpt lat="43.54024816673093" lon="10.639415241902437"><ele>53.0</ele><time>2026-04-18T07:37:40Z</time></trkpt><trkpt lat="43.540369231578005" lon="10.639573123653994"><ele>53.599999999999994</ele><time>2026-04-18T07:37:41Z</time></trkpt><trkpt lat="43.54047620491046" lon="10.639709086400565"><ele>54.199999999999996</ele><time>2026-04-18T07:37:42Z</time></trkpt><trkpt lat="43.540561586223696" lon="10.639820878022674"><ele>54.8</ele><time>2026-04-18T07:37:43Z</time></trkpt><trkpt lat="43.540636829213256" lon="10.639913331063388"><ele>55.4</ele><time>2026-04-18T07:37:44Z</time></trkpt><trkpt lat="43.54069458049186" lon="10.639987430385448"><ele>56.0</ele><time>2026-04-18T07:37:45Z</time></trkpt><trkpt lat="43.54075698320745" lon="10.640102487192006"><ele>56.0</ele><time>2026-04-18T07:37:47Z</time></trkpt><trkpt lat="43.54079454876373" lon="10.640178288890892"><ele>55.99999999999999</ele><time>2026-04-18T07:37:50Z</time></trkpt><trkpt lat="43.540725697696324" lon="10.64033188563222"><ele>55.99999999999999</ele><time>2026-04-18T07:37:56Z</time></trkpt><trkpt lat="43.54067637522379" lon="10.640444141688414"><ele>56.0</ele><time>2026-04-18T07:37:57Z</time></trkpt><trkpt lat="43.540617460076476" lon="10.64055701933429"><ele>56.0</ele><time>2026-04-18T07:37:58Z</time></trkpt><trkpt lat="43.54055802006717" lon="10.640676655939142"><ele>56.0</ele><time>2026-04-18T07:37:59Z</time></trkpt><trkpt lat="43.54048735592924" lon="10.64081071920228"><ele>56.0</ele><time>2026-04-18T07:38:00Z</time></trkpt><trkpt lat="43.540410655457556" lon="10.640952980612102"><ele>56.0</ele><time>2026-04-18T07:38:01Z</time></trkpt><trkpt lat="43.54032581185336" lon="10.641107859127047"><ele>56.0</ele><time>2026-04-18T07:38:02Z</time></trkpt><trkpt lat="43.54023066695247" lon="10.641268997621886"><ele>56.5</ele><time>2026-04-18T07:38:03Z</time></trkpt><trkpt lat="43.540146716216135" lon="10.641418630034353"><ele>57.0</ele><time>2026-04-18T07:38:04Z</time></trkpt><trkpt lat="43.540055190016446" lon="10.641569993501076"><ele>57.5</ele><time>2026-04-18T07:38:05Z</time></trkpt><trkpt lat="43.53995234522659" lon="10.641721732368435"><ele>58.0</ele><time>2026-04-18T07:38:06Z</time></trkpt><trkpt lat="43.539845352355066" lon="10.64188137042808"><ele>58.0</ele><time>2026-04-18T07:38:07Z</time></trkpt><trkpt lat="43.5397394947285" lon="10.642036176426338"><ele>58.0</ele><time>2026-04-18T07:38:08Z</time></trkpt><trkpt lat="43.53962077449714" lon="10.642174031033901"><ele>58.0</ele><time>2026-04-18T07:38:09Z</time></trkpt><trkpt lat="43.539510215542656" lon="10.642323973787928"><ele>58.0</ele><time>2026-04-18T07:38:10Z</time></trkpt><trkpt lat="43.53940837718667" lon="10.64249233130266"><ele>58.0</ele><time>2026-04-18T07:38:11Z</time></trkpt><trkpt lat="43.53928488827426" lon="10.642649285783758"><ele>58.0</ele><time>2026-04-18T07:38:12Z</time></trkpt><trkpt lat="43.53916434913543" lon="10.64282035814602"><ele>62.666666666666664</ele><time>2026-04-18T07:38:13Z</time></trkpt><trkpt lat="43.539040750670445" lon="10.642995916053874"><ele>67.33333333333333</ele><time>2026-04-18T07:38:14Z</time></trkpt><trkpt lat="43.53892460110704" lon="10.643165963617282"><ele>72.0</ele><time>2026-04-18T07:38:15Z</time></trkpt><trkpt lat="43.538818283822145" lon="10.643338791462972"><ele>69.66666666666667</ele><time>2026-04-18T07:38:16Z</time></trkpt><trkpt lat="43.538716790214096" lon="10.643519493519936"><ele>67.33333333333334</ele><time>2026-04-18T07:38:17Z</time></trkpt><trkpt lat="43.538620740418565" lon="10.64370035978541"><ele>65.0</ele><time>2026-04-18T07:38:18Z</time></trkpt><trkpt lat="43.538523641585364" lon="10.64388715781343"><ele>65.0</ele><time>2026-04-18T07:38:19Z</time></trkpt><trkpt lat="43.53841658083489" lon="10.644108640746161"><ele>65.0</ele><time>2026-04-18T07:38:20Z</time></trkpt><trkpt lat="43.538308677100204" lon="10.644341588475159"><ele>65.0</ele><time>2026-04-18T07:38:21Z</time></trkpt><trkpt lat="43.53821220458631" lon="10.644548621451852"><ele>67.33333333333334</ele><time>2026-04-18T07:38:22Z</time></trkpt><trkpt lat="43.538128628036766" lon="10.644740768517034"><ele>69.66666666666667</ele><time>2026-04-18T07:38:23Z</time></trkpt><trkpt lat="43.538053153992294" lon="10.644927430886376"><ele>72.0</ele><time>2026-04-18T07:38:24Z</time></trkpt><trkpt lat="43.53798645284648" lon="10.645127258706715"><ele>73.66666666666667</ele><time>2026-04-18T07:38:25Z</time></trkpt><trkpt lat="43.537939099828314" lon="10.645349213750745"><ele>75.33333333333334</ele><time>2026-04-18T07:38:26Z</time></trkpt><trkpt lat="43.53787950671305" lon="10.645571974249975"><ele>77.0</ele><time>2026-04-18T07:38:27Z</time></trkpt><trkpt lat="43.53782883419307" lon="10.645768994812162"><ele>74.5</ele><time>2026-04-18T07:38:28Z</time></trkpt><trkpt lat="43.53776051418905" lon="10.645946923296794"><ele>72.0</ele><time>2026-04-18T07:38:29.001Z</time></trkpt><trkpt lat="43.53767590169111" lon="10.646093420757708"><ele>69.5</ele><time>2026-04-18T07:38:30.001Z</time></trkpt><trkpt lat="43.53758076904515" lon="10.646213635918805"><ele>67.0</ele><time>2026-04-18T07:38:31.001Z</time></trkpt><trkpt lat="43.5374831178488" lon="10.64633484797458"><ele>67.0</ele><time>2026-04-18T07:38:32.001Z</time></trkpt><trkpt lat="43.53734387828437" lon="10.646400625582144"><ele>67.0</ele><time>2026-04-18T07:38:33.001Z</time></trkpt><trkpt lat="43.537199099883566" lon="10.646459714335817"><ele>67.0</ele><time>2026-04-18T07:38:34.001Z</time></trkpt><trkpt lat="43.53704415969584" lon="10.646513118470018"><ele>66.66666666666666</ele><time>2026-04-18T07:38:35.001Z</time></trkpt><trkpt lat="43.53688406011951" lon="10.646498421466985"><ele>66.33333333333333</ele><time>2026-04-18T07:38:36.001Z</time></trkpt><trkpt lat="43.536726303658504" lon="10.646447150018925"><ele>66.0</ele><time>2026-04-18T07:38:37.001Z</time></trkpt><trkpt lat="43.53656939441468" lon="10.646368624849623"><ele>66.0</ele><time>2026-04-18T07:38:38.001Z</time></trkpt><trkpt lat="43.53640021986767" lon="10.646293292278662"><ele>66.0</ele><time>2026-04-18T07:38:39.001Z</time></trkpt><trkpt lat="43.536247750696496" lon="10.646234243302326"><ele>66.0</ele><time>2026-04-18T07:38:40.001Z</time></trkpt><trkpt lat="43.53608849680302" lon="10.646199353354936"><ele>66.33333333333333</ele><time>2026-04-18T07:38:41.001Z</time></trkpt><trkpt lat="43.53592492362516" lon="10.646189275089665"><ele>66.66666666666666</ele><time>2026-04-18T07:38:42.001Z</time></trkpt><trkpt lat="43.53576224815896" lon="10.646217055516086"><ele>67.0</ele><time>2026-04-18T07:38:43.001Z</time></trkpt><trkpt lat="43.535587118399334" lon="10.646294503802883"><ele>67.0</ele><time>2026-04-18T07:38:44.001Z</time></trkpt><trkpt lat="43.53550972429211" lon="10.646338853110624"><ele>67.0</ele><time>2026-04-18T07:38:45.001Z</time></trkpt><trkpt lat="43.5353614999633" lon="10.646392555603008"><ele>67.0</ele><time>2026-04-18T07:38:46.001Z</time></trkpt><trkpt lat="43.5352155891773" lon="10.646449990283868"><ele>67.0</ele><time>2026-04-18T07:38:47.001Z</time></trkpt><trkpt lat="43.53506403260976" lon="10.646508134945691"><ele>66.33333333333333</ele><time>2026-04-18T07:38:48.001Z</time></trkpt><trkpt lat="43.53489845968015" lon="10.646573795607141"><ele>65.66666666666667</ele><time>2026-04-18T07:38:49.001Z</time></trkpt><trkpt lat="43.53472438447238" lon="10.646636376289386"><ele>65.0</ele><time>2026-04-18T07:38:50.001Z</time></trkpt><trkpt lat="43.534549709823864" lon="10.646703819200567"><ele>64.0</ele><time>2026-04-18T07:38:51.001Z</time></trkpt><trkpt lat="43.53436937520542" lon="10.646752897687318"><ele>63.0</ele><time>2026-04-18T07:38:52.001Z</time></trkpt><trkpt lat="43.53418399751109" lon="10.646814968934773"><ele>62.0</ele><time>2026-04-18T07:38:53.001Z</time></trkpt><trkpt lat="43.534009617432226" lon="10.646868493971606"><ele>62.0</ele><time>2026-04-18T07:38:54.001Z</time></trkpt><trkpt lat="43.53384954995392" lon="10.646934731847166"><ele>62.0</ele><time>2026-04-18T07:38:55.001Z</time></trkpt><trkpt lat="43.53368675140481" lon="10.646978090312603"><ele>62.0</ele><time>2026-04-18T07:38:56.001Z</time></trkpt><trkpt lat="43.53352550956251" lon="10.647032590065038"><ele>63.0</ele><time>2026-04-18T07:38:57.001Z</time></trkpt><trkpt lat="43.53336183810484" lon="10.64707774947196"><ele>64.0</ele><time>2026-04-18T07:38:58.001Z</time></trkpt><trkpt lat="43.53319262113049" lon="10.64710292464598"><ele>65.0</ele><time>2026-04-18T07:38:59.001Z</time></trkpt><trkpt lat="43.53301760161202" lon="10.647117034382577"><ele>65.33333333333334</ele><time>2026-04-18T07:39:00.001Z</time></trkpt><trkpt lat="43.53283965853608" lon="10.647120575679041"><ele>65.66666666666667</ele><time>2026-04-18T07:39:01.001Z</time></trkpt><trkpt lat="43.532661162180744" lon="10.647136159702056"><ele>66.0</ele><time>2026-04-18T07:39:02.001Z</time></trkpt><trkpt lat="43.53248696631241" lon="10.647156050316303"><ele>66.0</ele><time>2026-04-18T07:39:03.001Z</time></trkpt><trkpt lat="43.532321234646055" lon="10.647176706883323"><ele>66.0</ele><time>2026-04-18T07:39:04.001Z</time></trkpt><trkpt lat="43.532162775272106" lon="10.647218008885426"><ele>66.0</ele><time>2026-04-18T07:39:05Z</time></trkpt><trkpt lat="43.53201506801584" lon="10.647276364793814"><ele>65.0</ele><time>2026-04-18T07:39:06Z</time></trkpt><trkpt lat="43.531880358103294" lon="10.647353869999028"><ele>64.0</ele><time>2026-04-18T07:39:07Z</time></trkpt><trkpt lat="43.53175139688131" lon="10.647443703150719"><ele>63.0</ele><time>2026-04-18T07:39:08Z</time></trkpt><trkpt lat="43.53163736205126" lon="10.647557741711978"><ele>62.0</ele><time>2026-04-18T07:39:09Z</time></trkpt><trkpt lat="43.53153746043571" lon="10.647695606074098"><ele>63.66666666666667</ele><time>2026-04-18T07:39:10Z</time></trkpt><trkpt lat="43.53145917173965" lon="10.64787310586236"><ele>65.33333333333333</ele><time>2026-04-18T07:39:11Z</time></trkpt><trkpt lat="43.531364534696614" lon="10.64804531934936"><ele>67.0</ele><time>2026-04-18T07:39:12Z</time></trkpt><trkpt lat="43.53123432948868" lon="10.648197003826168"><ele>66.33333333333333</ele><time>2026-04-18T07:39:13Z</time></trkpt><trkpt lat="43.53108424932472" lon="10.648356232685062"><ele>65.66666666666667</ele><time>2026-04-18T07:39:14Z</time></trkpt><trkpt lat="43.53093047344122" lon="10.648494377490792"><ele>65.0</ele><time>2026-04-18T07:39:15Z</time></trkpt><trkpt lat="43.53080338577146" lon="10.648631081857424"><ele>65.0</ele><time>2026-04-18T07:39:16Z</time></trkpt><trkpt lat="43.53068049457858" lon="10.648737078518124"><ele>65.0</ele><time>2026-04-18T07:39:17Z</time></trkpt><trkpt lat="43.530550909640425" lon="10.648816487257495"><ele>65.0</ele><time>2026-04-18T07:39:18Z</time></trkpt><trkpt lat="43.53042142463926" lon="10.648885327849301"><ele>65.0</ele><time>2026-04-18T07:39:19Z</time></trkpt><trkpt lat="43.53028103035641" lon="10.64890504688471"><ele>66.5</ele><time>2026-04-18T07:39:20Z</time></trkpt><trkpt lat="43.53014382432504" lon="10.648872716298438"><ele>68.0</ele><time>2026-04-18T07:39:21Z</time></trkpt><trkpt lat="43.530008549166254" lon="10.648808867503828"><ele>69.5</ele><time>2026-04-18T07:39:22Z</time></trkpt><trkpt lat="43.52986518118351" lon="10.648737925606493"><ele>71.0</ele><time>2026-04-18T07:39:23Z</time></trkpt><trkpt lat="43.52971747359694" lon="10.648626784081301"><ele>70.5</ele><time>2026-04-18T07:39:24Z</time></trkpt><trkpt lat="43.52956672763641" lon="10.648517192048628"><ele>70.0</ele><time>2026-04-18T07:39:25Z</time></trkpt><trkpt lat="43.52945048436591" lon="10.648390841781527"><ele>69.5</ele><time>2026-04-18T07:39:26Z</time></trkpt><trkpt lat="43.529341836729934" lon="10.64829324522055"><ele>69.0</ele><time>2026-04-18T07:39:27Z</time></trkpt><trkpt lat="43.52923856369589" lon="10.648171256306929"><ele>69.0</ele><time>2026-04-18T07:39:28Z</time></trkpt><trkpt lat="43.52912491896384" lon="10.648051863490023"><ele>69.0</ele><time>2026-04-18T07:39:29Z</time></trkpt><trkpt lat="43.52899992221576" lon="10.647926424839143"><ele>69.0</ele><time>2026-04-18T07:39:30Z</time></trkpt><trkpt lat="43.52887810216409" lon="10.647805990340553"><ele>69.0</ele><time>2026-04-18T07:39:31Z</time></trkpt><trkpt lat="43.528752019771126" lon="10.647688418404758"><ele>68.0</ele><time>2026-04-18T07:39:32Z</time></trkpt><trkpt lat="43.528616807702036" lon="10.64757797825209"><ele>67.0</ele><time>2026-04-18T07:39:33Z</time></trkpt><trkpt lat="43.5284622597317" lon="10.647487122954724"><ele>66.0</ele><time>2026-04-18T07:39:34Z</time></trkpt><trkpt lat="43.528301415075354" lon="10.647406516604462"><ele>66.0</ele><time>2026-04-18T07:39:35Z</time></trkpt><trkpt lat="43.528147461624016" lon="10.647353650618584"><ele>66.0</ele><time>2026-04-18T07:39:36Z</time></trkpt><trkpt lat="43.52799612511461" lon="10.647321731983494"><ele>66.0</ele><time>2026-04-18T07:39:37Z</time></trkpt><trkpt lat="43.5278438929398" lon="10.647306852864002"><ele>67.0</ele><time>2026-04-18T07:39:38Z</time></trkpt><trkpt lat="43.527690196199714" lon="10.64730325155576"><ele>68.0</ele><time>2026-04-18T07:39:39Z</time></trkpt><trkpt lat="43.52752046375318" lon="10.647315409061227"><ele>69.0</ele><time>2026-04-18T07:39:40Z</time></trkpt><trkpt lat="43.52735410028625" lon="10.647331329215792"><ele>69.0</ele><time>2026-04-18T07:39:41Z</time></trkpt><trkpt lat="43.52720262441948" lon="10.647358696906851"><ele>69.0</ele><time>2026-04-18T07:39:42Z</time></trkpt><trkpt lat="43.5270598605071" lon="10.647393501462362"><ele>69.0</ele><time>2026-04-18T07:39:43Z</time></trkpt><trkpt lat="43.52691528995527" lon="10.64743931786674"><ele>69.0</ele><time>2026-04-18T07:39:44Z</time></trkpt><trkpt lat="43.52676792594828" lon="10.647504911018636"><ele>67.66666666666667</ele><time>2026-04-18T07:39:45Z</time></trkpt><trkpt lat="43.52662508606768" lon="10.647583276108321"><ele>66.33333333333334</ele><time>2026-04-18T07:39:46Z</time></trkpt><trkpt lat="43.52648991912894" lon="10.647677009109197"><ele>65.0</ele><time>2026-04-18T07:39:47Z</time></trkpt><trkpt lat="43.52636424091342" lon="10.647780640184196"><ele>64.5</ele><time>2026-04-18T07:39:48Z</time></trkpt><trkpt lat="43.52624637113284" lon="10.647883697688892"><ele>64.0</ele><time>2026-04-18T07:39:49Z</time></trkpt><trkpt lat="43.52613403542399" lon="10.647982745658126"><ele>63.5</ele><time>2026-04-18T07:39:50Z</time></trkpt><trkpt lat="43.52603025643965" lon="10.64809240651254"><ele>63.0</ele><time>2026-04-18T07:39:51Z</time></trkpt><trkpt lat="43.52593065736635" lon="10.648201534498739"><ele>63.0</ele><time>2026-04-18T07:39:52Z</time></trkpt><trkpt lat="43.52581347977635" lon="10.648254014221106"><ele>63.0</ele><time>2026-04-18T07:39:53Z</time></trkpt><trkpt lat="43.52570435449871" lon="10.648310804649585"><ele>63.0</ele><time>2026-04-18T07:39:54Z</time></trkpt><trkpt lat="43.525590168613206" lon="10.648263863411305"><ele>63.0</ele><time>2026-04-18T07:39:55Z</time></trkpt><trkpt lat="43.525473655147145" lon="10.64821632882427"><ele>63.2</ele><time>2026-04-18T07:39:56Z</time></trkpt><trkpt lat="43.525369221803" lon="10.648133746203051"><ele>63.4</ele><time>2026-04-18T07:39:57Z</time></trkpt><trkpt lat="43.5252817439977" lon="10.648061678548626"><ele>63.60000000000001</ele><time>2026-04-18T07:39:58Z</time></trkpt><trkpt lat="43.52519652217621" lon="10.648006647820319"><ele>63.800000000000004</ele><time>2026-04-18T07:39:59Z</time></trkpt><trkpt lat="43.52510480239663" lon="10.647966286075368"><ele>64.0</ele><time>2026-04-18T07:40:00Z</time></trkpt><trkpt lat="43.525013871686866" lon="10.647959817767935"><ele>63.99999999999999</ele><time>2026-04-18T07:40:01Z</time></trkpt><trkpt lat="43.52493133485063" lon="10.647965595340398"><ele>64.0</ele><time>2026-04-18T07:40:02Z</time></trkpt><trkpt lat="43.524851716284566" lon="10.648025644438578"><ele>64.0</ele><time>2026-04-18T07:40:03Z</time></trkpt><trkpt lat="43.524766105652795" lon="10.648087486097086"><ele>64.0</ele><time>2026-04-18T07:40:04Z</time></trkpt><trkpt lat="43.524690599020346" lon="10.648155078004097"><ele>63.99999999999999</ele><time>2026-04-18T07:40:05Z</time></trkpt><trkpt lat="43.524631561077214" lon="10.648230808847064"><ele>64.0</ele><time>2026-04-18T07:40:06Z</time></trkpt><trkpt lat="43.52458418260578" lon="10.648314790411284"><ele>63.99999999999999</ele><time>2026-04-18T07:40:07Z</time></trkpt><trkpt lat="43.52454137626157" lon="10.64845654254981"><ele>64.0</ele><time>2026-04-18T07:40:09Z</time></trkpt><trkpt lat="43.52452587270719" lon="10.648549412887023"><ele>64.0</ele><time>2026-04-18T07:40:11Z</time></trkpt><trkpt lat="43.52455168298311" lon="10.648435529348696"><ele>64.0</ele><time>2026-04-18T07:40:22Z</time></trkpt><trkpt lat="43.524570551940776" lon="10.648350197316274"><ele>63.99999999999999</ele><time>2026-04-18T07:40:23Z</time></trkpt><trkpt lat="43.524650420549165" lon="10.648307308037507"><ele>64.0</ele><time>2026-04-18T07:40:24Z</time></trkpt><trkpt lat="43.52472592083234" lon="10.64815040371274"><ele>64.0</ele><time>2026-04-18T07:40:25Z</time></trkpt><trkpt lat="43.524823401087446" lon="10.648057762179585"><ele>64.0</ele><time>2026-04-18T07:40:26Z</time></trkpt><trkpt lat="43.52493859267731" lon="10.648010102291508"><ele>64.0</ele><time>2026-04-18T07:40:27Z</time></trkpt><trkpt lat="43.525059630995024" lon="10.647992765711956"><ele>64.0</ele><time>2026-04-18T07:40:28.001Z</time></trkpt><trkpt lat="43.525176794429186" lon="10.648014668379732"><ele>64.0</ele><time>2026-04-18T07:40:29.001Z</time></trkpt><trkpt lat="43.52529859975166" lon="10.648085242125283"><ele>64.0</ele><time>2026-04-18T07:40:30.001Z</time></trkpt><trkpt lat="43.525432568459344" lon="10.648200607886258"><ele>64.0</ele><time>2026-04-18T07:40:31.001Z</time></trkpt><trkpt lat="43.52556816994807" lon="10.648286114450205"><ele>64.0</ele><time>2026-04-18T07:40:32.001Z</time></trkpt><trkpt lat="43.52568436650095" lon="10.648333141124349"><ele>63.83333333333333</ele><time>2026-04-18T07:40:33.001Z</time></trkpt><trkpt lat="43.52579041298207" lon="10.648328990239447"><ele>63.666666666666664</ele><time>2026-04-18T07:40:34.001Z</time></trkpt><trkpt lat="43.52588071816286" lon="10.648277979218038"><ele>63.5</ele><time>2026-04-18T07:40:35.001Z</time></trkpt><trkpt lat="43.525963616187084" lon="10.648265729675066"><ele>63.33333333333333</ele><time>2026-04-18T07:40:37.001Z</time></trkpt><trkpt lat="43.526013258712624" lon="10.64838134014194"><ele>63.166666666666664</ele><time>2026-04-18T07:40:39.001Z</time></trkpt><trkpt lat="43.526027288203565" lon="10.648466082738313"><ele>63.0</ele><time>2026-04-18T07:40:40.001Z</time></trkpt><trkpt lat="43.526045670592666" lon="10.648574188012068"><ele>64.6</ele><time>2026-04-18T07:40:41.001Z</time></trkpt><trkpt lat="43.52606605061601" lon="10.648699377858208"><ele>66.19999999999999</ele><time>2026-04-18T07:40:42.001Z</time></trkpt><trkpt lat="43.526086890291374" lon="10.648844592127656"><ele>67.8</ele><time>2026-04-18T07:40:43.001Z</time></trkpt><trkpt lat="43.52610860325845" lon="10.648999686463416"><ele>69.39999999999999</ele><time>2026-04-18T07:40:44.001Z</time></trkpt><trkpt lat="43.52612265504899" lon="10.649111417095574"><ele>71.0</ele><time>2026-04-18T07:40:45.001Z</time></trkpt><trkpt lat="43.52607254430945" lon="10.649267021614838"><ele>71.0</ele><time>2026-04-18T07:40:47.001Z</time></trkpt><trkpt lat="43.52601591421708" lon="10.649308756922803"><ele>71.0</ele><time>2026-04-18T07:40:48.001Z</time></trkpt><trkpt lat="43.52591877692179" lon="10.649214734637578"><ele>71.0</ele><time>2026-04-18T07:40:50.001Z</time></trkpt><trkpt lat="43.52584781598698" lon="10.649169755793283"><ele>71.0</ele><time>2026-04-18T07:40:51.001Z</time></trkpt><trkpt lat="43.52575745135217" lon="10.64906858312348"><ele>71.0</ele><time>2026-04-18T07:40:52.001Z</time></trkpt><trkpt lat="43.525654661463506" lon="10.648954485935876"><ele>71.0</ele><time>2026-04-18T07:40:53.001Z</time></trkpt><trkpt lat="43.525548546775696" lon="10.64886276942318"><ele>71.0</ele><time>2026-04-18T07:40:54.001Z</time></trkpt><trkpt lat="43.525466814966926" lon="10.64879349659059"><ele>71.0</ele><time>2026-04-18T07:40:55.001Z</time></trkpt><trkpt lat="43.52538762704016" lon="10.648704175180598"><ele>71.0</ele><time>2026-04-18T07:40:56.001Z</time></trkpt><trkpt lat="43.52532599835655" lon="10.648603627057215"><ele>71.0</ele><time>2026-04-18T07:40:57.001Z</time></trkpt><trkpt lat="43.52527548095861" lon="10.64854097478441"><ele>70.83333333333334</ele><time>2026-04-18T07:40:58.001Z</time></trkpt><trkpt lat="43.52515403636204" lon="10.648446292064708"><ele>70.66666666666667</ele><time>2026-04-18T07:41:00.001Z</time></trkpt><trkpt lat="43.52507029787041" lon="10.648458316810856"><ele>70.5</ele><time>2026-04-18T07:41:01.001Z</time></trkpt><trkpt lat="43.525004213502704" lon="10.648491905723597"><ele>70.33333333333333</ele><time>2026-04-18T07:41:02.001Z</time></trkpt><trkpt lat="43.524945139273036" lon="10.64856132136895"><ele>70.16666666666666</ele><time>2026-04-18T07:41:03.001Z</time></trkpt><trkpt lat="43.52489430367554" lon="10.648640605048406"><ele>70.0</ele><time>2026-04-18T07:41:04.001Z</time></trkpt><trkpt lat="43.52488150956866" lon="10.64877042070391"><ele>70.0</ele><time>2026-04-18T07:41:05.001Z</time></trkpt><trkpt lat="43.52490998200975" lon="10.648897950673796"><ele>70.0</ele><time>2026-04-18T07:41:06.001Z</time></trkpt><trkpt lat="43.524942479711505" lon="10.649016843947907"><ele>70.0</ele><time>2026-04-18T07:41:07.001Z</time></trkpt><trkpt lat="43.5249909069903" lon="10.649126793545124"><ele>70.0</ele><time>2026-04-18T07:41:08.001Z</time></trkpt><trkpt lat="43.52505154809114" lon="10.649263863428192"><ele>70.0</ele><time>2026-04-18T07:41:09.001Z</time></trkpt><trkpt lat="43.52512483309859" lon="10.649455566627049"><ele>70.25</ele><time>2026-04-18T07:41:10.001Z</time></trkpt><trkpt lat="43.52519799092107" lon="10.649654988016376"><ele>70.5</ele><time>2026-04-18T07:41:11Z</time></trkpt><trkpt lat="43.5252587584968" lon="10.64981769622027"><ele>70.75</ele><time>2026-04-18T07:41:12Z</time></trkpt><trkpt lat="43.52531102225247" lon="10.649945792494991"><ele>71.0</ele><time>2026-04-18T07:41:13Z</time></trkpt><trkpt lat="43.52535050150642" lon="10.65005065813206"><ele>72.2</ele><time>2026-04-18T07:41:14Z</time></trkpt><trkpt lat="43.52540024187117" lon="10.65013493498926"><ele>73.39999999999999</ele><time>2026-04-18T07:41:15Z</time></trkpt><trkpt lat="43.52547577877403" lon="10.65020841944252"><ele>74.6</ele><time>2026-04-18T07:41:16Z</time></trkpt><trkpt lat="43.52557279575479" lon="10.65025928599925"><ele>75.8</ele><time>2026-04-18T07:41:17Z</time></trkpt><trkpt lat="43.525680662160006" lon="10.650282667562879"><ele>77.0</ele><time>2026-04-18T07:41:18Z</time></trkpt><trkpt lat="43.52578245484893" lon="10.650306393940863"><ele>77.8</ele><time>2026-04-18T07:41:19Z</time></trkpt><trkpt lat="43.52586824509015" lon="10.650374375627083"><ele>78.6</ele><time>2026-04-18T07:41:20Z</time></trkpt><trkpt lat="43.525954404447766" lon="10.65045452610583"><ele>79.39999999999999</ele><time>2026-04-18T07:41:21Z</time></trkpt><trkpt lat="43.52603475868264" lon="10.65054966461299"><ele>80.2</ele><time>2026-04-18T07:41:22Z</time></trkpt><trkpt lat="43.52610294900023" lon="10.650646945875941"><ele>81.0</ele><time>2026-04-18T07:41:23Z</time></trkpt><trkpt lat="43.52614086948651" lon="10.650764034216433"><ele>81.0</ele><time>2026-04-18T07:41:24Z</time></trkpt><trkpt lat="43.52619196553088" lon="10.650936024555"><ele>81.0</ele><time>2026-04-18T07:41:25Z</time></trkpt><trkpt lat="43.52626849426062" lon="10.651085949527578"><ele>81.0</ele><time>2026-04-18T07:41:26Z</time></trkpt><trkpt lat="43.52637834223803" lon="10.651202938299148"><ele>81.0</ele><time>2026-04-18T07:41:27Z</time></trkpt><trkpt lat="43.52646791562573" lon="10.651343488847758"><ele>82.75</ele><time>2026-04-18T07:41:28Z</time></trkpt><trkpt lat="43.52654534687199" lon="10.651497335278865"><ele>84.5</ele><time>2026-04-18T07:41:29Z</time></trkpt><trkpt lat="43.526604767178746" lon="10.651652812727399"><ele>86.25</ele><time>2026-04-18T07:41:30Z</time></trkpt><trkpt lat="43.526636619833575" lon="10.651806908654443"><ele>88.0</ele><time>2026-04-18T07:41:31Z</time></trkpt><trkpt lat="43.5266786240743" lon="10.651985790630365"><ele>88.25</ele><time>2026-04-18T07:41:32Z</time></trkpt><trkpt lat="43.52669811325802" lon="10.65216247411266"><ele>88.5</ele><time>2026-04-18T07:41:33Z</time></trkpt><trkpt lat="43.52671347397838" lon="10.652302338485397"><ele>88.75</ele><time>2026-04-18T07:41:34Z</time></trkpt><trkpt lat="43.52675713591116" lon="10.652450490879106"><ele>89.0</ele><time>2026-04-18T07:41:35Z</time></trkpt><trkpt lat="43.526815777223845" lon="10.65259766375866"><ele>89.0</ele><time>2026-04-18T07:41:36Z</time></trkpt><trkpt lat="43.52688423792834" lon="10.652735468386046"><ele>89.0</ele><time>2026-04-18T07:41:37Z</time></trkpt><trkpt lat="43.526964038444476" lon="10.652857148314723"><ele>89.0</ele><time>2026-04-18T07:41:38Z</time></trkpt><trkpt lat="43.527055230145606" lon="10.652950765306272"><ele>89.0</ele><time>2026-04-18T07:41:39Z</time></trkpt><trkpt lat="43.52716366071691" lon="10.653037197275186"><ele>90.4</ele><time>2026-04-18T07:41:40Z</time></trkpt><trkpt lat="43.52727347766479" lon="10.653105345222869"><ele>91.80000000000001</ele><time>2026-04-18T07:41:41Z</time></trkpt><trkpt lat="43.5273684426669" lon="10.653160226091227"><ele>93.19999999999999</ele><time>2026-04-18T07:41:42Z</time></trkpt><trkpt lat="43.527466513857135" lon="10.65318449521686"><ele>94.6</ele><time>2026-04-18T07:41:43Z</time></trkpt><trkpt lat="43.52757741646367" lon="10.653184740426923"><ele>96.0</ele><time>2026-04-18T07:41:44Z</time></trkpt><trkpt lat="43.52770092859851" lon="10.653173542191704"><ele>96.0</ele><time>2026-04-18T07:41:45Z</time></trkpt><trkpt lat="43.527834923320505" lon="10.653139342105437"><ele>96.0</ele><time>2026-04-18T07:41:46Z</time></trkpt><trkpt lat="43.52797177818744" lon="10.653130548732952"><ele>96.0</ele><time>2026-04-18T07:41:47Z</time></trkpt><trkpt lat="43.52807847219388" lon="10.65313221017405"><ele>96.0</ele><time>2026-04-18T07:41:48Z</time></trkpt><trkpt lat="43.528167886247125" lon="10.653155853082037"><ele>97.5</ele><time>2026-04-18T07:41:49Z</time></trkpt><trkpt lat="43.528271310056425" lon="10.653200101944293"><ele>99.0</ele><time>2026-04-18T07:41:50Z</time></trkpt><trkpt lat="43.52836657640917" lon="10.653297478043408"><ele>100.5</ele><time>2026-04-18T07:41:51Z</time></trkpt><trkpt lat="43.52848003336209" lon="10.653405289369106"><ele>102.0</ele><time>2026-04-18T07:41:52Z</time></trkpt><trkpt lat="43.52861508377993" lon="10.653515745296536"><ele>104.0</ele><time>2026-04-18T07:41:53Z</time></trkpt><trkpt lat="43.528753531037474" lon="10.653659401035878"><ele>106.0</ele><time>2026-04-18T07:41:54Z</time></trkpt><trkpt lat="43.52888565737423" lon="10.653794941700205"><ele>108.0</ele><time>2026-04-18T07:41:55Z</time></trkpt><trkpt lat="43.52899391262646" lon="10.653913780306887"><ele>108.0</ele><time>2026-04-18T07:41:56Z</time></trkpt><trkpt lat="43.52909196114219" lon="10.654063285096994"><ele>108.0</ele><time>2026-04-18T07:41:57Z</time></trkpt><trkpt lat="43.52919062432272" lon="10.65423687744839"><ele>108.0</ele><time>2026-04-18T07:41:58Z</time></trkpt><trkpt lat="43.52929377293318" lon="10.65442184700414"><ele>108.0</ele><time>2026-04-18T07:41:59.001Z</time></trkpt><trkpt lat="43.52937779298656" lon="10.654579206024568"><ele>108.00000000000001</ele><time>2026-04-18T07:42:00.001Z</time></trkpt><trkpt lat="43.52945117282511" lon="10.654709489030434"><ele>108.00000000000001</ele><time>2026-04-18T07:42:01.001Z</time></trkpt><trkpt lat="43.529507296707756" lon="10.654819834958682"><ele>108.0</ele><time>2026-04-18T07:42:02.001Z</time></trkpt><trkpt lat="43.52954984652181" lon="10.654921868225829"><ele>108.0</ele><time>2026-04-18T07:42:03.001Z</time></trkpt><trkpt lat="43.52958221386842" lon="10.655041640646186"><ele>108.0</ele><time>2026-04-18T07:42:04.001Z</time></trkpt><trkpt lat="43.529596357993285" lon="10.655179447401055"><ele>108.0</ele><time>2026-04-18T07:42:05.001Z</time></trkpt><trkpt lat="43.52959750276312" lon="10.655341495860615"><ele>108.0</ele><time>2026-04-18T07:42:06.001Z</time></trkpt><trkpt lat="43.52958919491543" lon="10.655517281513008"><ele>108.0</ele><time>2026-04-18T07:42:07.001Z</time></trkpt><trkpt lat="43.529600091602745" lon="10.655691279230668"><ele>109.75</ele><time>2026-04-18T07:42:08.001Z</time></trkpt><trkpt lat="43.52964472802457" lon="10.655852099000363"><ele>111.5</ele><time>2026-04-18T07:42:09.001Z</time></trkpt><trkpt lat="43.529718858914336" lon="10.656023883600714"><ele>113.25</ele><time>2026-04-18T07:42:10.001Z</time></trkpt><trkpt lat="43.52979182680819" lon="10.65617876043979"><ele>115.0</ele><time>2026-04-18T07:42:11.001Z</time></trkpt><trkpt lat="43.52984314068528" lon="10.656303735370576"><ele>116.2</ele><time>2026-04-18T07:42:12.001Z</time></trkpt><trkpt lat="43.52987711571903" lon="10.65642943215156"><ele>117.4</ele><time>2026-04-18T07:42:13.001Z</time></trkpt><trkpt lat="43.52990182866886" lon="10.656573281335984"><ele>118.6</ele><time>2026-04-18T07:42:14.001Z</time></trkpt><trkpt lat="43.52988745909285" lon="10.656723281061028"><ele>119.8</ele><time>2026-04-18T07:42:15.001Z</time></trkpt><trkpt lat="43.529892609938" lon="10.656865911322102"><ele>121.0</ele><time>2026-04-18T07:42:16.001Z</time></trkpt><trkpt lat="43.52990225190719" lon="10.65699834018937"><ele>121.0</ele><time>2026-04-18T07:42:17.001Z</time></trkpt><trkpt lat="43.52991981952952" lon="10.657108322512928"><ele>121.0</ele><time>2026-04-18T07:42:18.001Z</time></trkpt><trkpt lat="43.52999059276247" lon="10.657216877685782"><ele>121.0</ele><time>2026-04-18T07:42:19.001Z</time></trkpt><trkpt lat="43.53008433743058" lon="10.657279481606855"><ele>121.0</ele><time>2026-04-18T07:42:20.001Z</time></trkpt><trkpt lat="43.530199559719854" lon="10.657292474010347"><ele>121.0</ele><time>2026-04-18T07:42:21.001Z</time></trkpt><trkpt lat="43.53030066118715" lon="10.657358615984771"><ele>124.5</ele><time>2026-04-18T07:42:22.001Z</time></trkpt><trkpt lat="43.530420651921524" lon="10.657414567413038"><ele>128.0</ele><time>2026-04-18T07:42:23.001Z</time></trkpt><trkpt lat="43.530534859081314" lon="10.65747264526369"><ele>131.5</ele><time>2026-04-18T07:42:24.001Z</time></trkpt><trkpt lat="43.53063586422997" lon="10.657524009738864"><ele>135.0</ele><time>2026-04-18T07:42:25.001Z</time></trkpt><trkpt lat="43.53073656398553" lon="10.657555867327632"><ele>135.0</ele><time>2026-04-18T07:42:26.001Z</time></trkpt><trkpt lat="43.530832808493685" lon="10.65756477967274"><ele>135.0</ele><time>2026-04-18T07:42:27.001Z</time></trkpt><trkpt lat="43.53093659303565" lon="10.65753980938276"><ele>135.0</ele><time>2026-04-18T07:42:28.001Z</time></trkpt><trkpt lat="43.53104411448163" lon="10.657493942808633"><ele>135.0</ele><time>2026-04-18T07:42:29.001Z</time></trkpt><trkpt lat="43.53116018927412" lon="10.65742919535642"><ele>135.0</ele><time>2026-04-18T07:42:30.001Z</time></trkpt><trkpt lat="43.53126828125411" lon="10.657354068014572"><ele>137.2</ele><time>2026-04-18T07:42:31.001Z</time></trkpt><trkpt lat="43.53136023560473" lon="10.657276072379503"><ele>139.4</ele><time>2026-04-18T07:42:32.001Z</time></trkpt><trkpt lat="43.53142386775881" lon="10.657251010254999"><ele>141.6</ele><time>2026-04-18T07:42:33.001Z</time></trkpt><trkpt lat="43.53150210255324" lon="10.65729714124254"><ele>143.8</ele><time>2026-04-18T07:42:34.001Z</time></trkpt><trkpt lat="43.53158993600443" lon="10.657353049978896"><ele>146.0</ele><time>2026-04-18T07:42:35.001Z</time></trkpt><trkpt lat="43.53167755220455" lon="10.657412585054963"><ele>146.0</ele><time>2026-04-18T07:42:36.001Z</time></trkpt><trkpt lat="43.531791420148046" lon="10.657473987653162"><ele>146.0</ele><time>2026-04-18T07:42:37.001Z</time></trkpt><trkpt lat="43.53191126168287" lon="10.657571029776138"><ele>146.0</ele><time>2026-04-18T07:42:38.001Z</time></trkpt><trkpt lat="43.5320338240355" lon="10.657626062535066"><ele>146.0</ele><time>2026-04-18T07:42:39.001Z</time></trkpt><trkpt lat="43.53213370676637" lon="10.657690382801722"><ele>144.6</ele><time>2026-04-18T07:42:40.001Z</time></trkpt><trkpt lat="43.53223837179072" lon="10.657729595913496"><ele>143.2</ele><time>2026-04-18T07:42:41.001Z</time></trkpt><trkpt lat="43.5323291699743" lon="10.657762207134997"><ele>141.8</ele><time>2026-04-18T07:42:42.001Z</time></trkpt><trkpt lat="43.53241274506585" lon="10.657787464885766"><ele>140.4</ele><time>2026-04-18T07:42:43.001Z</time></trkpt><trkpt lat="43.532486897863556" lon="10.657809361733001"><ele>139.0</ele><time>2026-04-18T07:42:44.001Z</time></trkpt><trkpt lat="43.53252275114942" lon="10.657927085123864"><ele>141.33333333333334</ele><time>2026-04-18T07:42:46.001Z</time></trkpt><trkpt lat="43.53250271174171" lon="10.658073435750445"><ele>143.66666666666669</ele><time>2026-04-18T07:42:48.001Z</time></trkpt><trkpt lat="43.532451151875726" lon="10.658145230856448"><ele>146.0</ele><time>2026-04-18T07:42:49.001Z</time></trkpt><trkpt lat="43.53237847656716" lon="10.658183878688718"><ele>148.33333333333334</ele><time>2026-04-18T07:42:50.001Z</time></trkpt><trkpt lat="43.532298627681676" lon="10.65818701069707"><ele>150.66666666666666</ele><time>2026-04-18T07:42:51.001Z</time></trkpt><trkpt lat="43.53221943776971" lon="10.6581502101018"><ele>153.0</ele><time>2026-04-18T07:42:52.001Z</time></trkpt><trkpt lat="43.53214226712733" lon="10.658092768475363"><ele>153.0</ele><time>2026-04-18T07:42:53.001Z</time></trkpt><trkpt lat="43.532059808994916" lon="10.658022421432898"><ele>153.0</ele><time>2026-04-18T07:42:54.001Z</time></trkpt><trkpt lat="43.53197447482692" lon="10.6579610178429"><ele>153.0</ele><time>2026-04-18T07:42:55.001Z</time></trkpt><trkpt lat="43.53189706223352" lon="10.657911808193024"><ele>153.0</ele><time>2026-04-18T07:42:56.001Z</time></trkpt><trkpt lat="43.53182794009342" lon="10.657879970598508"><ele>153.0</ele><time>2026-04-18T07:42:57.001Z</time></trkpt><trkpt lat="43.53170447022183" lon="10.657914984872695"><ele>154.0</ele><time>2026-04-18T07:42:59.001Z</time></trkpt><trkpt lat="43.53165370826089" lon="10.657986878301827"><ele>155.0</ele><time>2026-04-18T07:43:00.001Z</time></trkpt><trkpt lat="43.53160897051212" lon="10.658063111557686"><ele>156.0</ele><time>2026-04-18T07:43:01.001Z</time></trkpt><trkpt lat="43.53162171739278" lon="10.658152491582086"><ele>157.0</ele><time>2026-04-18T07:43:02.001Z</time></trkpt><trkpt lat="43.53166815448357" lon="10.658274254060014"><ele>158.0</ele><time>2026-04-18T07:43:04.001Z</time></trkpt><trkpt lat="43.531720661077316" lon="10.658339189298367"><ele>159.0</ele><time>2026-04-18T07:43:05.001Z</time></trkpt><trkpt lat="43.53180083593366" lon="10.658407382713088"><ele>159.0</ele><time>2026-04-18T07:43:06.001Z</time></trkpt><trkpt lat="43.53188366291349" lon="10.658471273060703"><ele>159.0</ele><time>2026-04-18T07:43:07.001Z</time></trkpt><trkpt lat="43.531947060389314" lon="10.658536433616906"><ele>159.0</ele><time>2026-04-18T07:43:08.001Z</time></trkpt><trkpt lat="43.531997028836805" lon="10.65861013094676"><ele>159.0</ele><time>2026-04-18T07:43:09.001Z</time></trkpt><trkpt lat="43.5320366169152" lon="10.658678557730486"><ele>159.0</ele><time>2026-04-18T07:43:10.001Z</time></trkpt><trkpt lat="43.53207022433961" lon="10.658769398663175"><ele>159.0</ele><time>2026-04-18T07:43:11.001Z</time></trkpt><trkpt lat="43.53210082073696" lon="10.658859281787327"><ele>159.33333333333334</ele><time>2026-04-18T07:43:12.001Z</time></trkpt><trkpt lat="43.53213003278832" lon="10.658945967618187"><ele>159.66666666666666</ele><time>2026-04-18T07:43:14.001Z</time></trkpt><trkpt lat="43.532175176715434" lon="10.65900879152482"><ele>160.0</ele><time>2026-04-18T07:43:26Z</time></trkpt><trkpt lat="43.532225440135015" lon="10.659098094053984"><ele>160.33333333333331</ele><time>2026-04-18T07:43:27Z</time></trkpt><trkpt lat="43.53226052724737" lon="10.659191189684732"><ele>160.66666666666666</ele><time>2026-04-18T07:43:28Z</time></trkpt><trkpt lat="43.53232779145029" lon="10.659306097838547"><ele>161.0</ele><time>2026-04-18T07:43:29Z</time></trkpt><trkpt lat="43.532413661701" lon="10.659453915675615"><ele>164.0</ele><time>2026-04-18T07:43:30Z</time></trkpt><trkpt lat="43.53251438484361" lon="10.659615768250754"><ele>167.0</ele><time>2026-04-18T07:43:31Z</time></trkpt><trkpt lat="43.532614411571025" lon="10.65976148582468"><ele>170.0</ele><time>2026-04-18T07:43:32Z</time></trkpt><trkpt lat="43.53271352460104" lon="10.659911366875354"><ele>173.0</ele><time>2026-04-18T07:43:33Z</time></trkpt><trkpt lat="43.53281651874868" lon="10.660069674284074"><ele>172.0</ele><time>2026-04-18T07:43:34Z</time></trkpt><trkpt lat="43.53292104738836" lon="10.6602273755732"><ele>171.0</ele><time>2026-04-18T07:43:35.001Z</time></trkpt><trkpt lat="43.53301994417072" lon="10.660385640076424"><ele>170.0</ele><time>2026-04-18T07:43:36.001Z</time></trkpt><trkpt lat="43.53310960344707" lon="10.660536033454038"><ele>169.0</ele><time>2026-04-18T07:43:37.001Z</time></trkpt><trkpt lat="43.53319815268044" lon="10.660664852621812"><ele>169.0</ele><time>2026-04-18T07:43:38.001Z</time></trkpt><trkpt lat="43.533303953499804" lon="10.660783605844347"><ele>169.0</ele><time>2026-04-18T07:43:39.001Z</time></trkpt><trkpt lat="43.53341329748123" lon="10.660864249500657"><ele>169.0</ele><time>2026-04-18T07:43:40.001Z</time></trkpt><trkpt lat="43.533498376521145" lon="10.66091963543755"><ele>169.0</ele><time>2026-04-18T07:43:41.001Z</time></trkpt><trkpt lat="43.533564068415444" lon="10.66100959614354"><ele>169.0</ele><time>2026-04-18T07:43:43.001Z</time></trkpt><trkpt lat="43.533475920566076" lon="10.66101186595118"><ele>169.0</ele><time>2026-04-18T07:43:51.001Z</time></trkpt><trkpt lat="43.53338636235042" lon="10.66098394412786"><ele>169.0</ele><time>2026-04-18T07:43:52.001Z</time></trkpt><trkpt lat="43.53330477027607" lon="10.660978467747443"><ele>169.0</ele><time>2026-04-18T07:43:53.001Z</time></trkpt><trkpt lat="43.53322560451686" lon="10.660933823962113"><ele>169.0</ele><time>2026-04-18T07:43:54.001Z</time></trkpt><trkpt lat="43.533117179380525" lon="10.660898733239787"><ele>169.0</ele><time>2026-04-18T07:43:56.001Z</time></trkpt><trkpt lat="43.532998586588945" lon="10.660850602015536"><ele>169.0</ele><time>2026-04-18T07:43:58.001Z</time></trkpt><trkpt lat="43.53292014993235" lon="10.660821841592194"><ele>169.0</ele><time>2026-04-18T07:44:00.001Z</time></trkpt><trkpt lat="43.53299531160473" lon="10.660850976359772"><ele>169.0</ele><time>2026-04-18T07:44:05.001Z</time></trkpt><trkpt lat="43.533067773126554" lon="10.660884971037337"><ele>169.0</ele><time>2026-04-18T07:44:06.001Z</time></trkpt><trkpt lat="43.53314336866114" lon="10.660949504819937"><ele>169.0</ele><time>2026-04-18T07:44:07.001Z</time></trkpt><trkpt lat="43.533224893732985" lon="10.660971617545526"><ele>169.0</ele><time>2026-04-18T07:44:08.001Z</time></trkpt><trkpt lat="43.53330715752282" lon="10.66099505149953"><ele>169.0</ele><time>2026-04-18T07:44:09.001Z</time></trkpt><trkpt lat="43.53339169775279" lon="10.661015084672886"><ele>169.0</ele><time>2026-04-18T07:44:10.001Z</time></trkpt><trkpt lat="43.53347440432426" lon="10.661032581516105"><ele>169.0</ele><time>2026-04-18T07:44:11.001Z</time></trkpt><trkpt lat="43.53355560848256" lon="10.66105171983012"><ele>169.0</ele><time>2026-04-18T07:44:12.001Z</time></trkpt><trkpt lat="43.53364161370321" lon="10.661081512381752"><ele>169.0</ele><time>2026-04-18T07:44:13.001Z</time></trkpt><trkpt lat="43.53372130493312" lon="10.661102027418087"><ele>169.0</ele><time>2026-04-18T07:44:14.001Z</time></trkpt><trkpt lat="43.53381957982874" lon="10.661144310612606"><ele>167.79999999999998</ele><time>2026-04-18T07:44:15.001Z</time></trkpt><trkpt lat="43.53392781533504" lon="10.661169259925659"><ele>166.6</ele><time>2026-04-18T07:44:16.001Z</time></trkpt><trkpt lat="43.53404096669386" lon="10.661196017557543"><ele>165.4</ele><time>2026-04-18T07:44:17.001Z</time></trkpt><trkpt lat="43.5341409968027" lon="10.661217182039525"><ele>164.2</ele><time>2026-04-18T07:44:18.001Z</time></trkpt><trkpt lat="43.534227604680105" lon="10.66121574463378"><ele>163.0</ele><time>2026-04-18T07:44:19Z</time></trkpt><trkpt lat="43.53429037722012" lon="10.661263219384681"><ele>163.0</ele><time>2026-04-18T07:44:21Z</time></trkpt><trkpt lat="43.534234606173996" lon="10.661369542455429"><ele>163.0</ele><time>2026-04-18T07:44:26Z</time></trkpt><trkpt lat="43.53419799493547" lon="10.66145930530117"><ele>163.0</ele><time>2026-04-18T07:44:27Z</time></trkpt><trkpt lat="43.534153126906894" lon="10.661575889024299"><ele>163.0</ele><time>2026-04-18T07:44:28Z</time></trkpt><trkpt lat="43.53412182044478" lon="10.661702667151737"><ele>163.0</ele><time>2026-04-18T07:44:29Z</time></trkpt><trkpt lat="43.534074274663475" lon="10.661845141870003"><ele>161.5</ele><time>2026-04-18T07:44:30Z</time></trkpt><trkpt lat="43.53400741616641" lon="10.662005884726387"><ele>160.0</ele><time>2026-04-18T07:44:31Z</time></trkpt><trkpt lat="43.533955156502074" lon="10.662181132176118"><ele>158.5</ele><time>2026-04-18T07:44:32Z</time></trkpt><trkpt lat="43.53387986851283" lon="10.662346059188044"><ele>157.0</ele><time>2026-04-18T07:44:33Z</time></trkpt><trkpt lat="43.533832987357684" lon="10.662529291345393"><ele>157.0</ele><time>2026-04-18T07:44:34Z</time></trkpt><trkpt lat="43.53376966604391" lon="10.662693449447579"><ele>157.0</ele><time>2026-04-18T07:44:35Z</time></trkpt><trkpt lat="43.53371400524517" lon="10.662874859932169"><ele>157.0</ele><time>2026-04-18T07:44:36Z</time></trkpt><trkpt lat="43.53365298245548" lon="10.663075789983957"><ele>157.0</ele><time>2026-04-18T07:44:37Z</time></trkpt><trkpt lat="43.533607942950916" lon="10.663264146208105"><ele>159.0</ele><time>2026-04-18T07:44:38Z</time></trkpt><trkpt lat="43.53356960402116" lon="10.663453754849705"><ele>161.0</ele><time>2026-04-18T07:44:39Z</time></trkpt><trkpt lat="43.53353812536117" lon="10.663638267786949"><ele>163.0</ele><time>2026-04-18T07:44:40Z</time></trkpt><trkpt lat="43.53350757182129" lon="10.663805268131862"><ele>165.0</ele><time>2026-04-18T07:44:41Z</time></trkpt><trkpt lat="43.533485956951445" lon="10.66396494897367"><ele>165.0</ele><time>2026-04-18T07:44:42Z</time></trkpt><trkpt lat="43.53346902808829" lon="10.66413563543893"><ele>165.0</ele><time>2026-04-18T07:44:43Z</time></trkpt><trkpt lat="43.533449680565816" lon="10.66431433084386"><ele>165.0</ele><time>2026-04-18T07:44:44Z</time></trkpt><trkpt lat="43.53342536705574" lon="10.664474528114336"><ele>165.0</ele><time>2026-04-18T07:44:45Z</time></trkpt><trkpt lat="43.533385770641566" lon="10.664599738199541"><ele>162.5</ele><time>2026-04-18T07:44:46Z</time></trkpt><trkpt lat="43.533316081656906" lon="10.664718493073531"><ele>160.0</ele><time>2026-04-18T07:44:47Z</time></trkpt><trkpt lat="43.533221778296266" lon="10.664831947098039"><ele>157.5</ele><time>2026-04-18T07:44:48Z</time></trkpt><trkpt lat="43.533113793855584" lon="10.664934600889268"><ele>155.0</ele><time>2026-04-18T07:44:49Z</time></trkpt><trkpt lat="43.53300270922779" lon="10.665017982759771"><ele>155.0</ele><time>2026-04-18T07:44:50Z</time></trkpt><trkpt lat="43.53289542737296" lon="10.665068897073589"><ele>155.0</ele><time>2026-04-18T07:44:51Z</time></trkpt><trkpt lat="43.532780590814774" lon="10.665044713196725"><ele>155.0</ele><time>2026-04-18T07:44:52Z</time></trkpt><trkpt lat="43.53265899850252" lon="10.665009715081965"><ele>155.0</ele><time>2026-04-18T07:44:53Z</time></trkpt><trkpt lat="43.53252613020245" lon="10.664990898189584"><ele>154.6</ele><time>2026-04-18T07:44:54Z</time></trkpt><trkpt lat="43.53241807348794" lon="10.664962280630116"><ele>154.2</ele><time>2026-04-18T07:44:55Z</time></trkpt><trkpt lat="43.532319406845616" lon="10.66496097840186"><ele>153.8</ele><time>2026-04-18T07:44:56Z</time></trkpt><trkpt lat="43.53222978913576" lon="10.664998590181927"><ele>153.4</ele><time>2026-04-18T07:44:57Z</time></trkpt><trkpt lat="43.53213879521247" lon="10.66508983904611"><ele>153.0</ele><time>2026-04-18T07:44:58Z</time></trkpt><trkpt lat="43.53204372903706" lon="10.665226864700548"><ele>150.5</ele><time>2026-04-18T07:44:59Z</time></trkpt><trkpt lat="43.53197238398957" lon="10.66539189725808"><ele>148.0</ele><time>2026-04-18T07:45:00Z</time></trkpt><trkpt lat="43.53189888035621" lon="10.665586058743877"><ele>145.5</ele><time>2026-04-18T07:45:01Z</time></trkpt><trkpt lat="43.53182691714474" lon="10.66575329593018"><ele>143.0</ele><time>2026-04-18T07:45:02Z</time></trkpt><trkpt lat="43.53176333579464" lon="10.665894435311694"><ele>143.0</ele><time>2026-04-18T07:45:03Z</time></trkpt><trkpt lat="43.531697994191084" lon="10.666025216201367"><ele>143.0</ele><time>2026-04-18T07:45:04Z</time></trkpt><trkpt lat="43.53163729959396" lon="10.666169846853887"><ele>143.0</ele><time>2026-04-18T07:45:05Z</time></trkpt><trkpt lat="43.53156752601896" lon="10.666322517931208"><ele>143.0</ele><time>2026-04-18T07:45:06Z</time></trkpt><trkpt lat="43.53146577351284" lon="10.666483014735599"><ele>144.33333333333331</ele><time>2026-04-18T07:45:07Z</time></trkpt><trkpt lat="43.531357573773256" lon="10.666639597970288"><ele>145.66666666666666</ele><time>2026-04-18T07:45:08Z</time></trkpt><trkpt lat="43.53124463590025" lon="10.666802542615764"><ele>147.0</ele><time>2026-04-18T07:45:09Z</time></trkpt><trkpt lat="43.531132074087424" lon="10.666962530797086"><ele>150.0</ele><time>2026-04-18T07:45:10Z</time></trkpt><trkpt lat="43.531045569108684" lon="10.667078795234037"><ele>153.0</ele><time>2026-04-18T07:45:11Z</time></trkpt><trkpt lat="43.530969209457524" lon="10.667194064853103"><ele>156.0</ele><time>2026-04-18T07:45:12Z</time></trkpt><trkpt lat="43.530894798407566" lon="10.66730800559847"><ele>159.0</ele><time>2026-04-18T07:45:13Z</time></trkpt><trkpt lat="43.530824572758554" lon="10.667428768590183"><ele>159.0</ele><time>2026-04-18T07:45:14Z</time></trkpt><trkpt lat="43.53074031729766" lon="10.667538589454137"><ele>159.0</ele><time>2026-04-18T07:45:15Z</time></trkpt><trkpt lat="43.53063894708696" lon="10.667638917433939"><ele>159.0</ele><time>2026-04-18T07:45:16Z</time></trkpt><trkpt lat="43.53051529931759" lon="10.667745606535968"><ele>159.0</ele><time>2026-04-18T07:45:17Z</time></trkpt><trkpt lat="43.530385600318304" lon="10.667861137232123"><ele>160.0</ele><time>2026-04-18T07:45:18Z</time></trkpt><trkpt lat="43.53028251584764" lon="10.66797299879644"><ele>161.0</ele><time>2026-04-18T07:45:19Z</time></trkpt><trkpt lat="43.53018967463026" lon="10.668097927237275"><ele>162.0</ele><time>2026-04-18T07:45:20Z</time></trkpt><trkpt lat="43.530093509617366" lon="10.668250075162268"><ele>163.0</ele><time>2026-04-18T07:45:21Z</time></trkpt><trkpt lat="43.52999572222914" lon="10.668398614367655"><ele>163.0</ele><time>2026-04-18T07:45:22Z</time></trkpt><trkpt lat="43.529915352334505" lon="10.668540285200647"><ele>163.0</ele><time>2026-04-18T07:45:23Z</time></trkpt><trkpt lat="43.52982076397327" lon="10.668680508676678"><ele>163.0</ele><time>2026-04-18T07:45:24Z</time></trkpt><trkpt lat="43.52972918364226" lon="10.668822148179961"><ele>163.0</ele><time>2026-04-18T07:45:25Z</time></trkpt><trkpt lat="43.52962864605519" lon="10.66894069517464"><ele>162.5</ele><time>2026-04-18T07:45:26Z</time></trkpt><trkpt lat="43.52954513224177" lon="10.669075361718557"><ele>162.0</ele><time>2026-04-18T07:45:27Z</time></trkpt><trkpt lat="43.52944792159946" lon="10.66919967679463"><ele>161.5</ele><time>2026-04-18T07:45:28Z</time></trkpt><trkpt lat="43.52934496977575" lon="10.669325646749952"><ele>161.0</ele><time>2026-04-18T07:45:29Z</time></trkpt><trkpt lat="43.52923558772878" lon="10.66943194186272"><ele>161.5</ele><time>2026-04-18T07:45:30Z</time></trkpt><trkpt lat="43.52912349200274" lon="10.669533509864118"><ele>162.0</ele><time>2026-04-18T07:45:31Z</time></trkpt><trkpt lat="43.52901619178546" lon="10.669638847867315"><ele>162.5</ele><time>2026-04-18T07:45:32Z</time></trkpt><trkpt lat="43.528914489232186" lon="10.669751924097017"><ele>163.0</ele><time>2026-04-18T07:45:33Z</time></trkpt><trkpt lat="43.528818885422" lon="10.669861293026118"><ele>163.0</ele><time>2026-04-18T07:45:34Z</time></trkpt><trkpt lat="43.52872720098151" lon="10.669974861061416"><ele>163.0</ele><time>2026-04-18T07:45:35Z</time></trkpt><trkpt lat="43.528629142363016" lon="10.670096208924072"><ele>163.0</ele><time>2026-04-18T07:45:36Z</time></trkpt><trkpt lat="43.52852683630772" lon="10.670223876953255"><ele>163.0</ele><time>2026-04-18T07:45:37Z</time></trkpt><trkpt lat="43.52842439954391" lon="10.670355717517662"><ele>162.5</ele><time>2026-04-18T07:45:38Z</time></trkpt><trkpt lat="43.52831712945957" lon="10.670486842548748"><ele>162.0</ele><time>2026-04-18T07:45:39Z</time></trkpt><trkpt lat="43.52821465712368" lon="10.670612496719617"><ele>161.5</ele><time>2026-04-18T07:45:40Z</time></trkpt><trkpt lat="43.52811745203478" lon="10.670736991506141"><ele>161.0</ele><time>2026-04-18T07:45:41Z</time></trkpt><trkpt lat="43.52801758934647" lon="10.670865139226954"><ele>161.0</ele><time>2026-04-18T07:45:42Z</time></trkpt><trkpt lat="43.527911676954375" lon="10.670987620132196"><ele>161.0</ele><time>2026-04-18T07:45:43Z</time></trkpt><trkpt lat="43.52781377287445" lon="10.671112390469528"><ele>161.0</ele><time>2026-04-18T07:45:44Z</time></trkpt><trkpt lat="43.52771611468053" lon="10.67123632036172"><ele>161.0</ele><time>2026-04-18T07:45:45Z</time></trkpt><trkpt lat="43.52762864040491" lon="10.671339439502383"><ele>162.25</ele><time>2026-04-18T07:45:46Z</time></trkpt><trkpt lat="43.52755774524221" lon="10.67144701113429"><ele>163.5</ele><time>2026-04-18T07:45:47Z</time></trkpt><trkpt lat="43.527482767266626" lon="10.67158985133465"><ele>164.75</ele><time>2026-04-18T07:45:48Z</time></trkpt><trkpt lat="43.52741433786352" lon="10.671750181621071"><ele>166.0</ele><time>2026-04-18T07:45:49Z</time></trkpt><trkpt lat="43.52734296848619" lon="10.671922494076473"><ele>167.25</ele><time>2026-04-18T07:45:50Z</time></trkpt><trkpt lat="43.5272704773308" lon="10.672082678923033"><ele>168.5</ele><time>2026-04-18T07:45:51Z</time></trkpt><trkpt lat="43.52719447518857" lon="10.672230430619464"><ele>169.75</ele><time>2026-04-18T07:45:52Z</time></trkpt><trkpt lat="43.527109444179295" lon="10.672350894715088"><ele>171.0</ele><time>2026-04-18T07:45:53Z</time></trkpt><trkpt lat="43.52700633982089" lon="10.672438185876377"><ele>171.0</ele><time>2026-04-18T07:45:54Z</time></trkpt><trkpt lat="43.52690282392256" lon="10.672482521589918"><ele>171.0</ele><time>2026-04-18T07:45:55Z</time></trkpt><trkpt lat="43.52679253875292" lon="10.67249244248292"><ele>171.0</ele><time>2026-04-18T07:45:56Z</time></trkpt><trkpt lat="43.52667916373944" lon="10.672452130257886"><ele>171.0</ele><time>2026-04-18T07:45:57Z</time></trkpt><trkpt lat="43.52656448491543" lon="10.672425076058103"><ele>171.0</ele><time>2026-04-18T07:45:58Z</time></trkpt><trkpt lat="43.526448307125435" lon="10.6724094326185"><ele>171.0</ele><time>2026-04-18T07:45:59Z</time></trkpt><trkpt lat="43.52632359132559" lon="10.672421681226162"><ele>171.0</ele><time>2026-04-18T07:46:00Z</time></trkpt><trkpt lat="43.52622075412066" lon="10.672472610370267"><ele>171.0</ele><time>2026-04-18T07:46:01Z</time></trkpt><trkpt lat="43.526126504624344" lon="10.672564932093152"><ele>170.75</ele><time>2026-04-18T07:46:02Z</time></trkpt><trkpt lat="43.52602947500035" lon="10.672661844736297"><ele>170.5</ele><time>2026-04-18T07:46:03Z</time></trkpt><trkpt lat="43.525947115892855" lon="10.672763958090373"><ele>170.25</ele><time>2026-04-18T07:46:04Z</time></trkpt><trkpt lat="43.52588385772337" lon="10.672894580325178"><ele>170.0</ele><time>2026-04-18T07:46:05Z</time></trkpt><trkpt lat="43.52583874936398" lon="10.673056909453978"><ele>170.0</ele><time>2026-04-18T07:46:06Z</time></trkpt><trkpt lat="43.525807603382546" lon="10.673240290559939"><ele>170.0</ele><time>2026-04-18T07:46:07Z</time></trkpt><trkpt lat="43.52581568617195" lon="10.673458194242706"><ele>170.0</ele><time>2026-04-18T07:46:08Z</time></trkpt><trkpt lat="43.5258084964419" lon="10.673660202654883"><ele>170.0</ele><time>2026-04-18T07:46:09Z</time></trkpt><trkpt lat="43.525793698439614" lon="10.67385283700435"><ele>172.0</ele><time>2026-04-18T07:46:10Z</time></trkpt><trkpt lat="43.52577030155965" lon="10.674043554104632"><ele>174.0</ele><time>2026-04-18T07:46:11Z</time></trkpt><trkpt lat="43.5257396538689" lon="10.674230683272189"><ele>176.0</ele><time>2026-04-18T07:46:12Z</time></trkpt><trkpt lat="43.52569724435439" lon="10.674412578681011"><ele>178.0</ele><time>2026-04-18T07:46:13Z</time></trkpt><trkpt lat="43.52566852695157" lon="10.674593210360928"><ele>179.0</ele><time>2026-04-18T07:46:14Z</time></trkpt><trkpt lat="43.52564261044954" lon="10.674767747006"><ele>180.0</ele><time>2026-04-18T07:46:15Z</time></trkpt><trkpt lat="43.52562042175638" lon="10.674920136525735"><ele>181.0</ele><time>2026-04-18T07:46:16Z</time></trkpt><trkpt lat="43.52559979248087" lon="10.675061432484757"><ele>182.0</ele><time>2026-04-18T07:46:17Z</time></trkpt><trkpt lat="43.52557950248933" lon="10.67520040452776"><ele>183.0</ele><time>2026-04-18T07:46:18Z</time></trkpt><trkpt lat="43.525562303185545" lon="10.675299587919119"><ele>183.0</ele><time>2026-04-18T07:46:19Z</time></trkpt><trkpt lat="43.52552475413068" lon="10.675444666688104"><ele>183.0</ele><time>2026-04-18T07:46:23Z</time></trkpt><trkpt lat="43.52549245540056" lon="10.67552753670572"><ele>183.0</ele><time>2026-04-18T07:46:24Z</time></trkpt><trkpt lat="43.52545651855596" lon="10.675621155621515"><ele>183.0</ele><time>2026-04-18T07:46:25Z</time></trkpt><trkpt lat="43.52542877680226" lon="10.675721720942757"><ele>183.0</ele><time>2026-04-18T07:46:26Z</time></trkpt><trkpt lat="43.52534808917272" lon="10.67582664632774"><ele>183.0</ele><time>2026-04-18T07:46:28Z</time></trkpt><trkpt lat="43.52525273107476" lon="10.675934468078854"><ele>183.0</ele><time>2026-04-18T07:46:30Z</time></trkpt><trkpt lat="43.52517409156529" lon="10.676003457834888"><ele>183.0</ele><time>2026-04-18T07:46:31Z</time></trkpt><trkpt lat="43.52509163305925" lon="10.676079606330624"><ele>183.0</ele><time>2026-04-18T07:46:32Z</time></trkpt><trkpt lat="43.52500673990197" lon="10.676153520695108"><ele>183.0</ele><time>2026-04-18T07:46:33Z</time></trkpt><trkpt lat="43.52493406959636" lon="10.676216793082968"><ele>183.0</ele><time>2026-04-18T07:46:34Z</time></trkpt><trkpt lat="43.52486826877727" lon="10.676276380824909"><ele>182.83333333333334</ele><time>2026-04-18T07:46:35Z</time></trkpt><trkpt lat="43.52481155843087" lon="10.676335074198235"><ele>182.66666666666666</ele><time>2026-04-18T07:46:36Z</time></trkpt><trkpt lat="43.52475059956487" lon="10.67640988392335"><ele>182.5</ele><time>2026-04-18T07:46:37Z</time></trkpt><trkpt lat="43.524697692879855" lon="10.676481617968166"><ele>182.33333333333331</ele><time>2026-04-18T07:46:38Z</time></trkpt><trkpt lat="43.524653617227145" lon="10.676550679546613"><ele>182.16666666666666</ele><time>2026-04-18T07:46:39Z</time></trkpt><trkpt lat="43.52460293410787" lon="10.67665322775623"><ele>182.0</ele><time>2026-04-18T07:46:41Z</time></trkpt><trkpt lat="43.524558513674386" lon="10.676759621729955"><ele>181.66666666666666</ele><time>2026-04-18T07:46:43Z</time></trkpt><trkpt lat="43.5245304935183" lon="10.676869440121575"><ele>181.33333333333331</ele><time>2026-04-18T07:46:49Z</time></trkpt><trkpt lat="43.524526301308235" lon="10.676986708231663"><ele>181.0</ele><time>2026-04-18T07:46:52Z</time></trkpt><trkpt lat="43.52452994763973" lon="10.677079698942462"><ele>180.66666666666666</ele><time>2026-04-18T07:46:55Z</time></trkpt><trkpt lat="43.52458701862483" lon="10.677238172790213"><ele>180.33333333333334</ele><time>2026-04-18T07:46:57Z</time></trkpt><trkpt lat="43.524632503550336" lon="10.677304065155633"><ele>180.0</ele><time>2026-04-18T07:46:58Z</time></trkpt><trkpt lat="43.52469695291318" lon="10.677431802286875"><ele>179.0</ele><time>2026-04-18T07:47:00Z</time></trkpt><trkpt lat="43.52474065071126" lon="10.6775888896139"><ele>178.0</ele><time>2026-04-18T07:47:02Z</time></trkpt><trkpt lat="43.52473822450841" lon="10.677731148261401"><ele>177.0</ele><time>2026-04-18T07:47:04Z</time></trkpt><trkpt lat="43.524740777627365" lon="10.67784271197021"><ele>176.0</ele><time>2026-04-18T07:47:06Z</time></trkpt><trkpt lat="43.52474093007883" lon="10.677974635651362"><ele>175.0</ele><time>2026-04-18T07:47:09Z</time></trkpt><trkpt lat="43.52473775440005" lon="10.6781105690264"><ele>174.4</ele><time>2026-04-18T07:47:11Z</time></trkpt><trkpt lat="43.52474713978391" lon="10.67821161137239"><ele>173.8</ele><time>2026-04-18T07:47:12Z</time></trkpt><trkpt lat="43.52476040515767" lon="10.678338557516371"><ele>173.2</ele><time>2026-04-18T07:47:13Z</time></trkpt><trkpt lat="43.52477352252854" lon="10.678493057225092"><ele>172.6</ele><time>2026-04-18T07:47:14Z</time></trkpt><trkpt lat="43.5247901565376" lon="10.678643097261"><ele>172.0</ele><time>2026-04-18T07:47:15Z</time></trkpt><trkpt lat="43.52479761352233" lon="10.67874441527737"><ele>173.39999999999998</ele><time>2026-04-18T07:47:16Z</time></trkpt><trkpt lat="43.52483686949241" lon="10.678826323542252"><ele>174.79999999999998</ele><time>2026-04-18T07:47:17Z</time></trkpt><trkpt lat="43.52485302108749" lon="10.679055135626518"><ele>176.2</ele><time>2026-04-18T07:47:19Z</time></trkpt><trkpt lat="43.52485907576232" lon="10.679166618602434"><ele>177.6</ele><time>2026-04-18T07:47:20Z</time></trkpt><trkpt lat="43.52486531108496" lon="10.679281428019646"><ele>179.0</ele><time>2026-04-18T07:47:21Z</time></trkpt><trkpt lat="43.52486119173922" lon="10.679430233181286"><ele>179.6</ele><time>2026-04-18T07:47:22Z</time></trkpt><trkpt lat="43.52485231922683" lon="10.679587683452532"><ele>180.2</ele><time>2026-04-18T07:47:23Z</time></trkpt><trkpt lat="43.524822146108384" lon="10.679703370895965"><ele>180.79999999999998</ele><time>2026-04-18T07:47:24Z</time></trkpt><trkpt lat="43.524829009078346" lon="10.679834594947703"><ele>181.39999999999998</ele><time>2026-04-18T07:47:25Z</time></trkpt><trkpt lat="43.524844997757604" lon="10.679996331014433"><ele>182.0</ele><time>2026-04-18T07:47:26Z</time></trkpt><trkpt lat="43.52487791349382" lon="10.68017532567063"><ele>180.25</ele><time>2026-04-18T07:47:27Z</time></trkpt><trkpt lat="43.524923136671475" lon="10.680369077919094"><ele>178.5</ele><time>2026-04-18T07:47:28Z</time></trkpt><trkpt lat="43.524943542850984" lon="10.680538398117228"><ele>176.75</ele><time>2026-04-18T07:47:29Z</time></trkpt><trkpt lat="43.52495391436591" lon="10.680698508934066"><ele>175.0</ele><time>2026-04-18T07:47:30Z</time></trkpt><trkpt lat="43.52495359001903" lon="10.6808785813329"><ele>175.0</ele><time>2026-04-18T07:47:31Z</time></trkpt><trkpt lat="43.52494956958737" lon="10.681078999321251"><ele>175.0</ele><time>2026-04-18T07:47:32Z</time></trkpt><trkpt lat="43.52494457769532" lon="10.681289131485528"><ele>175.0</ele><time>2026-04-18T07:47:33Z</time></trkpt><trkpt lat="43.524954639950565" lon="10.681512553284533"><ele>174.0</ele><time>2026-04-18T07:47:34Z</time></trkpt><trkpt lat="43.52495247834564" lon="10.681737945189418"><ele>173.0</ele><time>2026-04-18T07:47:35Z</time></trkpt><trkpt lat="43.524953337214974" lon="10.681949868679384"><ele>172.0</ele><time>2026-04-18T07:47:36Z</time></trkpt><trkpt lat="43.52495153269895" lon="10.682140889776273"><ele>171.6</ele><time>2026-04-18T07:47:37Z</time></trkpt><trkpt lat="43.524949513912" lon="10.682306431312611"><ele>171.2</ele><time>2026-04-18T07:47:38Z</time></trkpt><trkpt lat="43.524959242748224" lon="10.682444430183734"><ele>170.8</ele><time>2026-04-18T07:47:39Z</time></trkpt><trkpt lat="43.524995762195125" lon="10.682546779464058"><ele>170.4</ele><time>2026-04-18T07:47:40Z</time></trkpt><trkpt lat="43.52507744124587" lon="10.682613717586326"><ele>170.0</ele><time>2026-04-18T07:47:41Z</time></trkpt><trkpt lat="43.52519797650373" lon="10.682655994199807"><ele>170.0</ele><time>2026-04-18T07:47:42Z</time></trkpt><trkpt lat="43.525327006804595" lon="10.682695335695252"><ele>170.0</ele><time>2026-04-18T07:47:43Z</time></trkpt><trkpt lat="43.525421742336164" lon="10.682767647724857"><ele>170.0</ele><time>2026-04-18T07:47:44Z</time></trkpt><trkpt lat="43.52548827539153" lon="10.682867571025934"><ele>170.0</ele><time>2026-04-18T07:47:45Z</time></trkpt><trkpt lat="43.52485621698032" lon="10.683936130484755"><ele>166.6</ele><time>2026-04-18T07:48:54Z</time></trkpt><trkpt lat="43.524761276721605" lon="10.683939286488704"><ele>163.2</ele><time>2026-04-18T07:48:55Z</time></trkpt><trkpt lat="43.52468572844265" lon="10.683923510069922"><ele>159.8</ele><time>2026-04-18T07:48:56Z</time></trkpt><trkpt lat="43.52456279158021" lon="10.683931673787775"><ele>156.4</ele><time>2026-04-18T07:48:58Z</time></trkpt><trkpt lat="43.52449649003178" lon="10.68408532689391"><ele>153.0</ele><time>2026-04-18T07:49:00Z</time></trkpt><trkpt lat="43.52449937168222" lon="10.684184105561531"><ele>151.4</ele><time>2026-04-18T07:49:02Z</time></trkpt><trkpt lat="43.52449215723725" lon="10.684286506867538"><ele>149.8</ele><time>2026-04-18T07:49:03Z</time></trkpt><trkpt lat="43.52452544644856" lon="10.684373750896256"><ele>148.2</ele><time>2026-04-18T07:49:04Z</time></trkpt><trkpt lat="43.52462979767323" lon="10.684514192468594"><ele>146.6</ele><time>2026-04-18T07:49:06Z</time></trkpt><trkpt lat="43.52473607645408" lon="10.684553341328604"><ele>145.0</ele><time>2026-04-18T07:49:07Z</time></trkpt><trkpt lat="43.52487229365131" lon="10.68457459318922"><ele>145.0</ele><time>2026-04-18T07:49:08Z</time></trkpt><trkpt lat="43.52500752941015" lon="10.684600011765006"><ele>145.0</ele><time>2026-04-18T07:49:09Z</time></trkpt><trkpt lat="43.52510374734887" lon="10.684650063402858"><ele>145.0</ele><time>2026-04-18T07:49:10Z</time></trkpt><trkpt lat="43.525183632422305" lon="10.684728357111146"><ele>145.0</ele><time>2026-04-18T07:49:11Z</time></trkpt><trkpt lat="43.52523483562803" lon="10.68482444321417"><ele>145.0</ele><time>2026-04-18T07:49:12Z</time></trkpt><trkpt lat="43.52528654769502" lon="10.684958660110642"><ele>145.0</ele><time>2026-04-18T07:49:14Z</time></trkpt><trkpt lat="43.52532217869698" lon="10.685165107777063"><ele>145.0</ele><time>2026-04-18T07:49:15Z</time></trkpt><trkpt lat="43.52535747537994" lon="10.68537702726183"><ele>145.0</ele><time>2026-04-18T07:49:16Z</time></trkpt><trkpt lat="43.525409411702434" lon="10.685617745494465"><ele>146.33333333333334</ele><time>2026-04-18T07:49:17Z</time></trkpt><trkpt lat="43.52547832067266" lon="10.685865798481881"><ele>147.66666666666666</ele><time>2026-04-18T07:49:18Z</time></trkpt><trkpt lat="43.525523932266864" lon="10.686088658057184"><ele>149.0</ele><time>2026-04-18T07:49:19Z</time></trkpt><trkpt lat="43.525547540632246" lon="10.686302663567721"><ele>146.0</ele><time>2026-04-18T07:49:20Z</time></trkpt><trkpt lat="43.52556317080671" lon="10.686513383570396"><ele>143.0</ele><time>2026-04-18T07:49:21Z</time></trkpt><trkpt lat="43.52557387652919" lon="10.686703712427784"><ele>140.0</ele><time>2026-04-18T07:49:22Z</time></trkpt><trkpt lat="43.52556551383959" lon="10.686878117977727"><ele>137.0</ele><time>2026-04-18T07:49:23Z</time></trkpt><trkpt lat="43.525533333533254" lon="10.687055993169064"><ele>134.66666666666666</ele><time>2026-04-18T07:49:24Z</time></trkpt><trkpt lat="43.52547954926113" lon="10.687245318121054"><ele>132.33333333333334</ele><time>2026-04-18T07:49:25Z</time></trkpt><trkpt lat="43.525411345349035" lon="10.68745620649441"><ele>130.0</ele><time>2026-04-18T07:49:26Z</time></trkpt><trkpt lat="43.525344036035" lon="10.687677985993151"><ele>127.0</ele><time>2026-04-18T07:49:27Z</time></trkpt><trkpt lat="43.52528131371665" lon="10.687907697868072"><ele>124.0</ele><time>2026-04-18T07:49:28Z</time></trkpt><trkpt lat="43.52522316935897" lon="10.688141687397552"><ele>121.0</ele><time>2026-04-18T07:49:29Z</time></trkpt><trkpt lat="43.52519210293257" lon="10.688373728392923"><ele>120.66666666666667</ele><time>2026-04-18T07:49:30Z</time></trkpt><trkpt lat="43.525151797099646" lon="10.688605651279797"><ele>120.33333333333334</ele><time>2026-04-18T07:49:31Z</time></trkpt><trkpt lat="43.52513066246704" lon="10.688853258923851"><ele>120.0</ele><time>2026-04-18T07:49:32Z</time></trkpt><trkpt lat="43.52509552709322" lon="10.689117712835625"><ele>120.0</ele><time>2026-04-18T07:49:33Z</time></trkpt><trkpt lat="43.525056949441854" lon="10.689356761020601"><ele>120.0</ele><time>2026-04-18T07:49:34Z</time></trkpt><trkpt lat="43.52501941249418" lon="10.689575334739432"><ele>120.0</ele><time>2026-04-18T07:49:35Z</time></trkpt><trkpt lat="43.52497944873555" lon="10.689778976690233"><ele>120.0</ele><time>2026-04-18T07:49:36Z</time></trkpt><trkpt lat="43.52495712278141" lon="10.68995697545968"><ele>120.0</ele><time>2026-04-18T07:49:37Z</time></trkpt><trkpt lat="43.52497249489471" lon="10.69014497986931"><ele>120.0</ele><time>2026-04-18T07:49:38Z</time></trkpt><trkpt lat="43.52500575410977" lon="10.690382992403451"><ele>120.0</ele><time>2026-04-18T07:49:39Z</time></trkpt><trkpt lat="43.525054492088586" lon="10.690637576668374"><ele>118.66666666666666</ele><time>2026-04-18T07:49:40Z</time></trkpt><trkpt lat="43.525095929809424" lon="10.690897781334426"><ele>117.33333333333333</ele><time>2026-04-18T07:49:41Z</time></trkpt><trkpt lat="43.52512781118445" lon="10.691158993753465"><ele>116.0</ele><time>2026-04-18T07:49:42Z</time></trkpt><trkpt lat="43.52516428480888" lon="10.691403130839609"><ele>114.0</ele><time>2026-04-18T07:49:43Z</time></trkpt><trkpt lat="43.52521987483898" lon="10.69162948619307"><ele>112.0</ele><time>2026-04-18T07:49:44Z</time></trkpt><trkpt lat="43.525286118872096" lon="10.69184240496474"><ele>110.0</ele><time>2026-04-18T07:49:45Z</time></trkpt><trkpt lat="43.52533733297752" lon="10.692058447447167"><ele>109.66666666666666</ele><time>2026-04-18T07:49:46Z</time></trkpt><trkpt lat="43.5253726538341" lon="10.692285519540206"><ele>109.33333333333334</ele><time>2026-04-18T07:49:47Z</time></trkpt><trkpt lat="43.52539261747334" lon="10.692536614254328"><ele>109.0</ele><time>2026-04-18T07:49:48Z</time></trkpt><trkpt lat="43.525405446477905" lon="10.692785328415926"><ele>109.0</ele><time>2026-04-18T07:49:49Z</time></trkpt><trkpt lat="43.52540849631556" lon="10.693000584488894"><ele>109.0</ele><time>2026-04-18T07:49:50Z</time></trkpt><trkpt lat="43.52541102382691" lon="10.693187312366994"><ele>109.0</ele><time>2026-04-18T07:49:51Z</time></trkpt><trkpt lat="43.5254269864795" lon="10.69336235075025"><ele>109.0</ele><time>2026-04-18T07:49:52Z</time></trkpt><trkpt lat="43.5254807421364" lon="10.69354911821841"><ele>108.33333333333334</ele><time>2026-04-18T07:49:53Z</time></trkpt><trkpt lat="43.52559567214286" lon="10.69376428794919"><ele>107.66666666666666</ele><time>2026-04-18T07:49:54Z</time></trkpt><trkpt lat="43.52569270726951" lon="10.693980062547475"><ele>107.0</ele><time>2026-04-18T07:49:55Z</time></trkpt><trkpt lat="43.525776526826995" lon="10.694158471798357"><ele>107.0</ele><time>2026-04-18T07:49:56Z</time></trkpt><trkpt lat="43.5258137059153" lon="10.694336729591416"><ele>107.0</ele><time>2026-04-18T07:49:57Z</time></trkpt><trkpt lat="43.52586041657087" lon="10.694515315658675"><ele>107.0</ele><time>2026-04-18T07:49:58Z</time></trkpt><trkpt lat="43.52585286329154" lon="10.694710907188878"><ele>107.0</ele><time>2026-04-18T07:49:59Z</time></trkpt><trkpt lat="43.52583441372109" lon="10.69489086938496"><ele>106.5</ele><time>2026-04-18T07:50:00Z</time></trkpt><trkpt lat="43.525795636308295" lon="10.69505029742075"><ele>106.0</ele><time>2026-04-18T07:50:01Z</time></trkpt><trkpt lat="43.52574615493296" lon="10.695194598276899"><ele>105.5</ele><time>2026-04-18T07:50:02Z</time></trkpt><trkpt lat="43.525661087893496" lon="10.695299003520143"><ele>105.0</ele><time>2026-04-18T07:50:03Z</time></trkpt><trkpt lat="43.525609506185056" lon="10.69541880662362"><ele>103.75</ele><time>2026-04-18T07:50:04Z</time></trkpt><trkpt lat="43.52559906637377" lon="10.695576979644004"><ele>102.5</ele><time>2026-04-18T07:50:05Z</time></trkpt><trkpt lat="43.5256530274468" lon="10.695776693536116"><ele>101.25</ele><time>2026-04-18T07:50:06Z</time></trkpt><trkpt lat="43.525733783792845" lon="10.695995010507696"><ele>100.0</ele><time>2026-04-18T07:50:07Z</time></trkpt><trkpt lat="43.525744439899874" lon="10.696198731699544"><ele>98.33333333333334</ele><time>2026-04-18T07:50:08Z</time></trkpt><trkpt lat="43.52573683230475" lon="10.696413412776156"><ele>96.66666666666667</ele><time>2026-04-18T07:50:09Z</time></trkpt><trkpt lat="43.525699673282254" lon="10.696659709947086"><ele>95.0</ele><time>2026-04-18T07:50:10Z</time></trkpt><trkpt lat="43.52567538515423" lon="10.696916409855897"><ele>94.5</ele><time>2026-04-18T07:50:11Z</time></trkpt><trkpt lat="43.52561352460029" lon="10.69711002883603"><ele>94.0</ele><time>2026-04-18T07:50:12Z</time></trkpt><trkpt lat="43.52553900985186" lon="10.697272192979412"><ele>93.5</ele><time>2026-04-18T07:50:13Z</time></trkpt><trkpt lat="43.52546005659233" lon="10.697432473715573"><ele>93.0</ele><time>2026-04-18T07:50:14Z</time></trkpt><trkpt lat="43.52540986270418" lon="10.697599989018887"><ele>92.0</ele><time>2026-04-18T07:50:15Z</time></trkpt><trkpt lat="43.52538626585244" lon="10.697767678405791"><ele>91.0</ele><time>2026-04-18T07:50:16Z</time></trkpt><trkpt lat="43.5253944550105" lon="10.69796084841761"><ele>90.0</ele><time>2026-04-18T07:50:17Z</time></trkpt><trkpt lat="43.525428809202616" lon="10.698177092898307"><ele>89.0</ele><time>2026-04-18T07:50:18Z</time></trkpt><trkpt lat="43.52548885481947" lon="10.698409505909959"><ele>88.25</ele><time>2026-04-18T07:50:19Z</time></trkpt><trkpt lat="43.525505455462074" lon="10.698645630823592"><ele>87.5</ele><time>2026-04-18T07:50:20Z</time></trkpt><trkpt lat="43.52549604113629" lon="10.69882182075749"><ele>86.75</ele><time>2026-04-18T07:50:21Z</time></trkpt><trkpt lat="43.52546707307398" lon="10.698993856414978"><ele>86.0</ele><time>2026-04-18T07:50:22Z</time></trkpt><trkpt lat="43.52539904011128" lon="10.699201392049465"><ele>80.75</ele><time>2026-04-18T07:50:23Z</time></trkpt><trkpt lat="43.52532678508517" lon="10.699377834096701"><ele>75.5</ele><time>2026-04-18T07:50:24Z</time></trkpt><trkpt lat="43.5252656678709" lon="10.699613027977566"><ele>70.25</ele><time>2026-04-18T07:50:26Z</time></trkpt><trkpt lat="43.52529438161253" lon="10.699763188635147"><ele>65.0</ele><time>2026-04-18T07:50:27Z</time></trkpt><trkpt lat="43.52534515626992" lon="10.699924278875539"><ele>65.25</ele><time>2026-04-18T07:50:28Z</time></trkpt><trkpt lat="43.52540228342707" lon="10.700083988567968"><ele>65.5</ele><time>2026-04-18T07:50:29Z</time></trkpt><trkpt lat="43.525464728997825" lon="10.700282097500862"><ele>65.75</ele><time>2026-04-18T07:50:30Z</time></trkpt><trkpt lat="43.52552891586225" lon="10.700489839311269"><ele>66.0</ele><time>2026-04-18T07:50:31Z</time></trkpt><trkpt lat="43.52562076921489" lon="10.70070539907535"><ele>66.0</ele><time>2026-04-18T07:50:32Z</time></trkpt><trkpt lat="43.52568217792907" lon="10.700891984274756"><ele>66.0</ele><time>2026-04-18T07:50:33Z</time></trkpt><trkpt lat="43.52571320387573" lon="10.701076072373311"><ele>66.0</ele><time>2026-04-18T07:50:34Z</time></trkpt><trkpt lat="43.5257294195918" lon="10.70127971890979"><ele>66.0</ele><time>2026-04-18T07:50:35Z</time></trkpt><trkpt lat="43.525730371769306" lon="10.701480903770644"><ele>64.5</ele><time>2026-04-18T07:50:36Z</time></trkpt><trkpt lat="43.525730428436255" lon="10.701679919366446"><ele>63.0</ele><time>2026-04-18T07:50:37Z</time></trkpt><trkpt lat="43.525734177226546" lon="10.701869018221668"><ele>61.5</ele><time>2026-04-18T07:50:38Z</time></trkpt><trkpt lat="43.52575637750744" lon="10.702046227537677"><ele>60.0</ele><time>2026-04-18T07:50:39Z</time></trkpt><trkpt lat="43.52580332908283" lon="10.702218035718168"><ele>59.4</ele><time>2026-04-18T07:50:40Z</time></trkpt><trkpt lat="43.52586044547141" lon="10.702376998511756"><ele>58.8</ele><time>2026-04-18T07:50:41Z</time></trkpt><trkpt lat="43.525911942243425" lon="10.70253012068119"><ele>58.2</ele><time>2026-04-18T07:50:42Z</time></trkpt><trkpt lat="43.52595289074864" lon="10.702646019176033"><ele>57.6</ele><time>2026-04-18T07:50:43Z</time></trkpt><trkpt lat="43.525988068710284" lon="10.70271932313262"><ele>57.0</ele><time>2026-04-18T07:50:47Z</time></trkpt><trkpt lat="43.526120335348004" lon="10.702684059906778"><ele>57.0</ele><time>2026-04-18T07:50:50Z</time></trkpt><trkpt lat="43.526204672484674" lon="10.702587742251609"><ele>57.0</ele><time>2026-04-18T07:50:51Z</time></trkpt><trkpt lat="43.52629048516914" lon="10.702511171427256"><ele>57.0</ele><time>2026-04-18T07:50:52Z</time></trkpt><trkpt lat="43.52640547477061" lon="10.7024351578371"><ele>57.0</ele><time>2026-04-18T07:50:53Z</time></trkpt><trkpt lat="43.526528033639394" lon="10.702369849023242"><ele>56.75</ele><time>2026-04-18T07:50:54Z</time></trkpt><trkpt lat="43.526651967870755" lon="10.70232732578277"><ele>56.5</ele><time>2026-04-18T07:50:55Z</time></trkpt><trkpt lat="43.52679514522376" lon="10.702301262766735"><ele>56.25</ele><time>2026-04-18T07:50:56Z</time></trkpt><trkpt lat="43.526958043389776" lon="10.702286598141432"><ele>56.0</ele><time>2026-04-18T07:50:57Z</time></trkpt><trkpt lat="43.52712752846885" lon="10.702280968700157"><ele>56.0</ele><time>2026-04-18T07:50:58Z</time></trkpt><trkpt lat="43.5273058200982" lon="10.702271397249463"><ele>56.0</ele><time>2026-04-18T07:50:59Z</time></trkpt><trkpt lat="43.52747894787889" lon="10.702264566978144"><ele>56.0</ele><time>2026-04-18T07:51:00Z</time></trkpt><trkpt lat="43.527657223347354" lon="10.70225657816794"><ele>56.0</ele><time>2026-04-18T07:51:01Z</time></trkpt><trkpt lat="43.5278430164819" lon="10.7022529701132"><ele>56.0</ele><time>2026-04-18T07:51:02Z</time></trkpt><trkpt lat="43.52803124699486" lon="10.702247106420321"><ele>56.0</ele><time>2026-04-18T07:51:03Z</time></trkpt><trkpt lat="43.528229902007055" lon="10.70223862225499"><ele>55.66666666666667</ele><time>2026-04-18T07:51:04Z</time></trkpt><trkpt lat="43.528436947241694" lon="10.702229074837941"><ele>55.33333333333333</ele><time>2026-04-18T07:51:05Z</time></trkpt><trkpt lat="43.52863770736792" lon="10.702225066041002"><ele>55.0</ele><time>2026-04-18T07:51:06Z</time></trkpt><trkpt lat="43.528837162461336" lon="10.702240440998303"><ele>55.0</ele><time>2026-04-18T07:51:07Z</time></trkpt><trkpt lat="43.52903730988995" lon="10.702207623003076"><ele>55.0</ele><time>2026-04-18T07:51:08Z</time></trkpt><trkpt lat="43.52923790861812" lon="10.702191622844163"><ele>55.0</ele><time>2026-04-18T07:51:09Z</time></trkpt><trkpt lat="43.529448181148275" lon="10.702167680169557"><ele>54.666666666666664</ele><time>2026-04-18T07:51:10Z</time></trkpt><trkpt lat="43.529662911878205" lon="10.702139599408719"><ele>54.33333333333333</ele><time>2026-04-18T07:51:11Z</time></trkpt><trkpt lat="43.52988366344969" lon="10.702113772757059"><ele>54.0</ele><time>2026-04-18T07:51:12Z</time></trkpt><trkpt lat="43.53010556096896" lon="10.702086135512626"><ele>54.0</ele><time>2026-04-18T07:51:13Z</time></trkpt><trkpt lat="43.53033129913363" lon="10.702057911592393"><ele>54.0</ele><time>2026-04-18T07:51:14Z</time></trkpt><trkpt lat="43.5305595905834" lon="10.702018029957278"><ele>54.5</ele><time>2026-04-18T07:51:15Z</time></trkpt><trkpt lat="43.53079004131737" lon="10.701989976363814"><ele>55.0</ele><time>2026-04-18T07:51:16Z</time></trkpt><trkpt lat="43.531020925003084" lon="10.701959513847184"><ele>55.0</ele><time>2026-04-18T07:51:17Z</time></trkpt><trkpt lat="43.53125208955924" lon="10.701920631310031"><ele>55.0</ele><time>2026-04-18T07:51:18Z</time></trkpt><trkpt lat="43.53148023733849" lon="10.701873718386734"><ele>55.0</ele><time>2026-04-18T07:51:19Z</time></trkpt><trkpt lat="43.53170681682426" lon="10.701823394962096"><ele>55.0</ele><time>2026-04-18T07:51:20Z</time></trkpt><trkpt lat="43.5319265909484" lon="10.701776810205843"><ele>55.0</ele><time>2026-04-18T07:51:21Z</time></trkpt><trkpt lat="43.5321450091475" lon="10.701737597938703"><ele>55.0</ele><time>2026-04-18T07:51:22Z</time></trkpt><trkpt lat="43.53236146848538" lon="10.70169218300553"><ele>55.0</ele><time>2026-04-18T07:51:23Z</time></trkpt><trkpt lat="43.532580550666516" lon="10.70164705077596"><ele>55.0</ele><time>2026-04-18T07:51:24Z</time></trkpt><trkpt lat="43.53280323561697" lon="10.701600824984107"><ele>55.0</ele><time>2026-04-18T07:51:25Z</time></trkpt><trkpt lat="43.53302223374401" lon="10.701553066483466"><ele>55.0</ele><time>2026-04-18T07:51:26Z</time></trkpt><trkpt lat="43.533235027458694" lon="10.701512308085817"><ele>55.33333333333333</ele><time>2026-04-18T07:51:27Z</time></trkpt><trkpt lat="43.533453117188856" lon="10.701470169289953"><ele>55.66666666666667</ele><time>2026-04-18T07:51:28Z</time></trkpt><trkpt lat="43.53365842498419" lon="10.701428596192024"><ele>56.0</ele><time>2026-04-18T07:51:29Z</time></trkpt><trkpt lat="43.53386371445544" lon="10.7013859913255"><ele>56.66666666666667</ele><time>2026-04-18T07:51:30Z</time></trkpt><trkpt lat="43.534066904465035" lon="10.701345523878121"><ele>57.33333333333333</ele><time>2026-04-18T07:51:31Z</time></trkpt><trkpt lat="43.53426842786199" lon="10.701302200503843"><ele>58.0</ele><time>2026-04-18T07:51:32Z</time></trkpt><trkpt lat="43.534465845144034" lon="10.701265315373746"><ele>57.33333333333333</ele><time>2026-04-18T07:51:33Z</time></trkpt><trkpt lat="43.53465834625102" lon="10.70123941855154"><ele>56.66666666666667</ele><time>2026-04-18T07:51:34Z</time></trkpt><trkpt lat="43.53483553322493" lon="10.701186277431407"><ele>56.0</ele><time>2026-04-18T07:51:35Z</time></trkpt><trkpt lat="43.53501453130599" lon="10.701145971222276"><ele>56.0</ele><time>2026-04-18T07:51:36Z</time></trkpt><trkpt lat="43.535201625270254" lon="10.701108945069139"><ele>56.0</ele><time>2026-04-18T07:51:37Z</time></trkpt><trkpt lat="43.535387958800264" lon="10.701073422326116"><ele>56.0</ele><time>2026-04-18T07:51:38Z</time></trkpt><trkpt lat="43.53557260847498" lon="10.701029234845295"><ele>56.333333333333336</ele><time>2026-04-18T07:51:39Z</time></trkpt><trkpt lat="43.535755568409435" lon="10.700988945211376"><ele>56.66666666666667</ele><time>2026-04-18T07:51:40Z</time></trkpt><trkpt lat="43.53592726439046" lon="10.700951576566352"><ele>57.0</ele><time>2026-04-18T07:51:41Z</time></trkpt><trkpt lat="43.53610723404054" lon="10.70091250262188"><ele>56.33333333333333</ele><time>2026-04-18T07:51:42Z</time></trkpt><trkpt lat="43.536286669113046" lon="10.700897589868868"><ele>55.666666666666664</ele><time>2026-04-18T07:51:43Z</time></trkpt><trkpt lat="43.53645440686542" lon="10.700861870171813"><ele>55.0</ele><time>2026-04-18T07:51:44Z</time></trkpt><trkpt lat="43.536617711506736" lon="10.700827048206955"><ele>55.0</ele><time>2026-04-18T07:51:45Z</time></trkpt><trkpt lat="43.53677119757928" lon="10.70079444438401"><ele>55.0</ele><time>2026-04-18T07:51:46Z</time></trkpt><trkpt lat="43.53691274249279" lon="10.70073865782733"><ele>55.0</ele><time>2026-04-18T07:51:47Z</time></trkpt><trkpt lat="43.53705280253157" lon="10.700713880860024"><ele>55.0</ele><time>2026-04-18T07:51:48Z</time></trkpt><trkpt lat="43.537168314235934" lon="10.700686441938785"><ele>55.5</ele><time>2026-04-18T07:51:49Z</time></trkpt><trkpt lat="43.537286697748655" lon="10.700669131162366"><ele>56.0</ele><time>2026-04-18T07:51:50Z</time></trkpt><trkpt lat="43.53740734609725" lon="10.700642958310011"><ele>56.5</ele><time>2026-04-18T07:51:51Z</time></trkpt><trkpt lat="43.53752867366599" lon="10.700647216200206"><ele>57.0</ele><time>2026-04-18T07:51:52Z</time></trkpt><trkpt lat="43.53763776558141" lon="10.700605829754862"><ele>57.0</ele><time>2026-04-18T07:51:53Z</time></trkpt><trkpt lat="43.537752579190084" lon="10.700590028014172"><ele>57.0</ele><time>2026-04-18T07:51:54Z</time></trkpt><trkpt lat="43.53788203830248" lon="10.700570351938538"><ele>57.0</ele><time>2026-04-18T07:51:55Z</time></trkpt><trkpt lat="43.53802216011552" lon="10.700551917901878"><ele>57.0</ele><time>2026-04-18T07:51:56Z</time></trkpt><trkpt lat="43.5381739876732" lon="10.700532863156761"><ele>57.0</ele><time>2026-04-18T07:51:57Z</time></trkpt><trkpt lat="43.538332623673845" lon="10.700509289226082"><ele>57.0</ele><time>2026-04-18T07:51:58Z</time></trkpt><trkpt lat="43.53850049609322" lon="10.700483500651945"><ele>57.0</ele><time>2026-04-18T07:51:59Z</time></trkpt><trkpt lat="43.538679585526744" lon="10.700460081132242"><ele>56.66666666666667</ele><time>2026-04-18T07:52:00Z</time></trkpt><trkpt lat="43.53886659692667" lon="10.700434675017236"><ele>56.333333333333336</ele><time>2026-04-18T07:52:01Z</time></trkpt><trkpt lat="43.5390446268187" lon="10.700412487264416"><ele>56.0</ele><time>2026-04-18T07:52:02Z</time></trkpt><trkpt lat="43.53920740091704" lon="10.700391452631457"><ele>56.0</ele><time>2026-04-18T07:52:03Z</time></trkpt><trkpt lat="43.539353916668965" lon="10.700369764236546"><ele>56.0</ele><time>2026-04-18T07:52:04Z</time></trkpt><trkpt lat="43.539504972834635" lon="10.70034952709709"><ele>56.0</ele><time>2026-04-18T07:52:05Z</time></trkpt><trkpt lat="43.53966593136595" lon="10.70033585733668"><ele>56.333333333333336</ele><time>2026-04-18T07:52:06Z</time></trkpt><trkpt lat="43.539826812476264" lon="10.700322384270182"><ele>56.66666666666667</ele><time>2026-04-18T07:52:07Z</time></trkpt><trkpt lat="43.540008945276476" lon="10.700293044653627"><ele>57.0</ele><time>2026-04-18T07:52:08Z</time></trkpt><trkpt lat="43.54019604751917" lon="10.700268678562463"><ele>57.33333333333333</ele><time>2026-04-18T07:52:09Z</time></trkpt><trkpt lat="43.54038568486976" lon="10.700232713837735"><ele>57.666666666666664</ele><time>2026-04-18T07:52:10Z</time></trkpt><trkpt lat="43.540571462200234" lon="10.700208138632696"><ele>58.0</ele><time>2026-04-18T07:52:11Z</time></trkpt><trkpt lat="43.54073645885766" lon="10.700204755578694"><ele>58.0</ele><time>2026-04-18T07:52:12Z</time></trkpt><trkpt lat="43.540886157429235" lon="10.700163762154622"><ele>58.0</ele><time>2026-04-18T07:52:13Z</time></trkpt><trkpt lat="43.54102825846899" lon="10.70014188486047"><ele>58.0</ele><time>2026-04-18T07:52:14Z</time></trkpt><trkpt lat="43.54115560585209" lon="10.700123428665792"><ele>58.0</ele><time>2026-04-18T07:52:15Z</time></trkpt><trkpt lat="43.54126690513195" lon="10.700103696909098"><ele>57.599999999999994</ele><time>2026-04-18T07:52:16Z</time></trkpt><trkpt lat="43.5413731791121" lon="10.700091819484769"><ele>57.199999999999996</ele><time>2026-04-18T07:52:17Z</time></trkpt><trkpt lat="43.541473043570896" lon="10.700078515568617"><ele>56.8</ele><time>2026-04-18T07:52:18Z</time></trkpt><trkpt lat="43.54157615152968" lon="10.700065722999849"><ele>56.4</ele><time>2026-04-18T07:52:19Z</time></trkpt><trkpt lat="43.541660602419846" lon="10.700132210915307"><ele>56.0</ele><time>2026-04-18T07:52:20Z</time></trkpt><trkpt lat="43.541728668862135" lon="10.700164944397082"><ele>56.0</ele><time>2026-04-18T07:52:21Z</time></trkpt><trkpt lat="43.541776937080215" lon="10.700266310419194"><ele>56.0</ele><time>2026-04-18T07:52:22Z</time></trkpt><trkpt lat="43.5417948940383" lon="10.700409864156791"><ele>56.0</ele><time>2026-04-18T07:52:23Z</time></trkpt><trkpt lat="43.541796059832805" lon="10.700570565291372"><ele>56.0</ele><time>2026-04-18T07:52:24Z</time></trkpt><trkpt lat="43.54179488336004" lon="10.700764536671752"><ele>56.0</ele><time>2026-04-18T07:52:25Z</time></trkpt><trkpt lat="43.54181996330765" lon="10.70095003605479"><ele>56.0</ele><time>2026-04-18T07:52:26Z</time></trkpt><trkpt lat="43.54185856552337" lon="10.701132341150716"><ele>56.0</ele><time>2026-04-18T07:52:27Z</time></trkpt><trkpt lat="43.541879876312265" lon="10.70131715624227"><ele>56.0</ele><time>2026-04-18T07:52:28Z</time></trkpt><trkpt lat="43.54190081921832" lon="10.701498847494053"><ele>55.599999999999994</ele><time>2026-04-18T07:52:29Z</time></trkpt><trkpt lat="43.54192282016489" lon="10.70165918030766"><ele>55.199999999999996</ele><time>2026-04-18T07:52:30Z</time></trkpt><trkpt lat="43.541940028934064" lon="10.701795189735803"><ele>54.800000000000004</ele><time>2026-04-18T07:52:31Z</time></trkpt><trkpt lat="43.54195570876295" lon="10.701932135075099"><ele>54.400000000000006</ele><time>2026-04-18T07:52:32Z</time></trkpt><trkpt lat="43.541973072357266" lon="10.702064656780388"><ele>54.0</ele><time>2026-04-18T07:52:33Z</time></trkpt><trkpt lat="43.541992101324794" lon="10.702194198354473"><ele>54.0</ele><time>2026-04-18T07:52:34Z</time></trkpt><trkpt lat="43.54202964033543" lon="10.702443479134736"><ele>54.0</ele><time>2026-04-18T07:52:36Z</time></trkpt><trkpt lat="43.5420543139847" lon="10.70256662395574"><ele>54.0</ele><time>2026-04-18T07:52:37Z</time></trkpt><trkpt lat="43.54205762407176" lon="10.702696867160837"><ele>54.0</ele><time>2026-04-18T07:52:38Z</time></trkpt><trkpt lat="43.54210193546134" lon="10.702810132488503"><ele>53.400000000000006</ele><time>2026-04-18T07:52:39Z</time></trkpt><trkpt lat="43.54211577436943" lon="10.702921188658769"><ele>52.800000000000004</ele><time>2026-04-18T07:52:40Z</time></trkpt><trkpt lat="43.54212085417358" lon="10.703027028369641"><ele>52.2</ele><time>2026-04-18T07:52:42Z</time></trkpt><trkpt lat="43.54212836735055" lon="10.703162850533122"><ele>51.599999999999994</ele><time>2026-04-18T07:52:47Z</time></trkpt><trkpt lat="43.54214250737314" lon="10.703292235831322"><ele>51.0</ele><time>2026-04-18T07:52:48Z</time></trkpt><trkpt lat="43.54217119527642" lon="10.703446109752287"><ele>51.0</ele><time>2026-04-18T07:52:49Z</time></trkpt><trkpt lat="43.542191675851846" lon="10.703582602658884"><ele>51.0</ele><time>2026-04-18T07:52:50Z</time></trkpt><trkpt lat="43.54220532727928" lon="10.70374756068517"><ele>51.0</ele><time>2026-04-18T07:52:51Z</time></trkpt><trkpt lat="43.54222409728757" lon="10.703916877560205"><ele>51.0</ele><time>2026-04-18T07:52:52Z</time></trkpt><trkpt lat="43.5422433890473" lon="10.704096340923615"><ele>51.0</ele><time>2026-04-18T07:52:53Z</time></trkpt><trkpt lat="43.54227267650504" lon="10.704277871688461"><ele>51.0</ele><time>2026-04-18T07:52:54Z</time></trkpt><trkpt lat="43.542305024485444" lon="10.704443567925916"><ele>51.0</ele><time>2026-04-18T07:52:55Z</time></trkpt><trkpt lat="43.54232813533873" lon="10.704613521431975"><ele>51.0</ele><time>2026-04-18T07:52:56Z</time></trkpt><trkpt lat="43.54235375098055" lon="10.70479260173502"><ele>50.75</ele><time>2026-04-18T07:52:57Z</time></trkpt><trkpt lat="43.54237873483936" lon="10.704974211773653"><ele>50.5</ele><time>2026-04-18T07:52:58Z</time></trkpt><trkpt lat="43.54240274506501" lon="10.705154713619681"><ele>50.25</ele><time>2026-04-18T07:52:59Z</time></trkpt><trkpt lat="43.54242454185804" lon="10.705324261100284"><ele>50.0</ele><time>2026-04-18T07:53:00Z</time></trkpt><trkpt lat="43.54244640236819" lon="10.705490281823113"><ele>50.0</ele><time>2026-04-18T07:53:01Z</time></trkpt><trkpt lat="43.542468666659175" lon="10.705648558352815"><ele>50.0</ele><time>2026-04-18T07:53:02Z</time></trkpt><trkpt lat="43.542488498803344" lon="10.705808351635225"><ele>50.0</ele><time>2026-04-18T07:53:03Z</time></trkpt><trkpt lat="43.54251230593878" lon="10.70597760470023"><ele>50.0</ele><time>2026-04-18T07:53:04Z</time></trkpt><trkpt lat="43.54252811821902" lon="10.706160167323667"><ele>50.25</ele><time>2026-04-18T07:53:05Z</time></trkpt><trkpt lat="43.54255349658513" lon="10.706335162057739"><ele>50.5</ele><time>2026-04-18T07:53:06Z</time></trkpt><trkpt lat="43.54257688335861" lon="10.706503428205725"><ele>50.75</ele><time>2026-04-18T07:53:07Z</time></trkpt><trkpt lat="43.54259888059348" lon="10.706676637953175"><ele>51.0</ele><time>2026-04-18T07:53:08Z</time></trkpt><trkpt lat="43.54262632510076" lon="10.706866732773399"><ele>50.33333333333333</ele><time>2026-04-18T07:53:09Z</time></trkpt><trkpt lat="43.54265570078438" lon="10.7070706127326"><ele>49.666666666666664</ele><time>2026-04-18T07:53:10Z</time></trkpt><trkpt lat="43.54268279358663" lon="10.707289697318517"><ele>49.0</ele><time>2026-04-18T07:53:11Z</time></trkpt><trkpt lat="43.542711691451" lon="10.707494514491215"><ele>49.0</ele><time>2026-04-18T07:53:12Z</time></trkpt><trkpt lat="43.5427383940009" lon="10.707686685758668"><ele>49.0</ele><time>2026-04-18T07:53:13Z</time></trkpt><trkpt lat="43.54276851888721" lon="10.707892760907246"><ele>49.0</ele><time>2026-04-18T07:53:14Z</time></trkpt><trkpt lat="43.54279872353972" lon="10.708095419534274"><ele>49.0</ele><time>2026-04-18T07:53:15Z</time></trkpt><trkpt lat="43.54281000115125" lon="10.708293459195428"><ele>49.0</ele><time>2026-04-18T07:53:16Z</time></trkpt><trkpt lat="43.54285308052106" lon="10.708485702574478"><ele>49.0</ele><time>2026-04-18T07:53:17Z</time></trkpt><trkpt lat="43.54288112728243" lon="10.70869760091766"><ele>49.0</ele><time>2026-04-18T07:53:18Z</time></trkpt><trkpt lat="43.54290524274599" lon="10.708912969625173"><ele>49.0</ele><time>2026-04-18T07:53:19Z</time></trkpt><trkpt lat="43.542930200477734" lon="10.709120395846474"><ele>49.0</ele><time>2026-04-18T07:53:20Z</time></trkpt><trkpt lat="43.54295822990435" lon="10.709357848085126"><ele>49.0</ele><time>2026-04-18T07:53:21Z</time></trkpt><trkpt lat="43.542996230009614" lon="10.709598297794125"><ele>48.666666666666664</ele><time>2026-04-18T07:53:22Z</time></trkpt><trkpt lat="43.54303375525814" lon="10.709849411813247"><ele>48.33333333333333</ele><time>2026-04-18T07:53:23Z</time></trkpt><trkpt lat="43.543064309930315" lon="10.710092635099638"><ele>48.0</ele><time>2026-04-18T07:53:24Z</time></trkpt><trkpt lat="43.54310065903029" lon="10.710325094793719"><ele>47.0</ele><time>2026-04-18T07:53:25Z</time></trkpt><trkpt lat="43.54312472027871" lon="10.710552549996574"><ele>46.0</ele><time>2026-04-18T07:53:26Z</time></trkpt><trkpt lat="43.54315616489826" lon="10.710773659567964"><ele>45.0</ele><time>2026-04-18T07:53:27Z</time></trkpt><trkpt lat="43.5431829256545" lon="10.710992476450695"><ele>44.333333333333336</ele><time>2026-04-18T07:53:28Z</time></trkpt><trkpt lat="43.543210935338095" lon="10.711211740614427"><ele>43.66666666666667</ele><time>2026-04-18T07:53:29Z</time></trkpt><trkpt lat="43.54323767746386" lon="10.71143849804515"><ele>43.0</ele><time>2026-04-18T07:53:30Z</time></trkpt><trkpt lat="43.543270235430626" lon="10.711685849766118"><ele>43.0</ele><time>2026-04-18T07:53:31Z</time></trkpt><trkpt lat="43.543306335214915" lon="10.711929651670989"><ele>43.0</ele><time>2026-04-18T07:53:32Z</time></trkpt><trkpt lat="43.54333912042039" lon="10.712170516254252"><ele>43.0</ele><time>2026-04-18T07:53:33Z</time></trkpt><trkpt lat="43.543369749708354" lon="10.712398257025125"><ele>43.0</ele><time>2026-04-18T07:53:34Z</time></trkpt><trkpt lat="43.54340141721316" lon="10.7126250326375"><ele>43.0</ele><time>2026-04-18T07:53:35Z</time></trkpt><trkpt lat="43.543430864413644" lon="10.712840078038136"><ele>43.0</ele><time>2026-04-18T07:53:36Z</time></trkpt><trkpt lat="43.543463606691105" lon="10.713065060206862"><ele>42.66666666666667</ele><time>2026-04-18T07:53:37Z</time></trkpt><trkpt lat="43.54349370411215" lon="10.713294568185036"><ele>42.333333333333336</ele><time>2026-04-18T07:53:38Z</time></trkpt><trkpt lat="43.54352641026416" lon="10.713528363793394"><ele>42.0</ele><time>2026-04-18T07:53:39Z</time></trkpt><trkpt lat="43.54355685845076" lon="10.713760767594474"><ele>41.75</ele><time>2026-04-18T07:53:40Z</time></trkpt><trkpt lat="43.54358470981152" lon="10.713955169805356"><ele>41.5</ele><time>2026-04-18T07:53:41Z</time></trkpt><trkpt lat="43.5436102090098" lon="10.714137275041907"><ele>41.25</ele><time>2026-04-18T07:53:42Z</time></trkpt><trkpt lat="43.54363512321543" lon="10.714307984813132"><ele>41.0</ele><time>2026-04-18T07:53:43Z</time></trkpt><trkpt lat="43.54365479811888" lon="10.714466807373304"><ele>42.0</ele><time>2026-04-18T07:53:44Z</time></trkpt><trkpt lat="43.54367742870852" lon="10.714617992176501"><ele>43.0</ele><time>2026-04-18T07:53:45Z</time></trkpt><trkpt lat="43.54370571635146" lon="10.714762938155957"><ele>44.0</ele><time>2026-04-18T07:53:46Z</time></trkpt><trkpt lat="43.543729749382685" lon="10.714872699863147"><ele>45.0</ele><time>2026-04-18T07:53:47Z</time></trkpt><trkpt lat="43.54378670040365" lon="10.714994734128728"><ele>46.0</ele><time>2026-04-18T07:53:49Z</time></trkpt><trkpt lat="43.54376002312197" lon="10.715098182621524"><ele>46.0</ele><time>2026-04-18T07:53:50Z</time></trkpt><trkpt lat="43.543709398152515" lon="10.715160059502674"><ele>46.0</ele><time>2026-04-18T07:53:53Z</time></trkpt><trkpt lat="43.543651356664945" lon="10.715063584995468"><ele>46.0</ele><time>2026-04-18T07:53:55Z</time></trkpt><trkpt lat="43.543630243989945" lon="10.71497362053686"><ele>46.0</ele><time>2026-04-18T07:53:56Z</time></trkpt><trkpt lat="43.54361032607362" lon="10.714889304030214"><ele>46.0</ele><time>2026-04-18T07:53:57Z</time></trkpt><trkpt lat="43.54357337113551" lon="10.714715122108034"><ele>46.0</ele><time>2026-04-18T07:53:59Z</time></trkpt><trkpt lat="43.543536059743374" lon="10.714579142270718"><ele>46.0</ele><time>2026-04-18T07:54:00Z</time></trkpt><trkpt lat="43.543485357673305" lon="10.714433555501993"><ele>46.0</ele><time>2026-04-18T07:54:01Z</time></trkpt><trkpt lat="43.54345424863444" lon="10.714325289464524"><ele>46.0</ele><time>2026-04-18T07:54:02Z</time></trkpt><trkpt lat="43.54341493857119" lon="10.714240490585988"><ele>46.0</ele><time>2026-04-18T07:54:03Z</time></trkpt><trkpt lat="43.54335972688059" lon="10.714151804742185"><ele>46.0</ele><time>2026-04-18T07:54:04Z</time></trkpt><trkpt lat="43.54329273564327" lon="10.714085336926543"><ele>46.0</ele><time>2026-04-18T07:54:05Z</time></trkpt><trkpt lat="43.54322140684792" lon="10.71404352674852"><ele>44.75</ele><time>2026-04-18T07:54:06Z</time></trkpt><trkpt lat="43.54312548704679" lon="10.714028746263836"><ele>43.5</ele><time>2026-04-18T07:54:07Z</time></trkpt><trkpt lat="43.54300671728571" lon="10.71402915022658"><ele>42.25</ele><time>2026-04-18T07:54:08Z</time></trkpt><trkpt lat="43.54289268777739" lon="10.714044601759195"><ele>41.0</ele><time>2026-04-18T07:54:09Z</time></trkpt><trkpt lat="43.542769936076304" lon="10.714028365967419"><ele>41.0</ele><time>2026-04-18T07:54:10Z</time></trkpt><trkpt lat="43.542631560375185" lon="10.71405752727857"><ele>41.0</ele><time>2026-04-18T07:54:11Z</time></trkpt><trkpt lat="43.542462180447075" lon="10.714070857288558"><ele>41.0</ele><time>2026-04-18T07:54:12Z</time></trkpt><trkpt lat="43.54229302172225" lon="10.714086564272955"><ele>41.0</ele><time>2026-04-18T07:54:13Z</time></trkpt><trkpt lat="43.54215593441926" lon="10.714106568623773"><ele>41.0</ele><time>2026-04-18T07:54:14Z</time></trkpt><trkpt lat="43.54202208452363" lon="10.714117282115136"><ele>41.0</ele><time>2026-04-18T07:54:15Z</time></trkpt><trkpt lat="43.54189272893196" lon="10.714167762575208"><ele>41.0</ele><time>2026-04-18T07:54:16Z</time></trkpt><trkpt lat="43.541777915095" lon="10.714203513068655"><ele>40.75</ele><time>2026-04-18T07:54:17Z</time></trkpt><trkpt lat="43.5416642212429" lon="10.714241262818744"><ele>40.5</ele><time>2026-04-18T07:54:18Z</time></trkpt><trkpt lat="43.54155176473193" lon="10.714289295002752"><ele>40.25</ele><time>2026-04-18T07:54:19Z</time></trkpt><trkpt lat="43.54144100700895" lon="10.714329433161016"><ele>40.0</ele><time>2026-04-18T07:54:20Z</time></trkpt><trkpt lat="43.541332007098596" lon="10.714369816292283"><ele>40.0</ele><time>2026-04-18T07:54:21Z</time></trkpt><trkpt lat="43.54120388172505" lon="10.71439238736858"><ele>40.0</ele><time>2026-04-18T07:54:22Z</time></trkpt><trkpt lat="43.54109292130765" lon="10.714436300679399"><ele>40.0</ele><time>2026-04-18T07:54:23Z</time></trkpt><trkpt lat="43.54098943175898" lon="10.71449738602534"><ele>40.0</ele><time>2026-04-18T07:54:24Z</time></trkpt><trkpt lat="43.54086070867178" lon="10.714516267539922"><ele>41.5</ele><time>2026-04-18T07:54:25Z</time></trkpt><trkpt lat="43.54071985246885" lon="10.714511587176057"><ele>43.0</ele><time>2026-04-18T07:54:26Z</time></trkpt><trkpt lat="43.5406010328422" lon="10.714526040471164"><ele>44.5</ele><time>2026-04-18T07:54:27Z</time></trkpt><trkpt lat="43.54049541207513" lon="10.714533441041326"><ele>46.0</ele><time>2026-04-18T07:54:28Z</time></trkpt><trkpt lat="43.54039509270573" lon="10.714521748710636"><ele>47.199999999999996</ele><time>2026-04-18T07:54:29Z</time></trkpt><trkpt lat="43.540299803199986" lon="10.714522702851017"><ele>48.4</ele><time>2026-04-18T07:54:30Z</time></trkpt><trkpt lat="43.54020446121759" lon="10.714512842979552"><ele>49.6</ele><time>2026-04-18T07:54:31Z</time></trkpt><trkpt lat="43.540124960578865" lon="10.714501266461383"><ele>50.8</ele><time>2026-04-18T07:54:32Z</time></trkpt><trkpt lat="43.54003483920822" lon="10.714484986107534"><ele>52.0</ele><time>2026-04-18T07:54:33Z</time></trkpt><trkpt lat="43.53994694555397" lon="10.71446910770148"><ele>51.99999999999999</ele><time>2026-04-18T07:54:34Z</time></trkpt><trkpt lat="43.539877821511865" lon="10.714449333150155"><ele>52.0</ele><time>2026-04-18T07:54:35Z</time></trkpt><trkpt lat="43.53980033783307" lon="10.714430072777294"><ele>52.0</ele><time>2026-04-18T07:54:36Z</time></trkpt><trkpt lat="43.53970870932872" lon="10.714415446882917"><ele>52.0</ele><time>2026-04-18T07:54:37Z</time></trkpt><trkpt lat="43.53963684421266" lon="10.714424380393185"><ele>51.99999999999999</ele><time>2026-04-18T07:54:38Z</time></trkpt><trkpt lat="43.53956930692433" lon="10.714437992502345"><ele>52.0</ele><time>2026-04-18T07:54:39Z</time></trkpt><trkpt lat="43.53950736430897" lon="10.714505081323503"><ele>51.83333333333333</ele><time>2026-04-18T07:54:40Z</time></trkpt><trkpt lat="43.53945410082078" lon="10.714568901279057"><ele>51.666666666666664</ele><time>2026-04-18T07:54:41Z</time></trkpt><trkpt lat="43.53940971571872" lon="10.714634312588636"><ele>51.5</ele><time>2026-04-18T07:54:42Z</time></trkpt><trkpt lat="43.53937208261961" lon="10.714713585599574"><ele>51.33333333333333</ele><time>2026-04-18T07:54:43Z</time></trkpt><trkpt lat="43.5393298373109" lon="10.71481118510177"><ele>51.166666666666664</ele><time>2026-04-18T07:54:44Z</time></trkpt><trkpt lat="43.53928278695223" lon="10.714897192101503"><ele>51.0</ele><time>2026-04-18T07:54:45Z</time></trkpt><trkpt lat="43.53919985658884" lon="10.714959954769672"><ele>51.0</ele><time>2026-04-18T07:54:47Z</time></trkpt><trkpt lat="43.53913673804019" lon="10.714875275851817"><ele>51.0</ele><time>2026-04-18T07:54:50Z</time></trkpt><trkpt lat="43.539107770743705" lon="10.71478254532725"><ele>51.0</ele><time>2026-04-18T07:54:53Z</time></trkpt><trkpt lat="43.53909374906445" lon="10.714692970601359"><ele>51.0</ele><time>2026-04-18T07:54:55Z</time></trkpt><trkpt lat="43.539051760010906" lon="10.714566101780022"><ele>51.0</ele><time>2026-04-18T07:54:57Z</time></trkpt><trkpt lat="43.53901782217735" lon="10.714473329063303"><ele>51.0</ele><time>2026-04-18T07:54:58Z</time></trkpt><trkpt lat="43.53897806328063" lon="10.714393325189787"><ele>49.666666666666664</ele><time>2026-04-18T07:54:59Z</time></trkpt><trkpt lat="43.53892574819939" lon="10.71432066621875"><ele>48.333333333333336</ele><time>2026-04-18T07:55:00Z</time></trkpt><trkpt lat="43.53887845244555" lon="10.71423826483949"><ele>47.0</ele><time>2026-04-18T07:55:01Z</time></trkpt><trkpt lat="43.538809997640584" lon="10.714168310509114"><ele>45.66666666666667</ele><time>2026-04-18T07:55:02Z</time></trkpt><trkpt lat="43.53874418013139" lon="10.714111459308503"><ele>44.333333333333336</ele><time>2026-04-18T07:55:03Z</time></trkpt><trkpt lat="43.53869061946181" lon="10.714065248305799"><ele>43.0</ele><time>2026-04-18T07:55:04Z</time></trkpt><trkpt lat="43.53862344362781" lon="10.714000865211194"><ele>43.0</ele><time>2026-04-18T07:55:07Z</time></trkpt><trkpt lat="43.5385634626781" lon="10.713933817538285"><ele>43.0</ele><time>2026-04-18T07:55:09Z</time></trkpt><trkpt lat="43.53849577024344" lon="10.713852316526692"><ele>43.0</ele><time>2026-04-18T07:55:11Z</time></trkpt><trkpt lat="43.538447915788524" lon="10.713793038193888"><ele>43.0</ele><time>2026-04-18T07:55:12Z</time></trkpt><trkpt lat="43.538392907338086" lon="10.713724294056707"><ele>43.0</ele><time>2026-04-18T07:55:13Z</time></trkpt><trkpt lat="43.538343113218986" lon="10.7136566988921"><ele>43.0</ele><time>2026-04-18T07:55:14Z</time></trkpt><trkpt lat="43.53829757965672" lon="10.71354506192276"><ele>42.833333333333336</ele><time>2026-04-18T07:55:16Z</time></trkpt><trkpt lat="43.53828586598329" lon="10.713406419926104"><ele>42.66666666666667</ele><time>2026-04-18T07:55:18Z</time></trkpt><trkpt lat="43.5383287363069" lon="10.713326659467723"><ele>42.5</ele><time>2026-04-18T07:55:19Z</time></trkpt><trkpt lat="43.53833505107383" lon="10.71322410177488"><ele>42.333333333333336</ele><time>2026-04-18T07:55:22Z</time></trkpt><trkpt lat="43.53829676986405" lon="10.713147841375216"><ele>42.166666666666664</ele><time>2026-04-18T07:55:31Z</time></trkpt><trkpt lat="43.53821496741664" lon="10.713120789065673"><ele>42.0</ele><time>2026-04-18T07:55:32Z</time></trkpt><trkpt lat="43.53815218355451" lon="10.713057425026676"><ele>42.0</ele><time>2026-04-18T07:55:33Z</time></trkpt><trkpt lat="43.53809147734165" lon="10.713006906177018"><ele>42.0</ele><time>2026-04-18T07:55:34Z</time></trkpt><trkpt lat="43.53802257541329" lon="10.712932062736474"><ele>42.0</ele><time>2026-04-18T07:55:35Z</time></trkpt><trkpt lat="43.537953067281926" lon="10.712839558187458"><ele>42.0</ele><time>2026-04-18T07:55:36Z</time></trkpt><trkpt lat="43.537865315402" lon="10.71275203671851"><ele>42.0</ele><time>2026-04-18T07:55:37Z</time></trkpt><trkpt lat="43.53779233205463" lon="10.712697835192975"><ele>42.0</ele><time>2026-04-18T07:55:38Z</time></trkpt><trkpt lat="43.53771466796555" lon="10.71262542889008"><ele>42.0</ele><time>2026-04-18T07:55:39Z</time></trkpt><trkpt lat="43.537618130307905" lon="10.712538126773284"><ele>42.0</ele><time>2026-04-18T07:55:40Z</time></trkpt><trkpt lat="43.537533293034954" lon="10.712426258261688"><ele>42.0</ele><time>2026-04-18T07:55:41Z</time></trkpt><trkpt lat="43.53743100738033" lon="10.712323287798997"><ele>42.0</ele><time>2026-04-18T07:55:42Z</time></trkpt><trkpt lat="43.53731286882324" lon="10.71223412584895"><ele>42.0</ele><time>2026-04-18T07:55:43Z</time></trkpt><trkpt lat="43.537226503193956" lon="10.712146772476089"><ele>42.0</ele><time>2026-04-18T07:55:44Z</time></trkpt><trkpt lat="43.53716243002845" lon="10.712078005717068"><ele>42.0</ele><time>2026-04-18T07:55:45Z</time></trkpt><trkpt lat="43.537080243150946" lon="10.711997219709641"><ele>42.0</ele><time>2026-04-18T07:55:46Z</time></trkpt><trkpt lat="43.53699173728688" lon="10.711924424082625"><ele>42.0</ele><time>2026-04-18T07:55:47Z</time></trkpt><trkpt lat="43.536905568848574" lon="10.711863004537035"><ele>42.0</ele><time>2026-04-18T07:55:48Z</time></trkpt><trkpt lat="43.53681426607492" lon="10.71182497335634"><ele>42.0</ele><time>2026-04-18T07:55:49Z</time></trkpt><trkpt lat="43.53671440962261" lon="10.711801208905747"><ele>42.0</ele><time>2026-04-18T07:55:50Z</time></trkpt><trkpt lat="43.53659999194887" lon="10.711781942598025"><ele>42.0</ele><time>2026-04-18T07:55:51Z</time></trkpt><trkpt lat="43.53647717131712" lon="10.711758569266904"><ele>42.0</ele><time>2026-04-18T07:55:52Z</time></trkpt><trkpt lat="43.536372064073106" lon="10.711743791592442"><ele>42.0</ele><time>2026-04-18T07:55:53Z</time></trkpt><trkpt lat="43.53627318761802" lon="10.711727148921568"><ele>42.0</ele><time>2026-04-18T07:55:54Z</time></trkpt><trkpt lat="43.5361868435165" lon="10.71171911507924"><ele>42.0</ele><time>2026-04-18T07:55:55Z</time></trkpt><trkpt lat="43.536084247463315" lon="10.711689052913934"><ele>42.0</ele><time>2026-04-18T07:55:56Z</time></trkpt><trkpt lat="43.53596581241143" lon="10.711687124009003"><ele>42.0</ele><time>2026-04-18T07:55:57Z</time></trkpt><trkpt lat="43.5358712103078" lon="10.711654448846769"><ele>42.0</ele><time>2026-04-18T07:55:58Z</time></trkpt><trkpt lat="43.53579651797562" lon="10.711632825533131"><ele>42.0</ele><time>2026-04-18T07:55:59Z</time></trkpt><trkpt lat="43.53571298284798" lon="10.711602527999116"><ele>42.0</ele><time>2026-04-18T07:56:00Z</time></trkpt><trkpt lat="43.53562496388248" lon="10.711562155945582"><ele>42.0</ele><time>2026-04-18T07:56:01Z</time></trkpt><trkpt lat="43.53553245720662" lon="10.711538891464931"><ele>42.0</ele><time>2026-04-18T07:56:02Z</time></trkpt><trkpt lat="43.53544727645973" lon="10.711498546411462"><ele>42.0</ele><time>2026-04-18T07:56:03Z</time></trkpt><trkpt lat="43.53535808237738" lon="10.711447534049464"><ele>42.0</ele><time>2026-04-18T07:56:04Z</time></trkpt><trkpt lat="43.53525164215397" lon="10.71140574427922"><ele>42.0</ele><time>2026-04-18T07:56:05Z</time></trkpt><trkpt lat="43.53515487481389" lon="10.711338185453771"><ele>42.0</ele><time>2026-04-18T07:56:06Z</time></trkpt><trkpt lat="43.53507191978769" lon="10.711296142571593"><ele>42.0</ele><time>2026-04-18T07:56:07Z</time></trkpt><trkpt lat="43.53499011088535" lon="10.711277041084069"><ele>42.0</ele><time>2026-04-18T07:56:08Z</time></trkpt><trkpt lat="43.53491185769815" lon="10.711213282120674"><ele>42.0</ele><time>2026-04-18T07:56:09Z</time></trkpt><trkpt lat="43.5348374645728" lon="10.711173257372256"><ele>42.0</ele><time>2026-04-18T07:56:10Z</time></trkpt><trkpt lat="43.53476265180262" lon="10.71113173781473"><ele>42.0</ele><time>2026-04-18T07:56:11Z</time></trkpt><trkpt lat="43.534681514993025" lon="10.711086524089014"><ele>42.0</ele><time>2026-04-18T07:56:12Z</time></trkpt><trkpt lat="43.53459886526377" lon="10.711040205023236"><ele>42.0</ele><time>2026-04-18T07:56:13Z</time></trkpt><trkpt lat="43.534518212343926" lon="10.71101101513813"><ele>42.0</ele><time>2026-04-18T07:56:14Z</time></trkpt><trkpt lat="43.53444067782923" lon="10.710966936974275"><ele>42.0</ele><time>2026-04-18T07:56:15Z</time></trkpt><trkpt lat="43.53434211007719" lon="10.710887700935954"><ele>42.0</ele><time>2026-04-18T07:56:17Z</time></trkpt><trkpt lat="43.53427012147098" lon="10.710867023199222"><ele>42.0</ele><time>2026-04-18T07:56:19Z</time></trkpt><trkpt lat="43.53422462751297" lon="10.710951588929452"><ele>42.0</ele><time>2026-04-18T07:56:21Z</time></trkpt><trkpt lat="43.53419569597598" lon="10.711062132276966"><ele>42.0</ele><time>2026-04-18T07:56:23Z</time></trkpt><trkpt lat="43.53417623227216" lon="10.711152398522126"><ele>42.0</ele><time>2026-04-18T07:56:24Z</time></trkpt><trkpt lat="43.5341491350807" lon="10.711271532368354"><ele>41.833333333333336</ele><time>2026-04-18T07:56:25Z</time></trkpt><trkpt lat="43.53411209846467" lon="10.711419955878299"><ele>41.666666666666664</ele><time>2026-04-18T07:56:26Z</time></trkpt><trkpt lat="43.534059286251804" lon="10.711543300783099"><ele>41.5</ele><time>2026-04-18T07:56:27Z</time></trkpt><trkpt lat="43.5340220424819" lon="10.711626452478413"><ele>41.33333333333333</ele><time>2026-04-18T07:56:28Z</time></trkpt><trkpt lat="43.53398911148353" lon="10.711705468266674"><ele>41.166666666666664</ele><time>2026-04-18T07:56:29Z</time></trkpt><trkpt lat="43.5339505282435" lon="10.711800604188596"><ele>41.0</ele><time>2026-04-18T07:56:32Z</time></trkpt><trkpt lat="43.53389582772833" lon="10.711875992099921"><ele>41.666666666666664</ele><time>2026-04-18T07:56:34Z</time></trkpt><trkpt lat="43.53366077845073" lon="10.711809803563407"><ele>42.333333333333336</ele><time>2026-04-18T07:56:35Z</time></trkpt><trkpt lat="43.5335383135389" lon="10.711863600488378"><ele>43.0</ele><time>2026-04-18T07:56:36Z</time></trkpt><trkpt lat="43.53338261651648" lon="10.711930021164203"><ele>43.66666666666667</ele><time>2026-04-18T07:56:37Z</time></trkpt><trkpt lat="43.533223347296236" lon="10.711993109747514"><ele>44.333333333333336</ele><time>2026-04-18T07:56:38Z</time></trkpt><trkpt lat="43.533057834785716" lon="10.712058850889726"><ele>45.0</ele><time>2026-04-18T07:56:39Z</time></trkpt><trkpt lat="43.53289701849666" lon="10.712119675924116"><ele>44.75</ele><time>2026-04-18T07:56:40Z</time></trkpt><trkpt lat="43.53275658497529" lon="10.712173199021432"><ele>44.5</ele><time>2026-04-18T07:56:41Z</time></trkpt><trkpt lat="43.53261674772122" lon="10.712226255054025"><ele>44.25</ele><time>2026-04-18T07:56:42Z</time></trkpt><trkpt lat="43.532468851535846" lon="10.712286080536696"><ele>44.0</ele><time>2026-04-18T07:56:43Z</time></trkpt><trkpt lat="43.53230342306658" lon="10.712348022720098"><ele>44.0</ele><time>2026-04-18T07:56:44Z</time></trkpt><trkpt lat="43.5321587518465" lon="10.71240665038733"><ele>44.0</ele><time>2026-04-18T07:56:45Z</time></trkpt><trkpt lat="43.532039091260806" lon="10.712459584165837"><ele>44.0</ele><time>2026-04-18T07:56:46Z</time></trkpt><trkpt lat="43.53190422868905" lon="10.71251396214864"><ele>44.0</ele><time>2026-04-18T07:56:47Z</time></trkpt><trkpt lat="43.53175977355948" lon="10.712572545501203"><ele>44.0</ele><time>2026-04-18T07:56:48Z</time></trkpt><trkpt lat="43.5316123273464" lon="10.712634491313775"><ele>44.0</ele><time>2026-04-18T07:56:49Z</time></trkpt><trkpt lat="43.53146253762111" lon="10.712697234017185"><ele>44.0</ele><time>2026-04-18T07:56:50Z</time></trkpt><trkpt lat="43.5313367434143" lon="10.712744477603666"><ele>44.0</ele><time>2026-04-18T07:56:51Z</time></trkpt><trkpt lat="43.53122149889936" lon="10.712789637127445"><ele>43.666666666666664</ele><time>2026-04-18T07:56:52Z</time></trkpt><trkpt lat="43.53108697028259" lon="10.71284878222843"><ele>43.333333333333336</ele><time>2026-04-18T07:56:53Z</time></trkpt><trkpt lat="43.530940159199524" lon="10.712911267193494"><ele>43.0</ele><time>2026-04-18T07:56:54Z</time></trkpt><trkpt lat="43.530775077464575" lon="10.712979696163679"><ele>43.0</ele><time>2026-04-18T07:56:55Z</time></trkpt><trkpt lat="43.530600233332876" lon="10.713055353436564"><ele>43.0</ele><time>2026-04-18T07:56:56Z</time></trkpt><trkpt lat="43.53042317383851" lon="10.713129177893322"><ele>43.0</ele><time>2026-04-18T07:56:57Z</time></trkpt><trkpt lat="43.53027252454621" lon="10.713190520805446"><ele>43.333333333333336</ele><time>2026-04-18T07:56:58Z</time></trkpt><trkpt lat="43.53013213282407" lon="10.713237791103335"><ele>43.666666666666664</ele><time>2026-04-18T07:56:59Z</time></trkpt><trkpt lat="43.529978898912155" lon="10.71328717714283"><ele>44.0</ele><time>2026-04-18T07:57:00Z</time></trkpt><trkpt lat="43.529817596427506" lon="10.713360421719116"><ele>44.0</ele><time>2026-04-18T07:57:01Z</time></trkpt><trkpt lat="43.529627039196505" lon="10.713437236650845"><ele>44.0</ele><time>2026-04-18T07:57:02Z</time></trkpt><trkpt lat="43.52945942554009" lon="10.713498694863814"><ele>44.0</ele><time>2026-04-18T07:57:03Z</time></trkpt><trkpt lat="43.52932450564335" lon="10.713546875060551"><ele>43.75</ele><time>2026-04-18T07:57:04Z</time></trkpt><trkpt lat="43.52919133748969" lon="10.713603740600064"><ele>43.5</ele><time>2026-04-18T07:57:05Z</time></trkpt><trkpt lat="43.529062707572244" lon="10.713652730929761"><ele>43.25</ele><time>2026-04-18T07:57:06Z</time></trkpt><trkpt lat="43.528932676738734" lon="10.713699152248005"><ele>43.0</ele><time>2026-04-18T07:57:07Z</time></trkpt><trkpt lat="43.528803962545446" lon="10.713753197838356"><ele>43.5</ele><time>2026-04-18T07:57:08Z</time></trkpt><trkpt lat="43.52866864132559" lon="10.713811589130561"><ele>44.0</ele><time>2026-04-18T07:57:09Z</time></trkpt><trkpt lat="43.52853804193479" lon="10.713863265408298"><ele>44.5</ele><time>2026-04-18T07:57:10Z</time></trkpt><trkpt lat="43.528392094938475" lon="10.713919237742022"><ele>45.0</ele><time>2026-04-18T07:57:11Z</time></trkpt><trkpt lat="43.528244912013506" lon="10.713978244075413"><ele>45.0</ele><time>2026-04-18T07:57:12Z</time></trkpt><trkpt lat="43.52810384422007" lon="10.714036293230592"><ele>45.0</ele><time>2026-04-18T07:57:13Z</time></trkpt><trkpt lat="43.527969788624006" lon="10.714089176349658"><ele>45.0</ele><time>2026-04-18T07:57:14Z</time></trkpt><trkpt lat="43.52782381099795" lon="10.714147554205399"><ele>45.0</ele><time>2026-04-18T07:57:15Z</time></trkpt><trkpt lat="43.527683248967975" lon="10.714204849412363"><ele>45.0</ele><time>2026-04-18T07:57:16Z</time></trkpt><trkpt lat="43.52754051380487" lon="10.714264254022774"><ele>45.0</ele><time>2026-04-18T07:57:17Z</time></trkpt><trkpt lat="43.527383242733784" lon="10.714328542943845"><ele>45.0</ele><time>2026-04-18T07:57:18Z</time></trkpt><trkpt lat="43.52722223597462" lon="10.714393228801967"><ele>46.75</ele><time>2026-04-18T07:57:19Z</time></trkpt><trkpt lat="43.527067031933825" lon="10.71445577592014"><ele>48.5</ele><time>2026-04-18T07:57:20Z</time></trkpt><trkpt lat="43.526936188433766" lon="10.714507556887492"><ele>50.25</ele><time>2026-04-18T07:57:21Z</time></trkpt><trkpt lat="43.526793122239845" lon="10.714563822745848"><ele>52.0</ele><time>2026-04-18T07:57:22Z</time></trkpt><trkpt lat="43.52664149536649" lon="10.714623497370296"><ele>52.0</ele><time>2026-04-18T07:57:23Z</time></trkpt><trkpt lat="43.52650274718225" lon="10.714683347963557"><ele>52.0</ele><time>2026-04-18T07:57:24Z</time></trkpt><trkpt lat="43.526372355097905" lon="10.714736922691333"><ele>52.0</ele><time>2026-04-18T07:57:25Z</time></trkpt><trkpt lat="43.52623641148623" lon="10.714798651118087"><ele>52.0</ele><time>2026-04-18T07:57:26Z</time></trkpt><trkpt lat="43.52608814351536" lon="10.714862889025019"><ele>50.0</ele><time>2026-04-18T07:57:27Z</time></trkpt><trkpt lat="43.52593033901508" lon="10.714920080489268"><ele>48.0</ele><time>2026-04-18T07:57:28Z</time></trkpt><trkpt lat="43.5257771030176" lon="10.714979633144091"><ele>46.0</ele><time>2026-04-18T07:57:29.001Z</time></trkpt><trkpt lat="43.52564288537564" lon="10.715032364618649"><ele>46.0</ele><time>2026-04-18T07:57:30.001Z</time></trkpt><trkpt lat="43.525537988826585" lon="10.715070816229769"><ele>46.0</ele><time>2026-04-18T07:57:31.001Z</time></trkpt><trkpt lat="43.52543462449246" lon="10.715109312518305"><ele>46.0</ele><time>2026-04-18T07:57:32.001Z</time></trkpt><trkpt lat="43.52531499156827" lon="10.71515774271405"><ele>46.0</ele><time>2026-04-18T07:57:33.001Z</time></trkpt><trkpt lat="43.52519777640772" lon="10.71521009117814"><ele>46.333333333333336</ele><time>2026-04-18T07:57:34.001Z</time></trkpt><trkpt lat="43.525101092160895" lon="10.715252351421896"><ele>46.66666666666667</ele><time>2026-04-18T07:57:35.001Z</time></trkpt><trkpt lat="43.52502579573999" lon="10.715286123058496"><ele>47.0</ele><time>2026-04-18T07:57:36.001Z</time></trkpt><trkpt lat="43.52496241183318" lon="10.715318892540026"><ele>47.333333333333336</ele><time>2026-04-18T07:57:37.001Z</time></trkpt><trkpt lat="43.52487833442364" lon="10.715348666671565"><ele>47.666666666666664</ele><time>2026-04-18T07:57:39.001Z</time></trkpt><trkpt lat="43.5248111737554" lon="10.71535705240809"><ele>48.0</ele><time>2026-04-18T07:57:41.001Z</time></trkpt><trkpt lat="43.5247164962011" lon="10.715413124398193"><ele>48.0</ele><time>2026-04-18T07:57:43.001Z</time></trkpt><trkpt lat="43.52463807113438" lon="10.715540603784648"><ele>48.0</ele><time>2026-04-18T07:57:45.001Z</time></trkpt><trkpt lat="43.52461616392005" lon="10.715635084369952"><ele>48.0</ele><time>2026-04-18T07:57:46.001Z</time></trkpt><trkpt lat="43.52459879702231" lon="10.715745934367595"><ele>48.0</ele><time>2026-04-18T07:57:47.001Z</time></trkpt><trkpt lat="43.524589265993654" lon="10.715870758484813"><ele>48.0</ele><time>2026-04-18T07:57:48.001Z</time></trkpt><trkpt lat="43.52458315281493" lon="10.71600816848895"><ele>47.2</ele><time>2026-04-18T07:57:49.001Z</time></trkpt><trkpt lat="43.52458173037826" lon="10.716174984834435"><ele>46.4</ele><time>2026-04-18T07:57:50.001Z</time></trkpt><trkpt lat="43.52457790289689" lon="10.716321816430842"><ele>45.6</ele><time>2026-04-18T07:57:51.001Z</time></trkpt><trkpt lat="43.524563646522324" lon="10.716476903635737"><ele>44.800000000000004</ele><time>2026-04-18T07:57:52.001Z</time></trkpt><trkpt lat="43.52454543856566" lon="10.716623773244157"><ele>44.0</ele><time>2026-04-18T07:57:53.001Z</time></trkpt><trkpt lat="43.52451468608972" lon="10.716763983048732"><ele>44.0</ele><time>2026-04-18T07:57:54.001Z</time></trkpt><trkpt lat="43.52447065204749" lon="10.716927409178574"><ele>44.0</ele><time>2026-04-18T07:57:55.001Z</time></trkpt><trkpt lat="43.52441284153284" lon="10.717099826391138"><ele>44.0</ele><time>2026-04-18T07:57:56.001Z</time></trkpt><trkpt lat="43.52436640360309" lon="10.717234359723452"><ele>44.0</ele><time>2026-04-18T07:57:57Z</time></trkpt><trkpt lat="43.52430824832437" lon="10.717381178700496"><ele>44.0</ele><time>2026-04-18T07:57:58Z</time></trkpt><trkpt lat="43.52426559163855" lon="10.717513748692353"><ele>44.0</ele><time>2026-04-18T07:57:59Z</time></trkpt><trkpt lat="43.524218836147156" lon="10.717667670167103"><ele>44.0</ele><time>2026-04-18T07:58:00Z</time></trkpt><trkpt lat="43.52417125468686" lon="10.71783495354012"><ele>44.0</ele><time>2026-04-18T07:58:01Z</time></trkpt><trkpt lat="43.5241297279692" lon="10.718006669037326"><ele>44.75</ele><time>2026-04-18T07:58:02Z</time></trkpt><trkpt lat="43.52409181706239" lon="10.718178534583519"><ele>45.5</ele><time>2026-04-18T07:58:03Z</time></trkpt><trkpt lat="43.52405434973375" lon="10.718346583414709"><ele>46.25</ele><time>2026-04-18T07:58:04Z</time></trkpt><trkpt lat="43.524013971249055" lon="10.718523070767263"><ele>47.0</ele><time>2026-04-18T07:58:05Z</time></trkpt><trkpt lat="43.523968117016935" lon="10.718689030430301"><ele>47.25</ele><time>2026-04-18T07:58:06Z</time></trkpt><trkpt lat="43.523924004992324" lon="10.718831627834053"><ele>47.5</ele><time>2026-04-18T07:58:07Z</time></trkpt><trkpt lat="43.52388262542483" lon="10.718965600799084"><ele>47.75</ele><time>2026-04-18T07:58:08Z</time></trkpt><trkpt lat="43.52383720762343" lon="10.71910572178185"><ele>48.0</ele><time>2026-04-18T07:58:09Z</time></trkpt><trkpt lat="43.52379293131776" lon="10.719268524634257"><ele>48.25</ele><time>2026-04-18T07:58:10Z</time></trkpt><trkpt lat="43.52375489247697" lon="10.719433062572854"><ele>48.5</ele><time>2026-04-18T07:58:11Z</time></trkpt><trkpt lat="43.52371488362189" lon="10.719593728039136"><ele>48.75</ele><time>2026-04-18T07:58:12Z</time></trkpt><trkpt lat="43.52366351216004" lon="10.719752926549639"><ele>49.0</ele><time>2026-04-18T07:58:13Z</time></trkpt><trkpt lat="43.523607656477076" lon="10.719905490502994"><ele>48.25</ele><time>2026-04-18T07:58:14Z</time></trkpt><trkpt lat="43.5235458175721" lon="10.720066703645353"><ele>47.5</ele><time>2026-04-18T07:58:15Z</time></trkpt><trkpt lat="43.52347341058608" lon="10.720241375289339"><ele>46.75</ele><time>2026-04-18T07:58:16Z</time></trkpt><trkpt lat="43.52339701489656" lon="10.720406853944116"><ele>46.0</ele><time>2026-04-18T07:58:17Z</time></trkpt><trkpt lat="43.523346902493564" lon="10.720554304601537"><ele>46.0</ele><time>2026-04-18T07:58:18Z</time></trkpt><trkpt lat="43.523315388085535" lon="10.720721150560816"><ele>46.0</ele><time>2026-04-18T07:58:19Z</time></trkpt><trkpt lat="43.5232868862359" lon="10.720924500538498"><ele>46.0</ele><time>2026-04-18T07:58:20Z</time></trkpt><trkpt lat="43.523249438930044" lon="10.721111617250015"><ele>46.0</ele><time>2026-04-18T07:58:21Z</time></trkpt><trkpt lat="43.52320599785036" lon="10.721264365961458"><ele>46.0</ele><time>2026-04-18T07:58:22Z</time></trkpt><trkpt lat="43.52315499137374" lon="10.721404962056427"><ele>46.0</ele><time>2026-04-18T07:58:23Z</time></trkpt><trkpt lat="43.52309643319183" lon="10.721544297992"><ele>46.0</ele><time>2026-04-18T07:58:24Z</time></trkpt><trkpt lat="43.523031181239375" lon="10.721677664160552"><ele>46.0</ele><time>2026-04-18T07:58:25Z</time></trkpt><trkpt lat="43.522960895532584" lon="10.721812946165617"><ele>47.0</ele><time>2026-04-18T07:58:26Z</time></trkpt><trkpt lat="43.522883791324986" lon="10.721944782291384"><ele>48.0</ele><time>2026-04-18T07:58:27Z</time></trkpt><trkpt lat="43.522809918543736" lon="10.722075198628843"><ele>49.0</ele><time>2026-04-18T07:58:28Z</time></trkpt><trkpt lat="43.52274239071826" lon="10.722196857960048"><ele>50.0</ele><time>2026-04-18T07:58:29Z</time></trkpt><trkpt lat="43.52267370747923" lon="10.722306532052311"><ele>50.0</ele><time>2026-04-18T07:58:30Z</time></trkpt><trkpt lat="43.52259310319104" lon="10.722409036864667"><ele>50.0</ele><time>2026-04-18T07:58:31Z</time></trkpt><trkpt lat="43.52248960331184" lon="10.722520962048657"><ele>50.0</ele><time>2026-04-18T07:58:32Z</time></trkpt><trkpt lat="43.52239250284958" lon="10.72261848048855"><ele>50.0</ele><time>2026-04-18T07:58:33Z</time></trkpt><trkpt lat="43.522303045204545" lon="10.722710415125048"><ele>50.0</ele><time>2026-04-18T07:58:34Z</time></trkpt><trkpt lat="43.522207951332675" lon="10.722801837122407"><ele>50.0</ele><time>2026-04-18T07:58:35Z</time></trkpt><trkpt lat="43.52210744627923" lon="10.72288955777066"><ele>50.0</ele><time>2026-04-18T07:58:36Z</time></trkpt><trkpt lat="43.52201017003445" lon="10.722965050140086"><ele>50.0</ele><time>2026-04-18T07:58:37Z</time></trkpt><trkpt lat="43.52190552742542" lon="10.723045489107614"><ele>50.0</ele><time>2026-04-18T07:58:38Z</time></trkpt><trkpt lat="43.52180544563694" lon="10.72313249769082"><ele>50.0</ele><time>2026-04-18T07:58:39Z</time></trkpt><trkpt lat="43.521698783963544" lon="10.723229242176812"><ele>50.0</ele><time>2026-04-18T07:58:40Z</time></trkpt><trkpt lat="43.521596921662926" lon="10.723341276678699"><ele>50.0</ele><time>2026-04-18T07:58:41Z</time></trkpt><trkpt lat="43.52149302986241" lon="10.723470161554712"><ele>49.75</ele><time>2026-04-18T07:58:42Z</time></trkpt><trkpt lat="43.52140371634381" lon="10.723590434774184"><ele>49.5</ele><time>2026-04-18T07:58:43Z</time></trkpt><trkpt lat="43.521333794514376" lon="10.723709658107385"><ele>49.25</ele><time>2026-04-18T07:58:44Z</time></trkpt><trkpt lat="43.521263554611096" lon="10.723831382190179"><ele>49.0</ele><time>2026-04-18T07:58:45Z</time></trkpt><trkpt lat="43.52118836244786" lon="10.723975508299768"><ele>48.75</ele><time>2026-04-18T07:58:46Z</time></trkpt><trkpt lat="43.52112041949245" lon="10.724112117499242"><ele>48.5</ele><time>2026-04-18T07:58:47Z</time></trkpt><trkpt lat="43.5210560180558" lon="10.724229735310285"><ele>48.25</ele><time>2026-04-18T07:58:48Z</time></trkpt><trkpt lat="43.52097992260438" lon="10.724342995670092"><ele>48.0</ele><time>2026-04-18T07:58:49Z</time></trkpt><trkpt lat="43.520902063176074" lon="10.72445309333383"><ele>48.0</ele><time>2026-04-18T07:58:50Z</time></trkpt><trkpt lat="43.5208424983321" lon="10.724538839129059"><ele>48.0</ele><time>2026-04-18T07:58:51Z</time></trkpt><trkpt lat="43.52080195302529" lon="10.724613172477678"><ele>48.0</ele><time>2026-04-18T07:58:52Z</time></trkpt><trkpt lat="43.5207639670479" lon="10.724731734936835"><ele>48.0</ele><time>2026-04-18T07:58:54Z</time></trkpt><trkpt lat="43.52076592353954" lon="10.724824724696212"><ele>48.0</ele><time>2026-04-18T07:58:57Z</time></trkpt><trkpt lat="43.520767413726645" lon="10.724930917740618"><ele>48.0</ele><time>2026-04-18T07:59:18.001Z</time></trkpt><trkpt lat="43.52079211073072" lon="10.725147474958684"><ele>48.25</ele><time>2026-04-18T07:59:20.001Z</time></trkpt><trkpt lat="43.520794785483005" lon="10.725289620779352"><ele>48.5</ele><time>2026-04-18T07:59:21.001Z</time></trkpt><trkpt lat="43.52079706681503" lon="10.725455016153338"><ele>48.75</ele><time>2026-04-18T07:59:22.001Z</time></trkpt><trkpt lat="43.520802356824944" lon="10.72561692202197"><ele>49.0</ele><time>2026-04-18T07:59:23.001Z</time></trkpt><trkpt lat="43.52082620000691" lon="10.725777795274444"><ele>49.0</ele><time>2026-04-18T07:59:24.001Z</time></trkpt><trkpt lat="43.52086983333506" lon="10.725907947366457"><ele>49.0</ele><time>2026-04-18T07:59:25.001Z</time></trkpt><trkpt lat="43.52091268921051" lon="10.726062718691256"><ele>49.0</ele><time>2026-04-18T07:59:26.001Z</time></trkpt><trkpt lat="43.52098895530115" lon="10.72631344599051"><ele>49.0</ele><time>2026-04-18T07:59:28.001Z</time></trkpt><trkpt lat="43.52093706963816" lon="10.726402167544556"><ele>49.400000000000006</ele><time>2026-04-18T07:59:31.001Z</time></trkpt><trkpt lat="43.52087628106839" lon="10.726447531241535"><ele>49.8</ele><time>2026-04-18T07:59:32.001Z</time></trkpt><trkpt lat="43.52079011313727" lon="10.726512359789787"><ele>50.2</ele><time>2026-04-18T07:59:33.001Z</time></trkpt><trkpt lat="43.52071197801485" lon="10.726579393485824"><ele>50.599999999999994</ele><time>2026-04-18T07:59:34.001Z</time></trkpt><trkpt lat="43.52057220752878" lon="10.726618528296486"><ele>51.0</ele><time>2026-04-18T07:59:36.001Z</time></trkpt><trkpt lat="43.52047350944688" lon="10.726684943030918"><ele>51.0</ele><time>2026-04-18T07:59:37.001Z</time></trkpt><trkpt lat="43.520376368876455" lon="10.726760028159303"><ele>51.0</ele><time>2026-04-18T07:59:38.001Z</time></trkpt><trkpt lat="43.52026893912897" lon="10.726861139712708"><ele>51.0</ele><time>2026-04-18T07:59:39.001Z</time></trkpt><trkpt lat="43.52017393937897" lon="10.72694151453175"><ele>51.0</ele><time>2026-04-18T07:59:40.001Z</time></trkpt><trkpt lat="43.5200989172078" lon="10.727004136515081"><ele>51.0</ele><time>2026-04-18T07:59:41.001Z</time></trkpt><trkpt lat="43.5200191081885" lon="10.72708119374063"><ele>51.0</ele><time>2026-04-18T07:59:42.001Z</time></trkpt><trkpt lat="43.51993733628332" lon="10.727148231263232"><ele>51.0</ele><time>2026-04-18T07:59:43.001Z</time></trkpt><trkpt lat="43.51984717900474" lon="10.727223600963852"><ele>51.0</ele><time>2026-04-18T07:59:44.001Z</time></trkpt><trkpt lat="43.519759396088794" lon="10.72731010646886"><ele>51.0</ele><time>2026-04-18T07:59:45.001Z</time></trkpt><trkpt lat="43.51971126409965" lon="10.727378970268202"><ele>51.0</ele><time>2026-04-18T07:59:46.001Z</time></trkpt><trkpt lat="43.51966924292764" lon="10.72746502455749"><ele>51.0</ele><time>2026-04-18T07:59:48.001Z</time></trkpt><trkpt lat="43.519648839939045" lon="10.727558028364225"><ele>51.0</ele><time>2026-04-18T07:59:50.001Z</time></trkpt><trkpt lat="43.51963461278471" lon="10.727674708142047"><ele>51.0</ele><time>2026-04-18T07:59:52.001Z</time></trkpt><trkpt lat="43.519636812406674" lon="10.72782018066686"><ele>51.0</ele><time>2026-04-18T07:59:54.001Z</time></trkpt><trkpt lat="43.51964669032236" lon="10.727967831606655"><ele>51.0</ele><time>2026-04-18T07:59:56.001Z</time></trkpt><trkpt lat="43.51963719044292" lon="10.728096040074758"><ele>52.0</ele><time>2026-04-18T07:59:57.001Z</time></trkpt><trkpt lat="43.51962798829863" lon="10.728233835417589"><ele>53.0</ele><time>2026-04-18T07:59:58.001Z</time></trkpt><trkpt lat="43.51961571168809" lon="10.728354577231109"><ele>53.99999999999999</ele><time>2026-04-18T07:59:59.001Z</time></trkpt><trkpt lat="43.51961110234442" lon="10.728475241538654"><ele>55.0</ele><time>2026-04-18T08:00:00.001Z</time></trkpt><trkpt lat="43.51959853737417" lon="10.72856712029449"><ele>56.0</ele><time>2026-04-18T08:00:01.001Z</time></trkpt><trkpt lat="43.51958516951086" lon="10.728715793497306"><ele>56.66666666666667</ele><time>2026-04-18T08:00:03Z</time></trkpt><trkpt lat="43.519599610392646" lon="10.728823107688841"><ele>57.333333333333336</ele><time>2026-04-18T08:00:04Z</time></trkpt><trkpt lat="43.51962210633556" lon="10.728958077399275"><ele>58.0</ele><time>2026-04-18T08:00:05.001Z</time></trkpt><trkpt lat="43.51963680910127" lon="10.72908211231752"><ele>58.66666666666667</ele><time>2026-04-18T08:00:06.001Z</time></trkpt><trkpt lat="43.51965379499975" lon="10.729202081777498"><ele>59.333333333333336</ele><time>2026-04-18T08:00:07.001Z</time></trkpt><trkpt lat="43.51966473077145" lon="10.729307040899267"><ele>60.0</ele><time>2026-04-18T08:00:08.001Z</time></trkpt><trkpt lat="43.51967601902031" lon="10.729409605517956"><ele>60.333333333333336</ele><time>2026-04-18T08:00:09.001Z</time></trkpt><trkpt lat="43.51968971746706" lon="10.729500136995302"><ele>60.66666666666667</ele><time>2026-04-18T08:00:10.001Z</time></trkpt><trkpt lat="43.5197058614112" lon="10.729593211100882"><ele>61.0</ele><time>2026-04-18T08:00:11.001Z</time></trkpt><trkpt lat="43.519708120705246" lon="10.729688230939836"><ele>61.333333333333336</ele><time>2026-04-18T08:00:12Z</time></trkpt><trkpt lat="43.51967771935732" lon="10.729791901800695"><ele>61.66666666666667</ele><time>2026-04-18T08:00:13Z</time></trkpt><trkpt lat="43.51964863481469" lon="10.729896788923051"><ele>62.0</ele><time>2026-04-18T08:00:14Z</time></trkpt><trkpt lat="43.5195991952227" lon="10.730042393257982"><ele>62.0</ele><time>2026-04-18T08:00:16Z</time></trkpt><trkpt lat="43.51957215358006" lon="10.730121519424548"><ele>62.0</ele><time>2026-04-18T08:00:17Z</time></trkpt><trkpt lat="43.51957516583522" lon="10.730271705002924"><ele>62.0</ele><time>2026-04-18T08:00:19Z</time></trkpt><trkpt lat="43.519623059910096" lon="10.730407462812275"><ele>62.0</ele><time>2026-04-18T08:00:21Z</time></trkpt><trkpt lat="43.51963311974733" lon="10.73060791995553"><ele>62.0</ele><time>2026-04-18T08:00:23Z</time></trkpt><trkpt lat="43.519640137340524" lon="10.730717070194595"><ele>63.0</ele><time>2026-04-18T08:00:24Z</time></trkpt><trkpt lat="43.51965003307552" lon="10.730822792313651"><ele>64.0</ele><time>2026-04-18T08:00:25Z</time></trkpt><trkpt lat="43.519667830234106" lon="10.730988224857972"><ele>65.0</ele><time>2026-04-18T08:00:27Z</time></trkpt><trkpt lat="43.51966747252297" lon="10.731079916163107"><ele>66.0</ele><time>2026-04-18T08:00:28Z</time></trkpt><trkpt lat="43.51966860555937" lon="10.731244846959578"><ele>67.0</ele><time>2026-04-18T08:00:29Z</time></trkpt><trkpt lat="43.51967315539294" lon="10.73134382140973"><ele>69.0</ele><time>2026-04-18T08:00:30Z</time></trkpt><trkpt lat="43.51969601033555" lon="10.731473088842423"><ele>71.0</ele><time>2026-04-18T08:00:32Z</time></trkpt><trkpt lat="43.51970306196551" lon="10.73160005328047"><ele>73.0</ele><time>2026-04-18T08:00:34Z</time></trkpt><trkpt lat="43.519737102008534" lon="10.731728299103402"><ele>75.0</ele><time>2026-04-18T08:00:36Z</time></trkpt><trkpt lat="43.5197511807279" lon="10.731815177309333"><ele>77.0</ele><time>2026-04-18T08:00:37Z</time></trkpt><trkpt lat="43.519777917006444" lon="10.731924061167046"><ele>79.0</ele><time>2026-04-18T08:00:38Z</time></trkpt><trkpt lat="43.519811096254834" lon="10.732041563062477"><ele>80.4</ele><time>2026-04-18T08:00:39Z</time></trkpt><trkpt lat="43.519833307804475" lon="10.73213787847876"><ele>81.80000000000001</ele><time>2026-04-18T08:00:40Z</time></trkpt><trkpt lat="43.519866197863834" lon="10.732305338442421"><ele>83.19999999999999</ele><time>2026-04-18T08:00:42.001Z</time></trkpt><trkpt lat="43.519868327462056" lon="10.732418097189164"><ele>84.6</ele><time>2026-04-18T08:00:43.001Z</time></trkpt><trkpt lat="43.51986481108152" lon="10.73254628281517"><ele>86.0</ele><time>2026-04-18T08:00:44.001Z</time></trkpt><trkpt lat="43.519852539604784" lon="10.732650996454142"><ele>87.66666666666667</ele><time>2026-04-18T08:00:45.001Z</time></trkpt><trkpt lat="43.519832366700776" lon="10.732750966318747"><ele>89.33333333333334</ele><time>2026-04-18T08:00:46.001Z</time></trkpt><trkpt lat="43.51983091852579" lon="10.732841089003541"><ele>91.0</ele><time>2026-04-18T08:00:47.001Z</time></trkpt><trkpt lat="43.51984028317" lon="10.732940964872935"><ele>92.66666666666667</ele><time>2026-04-18T08:00:48.001Z</time></trkpt><trkpt lat="43.519855360874125" lon="10.733061299568938"><ele>94.33333333333333</ele><time>2026-04-18T08:00:49.001Z</time></trkpt><trkpt lat="43.519868426325445" lon="10.733177060651558"><ele>96.0</ele><time>2026-04-18T08:00:50.001Z</time></trkpt><trkpt lat="43.51987087477256" lon="10.73329705073682"><ele>96.0</ele><time>2026-04-18T08:00:51.001Z</time></trkpt><trkpt lat="43.51987753135806" lon="10.733408514284521"><ele>96.0</ele><time>2026-04-18T08:00:52.001Z</time></trkpt><trkpt lat="43.519882245910665" lon="10.733508009567588"><ele>96.0</ele><time>2026-04-18T08:00:53.001Z</time></trkpt><trkpt lat="43.51987356623474" lon="10.733605985927783"><ele>96.0</ele><time>2026-04-18T08:00:54.001Z</time></trkpt><trkpt lat="43.519851068468064" lon="10.733710685532559"><ele>96.0</ele><time>2026-04-18T08:00:55.001Z</time></trkpt><trkpt lat="43.51983251073734" lon="10.733824663445182"><ele>96.0</ele><time>2026-04-18T08:00:56.001Z</time></trkpt><trkpt lat="43.51982101599081" lon="10.733980631282233"><ele>96.4</ele><time>2026-04-18T08:00:57.001Z</time></trkpt><trkpt lat="43.51981141265099" lon="10.734111630025476"><ele>96.8</ele><time>2026-04-18T08:00:58.001Z</time></trkpt><trkpt lat="43.51980909180494" lon="10.73421335664211"><ele>97.2</ele><time>2026-04-18T08:00:59.001Z</time></trkpt><trkpt lat="43.519819098666375" lon="10.73434080793986"><ele>97.60000000000001</ele><time>2026-04-18T08:01:01.001Z</time></trkpt><trkpt lat="43.519897506357026" lon="10.73440075491228"><ele>98.0</ele><time>2026-04-18T08:01:03.001Z</time></trkpt><trkpt lat="43.51999179794257" lon="10.734449566795726"><ele>98.0</ele><time>2026-04-18T08:01:05.001Z</time></trkpt><trkpt lat="43.52009015586019" lon="10.734516979661159"><ele>98.0</ele><time>2026-04-18T08:01:07.001Z</time></trkpt><trkpt lat="43.520158280260574" lon="10.734569558337641"><ele>98.0</ele><time>2026-04-18T08:01:09.001Z</time></trkpt><trkpt lat="43.52023981080958" lon="10.734638703446048"><ele>98.0</ele><time>2026-04-18T08:01:17.001Z</time></trkpt><trkpt lat="43.52035391322087" lon="10.73473543473728"><ele>98.0</ele><time>2026-04-18T08:01:19.001Z</time></trkpt><trkpt lat="43.52043107774614" lon="10.734801278830826"><ele>100.33333333333333</ele><time>2026-04-18T08:01:20.001Z</time></trkpt><trkpt lat="43.52051078980917" lon="10.734874346128786"><ele>102.66666666666666</ele><time>2026-04-18T08:01:21.001Z</time></trkpt><trkpt lat="43.520587178080795" lon="10.734951311430631"><ele>105.0</ele><time>2026-04-18T08:01:22.001Z</time></trkpt><trkpt lat="43.52065999229274" lon="10.735035171504327"><ele>107.33333333333334</ele><time>2026-04-18T08:01:23.001Z</time></trkpt><trkpt lat="43.520703140995515" lon="10.735106042852294"><ele>109.66666666666667</ele><time>2026-04-18T08:01:24.001Z</time></trkpt><trkpt lat="43.52072662039377" lon="10.73520040356879"><ele>112.0</ele><time>2026-04-18T08:01:25.001Z</time></trkpt><trkpt lat="43.52074083657702" lon="10.73530823064036"><ele>112.42857142857143</ele><time>2026-04-18T08:01:26.001Z</time></trkpt><trkpt lat="43.520768431176414" lon="10.735420503428106"><ele>112.85714285714286</ele><time>2026-04-18T08:01:27.001Z</time></trkpt><trkpt lat="43.52080568756014" lon="10.735511006952548"><ele>113.28571428571428</ele><time>2026-04-18T08:01:28.001Z</time></trkpt><trkpt lat="43.52086206931404" lon="10.735581120487021"><ele>113.71428571428571</ele><time>2026-04-18T08:01:29.001Z</time></trkpt><trkpt lat="43.52091790095853" lon="10.735648503795645"><ele>114.14285714285714</ele><time>2026-04-18T08:01:30.001Z</time></trkpt><trkpt lat="43.5209640511641" lon="10.735708609932852"><ele>114.57142857142856</ele><time>2026-04-18T08:01:31.001Z</time></trkpt><trkpt lat="43.521014733779914" lon="10.735773659424988"><ele>114.99999999999999</ele><time>2026-04-18T08:01:32.001Z</time></trkpt><trkpt lat="43.52107416099841" lon="10.735856880809203"><ele>115.00000000000001</ele><time>2026-04-18T08:01:33.001Z</time></trkpt><trkpt lat="43.52114004070147" lon="10.735913985319431"><ele>115.0</ele><time>2026-04-18T08:01:34.001Z</time></trkpt><trkpt lat="43.521205500354725" lon="10.735963359517987"><ele>115.0</ele><time>2026-04-18T08:01:35.001Z</time></trkpt><trkpt lat="43.52126698480186" lon="10.735998725301478"><ele>115.0</ele><time>2026-04-18T08:01:36.001Z</time></trkpt><trkpt lat="43.5213651519091" lon="10.736113006337328"><ele>115.00000000000001</ele><time>2026-04-18T08:01:38.001Z</time></trkpt><trkpt lat="43.52143141708774" lon="10.73618424740294"><ele>115.0</ele><time>2026-04-18T08:01:39.001Z</time></trkpt><trkpt lat="43.521510642802795" lon="10.736266218405131"><ele>119.75</ele><time>2026-04-18T08:01:40.001Z</time></trkpt><trkpt lat="43.52158898983679" lon="10.736363199177399"><ele>124.5</ele><time>2026-04-18T08:01:41.001Z</time></trkpt><trkpt lat="43.52166642908931" lon="10.736457730027062"><ele>129.25</ele><time>2026-04-18T08:01:42.001Z</time></trkpt><trkpt lat="43.521693984428545" lon="10.736655223464506"><ele>134.0</ele><time>2026-04-18T08:01:44.001Z</time></trkpt><trkpt lat="43.52179398422374" lon="10.736746092852902"><ele>134.0</ele><time>2026-04-18T08:01:46.001Z</time></trkpt><trkpt lat="43.52186640585978" lon="10.736819243159072"><ele>134.0</ele><time>2026-04-18T08:01:47.001Z</time></trkpt><trkpt lat="43.52194844087313" lon="10.7369050401743"><ele>134.0</ele><time>2026-04-18T08:01:48.001Z</time></trkpt><trkpt lat="43.52203075446892" lon="10.736983786857952"><ele>134.0</ele><time>2026-04-18T08:01:49.001Z</time></trkpt><trkpt lat="43.52207990369133" lon="10.737054875258425"><ele>134.0</ele><time>2026-04-18T08:01:50.001Z</time></trkpt><trkpt lat="43.52212652828692" lon="10.737133301456456"><ele>134.0</ele><time>2026-04-18T08:01:52.001Z</time></trkpt><trkpt lat="43.52208656222457" lon="10.737318629727886"><ele>133.6</ele><time>2026-04-18T08:01:55.001Z</time></trkpt><trkpt lat="43.52207630051804" lon="10.737432659567641"><ele>133.2</ele><time>2026-04-18T08:01:56.001Z</time></trkpt><trkpt lat="43.522042693376314" lon="10.73754551605402"><ele>132.79999999999998</ele><time>2026-04-18T08:01:57.001Z</time></trkpt><trkpt lat="43.52199809203425" lon="10.737670609135755"><ele>132.4</ele><time>2026-04-18T08:01:58.001Z</time></trkpt><trkpt lat="43.52193855637095" lon="10.737790922485596"><ele>132.0</ele><time>2026-04-18T08:01:59.001Z</time></trkpt><trkpt lat="43.52185943172279" lon="10.737900838569974"><ele>134.0</ele><time>2026-04-18T08:02:00.001Z</time></trkpt><trkpt lat="43.52177820385613" lon="10.737984705321558"><ele>136.0</ele><time>2026-04-18T08:02:01.001Z</time></trkpt><trkpt lat="43.52171664271724" lon="10.738043348792885"><ele>138.0</ele><time>2026-04-18T08:02:02.001Z</time></trkpt><trkpt lat="43.52165207638598" lon="10.738088834976558"><ele>140.0</ele><time>2026-04-18T08:02:04.001Z</time></trkpt><trkpt lat="43.52170575454964" lon="10.73821901443134"><ele>142.0</ele><time>2026-04-18T08:02:05.001Z</time></trkpt><trkpt lat="43.52173341682456" lon="10.738339547572446"><ele>144.0</ele><time>2026-04-18T08:02:07.001Z</time></trkpt><trkpt lat="43.52176012456175" lon="10.738512990415007"><ele>144.0</ele><time>2026-04-18T08:02:09Z</time></trkpt><trkpt lat="43.521786926288996" lon="10.738643799293826"><ele>144.0</ele><time>2026-04-18T08:02:10Z</time></trkpt><trkpt lat="43.52181050080885" lon="10.738771047471456"><ele>144.0</ele><time>2026-04-18T08:02:11Z</time></trkpt><trkpt lat="43.52183748826925" lon="10.738897162600702"><ele>144.0</ele><time>2026-04-18T08:02:12Z</time></trkpt><trkpt lat="43.52187386117194" lon="10.739026760984164"><ele>144.0</ele><time>2026-04-18T08:02:13Z</time></trkpt><trkpt lat="43.52192537395906" lon="10.739168464183887"><ele>144.0</ele><time>2026-04-18T08:02:14Z</time></trkpt><trkpt lat="43.52197675006279" lon="10.739318496510439"><ele>144.0</ele><time>2026-04-18T08:02:15Z</time></trkpt><trkpt lat="43.52203817090451" lon="10.739473043278654"><ele>144.0</ele><time>2026-04-18T08:02:16Z</time></trkpt><trkpt lat="43.52209059906617" lon="10.739626624908617"><ele>144.0</ele><time>2026-04-18T08:02:17Z</time></trkpt><trkpt lat="43.522139824187086" lon="10.739770471760496"><ele>147.0</ele><time>2026-04-18T08:02:18Z</time></trkpt><trkpt lat="43.52219423559833" lon="10.739913458834188"><ele>150.0</ele><time>2026-04-18T08:02:19Z</time></trkpt><trkpt lat="43.52225703408474" lon="10.740067553588107"><ele>153.0</ele><time>2026-04-18T08:02:20Z</time></trkpt><trkpt lat="43.52232122738719" lon="10.74022842684237"><ele>156.0</ele><time>2026-04-18T08:02:21Z</time></trkpt><trkpt lat="43.522384441222336" lon="10.74038647874871"><ele>156.4</ele><time>2026-04-18T08:02:22Z</time></trkpt><trkpt lat="43.52244114593671" lon="10.740524441133982"><ele>156.8</ele><time>2026-04-18T08:02:23Z</time></trkpt><trkpt lat="43.522490158252296" lon="10.74064643914158"><ele>157.20000000000002</ele><time>2026-04-18T08:02:24Z</time></trkpt><trkpt lat="43.52254713327995" lon="10.740774026259613"><ele>157.6</ele><time>2026-04-18T08:02:25Z</time></trkpt><trkpt lat="43.52261490498152" lon="10.740912141920385"><ele>158.0</ele><time>2026-04-18T08:02:26Z</time></trkpt><trkpt lat="43.52269767080063" lon="10.741063081239716"><ele>158.0</ele><time>2026-04-18T08:02:27Z</time></trkpt><trkpt lat="43.522776293788695" lon="10.741213106548456"><ele>158.0</ele><time>2026-04-18T08:02:28Z</time></trkpt><trkpt lat="43.52286524384752" lon="10.741346099584863"><ele>158.0</ele><time>2026-04-18T08:02:29Z</time></trkpt><trkpt lat="43.522973869528705" lon="10.741472344732813"><ele>158.0</ele><time>2026-04-18T08:02:30Z</time></trkpt><trkpt lat="43.52310191179721" lon="10.741585498432483"><ele>158.25</ele><time>2026-04-18T08:02:31Z</time></trkpt><trkpt lat="43.5232332637982" lon="10.74169212969508"><ele>158.5</ele><time>2026-04-18T08:02:32Z</time></trkpt><trkpt lat="43.52333911239248" lon="10.741795240981281"><ele>158.75</ele><time>2026-04-18T08:02:33Z</time></trkpt><trkpt lat="43.52343643973289" lon="10.741888892926521"><ele>159.0</ele><time>2026-04-18T08:02:34Z</time></trkpt><trkpt lat="43.52352158143017" lon="10.741964436644665"><ele>159.6</ele><time>2026-04-18T08:02:35Z</time></trkpt><trkpt lat="43.52360093102823" lon="10.742015790300872"><ele>160.2</ele><time>2026-04-18T08:02:36Z</time></trkpt><trkpt lat="43.52369287837166" lon="10.74204529328073"><ele>160.79999999999998</ele><time>2026-04-18T08:02:37Z</time></trkpt><trkpt lat="43.523789664050334" lon="10.742050901040983"><ele>161.4</ele><time>2026-04-18T08:02:38Z</time></trkpt><trkpt lat="43.523899014036886" lon="10.741979739016235"><ele>162.0</ele><time>2026-04-18T08:02:39Z</time></trkpt><trkpt lat="43.524022091900655" lon="10.74192617841532"><ele>162.75</ele><time>2026-04-18T08:02:40Z</time></trkpt><trkpt lat="43.52414984126091" lon="10.741878167455095"><ele>163.5</ele><time>2026-04-18T08:02:41Z</time></trkpt><trkpt lat="43.52429072929051" lon="10.74182385532126"><ele>164.25</ele><time>2026-04-18T08:02:42Z</time></trkpt><trkpt lat="43.52441471546273" lon="10.741775077069162"><ele>165.0</ele><time>2026-04-18T08:02:43Z</time></trkpt><trkpt lat="43.5245224373338" lon="10.741771185829027"><ele>166.4</ele><time>2026-04-18T08:02:44Z</time></trkpt><trkpt lat="43.5246204802474" lon="10.7417730419696"><ele>167.8</ele><time>2026-04-18T08:02:45Z</time></trkpt><trkpt lat="43.524720120435276" lon="10.741793787058176"><ele>169.2</ele><time>2026-04-18T08:02:46Z</time></trkpt><trkpt lat="43.5248289965988" lon="10.741823494767539"><ele>170.6</ele><time>2026-04-18T08:02:47Z</time></trkpt><trkpt lat="43.5249467896608" lon="10.741827134404309"><ele>172.0</ele><time>2026-04-18T08:02:48Z</time></trkpt><trkpt lat="43.52507545143702" lon="10.741812861927535"><ele>172.0</ele><time>2026-04-18T08:02:49Z</time></trkpt><trkpt lat="43.52520987641425" lon="10.74178327970295"><ele>172.0</ele><time>2026-04-18T08:02:50Z</time></trkpt><trkpt lat="43.52534637393116" lon="10.7417339100902"><ele>172.0</ele><time>2026-04-18T08:02:51.001Z</time></trkpt><trkpt lat="43.52547129445859" lon="10.74166023848352"><ele>172.0</ele><time>2026-04-18T08:02:52.001Z</time></trkpt><trkpt lat="43.525582021471976" lon="10.741545876647168"><ele>171.39999999999998</ele><time>2026-04-18T08:02:53.001Z</time></trkpt><trkpt lat="43.525697265776955" lon="10.741471111896537"><ele>170.79999999999998</ele><time>2026-04-18T08:02:54.001Z</time></trkpt><trkpt lat="43.52578935869437" lon="10.741369069880978"><ele>170.2</ele><time>2026-04-18T08:02:55.001Z</time></trkpt><trkpt lat="43.525866848072205" lon="10.741300273861242"><ele>169.6</ele><time>2026-04-18T08:02:56.001Z</time></trkpt><trkpt lat="43.52594217658823" lon="10.741246508145778"><ele>169.0</ele><time>2026-04-18T08:02:58.001Z</time></trkpt><trkpt lat="43.52597969995047" lon="10.741387717567777"><ele>169.0</ele><time>2026-04-18T08:03:01.001Z</time></trkpt><trkpt lat="43.52602979532595" lon="10.741453087606036"><ele>169.0</ele><time>2026-04-18T08:03:02.001Z</time></trkpt><trkpt lat="43.52608712856108" lon="10.741535554258824"><ele>169.0</ele><time>2026-04-18T08:03:03.001Z</time></trkpt><trkpt lat="43.52617463996495" lon="10.741635429845322"><ele>169.0</ele><time>2026-04-18T08:03:04.001Z</time></trkpt><trkpt lat="43.52625703653454" lon="10.74172960671289"><ele>169.0</ele><time>2026-04-18T08:03:05.001Z</time></trkpt><trkpt lat="43.526337657694896" lon="10.741828357793855"><ele>169.5</ele><time>2026-04-18T08:03:06.001Z</time></trkpt><trkpt lat="43.52641405874786" lon="10.741936631253658"><ele>170.0</ele><time>2026-04-18T08:03:07.001Z</time></trkpt><trkpt lat="43.526498418278706" lon="10.742050274694392"><ele>170.5</ele><time>2026-04-18T08:03:08.001Z</time></trkpt><trkpt lat="43.52658911573113" lon="10.742174739711857"><ele>171.0</ele><time>2026-04-18T08:03:09.001Z</time></trkpt><trkpt lat="43.52668691779669" lon="10.742289913215583"><ele>171.0</ele><time>2026-04-18T08:03:10.001Z</time></trkpt><trkpt lat="43.526761199927286" lon="10.742432673741842"><ele>171.0</ele><time>2026-04-18T08:03:11.001Z</time></trkpt><trkpt lat="43.52685101984363" lon="10.742566300131285"><ele>171.0</ele><time>2026-04-18T08:03:12.001Z</time></trkpt><trkpt lat="43.52693236998401" lon="10.742713400768965"><ele>171.0</ele><time>2026-04-18T08:03:13.001Z</time></trkpt><trkpt lat="43.52698805387759" lon="10.74287699883767"><ele>171.0</ele><time>2026-04-18T08:03:14.001Z</time></trkpt><trkpt lat="43.52703207184032" lon="10.743030671101907"><ele>171.0</ele><time>2026-04-18T08:03:15.001Z</time></trkpt><trkpt lat="43.52708314972744" lon="10.743173386035041"><ele>171.0</ele><time>2026-04-18T08:03:16.001Z</time></trkpt><trkpt lat="43.527116557015695" lon="10.74332241804239"><ele>171.0</ele><time>2026-04-18T08:03:17.001Z</time></trkpt><trkpt lat="43.52715026634077" lon="10.74344299918863"><ele>171.0</ele><time>2026-04-18T08:03:18.001Z</time></trkpt><trkpt lat="43.527181113581584" lon="10.743559359191106"><ele>171.0</ele><time>2026-04-18T08:03:19.001Z</time></trkpt><trkpt lat="43.52722452744387" lon="10.743674088891703"><ele>171.0</ele><time>2026-04-18T08:03:20.001Z</time></trkpt><trkpt lat="43.527245729630124" lon="10.74381661544792"><ele>171.0</ele><time>2026-04-18T08:03:21.001Z</time></trkpt><trkpt lat="43.52726290559888" lon="10.7439436094748"><ele>171.0</ele><time>2026-04-18T08:03:22.001Z</time></trkpt><trkpt lat="43.527288800677276" lon="10.74403677917286"><ele>171.0</ele><time>2026-04-18T08:03:23.001Z</time></trkpt><trkpt lat="43.52734060649185" lon="10.744123984859892"><ele>171.0</ele><time>2026-04-18T08:03:24.001Z</time></trkpt><trkpt lat="43.52739262811042" lon="10.744187328831071"><ele>171.0</ele><time>2026-04-18T08:03:25.001Z</time></trkpt><trkpt lat="43.52744603332257" lon="10.744249152946123"><ele>171.0</ele><time>2026-04-18T08:03:26.001Z</time></trkpt><trkpt lat="43.52751913738692" lon="10.744299850844426"><ele>171.0</ele><time>2026-04-18T08:03:27.001Z</time></trkpt><trkpt lat="43.52758655655341" lon="10.744329074147966"><ele>171.0</ele><time>2026-04-18T08:03:28.001Z</time></trkpt><trkpt lat="43.52766189361764" lon="10.74434784357072"><ele>171.0</ele><time>2026-04-18T08:03:29.001Z</time></trkpt><trkpt lat="43.52774272793004" lon="10.744394287965605"><ele>171.0</ele><time>2026-04-18T08:03:30.001Z</time></trkpt><trkpt lat="43.52781938281566" lon="10.744447356856167"><ele>169.8</ele><time>2026-04-18T08:03:31.001Z</time></trkpt><trkpt lat="43.52789556090442" lon="10.74450206135299"><ele>168.60000000000002</ele><time>2026-04-18T08:03:32.001Z</time></trkpt><trkpt lat="43.527979724729136" lon="10.744549316830922"><ele>167.4</ele><time>2026-04-18T08:03:33.001Z</time></trkpt><trkpt lat="43.52805640310911" lon="10.744602347732524"><ele>166.2</ele><time>2026-04-18T08:03:34.001Z</time></trkpt><trkpt lat="43.52815047211787" lon="10.744716627311567"><ele>165.0</ele><time>2026-04-18T08:03:36.001Z</time></trkpt><trkpt lat="43.52820001315332" lon="10.744789849776671"><ele>165.0</ele><time>2026-04-18T08:03:37.001Z</time></trkpt><trkpt lat="43.528250346293525" lon="10.74490161477713"><ele>165.0</ele><time>2026-04-18T08:03:38.001Z</time></trkpt><trkpt lat="43.52827625403382" lon="10.745049525724648"><ele>165.0</ele><time>2026-04-18T08:03:39.001Z</time></trkpt><trkpt lat="43.52834464256863" lon="10.745200153727252"><ele>165.0</ele><time>2026-04-18T08:03:40.001Z</time></trkpt><trkpt lat="43.52841271482329" lon="10.745305048007426"><ele>165.0</ele><time>2026-04-18T08:03:41.001Z</time></trkpt><trkpt lat="43.52846134258773" lon="10.745397471994474"><ele>163.6</ele><time>2026-04-18T08:03:42.001Z</time></trkpt><trkpt lat="43.52849759879672" lon="10.745484401347204"><ele>162.2</ele><time>2026-04-18T08:03:44.001Z</time></trkpt><trkpt lat="43.528609792770105" lon="10.745460641113363"><ele>160.8</ele><time>2026-04-18T08:03:52.001Z</time></trkpt><trkpt lat="43.52851768857404" lon="10.745486815658563"><ele>159.4</ele><time>2026-04-18T08:03:53.001Z</time></trkpt><trkpt lat="43.52863651014271" lon="10.745391912367745"><ele>158.0</ele><time>2026-04-18T08:03:54.001Z</time></trkpt><trkpt lat="43.5286795415402" lon="10.745317642293534"><ele>158.0</ele><time>2026-04-18T08:04:04.001Z</time></trkpt><trkpt lat="43.52879969858791" lon="10.745264952633079"><ele>158.0</ele><time>2026-04-18T08:04:07.001Z</time></trkpt><trkpt lat="43.52888191380388" lon="10.745276269741089"><ele>158.0</ele><time>2026-04-18T08:04:08.001Z</time></trkpt><trkpt lat="43.52896148218576" lon="10.745266701399432"><ele>158.0</ele><time>2026-04-18T08:04:09.001Z</time></trkpt><trkpt lat="43.529031370284294" lon="10.745257502280577"><ele>158.0</ele><time>2026-04-18T08:04:10.001Z</time></trkpt><trkpt lat="43.52911793527702" lon="10.745239683791656"><ele>158.0</ele><time>2026-04-18T08:04:12.001Z</time></trkpt><trkpt lat="43.52920364407843" lon="10.74521071537866"><ele>158.0</ele><time>2026-04-18T08:04:14.001Z</time></trkpt><trkpt lat="43.5292875635933" lon="10.745179737029394"><ele>158.0</ele><time>2026-04-18T08:04:16Z</time></trkpt><trkpt lat="43.52935055348516" lon="10.745166024862224"><ele>158.0</ele><time>2026-04-18T08:04:18Z</time></trkpt><trkpt lat="43.52942157736491" lon="10.745190545053559"><ele>158.0</ele><time>2026-04-18T08:04:22Z</time></trkpt><trkpt lat="43.52951154194319" lon="10.745240556496205"><ele>158.0</ele><time>2026-04-18T08:04:25Z</time></trkpt><trkpt lat="43.52961203076825" lon="10.745294266926402"><ele>158.0</ele><time>2026-04-18T08:04:27Z</time></trkpt><trkpt lat="43.529715780860904" lon="10.745302103222707"><ele>157.8</ele><time>2026-04-18T08:04:29Z</time></trkpt><trkpt lat="43.529811537202974" lon="10.745325874002043"><ele>157.60000000000002</ele><time>2026-04-18T08:04:32Z</time></trkpt><trkpt lat="43.52989322760745" lon="10.745303734959895"><ele>157.39999999999998</ele><time>2026-04-18T08:04:33Z</time></trkpt><trkpt lat="43.53000340174619" lon="10.745246436907095"><ele>157.2</ele><time>2026-04-18T08:04:34Z</time></trkpt><trkpt lat="43.53011159963042" lon="10.745178787763484"><ele>157.0</ele><time>2026-04-18T08:04:35Z</time></trkpt><trkpt lat="43.530199894810586" lon="10.745104971752495"><ele>156.83333333333334</ele><time>2026-04-18T08:04:36Z</time></trkpt><trkpt lat="43.53028748394836" lon="10.745013391302848"><ele>156.66666666666669</ele><time>2026-04-18T08:04:37Z</time></trkpt><trkpt lat="43.53035675356304" lon="10.74492143450071"><ele>156.5</ele><time>2026-04-18T08:04:38Z</time></trkpt><trkpt lat="43.530403453131804" lon="10.744859048413042"><ele>156.33333333333334</ele><time>2026-04-18T08:04:39Z</time></trkpt><trkpt lat="43.530468696182716" lon="10.744803041696173"><ele>156.16666666666666</ele><time>2026-04-18T08:04:40Z</time></trkpt><trkpt lat="43.53053963227007" lon="10.744775405925834"><ele>156.0</ele><time>2026-04-18T08:04:41Z</time></trkpt><trkpt lat="43.53062585258986" lon="10.744762135245942"><ele>156.0</ele><time>2026-04-18T08:04:42Z</time></trkpt><trkpt lat="43.53070693440452" lon="10.744730479192649"><ele>156.0</ele><time>2026-04-18T08:04:43Z</time></trkpt><trkpt lat="43.53077622135435" lon="10.744680887831349"><ele>156.0</ele><time>2026-04-18T08:04:44Z</time></trkpt><trkpt lat="43.530828345374736" lon="10.7446137417586"><ele>156.0</ele><time>2026-04-18T08:04:45Z</time></trkpt><trkpt lat="43.53087363291948" lon="10.744542872272"><ele>156.0</ele><time>2026-04-18T08:04:46Z</time></trkpt><trkpt lat="43.53092038455215" lon="10.744444020365941"><ele>156.0</ele><time>2026-04-18T08:04:47Z</time></trkpt><trkpt lat="43.53093620324687" lon="10.744329225711812"><ele>156.0</ele><time>2026-04-18T08:04:48Z</time></trkpt><trkpt lat="43.53095001206337" lon="10.744221375957801"><ele>156.0</ele><time>2026-04-18T08:04:49Z</time></trkpt><trkpt lat="43.53096468912309" lon="10.74410703429991"><ele>156.0</ele><time>2026-04-18T08:04:50Z</time></trkpt><trkpt lat="43.53097476999755" lon="10.744006190508886"><ele>156.0</ele><time>2026-04-18T08:04:51Z</time></trkpt><trkpt lat="43.530980039053446" lon="10.743888174185487"><ele>156.0</ele><time>2026-04-18T08:04:52Z</time></trkpt><trkpt lat="43.53095656513494" lon="10.7437575221665"><ele>156.0</ele><time>2026-04-18T08:04:53Z</time></trkpt><trkpt lat="43.53093795088443" lon="10.743646991626015"><ele>157.2</ele><time>2026-04-18T08:04:54Z</time></trkpt><trkpt lat="43.53093726059223" lon="10.74354409310308"><ele>158.39999999999998</ele><time>2026-04-18T08:04:55Z</time></trkpt><trkpt lat="43.53091221687" lon="10.7434209418148"><ele>159.6</ele><time>2026-04-18T08:04:56Z</time></trkpt><trkpt lat="43.530884637251646" lon="10.74328803567203"><ele>160.79999999999998</ele><time>2026-04-18T08:04:57Z</time></trkpt><trkpt lat="43.530866708741925" lon="10.743142958012674"><ele>162.0</ele><time>2026-04-18T08:04:58Z</time></trkpt><trkpt lat="43.5308521645298" lon="10.743020848251284"><ele>162.0</ele><time>2026-04-18T08:04:59Z</time></trkpt><trkpt lat="43.53084411349126" lon="10.742921310937534"><ele>162.0</ele><time>2026-04-18T08:05:00Z</time></trkpt><trkpt lat="43.53085729168606" lon="10.74282820379972"><ele>162.0</ele><time>2026-04-18T08:05:01Z</time></trkpt><trkpt lat="43.5309083189737" lon="10.74265822008238"><ele>162.0</ele><time>2026-04-18T08:05:03Z</time></trkpt><trkpt lat="43.530961039449146" lon="10.74254042181743"><ele>162.0</ele><time>2026-04-18T08:05:05Z</time></trkpt><trkpt lat="43.530935610468426" lon="10.742437635952257"><ele>162.8</ele><time>2026-04-18T08:05:06Z</time></trkpt><trkpt lat="43.530896387966855" lon="10.742308973454932"><ele>163.6</ele><time>2026-04-18T08:05:08Z</time></trkpt><trkpt lat="43.530873974926294" lon="10.742209241103984"><ele>164.4</ele><time>2026-04-18T08:05:10.001Z</time></trkpt><trkpt lat="43.53084723227668" lon="10.742116827067996"><ele>165.20000000000002</ele><time>2026-04-18T08:05:25.001Z</time></trkpt><trkpt lat="43.53080322325777" lon="10.741952597587648"><ele>166.0</ele><time>2026-04-18T08:05:27.001Z</time></trkpt><trkpt lat="43.53077190513237" lon="10.741849992197277"><ele>166.60000000000002</ele><time>2026-04-18T08:05:28.001Z</time></trkpt><trkpt lat="43.53075080239518" lon="10.74176334622853"><ele>167.2</ele><time>2026-04-18T08:05:29.001Z</time></trkpt><trkpt lat="43.530712584589025" lon="10.741592571910992"><ele>167.8</ele><time>2026-04-18T08:05:31.001Z</time></trkpt><trkpt lat="43.53070397377345" lon="10.741437493706396"><ele>168.39999999999998</ele><time>2026-04-18T08:05:33.001Z</time></trkpt><trkpt lat="43.53073361225412" lon="10.741264472519408"><ele>169.0</ele><time>2026-04-18T08:05:35.001Z</time></trkpt><trkpt lat="43.53082382333582" lon="10.74120136901167"><ele>169.0</ele><time>2026-04-18T08:05:36.001Z</time></trkpt><trkpt lat="43.530869971103755" lon="10.741091560412173"><ele>169.0</ele><time>2026-04-18T08:05:37.001Z</time></trkpt><trkpt lat="43.53090859268214" lon="10.740990487630073"><ele>169.0</ele><time>2026-04-18T08:05:38.001Z</time></trkpt><trkpt lat="43.53094628822799" lon="10.740876453535098"><ele>169.0</ele><time>2026-04-18T08:05:39.001Z</time></trkpt><trkpt lat="43.530976005394834" lon="10.740755378326508"><ele>169.0</ele><time>2026-04-18T08:05:40.001Z</time></trkpt><trkpt lat="43.5310093982432" lon="10.740625427140081"><ele>169.0</ele><time>2026-04-18T08:05:41.001Z</time></trkpt><trkpt lat="43.531041879736634" lon="10.740473112142553"><ele>169.0</ele><time>2026-04-18T08:05:42.001Z</time></trkpt><trkpt lat="43.53108080882197" lon="10.74030955309348"><ele>169.0</ele><time>2026-04-18T08:05:43.001Z</time></trkpt><trkpt lat="43.53110393381522" lon="10.740190226742161"><ele>169.0</ele><time>2026-04-18T08:05:44.001Z</time></trkpt><trkpt lat="43.531137644542234" lon="10.74009120787661"><ele>169.0</ele><time>2026-04-18T08:05:45.001Z</time></trkpt><trkpt lat="43.53116742227756" lon="10.739999108833304"><ele>169.0</ele><time>2026-04-18T08:05:46.001Z</time></trkpt><trkpt lat="43.53120711397968" lon="10.739887466557121"><ele>169.0</ele><time>2026-04-18T08:05:47.001Z</time></trkpt><trkpt lat="43.531240784367405" lon="10.7397975292668"><ele>169.0</ele><time>2026-04-18T08:05:48.001Z</time></trkpt><trkpt lat="43.53128208450282" lon="10.739722667374927"><ele>169.0</ele><time>2026-04-18T08:05:49.001Z</time></trkpt><trkpt lat="43.53132706659917" lon="10.739649968473657"><ele>169.0</ele><time>2026-04-18T08:05:50.001Z</time></trkpt><trkpt lat="43.53138773844354" lon="10.739569638108618"><ele>169.0</ele><time>2026-04-18T08:05:51.001Z</time></trkpt><trkpt lat="43.53146403204258" lon="10.739473608686042"><ele>167.16666666666669</ele><time>2026-04-18T08:05:52.001Z</time></trkpt><trkpt lat="43.5315263278513" lon="10.739399742212404"><ele>165.33333333333334</ele><time>2026-04-18T08:05:53.001Z</time></trkpt><trkpt lat="43.53159563937636" lon="10.739322902238444"><ele>163.5</ele><time>2026-04-18T08:05:54.001Z</time></trkpt><trkpt lat="43.53165245912921" lon="10.739261894668283"><ele>161.66666666666666</ele><time>2026-04-18T08:05:55.001Z</time></trkpt><trkpt lat="43.53171223141363" lon="10.73919918383844"><ele>159.83333333333331</ele><time>2026-04-18T08:05:56.001Z</time></trkpt><trkpt lat="43.53176906265598" lon="10.739140923831055"><ele>158.0</ele><time>2026-04-18T08:05:57.001Z</time></trkpt><trkpt lat="43.53183499999384" lon="10.739074233263981"><ele>158.0</ele><time>2026-04-18T08:05:58.001Z</time></trkpt><trkpt lat="43.53190468673441" lon="10.739007053716502"><ele>158.0</ele><time>2026-04-18T08:05:59.001Z</time></trkpt><trkpt lat="43.53199170005256" lon="10.738930889612998"><ele>158.0</ele><time>2026-04-18T08:06:00.001Z</time></trkpt><trkpt lat="43.53207345300111" lon="10.738864856653532"><ele>158.0</ele><time>2026-04-18T08:06:01.001Z</time></trkpt><trkpt lat="43.53213808716506" lon="10.738803071116982"><ele>158.0</ele><time>2026-04-18T08:06:02.001Z</time></trkpt><trkpt lat="43.532200672244436" lon="10.738749845351"><ele>158.0</ele><time>2026-04-18T08:06:03.001Z</time></trkpt><trkpt lat="43.53228904760468" lon="10.738717188288307"><ele>157.0</ele><time>2026-04-18T08:06:04Z</time></trkpt><trkpt lat="43.53237731547954" lon="10.738660324746869"><ele>156.0</ele><time>2026-04-18T08:06:05Z</time></trkpt><trkpt lat="43.53245229577777" lon="10.738584846884075"><ele>155.0</ele><time>2026-04-18T08:06:06Z</time></trkpt><trkpt lat="43.53253203883592" lon="10.738535486856186"><ele>154.0</ele><time>2026-04-18T08:06:07Z</time></trkpt><trkpt lat="43.53260078029168" lon="10.738475787948646"><ele>153.0</ele><time>2026-04-18T08:06:08Z</time></trkpt><trkpt lat="43.53267492368514" lon="10.738423780583984"><ele>152.0</ele><time>2026-04-18T08:06:09Z</time></trkpt><trkpt lat="43.53275120841147" lon="10.738389655843372"><ele>152.0</ele><time>2026-04-18T08:06:10Z</time></trkpt><trkpt lat="43.53282326718072" lon="10.738337950849125"><ele>152.0</ele><time>2026-04-18T08:06:11Z</time></trkpt><trkpt lat="43.53290239488901" lon="10.738274048562518"><ele>152.0</ele><time>2026-04-18T08:06:12Z</time></trkpt><trkpt lat="43.532981035677054" lon="10.738197880625721"><ele>152.0</ele><time>2026-04-18T08:06:13Z</time></trkpt><trkpt lat="43.53305668047149" lon="10.73811608612903"><ele>152.0</ele><time>2026-04-18T08:06:14Z</time></trkpt><trkpt lat="43.53313546740139" lon="10.738031779922096"><ele>151.33333333333331</ele><time>2026-04-18T08:06:15Z</time></trkpt><trkpt lat="43.5332169872213" lon="10.737946453933738"><ele>150.66666666666666</ele><time>2026-04-18T08:06:16Z</time></trkpt><trkpt lat="43.53329509903705" lon="10.737865931368665"><ele>150.0</ele><time>2026-04-18T08:06:17Z</time></trkpt><trkpt lat="43.53336873483164" lon="10.737798174787272"><ele>149.33333333333334</ele><time>2026-04-18T08:06:18Z</time></trkpt><trkpt lat="43.533440022202896" lon="10.737745046727674"><ele>148.66666666666669</ele><time>2026-04-18T08:06:19Z</time></trkpt><trkpt lat="43.533509273330274" lon="10.737708747523081"><ele>148.0</ele><time>2026-04-18T08:06:20Z</time></trkpt><trkpt lat="43.53359258052707" lon="10.73766328192018"><ele>147.8</ele><time>2026-04-18T08:06:20.999Z</time></trkpt><trkpt lat="43.53369891950824" lon="10.737632654201478"><ele>147.60000000000002</ele><time>2026-04-18T08:06:21.999Z</time></trkpt><trkpt lat="43.53380687716313" lon="10.73759351057304"><ele>147.39999999999998</ele><time>2026-04-18T08:06:22.999Z</time></trkpt><trkpt lat="43.53389906518722" lon="10.73754061210234"><ele>147.2</ele><time>2026-04-18T08:06:23.999Z</time></trkpt><trkpt lat="43.53399214429945" lon="10.737500010138845"><ele>147.0</ele><time>2026-04-18T08:06:24.999Z</time></trkpt><trkpt lat="43.534080542766105" lon="10.737449090700293"><ele>146.25</ele><time>2026-04-18T08:06:25.999Z</time></trkpt><trkpt lat="43.534169216659635" lon="10.737397259990141"><ele>145.5</ele><time>2026-04-18T08:06:26.999Z</time></trkpt><trkpt lat="43.53427558692744" lon="10.737341323205465"><ele>144.75</ele><time>2026-04-18T08:06:27.999Z</time></trkpt><trkpt lat="43.53440272529713" lon="10.737277957391568"><ele>144.0</ele><time>2026-04-18T08:06:28.999Z</time></trkpt><trkpt lat="43.53453923487945" lon="10.737196484500963"><ele>142.75</ele><time>2026-04-18T08:06:29.999Z</time></trkpt><trkpt lat="43.5346712826599" lon="10.737152665585887"><ele>141.5</ele><time>2026-04-18T08:06:30.999Z</time></trkpt><trkpt lat="43.53478147047789" lon="10.73709923600267"><ele>140.25</ele><time>2026-04-18T08:06:31.999Z</time></trkpt><trkpt lat="43.53488087636225" lon="10.737047024548023"><ele>139.0</ele><time>2026-04-18T08:06:32.999Z</time></trkpt><trkpt lat="43.5349674404219" lon="10.736966146703674"><ele>139.0</ele><time>2026-04-18T08:06:33.999Z</time></trkpt><trkpt lat="43.53505364400448" lon="10.736889443439308"><ele>139.0</ele><time>2026-04-18T08:06:34.999Z</time></trkpt><trkpt lat="43.5351581010535" lon="10.73680100010426"><ele>139.0</ele><time>2026-04-18T08:06:35.999Z</time></trkpt><trkpt lat="43.53527174728192" lon="10.73669227930975"><ele>139.0</ele><time>2026-04-18T08:06:36.999Z</time></trkpt><trkpt lat="43.53537907801283" lon="10.73658417173722"><ele>138.25</ele><time>2026-04-18T08:06:37.999Z</time></trkpt><trkpt lat="43.53547468267206" lon="10.736491705256412"><ele>137.5</ele><time>2026-04-18T08:06:38.999Z</time></trkpt><trkpt lat="43.5355679729065" lon="10.736401366778985"><ele>136.75</ele><time>2026-04-18T08:06:39.999Z</time></trkpt><trkpt lat="43.53567042859198" lon="10.736311646059546"><ele>136.0</ele><time>2026-04-18T08:06:40.999Z</time></trkpt><trkpt lat="43.53577164390077" lon="10.736244646923813"><ele>136.0</ele><time>2026-04-18T08:06:41.999Z</time></trkpt><trkpt lat="43.53585067195723" lon="10.73617257451062"><ele>136.0</ele><time>2026-04-18T08:06:42.999Z</time></trkpt><trkpt lat="43.53594311381232" lon="10.736086642376765"><ele>136.0</ele><time>2026-04-18T08:06:43.999Z</time></trkpt><trkpt lat="43.53601821817226" lon="10.736015359880954"><ele>136.0</ele><time>2026-04-18T08:06:44.999Z</time></trkpt><trkpt lat="43.536061720449666" lon="10.735948457739743"><ele>136.0</ele><time>2026-04-18T08:06:45.999Z</time></trkpt><trkpt lat="43.5361442143752" lon="10.735871699598055"><ele>134.0</ele><time>2026-04-18T08:06:47.999Z</time></trkpt><trkpt lat="43.536240592446106" lon="10.735784986107042"><ele>132.0</ele><time>2026-04-18T08:06:49.999Z</time></trkpt><trkpt lat="43.53630393054403" lon="10.735732872344803"><ele>130.0</ele><time>2026-04-18T08:06:51Z</time></trkpt><trkpt lat="43.53638498609085" lon="10.73566082459583"><ele>128.0</ele><time>2026-04-18T08:06:52Z</time></trkpt><trkpt lat="43.53646777138729" lon="10.735576279626839"><ele>126.0</ele><time>2026-04-18T08:06:53Z</time></trkpt><trkpt lat="43.53654108624717" lon="10.735500725348674"><ele>126.0</ele><time>2026-04-18T08:06:54Z</time></trkpt><trkpt lat="43.536611190793366" lon="10.735443576538245"><ele>126.0</ele><time>2026-04-18T08:06:55Z</time></trkpt><trkpt lat="43.536691819715465" lon="10.735369945197782"><ele>126.0</ele><time>2026-04-18T08:06:56Z</time></trkpt><trkpt lat="43.536776181702386" lon="10.735288068698713"><ele>126.0</ele><time>2026-04-18T08:06:57Z</time></trkpt><trkpt lat="43.53687161996127" lon="10.735189873409267"><ele>126.0</ele><time>2026-04-18T08:06:58Z</time></trkpt><trkpt lat="43.5369690077747" lon="10.735092513962556"><ele>125.33333333333333</ele><time>2026-04-18T08:06:59Z</time></trkpt><trkpt lat="43.53704811565901" lon="10.735014704185637"><ele>124.66666666666666</ele><time>2026-04-18T08:07:00Z</time></trkpt><trkpt lat="43.53712127727029" lon="10.734949193852863"><ele>124.0</ele><time>2026-04-18T08:07:01Z</time></trkpt><trkpt lat="43.53719143456162" lon="10.734887347074059"><ele>123.33333333333333</ele><time>2026-04-18T08:07:02Z</time></trkpt><trkpt lat="43.53726135183717" lon="10.734818103282755"><ele>122.66666666666666</ele><time>2026-04-18T08:07:03Z</time></trkpt><trkpt lat="43.53733033892941" lon="10.73474629023724"><ele>122.0</ele><time>2026-04-18T08:07:04Z</time></trkpt><trkpt lat="43.53741388850576" lon="10.734682439257366"><ele>121.99999999999999</ele><time>2026-04-18T08:07:05Z</time></trkpt><trkpt lat="43.53748519809645" lon="10.734578897750444"><ele>122.0</ele><time>2026-04-18T08:07:06Z</time></trkpt><trkpt lat="43.53756461058396" lon="10.73452029593449"><ele>122.0</ele><time>2026-04-18T08:07:07Z</time></trkpt><trkpt lat="43.53761846456437" lon="10.734456546477771"><ele>122.0</ele><time>2026-04-18T08:07:08Z</time></trkpt><trkpt lat="43.53767052107088" lon="10.73438483723431"><ele>121.99999999999999</ele><time>2026-04-18T08:07:09Z</time></trkpt><trkpt lat="43.53771509876682" lon="10.734305231770952"><ele>122.0</ele><time>2026-04-18T08:07:10Z</time></trkpt><trkpt lat="43.537742170307304" lon="10.734183372681752"><ele>120.19999999999999</ele><time>2026-04-18T08:07:11Z</time></trkpt><trkpt lat="43.53777199961836" lon="10.734061151557333"><ele>118.39999999999999</ele><time>2026-04-18T08:07:12Z</time></trkpt><trkpt lat="43.537792181424955" lon="10.733918284567952"><ele>116.60000000000001</ele><time>2026-04-18T08:07:13Z</time></trkpt><trkpt lat="43.537812097890075" lon="10.733760778441868"><ele>114.80000000000001</ele><time>2026-04-18T08:07:14Z</time></trkpt><trkpt lat="43.537828911527335" lon="10.733621214901481"><ele>113.0</ele><time>2026-04-18T08:07:15Z</time></trkpt><trkpt lat="43.53784125191962" lon="10.73349588005148"><ele>111.4</ele><time>2026-04-18T08:07:16Z</time></trkpt><trkpt lat="43.53782890180356" lon="10.733360271256338"><ele>109.80000000000001</ele><time>2026-04-18T08:07:17Z</time></trkpt><trkpt lat="43.537804862707425" lon="10.733203636879919"><ele>108.2</ele><time>2026-04-18T08:07:18Z</time></trkpt><trkpt lat="43.537773773589926" lon="10.733044524404756"><ele>106.6</ele><time>2026-04-18T08:07:19Z</time></trkpt><trkpt lat="43.53775501316476" lon="10.732903905074028"><ele>105.0</ele><time>2026-04-18T08:07:20Z</time></trkpt><trkpt lat="43.53775823696879" lon="10.732782677715464"><ele>103.8</ele><time>2026-04-18T08:07:21Z</time></trkpt><trkpt lat="43.53775655089665" lon="10.732633192793797"><ele>102.6</ele><time>2026-04-18T08:07:22Z</time></trkpt><trkpt lat="43.537764414881494" lon="10.732494860867499"><ele>101.4</ele><time>2026-04-18T08:07:23Z</time></trkpt><trkpt lat="43.537774004149426" lon="10.732369359096811"><ele>100.2</ele><time>2026-04-18T08:07:24Z</time></trkpt><trkpt lat="43.537774562656274" lon="10.732257605355084"><ele>99.0</ele><time>2026-04-18T08:07:25Z</time></trkpt><trkpt lat="43.53781631794948" lon="10.73217083718598"><ele>99.0</ele><time>2026-04-18T08:07:26Z</time></trkpt><trkpt lat="43.53785572853094" lon="10.732069411388474"><ele>99.0</ele><time>2026-04-18T08:07:27Z</time></trkpt><trkpt lat="43.53791316775833" lon="10.731955882652144"><ele>99.0</ele><time>2026-04-18T08:07:28Z</time></trkpt><trkpt lat="43.53797721295606" lon="10.731838472257268"><ele>99.0</ele><time>2026-04-18T08:07:29Z</time></trkpt><trkpt lat="43.53803257092727" lon="10.73174813899628"><ele>99.0</ele><time>2026-04-18T08:07:30Z</time></trkpt><trkpt lat="43.53808614483816" lon="10.731681171758868"><ele>99.0</ele><time>2026-04-18T08:07:31Z</time></trkpt><trkpt lat="43.538143684001156" lon="10.731623323241124"><ele>99.80000000000001</ele><time>2026-04-18T08:07:32Z</time></trkpt><trkpt lat="43.53820505155768" lon="10.731581373817228"><ele>100.60000000000001</ele><time>2026-04-18T08:07:33Z</time></trkpt><trkpt lat="43.538283275711194" lon="10.73153832477629"><ele>101.4</ele><time>2026-04-18T08:07:34Z</time></trkpt><trkpt lat="43.53837726322815" lon="10.731479787840005"><ele>102.2</ele><time>2026-04-18T08:07:35Z</time></trkpt><trkpt lat="43.53847346842403" lon="10.73141058140643"><ele>103.0</ele><time>2026-04-18T08:07:36Z</time></trkpt><trkpt lat="43.53857033688538" lon="10.731339038879275"><ele>103.0</ele><time>2026-04-18T08:07:37Z</time></trkpt><trkpt lat="43.53866305123323" lon="10.731267479547071"><ele>103.0</ele><time>2026-04-18T08:07:38Z</time></trkpt><trkpt lat="43.53873831341581" lon="10.731208952188128"><ele>103.0</ele><time>2026-04-18T08:07:39Z</time></trkpt><trkpt lat="43.538821812541116" lon="10.73114262746884"><ele>103.0</ele><time>2026-04-18T08:07:40Z</time></trkpt><trkpt lat="43.53889955195126" lon="10.731077544472834"><ele>103.0</ele><time>2026-04-18T08:07:41Z</time></trkpt><trkpt lat="43.53896375666617" lon="10.731018253519805"><ele>100.80000000000001</ele><time>2026-04-18T08:07:42Z</time></trkpt><trkpt lat="43.539029821885855" lon="10.73094942129067"><ele>98.6</ele><time>2026-04-18T08:07:43Z</time></trkpt><trkpt lat="43.53910198287448" lon="10.730861788693126"><ele>96.4</ele><time>2026-04-18T08:07:44Z</time></trkpt><trkpt lat="43.539175976021134" lon="10.730752612229036"><ele>94.19999999999999</ele><time>2026-04-18T08:07:45Z</time></trkpt><trkpt lat="43.53924619213813" lon="10.730629241080386"><ele>92.0</ele><time>2026-04-18T08:07:46Z</time></trkpt><trkpt lat="43.539309535037155" lon="10.730511405334495"><ele>92.0</ele><time>2026-04-18T08:07:47Z</time></trkpt><trkpt lat="43.53937201021892" lon="10.730395419669867"><ele>92.0</ele><time>2026-04-18T08:07:48Z</time></trkpt><trkpt lat="43.539438280642486" lon="10.730277204294174"><ele>92.0</ele><time>2026-04-18T08:07:49Z</time></trkpt><trkpt lat="43.53949516773686" lon="10.730153709676202"><ele>92.0</ele><time>2026-04-18T08:07:50Z</time></trkpt><trkpt lat="43.53956741807496" lon="10.730069254598863"><ele>92.0</ele><time>2026-04-18T08:07:51Z</time></trkpt><trkpt lat="43.53963185974923" lon="10.729988288832763"><ele>88.5</ele><time>2026-04-18T08:07:52Z</time></trkpt><trkpt lat="43.5397058420906" lon="10.729913902843535"><ele>85.0</ele><time>2026-04-18T08:07:53Z</time></trkpt><trkpt lat="43.53979643778709" lon="10.729838565624128"><ele>81.5</ele><time>2026-04-18T08:07:54Z</time></trkpt><trkpt lat="43.53991790831025" lon="10.729780756969328"><ele>78.0</ele><time>2026-04-18T08:07:55Z</time></trkpt><trkpt lat="43.54004969130573" lon="10.729706327599803"><ele>78.0</ele><time>2026-04-18T08:07:56Z</time></trkpt><trkpt lat="43.540145178373585" lon="10.72962734594736"><ele>78.0</ele><time>2026-04-18T08:07:57Z</time></trkpt><trkpt lat="43.540229431762604" lon="10.729593065731054"><ele>78.0</ele><time>2026-04-18T08:07:58Z</time></trkpt><trkpt lat="43.54030378201853" lon="10.729554236454891"><ele>78.0</ele><time>2026-04-18T08:07:59Z</time></trkpt><trkpt lat="43.54037491698959" lon="10.729536408082293"><ele>78.0</ele><time>2026-04-18T08:08:00Z</time></trkpt><trkpt lat="43.54045335772831" lon="10.729519629870492"><ele>78.0</ele><time>2026-04-18T08:08:01Z</time></trkpt><trkpt lat="43.540537491359906" lon="10.729505124077193"><ele>78.0</ele><time>2026-04-18T08:08:02Z</time></trkpt><trkpt lat="43.540604341349734" lon="10.729492598842127"><ele>78.0</ele><time>2026-04-18T08:08:03Z</time></trkpt><trkpt lat="43.540698046185824" lon="10.729467802709667"><ele>78.0</ele><time>2026-04-18T08:08:05Z</time></trkpt><trkpt lat="43.54076292943764" lon="10.729427671501474"><ele>78.0</ele><time>2026-04-18T08:08:06Z</time></trkpt><trkpt lat="43.54083918270487" lon="10.72931809619876"><ele>78.0</ele><time>2026-04-18T08:08:08Z</time></trkpt><trkpt lat="43.540876464627765" lon="10.729241720424378"><ele>78.0</ele><time>2026-04-18T08:08:09Z</time></trkpt><trkpt lat="43.54091331115986" lon="10.72914969850217"><ele>76.0</ele><time>2026-04-18T08:08:10Z</time></trkpt><trkpt lat="43.54095171662029" lon="10.729039485144144"><ele>74.0</ele><time>2026-04-18T08:08:11Z</time></trkpt><trkpt lat="43.54099160258781" lon="10.728919268308115"><ele>72.0</ele><time>2026-04-18T08:08:12Z</time></trkpt><trkpt lat="43.54103350388974" lon="10.72878809028282"><ele>70.0</ele><time>2026-04-18T08:08:13Z</time></trkpt><trkpt lat="43.54107376098823" lon="10.728662059670047"><ele>68.0</ele><time>2026-04-18T08:08:14Z</time></trkpt><trkpt lat="43.54109839881417" lon="10.728536112474611"><ele>66.6</ele><time>2026-04-18T08:08:15Z</time></trkpt><trkpt lat="43.54114930697446" lon="10.728424255299123"><ele>65.19999999999999</ele><time>2026-04-18T08:08:16Z</time></trkpt><trkpt lat="43.54118582740342" lon="10.728309289305063"><ele>63.8</ele><time>2026-04-18T08:08:17Z</time></trkpt><trkpt lat="43.54121791835692" lon="10.728179138810798"><ele>62.4</ele><time>2026-04-18T08:08:18Z</time></trkpt><trkpt lat="43.54126533219093" lon="10.728051996754056"><ele>61.0</ele><time>2026-04-18T08:08:19Z</time></trkpt><trkpt lat="43.54130894385791" lon="10.727944680032119"><ele>60.5</ele><time>2026-04-18T08:08:20Z</time></trkpt><trkpt lat="43.54134223003467" lon="10.727824551239474"><ele>60.0</ele><time>2026-04-18T08:08:21Z</time></trkpt><trkpt lat="43.5413753576237" lon="10.727514077028745"><ele>59.5</ele><time>2026-04-18T08:08:23Z</time></trkpt><trkpt lat="43.54139556169195" lon="10.727370610914368"><ele>59.0</ele><time>2026-04-18T08:08:24Z</time></trkpt><trkpt lat="43.54143201795015" lon="10.727256841490465"><ele>59.0</ele><time>2026-04-18T08:08:25Z</time></trkpt><trkpt lat="43.541487413214114" lon="10.72714540907264"><ele>59.0</ele><time>2026-04-18T08:08:25.999Z</time></trkpt><trkpt lat="43.54156460631902" lon="10.727027218229528"><ele>59.0</ele><time>2026-04-18T08:08:26.999Z</time></trkpt><trkpt lat="43.54165789406014" lon="10.726889332626602"><ele>59.0</ele><time>2026-04-18T08:08:27.999Z</time></trkpt><trkpt lat="43.54175935193152" lon="10.726744154302732"><ele>59.0</ele><time>2026-04-18T08:08:28.999Z</time></trkpt><trkpt lat="43.54186051650859" lon="10.726600822639545"><ele>59.0</ele><time>2026-04-18T08:08:29.999Z</time></trkpt><trkpt lat="43.54193757159383" lon="10.726480871424451"><ele>59.0</ele><time>2026-04-18T08:08:30.999Z</time></trkpt><trkpt lat="43.54201752004016" lon="10.726354872858428"><ele>59.0</ele><time>2026-04-18T08:08:31.999Z</time></trkpt><trkpt lat="43.542102248895816" lon="10.72622377179454"><ele>59.0</ele><time>2026-04-18T08:08:32.999Z</time></trkpt><trkpt lat="43.54218315881721" lon="10.72608959908776"><ele>59.00000000000001</ele><time>2026-04-18T08:08:33.999Z</time></trkpt><trkpt lat="43.54225780301488" lon="10.72597633892743"><ele>59.00000000000001</ele><time>2026-04-18T08:08:34.999Z</time></trkpt><trkpt lat="43.54232883464803" lon="10.725874650262972"><ele>59.0</ele><time>2026-04-18T08:08:35.999Z</time></trkpt><trkpt lat="43.54238929411603" lon="10.725787108577522"><ele>59.0</ele><time>2026-04-18T08:08:36.999Z</time></trkpt><trkpt lat="43.54244818896354" lon="10.725704828661554"><ele>60.16666666666667</ele><time>2026-04-18T08:08:37.999Z</time></trkpt><trkpt lat="43.542507691395166" lon="10.72563950084714"><ele>61.333333333333336</ele><time>2026-04-18T08:08:38.999Z</time></trkpt><trkpt lat="43.542568167247026" lon="10.725601292223464"><ele>62.5</ele><time>2026-04-18T08:08:40.999Z</time></trkpt><trkpt lat="43.542634938466804" lon="10.725696939705422"><ele>63.66666666666667</ele><time>2026-04-18T08:08:50.999Z</time></trkpt><trkpt lat="43.542733194801116" lon="10.725696612510859"><ele>64.83333333333333</ele><time>2026-04-18T08:08:52.999Z</time></trkpt><trkpt lat="43.542790322814525" lon="10.725652190531694"><ele>66.0</ele><time>2026-04-18T08:08:53.999Z</time></trkpt><trkpt lat="43.542838821838316" lon="10.725595974409558"><ele>66.0</ele><time>2026-04-18T08:08:54.999Z</time></trkpt><trkpt lat="43.54287835291461" lon="10.72551376694671"><ele>66.0</ele><time>2026-04-18T08:08:55.999Z</time></trkpt><trkpt lat="43.54290988383092" lon="10.725417046798812"><ele>66.0</ele><time>2026-04-18T08:08:56.999Z</time></trkpt><trkpt lat="43.54290822279883" lon="10.725305116053587"><ele>66.0</ele><time>2026-04-18T08:08:57.999Z</time></trkpt><trkpt lat="43.54295880692738" lon="10.72495632358445"><ele>70.83333333333333</ele><time>2026-04-18T08:09:00.999Z</time></trkpt><trkpt lat="43.54297755954604" lon="10.724819890218063"><ele>75.66666666666667</ele><time>2026-04-18T08:09:02Z</time></trkpt><trkpt lat="43.542996602403576" lon="10.72470098036697"><ele>80.5</ele><time>2026-04-18T08:09:03Z</time></trkpt><trkpt lat="43.54302472148694" lon="10.724614931514354"><ele>85.33333333333334</ele><time>2026-04-18T08:09:04Z</time></trkpt><trkpt lat="43.54306866022896" lon="10.724551844307829"><ele>90.16666666666667</ele><time>2026-04-18T08:09:05Z</time></trkpt><trkpt lat="43.54313696968256" lon="10.724503175377304"><ele>95.0</ele><time>2026-04-18T08:09:06Z</time></trkpt><trkpt lat="43.54321090374259" lon="10.724466092156998"><ele>95.0</ele><time>2026-04-18T08:09:07Z</time></trkpt><trkpt lat="43.543292815350426" lon="10.72442875647772"><ele>95.0</ele><time>2026-04-18T08:09:08Z</time></trkpt><trkpt lat="43.543359947879395" lon="10.724381479533177"><ele>95.0</ele><time>2026-04-18T08:09:09Z</time></trkpt><trkpt lat="43.54343116028931" lon="10.724347807616867"><ele>95.0</ele><time>2026-04-18T08:09:10Z</time></trkpt><trkpt lat="43.54348321913024" lon="10.724185062672587"><ele>95.0</ele><time>2026-04-18T08:09:12Z</time></trkpt><trkpt lat="43.54354231360034" lon="10.724014768446851"><ele>95.5</ele><time>2026-04-18T08:09:14Z</time></trkpt><trkpt lat="43.54357814803872" lon="10.723943220724115"><ele>96.0</ele><time>2026-04-18T08:09:15Z</time></trkpt><trkpt lat="43.543608639186985" lon="10.723843214000874"><ele>96.5</ele><time>2026-04-18T08:09:16Z</time></trkpt><trkpt lat="43.54368733131879" lon="10.723772005165111"><ele>97.0</ele><time>2026-04-18T08:09:17Z</time></trkpt><trkpt lat="43.54375650288205" lon="10.7236873337898"><ele>97.49999999999999</ele><time>2026-04-18T08:09:18Z</time></trkpt><trkpt lat="43.543827362004535" lon="10.723596178415411"><ele>98.0</ele><time>2026-04-18T08:09:19Z</time></trkpt><trkpt lat="43.54388919275017" lon="10.723507780340716"><ele>101.80000000000001</ele><time>2026-04-18T08:09:20Z</time></trkpt><trkpt lat="43.54394139260597" lon="10.72339424000593"><ele>105.6</ele><time>2026-04-18T08:09:21Z</time></trkpt><trkpt lat="43.54401041882344" lon="10.723307717292498"><ele>109.39999999999999</ele><time>2026-04-18T08:09:22Z</time></trkpt><trkpt lat="43.54403470940042" lon="10.72318012349002"><ele>113.19999999999999</ele><time>2026-04-18T08:09:23Z</time></trkpt><trkpt lat="43.54406128184098" lon="10.72306509605962"><ele>117.0</ele><time>2026-04-18T08:09:24Z</time></trkpt><trkpt lat="43.54408660040642" lon="10.722957935532268"><ele>117.0</ele><time>2026-04-18T08:09:25Z</time></trkpt><trkpt lat="43.54412953868847" lon="10.72279819448497"><ele>116.99999999999999</ele><time>2026-04-18T08:09:27Z</time></trkpt><trkpt lat="43.54417115331035" lon="10.722697858422116"><ele>116.99999999999999</ele><time>2026-04-18T08:09:28Z</time></trkpt><trkpt lat="43.54422088538064" lon="10.722577869416597"><ele>117.0</ele><time>2026-04-18T08:09:29Z</time></trkpt><trkpt lat="43.54427835766185" lon="10.722455111592195"><ele>117.0</ele><time>2026-04-18T08:09:30Z</time></trkpt><trkpt lat="43.54433358834516" lon="10.722337996295428"><ele>116.5</ele><time>2026-04-18T08:09:31Z</time></trkpt><trkpt lat="43.54438303620295" lon="10.722233425176222"><ele>116.0</ele><time>2026-04-18T08:09:32Z</time></trkpt><trkpt lat="43.544432246779" lon="10.72213609251912"><ele>115.5</ele><time>2026-04-18T08:09:33Z</time></trkpt><trkpt lat="43.54447822862957" lon="10.722071824605777"><ele>115.0</ele><time>2026-04-18T08:09:34Z</time></trkpt><trkpt lat="43.54452870199666" lon="10.722000879456532"><ele>114.5</ele><time>2026-04-18T08:09:35Z</time></trkpt><trkpt lat="43.54458736871647" lon="10.721943799583485"><ele>114.0</ele><time>2026-04-18T08:09:36Z</time></trkpt><trkpt lat="43.54463652444637" lon="10.72188448205612"><ele>115.2</ele><time>2026-04-18T08:09:37Z</time></trkpt><trkpt lat="43.544726632494985" lon="10.721782039043998"><ele>116.4</ele><time>2026-04-18T08:09:39Z</time></trkpt><trkpt lat="43.54477420366705" lon="10.7217145608366"><ele>117.6</ele><time>2026-04-18T08:10:05Z</time></trkpt><trkpt lat="43.54488956447401" lon="10.72164864599154"><ele>118.8</ele><time>2026-04-18T08:10:07Z</time></trkpt><trkpt lat="43.544944351801206" lon="10.721599701328403"><ele>120.0</ele><time>2026-04-18T08:10:08Z</time></trkpt><trkpt lat="43.54501685912505" lon="10.721567334366163"><ele>120.0</ele><time>2026-04-18T08:10:09Z</time></trkpt><trkpt lat="43.54510201828943" lon="10.721531746006843"><ele>120.0</ele><time>2026-04-18T08:10:10Z</time></trkpt><trkpt lat="43.545199613520076" lon="10.721486845125005"><ele>120.0</ele><time>2026-04-18T08:10:11Z</time></trkpt><trkpt lat="43.5452934051049" lon="10.721424154313162"><ele>120.0</ele><time>2026-04-18T08:10:12Z</time></trkpt><trkpt lat="43.54539532696718" lon="10.721374554241489"><ele>120.0</ele><time>2026-04-18T08:10:13Z</time></trkpt><trkpt lat="43.54550511744317" lon="10.721347477911783"><ele>119.5</ele><time>2026-04-18T08:10:14Z</time></trkpt><trkpt lat="43.54560252866111" lon="10.721296312887874"><ele>119.0</ele><time>2026-04-18T08:10:15Z</time></trkpt><trkpt lat="43.54567788708448" lon="10.721255364252182"><ele>118.5</ele><time>2026-04-18T08:10:16Z</time></trkpt><trkpt lat="43.54573905407353" lon="10.72120821496162"><ele>118.0</ele><time>2026-04-18T08:10:17Z</time></trkpt><trkpt lat="43.54579709110985" lon="10.72114749582835"><ele>117.5</ele><time>2026-04-18T08:10:19Z</time></trkpt><trkpt lat="43.54582335690482" lon="10.721048016301157"><ele>117.0</ele><time>2026-04-18T08:10:22Z</time></trkpt><trkpt lat="43.5456848926507" lon="10.72094075605753"><ele>117.8</ele><time>2026-04-18T08:10:23Z</time></trkpt><trkpt lat="43.54560760035305" lon="10.720876368481823"><ele>118.6</ele><time>2026-04-18T08:10:24Z</time></trkpt><trkpt lat="43.545532475123515" lon="10.720830026898218"><ele>119.39999999999999</ele><time>2026-04-18T08:10:25Z</time></trkpt><trkpt lat="43.54542792529443" lon="10.720768602181119"><ele>120.19999999999999</ele><time>2026-04-18T08:10:26Z</time></trkpt><trkpt lat="43.54531444507062" lon="10.720728952235627"><ele>121.0</ele><time>2026-04-18T08:10:27Z</time></trkpt><trkpt lat="43.5452107385794" lon="10.720713734611138"><ele>121.00000000000001</ele><time>2026-04-18T08:10:28Z</time></trkpt><trkpt lat="43.5451320755844" lon="10.72067428241957"><ele>121.0</ele><time>2026-04-18T08:10:29Z</time></trkpt><trkpt lat="43.54507243816254" lon="10.720611895554374"><ele>121.0</ele><time>2026-04-18T08:10:30Z</time></trkpt><trkpt lat="43.54502818582554" lon="10.720473113107127"><ele>121.0</ele><time>2026-04-18T08:10:31.999Z</time></trkpt><trkpt lat="43.54504142792552" lon="10.720379458967894"><ele>121.00000000000001</ele><time>2026-04-18T08:10:32.999Z</time></trkpt><trkpt lat="43.54509168286047" lon="10.720265208904337"><ele>121.0</ele><time>2026-04-18T08:10:33.999Z</time></trkpt><trkpt lat="43.54517092214286" lon="10.72014048842188"><ele>120.5</ele><time>2026-04-18T08:10:34.999Z</time></trkpt><trkpt lat="43.54526392676727" lon="10.720020519372616"><ele>120.0</ele><time>2026-04-18T08:10:35.999Z</time></trkpt><trkpt lat="43.54535418374475" lon="10.719902311375543"><ele>119.5</ele><time>2026-04-18T08:10:36.999Z</time></trkpt><trkpt lat="43.54545016001467" lon="10.719805569954792"><ele>119.0</ele><time>2026-04-18T08:10:37.999Z</time></trkpt><trkpt lat="43.5455701451107" lon="10.719737603293883"><ele>119.0</ele><time>2026-04-18T08:10:38.999Z</time></trkpt><trkpt lat="43.5457061335842" lon="10.719697410801302"><ele>119.0</ele><time>2026-04-18T08:10:39.999Z</time></trkpt><trkpt lat="43.54585629526775" lon="10.719609218912987"><ele>119.0</ele><time>2026-04-18T08:10:40.999Z</time></trkpt><trkpt lat="43.54600724044666" lon="10.719549235560997"><ele>119.0</ele><time>2026-04-18T08:10:41.999Z</time></trkpt><trkpt lat="43.5461470004871" lon="10.719490905429312"><ele>119.0</ele><time>2026-04-18T08:10:42.999Z</time></trkpt><trkpt lat="43.54627968063106" lon="10.71942619891069"><ele>119.0</ele><time>2026-04-18T08:10:43.999Z</time></trkpt><trkpt lat="43.54639220020117" lon="10.719373664946783"><ele>119.0</ele><time>2026-04-18T08:10:44.999Z</time></trkpt><trkpt lat="43.546480667260205" lon="10.719345387066332"><ele>117.2</ele><time>2026-04-18T08:10:45.999Z</time></trkpt><trkpt lat="43.54655769484144" lon="10.719337255731022"><ele>115.4</ele><time>2026-04-18T08:10:46.999Z</time></trkpt><trkpt lat="43.5466332016189" lon="10.71935014415632"><ele>113.6</ele><time>2026-04-18T08:10:47.999Z</time></trkpt><trkpt lat="43.54674390172792" lon="10.719376208666548"><ele>111.8</ele><time>2026-04-18T08:10:48.999Z</time></trkpt><trkpt lat="43.546852158965564" lon="10.719393369051701"><ele>110.0</ele><time>2026-04-18T08:10:49.999Z</time></trkpt><trkpt lat="43.54697534581902" lon="10.719392423204177"><ele>109.5</ele><time>2026-04-18T08:10:50.999Z</time></trkpt><trkpt lat="43.54710230017116" lon="10.719360100799841"><ele>109.0</ele><time>2026-04-18T08:10:51.999Z</time></trkpt><trkpt lat="43.54721570271778" lon="10.719312222267037"><ele>108.5</ele><time>2026-04-18T08:10:52.999Z</time></trkpt><trkpt lat="43.54735151639691" lon="10.719289111739577"><ele>108.0</ele><time>2026-04-18T08:10:53.999Z</time></trkpt><trkpt lat="43.54749935029368" lon="10.719269003616153"><ele>108.0</ele><time>2026-04-18T08:10:54.999Z</time></trkpt><trkpt lat="43.547664949654376" lon="10.719267534116588"><ele>108.0</ele><time>2026-04-18T08:10:55.999Z</time></trkpt><trkpt lat="43.54783951351641" lon="10.71927493510852"><ele>108.0</ele><time>2026-04-18T08:10:57Z</time></trkpt><trkpt lat="43.54800351760504" lon="10.719285544827725"><ele>110.0</ele><time>2026-04-18T08:10:58Z</time></trkpt><trkpt lat="43.54817326014766" lon="10.719298689940054"><ele>112.0</ele><time>2026-04-18T08:10:59Z</time></trkpt><trkpt lat="43.54833933164353" lon="10.719300994028396"><ele>114.0</ele><time>2026-04-18T08:11:00Z</time></trkpt><trkpt lat="43.54851099388244" lon="10.719289270118239"><ele>114.0</ele><time>2026-04-18T08:11:01Z</time></trkpt><trkpt lat="43.548640943977894" lon="10.719292224553977"><ele>114.0</ele><time>2026-04-18T08:11:02Z</time></trkpt><trkpt lat="43.548791123655256" lon="10.719321331372036"><ele>114.0</ele><time>2026-04-18T08:11:03Z</time></trkpt><trkpt lat="43.54893325432873" lon="10.719364953515884"><ele>114.0</ele><time>2026-04-18T08:11:04Z</time></trkpt><trkpt lat="43.54907765457984" lon="10.719419724093784"><ele>118.80000000000001</ele><time>2026-04-18T08:11:05Z</time></trkpt><trkpt lat="43.54919925615232" lon="10.719482621982795"><ele>123.60000000000001</ele><time>2026-04-18T08:11:06Z</time></trkpt><trkpt lat="43.54928028924014" lon="10.719550339781495"><ele>128.4</ele><time>2026-04-18T08:11:07Z</time></trkpt><trkpt lat="43.54933784674603" lon="10.719632805324188"><ele>133.20000000000002</ele><time>2026-04-18T08:11:08Z</time></trkpt><trkpt lat="43.549399482779656" lon="10.719736837309396"><ele>138.0</ele><time>2026-04-18T08:11:09Z</time></trkpt><trkpt lat="43.54947506830718" lon="10.71986524082669"><ele>138.0</ele><time>2026-04-18T08:11:10Z</time></trkpt><trkpt lat="43.549535138270414" lon="10.71997042104368"><ele>138.0</ele><time>2026-04-18T08:11:11Z</time></trkpt><trkpt lat="43.549595703241444" lon="10.720055897566318"><ele>138.0</ele><time>2026-04-18T08:11:19Z</time></trkpt><trkpt lat="43.5496458814736" lon="10.720145835813009"><ele>138.0</ele><time>2026-04-18T08:11:20Z</time></trkpt><trkpt lat="43.54967868306334" lon="10.720257010789963"><ele>138.0</ele><time>2026-04-18T08:11:21Z</time></trkpt><trkpt lat="43.54968643695385" lon="10.720384011989129"><ele>138.0</ele><time>2026-04-18T08:11:22Z</time></trkpt><trkpt lat="43.54968084405683" lon="10.720524573440283"><ele>137.0</ele><time>2026-04-18T08:11:23Z</time></trkpt><trkpt lat="43.54967584112227" lon="10.720668337522524"><ele>136.0</ele><time>2026-04-18T08:11:24Z</time></trkpt><trkpt lat="43.54966020581989" lon="10.720847071316232"><ele>135.0</ele><time>2026-04-18T08:11:25Z</time></trkpt><trkpt lat="43.54966026661332" lon="10.721012987099824"><ele>134.0</ele><time>2026-04-18T08:11:26Z</time></trkpt><trkpt lat="43.549653512158045" lon="10.721172205038254"><ele>134.0</ele><time>2026-04-18T08:11:27Z</time></trkpt><trkpt lat="43.54962419627166" lon="10.721289215716839"><ele>134.0</ele><time>2026-04-18T08:11:28Z</time></trkpt><trkpt lat="43.549604890612954" lon="10.721381775772333"><ele>134.0</ele><time>2026-04-18T08:11:29Z</time></trkpt><trkpt lat="43.549575052530834" lon="10.721526220113727"><ele>134.0</ele><time>2026-04-18T08:11:31Z</time></trkpt><trkpt lat="43.5496042168089" lon="10.721629334314745"><ele>134.0</ele><time>2026-04-18T08:11:32Z</time></trkpt><trkpt lat="43.54961778855609" lon="10.72173538207875"><ele>134.0</ele><time>2026-04-18T08:11:33Z</time></trkpt><trkpt lat="43.54965103466352" lon="10.721822910052394"><ele>134.4</ele><time>2026-04-18T08:11:34Z</time></trkpt><trkpt lat="43.5497005774728" lon="10.721922684094535"><ele>134.8</ele><time>2026-04-18T08:11:35Z</time></trkpt><trkpt lat="43.549730075370704" lon="10.722063052703637"><ele>135.2</ele><time>2026-04-18T08:11:36Z</time></trkpt><trkpt lat="43.549792247787366" lon="10.722202387863183"><ele>135.6</ele><time>2026-04-18T08:11:37Z</time></trkpt><trkpt lat="43.549813405765" lon="10.722345409471405"><ele>136.0</ele><time>2026-04-18T08:11:38Z</time></trkpt><trkpt lat="43.54984486631979" lon="10.722466996300488"><ele>136.0</ele><time>2026-04-18T08:11:39Z</time></trkpt><trkpt lat="43.54990256503169" lon="10.722568868670498"><ele>136.0</ele><time>2026-04-18T08:11:40Z</time></trkpt><trkpt lat="43.54991149857374" lon="10.72269737139503"><ele>136.0</ele><time>2026-04-18T08:11:41Z</time></trkpt><trkpt lat="43.549820414763445" lon="10.722827191476327"><ele>136.0</ele><time>2026-04-18T08:11:42Z</time></trkpt><trkpt lat="43.54982744635494" lon="10.722955536243616"><ele>136.0</ele><time>2026-04-18T08:11:43Z</time></trkpt><trkpt lat="43.549889190834136" lon="10.723071876336842"><ele>135.25</ele><time>2026-04-18T08:11:44Z</time></trkpt><trkpt lat="43.54994067404575" lon="10.72319425584464"><ele>134.5</ele><time>2026-04-18T08:11:45Z</time></trkpt><trkpt lat="43.54997862245597" lon="10.723352330464255"><ele>133.75</ele><time>2026-04-18T08:11:46Z</time></trkpt><trkpt lat="43.55000065528069" lon="10.723522202808471"><ele>133.0</ele><time>2026-04-18T08:11:47Z</time></trkpt><trkpt lat="43.55002086584511" lon="10.723706209055203"><ele>130.25</ele><time>2026-04-18T08:11:48Z</time></trkpt><trkpt lat="43.550092679172444" lon="10.72388861656799"><ele>127.5</ele><time>2026-04-18T08:11:49Z</time></trkpt><trkpt lat="43.5501816886933" lon="10.724045648017697"><ele>124.75</ele><time>2026-04-18T08:11:50Z</time></trkpt><trkpt lat="43.55025915271369" lon="10.724181887415696"><ele>122.0</ele><time>2026-04-18T08:11:51Z</time></trkpt><trkpt lat="43.5503547738297" lon="10.724282678091091"><ele>123.0</ele><time>2026-04-18T08:11:52Z</time></trkpt><trkpt lat="43.55041672442656" lon="10.724310274873337"><ele>124.0</ele><time>2026-04-18T08:11:53Z</time></trkpt><trkpt lat="43.55050490738468" lon="10.72429441982215"><ele>125.0</ele><time>2026-04-18T08:11:54Z</time></trkpt><trkpt lat="43.550651330263975" lon="10.724309016995408"><ele>126.0</ele><time>2026-04-18T08:11:55Z</time></trkpt><trkpt lat="43.5508295733871" lon="10.724338934837922"><ele>118.33333333333334</ele><time>2026-04-18T08:11:56Z</time></trkpt><trkpt lat="43.551052143617824" lon="10.724398456317838"><ele>110.66666666666667</ele><time>2026-04-18T08:11:57Z</time></trkpt><trkpt lat="43.55123785893336" lon="10.72446076256387"><ele>103.0</ele><time>2026-04-18T08:11:58Z</time></trkpt><trkpt lat="43.551408411644076" lon="10.724521614959283"><ele>102.33333333333334</ele><time>2026-04-18T08:11:59Z</time></trkpt><trkpt lat="43.551555866334084" lon="10.72457790402167"><ele>101.66666666666666</ele><time>2026-04-18T08:12:00Z</time></trkpt><trkpt lat="43.551700069587746" lon="10.724626611210656"><ele>101.0</ele><time>2026-04-18T08:12:01Z</time></trkpt><trkpt lat="43.551867282288434" lon="10.72464597928471"><ele>99.0</ele><time>2026-04-18T08:12:02Z</time></trkpt><trkpt lat="43.552048404453075" lon="10.724641249315663"><ele>97.0</ele><time>2026-04-18T08:12:03Z</time></trkpt><trkpt lat="43.55222637426715" lon="10.724610269032516"><ele>95.0</ele><time>2026-04-18T08:12:04Z</time></trkpt><trkpt lat="43.55239297505519" lon="10.724603959321279"><ele>95.0</ele><time>2026-04-18T08:12:05Z</time></trkpt><trkpt lat="43.552561598260326" lon="10.724615618754145"><ele>95.0</ele><time>2026-04-18T08:12:06Z</time></trkpt><trkpt lat="43.552749173463404" lon="10.724632803715876"><ele>95.0</ele><time>2026-04-18T08:12:07Z</time></trkpt><trkpt lat="43.55294704308913" lon="10.724675500329646"><ele>92.0</ele><time>2026-04-18T08:12:08Z</time></trkpt><trkpt lat="43.55315373541179" lon="10.724720100726662"><ele>89.0</ele><time>2026-04-18T08:12:09Z</time></trkpt><trkpt lat="43.553369362790214" lon="10.724766934242501"><ele>86.0</ele><time>2026-04-18T08:12:10Z</time></trkpt><trkpt lat="43.55356526479136" lon="10.72481583311121"><ele>84.33333333333334</ele><time>2026-04-18T08:12:11Z</time></trkpt><trkpt lat="43.553751707832205" lon="10.724863057126388"><ele>82.66666666666667</ele><time>2026-04-18T08:12:12Z</time></trkpt><trkpt lat="43.553935946657305" lon="10.72490245740089"><ele>81.0</ele><time>2026-04-18T08:12:13Z</time></trkpt><trkpt lat="43.55411374348861" lon="10.724932633485682"><ele>81.0</ele><time>2026-04-18T08:12:14Z</time></trkpt><trkpt lat="43.554289808219444" lon="10.724957806752338"><ele>81.0</ele><time>2026-04-18T08:12:15Z</time></trkpt><trkpt lat="43.55446830671744" lon="10.724956096360335"><ele>81.0</ele><time>2026-04-18T08:12:16Z</time></trkpt><trkpt lat="43.5546586476603" lon="10.724941253430847"><ele>78.0</ele><time>2026-04-18T08:12:17Z</time></trkpt><trkpt lat="43.55484014088907" lon="10.724923501861083"><ele>75.0</ele><time>2026-04-18T08:12:18Z</time></trkpt><trkpt lat="43.555015774982934" lon="10.724909445872973"><ele>72.0</ele><time>2026-04-18T08:12:19Z</time></trkpt><trkpt lat="43.55518403823182" lon="10.724904659761474"><ele>72.0</ele><time>2026-04-18T08:12:20Z</time></trkpt><trkpt lat="43.55535023261954" lon="10.724900990512925"><ele>72.0</ele><time>2026-04-18T08:12:21Z</time></trkpt><trkpt lat="43.55551732866522" lon="10.724902006074691"><ele>72.0</ele><time>2026-04-18T08:12:22Z</time></trkpt><trkpt lat="43.55569096054677" lon="10.724905089232863"><ele>70.33333333333333</ele><time>2026-04-18T08:12:23Z</time></trkpt><trkpt lat="43.55587088225844" lon="10.724918479751024"><ele>68.66666666666666</ele><time>2026-04-18T08:12:24Z</time></trkpt><trkpt lat="43.55604791957008" lon="10.724964152882219"><ele>67.0</ele><time>2026-04-18T08:12:25Z</time></trkpt><trkpt lat="43.55621802921856" lon="10.725019677757542"><ele>66.33333333333333</ele><time>2026-04-18T08:12:26Z</time></trkpt><trkpt lat="43.556377282826844" lon="10.725083090592104"><ele>65.66666666666667</ele><time>2026-04-18T08:12:27Z</time></trkpt><trkpt lat="43.55653162158007" lon="10.725144807315147"><ele>65.0</ele><time>2026-04-18T08:12:28Z</time></trkpt><trkpt lat="43.556683129205254" lon="10.72520114154493"><ele>61.75</ele><time>2026-04-18T08:12:29Z</time></trkpt><trkpt lat="43.55682891902252" lon="10.725257074724613"><ele>58.5</ele><time>2026-04-18T08:12:30Z</time></trkpt><trkpt lat="43.55697046597996" lon="10.725315987036632"><ele>55.25</ele><time>2026-04-18T08:12:31Z</time></trkpt><trkpt lat="43.55711195103298" lon="10.725382307645642"><ele>52.0</ele><time>2026-04-18T08:12:32Z</time></trkpt><trkpt lat="43.55725262520364" lon="10.725481915383003"><ele>51.33333333333333</ele><time>2026-04-18T08:12:33Z</time></trkpt><trkpt lat="43.557374090652395" lon="10.725644095591779"><ele>50.66666666666667</ele><time>2026-04-18T08:12:34Z</time></trkpt><trkpt lat="43.55749896301104" lon="10.725816425261538"><ele>50.0</ele><time>2026-04-18T08:12:35Z</time></trkpt><trkpt lat="43.557615211808034" lon="10.7259964456745"><ele>49.333333333333336</ele><time>2026-04-18T08:12:36Z</time></trkpt><trkpt lat="43.557736388585674" lon="10.72618916934381"><ele>48.66666666666667</ele><time>2026-04-18T08:12:37Z</time></trkpt><trkpt lat="43.55786497265396" lon="10.726393673773213"><ele>48.0</ele><time>2026-04-18T08:12:38Z</time></trkpt><trkpt lat="43.55799803158856" lon="10.72660529515308"><ele>47.666666666666664</ele><time>2026-04-18T08:12:39Z</time></trkpt><trkpt lat="43.55813659400082" lon="10.726797911043315"><ele>47.33333333333333</ele><time>2026-04-18T08:12:40Z</time></trkpt><trkpt lat="43.55825210141433" lon="10.727008492370135"><ele>47.0</ele><time>2026-04-18T08:12:41Z</time></trkpt><trkpt lat="43.55837631797063" lon="10.727207150302517"><ele>47.0</ele><time>2026-04-18T08:12:42Z</time></trkpt><trkpt lat="43.55850036038376" lon="10.727404803771012"><ele>47.0</ele><time>2026-04-18T08:12:43Z</time></trkpt><trkpt lat="43.55863022046318" lon="10.72760072395339"><ele>47.0</ele><time>2026-04-18T08:12:44Z</time></trkpt><trkpt lat="43.55875740803076" lon="10.727794764881088"><ele>47.0</ele><time>2026-04-18T08:12:45Z</time></trkpt><trkpt lat="43.55887834182163" lon="10.72799335112107"><ele>47.0</ele><time>2026-04-18T08:12:46Z</time></trkpt><trkpt lat="43.55899675111705" lon="10.728191065906996"><ele>47.0</ele><time>2026-04-18T08:12:47Z</time></trkpt><trkpt lat="43.55911794757774" lon="10.728385454025853"><ele>47.666666666666664</ele><time>2026-04-18T08:12:48Z</time></trkpt><trkpt lat="43.55923848513257" lon="10.728578860887197"><ele>48.33333333333333</ele><time>2026-04-18T08:12:49Z</time></trkpt><trkpt lat="43.559370101535585" lon="10.72877759738561"><ele>49.0</ele><time>2026-04-18T08:12:50Z</time></trkpt><trkpt lat="43.55949957397436" lon="10.728980335447341"><ele>47.666666666666664</ele><time>2026-04-18T08:12:51Z</time></trkpt><trkpt lat="43.55962786380968" lon="10.729186859406655"><ele>46.33333333333333</ele><time>2026-04-18T08:12:52Z</time></trkpt><trkpt lat="43.559756299629036" lon="10.729385591297012"><ele>45.0</ele><time>2026-04-18T08:12:53Z</time></trkpt><trkpt lat="43.55988062168318" lon="10.729583193328175"><ele>45.0</ele><time>2026-04-18T08:12:54Z</time></trkpt><trkpt lat="43.56000013462067" lon="10.729773670625006"><ele>45.0</ele><time>2026-04-18T08:12:55Z</time></trkpt><trkpt lat="43.560123555779704" lon="10.729966125300626"><ele>45.0</ele><time>2026-04-18T08:12:56Z</time></trkpt><trkpt lat="43.560249478361676" lon="10.730161912458781"><ele>45.0</ele><time>2026-04-18T08:12:57Z</time></trkpt><trkpt lat="43.56036742551115" lon="10.730380906997055"><ele>45.0</ele><time>2026-04-18T08:12:58Z</time></trkpt><trkpt lat="43.56049652120544" lon="10.730586081706855"><ele>45.0</ele><time>2026-04-18T08:12:59Z</time></trkpt><trkpt lat="43.56063820057764" lon="10.730781256869987"><ele>45.0</ele><time>2026-04-18T08:13:00Z</time></trkpt><trkpt lat="43.56076566832841" lon="10.730995406764873"><ele>45.0</ele><time>2026-04-18T08:13:01Z</time></trkpt><trkpt lat="43.56089601987487" lon="10.731205688357953"><ele>45.0</ele><time>2026-04-18T08:13:02Z</time></trkpt><trkpt lat="43.56102938868682" lon="10.731416944489654"><ele>45.0</ele><time>2026-04-18T08:13:03Z</time></trkpt><trkpt lat="43.561166304885646" lon="10.731627761645651"><ele>45.0</ele><time>2026-04-18T08:13:04Z</time></trkpt><trkpt lat="43.56130048158895" lon="10.731841119926084"><ele>45.0</ele><time>2026-04-18T08:13:05Z</time></trkpt><trkpt lat="43.56143729866687" lon="10.732061538952697"><ele>45.0</ele><time>2026-04-18T08:13:06Z</time></trkpt><trkpt lat="43.561573787477556" lon="10.732283330046462"><ele>45.0</ele><time>2026-04-18T08:13:07Z</time></trkpt><trkpt lat="43.561711400136936" lon="10.732503580733923"><ele>45.0</ele><time>2026-04-18T08:13:08Z</time></trkpt><trkpt lat="43.56185215796325" lon="10.732725872915465"><ele>45.333333333333336</ele><time>2026-04-18T08:13:09Z</time></trkpt><trkpt lat="43.561992635950325" lon="10.732947254325024"><ele>45.66666666666667</ele><time>2026-04-18T08:13:10Z</time></trkpt><trkpt lat="43.562132880979064" lon="10.733171859436323"><ele>46.0</ele><time>2026-04-18T08:13:11Z</time></trkpt><trkpt lat="43.562269496931975" lon="10.733394558108236"><ele>46.333333333333336</ele><time>2026-04-18T08:13:12Z</time></trkpt><trkpt lat="43.56239828117692" lon="10.733604994582668"><ele>46.666666666666664</ele><time>2026-04-18T08:13:13Z</time></trkpt><trkpt lat="43.56252506746914" lon="10.733808122764946"><ele>47.0</ele><time>2026-04-18T08:13:14Z</time></trkpt><trkpt lat="43.562649689559144" lon="10.734008291894611"><ele>47.0</ele><time>2026-04-18T08:13:15Z</time></trkpt><trkpt lat="43.56276967874456" lon="10.73420374566424"><ele>47.0</ele><time>2026-04-18T08:13:16Z</time></trkpt><trkpt lat="43.562890984127996" lon="10.734401436019576"><ele>47.0</ele><time>2026-04-18T08:13:17Z</time></trkpt><trkpt lat="43.563011214524124" lon="10.734616052542304"><ele>47.0</ele><time>2026-04-18T08:13:18Z</time></trkpt><trkpt lat="43.56312787011977" lon="10.734838701018614"><ele>47.0</ele><time>2026-04-18T08:13:19Z</time></trkpt><trkpt lat="43.563233698739324" lon="10.735071847806488"><ele>47.0</ele><time>2026-04-18T08:13:20Z</time></trkpt><trkpt lat="43.56333082749901" lon="10.735315600375184"><ele>47.0</ele><time>2026-04-18T08:13:21Z</time></trkpt><trkpt lat="43.563424712001286" lon="10.735561074662273"><ele>47.0</ele><time>2026-04-18T08:13:22Z</time></trkpt><trkpt lat="43.5635261997892" lon="10.735805430418225"><ele>47.0</ele><time>2026-04-18T08:13:23Z</time></trkpt><trkpt lat="43.56363212949332" lon="10.736047808042587"><ele>47.33333333333333</ele><time>2026-04-18T08:13:24Z</time></trkpt><trkpt lat="43.56373574532589" lon="10.73629029382332"><ele>47.666666666666664</ele><time>2026-04-18T08:13:25Z</time></trkpt><trkpt lat="43.563836823896565" lon="10.736532685982999"><ele>48.0</ele><time>2026-04-18T08:13:26Z</time></trkpt><trkpt lat="43.563939791942715" lon="10.736772554491811"><ele>48.0</ele><time>2026-04-18T08:13:27Z</time></trkpt><trkpt lat="43.56404004009894" lon="10.737011633559193"><ele>48.0</ele><time>2026-04-18T08:13:28Z</time></trkpt><trkpt lat="43.56414134139106" lon="10.737251514406283"><ele>48.0</ele><time>2026-04-18T08:13:29Z</time></trkpt><trkpt lat="43.564241827675666" lon="10.737484094198923"><ele>48.0</ele><time>2026-04-18T08:13:30Z</time></trkpt><trkpt lat="43.564338552818114" lon="10.737715970965956"><ele>48.0</ele><time>2026-04-18T08:13:31Z</time></trkpt><trkpt lat="43.56443470300171" lon="10.737944652055837"><ele>48.0</ele><time>2026-04-18T08:13:32Z</time></trkpt><trkpt lat="43.56452770727004" lon="10.738165976614356"><ele>48.33333333333333</ele><time>2026-04-18T08:13:33Z</time></trkpt><trkpt lat="43.56461408921327" lon="10.73836859021006"><ele>48.666666666666664</ele><time>2026-04-18T08:13:34Z</time></trkpt><trkpt lat="43.56469698127197" lon="10.738558186395881"><ele>49.0</ele><time>2026-04-18T08:13:35Z</time></trkpt><trkpt lat="43.56478336510427" lon="10.738714943914673"><ele>49.400000000000006</ele><time>2026-04-18T08:13:36Z</time></trkpt><trkpt lat="43.56487114337586" lon="10.738850580383431"><ele>49.8</ele><time>2026-04-18T08:13:37Z</time></trkpt><trkpt lat="43.56495279889705" lon="10.738964182002723"><ele>50.2</ele><time>2026-04-18T08:13:38Z</time></trkpt><trkpt lat="43.565019326236126" lon="10.739077764723996"><ele>50.599999999999994</ele><time>2026-04-18T08:13:39Z</time></trkpt><trkpt lat="43.56507397469741" lon="10.739170912766197"><ele>51.0</ele><time>2026-04-18T08:13:40Z</time></trkpt><trkpt lat="43.56507461275072" lon="10.739302848026323"><ele>51.4</ele><time>2026-04-18T08:13:41Z</time></trkpt><trkpt lat="43.5650523178659" lon="10.739402755676027"><ele>51.8</ele><time>2026-04-18T08:13:42Z</time></trkpt><trkpt lat="43.56501290700007" lon="10.739511725418673"><ele>52.199999999999996</ele><time>2026-04-18T08:13:43Z</time></trkpt><trkpt lat="43.564942124754246" lon="10.739642623020053"><ele>52.599999999999994</ele><time>2026-04-18T08:13:44Z</time></trkpt><trkpt lat="43.56486387167558" lon="10.739782278779764"><ele>53.0</ele><time>2026-04-18T08:13:45Z</time></trkpt><trkpt lat="43.56477624735863" lon="10.739942123981834"><ele>53.0</ele><time>2026-04-18T08:13:46Z</time></trkpt><trkpt lat="43.564680010341675" lon="10.740112253140234"><ele>53.0</ele><time>2026-04-18T08:13:47Z</time></trkpt><trkpt lat="43.564576170248515" lon="10.740299925426667"><ele>53.0</ele><time>2026-04-18T08:13:48Z</time></trkpt><trkpt lat="43.56446578991208" lon="10.740497130009874"><ele>52.333333333333336</ele><time>2026-04-18T08:13:49Z</time></trkpt><trkpt lat="43.56434870051859" lon="10.74070242167145"><ele>51.66666666666667</ele><time>2026-04-18T08:13:50Z</time></trkpt><trkpt lat="43.5642306984543" lon="10.740913976340329"><ele>51.0</ele><time>2026-04-18T08:13:51Z</time></trkpt><trkpt lat="43.56410926564301" lon="10.741133104550832"><ele>53.0</ele><time>2026-04-18T08:13:52Z</time></trkpt><trkpt lat="43.563989211524444" lon="10.74134491974554"><ele>55.0</ele><time>2026-04-18T08:13:53Z</time></trkpt><trkpt lat="43.56387344464775" lon="10.741547459880858"><ele>57.0</ele><time>2026-04-18T08:13:54Z</time></trkpt><trkpt lat="43.563758595509086" lon="10.741753464318744"><ele>56.33333333333333</ele><time>2026-04-18T08:13:55Z</time></trkpt><trkpt lat="43.56364272857348" lon="10.741966933885097"><ele>55.666666666666664</ele><time>2026-04-18T08:13:56Z</time></trkpt><trkpt lat="43.56352192345835" lon="10.742187600279566"><ele>55.0</ele><time>2026-04-18T08:13:57Z</time></trkpt><trkpt lat="43.5633957643668" lon="10.742404037637089"><ele>55.0</ele><time>2026-04-18T08:13:58Z</time></trkpt><trkpt lat="43.56327352821251" lon="10.742623796916067"><ele>55.0</ele><time>2026-04-18T08:13:59Z</time></trkpt><trkpt lat="43.56314781221408" lon="10.742845882325124"><ele>55.0</ele><time>2026-04-18T08:14:00Z</time></trkpt><trkpt lat="43.56302204095216" lon="10.74307286919198"><ele>55.0</ele><time>2026-04-18T08:14:01Z</time></trkpt><trkpt lat="43.56289371490097" lon="10.743298901513864"><ele>55.0</ele><time>2026-04-18T08:14:02Z</time></trkpt><trkpt lat="43.56277109077663" lon="10.743513222928252"><ele>55.0</ele><time>2026-04-18T08:14:03Z</time></trkpt><trkpt lat="43.562658586278765" lon="10.743704791656038"><ele>55.0</ele><time>2026-04-18T08:14:04Z</time></trkpt><trkpt lat="43.562558676666136" lon="10.743888414849325"><ele>55.0</ele><time>2026-04-18T08:14:05Z</time></trkpt><trkpt lat="43.56246719770373" lon="10.744079153309787"><ele>55.0</ele><time>2026-04-18T08:14:06Z</time></trkpt><trkpt lat="43.56238958154447" lon="10.744279323150916"><ele>56.0</ele><time>2026-04-18T08:14:07Z</time></trkpt><trkpt lat="43.56232399039495" lon="10.74448814600226"><ele>57.0</ele><time>2026-04-18T08:14:08Z</time></trkpt><trkpt lat="43.5622640825043" lon="10.74469945978895"><ele>58.0</ele><time>2026-04-18T08:14:09Z</time></trkpt><trkpt lat="43.56222883798295" lon="10.744923460486945"><ele>58.0</ele><time>2026-04-18T08:14:10Z</time></trkpt><trkpt lat="43.562194404180296" lon="10.74515402706354"><ele>58.0</ele><time>2026-04-18T08:14:11Z</time></trkpt><trkpt lat="43.562169997339346" lon="10.745380726638217"><ele>58.0</ele><time>2026-04-18T08:14:12Z</time></trkpt><trkpt lat="43.562158853540836" lon="10.74560785615838"><ele>58.0</ele><time>2026-04-18T08:14:13Z</time></trkpt><trkpt lat="43.56213372936261" lon="10.745830460280763"><ele>58.0</ele><time>2026-04-18T08:14:14Z</time></trkpt><trkpt lat="43.56214674926074" lon="10.746046338742682"><ele>58.0</ele><time>2026-04-18T08:14:15Z</time></trkpt><trkpt lat="43.56214961517716" lon="10.746256065992538"><ele>56.0</ele><time>2026-04-18T08:14:16Z</time></trkpt><trkpt lat="43.562162427245724" lon="10.746464509676766"><ele>54.0</ele><time>2026-04-18T08:14:17Z</time></trkpt><trkpt lat="43.56221958862264" lon="10.746870075806097"><ele>53.33333333333333</ele><time>2026-04-18T08:14:19Z</time></trkpt><trkpt lat="43.56226943471089" lon="10.747073890714317"><ele>52.666666666666664</ele><time>2026-04-18T08:14:20Z</time></trkpt><trkpt lat="43.562325277646025" lon="10.747265155036459"><ele>52.0</ele><time>2026-04-18T08:14:21Z</time></trkpt><trkpt lat="43.56238249454534" lon="10.747448063348239"><ele>52.5</ele><time>2026-04-18T08:14:22Z</time></trkpt><trkpt lat="43.56250708669816" lon="10.747816853502414"><ele>53.0</ele><time>2026-04-18T08:14:24Z</time></trkpt><trkpt lat="43.562571602215705" lon="10.748013708716226"><ele>53.0</ele><time>2026-04-18T08:14:25Z</time></trkpt><trkpt lat="43.56263482034766" lon="10.748207096986672"><ele>53.0</ele><time>2026-04-18T08:14:26Z</time></trkpt><trkpt lat="43.56268874547569" lon="10.748382778729566"><ele>53.0</ele><time>2026-04-18T08:14:28Z</time></trkpt><trkpt lat="43.562718761690334" lon="10.748473690262575"><ele>53.0</ele><time>2026-04-18T08:14:29Z</time></trkpt><trkpt lat="43.56274093843007" lon="10.748631878799337"><ele>52.8</ele><time>2026-04-18T08:14:31Z</time></trkpt><trkpt lat="43.562757267284084" lon="10.748763096021522"><ele>52.599999999999994</ele><time>2026-04-18T08:14:33Z</time></trkpt><trkpt lat="43.562640533022154" lon="10.748875566791773"><ele>52.400000000000006</ele><time>2026-04-18T08:14:34Z</time></trkpt><trkpt lat="43.56256308607456" lon="10.748931863636471"><ele>52.2</ele><time>2026-04-18T08:14:35Z</time></trkpt><trkpt lat="43.562464194904564" lon="10.748962705554808"><ele>52.0</ele><time>2026-04-18T08:14:36Z</time></trkpt><trkpt lat="43.56236901590259" lon="10.748960914032759"><ele>52.0</ele><time>2026-04-18T08:14:37Z</time></trkpt><trkpt lat="43.56228416724933" lon="10.748939462348888"><ele>52.0</ele><time>2026-04-18T08:14:38Z</time></trkpt><trkpt lat="43.562197577048494" lon="10.748921120561164"><ele>52.0</ele><time>2026-04-18T08:14:39Z</time></trkpt><trkpt lat="43.562107181899435" lon="10.748900233880486"><ele>52.0</ele><time>2026-04-18T08:14:40Z</time></trkpt><trkpt lat="43.56200875728009" lon="10.748876300927858"><ele>52.0</ele><time>2026-04-18T08:14:41Z</time></trkpt><trkpt lat="43.56190087705098" lon="10.748852712156083"><ele>51.5</ele><time>2026-04-18T08:14:42Z</time></trkpt><trkpt lat="43.561787472582616" lon="10.748831738109907"><ele>51.0</ele><time>2026-04-18T08:14:43Z</time></trkpt><trkpt lat="43.56166229835064" lon="10.74881033246941"><ele>50.5</ele><time>2026-04-18T08:14:44Z</time></trkpt><trkpt lat="43.5615356610053" lon="10.74879387567762"><ele>50.0</ele><time>2026-04-18T08:14:45Z</time></trkpt><trkpt lat="43.561415288085975" lon="10.748783751844753"><ele>50.0</ele><time>2026-04-18T08:14:46Z</time></trkpt><trkpt lat="43.561306106103764" lon="10.748775185111224"><ele>50.0</ele><time>2026-04-18T08:14:47Z</time></trkpt><trkpt lat="43.5612004058479" lon="10.74880011197627"><ele>50.0</ele><time>2026-04-18T08:14:48Z</time></trkpt><trkpt lat="43.56108504217949" lon="10.748830898489384"><ele>50.0</ele><time>2026-04-18T08:14:49Z</time></trkpt><trkpt lat="43.56096702368175" lon="10.748871210579997"><ele>50.5</ele><time>2026-04-18T08:14:50Z</time></trkpt><trkpt lat="43.56083844809389" lon="10.74891235615373"><ele>51.0</ele><time>2026-04-18T08:14:51Z</time></trkpt><trkpt lat="43.560694006877064" lon="10.74895193995892"><ele>51.5</ele><time>2026-04-18T08:14:52Z</time></trkpt><trkpt lat="43.560543246011754" lon="10.748991742751794"><ele>52.0</ele><time>2026-04-18T08:14:53Z</time></trkpt><trkpt lat="43.56039805089643" lon="10.749027542531886"><ele>51.75</ele><time>2026-04-18T08:14:54Z</time></trkpt><trkpt lat="43.56026758302887" lon="10.749055731809584"><ele>51.5</ele><time>2026-04-18T08:14:55Z</time></trkpt><trkpt lat="43.56014250209284" lon="10.74909084056193"><ele>51.25</ele><time>2026-04-18T08:14:56Z</time></trkpt><trkpt lat="43.560026233905596" lon="10.749126280798123"><ele>51.0</ele><time>2026-04-18T08:14:57Z</time></trkpt><trkpt lat="43.55991022109387" lon="10.749160300703823"><ele>51.0</ele><time>2026-04-18T08:14:58Z</time></trkpt><trkpt lat="43.55979124637654" lon="10.749210159220786"><ele>51.0</ele><time>2026-04-18T08:14:59Z</time></trkpt><trkpt lat="43.55967823425081" lon="10.749283562891932"><ele>51.0</ele><time>2026-04-18T08:15:00Z</time></trkpt><trkpt lat="43.55956908037699" lon="10.749393427120635"><ele>51.0</ele><time>2026-04-18T08:15:01Z</time></trkpt><trkpt lat="43.559477907023044" lon="10.749531721666584"><ele>51.0</ele><time>2026-04-18T08:15:02Z</time></trkpt><trkpt lat="43.559400246355025" lon="10.749669982913591"><ele>51.0</ele><time>2026-04-18T08:15:03Z</time></trkpt><trkpt lat="43.55930431513664" lon="10.749787104359394"><ele>51.0</ele><time>2026-04-18T08:15:04Z</time></trkpt><trkpt lat="43.55921449987903" lon="10.749937713554408"><ele>51.0</ele><time>2026-04-18T08:15:05Z</time></trkpt><trkpt lat="43.5591356329766" lon="10.750065723662576"><ele>51.0</ele><time>2026-04-18T08:15:06Z</time></trkpt><trkpt lat="43.55904841116459" lon="10.750175035277888"><ele>51.0</ele><time>2026-04-18T08:15:07Z</time></trkpt><trkpt lat="43.558970192319876" lon="10.750272994779767"><ele>51.0</ele><time>2026-04-18T08:15:08Z</time></trkpt><trkpt lat="43.558905535961" lon="10.750351504134128"><ele>51.0</ele><time>2026-04-18T08:15:09Z</time></trkpt><trkpt lat="43.55885119566599" lon="10.750399667030216"><ele>51.0</ele><time>2026-04-18T08:15:10Z</time></trkpt><trkpt lat="43.55889501301808" lon="10.750572292955468"><ele>52.0</ele><time>2026-04-18T08:15:12Z</time></trkpt><trkpt lat="43.558937068802805" lon="10.7506811908804"><ele>53.0</ele><time>2026-04-18T08:15:13Z</time></trkpt><trkpt lat="43.55899545863279" lon="10.750791553891863"><ele>53.99999999999999</ele><time>2026-04-18T08:15:14Z</time></trkpt><trkpt lat="43.559045438568454" lon="10.750892186886617"><ele>55.0</ele><time>2026-04-18T08:15:15Z</time></trkpt><trkpt lat="43.55909755888534" lon="10.751008138952699"><ele>56.0</ele><time>2026-04-18T08:15:16Z</time></trkpt><trkpt lat="43.55913121211144" lon="10.751147926947239"><ele>57.25</ele><time>2026-04-18T08:15:17Z</time></trkpt><trkpt lat="43.5591460903892" lon="10.751313508870004"><ele>58.5</ele><time>2026-04-18T08:15:18Z</time></trkpt><trkpt lat="43.55915963913389" lon="10.751500741797617"><ele>59.75</ele><time>2026-04-18T08:15:19Z</time></trkpt><trkpt lat="43.559175887509824" lon="10.751701164796428"><ele>61.0</ele><time>2026-04-18T08:15:20Z</time></trkpt><trkpt lat="43.559187620689634" lon="10.751878981571798"><ele>62.0</ele><time>2026-04-18T08:15:21Z</time></trkpt><trkpt lat="43.55918619715985" lon="10.752008199937158"><ele>62.99999999999999</ele><time>2026-04-18T08:15:22Z</time></trkpt><trkpt lat="43.559163891141196" lon="10.752095595556355"><ele>63.99999999999999</ele><time>2026-04-18T08:15:23Z</time></trkpt><trkpt lat="43.55912399469757" lon="10.752174343103183"><ele>65.0</ele><time>2026-04-18T08:15:24Z</time></trkpt><trkpt lat="43.55903162665283" lon="10.752216143718082"><ele>66.0</ele><time>2026-04-18T08:15:25Z</time></trkpt><trkpt lat="43.55891266910922" lon="10.752264899300405"><ele>66.0</ele><time>2026-04-18T08:15:26Z</time></trkpt><trkpt lat="43.558803054158666" lon="10.752315775981321"><ele>66.0</ele><time>2026-04-18T08:15:27Z</time></trkpt><trkpt lat="43.55870161395893" lon="10.752376160239217"><ele>66.0</ele><time>2026-04-18T08:15:28Z</time></trkpt><trkpt lat="43.558635704773366" lon="10.752465953552473"><ele>66.0</ele><time>2026-04-18T08:15:29Z</time></trkpt><trkpt lat="43.558585579635874" lon="10.75259993920482"><ele>66.0</ele><time>2026-04-18T08:15:30Z</time></trkpt><trkpt lat="43.558546753358875" lon="10.752782751326363"><ele>67.75</ele><time>2026-04-18T08:15:31Z</time></trkpt><trkpt lat="43.55851863112588" lon="10.75297415710215"><ele>69.5</ele><time>2026-04-18T08:15:32Z</time></trkpt><trkpt lat="43.558502406006184" lon="10.753167036470053"><ele>71.25</ele><time>2026-04-18T08:15:33Z</time></trkpt><trkpt lat="43.55849326620765" lon="10.753368316775864"><ele>73.0</ele><time>2026-04-18T08:15:34Z</time></trkpt><trkpt lat="43.558466084092444" lon="10.75357462389284"><ele>76.33333333333333</ele><time>2026-04-18T08:15:35Z</time></trkpt><trkpt lat="43.55844079829913" lon="10.75378545124527"><ele>79.66666666666667</ele><time>2026-04-18T08:15:36Z</time></trkpt><trkpt lat="43.55838822461316" lon="10.753989313556199"><ele>83.0</ele><time>2026-04-18T08:15:37Z</time></trkpt><trkpt lat="43.55835081724285" lon="10.75420706213354"><ele>85.33333333333334</ele><time>2026-04-18T08:15:38Z</time></trkpt><trkpt lat="43.55830717842652" lon="10.754429471713241"><ele>87.66666666666667</ele><time>2026-04-18T08:15:39Z</time></trkpt><trkpt lat="43.55826893233714" lon="10.754653359418272"><ele>90.0</ele><time>2026-04-18T08:15:40Z</time></trkpt><trkpt lat="43.55821387763757" lon="10.754861012990203"><ele>90.0</ele><time>2026-04-18T08:15:41Z</time></trkpt><trkpt lat="43.558168474851236" lon="10.755071982534968"><ele>90.0</ele><time>2026-04-18T08:15:42Z</time></trkpt><trkpt lat="43.558114738235034" lon="10.755253418983427"><ele>90.0</ele><time>2026-04-18T08:15:43Z</time></trkpt><trkpt lat="43.55803782175264" lon="10.755411208809425"><ele>90.0</ele><time>2026-04-18T08:15:44Z</time></trkpt><trkpt lat="43.557951986611265" lon="10.755578955019434"><ele>90.0</ele><time>2026-04-18T08:15:45Z</time></trkpt><trkpt lat="43.55787025050352" lon="10.75575754436648"><ele>90.0</ele><time>2026-04-18T08:15:46Z</time></trkpt><trkpt lat="43.55780652732264" lon="10.755913291289515"><ele>90.0</ele><time>2026-04-18T08:15:47Z</time></trkpt><trkpt lat="43.55776756142636" lon="10.756044409109503"><ele>90.0</ele><time>2026-04-18T08:15:48Z</time></trkpt><trkpt lat="43.5577660491454" lon="10.756190015757674"><ele>90.5</ele><time>2026-04-18T08:15:49Z</time></trkpt><trkpt lat="43.55782179062898" lon="10.756336044178871"><ele>91.0</ele><time>2026-04-18T08:15:50Z</time></trkpt><trkpt lat="43.55789634514013" lon="10.756479851440961"><ele>91.5</ele><time>2026-04-18T08:15:51Z</time></trkpt><trkpt lat="43.55793303624767" lon="10.756666692853058"><ele>92.0</ele><time>2026-04-18T08:15:52Z</time></trkpt><trkpt lat="43.55795747768813" lon="10.756852495308014"><ele>93.5</ele><time>2026-04-18T08:15:53Z</time></trkpt><trkpt lat="43.55795939037906" lon="10.757017330238916"><ele>95.0</ele><time>2026-04-18T08:15:54Z</time></trkpt><trkpt lat="43.557948480799716" lon="10.757182781129858"><ele>96.5</ele><time>2026-04-18T08:15:55Z</time></trkpt><trkpt lat="43.55792077547091" lon="10.75736956476036"><ele>98.0</ele><time>2026-04-18T08:15:56Z</time></trkpt><trkpt lat="43.55788574490271" lon="10.757574366479146"><ele>98.66666666666666</ele><time>2026-04-18T08:15:57Z</time></trkpt><trkpt lat="43.55785910470936" lon="10.757805204762374"><ele>99.33333333333334</ele><time>2026-04-18T08:15:58Z</time></trkpt><trkpt lat="43.557814764911846" lon="10.758039033375205"><ele>100.0</ele><time>2026-04-18T08:15:59Z</time></trkpt><trkpt lat="43.55776956084531" lon="10.758264164389546"><ele>100.0</ele><time>2026-04-18T08:16:00Z</time></trkpt><trkpt lat="43.55771460457976" lon="10.758470313876305"><ele>100.0</ele><time>2026-04-18T08:16:01Z</time></trkpt><trkpt lat="43.55763326477061" lon="10.758666868711117"><ele>100.0</ele><time>2026-04-18T08:16:02Z</time></trkpt><trkpt lat="43.55753501685817" lon="10.758849093467699"><ele>103.0</ele><time>2026-04-18T08:16:03Z</time></trkpt><trkpt lat="43.55742066453309" lon="10.759020568835398"><ele>106.0</ele><time>2026-04-18T08:16:04Z</time></trkpt><trkpt lat="43.55730090854025" lon="10.759169004317663"><ele>109.0</ele><time>2026-04-18T08:16:05Z</time></trkpt><trkpt lat="43.557177600101" lon="10.75930067039667"><ele>110.2</ele><time>2026-04-18T08:16:06Z</time></trkpt><trkpt lat="43.55710100453858" lon="10.75939673339955"><ele>111.4</ele><time>2026-04-18T08:16:07Z</time></trkpt><trkpt lat="43.55705446824344" lon="10.759500714377499"><ele>112.6</ele><time>2026-04-18T08:16:08Z</time></trkpt><trkpt lat="43.55703973438416" lon="10.759614231414542"><ele>113.8</ele><time>2026-04-18T08:16:09Z</time></trkpt><trkpt lat="43.55704613682772" lon="10.759734549368272"><ele>115.0</ele><time>2026-04-18T08:16:10Z</time></trkpt><trkpt lat="43.55709060987809" lon="10.759874828990782"><ele>115.0</ele><time>2026-04-18T08:16:11.001Z</time></trkpt><trkpt lat="43.55713130118204" lon="10.760108082846516"><ele>115.0</ele><time>2026-04-18T08:16:12.001Z</time></trkpt><trkpt lat="43.557172494412185" lon="10.76032547026179"><ele>115.0</ele><time>2026-04-18T08:16:13.001Z</time></trkpt><trkpt lat="43.557219880447235" lon="10.760566996185215"><ele>116.66666666666667</ele><time>2026-04-18T08:16:14.001Z</time></trkpt><trkpt lat="43.557260931041846" lon="10.760796660967182"><ele>118.33333333333334</ele><time>2026-04-18T08:16:15.001Z</time></trkpt><trkpt lat="43.55730386911833" lon="10.761013883514394"><ele>120.0</ele><time>2026-04-18T08:16:16.001Z</time></trkpt><trkpt lat="43.557356690792545" lon="10.761243976100427"><ele>121.33333333333334</ele><time>2026-04-18T08:16:17.001Z</time></trkpt><trkpt lat="43.55740067276291" lon="10.761477440472927"><ele>122.66666666666667</ele><time>2026-04-18T08:16:18.001Z</time></trkpt><trkpt lat="43.557448572774746" lon="10.761712930709745"><ele>124.0</ele><time>2026-04-18T08:16:19.001Z</time></trkpt><trkpt lat="43.55750223032474" lon="10.761944442509687"><ele>124.75</ele><time>2026-04-18T08:16:20.001Z</time></trkpt><trkpt lat="43.5575444635511" lon="10.762176058653713"><ele>125.5</ele><time>2026-04-18T08:16:21.001Z</time></trkpt><trkpt lat="43.55757444504926" lon="10.762358361519661"><ele>126.25</ele><time>2026-04-18T08:16:22.001Z</time></trkpt><trkpt lat="43.55760360132675" lon="10.762521465934139"><ele>127.0</ele><time>2026-04-18T08:16:23.001Z</time></trkpt><trkpt lat="43.55760292384866" lon="10.762672288725206"><ele>128.25</ele><time>2026-04-18T08:16:24.001Z</time></trkpt><trkpt lat="43.55759507369515" lon="10.762838367279251"><ele>129.5</ele><time>2026-04-18T08:16:25.001Z</time></trkpt><trkpt lat="43.55758816184479" lon="10.763055714407727"><ele>130.75</ele><time>2026-04-18T08:16:26.001Z</time></trkpt><trkpt lat="43.557576004176084" lon="10.763228399512668"><ele>132.0</ele><time>2026-04-18T08:16:27.001Z</time></trkpt><trkpt lat="43.557564456252784" lon="10.763362072006482"><ele>132.0</ele><time>2026-04-18T08:16:28.001Z</time></trkpt><trkpt lat="43.557554988254196" lon="10.763508656742056"><ele>132.0</ele><time>2026-04-18T08:16:29.001Z</time></trkpt><trkpt lat="43.55757831124514" lon="10.763680864407016"><ele>132.0</ele><time>2026-04-18T08:16:30.001Z</time></trkpt><trkpt lat="43.55762304551389" lon="10.763859708173058"><ele>132.0</ele><time>2026-04-18T08:16:31.001Z</time></trkpt><trkpt lat="43.55767648879299" lon="10.764014453134088"><ele>133.75</ele><time>2026-04-18T08:16:32.001Z</time></trkpt><trkpt lat="43.557689924807974" lon="10.764165708871271"><ele>135.5</ele><time>2026-04-18T08:16:33.001Z</time></trkpt><trkpt lat="43.55762850925272" lon="10.76427396717273"><ele>137.25</ele><time>2026-04-18T08:16:34.001Z</time></trkpt><trkpt lat="43.557523676466815" lon="10.76439591215759"><ele>139.0</ele><time>2026-04-18T08:16:36.001Z</time></trkpt><trkpt lat="43.557415833903654" lon="10.764432800394237"><ele>141.0</ele><time>2026-04-18T08:16:37.001Z</time></trkpt><trkpt lat="43.55730769735124" lon="10.76451188032173"><ele>143.0</ele><time>2026-04-18T08:16:38.001Z</time></trkpt><trkpt lat="43.55723032147664" lon="10.764653263759598"><ele>145.0</ele><time>2026-04-18T08:16:39.001Z</time></trkpt><trkpt lat="43.55717127746536" lon="10.764829620632094"><ele>147.0</ele><time>2026-04-18T08:16:40.001Z</time></trkpt><trkpt lat="43.55710239144431" lon="10.765026012390052"><ele>146.66666666666666</ele><time>2026-04-18T08:16:41.001Z</time></trkpt><trkpt lat="43.557043429056996" lon="10.765229752308526"><ele>146.33333333333331</ele><time>2026-04-18T08:16:42.001Z</time></trkpt><trkpt lat="43.55698652317106" lon="10.765427154410375"><ele>146.0</ele><time>2026-04-18T08:16:43.001Z</time></trkpt><trkpt lat="43.55693303650601" lon="10.765602594625898"><ele>146.0</ele><time>2026-04-18T08:16:44.001Z</time></trkpt><trkpt lat="43.55687789869222" lon="10.765750125236321"><ele>146.0</ele><time>2026-04-18T08:16:45.001Z</time></trkpt><trkpt lat="43.55680203023475" lon="10.765870740680473"><ele>146.0</ele><time>2026-04-18T08:16:46.001Z</time></trkpt><trkpt lat="43.55670337300971" lon="10.765982987483266"><ele>146.0</ele><time>2026-04-18T08:16:47.001Z</time></trkpt><trkpt lat="43.5565887569922" lon="10.766106956256385"><ele>149.0</ele><time>2026-04-18T08:16:48.001Z</time></trkpt><trkpt lat="43.556470657133254" lon="10.766234673723204"><ele>152.0</ele><time>2026-04-18T08:16:49.001Z</time></trkpt><trkpt lat="43.556380628203556" lon="10.766361624093784"><ele>155.0</ele><time>2026-04-18T08:16:50Z</time></trkpt><trkpt lat="43.556290208612914" lon="10.766431186072131"><ele>158.0</ele><time>2026-04-18T08:16:51Z</time></trkpt><trkpt lat="43.55622268610847" lon="10.766527428804592"><ele>156.83333333333331</ele><time>2026-04-18T08:16:52Z</time></trkpt><trkpt lat="43.556134638121335" lon="10.766572135365593"><ele>155.66666666666666</ele><time>2026-04-18T08:16:53Z</time></trkpt><trkpt lat="43.55606455241775" lon="10.76657244953571"><ele>154.5</ele><time>2026-04-18T08:16:54Z</time></trkpt><trkpt lat="43.55598257721853" lon="10.766590966761447"><ele>153.33333333333334</ele><time>2026-04-18T08:16:55Z</time></trkpt><trkpt lat="43.55588690459215" lon="10.76662006886071"><ele>152.16666666666669</ele><time>2026-04-18T08:16:56Z</time></trkpt><trkpt lat="43.555809651795315" lon="10.766652548593887"><ele>151.0</ele><time>2026-04-18T08:16:57Z</time></trkpt><trkpt lat="43.5557409408661" lon="10.766678787625985"><ele>151.0</ele><time>2026-04-18T08:16:58Z</time></trkpt><trkpt lat="43.55570985655946" lon="10.766765922758415"><ele>151.0</ele><time>2026-04-18T08:16:59Z</time></trkpt><trkpt lat="43.55568448766069" lon="10.766867103559743"><ele>151.0</ele><time>2026-04-18T08:17:00Z</time></trkpt><trkpt lat="43.555697083882386" lon="10.766961970907214"><ele>151.0</ele><time>2026-04-18T08:17:01Z</time></trkpt><trkpt lat="43.55572229998227" lon="10.767071404908142"><ele>151.0</ele><time>2026-04-18T08:17:02Z</time></trkpt><trkpt lat="43.5557599565816" lon="10.767182615317372"><ele>151.0</ele><time>2026-04-18T08:17:03Z</time></trkpt><trkpt lat="43.55579663489488" lon="10.767327186696203"><ele>150.75</ele><time>2026-04-18T08:17:04Z</time></trkpt><trkpt lat="43.555855640196214" lon="10.767474167354747"><ele>150.5</ele><time>2026-04-18T08:17:05Z</time></trkpt><trkpt lat="43.555912444146045" lon="10.767641495280527"><ele>150.25</ele><time>2026-04-18T08:17:06Z</time></trkpt><trkpt lat="43.55597170375759" lon="10.767762840002964"><ele>150.0</ele><time>2026-04-18T08:17:07Z</time></trkpt><trkpt lat="43.556034834546196" lon="10.767860728577627"><ele>149.0</ele><time>2026-04-18T08:17:08Z</time></trkpt><trkpt lat="43.556065771095646" lon="10.767937778825479"><ele>148.0</ele><time>2026-04-18T08:17:09Z</time></trkpt><trkpt lat="43.556054370070626" lon="10.76802844494223"><ele>147.0</ele><time>2026-04-18T08:17:10Z</time></trkpt><trkpt lat="43.555992457734845" lon="10.76808102596642"><ele>146.0</ele><time>2026-04-18T08:17:11Z</time></trkpt><trkpt lat="43.55592771459562" lon="10.768104647268432"><ele>145.0</ele><time>2026-04-18T08:17:12Z</time></trkpt><trkpt lat="43.55576639984888" lon="10.768300169035976"><ele>145.0</ele><time>2026-04-18T08:17:14Z</time></trkpt><trkpt lat="43.55564439794686" lon="10.768450390142595"><ele>145.0</ele><time>2026-04-18T08:17:15Z</time></trkpt><trkpt lat="43.555526855718966" lon="10.768603034581387"><ele>145.0</ele><time>2026-04-18T08:17:16Z</time></trkpt><trkpt lat="43.55539482871884" lon="10.768772552427917"><ele>142.66666666666669</ele><time>2026-04-18T08:17:17Z</time></trkpt><trkpt lat="43.55524731734318" lon="10.768959045063285"><ele>140.33333333333334</ele><time>2026-04-18T08:17:18Z</time></trkpt><trkpt lat="43.555112902256134" lon="10.769128980441787"><ele>138.0</ele><time>2026-04-18T08:17:19Z</time></trkpt><trkpt lat="43.55499355702487" lon="10.76927986343098"><ele>137.25</ele><time>2026-04-18T08:17:20Z</time></trkpt><trkpt lat="43.55489786411127" lon="10.769427797655945"><ele>136.5</ele><time>2026-04-18T08:17:21Z</time></trkpt><trkpt lat="43.55479512367099" lon="10.769549112075845"><ele>135.75</ele><time>2026-04-18T08:17:22Z</time></trkpt><trkpt lat="43.55470065555931" lon="10.769662323127815"><ele>135.0</ele><time>2026-04-18T08:17:23Z</time></trkpt><trkpt lat="43.55461009054793" lon="10.769837483116705"><ele>135.0</ele><time>2026-04-18T08:17:24Z</time></trkpt><trkpt lat="43.554540728449474" lon="10.770011791652669"><ele>135.0</ele><time>2026-04-18T08:17:25Z</time></trkpt><trkpt lat="43.55447441754605" lon="10.770192917550677"><ele>135.0</ele><time>2026-04-18T08:17:26Z</time></trkpt><trkpt lat="43.55441186038642" lon="10.770373876953105"><ele>135.0</ele><time>2026-04-18T08:17:27Z</time></trkpt><trkpt lat="43.55435018113321" lon="10.770561429647474"><ele>136.75</ele><time>2026-04-18T08:17:28Z</time></trkpt><trkpt lat="43.55428551857961" lon="10.770760197547194"><ele>138.5</ele><time>2026-04-18T08:17:29Z</time></trkpt><trkpt lat="43.55422353744101" lon="10.770947628953598"><ele>140.25</ele><time>2026-04-18T08:17:30Z</time></trkpt><trkpt lat="43.5541703277047" lon="10.77110535554106"><ele>142.0</ele><time>2026-04-18T08:17:31Z</time></trkpt><trkpt lat="43.55413143993922" lon="10.771238621781512"><ele>142.0</ele><time>2026-04-18T08:17:32Z</time></trkpt><trkpt lat="43.554104189066194" lon="10.771372662172563"><ele>142.0</ele><time>2026-04-18T08:17:33Z</time></trkpt><trkpt lat="43.5541138390343" lon="10.771551431804623"><ele>142.0</ele><time>2026-04-18T08:17:34Z</time></trkpt><trkpt lat="43.55411951387511" lon="10.771764489954686"><ele>142.0</ele><time>2026-04-18T08:17:35Z</time></trkpt><trkpt lat="43.554111747509815" lon="10.771997987432998"><ele>142.0</ele><time>2026-04-18T08:17:36Z</time></trkpt><trkpt lat="43.554119646885" lon="10.772228832332365"><ele>142.0</ele><time>2026-04-18T08:17:37Z</time></trkpt><trkpt lat="43.55412740804378" lon="10.772468224748057"><ele>142.0</ele><time>2026-04-18T08:17:38Z</time></trkpt><trkpt lat="43.554134690226036" lon="10.772701667960913"><ele>143.0</ele><time>2026-04-18T08:17:39Z</time></trkpt><trkpt lat="43.55414165518674" lon="10.77292494181644"><ele>144.0</ele><time>2026-04-18T08:17:40Z</time></trkpt><trkpt lat="43.554148554539545" lon="10.773146112426938"><ele>145.0</ele><time>2026-04-18T08:17:41Z</time></trkpt><trkpt lat="43.55415601019712" lon="10.773380919047199"><ele>147.33333333333334</ele><time>2026-04-18T08:17:42Z</time></trkpt><trkpt lat="43.554167956370684" lon="10.773631652512844"><ele>149.66666666666666</ele><time>2026-04-18T08:17:43Z</time></trkpt><trkpt lat="43.554180714572325" lon="10.773876354679544"><ele>152.0</ele><time>2026-04-18T08:17:44Z</time></trkpt><trkpt lat="43.55418281601944" lon="10.774107545414843"><ele>152.0</ele><time>2026-04-18T08:17:45Z</time></trkpt><trkpt lat="43.55415145764681" lon="10.774342558752455"><ele>152.0</ele><time>2026-04-18T08:17:46Z</time></trkpt><trkpt lat="43.554124983258" lon="10.774571289665888"><ele>152.0</ele><time>2026-04-18T08:17:47Z</time></trkpt><trkpt lat="43.55411019668745" lon="10.77478847106359"><ele>153.6</ele><time>2026-04-18T08:17:48Z</time></trkpt><trkpt lat="43.55408015494377" lon="10.774967333115773"><ele>155.2</ele><time>2026-04-18T08:17:49Z</time></trkpt><trkpt lat="43.5540729291756" lon="10.775098444808316"><ele>156.8</ele><time>2026-04-18T08:17:50Z</time></trkpt><trkpt lat="43.55407235056905" lon="10.775215165035025"><ele>158.4</ele><time>2026-04-18T08:17:51Z</time></trkpt><trkpt lat="43.5541260214893" lon="10.775328663144085"><ele>160.0</ele><time>2026-04-18T08:17:52Z</time></trkpt><trkpt lat="43.55420295256176" lon="10.775459591380987"><ele>160.0</ele><time>2026-04-18T08:17:53.001Z</time></trkpt><trkpt lat="43.55430051956052" lon="10.775554223375863"><ele>160.0</ele><time>2026-04-18T08:17:54.001Z</time></trkpt><trkpt lat="43.5544243116906" lon="10.775636766994115"><ele>160.0</ele><time>2026-04-18T08:17:55.001Z</time></trkpt><trkpt lat="43.55452364888043" lon="10.775735786799887"><ele>160.0</ele><time>2026-04-18T08:17:56.001Z</time></trkpt><trkpt lat="43.5545860025837" lon="10.775858964563122"><ele>161.0</ele><time>2026-04-18T08:17:57.001Z</time></trkpt><trkpt lat="43.55463806432748" lon="10.77592934115292"><ele>162.0</ele><time>2026-04-18T08:17:58.001Z</time></trkpt><trkpt lat="43.55468748588757" lon="10.776013698152"><ele>163.0</ele><time>2026-04-18T08:17:59.001Z</time></trkpt><trkpt lat="43.55474969028692" lon="10.776131858625865"><ele>164.0</ele><time>2026-04-18T08:18:00.001Z</time></trkpt><trkpt lat="43.55483743115008" lon="10.77626945615346"><ele>165.0</ele><time>2026-04-18T08:18:01.001Z</time></trkpt><trkpt lat="43.55491399041766" lon="10.776421558864419"><ele>168.2</ele><time>2026-04-18T08:18:02.001Z</time></trkpt><trkpt lat="43.55496007584001" lon="10.776569423945283"><ele>171.4</ele><time>2026-04-18T08:18:03.001Z</time></trkpt><trkpt lat="43.554949899537384" lon="10.776695673858752"><ele>174.60000000000002</ele><time>2026-04-18T08:18:04.001Z</time></trkpt><trkpt lat="43.554940985276694" lon="10.776818425729365"><ele>177.8</ele><time>2026-04-18T08:18:05.001Z</time></trkpt><trkpt lat="43.55492383162728" lon="10.776913317816847"><ele>181.0</ele><time>2026-04-18T08:18:06.001Z</time></trkpt><trkpt lat="43.554903596845506" lon="10.777031891079789"><ele>181.4</ele><time>2026-04-18T08:18:07.001Z</time></trkpt><trkpt lat="43.55488832952318" lon="10.777166597923705"><ele>181.8</ele><time>2026-04-18T08:18:08.001Z</time></trkpt><trkpt lat="43.55487940591032" lon="10.777327742901877"><ele>182.20000000000002</ele><time>2026-04-18T08:18:09.001Z</time></trkpt><trkpt lat="43.55489033226369" lon="10.777483110486314"><ele>182.60000000000002</ele><time>2026-04-18T08:18:10.001Z</time></trkpt><trkpt lat="43.554929770144" lon="10.777616093569131"><ele>183.0</ele><time>2026-04-18T08:18:11.001Z</time></trkpt><trkpt lat="43.555028348099675" lon="10.777713039595497"><ele>183.0</ele><time>2026-04-18T08:18:12.001Z</time></trkpt><trkpt lat="43.55513832845403" lon="10.777802910278862"><ele>183.0</ele><time>2026-04-18T08:18:13.001Z</time></trkpt><trkpt lat="43.555241070049384" lon="10.77790672725171"><ele>183.0</ele><time>2026-04-18T08:18:14.001Z</time></trkpt><trkpt lat="43.55530811032484" lon="10.777985840566007"><ele>183.0</ele><time>2026-04-18T08:18:15.001Z</time></trkpt><trkpt lat="43.55535541224772" lon="10.77809238664609"><ele>183.0</ele><time>2026-04-18T08:18:17.001Z</time></trkpt><trkpt lat="43.55537078600892" lon="10.778305301073608"><ele>183.0</ele><time>2026-04-18T08:18:19.001Z</time></trkpt><trkpt lat="43.55538312330588" lon="10.77846573301344"><ele>183.0</ele><time>2026-04-18T08:18:20.001Z</time></trkpt><trkpt lat="43.5553954707353" lon="10.778637631399716"><ele>183.0</ele><time>2026-04-18T08:18:21.001Z</time></trkpt><trkpt lat="43.55540527856159" lon="10.778817389698238"><ele>183.0</ele><time>2026-04-18T08:18:22.001Z</time></trkpt><trkpt lat="43.55540155330459" lon="10.779016738117713"><ele>182.25</ele><time>2026-04-18T08:18:23.001Z</time></trkpt><trkpt lat="43.55539774133658" lon="10.779229498527362"><ele>181.5</ele><time>2026-04-18T08:18:24.001Z</time></trkpt><trkpt lat="43.55539516917387" lon="10.779424126147976"><ele>180.75</ele><time>2026-04-18T08:18:25.001Z</time></trkpt><trkpt lat="43.555414509462516" lon="10.779589664912736"><ele>180.0</ele><time>2026-04-18T08:18:26.001Z</time></trkpt><trkpt lat="43.5554095773659" lon="10.779744854623736"><ele>180.25</ele><time>2026-04-18T08:18:27.001Z</time></trkpt><trkpt lat="43.55544356607858" lon="10.779912102917859"><ele>180.5</ele><time>2026-04-18T08:18:28.001Z</time></trkpt><trkpt lat="43.55549316101767" lon="10.780080754967347"><ele>180.75</ele><time>2026-04-18T08:18:29.001Z</time></trkpt><trkpt lat="43.55555099001965" lon="10.780259167588968"><ele>181.0</ele><time>2026-04-18T08:18:30.001Z</time></trkpt><trkpt lat="43.55561243414902" lon="10.780439460481825"><ele>181.0</ele><time>2026-04-18T08:18:31.001Z</time></trkpt><trkpt lat="43.55567215379219" lon="10.780623584870275"><ele>181.0</ele><time>2026-04-18T08:18:32.001Z</time></trkpt><trkpt lat="43.55573649194006" lon="10.780802195607679"><ele>181.0</ele><time>2026-04-18T08:18:33.001Z</time></trkpt><trkpt lat="43.55577174204536" lon="10.780951347698627"><ele>181.0</ele><time>2026-04-18T08:18:34.001Z</time></trkpt><trkpt lat="43.555795667437444" lon="10.78107875622445"><ele>181.0</ele><time>2026-04-18T08:18:35.001Z</time></trkpt><trkpt lat="43.55581068586621" lon="10.78123720099745"><ele>181.0</ele><time>2026-04-18T08:18:36.001Z</time></trkpt><trkpt lat="43.555788449440016" lon="10.781417156731068"><ele>181.0</ele><time>2026-04-18T08:18:37.001Z</time></trkpt><trkpt lat="43.5557657964734" lon="10.78158498584166"><ele>181.0</ele><time>2026-04-18T08:18:38.001Z</time></trkpt><trkpt lat="43.55573835930515" lon="10.781721094966363"><ele>181.0</ele><time>2026-04-18T08:18:39.001Z</time></trkpt><trkpt lat="43.55571166013559" lon="10.781816596607337"><ele>181.0</ele><time>2026-04-18T08:18:40.001Z</time></trkpt><trkpt lat="43.5556864657486" lon="10.781911506947436"><ele>181.0</ele><time>2026-04-18T08:18:41.001Z</time></trkpt><trkpt lat="43.55565866616885" lon="10.782030067592206"><ele>181.0</ele><time>2026-04-18T08:18:42.001Z</time></trkpt><trkpt lat="43.55563560744969" lon="10.782117999291687"><ele>181.0</ele><time>2026-04-18T08:18:43.001Z</time></trkpt><trkpt lat="43.55562091671045" lon="10.78222611976594"><ele>181.0</ele><time>2026-04-18T08:18:49.001Z</time></trkpt><trkpt lat="43.555582911373996" lon="10.782423510045666"><ele>179.4</ele><time>2026-04-18T08:18:51.001Z</time></trkpt><trkpt lat="43.5555652735911" lon="10.782546613395084"><ele>177.8</ele><time>2026-04-18T08:18:52.001Z</time></trkpt><trkpt lat="43.55556177672077" lon="10.78268875529953"><ele>176.20000000000002</ele><time>2026-04-18T08:18:53.001Z</time></trkpt><trkpt lat="43.55553167292532" lon="10.782808502724512"><ele>174.60000000000002</ele><time>2026-04-18T08:18:54.001Z</time></trkpt><trkpt lat="43.55551705946911" lon="10.782954054872404"><ele>173.0</ele><time>2026-04-18T08:18:55.001Z</time></trkpt><trkpt lat="43.55550933132969" lon="10.783106789703305"><ele>171.0</ele><time>2026-04-18T08:18:56.001Z</time></trkpt><trkpt lat="43.55552213910987" lon="10.783290900645271"><ele>169.0</ele><time>2026-04-18T08:18:57.001Z</time></trkpt><trkpt lat="43.555508097520374" lon="10.783450791336296"><ele>167.0</ele><time>2026-04-18T08:18:58.001Z</time></trkpt><trkpt lat="43.55549653789654" lon="10.78358926561616"><ele>165.0</ele><time>2026-04-18T08:18:59.001Z</time></trkpt><trkpt lat="43.55547971055855" lon="10.783713681941773"><ele>163.0</ele><time>2026-04-18T08:19:00Z</time></trkpt><trkpt lat="43.5554675251665" lon="10.783837436461019"><ele>161.6</ele><time>2026-04-18T08:19:01Z</time></trkpt><trkpt lat="43.555457981088786" lon="10.783949230718072"><ele>160.20000000000002</ele><time>2026-04-18T08:19:02Z</time></trkpt><trkpt lat="43.55545581906082" lon="10.784067277005397"><ele>158.8</ele><time>2026-04-18T08:19:03Z</time></trkpt><trkpt lat="43.555474067440116" lon="10.78418358478445"><ele>157.4</ele><time>2026-04-18T08:19:04Z</time></trkpt><trkpt lat="43.555498673128454" lon="10.784308970655253"><ele>156.0</ele><time>2026-04-18T08:19:05Z</time></trkpt><trkpt lat="43.5555540552948" lon="10.784457613751867"><ele>155.6</ele><time>2026-04-18T08:19:06Z</time></trkpt><trkpt lat="43.55559223631518" lon="10.784619077682816"><ele>155.2</ele><time>2026-04-18T08:19:07Z</time></trkpt><trkpt lat="43.5556420561932" lon="10.784763534123078"><ele>154.8</ele><time>2026-04-18T08:19:08Z</time></trkpt><trkpt lat="43.55568202324564" lon="10.78488690068084"><ele>154.4</ele><time>2026-04-18T08:19:09Z</time></trkpt><trkpt lat="43.55572105792128" lon="10.784999939862477"><ele>154.0</ele><time>2026-04-18T08:19:10Z</time></trkpt><trkpt lat="43.55572506286069" lon="10.785123241833007"><ele>154.6</ele><time>2026-04-18T08:19:11Z</time></trkpt><trkpt lat="43.55571459167661" lon="10.78525239205604"><ele>155.2</ele><time>2026-04-18T08:19:12Z</time></trkpt><trkpt lat="43.5556847070781" lon="10.785400170233679"><ele>155.79999999999998</ele><time>2026-04-18T08:19:13Z</time></trkpt><trkpt lat="43.55563472006709" lon="10.785538092145277"><ele>156.4</ele><time>2026-04-18T08:19:14Z</time></trkpt><trkpt lat="43.555621710632764" lon="10.785663943339028"><ele>157.0</ele><time>2026-04-18T08:19:15Z</time></trkpt><trkpt lat="43.55563403350953" lon="10.78583827660484"><ele>157.0</ele><time>2026-04-18T08:19:17Z</time></trkpt><trkpt lat="43.55564488256635" lon="10.785937681537662"><ele>157.0</ele><time>2026-04-18T08:19:18Z</time></trkpt><trkpt lat="43.555722333891694" lon="10.785987675043797"><ele>157.0</ele><time>2026-04-18T08:19:19Z</time></trkpt><trkpt lat="43.55578667348257" lon="10.786041111272258"><ele>157.0</ele><time>2026-04-18T08:19:20Z</time></trkpt><trkpt lat="43.5558669529559" lon="10.786100281912837"><ele>157.0</ele><time>2026-04-18T08:19:21Z</time></trkpt><trkpt lat="43.55593759837692" lon="10.786190014711385"><ele>157.0</ele><time>2026-04-18T08:19:22Z</time></trkpt><trkpt lat="43.55601530992401" lon="10.786272628415915"><ele>156.75</ele><time>2026-04-18T08:19:23Z</time></trkpt><trkpt lat="43.556106028472364" lon="10.786382283728914"><ele>156.5</ele><time>2026-04-18T08:19:24Z</time></trkpt><trkpt lat="43.55619842220963" lon="10.786517838909242"><ele>156.25</ele><time>2026-04-18T08:19:25Z</time></trkpt><trkpt lat="43.55627983041147" lon="10.786648141697288"><ele>156.0</ele><time>2026-04-18T08:19:26Z</time></trkpt><trkpt lat="43.55636161821141" lon="10.786746269580336"><ele>155.2</ele><time>2026-04-18T08:19:27Z</time></trkpt><trkpt lat="43.55642204765198" lon="10.786873282211022"><ele>154.39999999999998</ele><time>2026-04-18T08:19:28.001Z</time></trkpt><trkpt lat="43.55649325841451" lon="10.786961407537067"><ele>153.6</ele><time>2026-04-18T08:19:29.001Z</time></trkpt><trkpt lat="43.55655755983213" lon="10.787057209267402"><ele>152.79999999999998</ele><time>2026-04-18T08:19:30.001Z</time></trkpt><trkpt lat="43.55661593641471" lon="10.787157586856065"><ele>152.0</ele><time>2026-04-18T08:19:31.001Z</time></trkpt><trkpt lat="43.55667340541409" lon="10.787252404996018"><ele>152.0</ele><time>2026-04-18T08:19:32.001Z</time></trkpt><trkpt lat="43.55672959310336" lon="10.787356181497584"><ele>152.0</ele><time>2026-04-18T08:19:33.001Z</time></trkpt><trkpt lat="43.55676934959327" lon="10.787480065902775"><ele>152.0</ele><time>2026-04-18T08:19:34.001Z</time></trkpt><trkpt lat="43.55682189648824" lon="10.787640110178751"><ele>152.0</ele><time>2026-04-18T08:19:35.001Z</time></trkpt><trkpt lat="43.556885082530265" lon="10.787814132591542"><ele>150.75</ele><time>2026-04-18T08:19:36.001Z</time></trkpt><trkpt lat="43.55693357384137" lon="10.788001864017023"><ele>149.5</ele><time>2026-04-18T08:19:37.001Z</time></trkpt><trkpt lat="43.556979553751184" lon="10.788177679737196"><ele>148.25</ele><time>2026-04-18T08:19:38.001Z</time></trkpt><trkpt lat="43.55703950696614" lon="10.788332316452054"><ele>147.0</ele><time>2026-04-18T08:19:39.001Z</time></trkpt><trkpt lat="43.557099893877904" lon="10.788479079791232"><ele>149.25</ele><time>2026-04-18T08:19:40.001Z</time></trkpt><trkpt lat="43.55716475029612" lon="10.788624315523167"><ele>151.5</ele><time>2026-04-18T08:19:41.001Z</time></trkpt><trkpt lat="43.55723019408491" lon="10.7887696197572"><ele>153.75</ele><time>2026-04-18T08:19:42.001Z</time></trkpt><trkpt lat="43.55728955093121" lon="10.788911873289887"><ele>156.0</ele><time>2026-04-18T08:19:43.001Z</time></trkpt><trkpt lat="43.55732970977694" lon="10.789045747842849"><ele>156.0</ele><time>2026-04-18T08:19:44.001Z</time></trkpt><trkpt lat="43.557355714011436" lon="10.789165327637484"><ele>156.0</ele><time>2026-04-18T08:19:45.001Z</time></trkpt><trkpt lat="43.55736231103794" lon="10.789296979155957"><ele>156.0</ele><time>2026-04-18T08:19:46.001Z</time></trkpt><trkpt lat="43.557375740944536" lon="10.789443559626076"><ele>156.0</ele><time>2026-04-18T08:19:47.001Z</time></trkpt><trkpt lat="43.557392960872676" lon="10.789586243907447"><ele>156.0</ele><time>2026-04-18T08:19:48.001Z</time></trkpt><trkpt lat="43.55741806822138" lon="10.789712028221695"><ele>155.2</ele><time>2026-04-18T08:19:49.001Z</time></trkpt><trkpt lat="43.55745272924694" lon="10.789827684328884"><ele>154.39999999999998</ele><time>2026-04-18T08:19:50.001Z</time></trkpt><trkpt lat="43.5574976802752" lon="10.789926823470605"><ele>153.6</ele><time>2026-04-18T08:19:51.001Z</time></trkpt><trkpt lat="43.557555099513635" lon="10.790023728678745"><ele>152.79999999999998</ele><time>2026-04-18T08:19:52.001Z</time></trkpt><trkpt lat="43.557609654749506" lon="10.790157001524916"><ele>152.0</ele><time>2026-04-18T08:19:53.001Z</time></trkpt><trkpt lat="43.55768502442113" lon="10.790291811877314"><ele>150.2</ele><time>2026-04-18T08:19:54.001Z</time></trkpt><trkpt lat="43.55776957531172" lon="10.790429260687072"><ele>148.39999999999998</ele><time>2026-04-18T08:19:55.001Z</time></trkpt><trkpt lat="43.55783700231191" lon="10.790549884200002"><ele>146.60000000000002</ele><time>2026-04-18T08:19:56.001Z</time></trkpt><trkpt lat="43.55790051827317" lon="10.790670675514933"><ele>144.8</ele><time>2026-04-18T08:19:57.001Z</time></trkpt><trkpt lat="43.557954878435254" lon="10.790781755839152"><ele>143.0</ele><time>2026-04-18T08:19:58.001Z</time></trkpt><trkpt lat="43.55800382209616" lon="10.790888764188665"><ele>143.0</ele><time>2026-04-18T08:19:59.001Z</time></trkpt><trkpt lat="43.558044375106554" lon="10.790998006216975"><ele>143.0</ele><time>2026-04-18T08:20:00.001Z</time></trkpt><trkpt lat="43.55807093877644" lon="10.791109389948913"><ele>143.0</ele><time>2026-04-18T08:20:01.001Z</time></trkpt><trkpt lat="43.55808617393074" lon="10.79123712552476"><ele>143.0</ele><time>2026-04-18T08:20:02.001Z</time></trkpt><trkpt lat="43.55806812380177" lon="10.7913687877703"><ele>143.0</ele><time>2026-04-18T08:20:03.001Z</time></trkpt><trkpt lat="43.55806153886174" lon="10.791514569925832"><ele>143.0</ele><time>2026-04-18T08:20:04.001Z</time></trkpt><trkpt lat="43.55802838457061" lon="10.791667428380865"><ele>143.0</ele><time>2026-04-18T08:20:05.001Z</time></trkpt><trkpt lat="43.557976554121645" lon="10.791806014932574"><ele>143.0</ele><time>2026-04-18T08:20:06.001Z</time></trkpt><trkpt lat="43.55791231902086" lon="10.79192553997086"><ele>143.0</ele><time>2026-04-18T08:20:07.001Z</time></trkpt><trkpt lat="43.55786179788375" lon="10.792069312220544"><ele>143.0</ele><time>2026-04-18T08:20:08.001Z</time></trkpt><trkpt lat="43.55781767333786" lon="10.792153356820101"><ele>143.0</ele><time>2026-04-18T08:20:09.001Z</time></trkpt><trkpt lat="43.55781559647354" lon="10.79233149866451"><ele>143.0</ele><time>2026-04-18T08:20:11.001Z</time></trkpt><trkpt lat="43.55782885681616" lon="10.792461931017138"><ele>143.0</ele><time>2026-04-18T08:20:12.001Z</time></trkpt><trkpt lat="43.55789214838978" lon="10.792608278284112"><ele>143.0</ele><time>2026-04-18T08:20:13.001Z</time></trkpt><trkpt lat="43.55793916295976" lon="10.79280947725765"><ele>145.0</ele><time>2026-04-18T08:20:14.001Z</time></trkpt><trkpt lat="43.55798870714329" lon="10.793022803320078"><ele>147.0</ele><time>2026-04-18T08:20:15.001Z</time></trkpt><trkpt lat="43.558041090078405" lon="10.793217634744058"><ele>149.0</ele><time>2026-04-18T08:20:16.001Z</time></trkpt><trkpt lat="43.55808002935671" lon="10.793369032439688"><ele>151.0</ele><time>2026-04-18T08:20:17.001Z</time></trkpt><trkpt lat="43.55810894422039" lon="10.793480077843197"><ele>150.83333333333334</ele><time>2026-04-18T08:20:18.001Z</time></trkpt><trkpt lat="43.558136073279194" lon="10.79357903251204"><ele>150.66666666666669</ele><time>2026-04-18T08:20:19.001Z</time></trkpt><trkpt lat="43.55815432148012" lon="10.793675590380552"><ele>150.5</ele><time>2026-04-18T08:20:20.001Z</time></trkpt><trkpt lat="43.55817282650518" lon="10.79376312863634"><ele>150.33333333333334</ele><time>2026-04-18T08:20:21.001Z</time></trkpt><trkpt lat="43.558182947472645" lon="10.793893193694673"><ele>150.16666666666666</ele><time>2026-04-18T08:20:22.001Z</time></trkpt><trkpt lat="43.5581992048693" lon="10.794013952090916"><ele>150.0</ele><time>2026-04-18T08:20:23.001Z</time></trkpt><trkpt lat="43.55820406664677" lon="10.794129359524812"><ele>150.0</ele><time>2026-04-18T08:20:24.001Z</time></trkpt><trkpt lat="43.558216768921326" lon="10.794224891415318"><ele>150.0</ele><time>2026-04-18T08:20:25.001Z</time></trkpt><trkpt lat="43.558243029658954" lon="10.79431422148296"><ele>150.0</ele><time>2026-04-18T08:20:26.001Z</time></trkpt><trkpt lat="43.558285470638296" lon="10.794417287457904"><ele>150.0</ele><time>2026-04-18T08:20:27.001Z</time></trkpt><trkpt lat="43.55834075261314" lon="10.794511082478648"><ele>150.0</ele><time>2026-04-18T08:20:28.001Z</time></trkpt><trkpt lat="43.558394337695205" lon="10.794594551428803"><ele>150.0</ele><time>2026-04-18T08:20:29.001Z</time></trkpt><trkpt lat="43.55844077982095" lon="10.794681594407283"><ele>150.2</ele><time>2026-04-18T08:20:30.001Z</time></trkpt><trkpt lat="43.558484967782604" lon="10.794778650634859"><ele>150.4</ele><time>2026-04-18T08:20:31.001Z</time></trkpt><trkpt lat="43.55853619886836" lon="10.794890198418717"><ele>150.6</ele><time>2026-04-18T08:20:32.001Z</time></trkpt><trkpt lat="43.55859115347925" lon="10.795007639726673"><ele>150.8</ele><time>2026-04-18T08:20:33.001Z</time></trkpt><trkpt lat="43.55864781804359" lon="10.795124991277515"><ele>151.0</ele><time>2026-04-18T08:20:34.001Z</time></trkpt><trkpt lat="43.55870851017848" lon="10.795225337739836"><ele>151.0</ele><time>2026-04-18T08:20:35.001Z</time></trkpt><trkpt lat="43.55877545127664" lon="10.795313185257411"><ele>151.0</ele><time>2026-04-18T08:20:36.001Z</time></trkpt><trkpt lat="43.558852363278746" lon="10.795397157151156"><ele>151.0</ele><time>2026-04-18T08:20:37.001Z</time></trkpt><trkpt lat="43.558933691046725" lon="10.79547501481012"><ele>151.0</ele><time>2026-04-18T08:20:38.001Z</time></trkpt><trkpt lat="43.55901644350527" lon="10.795548199267063"><ele>151.0</ele><time>2026-04-18T08:20:39.001Z</time></trkpt><trkpt lat="43.55909030531762" lon="10.795608003598275"><ele>151.0</ele><time>2026-04-18T08:20:40.001Z</time></trkpt><trkpt lat="43.559162428412506" lon="10.795658520523688"><ele>151.0</ele><time>2026-04-18T08:20:41.001Z</time></trkpt><trkpt lat="43.5592388521901" lon="10.795725680080063"><ele>151.0</ele><time>2026-04-18T08:20:42.001Z</time></trkpt><trkpt lat="43.55930978051242" lon="10.795784978034858"><ele>151.0</ele><time>2026-04-18T08:20:43.001Z</time></trkpt><trkpt lat="43.55938680085779" lon="10.795861866379168"><ele>151.0</ele><time>2026-04-18T08:20:45.001Z</time></trkpt><trkpt lat="43.55944667986649" lon="10.795935456658086"><ele>151.0</ele><time>2026-04-18T08:20:47.001Z</time></trkpt><trkpt lat="43.55948895966465" lon="10.796006090879843"><ele>150.16666666666669</ele><time>2026-04-18T08:20:49.001Z</time></trkpt><trkpt lat="43.559530909291986" lon="10.796093396379772"><ele>149.33333333333334</ele><time>2026-04-18T08:20:51.001Z</time></trkpt><trkpt lat="43.55957641057054" lon="10.79617103714481"><ele>148.5</ele><time>2026-04-18T08:20:53.001Z</time></trkpt><trkpt lat="43.55961774455979" lon="10.79626022891131"><ele>147.66666666666666</ele><time>2026-04-18T08:20:55.001Z</time></trkpt><trkpt lat="43.55966838071451" lon="10.796350314289509"><ele>146.83333333333331</ele><time>2026-04-18T08:20:58.001Z</time></trkpt><trkpt lat="43.55970047796429" lon="10.79643222533801"><ele>146.0</ele><time>2026-04-18T08:21:09Z</time></trkpt><trkpt lat="43.55976687170052" lon="10.796542166994339"><ele>148.2</ele><time>2026-04-18T08:21:11Z</time></trkpt><trkpt lat="43.559818015609444" lon="10.796626856307814"><ele>150.39999999999998</ele><time>2026-04-18T08:21:12Z</time></trkpt><trkpt lat="43.5598773335463" lon="10.796725081180442"><ele>152.6</ele><time>2026-04-18T08:21:13Z</time></trkpt><trkpt lat="43.559940752864854" lon="10.796830097441115"><ele>154.79999999999998</ele><time>2026-04-18T08:21:14Z</time></trkpt><trkpt lat="43.56001091613781" lon="10.79694622419342"><ele>157.0</ele><time>2026-04-18T08:21:15.001Z</time></trkpt><trkpt lat="43.56009359788523" lon="10.797048481745176"><ele>157.0</ele><time>2026-04-18T08:21:16.001Z</time></trkpt><trkpt lat="43.56015043600694" lon="10.797165251105035"><ele>157.0</ele><time>2026-04-18T08:21:17.001Z</time></trkpt><trkpt lat="43.56020949609718" lon="10.7972419495595"><ele>157.0</ele><time>2026-04-18T08:21:18.001Z</time></trkpt><trkpt lat="43.56026766097447" lon="10.797336447675432"><ele>157.0</ele><time>2026-04-18T08:21:19.001Z</time></trkpt><trkpt lat="43.56035224049732" lon="10.797411234868347"><ele>157.0</ele><time>2026-04-18T08:21:20.001Z</time></trkpt><trkpt lat="43.56045181205956" lon="10.797456604242159"><ele>159.75</ele><time>2026-04-18T08:21:21.001Z</time></trkpt><trkpt lat="43.56054882203694" lon="10.797497363235651"><ele>162.5</ele><time>2026-04-18T08:21:22.001Z</time></trkpt><trkpt lat="43.560652706446525" lon="10.797507217093715"><ele>165.25</ele><time>2026-04-18T08:21:23.001Z</time></trkpt><trkpt lat="43.560774868334754" lon="10.79749854463278"><ele>168.0</ele><time>2026-04-18T08:21:24.001Z</time></trkpt><trkpt lat="43.56091699674357" lon="10.797482316372557"><ele>168.0</ele><time>2026-04-18T08:21:25.001Z</time></trkpt><trkpt lat="43.56104695727925" lon="10.79746656224275"><ele>168.0</ele><time>2026-04-18T08:21:26.001Z</time></trkpt><trkpt lat="43.56116913018505" lon="10.797481405800585"><ele>168.0</ele><time>2026-04-18T08:21:27.001Z</time></trkpt><trkpt lat="43.56129895977763" lon="10.797503825786462"><ele>168.0</ele><time>2026-04-18T08:21:28.001Z</time></trkpt><trkpt lat="43.56142339667006" lon="10.79752979332815"><ele>168.0</ele><time>2026-04-18T08:21:29.001Z</time></trkpt><trkpt lat="43.56154358087104" lon="10.797566183481251"><ele>168.0</ele><time>2026-04-18T08:21:30.001Z</time></trkpt><trkpt lat="43.56168982519816" lon="10.797615305309478"><ele>168.0</ele><time>2026-04-18T08:21:31.001Z</time></trkpt><trkpt lat="43.56182414721688" lon="10.797649242838753"><ele>168.0</ele><time>2026-04-18T08:21:32.001Z</time></trkpt><trkpt lat="43.561921569979646" lon="10.79768513417534"><ele>167.4</ele><time>2026-04-18T08:21:33.001Z</time></trkpt><trkpt lat="43.5620128674117" lon="10.797738318235504"><ele>166.8</ele><time>2026-04-18T08:21:34.001Z</time></trkpt><trkpt lat="43.56211657200496" lon="10.797758587578551"><ele>166.2</ele><time>2026-04-18T08:21:35.001Z</time></trkpt><trkpt lat="43.562205310961" lon="10.797798739653896"><ele>165.6</ele><time>2026-04-18T08:21:36.001Z</time></trkpt><trkpt lat="43.56227478427883" lon="10.797845420635264"><ele>165.0</ele><time>2026-04-18T08:21:37.001Z</time></trkpt><trkpt lat="43.56234119527265" lon="10.797908302078394"><ele>168.25</ele><time>2026-04-18T08:21:38.001Z</time></trkpt><trkpt lat="43.562434171847904" lon="10.79800232441068"><ele>171.5</ele><time>2026-04-18T08:21:39.001Z</time></trkpt><trkpt lat="43.56254011327658" lon="10.798136410254283"><ele>174.75</ele><time>2026-04-18T08:21:40.001Z</time></trkpt><trkpt lat="43.56264797826865" lon="10.798255740297655"><ele>178.0</ele><time>2026-04-18T08:21:41.001Z</time></trkpt><trkpt lat="43.56276445994031" lon="10.79834919325555"><ele>178.0</ele><time>2026-04-18T08:21:42.001Z</time></trkpt><trkpt lat="43.56285771151515" lon="10.79843466240928"><ele>178.0</ele><time>2026-04-18T08:21:43.001Z</time></trkpt><trkpt lat="43.56295160715299" lon="10.798510181017667"><ele>178.0</ele><time>2026-04-18T08:21:44.001Z</time></trkpt><trkpt lat="43.5630398048687" lon="10.798589433055065"><ele>178.0</ele><time>2026-04-18T08:21:45.001Z</time></trkpt><trkpt lat="43.56311340537737" lon="10.798655250338639"><ele>178.0</ele><time>2026-04-18T08:21:46.001Z</time></trkpt><trkpt lat="43.563172379233706" lon="10.798710047630493"><ele>179.83333333333334</ele><time>2026-04-18T08:21:47.001Z</time></trkpt><trkpt lat="43.56328057941976" lon="10.79880100745454"><ele>181.66666666666669</ele><time>2026-04-18T08:21:49.001Z</time></trkpt><trkpt lat="43.563343402083206" lon="10.798853923753247"><ele>183.5</ele><time>2026-04-18T08:21:50.001Z</time></trkpt><trkpt lat="43.563399234248834" lon="10.798918386541303"><ele>185.33333333333334</ele><time>2026-04-18T08:21:51.001Z</time></trkpt><trkpt lat="43.5634738092937" lon="10.798958770658395"><ele>187.16666666666666</ele><time>2026-04-18T08:21:52.001Z</time></trkpt><trkpt lat="43.563538139227056" lon="10.799017570026725"><ele>189.0</ele><time>2026-04-18T08:21:53.001Z</time></trkpt><trkpt lat="43.56360854542503" lon="10.799091553445294"><ele>189.0</ele><time>2026-04-18T08:21:54.001Z</time></trkpt><trkpt lat="43.56368036804783" lon="10.799182383958746"><ele>189.0</ele><time>2026-04-18T08:21:55.001Z</time></trkpt><trkpt lat="43.56373975188678" lon="10.799278318578436"><ele>189.0</ele><time>2026-04-18T08:21:56.001Z</time></trkpt><trkpt lat="43.56377741963326" lon="10.799392539554306"><ele>189.0</ele><time>2026-04-18T08:21:57.001Z</time></trkpt><trkpt lat="43.563815373037016" lon="10.799522041591734"><ele>189.0</ele><time>2026-04-18T08:21:58.001Z</time></trkpt><trkpt lat="43.56382913765805" lon="10.799672756707531"><ele>188.2</ele><time>2026-04-18T08:21:59.001Z</time></trkpt><trkpt lat="43.56390209334724" lon="10.799779248958506"><ele>187.39999999999998</ele><time>2026-04-18T08:22:00.001Z</time></trkpt><trkpt lat="43.56398315339056" lon="10.79987217577096"><ele>186.6</ele><time>2026-04-18T08:22:01.001Z</time></trkpt><trkpt lat="43.56407974959553" lon="10.799944255126"><ele>185.8</ele><time>2026-04-18T08:22:02.001Z</time></trkpt><trkpt lat="43.56419121173719" lon="10.800010781613963"><ele>185.0</ele><time>2026-04-18T08:22:03.001Z</time></trkpt><trkpt lat="43.56430323642536" lon="10.80008558559085"><ele>185.0</ele><time>2026-04-18T08:22:04.001Z</time></trkpt><trkpt lat="43.56441328450602" lon="10.800154949884394"><ele>185.0</ele><time>2026-04-18T08:22:05.001Z</time></trkpt><trkpt lat="43.56451220146037" lon="10.800215969813364"><ele>185.0</ele><time>2026-04-18T08:22:06.001Z</time></trkpt><trkpt lat="43.564608088309754" lon="10.800240908852464"><ele>185.0</ele><time>2026-04-18T08:22:07.001Z</time></trkpt><trkpt lat="43.564700017589416" lon="10.800292000352298"><ele>185.0</ele><time>2026-04-18T08:22:08.001Z</time></trkpt><trkpt lat="43.56481125490549" lon="10.800345909831691"><ele>184.0</ele><time>2026-04-18T08:22:09.001Z</time></trkpt><trkpt lat="43.564905385235" lon="10.80039134096958"><ele>183.0</ele><time>2026-04-18T08:22:10.001Z</time></trkpt><trkpt lat="43.5650028923519" lon="10.80042219866982"><ele>182.0</ele><time>2026-04-18T08:22:11.001Z</time></trkpt><trkpt lat="43.56510370559788" lon="10.800459942175477"><ele>181.0</ele><time>2026-04-18T08:22:12.001Z</time></trkpt><trkpt lat="43.56521874813374" lon="10.800448913374243"><ele>180.0</ele><time>2026-04-18T08:22:13.001Z</time></trkpt><trkpt lat="43.56530885753904" lon="10.80041731799041"><ele>180.4</ele><time>2026-04-18T08:22:14.001Z</time></trkpt><trkpt lat="43.56539990404927" lon="10.800445451167748"><ele>180.8</ele><time>2026-04-18T08:22:15.001Z</time></trkpt><trkpt lat="43.5654846886639" lon="10.80047231070084"><ele>181.2</ele><time>2026-04-18T08:22:16.001Z</time></trkpt><trkpt lat="43.565556910508185" lon="10.80051820638426"><ele>181.6</ele><time>2026-04-18T08:22:17.001Z</time></trkpt><trkpt lat="43.565626114061565" lon="10.800599519583772"><ele>182.0</ele><time>2026-04-18T08:22:18.001Z</time></trkpt><trkpt lat="43.56569994297338" lon="10.800705127551671"><ele>182.0</ele><time>2026-04-18T08:22:19.001Z</time></trkpt><trkpt lat="43.56580357550943" lon="10.80082345597124"><ele>182.0</ele><time>2026-04-18T08:22:20.001Z</time></trkpt><trkpt lat="43.56590168936531" lon="10.800933476911942"><ele>182.0</ele><time>2026-04-18T08:22:21.001Z</time></trkpt><trkpt lat="43.56603285243518" lon="10.801030709232176"><ele>182.0</ele><time>2026-04-18T08:22:22.001Z</time></trkpt><trkpt lat="43.56618142295213" lon="10.801119097149583"><ele>182.33333333333331</ele><time>2026-04-18T08:22:23.001Z</time></trkpt><trkpt lat="43.56634817615444" lon="10.801221458175547"><ele>182.66666666666666</ele><time>2026-04-18T08:22:24.001Z</time></trkpt><trkpt lat="43.566501987231135" lon="10.801345390967716"><ele>183.0</ele><time>2026-04-18T08:22:25.001Z</time></trkpt><trkpt lat="43.56664964000658" lon="10.801436398308088"><ele>183.0</ele><time>2026-04-18T08:22:26.001Z</time></trkpt><trkpt lat="43.56678897507012" lon="10.801522090234682"><ele>183.0</ele><time>2026-04-18T08:22:27.001Z</time></trkpt><trkpt lat="43.56692870178906" lon="10.801609465513609"><ele>183.0</ele><time>2026-04-18T08:22:28.001Z</time></trkpt><trkpt lat="43.567085550613925" lon="10.80168020914614"><ele>183.0</ele><time>2026-04-18T08:22:29.001Z</time></trkpt><trkpt lat="43.5672469667544" lon="10.801760247438105"><ele>183.0</ele><time>2026-04-18T08:22:30.001Z</time></trkpt><trkpt lat="43.56740475044584" lon="10.801824901317328"><ele>183.0</ele><time>2026-04-18T08:22:31.001Z</time></trkpt><trkpt lat="43.56754743010739" lon="10.801865533361749"><ele>183.0</ele><time>2026-04-18T08:22:32.001Z</time></trkpt><trkpt lat="43.56768402408582" lon="10.801882850619274"><ele>183.0</ele><time>2026-04-18T08:22:33.001Z</time></trkpt><trkpt lat="43.56782976951815" lon="10.801912455171855"><ele>183.0</ele><time>2026-04-18T08:22:34.001Z</time></trkpt><trkpt lat="43.56797299038739" lon="10.801899417843654"><ele>183.0</ele><time>2026-04-18T08:22:35.001Z</time></trkpt><trkpt lat="43.5681247373827" lon="10.801908419132602"><ele>182.33333333333334</ele><time>2026-04-18T08:22:36.001Z</time></trkpt><trkpt lat="43.56829325543372" lon="10.801916869243403"><ele>181.66666666666669</ele><time>2026-04-18T08:22:37.001Z</time></trkpt><trkpt lat="43.56847164028622" lon="10.80192587127799"><ele>181.0</ele><time>2026-04-18T08:22:38.001Z</time></trkpt><trkpt lat="43.56865735417375" lon="10.801933208766993"><ele>184.25</ele><time>2026-04-18T08:22:39.001Z</time></trkpt><trkpt lat="43.568822173387865" lon="10.801938881392783"><ele>187.5</ele><time>2026-04-18T08:22:40.001Z</time></trkpt><trkpt lat="43.56896639631711" lon="10.801927758105649"><ele>190.75</ele><time>2026-04-18T08:22:41.001Z</time></trkpt><trkpt lat="43.569093409879635" lon="10.801896447025436"><ele>194.0</ele><time>2026-04-18T08:22:42.001Z</time></trkpt><trkpt lat="43.56923466681518" lon="10.801825495808975"><ele>194.0</ele><time>2026-04-18T08:22:43.001Z</time></trkpt><trkpt lat="43.56933453582313" lon="10.801816845023035"><ele>194.0</ele><time>2026-04-18T08:22:44.001Z</time></trkpt><trkpt lat="43.56940782866787" lon="10.801828030667878"><ele>194.0</ele><time>2026-04-18T08:22:45.001Z</time></trkpt><trkpt lat="43.569516082571624" lon="10.801944791769452"><ele>194.0</ele><time>2026-04-18T08:22:47.001Z</time></trkpt><trkpt lat="43.569566669880665" lon="10.802043503277702"><ele>194.0</ele><time>2026-04-18T08:22:48.001Z</time></trkpt><trkpt lat="43.569626560306844" lon="10.802157612222967"><ele>195.83333333333334</ele><time>2026-04-18T08:22:49.001Z</time></trkpt><trkpt lat="43.56968199910202" lon="10.80227475379273"><ele>197.66666666666669</ele><time>2026-04-18T08:22:50.001Z</time></trkpt><trkpt lat="43.56972271121389" lon="10.802367338245759"><ele>199.5</ele><time>2026-04-18T08:22:51.001Z</time></trkpt><trkpt lat="43.56976000027554" lon="10.802453956871407"><ele>201.33333333333331</ele><time>2026-04-18T08:22:53.001Z</time></trkpt><trkpt lat="43.569811133012145" lon="10.802577453670636"><ele>203.16666666666666</ele><time>2026-04-18T08:23:12.001Z</time></trkpt><trkpt lat="43.56986257092968" lon="10.802656626823563"><ele>205.0</ele><time>2026-04-18T08:23:14.001Z</time></trkpt><trkpt lat="43.56990089822643" lon="10.802747917298896"><ele>204.99999999999997</ele><time>2026-04-18T08:23:16.001Z</time></trkpt><trkpt lat="43.569931354593734" lon="10.802850000764899"><ele>205.0</ele><time>2026-04-18T08:23:18.001Z</time></trkpt><trkpt lat="43.569985744652215" lon="10.802926094924079"><ele>205.0</ele><time>2026-04-18T08:23:20.001Z</time></trkpt><trkpt lat="43.57002424713563" lon="10.803017435644584"><ele>205.0</ele><time>2026-04-18T08:23:22.001Z</time></trkpt><trkpt lat="43.570055441299154" lon="10.803118010079459"><ele>204.99999999999997</ele><time>2026-04-18T08:23:24.001Z</time></trkpt><trkpt lat="43.57011644340573" lon="10.803193093198594"><ele>205.0</ele><time>2026-04-18T08:23:43.001Z</time></trkpt><trkpt lat="43.57022570574626" lon="10.80331276904719"><ele>205.0</ele><time>2026-04-18T08:23:45.001Z</time></trkpt><trkpt lat="43.5703184735952" lon="10.803346392658645"><ele>205.0</ele><time>2026-04-18T08:23:46.001Z</time></trkpt><trkpt lat="43.57040902970017" lon="10.803425468954288"><ele>205.0</ele><time>2026-04-18T08:23:47.001Z</time></trkpt><trkpt lat="43.57051103900965" lon="10.803484218375187"><ele>205.0</ele><time>2026-04-18T08:23:48.001Z</time></trkpt><trkpt lat="43.57063145031279" lon="10.803552907561786"><ele>205.0</ele><time>2026-04-18T08:23:49.001Z</time></trkpt><trkpt lat="43.57075290205619" lon="10.803606828584915"><ele>204.25</ele><time>2026-04-18T08:23:50.001Z</time></trkpt><trkpt lat="43.57085091165104" lon="10.803705572417003"><ele>203.5</ele><time>2026-04-18T08:23:51.001Z</time></trkpt><trkpt lat="43.57093367202063" lon="10.803804662701532"><ele>202.75</ele><time>2026-04-18T08:23:52.001Z</time></trkpt><trkpt lat="43.570999265639294" lon="10.803941624149463"><ele>202.0</ele><time>2026-04-18T08:23:53.001Z</time></trkpt><trkpt lat="43.57104794454012" lon="10.804106650012343"><ele>202.0</ele><time>2026-04-18T08:23:54.001Z</time></trkpt><trkpt lat="43.57109088328773" lon="10.804292717384797"><ele>202.0</ele><time>2026-04-18T08:23:55.001Z</time></trkpt><trkpt lat="43.57107908041761" lon="10.804520135864426"><ele>202.0</ele><time>2026-04-18T08:23:56.001Z</time></trkpt><trkpt lat="43.57106578914148" lon="10.80476732209174"><ele>198.66666666666666</ele><time>2026-04-18T08:23:57.001Z</time></trkpt><trkpt lat="43.57105407297508" lon="10.805025769048674"><ele>195.33333333333331</ele><time>2026-04-18T08:23:58.001Z</time></trkpt><trkpt lat="43.57102422706792" lon="10.805270653217105"><ele>192.0</ele><time>2026-04-18T08:23:59.001Z</time></trkpt><trkpt lat="43.57099911251577" lon="10.805498714052936"><ele>188.33333333333334</ele><time>2026-04-18T08:24:00.001Z</time></trkpt><trkpt lat="43.57098024223237" lon="10.805711236205848"><ele>184.66666666666669</ele><time>2026-04-18T08:24:01.001Z</time></trkpt><trkpt lat="43.570981447285845" lon="10.805936771986634"><ele>181.0</ele><time>2026-04-18T08:24:02.001Z</time></trkpt><trkpt lat="43.57100861597473" lon="10.806187562476651"><ele>180.66666666666669</ele><time>2026-04-18T08:24:03.001Z</time></trkpt><trkpt lat="43.57105785596144" lon="10.806463921930016"><ele>180.33333333333334</ele><time>2026-04-18T08:24:04.001Z</time></trkpt><trkpt lat="43.57110250427328" lon="10.806726839670452"><ele>180.0</ele><time>2026-04-18T08:24:05.001Z</time></trkpt><trkpt lat="43.57114161224388" lon="10.80695257141227"><ele>180.0</ele><time>2026-04-18T08:24:06.001Z</time></trkpt><trkpt lat="43.571168516090324" lon="10.807136996313904"><ele>180.0</ele><time>2026-04-18T08:24:07.001Z</time></trkpt><trkpt lat="43.5711664064597" lon="10.80730592213813"><ele>180.0</ele><time>2026-04-18T08:24:08.001Z</time></trkpt><trkpt lat="43.57116766922197" lon="10.807466628957206"><ele>180.0</ele><time>2026-04-18T08:24:09.001Z</time></trkpt><trkpt lat="43.5711071796113" lon="10.80764561958632"><ele>178.66666666666666</ele><time>2026-04-18T08:24:10.001Z</time></trkpt><trkpt lat="43.57102101516646" lon="10.80781624681731"><ele>177.33333333333331</ele><time>2026-04-18T08:24:11.001Z</time></trkpt><trkpt lat="43.570933817466305" lon="10.8080043794333"><ele>176.0</ele><time>2026-04-18T08:24:12.001Z</time></trkpt><trkpt lat="43.57081096284598" lon="10.808185671472204"><ele>176.0</ele><time>2026-04-18T08:24:13.001Z</time></trkpt><trkpt lat="43.57068607445135" lon="10.808380512967197"><ele>176.0</ele><time>2026-04-18T08:24:14.001Z</time></trkpt><trkpt lat="43.57057635666025" lon="10.808559932094964"><ele>176.0</ele><time>2026-04-18T08:24:15.001Z</time></trkpt><trkpt lat="43.57048100799498" lon="10.80869732474403"><ele>174.5</ele><time>2026-04-18T08:24:16.001Z</time></trkpt><trkpt lat="43.57039126168387" lon="10.808795422631768"><ele>173.0</ele><time>2026-04-18T08:24:17.001Z</time></trkpt><trkpt lat="43.57028934175919" lon="10.808827151142644"><ele>171.5</ele><time>2026-04-18T08:24:18.001Z</time></trkpt><trkpt lat="43.57018036716262" lon="10.808867966695743"><ele>170.0</ele><time>2026-04-18T08:24:19.001Z</time></trkpt><trkpt lat="43.57004411304913" lon="10.80884726602811"><ele>170.0</ele><time>2026-04-18T08:24:20.001Z</time></trkpt><trkpt lat="43.56990938532856" lon="10.80876529334979"><ele>170.0</ele><time>2026-04-18T08:24:21.001Z</time></trkpt><trkpt lat="43.56976053372428" lon="10.808703207315695"><ele>170.0</ele><time>2026-04-18T08:24:22.001Z</time></trkpt><trkpt lat="43.569650983093865" lon="10.808623791686902"><ele>170.0</ele><time>2026-04-18T08:24:23.001Z</time></trkpt><trkpt lat="43.569535437273565" lon="10.808606566270527"><ele>169.33333333333331</ele><time>2026-04-18T08:24:24.001Z</time></trkpt><trkpt lat="43.56940540772674" lon="10.808653095616695"><ele>168.66666666666666</ele><time>2026-04-18T08:24:25.001Z</time></trkpt><trkpt lat="43.56927368039732" lon="10.808750953681105"><ele>168.0</ele><time>2026-04-18T08:24:26.001Z</time></trkpt><trkpt lat="43.56914261074593" lon="10.808891282413443"><ele>168.0</ele><time>2026-04-18T08:24:27.001Z</time></trkpt><trkpt lat="43.569024429341034" lon="10.809056027113822"><ele>168.0</ele><time>2026-04-18T08:24:28.001Z</time></trkpt><trkpt lat="43.568912593372936" lon="10.809238571014275"><ele>168.0</ele><time>2026-04-18T08:24:29.001Z</time></trkpt><trkpt lat="43.568799776627785" lon="10.809428111396738"><ele>168.25</ele><time>2026-04-18T08:24:30.001Z</time></trkpt><trkpt lat="43.56870366966326" lon="10.809587966943155"><ele>168.5</ele><time>2026-04-18T08:24:31.001Z</time></trkpt><trkpt lat="43.568618840502346" lon="10.80972485572693"><ele>168.75</ele><time>2026-04-18T08:24:32.001Z</time></trkpt><trkpt lat="43.568538897921826" lon="10.809816488946945"><ele>169.0</ele><time>2026-04-18T08:24:33.001Z</time></trkpt><trkpt lat="43.56844810028775" lon="10.809877071887966"><ele>169.0</ele><time>2026-04-18T08:24:34.001Z</time></trkpt><trkpt lat="43.56833261190472" lon="10.8099122409992"><ele>169.0</ele><time>2026-04-18T08:24:35.001Z</time></trkpt><trkpt lat="43.56819967027608" lon="10.809937781044523"><ele>169.0</ele><time>2026-04-18T08:24:36.001Z</time></trkpt><trkpt lat="43.56807088978682" lon="10.80999504044352"><ele>169.0</ele><time>2026-04-18T08:24:37.001Z</time></trkpt><trkpt lat="43.56796642887068" lon="10.810121946428696"><ele>167.33333333333334</ele><time>2026-04-18T08:24:38.001Z</time></trkpt><trkpt lat="43.56788126067335" lon="10.81030334673264"><ele>165.66666666666666</ele><time>2026-04-18T08:24:39.001Z</time></trkpt><trkpt lat="43.56780390132509" lon="10.810495915528547"><ele>164.0</ele><time>2026-04-18T08:24:40.001Z</time></trkpt><trkpt lat="43.56773340121343" lon="10.810656007085628"><ele>164.75</ele><time>2026-04-18T08:24:41.001Z</time></trkpt><trkpt lat="43.56772192472314" lon="10.810811279706227"><ele>165.5</ele><time>2026-04-18T08:24:42.001Z</time></trkpt><trkpt lat="43.5677512316728" lon="10.810989092016781"><ele>166.25</ele><time>2026-04-18T08:24:43.001Z</time></trkpt><trkpt lat="43.567816517144216" lon="10.811183772049327"><ele>167.0</ele><time>2026-04-18T08:24:44.001Z</time></trkpt><trkpt lat="43.56789046372734" lon="10.811394637720161"><ele>167.0</ele><time>2026-04-18T08:24:45.001Z</time></trkpt><trkpt lat="43.56795217070222" lon="10.811615051981885"><ele>167.0</ele><time>2026-04-18T08:24:46.001Z</time></trkpt><trkpt lat="43.568012480715055" lon="10.81183853053962"><ele>167.0</ele><time>2026-04-18T08:24:47.001Z</time></trkpt><trkpt lat="43.56806875325079" lon="10.812070651530748"><ele>168.66666666666666</ele><time>2026-04-18T08:24:48.001Z</time></trkpt><trkpt lat="43.56812836140189" lon="10.812300457052018"><ele>170.33333333333334</ele><time>2026-04-18T08:24:49.001Z</time></trkpt><trkpt lat="43.56817887224795" lon="10.812519192376328"><ele>172.0</ele><time>2026-04-18T08:24:50.001Z</time></trkpt><trkpt lat="43.56822059631939" lon="10.812695855464202"><ele>172.0</ele><time>2026-04-18T08:24:51.001Z</time></trkpt><trkpt lat="43.56823711749355" lon="10.812826495983874"><ele>172.0</ele><time>2026-04-18T08:24:52.001Z</time></trkpt><trkpt lat="43.56820831745459" lon="10.81296115982447"><ele>172.0</ele><time>2026-04-18T08:24:53.001Z</time></trkpt><trkpt lat="43.568158108236226" lon="10.813133826549684"><ele>172.0</ele><time>2026-04-18T08:24:54.001Z</time></trkpt><trkpt lat="43.5680734442595" lon="10.813317756631657"><ele>172.33333333333334</ele><time>2026-04-18T08:24:55.001Z</time></trkpt><trkpt lat="43.568004832961655" lon="10.81349717452074"><ele>172.66666666666666</ele><time>2026-04-18T08:24:56.001Z</time></trkpt><trkpt lat="43.56797895007814" lon="10.81369373323253"><ele>173.0</ele><time>2026-04-18T08:24:57.001Z</time></trkpt><trkpt lat="43.567995236777556" lon="10.813916754821326"><ele>175.5</ele><time>2026-04-18T08:24:58.001Z</time></trkpt><trkpt lat="43.568062760473715" lon="10.814420066632634"><ele>178.0</ele><time>2026-04-18T08:25:00.001Z</time></trkpt><trkpt lat="43.56808976492331" lon="10.814670336051687"><ele>178.0</ele><time>2026-04-18T08:25:01.001Z</time></trkpt><trkpt lat="43.56811303170552" lon="10.814901866824307"><ele>178.0</ele><time>2026-04-18T08:25:02.001Z</time></trkpt><trkpt lat="43.568134888439225" lon="10.815128433330992"><ele>178.0</ele><time>2026-04-18T08:25:03.001Z</time></trkpt><trkpt lat="43.56816027558008" lon="10.815346948291113"><ele>179.0</ele><time>2026-04-18T08:25:04.001Z</time></trkpt><trkpt lat="43.56820120601504" lon="10.815556323362733"><ele>180.0</ele><time>2026-04-18T08:25:05.001Z</time></trkpt><trkpt lat="43.568260829287176" lon="10.815756473996958"><ele>181.0</ele><time>2026-04-18T08:25:06.001Z</time></trkpt><trkpt lat="43.568340254644944" lon="10.815951040831465"><ele>180.0</ele><time>2026-04-18T08:25:07.001Z</time></trkpt><trkpt lat="43.56843540431882" lon="10.816150100051711"><ele>179.0</ele><time>2026-04-18T08:25:08.001Z</time></trkpt><trkpt lat="43.56853999306198" lon="10.816362566562185"><ele>178.0</ele><time>2026-04-18T08:25:09.001Z</time></trkpt><trkpt lat="43.56865529249279" lon="10.816591824990724"><ele>179.33333333333334</ele><time>2026-04-18T08:25:10.001Z</time></trkpt><trkpt lat="43.56877111852204" lon="10.816832518244453"><ele>180.66666666666666</ele><time>2026-04-18T08:25:11.001Z</time></trkpt><trkpt lat="43.56888399630794" lon="10.817067464324765"><ele>182.0</ele><time>2026-04-18T08:25:12.001Z</time></trkpt><trkpt lat="43.56898292412705" lon="10.81729202379033"><ele>182.0</ele><time>2026-04-18T08:25:13.001Z</time></trkpt><trkpt lat="43.56906928998108" lon="10.817497302415273"><ele>182.0</ele><time>2026-04-18T08:25:14.001Z</time></trkpt><trkpt lat="43.569153480696286" lon="10.817696337985042"><ele>182.0</ele><time>2026-04-18T08:25:15.001Z</time></trkpt><trkpt lat="43.56923067646951" lon="10.817882505624212"><ele>179.5</ele><time>2026-04-18T08:25:16.001Z</time></trkpt><trkpt lat="43.56929998319315" lon="10.81806578267565"><ele>177.0</ele><time>2026-04-18T08:25:17.001Z</time></trkpt><trkpt lat="43.569371315261215" lon="10.818234564019347"><ele>174.5</ele><time>2026-04-18T08:25:18.001Z</time></trkpt><trkpt lat="43.56943308845905" lon="10.818403984380188"><ele>172.0</ele><time>2026-04-18T08:25:19.001Z</time></trkpt><trkpt lat="43.56947954922356" lon="10.818576068320109"><ele>171.5</ele><time>2026-04-18T08:25:20.001Z</time></trkpt><trkpt lat="43.56950152944936" lon="10.818763638165665"><ele>171.0</ele><time>2026-04-18T08:25:21.001Z</time></trkpt><trkpt lat="43.569497504841884" lon="10.818943289885969"><ele>170.5</ele><time>2026-04-18T08:25:22.001Z</time></trkpt><trkpt lat="43.569472155988436" lon="10.819100640743786"><ele>170.0</ele><time>2026-04-18T08:25:23.001Z</time></trkpt><trkpt lat="43.56940700817885" lon="10.819244541471953"><ele>169.66666666666666</ele><time>2026-04-18T08:25:24.001Z</time></trkpt><trkpt lat="43.569323967337176" lon="10.819385559830462"><ele>169.33333333333334</ele><time>2026-04-18T08:25:25.001Z</time></trkpt><trkpt lat="43.56923846812232" lon="10.819562246072891"><ele>169.0</ele><time>2026-04-18T08:25:26.001Z</time></trkpt><trkpt lat="43.56915545253766" lon="10.819767334842789"><ele>169.0</ele><time>2026-04-18T08:25:27.001Z</time></trkpt><trkpt lat="43.56905948914522" lon="10.819967316758085"><ele>169.0</ele><time>2026-04-18T08:25:28.001Z</time></trkpt><trkpt lat="43.56898012445503" lon="10.820154335187178"><ele>169.0</ele><time>2026-04-18T08:25:29.001Z</time></trkpt><trkpt lat="43.56891853368495" lon="10.820315444638702"><ele>167.25</ele><time>2026-04-18T08:25:30.001Z</time></trkpt><trkpt lat="43.56887297782745" lon="10.820464034074238"><ele>165.5</ele><time>2026-04-18T08:25:31.001Z</time></trkpt><trkpt lat="43.56886123817398" lon="10.820613837595483"><ele>163.75</ele><time>2026-04-18T08:25:32.001Z</time></trkpt><trkpt lat="43.56887259494838" lon="10.820786432241057"><ele>162.0</ele><time>2026-04-18T08:25:33.001Z</time></trkpt><trkpt lat="43.568920779485445" lon="10.820994806131115"><ele>159.0</ele><time>2026-04-18T08:25:34.001Z</time></trkpt><trkpt lat="43.56897107262586" lon="10.821244693100633"><ele>156.0</ele><time>2026-04-18T08:25:35.001Z</time></trkpt><trkpt lat="43.569002885045485" lon="10.821516278706095"><ele>153.0</ele><time>2026-04-18T08:25:36.001Z</time></trkpt><trkpt lat="43.56904223207253" lon="10.821745501150753"><ele>151.33333333333334</ele><time>2026-04-18T08:25:37.001Z</time></trkpt><trkpt lat="43.56908395008763" lon="10.821936103535549"><ele>149.66666666666669</ele><time>2026-04-18T08:25:38.001Z</time></trkpt><trkpt lat="43.56909566164528" lon="10.822135165527333"><ele>148.0</ele><time>2026-04-18T08:25:39.001Z</time></trkpt><trkpt lat="43.56907252839279" lon="10.822357070432748"><ele>148.0</ele><time>2026-04-18T08:25:40.001Z</time></trkpt><trkpt lat="43.56905749502575" lon="10.822607572451718"><ele>148.0</ele><time>2026-04-18T08:25:41.001Z</time></trkpt><trkpt lat="43.569037452202416" lon="10.822876068719973"><ele>148.0</ele><time>2026-04-18T08:25:42.001Z</time></trkpt><trkpt lat="43.569030791782296" lon="10.823129947544006"><ele>147.33333333333334</ele><time>2026-04-18T08:25:43.001Z</time></trkpt><trkpt lat="43.56900561285342" lon="10.823355238517621"><ele>146.66666666666666</ele><time>2026-04-18T08:25:44.001Z</time></trkpt><trkpt lat="43.56897643082855" lon="10.823567954827645"><ele>146.0</ele><time>2026-04-18T08:25:45.001Z</time></trkpt><trkpt lat="43.568945338903816" lon="10.823790544867132"><ele>144.33333333333331</ele><time>2026-04-18T08:25:46.001Z</time></trkpt><trkpt lat="43.56890594792266" lon="10.824005095693458"><ele>142.66666666666666</ele><time>2026-04-18T08:25:47.001Z</time></trkpt><trkpt lat="43.568865715254326" lon="10.824222919017963"><ele>141.0</ele><time>2026-04-18T08:25:48.001Z</time></trkpt><trkpt lat="43.56883279575268" lon="10.82442541893584"><ele>140.2</ele><time>2026-04-18T08:25:49.001Z</time></trkpt><trkpt lat="43.568781602211715" lon="10.824603417067296"><ele>139.39999999999998</ele><time>2026-04-18T08:25:50.001Z</time></trkpt><trkpt lat="43.56877339250959" lon="10.824747051400497"><ele>138.6</ele><time>2026-04-18T08:25:51.001Z</time></trkpt><trkpt lat="43.56875387940264" lon="10.824863462975243"><ele>137.79999999999998</ele><time>2026-04-18T08:25:52.001Z</time></trkpt><trkpt lat="43.56876481304451" lon="10.824993475285442"><ele>137.0</ele><time>2026-04-18T08:25:54.001Z</time></trkpt><trkpt lat="43.56869606462576" lon="10.825045815860697"><ele>136.75</ele><time>2026-04-18T08:25:55.001Z</time></trkpt><trkpt lat="43.568578370847234" lon="10.824938167804344"><ele>136.5</ele><time>2026-04-18T08:25:58.001Z</time></trkpt><trkpt lat="43.568558424143504" lon="10.824830123252744"><ele>136.25</ele><time>2026-04-18T08:25:59.001Z</time></trkpt><trkpt lat="43.56854511928966" lon="10.824682713491676"><ele>136.0</ele><time>2026-04-18T08:26:00.001Z</time></trkpt><trkpt lat="43.568527408869144" lon="10.824490888766384"><ele>134.33333333333334</ele><time>2026-04-18T08:26:01.001Z</time></trkpt><trkpt lat="43.56849944058615" lon="10.824275680093116"><ele>132.66666666666666</ele><time>2026-04-18T08:26:02.001Z</time></trkpt><trkpt lat="43.56847008170335" lon="10.824034864260248"><ele>131.0</ele><time>2026-04-18T08:26:03.001Z</time></trkpt><trkpt lat="43.56844248532685" lon="10.823775747298692"><ele>131.0</ele><time>2026-04-18T08:26:04.001Z</time></trkpt><trkpt lat="43.56842070022192" lon="10.823503686061848"><ele>131.0</ele><time>2026-04-18T08:26:05.001Z</time></trkpt><trkpt lat="43.568403200270524" lon="10.823245317829718"><ele>131.0</ele><time>2026-04-18T08:26:06.001Z</time></trkpt><trkpt lat="43.56839050322353" lon="10.823007475794256"><ele>130.66666666666666</ele><time>2026-04-18T08:26:07.001Z</time></trkpt><trkpt lat="43.5683743572871" lon="10.822782400900936"><ele>130.33333333333334</ele><time>2026-04-18T08:26:08.001Z</time></trkpt><trkpt lat="43.56836294573583" lon="10.82255934683352"><ele>130.0</ele><time>2026-04-18T08:26:09.001Z</time></trkpt><trkpt lat="43.568347516608334" lon="10.822358562911745"><ele>130.0</ele><time>2026-04-18T08:26:10.001Z</time></trkpt><trkpt lat="43.568316531338226" lon="10.822186495954067"><ele>130.0</ele><time>2026-04-18T08:26:11.001Z</time></trkpt><trkpt lat="43.56826518358083" lon="10.82203971395925"><ele>130.0</ele><time>2026-04-18T08:26:12.001Z</time></trkpt><trkpt lat="43.568171777117115" lon="10.82192650256684"><ele>130.0</ele><time>2026-04-18T08:26:13.001Z</time></trkpt><trkpt lat="43.56804168468031" lon="10.821847170627333"><ele>128.66666666666669</ele><time>2026-04-18T08:26:14.001Z</time></trkpt><trkpt lat="43.56787355616712" lon="10.821810895004509"><ele>127.33333333333334</ele><time>2026-04-18T08:26:15.001Z</time></trkpt><trkpt lat="43.56769296103844" lon="10.821783943016118"><ele>126.0</ele><time>2026-04-18T08:26:16.001Z</time></trkpt><trkpt lat="43.56752151912812" lon="10.821743920361044"><ele>126.0</ele><time>2026-04-18T08:26:17.001Z</time></trkpt><trkpt lat="43.567371151074056" lon="10.821694044973276"><ele>126.0</ele><time>2026-04-18T08:26:18.001Z</time></trkpt><trkpt lat="43.56722587113772" lon="10.821653358398335"><ele>126.0</ele><time>2026-04-18T08:26:19.001Z</time></trkpt><trkpt lat="43.56708296899684" lon="10.821611217694663"><ele>126.0</ele><time>2026-04-18T08:26:20.001Z</time></trkpt><trkpt lat="43.56694504112182" lon="10.821564958070569"><ele>137.0</ele><time>2026-04-18T08:26:21.001Z</time></trkpt><trkpt lat="43.56877339250959" lon="10.824747051400497"><ele>137.0</ele><time>2026-04-18T08:25:51.001Z</time></trkpt><trkpt lat="43.56875387940264" lon="10.824863462975243"><ele>137.0</ele><time>2026-04-18T08:25:52.001Z</time></trkpt><trkpt lat="43.56876481304451" lon="10.824993475285442"><ele>137.0</ele><time>2026-04-18T08:25:54.001Z</time></trkpt><trkpt lat="43.56869606462576" lon="10.825045815860697"><ele>137.0</ele><time>2026-04-18T08:25:55.001Z</time></trkpt><trkpt lat="43.568578370847234" lon="10.824938167804344"><ele>137.0</ele><time>2026-04-18T08:25:58.001Z</time></trkpt><trkpt lat="43.568558424143504" lon="10.824830123252744"><ele>136.75</ele><time>2026-04-18T08:25:59.001Z</time></trkpt><trkpt lat="43.56854511928966" lon="10.824682713491676"><ele>136.5</ele><time>2026-04-18T08:26:00.001Z</time></trkpt><trkpt lat="43.568527408869144" lon="10.824490888766384"><ele>136.25</ele><time>2026-04-18T08:26:01.001Z</time></trkpt><trkpt lat="43.56849944058615" lon="10.824275680093116"><ele>136.0</ele><time>2026-04-18T08:26:02.001Z</time></trkpt><trkpt lat="43.56847008170335" lon="10.824034864260248"><ele>134.33333333333334</ele><time>2026-04-18T08:26:03.001Z</time></trkpt><trkpt lat="43.56844248532685" lon="10.823775747298692"><ele>132.66666666666666</ele><time>2026-04-18T08:26:04.001Z</time></trkpt><trkpt lat="43.56842070022192" lon="10.823503686061848"><ele>131.0</ele><time>2026-04-18T08:26:05.001Z</time></trkpt><trkpt lat="43.568403200270524" lon="10.823245317829718"><ele>130.66666666666666</ele><time>2026-04-18T08:26:06.001Z</time></trkpt><trkpt lat="43.56839050322353" lon="10.823007475794256"><ele>130.33333333333334</ele><time>2026-04-18T08:26:07.001Z</time></trkpt><trkpt lat="43.5683743572871" lon="10.822782400900936"><ele>130.0</ele><time>2026-04-18T08:26:08.001Z</time></trkpt><trkpt lat="43.56836294573583" lon="10.82255934683352"><ele>130.0</ele><time>2026-04-18T08:26:09.001Z</time></trkpt><trkpt lat="43.568347516608334" lon="10.822358562911745"><ele>130.0</ele><time>2026-04-18T08:26:10.001Z</time></trkpt><trkpt lat="43.568316531338226" lon="10.822186495954067"><ele>130.0</ele><time>2026-04-18T08:26:11.001Z</time></trkpt><trkpt lat="43.56826518358083" lon="10.82203971395925"><ele>130.0</ele><time>2026-04-18T08:26:12.001Z</time></trkpt><trkpt lat="43.568171777117115" lon="10.82192650256684"><ele>130.0</ele><time>2026-04-18T08:26:13.001Z</time></trkpt><trkpt lat="43.56804168468031" lon="10.821847170627333"><ele>130.0</ele><time>2026-04-18T08:26:14.001Z</time></trkpt><trkpt lat="43.56787355616712" lon="10.821810895004509"><ele>130.0</ele><time>2026-04-18T08:26:15.001Z</time></trkpt><trkpt lat="43.56769296103844" lon="10.821783943016118"><ele>128.66666666666669</ele><time>2026-04-18T08:26:16.001Z</time></trkpt><trkpt lat="43.56752151912812" lon="10.821743920361044"><ele>127.33333333333334</ele><time>2026-04-18T08:26:17.001Z</time></trkpt><trkpt lat="43.567371151074056" lon="10.821694044973276"><ele>126.0</ele><time>2026-04-18T08:26:18.001Z</time></trkpt><trkpt lat="43.56722587113772" lon="10.821653358398335"><ele>126.0</ele><time>2026-04-18T08:26:19.001Z</time></trkpt><trkpt lat="43.56708296899684" lon="10.821611217694663"><ele>126.0</ele><time>2026-04-18T08:26:20.001Z</time></trkpt><trkpt lat="43.56694504112182" lon="10.821564958070569"><ele>126.0</ele><time>2026-04-18T08:26:21.001Z</time></trkpt><trkpt lat="43.56681067520827" lon="10.821521355774008"><ele>126.0</ele><time>2026-04-18T08:26:22.001Z</time></trkpt><trkpt lat="43.56668250999493" lon="10.821483704815556"><ele>122.0</ele><time>2026-04-18T08:26:23.001Z</time></trkpt><trkpt lat="43.56655541754208" lon="10.82144671570407"><ele>118.0</ele><time>2026-04-18T08:26:24.001Z</time></trkpt><trkpt lat="43.56643604974829" lon="10.821408332444097"><ele>114.0</ele><time>2026-04-18T08:26:25.001Z</time></trkpt><trkpt lat="43.566317957891194" lon="10.821371793428968"><ele>110.0</ele><time>2026-04-18T08:26:26.001Z</time></trkpt><trkpt lat="43.566201541177556" lon="10.82133267201918"><ele>107.25</ele><time>2026-04-18T08:26:27.001Z</time></trkpt><trkpt lat="43.5660926703037" lon="10.821316757876927"><ele>104.5</ele><time>2026-04-18T08:26:28.001Z</time></trkpt><trkpt lat="43.56597168579588" lon="10.821287757673852"><ele>101.75</ele><time>2026-04-18T08:26:29.001Z</time></trkpt><trkpt lat="43.565839945342546" lon="10.821247961597217"><ele>99.0</ele><time>2026-04-18T08:26:30.001Z</time></trkpt><trkpt lat="43.56570763040219" lon="10.821199738482825"><ele>99.0</ele><time>2026-04-18T08:26:31.001Z</time></trkpt><trkpt lat="43.565591208519905" lon="10.821146094338767"><ele>99.0</ele><time>2026-04-18T08:26:32.001Z</time></trkpt><trkpt lat="43.56548063149194" lon="10.821065561255397"><ele>99.0</ele><time>2026-04-18T08:26:33.001Z</time></trkpt><trkpt lat="43.565362822552586" lon="10.820945844789668"><ele>99.0</ele><time>2026-04-18T08:26:34.001Z</time></trkpt><trkpt lat="43.565231847762114" lon="10.820798272289196"><ele>99.0</ele><time>2026-04-18T08:26:35.001Z</time></trkpt><trkpt lat="43.56508989477075" lon="10.820630212647607"><ele>99.0</ele><time>2026-04-18T08:26:36.001Z</time></trkpt><trkpt lat="43.56493630463264" lon="10.820457360373325"><ele>99.0</ele><time>2026-04-18T08:26:37.001Z</time></trkpt><trkpt lat="43.56478631668262" lon="10.820296901049668"><ele>99.66666666666666</ele><time>2026-04-18T08:26:38.001Z</time></trkpt><trkpt lat="43.56464833111773" lon="10.820147710980677"><ele>100.33333333333333</ele><time>2026-04-18T08:26:39.001Z</time></trkpt><trkpt lat="43.56452208534968" lon="10.820000485770972"><ele>101.0</ele><time>2026-04-18T08:26:40.001Z</time></trkpt><trkpt lat="43.56441440587032" lon="10.819836414259909"><ele>96.33333333333333</ele><time>2026-04-18T08:26:41.001Z</time></trkpt><trkpt lat="43.564312976673286" lon="10.819642162897189"><ele>91.66666666666666</ele><time>2026-04-18T08:26:42.001Z</time></trkpt><trkpt lat="43.56421967829393" lon="10.819418987940981"><ele>87.0</ele><time>2026-04-18T08:26:43.001Z</time></trkpt><trkpt lat="43.564126663562035" lon="10.819202008373715"><ele>87.0</ele><time>2026-04-18T08:26:44.001Z</time></trkpt><trkpt lat="43.56405150782813" lon="10.81901543429338"><ele>87.0</ele><time>2026-04-18T08:26:45.001Z</time></trkpt><trkpt lat="43.56398746338143" lon="10.818860899521601"><ele>87.0</ele><time>2026-04-18T08:26:46.001Z</time></trkpt><trkpt lat="43.56393117423131" lon="10.81874468079071"><ele>87.0</ele><time>2026-04-18T08:26:47.001Z</time></trkpt><trkpt lat="43.56388111139973" lon="10.818663426622848"><ele>87.0</ele><time>2026-04-18T08:26:48.001Z</time></trkpt><trkpt lat="43.56381130769705" lon="10.81855879483748"><ele>87.0</ele><time>2026-04-18T08:26:50.001Z</time></trkpt><trkpt lat="43.563725379639074" lon="10.818572161777302"><ele>87.0</ele><time>2026-04-18T08:26:51.001Z</time></trkpt><trkpt lat="43.56362224482326" lon="10.818523241994702"><ele>87.0</ele><time>2026-04-18T08:26:53.001Z</time></trkpt><trkpt lat="43.563550103643955" lon="10.818526810488805"><ele>87.0</ele><time>2026-04-18T08:26:55.001Z</time></trkpt><trkpt lat="43.563457305515215" lon="10.818555771911742"><ele>85.39999999999999</ele><time>2026-04-18T08:26:57.001Z</time></trkpt><trkpt lat="43.56334337302996" lon="10.81861943220308"><ele>83.8</ele><time>2026-04-18T08:26:59.001Z</time></trkpt><trkpt lat="43.56327191804488" lon="10.81866555150116"><ele>82.2</ele><time>2026-04-18T08:27:00.001Z</time></trkpt><trkpt lat="43.563177721795185" lon="10.818728558864288"><ele>80.6</ele><time>2026-04-18T08:27:01.001Z</time></trkpt><trkpt lat="43.56306994638037" lon="10.81880221041399"><ele>79.0</ele><time>2026-04-18T08:27:02.001Z</time></trkpt><trkpt lat="43.56294413215034" lon="10.818889744215175"><ele>80.25</ele><time>2026-04-18T08:27:03.001Z</time></trkpt><trkpt lat="43.5628118005986" lon="10.818986505441641"><ele>81.5</ele><time>2026-04-18T08:27:04.001Z</time></trkpt><trkpt lat="43.562686276378436" lon="10.819073196455829"><ele>82.75</ele><time>2026-04-18T08:27:05.001Z</time></trkpt><trkpt lat="43.56257245820191" lon="10.81915160926456"><ele>84.0</ele><time>2026-04-18T08:27:06.001Z</time></trkpt><trkpt lat="43.56248575990574" lon="10.819201190329553"><ele>84.0</ele><time>2026-04-18T08:27:07.001Z</time></trkpt><trkpt lat="43.56239349121134" lon="10.819225924311208"><ele>84.0</ele><time>2026-04-18T08:27:08.001Z</time></trkpt><trkpt lat="43.56229733675023" lon="10.819224206007407"><ele>84.0</ele><time>2026-04-18T08:27:09.001Z</time></trkpt><trkpt lat="43.56219680704569" lon="10.819197945028925"><ele>84.0</ele><time>2026-04-18T08:27:10.001Z</time></trkpt><trkpt lat="43.56211154128495" lon="10.81911116333277"><ele>84.0</ele><time>2026-04-18T08:27:11.001Z</time></trkpt><trkpt lat="43.56203147601101" lon="10.8190092008227"><ele>83.5</ele><time>2026-04-18T08:27:12.001Z</time></trkpt><trkpt lat="43.56195343044635" lon="10.81887313408904"><ele>83.0</ele><time>2026-04-18T08:27:13.001Z</time></trkpt><trkpt lat="43.561858720873964" lon="10.81871487831016"><ele>82.5</ele><time>2026-04-18T08:27:14.001Z</time></trkpt><trkpt lat="43.56174534772572" lon="10.818530901307659"><ele>82.0</ele><time>2026-04-18T08:27:15.001Z</time></trkpt><trkpt lat="43.56162507811422" lon="10.81832383885256"><ele>82.0</ele><time>2026-04-18T08:27:16.001Z</time></trkpt><trkpt lat="43.56151108511682" lon="10.818119104623694"><ele>82.0</ele><time>2026-04-18T08:27:17.001Z</time></trkpt><trkpt lat="43.561386269831786" lon="10.817904742572253"><ele>82.0</ele><time>2026-04-18T08:27:18.001Z</time></trkpt><trkpt lat="43.5612621590499" lon="10.817694941998388"><ele>83.0</ele><time>2026-04-18T08:27:19.001Z</time></trkpt><trkpt lat="43.561148336489794" lon="10.817496383403014"><ele>84.0</ele><time>2026-04-18T08:27:20Z</time></trkpt><trkpt lat="43.561054477964774" lon="10.817328775628376"><ele>85.0</ele><time>2026-04-18T08:27:21Z</time></trkpt><trkpt lat="43.56095818963822" lon="10.817164282587527"><ele>85.0</ele><time>2026-04-18T08:27:22Z</time></trkpt><trkpt lat="43.560856745357434" lon="10.817011991466561"><ele>85.0</ele><time>2026-04-18T08:27:23Z</time></trkpt><trkpt lat="43.56074194169963" lon="10.8168723708047"><ele>85.0</ele><time>2026-04-18T08:27:24Z</time></trkpt><trkpt lat="43.5606176797206" lon="10.816742325466498"><ele>86.0</ele><time>2026-04-18T08:27:25Z</time></trkpt><trkpt lat="43.56048023249045" lon="10.816609528109524"><ele>87.0</ele><time>2026-04-18T08:27:26Z</time></trkpt><trkpt lat="43.56034048971096" lon="10.816470432337617"><ele>88.0</ele><time>2026-04-18T08:27:27Z</time></trkpt><trkpt lat="43.56019495645702" lon="10.816323772315517"><ele>88.0</ele><time>2026-04-18T08:27:28Z</time></trkpt><trkpt lat="43.56006069004477" lon="10.816189319948638"><ele>88.0</ele><time>2026-04-18T08:27:29Z</time></trkpt><trkpt lat="43.55994220564669" lon="10.816069804075775"><ele>88.0</ele><time>2026-04-18T08:27:30Z</time></trkpt><trkpt lat="43.55983642546582" lon="10.815961779888939"><ele>88.0</ele><time>2026-04-18T08:27:31Z</time></trkpt><trkpt lat="43.55973856127455" lon="10.815870368102322"><ele>86.25</ele><time>2026-04-18T08:27:32Z</time></trkpt><trkpt lat="43.55964344445675" lon="10.815803539582577"><ele>84.5</ele><time>2026-04-18T08:27:33Z</time></trkpt><trkpt lat="43.559534864044394" lon="10.815739232145441"><ele>82.75</ele><time>2026-04-18T08:27:34Z</time></trkpt><trkpt lat="43.559405066884274" lon="10.815690126916527"><ele>81.0</ele><time>2026-04-18T08:27:35Z</time></trkpt><trkpt lat="43.55924784099968" lon="10.81565746499677"><ele>81.0</ele><time>2026-04-18T08:27:36Z</time></trkpt><trkpt lat="43.559076713175976" lon="10.815627634525029"><ele>81.0</ele><time>2026-04-18T08:27:37Z</time></trkpt><trkpt lat="43.558908181755584" lon="10.815589567486398"><ele>81.0</ele><time>2026-04-18T08:27:38Z</time></trkpt><trkpt lat="43.558740509033306" lon="10.815543440653135"><ele>80.66666666666667</ele><time>2026-04-18T08:27:39Z</time></trkpt><trkpt lat="43.558566640336366" lon="10.815499641411924"><ele>80.33333333333334</ele><time>2026-04-18T08:27:39.999Z</time></trkpt><trkpt lat="43.55838352939421" lon="10.815456263795946"><ele>80.0</ele><time>2026-04-18T08:27:40.999Z</time></trkpt><trkpt lat="43.558196001873995" lon="10.815420973832792"><ele>80.0</ele><time>2026-04-18T08:27:41.999Z</time></trkpt><trkpt lat="43.55801184422163" lon="10.815380730835662"><ele>80.0</ele><time>2026-04-18T08:27:43Z</time></trkpt><trkpt lat="43.55783287204909" lon="10.815337162645122"><ele>80.0</ele><time>2026-04-18T08:27:44Z</time></trkpt><trkpt lat="43.557659231217116" lon="10.81529079892142"><ele>79.25</ele><time>2026-04-18T08:27:45Z</time></trkpt><trkpt lat="43.55749873795476" lon="10.815247694618495"><ele>78.5</ele><time>2026-04-18T08:27:46Z</time></trkpt><trkpt lat="43.55735942403583" lon="10.815209796667121"><ele>77.75</ele><time>2026-04-18T08:27:47Z</time></trkpt><trkpt lat="43.55723350826041" lon="10.815179938671745"><ele>77.0</ele><time>2026-04-18T08:27:48Z</time></trkpt><trkpt lat="43.55711606604378" lon="10.815162295600484"><ele>77.5</ele><time>2026-04-18T08:27:49Z</time></trkpt><trkpt lat="43.55698152649606" lon="10.815150983330856"><ele>78.0</ele><time>2026-04-18T08:27:50Z</time></trkpt><trkpt lat="43.556834680579236" lon="10.815169605960772"><ele>78.5</ele><time>2026-04-18T08:27:51Z</time></trkpt><trkpt lat="43.55667793217714" lon="10.815212471808549"><ele>79.0</ele><time>2026-04-18T08:27:52Z</time></trkpt><trkpt lat="43.556512411012065" lon="10.81527812246736"><ele>79.66666666666666</ele><time>2026-04-18T08:27:53Z</time></trkpt><trkpt lat="43.55634446296391" lon="10.815345169662722"><ele>80.33333333333333</ele><time>2026-04-18T08:27:54Z</time></trkpt><trkpt lat="43.55618586814243" lon="10.815403412585281"><ele>81.0</ele><time>2026-04-18T08:27:55Z</time></trkpt><trkpt lat="43.55605064113721" lon="10.81545220714158"><ele>83.0</ele><time>2026-04-18T08:27:56Z</time></trkpt><trkpt lat="43.55592515430512" lon="10.81549668325925"><ele>85.0</ele><time>2026-04-18T08:27:57Z</time></trkpt><trkpt lat="43.5557992266482" lon="10.815535326696748"><ele>87.0</ele><time>2026-04-18T08:27:58Z</time></trkpt><trkpt lat="43.55567700709316" lon="10.815582565143856"><ele>89.0</ele><time>2026-04-18T08:27:59Z</time></trkpt><trkpt lat="43.55556766326444" lon="10.815649035728633"><ele>89.0</ele><time>2026-04-18T08:28:00Z</time></trkpt><trkpt lat="43.55546290981151" lon="10.815738011018835"><ele>89.0</ele><time>2026-04-18T08:28:01Z</time></trkpt><trkpt lat="43.555367916275685" lon="10.815858231505992"><ele>89.0</ele><time>2026-04-18T08:28:02Z</time></trkpt><trkpt lat="43.555278211849114" lon="10.816004372871795"><ele>89.0</ele><time>2026-04-18T08:28:03Z</time></trkpt><trkpt lat="43.55519133087519" lon="10.8161668622205"><ele>91.66666666666667</ele><time>2026-04-18T08:28:04Z</time></trkpt><trkpt lat="43.55510330228292" lon="10.816341859824135"><ele>94.33333333333334</ele><time>2026-04-18T08:28:05Z</time></trkpt><trkpt lat="43.55500830330577" lon="10.816532331936582"><ele>97.0</ele><time>2026-04-18T08:28:06Z</time></trkpt><trkpt lat="43.55490147991725" lon="10.816719571256375"><ele>98.33333333333334</ele><time>2026-04-18T08:28:07Z</time></trkpt><trkpt lat="43.554788226044536" lon="10.816916314718368"><ele>99.66666666666666</ele><time>2026-04-18T08:28:08Z</time></trkpt><trkpt lat="43.55467135385019" lon="10.817123027215814"><ele>101.0</ele><time>2026-04-18T08:28:09Z</time></trkpt><trkpt lat="43.55455160232013" lon="10.81734254270156"><ele>101.66666666666666</ele><time>2026-04-18T08:28:10Z</time></trkpt><trkpt lat="43.5544265621589" lon="10.817563533605872"><ele>102.33333333333334</ele><time>2026-04-18T08:28:11Z</time></trkpt><trkpt lat="43.554296777484645" lon="10.817796882548613"><ele>103.0</ele><time>2026-04-18T08:28:12Z</time></trkpt><trkpt lat="43.554165441492465" lon="10.81803483088338"><ele>106.0</ele><time>2026-04-18T08:28:13Z</time></trkpt><trkpt lat="43.55402712835804" lon="10.818278633683937"><ele>109.0</ele><time>2026-04-18T08:28:14Z</time></trkpt><trkpt lat="43.55388884394197" lon="10.818531329603761"><ele>110.33333333333334</ele><time>2026-04-18T08:28:15Z</time></trkpt><trkpt lat="43.55375435993394" lon="10.818782886196699"><ele>111.66666666666666</ele><time>2026-04-18T08:28:16Z</time></trkpt><trkpt lat="43.55362962159356" lon="10.819010263935633"><ele>113.0</ele><time>2026-04-18T08:28:17Z</time></trkpt><trkpt lat="43.55351478250302" lon="10.81921296236518"><ele>116.0</ele><time>2026-04-18T08:28:18Z</time></trkpt><trkpt lat="43.553408296295885" lon="10.819407522256"><ele>119.0</ele><time>2026-04-18T08:28:19Z</time></trkpt><trkpt lat="43.5532868385712" lon="10.819626323976413"><ele>122.0</ele><time>2026-04-18T08:28:20Z</time></trkpt><trkpt lat="43.55316175536317" lon="10.819848582678183"><ele>122.0</ele><time>2026-04-18T08:28:21Z</time></trkpt><trkpt lat="43.553033357988525" lon="10.820076694243712"><ele>122.0</ele><time>2026-04-18T08:28:22Z</time></trkpt><trkpt lat="43.55290735074223" lon="10.82030433821523"><ele>122.0</ele><time>2026-04-18T08:28:23Z</time></trkpt><trkpt lat="43.55279023591627" lon="10.820509011823743"><ele>123.33333333333333</ele><time>2026-04-18T08:28:24Z</time></trkpt><trkpt lat="43.552690576571344" lon="10.82069629283585"><ele>124.66666666666666</ele><time>2026-04-18T08:28:25Z</time></trkpt><trkpt lat="43.552586894340116" lon="10.820894355625803"><ele>126.0</ele><time>2026-04-18T08:28:26Z</time></trkpt><trkpt lat="43.552478941491415" lon="10.821096803910796"><ele>127.66666666666666</ele><time>2026-04-18T08:28:27Z</time></trkpt><trkpt lat="43.55236341137317" lon="10.821310273507262"><ele>129.33333333333331</ele><time>2026-04-18T08:28:28Z</time></trkpt><trkpt lat="43.55224257361466" lon="10.821532054241642"><ele>131.0</ele><time>2026-04-18T08:28:29Z</time></trkpt><trkpt lat="43.5521338055783" lon="10.821731760194428"><ele>133.0</ele><time>2026-04-18T08:28:30Z</time></trkpt><trkpt lat="43.55203328302512" lon="10.821917175801701"><ele>135.0</ele><time>2026-04-18T08:28:31Z</time></trkpt><trkpt lat="43.55193619894066" lon="10.82209396748645"><ele>137.0</ele><time>2026-04-18T08:28:32Z</time></trkpt><trkpt lat="43.551835761508435" lon="10.822275679857423"><ele>137.0</ele><time>2026-04-18T08:28:33Z</time></trkpt><trkpt lat="43.551739607259066" lon="10.822448960678635"><ele>137.0</ele><time>2026-04-18T08:28:34Z</time></trkpt><trkpt lat="43.551658761122646" lon="10.82259518800394"><ele>137.0</ele><time>2026-04-18T08:28:35Z</time></trkpt><trkpt lat="43.55158675851202" lon="10.82271692748444"><ele>137.0</ele><time>2026-04-18T08:28:36Z</time></trkpt><trkpt lat="43.55151455285102" lon="10.82281911512291"><ele>139.0</ele><time>2026-04-18T08:28:37Z</time></trkpt><trkpt lat="43.55142951916164" lon="10.822900369255706"><ele>141.0</ele><time>2026-04-18T08:28:38Z</time></trkpt><trkpt lat="43.551327574141176" lon="10.822949333026443"><ele>143.0</ele><time>2026-04-18T08:28:39Z</time></trkpt><trkpt lat="43.55121403663559" lon="10.822964335971353"><ele>145.0</ele><time>2026-04-18T08:28:40Z</time></trkpt><trkpt lat="43.55109746495889" lon="10.82296056117821"><ele>147.0</ele><time>2026-04-18T08:28:41Z</time></trkpt><trkpt lat="43.550959142391" lon="10.822951632263832"><ele>147.0</ele><time>2026-04-18T08:28:42Z</time></trkpt><trkpt lat="43.55080661357064" lon="10.822934878181707"><ele>147.0</ele><time>2026-04-18T08:28:43Z</time></trkpt><trkpt lat="43.550643843484536" lon="10.82288954694558"><ele>147.0</ele><time>2026-04-18T08:28:44Z</time></trkpt><trkpt lat="43.55046519288683" lon="10.822828597162452"><ele>148.0</ele><time>2026-04-18T08:28:45Z</time></trkpt><trkpt lat="43.550274973578865" lon="10.822773935193231"><ele>149.0</ele><time>2026-04-18T08:28:46Z</time></trkpt><trkpt lat="43.550078565400995" lon="10.822722443615703"><ele>150.0</ele><time>2026-04-18T08:28:47Z</time></trkpt><trkpt lat="43.54988394387856" lon="10.822670174115647"><ele>148.33333333333334</ele><time>2026-04-18T08:28:48Z</time></trkpt><trkpt lat="43.54970178119555" lon="10.822627791397101"><ele>146.66666666666669</ele><time>2026-04-18T08:28:49Z</time></trkpt><trkpt lat="43.54952615020101" lon="10.822580304693455"><ele>145.0</ele><time>2026-04-18T08:28:50Z</time></trkpt><trkpt lat="43.549369791036206" lon="10.82254259847749"><ele>145.0</ele><time>2026-04-18T08:28:51Z</time></trkpt><trkpt lat="43.54923209240015" lon="10.822506446612005"><ele>145.0</ele><time>2026-04-18T08:28:52Z</time></trkpt><trkpt lat="43.549102892989715" lon="10.822471588620367"><ele>145.0</ele><time>2026-04-18T08:28:53Z</time></trkpt><trkpt lat="43.54896849378471" lon="10.822435311575433"><ele>145.0</ele><time>2026-04-18T08:28:54Z</time></trkpt><trkpt lat="43.548822425072665" lon="10.822391273009822"><ele>147.25</ele><time>2026-04-18T08:28:55Z</time></trkpt><trkpt lat="43.548685482198785" lon="10.822332689267148"><ele>149.5</ele><time>2026-04-18T08:28:56Z</time></trkpt><trkpt lat="43.54856830379918" lon="10.82226882862209"><ele>151.75</ele><time>2026-04-18T08:28:57Z</time></trkpt><trkpt lat="43.548469682432454" lon="10.822173301770714"><ele>154.0</ele><time>2026-04-18T08:28:58Z</time></trkpt><trkpt lat="43.54835972279652" lon="10.822072394013805"><ele>154.0</ele><time>2026-04-18T08:28:59Z</time></trkpt><trkpt lat="43.54827679360235" lon="10.821954967888898"><ele>154.0</ele><time>2026-04-18T08:29:00Z</time></trkpt><trkpt lat="43.54818813751098" lon="10.821835805184998"><ele>154.0</ele><time>2026-04-18T08:29:01Z</time></trkpt><trkpt lat="43.54810093146348" lon="10.821700514051079"><ele>154.0</ele><time>2026-04-18T08:29:02Z</time></trkpt><trkpt lat="43.548015842378895" lon="10.82156819551206"><ele>152.6</ele><time>2026-04-18T08:29:03Z</time></trkpt><trkpt lat="43.54793889673175" lon="10.8214627745627"><ele>151.2</ele><time>2026-04-18T08:29:04Z</time></trkpt><trkpt lat="43.54788030294612" lon="10.821386881007928"><ele>149.79999999999998</ele><time>2026-04-18T08:29:05Z</time></trkpt><trkpt lat="43.54776118221484" lon="10.821241272077746"><ele>148.4</ele><time>2026-04-18T08:29:08Z</time></trkpt><trkpt lat="43.54770973270375" lon="10.821168599552111"><ele>147.0</ele><time>2026-04-18T08:29:10Z</time></trkpt><trkpt lat="43.54765618178683" lon="10.821083618275642"><ele>146.5</ele><time>2026-04-18T08:29:12Z</time></trkpt><trkpt lat="43.5476094954762" lon="10.821020033572152"><ele>146.0</ele><time>2026-04-18T08:29:14Z</time></trkpt><trkpt lat="43.547560064405765" lon="10.820952419885208"><ele>145.5</ele><time>2026-04-18T08:29:24Z</time></trkpt><trkpt lat="43.54750772018141" lon="10.820884006795566"><ele>145.0</ele><time>2026-04-18T08:29:25Z</time></trkpt><trkpt lat="43.547436992147" lon="10.820771571247459"><ele>144.5</ele><time>2026-04-18T08:29:25.999Z</time></trkpt><trkpt lat="43.547365171223596" lon="10.820658552607608"><ele>144.0</ele><time>2026-04-18T08:29:26.999Z</time></trkpt><trkpt lat="43.54729968217429" lon="10.820565162295123"><ele>144.0</ele><time>2026-04-18T08:29:27.999Z</time></trkpt><trkpt lat="43.547248646427875" lon="10.82048620605539"><ele>144.0</ele><time>2026-04-18T08:29:28.999Z</time></trkpt><trkpt lat="43.54720026355812" lon="10.820417096781119"><ele>144.0</ele><time>2026-04-18T08:29:29.999Z</time></trkpt><trkpt lat="43.547090526501556" lon="10.820332569689878"><ele>144.0</ele><time>2026-04-18T08:29:31.999Z</time></trkpt><trkpt lat="43.547001438072996" lon="10.820344047329554"><ele>144.0</ele><time>2026-04-18T08:29:33.999Z</time></trkpt><trkpt lat="43.54691243734666" lon="10.820435720956985"><ele>141.0</ele><time>2026-04-18T08:29:35.999Z</time></trkpt><trkpt lat="43.54686756171584" lon="10.820520682771205"><ele>138.0</ele><time>2026-04-18T08:29:36.999Z</time></trkpt><trkpt lat="43.54683143637432" lon="10.82062111353021"><ele>135.0</ele><time>2026-04-18T08:29:37.999Z</time></trkpt><trkpt lat="43.54680481720126" lon="10.82074316262006"><ele>132.0</ele><time>2026-04-18T08:29:38.999Z</time></trkpt><trkpt lat="43.54677497164381" lon="10.82091262051865"><ele>129.0</ele><time>2026-04-18T08:29:39.999Z</time></trkpt><trkpt lat="43.54673719357017" lon="10.82110696078596"><ele>128.5</ele><time>2026-04-18T08:29:40.999Z</time></trkpt><trkpt lat="43.5466957668252" lon="10.821297400031696"><ele>128.0</ele><time>2026-04-18T08:29:41.999Z</time></trkpt><trkpt lat="43.546654655777935" lon="10.821466318050366"><ele>127.5</ele><time>2026-04-18T08:29:43Z</time></trkpt><trkpt lat="43.546618518048724" lon="10.82162011942854"><ele>127.0</ele><time>2026-04-18T08:29:44Z</time></trkpt><trkpt lat="43.546591090803595" lon="10.821765706845419"><ele>126.39999999999999</ele><time>2026-04-18T08:29:45Z</time></trkpt><trkpt lat="43.54653448526975" lon="10.821903670970238"><ele>125.79999999999998</ele><time>2026-04-18T08:29:46Z</time></trkpt><trkpt lat="43.546501218472145" lon="10.822051844514544"><ele>125.2</ele><time>2026-04-18T08:29:47Z</time></trkpt><trkpt lat="43.54647194214481" lon="10.822182244114048"><ele>124.6</ele><time>2026-04-18T08:29:48Z</time></trkpt><trkpt lat="43.54644378168501" lon="10.822307673532878"><ele>124.0</ele><time>2026-04-18T08:29:49Z</time></trkpt><trkpt lat="43.54641409979515" lon="10.82243987954687"><ele>124.0</ele><time>2026-04-18T08:29:50Z</time></trkpt><trkpt lat="43.546385776758925" lon="10.822562013672103"><ele>124.0</ele><time>2026-04-18T08:29:51Z</time></trkpt><trkpt lat="43.54636581052305" lon="10.822647353220937"><ele>124.0</ele><time>2026-04-18T08:29:52Z</time></trkpt><trkpt lat="43.546344492210544" lon="10.82273144596034"><ele>124.0</ele><time>2026-04-18T08:29:53Z</time></trkpt><trkpt lat="43.54628632361854" lon="10.822855687296375"><ele>124.0</ele><time>2026-04-18T08:29:55Z</time></trkpt><trkpt lat="43.54616232027368" lon="10.82287617769159"><ele>121.2</ele><time>2026-04-18T08:29:57Z</time></trkpt><trkpt lat="43.54609682635563" lon="10.822847935689907"><ele>118.4</ele><time>2026-04-18T08:29:58Z</time></trkpt><trkpt lat="43.546029087986106" lon="10.822780636961463"><ele>115.6</ele><time>2026-04-18T08:29:59Z</time></trkpt><trkpt lat="43.54596385194293" lon="10.8226746615092"><ele>112.8</ele><time>2026-04-18T08:30:00Z</time></trkpt><trkpt lat="43.54589754957913" lon="10.822535460025984"><ele>110.0</ele><time>2026-04-18T08:30:01Z</time></trkpt><trkpt lat="43.54582859667847" lon="10.822366433821198"><ele>110.0</ele><time>2026-04-18T08:30:02Z</time></trkpt><trkpt lat="43.54576485076343" lon="10.822215814128993"><ele>110.0</ele><time>2026-04-18T08:30:03Z</time></trkpt><trkpt lat="43.54571198809561" lon="10.822081951344744"><ele>110.0</ele><time>2026-04-18T08:30:04Z</time></trkpt><trkpt lat="43.54566799795546" lon="10.821929304985277"><ele>110.0</ele><time>2026-04-18T08:30:05Z</time></trkpt><trkpt lat="43.545625102636535" lon="10.821750676344047"><ele>110.0</ele><time>2026-04-18T08:30:06Z</time></trkpt><trkpt lat="43.545589653281326" lon="10.82155742189014"><ele>110.0</ele><time>2026-04-18T08:30:07Z</time></trkpt><trkpt lat="43.545557347462335" lon="10.821363115380578"><ele>110.0</ele><time>2026-04-18T08:30:08Z</time></trkpt><trkpt lat="43.545527418327474" lon="10.821197756068777"><ele>110.0</ele><time>2026-04-18T08:30:09Z</time></trkpt><trkpt lat="43.54550265698184" lon="10.821052388364379"><ele>109.8</ele><time>2026-04-18T08:30:10Z</time></trkpt><trkpt lat="43.54547583485461" lon="10.820917442234363"><ele>109.6</ele><time>2026-04-18T08:30:11Z</time></trkpt><trkpt lat="43.545452063728426" lon="10.82078606989971"><ele>109.4</ele><time>2026-04-18T08:30:12Z</time></trkpt><trkpt lat="43.54542667663152" lon="10.82065147214506"><ele>109.2</ele><time>2026-04-18T08:30:13Z</time></trkpt><trkpt lat="43.545386993509126" lon="10.820516945773589"><ele>109.0</ele><time>2026-04-18T08:30:14Z</time></trkpt><trkpt lat="43.545331894917894" lon="10.820383624745407"><ele>106.0</ele><time>2026-04-18T08:30:15Z</time></trkpt><trkpt lat="43.54525968741905" lon="10.82026581714836"><ele>103.0</ele><time>2026-04-18T08:30:16Z</time></trkpt><trkpt lat="43.54516778200479" lon="10.820160400087458"><ele>100.0</ele><time>2026-04-18T08:30:17Z</time></trkpt><trkpt lat="43.54505387142524" lon="10.820045616698"><ele>97.0</ele><time>2026-04-18T08:30:18Z</time></trkpt><trkpt lat="43.54495037607443" lon="10.81993050572976"><ele>97.0</ele><time>2026-04-18T08:30:19Z</time></trkpt><trkpt lat="43.544857721973386" lon="10.819797725769265"><ele>97.0</ele><time>2026-04-18T08:30:20Z</time></trkpt><trkpt lat="43.54478444935299" lon="10.81965528592001"><ele>97.0</ele><time>2026-04-18T08:30:21Z</time></trkpt><trkpt lat="43.54473316491131" lon="10.81950928368993"><ele>97.0</ele><time>2026-04-18T08:30:22Z</time></trkpt><trkpt lat="43.54469495130241" lon="10.819367068020634"><ele>97.6</ele><time>2026-04-18T08:30:23Z</time></trkpt><trkpt lat="43.54467644882511" lon="10.819233939961673"><ele>98.19999999999999</ele><time>2026-04-18T08:30:24Z</time></trkpt><trkpt lat="43.54466671635593" lon="10.819125476857398"><ele>98.8</ele><time>2026-04-18T08:30:25Z</time></trkpt><trkpt lat="43.54465520399193" lon="10.819017811826432"><ele>99.4</ele><time>2026-04-18T08:30:26Z</time></trkpt><trkpt lat="43.54463265547926" lon="10.818881829027275"><ele>100.0</ele><time>2026-04-18T08:30:27Z</time></trkpt><trkpt lat="43.54460714315041" lon="10.818697743896665"><ele>100.0</ele><time>2026-04-18T08:30:28Z</time></trkpt><trkpt lat="43.54457824933941" lon="10.818493668046308"><ele>100.0</ele><time>2026-04-18T08:30:29Z</time></trkpt><trkpt lat="43.544548643705944" lon="10.81828239204358"><ele>100.0</ele><time>2026-04-18T08:30:30Z</time></trkpt><trkpt lat="43.54452179941749" lon="10.818070254438954"><ele>94.33333333333334</ele><time>2026-04-18T08:30:31Z</time></trkpt><trkpt lat="43.544492968186155" lon="10.817841101031439"><ele>88.66666666666667</ele><time>2026-04-18T08:30:32Z</time></trkpt><trkpt lat="43.54446606728033" lon="10.817626683769129"><ele>83.0</ele><time>2026-04-18T08:30:33Z</time></trkpt><trkpt lat="43.544444443695156" lon="10.817447097720082"><ele>83.0</ele><time>2026-04-18T08:30:34Z</time></trkpt><trkpt lat="43.544422606452194" lon="10.817296867558616"><ele>83.0</ele><time>2026-04-18T08:30:35Z</time></trkpt><trkpt lat="43.54439620296554" lon="10.8171621208268"><ele>83.0</ele><time>2026-04-18T08:30:36Z</time></trkpt><trkpt lat="43.54435981841953" lon="10.817030947776964"><ele>83.0</ele><time>2026-04-18T08:30:37Z</time></trkpt><trkpt lat="43.54431277653045" lon="10.816922513901655"><ele>83.0</ele><time>2026-04-18T08:30:38Z</time></trkpt><trkpt lat="43.5442539725301" lon="10.816848929067726"><ele>83.4</ele><time>2026-04-18T08:30:39Z</time></trkpt><trkpt lat="43.544184057268126" lon="10.81679470391378"><ele>83.80000000000001</ele><time>2026-04-18T08:30:40Z</time></trkpt><trkpt lat="43.54410185148612" lon="10.816759261332388"><ele>84.2</ele><time>2026-04-18T08:30:41Z</time></trkpt><trkpt lat="43.54401115761857" lon="10.816753227745131"><ele>84.6</ele><time>2026-04-18T08:30:42Z</time></trkpt><trkpt lat="43.54390775133251" lon="10.816770098136724"><ele>85.0</ele><time>2026-04-18T08:30:43Z</time></trkpt><trkpt lat="43.54378869359163" lon="10.816815747664586"><ele>83.33333333333333</ele><time>2026-04-18T08:30:44Z</time></trkpt><trkpt lat="43.543659318466865" lon="10.816878798358383"><ele>81.66666666666667</ele><time>2026-04-18T08:30:45Z</time></trkpt><trkpt lat="43.54351509491224" lon="10.816952160174573"><ele>80.0</ele><time>2026-04-18T08:30:46Z</time></trkpt><trkpt lat="43.54336085643204" lon="10.817022537570955"><ele>80.0</ele><time>2026-04-18T08:30:47Z</time></trkpt><trkpt lat="43.54320837850696" lon="10.8170883788963"><ele>80.0</ele><time>2026-04-18T08:30:48Z</time></trkpt><trkpt lat="43.54307784086648" lon="10.817148671221144"><ele>80.0</ele><time>2026-04-18T08:30:49Z</time></trkpt><trkpt lat="43.5429885895647" lon="10.817192205522142"><ele>80.0</ele><time>2026-04-18T08:30:50Z</time></trkpt><trkpt lat="43.54291654943426" lon="10.817233925933962"><ele>81.2</ele><time>2026-04-18T08:30:51Z</time></trkpt><trkpt lat="43.54284111005531" lon="10.817310405492833"><ele>82.4</ele><time>2026-04-18T08:30:52Z</time></trkpt><trkpt lat="43.54277214341227" lon="10.817413014617033"><ele>83.6</ele><time>2026-04-18T08:30:53Z</time></trkpt><trkpt lat="43.54271727212462" lon="10.817533120965996"><ele>84.8</ele><time>2026-04-18T08:30:54Z</time></trkpt><trkpt lat="43.542685896125704" lon="10.817661186137798"><ele>86.0</ele><time>2026-04-18T08:30:55Z</time></trkpt><trkpt lat="43.54266556146637" lon="10.817814960420085"><ele>88.0</ele><time>2026-04-18T08:30:56Z</time></trkpt><trkpt lat="43.542652480832935" lon="10.817991959971033"><ele>90.0</ele><time>2026-04-18T08:30:57Z</time></trkpt><trkpt lat="43.542627622758395" lon="10.818205487548962"><ele>92.0</ele><time>2026-04-18T08:30:58Z</time></trkpt><trkpt lat="43.542622400082365" lon="10.81844362804682"><ele>93.66666666666667</ele><time>2026-04-18T08:30:59Z</time></trkpt><trkpt lat="43.54260591118276" lon="10.818706449729234"><ele>95.33333333333334</ele><time>2026-04-18T08:31:00Z</time></trkpt><trkpt lat="43.542585390914034" lon="10.81897188477987"><ele>97.0</ele><time>2026-04-18T08:31:01Z</time></trkpt><trkpt lat="43.54256865984521" lon="10.819202222808892"><ele>98.33333333333334</ele><time>2026-04-18T08:31:02Z</time></trkpt><trkpt lat="43.54255536337893" lon="10.819416624930447"><ele>99.66666666666666</ele><time>2026-04-18T08:31:03Z</time></trkpt><trkpt lat="43.54253759747318" lon="10.819628591343474"><ele>101.0</ele><time>2026-04-18T08:31:04Z</time></trkpt><trkpt lat="43.54251212102137" lon="10.819847844920043"><ele>101.0</ele><time>2026-04-18T08:31:05Z</time></trkpt><trkpt lat="43.542468951627626" lon="10.820089547242711"><ele>101.0</ele><time>2026-04-18T08:31:06Z</time></trkpt><trkpt lat="43.54241790020545" lon="10.820326384882733"><ele>101.0</ele><time>2026-04-18T08:31:07Z</time></trkpt><trkpt lat="43.542358723663334" lon="10.820564335067786"><ele>101.75</ele><time>2026-04-18T08:31:08Z</time></trkpt><trkpt lat="43.54229911880011" lon="10.82078282180746"><ele>102.5</ele><time>2026-04-18T08:31:09Z</time></trkpt><trkpt lat="43.542253115633876" lon="10.820938419341076"><ele>103.25</ele><time>2026-04-18T08:31:10Z</time></trkpt><trkpt lat="43.54220041952734" lon="10.821086179737987"><ele>104.0</ele><time>2026-04-18T08:31:11Z</time></trkpt><trkpt lat="43.5421256912475" lon="10.82123815917751"><ele>108.0</ele><time>2026-04-18T08:31:12Z</time></trkpt><trkpt lat="43.542032568663174" lon="10.821399109264384"><ele>112.0</ele><time>2026-04-18T08:31:13Z</time></trkpt><trkpt lat="43.54194814285653" lon="10.821550689467356"><ele>116.0</ele><time>2026-04-18T08:31:14Z</time></trkpt><trkpt lat="43.54185700030093" lon="10.82168694059907"><ele>120.0</ele><time>2026-04-18T08:31:15Z</time></trkpt><trkpt lat="43.54180126425941" lon="10.821863650489368"><ele>120.5</ele><time>2026-04-18T08:31:16Z</time></trkpt><trkpt lat="43.54178941566995" lon="10.822040598406158"><ele>121.0</ele><time>2026-04-18T08:31:17Z</time></trkpt><trkpt lat="43.5417770054091" lon="10.822217249625611"><ele>121.5</ele><time>2026-04-18T08:31:18Z</time></trkpt><trkpt lat="43.54177963405986" lon="10.82240107612611"><ele>122.0</ele><time>2026-04-18T08:31:19Z</time></trkpt><trkpt lat="43.54178309120707" lon="10.822601084323908"><ele>122.75</ele><time>2026-04-18T08:31:20Z</time></trkpt><trkpt lat="43.54176376377119" lon="10.822790599508503"><ele>123.5</ele><time>2026-04-18T08:31:21Z</time></trkpt><trkpt lat="43.54171336154233" lon="10.822971710316626"><ele>124.25</ele><time>2026-04-18T08:31:22Z</time></trkpt><trkpt lat="43.541662584401784" lon="10.823160373521938"><ele>125.0</ele><time>2026-04-18T08:31:23Z</time></trkpt><trkpt lat="43.54160465055594" lon="10.823362589044525"><ele>125.0</ele><time>2026-04-18T08:31:24Z</time></trkpt><trkpt lat="43.54154273058362" lon="10.8235743071193"><ele>125.0</ele><time>2026-04-18T08:31:25Z</time></trkpt><trkpt lat="43.54147303634945" lon="10.823795274997913"><ele>125.0</ele><time>2026-04-18T08:31:26Z</time></trkpt><trkpt lat="43.54141579671299" lon="10.824032965067907"><ele>125.0</ele><time>2026-04-18T08:31:27Z</time></trkpt><trkpt lat="43.54135114587071" lon="10.824224371868949"><ele>125.0</ele><time>2026-04-18T08:31:28Z</time></trkpt><trkpt lat="43.54129437171212" lon="10.824393850234271"><ele>125.0</ele><time>2026-04-18T08:31:29Z</time></trkpt><trkpt lat="43.54123529502355" lon="10.824570344538179"><ele>125.0</ele><time>2026-04-18T08:31:30Z</time></trkpt><trkpt lat="43.54117701490024" lon="10.824758936802466"><ele>130.33333333333331</ele><time>2026-04-18T08:31:31Z</time></trkpt><trkpt lat="43.541121543019365" lon="10.82496311394423"><ele>135.66666666666666</ele><time>2026-04-18T08:31:31.999Z</time></trkpt><trkpt lat="43.541046262846955" lon="10.825174591368175"><ele>141.0</ele><time>2026-04-18T08:31:32.999Z</time></trkpt><trkpt lat="43.54099477614097" lon="10.825415453163552"><ele>141.0</ele><time>2026-04-18T08:31:33.999Z</time></trkpt><trkpt lat="43.540926546587116" lon="10.825674598249455"><ele>141.0</ele><time>2026-04-18T08:31:35Z</time></trkpt><trkpt lat="43.54085552512425" lon="10.825943559906227"><ele>141.0</ele><time>2026-04-18T08:31:36Z</time></trkpt><trkpt lat="43.540787265768365" lon="10.826205397042209"><ele>141.66666666666666</ele><time>2026-04-18T08:31:37Z</time></trkpt><trkpt lat="43.54072938054151" lon="10.826420962720315"><ele>142.33333333333331</ele><time>2026-04-18T08:31:38Z</time></trkpt><trkpt lat="43.5406826809253" lon="10.826609405156649"><ele>143.0</ele><time>2026-04-18T08:31:39Z</time></trkpt><trkpt lat="43.54063252895451" lon="10.82680694636822"><ele>142.33333333333331</ele><time>2026-04-18T08:31:40Z</time></trkpt><trkpt lat="43.54057783585088" lon="10.827005744665184"><ele>141.66666666666666</ele><time>2026-04-18T08:31:41Z</time></trkpt><trkpt lat="43.54051303072043" lon="10.827210863321861"><ele>141.0</ele><time>2026-04-18T08:31:42Z</time></trkpt><trkpt lat="43.540429777153236" lon="10.82738566255951"><ele>143.5</ele><time>2026-04-18T08:31:43Z</time></trkpt><trkpt lat="43.54034232267073" lon="10.827572207595844"><ele>146.0</ele><time>2026-04-18T08:31:43.999Z</time></trkpt><trkpt lat="43.540270483653835" lon="10.827741512096056"><ele>148.5</ele><time>2026-04-18T08:31:44.999Z</time></trkpt><trkpt lat="43.54019213851547" lon="10.82787650356628"><ele>151.0</ele><time>2026-04-18T08:31:45.999Z</time></trkpt><trkpt lat="43.54013006541694" lon="10.827985432156504"><ele>151.0</ele><time>2026-04-18T08:31:46.999Z</time></trkpt><trkpt lat="43.54008493632772" lon="10.828063567594425"><ele>151.0</ele><time>2026-04-18T08:31:47.999Z</time></trkpt><trkpt lat="43.54000571953815" lon="10.82814338217696"><ele>151.0</ele><time>2026-04-18T08:31:49.999Z</time></trkpt><trkpt lat="43.539999662746645" lon="10.828331136283008"><ele>151.0</ele><time>2026-04-18T08:31:51.999Z</time></trkpt><trkpt lat="43.54003664916975" lon="10.828492197720768"><ele>151.0</ele><time>2026-04-18T08:31:53.999Z</time></trkpt><trkpt lat="43.540045401283045" lon="10.828644920699425"><ele>151.2</ele><time>2026-04-18T08:31:55.999Z</time></trkpt><trkpt lat="43.54007785461152" lon="10.82875586978197"><ele>151.39999999999998</ele><time>2026-04-18T08:31:57.999Z</time></trkpt><trkpt lat="43.54009768760066" lon="10.828895334604024"><ele>151.6</ele><time>2026-04-18T08:31:59.999Z</time></trkpt><trkpt lat="43.540110328167664" lon="10.82902571737474"><ele>151.79999999999998</ele><time>2026-04-18T08:32:01.999Z</time></trkpt><trkpt lat="43.54012447977188" lon="10.82913434346705"><ele>152.0</ele><time>2026-04-18T08:32:03.999Z</time></trkpt><trkpt lat="43.54014080805872" lon="10.829253092268079"><ele>152.2</ele><time>2026-04-18T08:32:05.999Z</time></trkpt><trkpt lat="43.540159096187644" lon="10.829395662201506"><ele>152.39999999999998</ele><time>2026-04-18T08:32:07.999Z</time></trkpt><trkpt lat="43.540170541980466" lon="10.829544467313058"><ele>152.60000000000002</ele><time>2026-04-18T08:32:09.999Z</time></trkpt><trkpt lat="43.54019800728896" lon="10.829635241966692"><ele>152.8</ele><time>2026-04-18T08:32:10.999Z</time></trkpt><trkpt lat="43.540210071729675" lon="10.829754896523186"><ele>153.0</ele><time>2026-04-18T08:32:11.999Z</time></trkpt><trkpt lat="43.54022911024874" lon="10.829899033117602"><ele>153.0</ele><time>2026-04-18T08:32:13Z</time></trkpt><trkpt lat="43.540245436056146" lon="10.8300449937274"><ele>153.0</ele><time>2026-04-18T08:32:14Z</time></trkpt><trkpt lat="43.54025626312752" lon="10.830195615135198"><ele>153.0</ele><time>2026-04-18T08:32:15Z</time></trkpt><trkpt lat="43.54026887966214" lon="10.830377246151667"><ele>153.0</ele><time>2026-04-18T08:32:16Z</time></trkpt><trkpt lat="43.54027011049918" lon="10.83056389445841"><ele>154.0</ele><time>2026-04-18T08:32:17Z</time></trkpt><trkpt lat="43.54026897574831" lon="10.830729567544436"><ele>155.0</ele><time>2026-04-18T08:32:18Z</time></trkpt><trkpt lat="43.54025989287762" lon="10.830896531488374"><ele>156.0</ele><time>2026-04-18T08:32:19Z</time></trkpt><trkpt lat="43.54024429169034" lon="10.831087621968527"><ele>157.0</ele><time>2026-04-18T08:32:20Z</time></trkpt><trkpt lat="43.540233974210025" lon="10.831280883158305"><ele>158.25</ele><time>2026-04-18T08:32:21Z</time></trkpt><trkpt lat="43.540222796480954" lon="10.831485434439253"><ele>159.5</ele><time>2026-04-18T08:32:22Z</time></trkpt><trkpt lat="43.54021176523693" lon="10.831685358374656"><ele>160.75</ele><time>2026-04-18T08:32:23Z</time></trkpt><trkpt lat="43.540203844396984" lon="10.8318800234865"><ele>162.0</ele><time>2026-04-18T08:32:24Z</time></trkpt><trkpt lat="43.54020300360327" lon="10.832044021653463"><ele>162.25</ele><time>2026-04-18T08:32:25Z</time></trkpt><trkpt lat="43.54021098485975" lon="10.832199766399892"><ele>162.5</ele><time>2026-04-18T08:32:26Z</time></trkpt><trkpt lat="43.54023675562693" lon="10.832367278309864"><ele>162.75</ele><time>2026-04-18T08:32:27Z</time></trkpt><trkpt lat="43.54027793567166" lon="10.832546556164894"><ele>163.0</ele><time>2026-04-18T08:32:28Z</time></trkpt><trkpt lat="43.540305398154146" lon="10.832747728065005"><ele>163.0</ele><time>2026-04-18T08:32:29Z</time></trkpt><trkpt lat="43.540341422948416" lon="10.83289670982157"><ele>163.0</ele><time>2026-04-18T08:32:30Z</time></trkpt><trkpt lat="43.54035526857045" lon="10.833052115278672"><ele>163.0</ele><time>2026-04-18T08:32:31Z</time></trkpt><trkpt lat="43.540365340122776" lon="10.833223541782447"><ele>163.0</ele><time>2026-04-18T08:32:32Z</time></trkpt><trkpt lat="43.540363966781605" lon="10.83341973725294"><ele>162.0</ele><time>2026-04-18T08:32:33Z</time></trkpt><trkpt lat="43.540360460961146" lon="10.833627244215739"><ele>161.0</ele><time>2026-04-18T08:32:34Z</time></trkpt><trkpt lat="43.5403369505744" lon="10.833837202382695"><ele>160.0</ele><time>2026-04-18T08:32:35Z</time></trkpt><trkpt lat="43.54032688567057" lon="10.834071241851516"><ele>160.33333333333334</ele><time>2026-04-18T08:32:36Z</time></trkpt><trkpt lat="43.5403163109125" lon="10.83431032196052"><ele>160.66666666666666</ele><time>2026-04-18T08:32:37Z</time></trkpt><trkpt lat="43.54030518134936" lon="10.834561945478246"><ele>161.0</ele><time>2026-04-18T08:32:38Z</time></trkpt><trkpt lat="43.54030996292462" lon="10.834805997070463"><ele>161.0</ele><time>2026-04-18T08:32:39Z</time></trkpt><trkpt lat="43.540299120183114" lon="10.835049024207091"><ele>161.0</ele><time>2026-04-18T08:32:40Z</time></trkpt><trkpt lat="43.54028517398605" lon="10.835286128646949"><ele>161.0</ele><time>2026-04-18T08:32:41Z</time></trkpt><trkpt lat="43.540274652363465" lon="10.83550584463577"><ele>160.75</ele><time>2026-04-18T08:32:42Z</time></trkpt><trkpt lat="43.540252222014544" lon="10.83569729624601"><ele>160.5</ele><time>2026-04-18T08:32:43Z</time></trkpt><trkpt lat="43.5402594350983" lon="10.835886616550484"><ele>160.25</ele><time>2026-04-18T08:32:44Z</time></trkpt><trkpt lat="43.540246960637" lon="10.836084026370452"><ele>160.0</ele><time>2026-04-18T08:32:45Z</time></trkpt><trkpt lat="43.5402234935785" lon="10.836290645663647"><ele>159.25</ele><time>2026-04-18T08:32:46Z</time></trkpt><trkpt lat="43.54021648708435" lon="10.836488995560194"><ele>158.5</ele><time>2026-04-18T08:32:47Z</time></trkpt><trkpt lat="43.54021339395835" lon="10.836663992896872"><ele>157.75</ele><time>2026-04-18T08:32:48Z</time></trkpt><trkpt lat="43.54021413397564" lon="10.83682775911796"><ele>157.0</ele><time>2026-04-18T08:32:49Z</time></trkpt><trkpt lat="43.540216616125164" lon="10.8369776842157"><ele>157.0</ele><time>2026-04-18T08:32:50Z</time></trkpt><trkpt lat="43.54023800684474" lon="10.83711973178541"><ele>157.0</ele><time>2026-04-18T08:32:51Z</time></trkpt><trkpt lat="43.540253186775914" lon="10.837264431218625"><ele>157.0</ele><time>2026-04-18T08:32:52Z</time></trkpt><trkpt lat="43.540270417444766" lon="10.837429808162337"><ele>157.0</ele><time>2026-04-18T08:32:53Z</time></trkpt><trkpt lat="43.54029602899992" lon="10.837602755934233"><ele>157.5</ele><time>2026-04-18T08:32:54Z</time></trkpt><trkpt lat="43.54032870896018" lon="10.837774931251081"><ele>158.0</ele><time>2026-04-18T08:32:55Z</time></trkpt><trkpt lat="43.5403566440341" lon="10.837941593416563"><ele>158.5</ele><time>2026-04-18T08:32:56Z</time></trkpt><trkpt lat="43.540387054875694" lon="10.8381097257291"><ele>159.0</ele><time>2026-04-18T08:32:57Z</time></trkpt><trkpt lat="43.540419712515146" lon="10.838283155581117"><ele>159.0</ele><time>2026-04-18T08:32:58Z</time></trkpt><trkpt lat="43.54044840488919" lon="10.838454409078778"><ele>159.0</ele><time>2026-04-18T08:32:59Z</time></trkpt><trkpt lat="43.540474608664184" lon="10.838614121582951"><ele>159.0</ele><time>2026-04-18T08:33:00Z</time></trkpt><trkpt lat="43.540506437482826" lon="10.838774916076828"><ele>159.0</ele><time>2026-04-18T08:33:01Z</time></trkpt><trkpt lat="43.54053892591334" lon="10.838931410766502"><ele>160.8</ele><time>2026-04-18T08:33:02Z</time></trkpt><trkpt lat="43.5405684806368" lon="10.839087535886279"><ele>162.60000000000002</ele><time>2026-04-18T08:33:03Z</time></trkpt><trkpt lat="43.540597393408966" lon="10.839236347401183"><ele>164.4</ele><time>2026-04-18T08:33:04Z</time></trkpt><trkpt lat="43.540621061475306" lon="10.839381673309381"><ele>166.20000000000002</ele><time>2026-04-18T08:33:05Z</time></trkpt><trkpt lat="43.54065170965972" lon="10.839513773504045"><ele>168.0</ele><time>2026-04-18T08:33:06Z</time></trkpt><trkpt lat="43.54067289560237" lon="10.839624256376814"><ele>169.4</ele><time>2026-04-18T08:33:07Z</time></trkpt><trkpt lat="43.54065461459065" lon="10.839716906008338"><ele>170.8</ele><time>2026-04-18T08:33:10Z</time></trkpt><trkpt lat="43.54059523822929" lon="10.8396581756968"><ele>172.2</ele><time>2026-04-18T08:33:13Z</time></trkpt><trkpt lat="43.540482553295064" lon="10.839569937748578"><ele>173.6</ele><time>2026-04-18T08:33:15Z</time></trkpt><trkpt lat="43.540409791891825" lon="10.839571804242674"><ele>175.0</ele><time>2026-04-18T08:33:16Z</time></trkpt><trkpt lat="43.5403042731702" lon="10.83956751198118"><ele>175.16666666666669</ele><time>2026-04-18T08:33:18Z</time></trkpt><trkpt lat="43.540223012739425" lon="10.839554684103662"><ele>175.33333333333334</ele><time>2026-04-18T08:33:20Z</time></trkpt><trkpt lat="43.5401339297887" lon="10.839501889907774"><ele>175.5</ele><time>2026-04-18T08:33:22Z</time></trkpt><trkpt lat="43.5400848311279" lon="10.839424517499921"><ele>175.66666666666666</ele><time>2026-04-18T08:33:23Z</time></trkpt><trkpt lat="43.5400145824504" lon="10.839365695662064"><ele>175.83333333333331</ele><time>2026-04-18T08:33:24Z</time></trkpt><trkpt lat="43.53993534090348" lon="10.83929727281976"><ele>176.0</ele><time>2026-04-18T08:33:25Z</time></trkpt><trkpt lat="43.53984678477705" lon="10.839244617318117"><ele>175.0</ele><time>2026-04-18T08:33:26Z</time></trkpt><trkpt lat="43.539769438668415" lon="10.839153708050498"><ele>174.0</ele><time>2026-04-18T08:33:27Z</time></trkpt><trkpt lat="43.53967568045796" lon="10.83909158731185"><ele>173.0</ele><time>2026-04-18T08:33:28Z</time></trkpt><trkpt lat="43.53959865350456" lon="10.839028832913296"><ele>172.0</ele><time>2026-04-18T08:33:29Z</time></trkpt><trkpt lat="43.53952605334259" lon="10.838976665103674"><ele>171.0</ele><time>2026-04-18T08:33:30Z</time></trkpt><trkpt lat="43.539463929267654" lon="10.838928446115244"><ele>170.0</ele><time>2026-04-18T08:33:31Z</time></trkpt><trkpt lat="43.5394003846003" lon="10.838875588181246"><ele>169.8</ele><time>2026-04-18T08:33:33Z</time></trkpt><trkpt lat="43.539315709520054" lon="10.838785625311193"><ele>169.6</ele><time>2026-04-18T08:33:35Z</time></trkpt><trkpt lat="43.53920659656334" lon="10.83870733471667"><ele>169.39999999999998</ele><time>2026-04-18T08:33:37Z</time></trkpt><trkpt lat="43.53912910339531" lon="10.838637379503249"><ele>169.2</ele><time>2026-04-18T08:33:37.999Z</time></trkpt><trkpt lat="43.539050311553055" lon="10.838569041416415"><ele>169.0</ele><time>2026-04-18T08:33:38.999Z</time></trkpt><trkpt lat="43.538951704044614" lon="10.83847574914212"><ele>168.2</ele><time>2026-04-18T08:33:40.999Z</time></trkpt><trkpt lat="43.53887643840253" lon="10.83842137477854"><ele>167.39999999999998</ele><time>2026-04-18T08:33:41.999Z</time></trkpt><trkpt lat="43.538762955273064" lon="10.838335289159266"><ele>166.6</ele><time>2026-04-18T08:33:42.999Z</time></trkpt><trkpt lat="43.538660297589196" lon="10.838243818570636"><ele>165.8</ele><time>2026-04-18T08:33:43.999Z</time></trkpt><trkpt lat="43.538578083242484" lon="10.838174084404578"><ele>165.0</ele><time>2026-04-18T08:33:44.999Z</time></trkpt><trkpt lat="43.538508539352804" lon="10.83811464514489"><ele>165.0</ele><time>2026-04-18T08:33:45.999Z</time></trkpt><trkpt lat="43.53844242367054" lon="10.838075734072545"><ele>165.0</ele><time>2026-04-18T08:33:46.999Z</time></trkpt><trkpt lat="43.538374828116524" lon="10.838019556930565"><ele>165.0</ele><time>2026-04-18T08:33:48.999Z</time></trkpt><trkpt lat="43.53831355697154" lon="10.837962990084112"><ele>165.0</ele><time>2026-04-18T08:33:52Z</time></trkpt><trkpt lat="43.53821443211868" lon="10.837878377894938"><ele>165.0</ele><time>2026-04-18T08:33:54Z</time></trkpt><trkpt lat="43.53812969186079" lon="10.837786865600776"><ele>165.0</ele><time>2026-04-18T08:33:56Z</time></trkpt><trkpt lat="43.53807495508386" lon="10.837739507244692"><ele>165.00000000000003</ele><time>2026-04-18T08:33:58Z</time></trkpt><trkpt lat="43.53801984919079" lon="10.837691829517794"><ele>165.0</ele><time>2026-04-18T08:33:59Z</time></trkpt><trkpt lat="43.53794739302753" lon="10.83764686076727"><ele>165.0</ele><time>2026-04-18T08:34:00Z</time></trkpt><trkpt lat="43.53788352145824" lon="10.837573878489337"><ele>165.0</ele><time>2026-04-18T08:34:01Z</time></trkpt><trkpt lat="43.53782150603416" lon="10.837523176820538"><ele>165.0</ele><time>2026-04-18T08:34:02Z</time></trkpt><trkpt lat="43.53776541910486" lon="10.837477017092949"><ele>165.00000000000003</ele><time>2026-04-18T08:34:03Z</time></trkpt><trkpt lat="43.53769921808223" lon="10.837449045669493"><ele>165.0</ele><time>2026-04-18T08:34:04Z</time></trkpt><trkpt lat="43.53762599436907" lon="10.837397638499937"><ele>163.6</ele><time>2026-04-18T08:34:05Z</time></trkpt><trkpt lat="43.537528917820225" lon="10.837343432792023"><ele>162.2</ele><time>2026-04-18T08:34:06Z</time></trkpt><trkpt lat="43.537423807380215" lon="10.837303870057793"><ele>160.8</ele><time>2026-04-18T08:34:07Z</time></trkpt><trkpt lat="43.53733482630498" lon="10.837251023084304"><ele>159.4</ele><time>2026-04-18T08:34:08Z</time></trkpt><trkpt lat="43.53724755577612" lon="10.837228491167128"><ele>158.0</ele><time>2026-04-18T08:34:09Z</time></trkpt><trkpt lat="43.53715174094078" lon="10.837204891860717"><ele>158.0</ele><time>2026-04-18T08:34:10Z</time></trkpt><trkpt lat="43.53706380726574" lon="10.837197617424325"><ele>158.0</ele><time>2026-04-18T08:34:11Z</time></trkpt><trkpt lat="43.536989587081784" lon="10.837132667275705"><ele>158.0</ele><time>2026-04-18T08:34:12Z</time></trkpt><trkpt lat="43.53693757036286" lon="10.837053148897137"><ele>158.0</ele><time>2026-04-18T08:34:13Z</time></trkpt><trkpt lat="43.53684611119095" lon="10.836964419606788"><ele>158.0</ele><time>2026-04-18T08:34:14Z</time></trkpt><trkpt lat="43.53674762096098" lon="10.836892462558326"><ele>157.8</ele><time>2026-04-18T08:34:15Z</time></trkpt><trkpt lat="43.53665301065982" lon="10.836840251355815"><ele>157.60000000000002</ele><time>2026-04-18T08:34:16Z</time></trkpt><trkpt lat="43.53656982139428" lon="10.836764928946396"><ele>157.39999999999998</ele><time>2026-04-18T08:34:17Z</time></trkpt><trkpt lat="43.53648334388672" lon="10.836725089962515"><ele>157.2</ele><time>2026-04-18T08:34:18Z</time></trkpt><trkpt lat="43.53642366561116" lon="10.836661777562684"><ele>157.0</ele><time>2026-04-18T08:34:19Z</time></trkpt><trkpt lat="43.53636041242338" lon="10.836582616491604"><ele>157.0</ele><time>2026-04-18T08:34:20Z</time></trkpt><trkpt lat="43.536283425782976" lon="10.836483770191014"><ele>157.0</ele><time>2026-04-18T08:34:21Z</time></trkpt><trkpt lat="43.53619004195924" lon="10.836381448343978"><ele>157.0</ele><time>2026-04-18T08:34:22Z</time></trkpt><trkpt lat="43.5361018025838" lon="10.836318100985938"><ele>157.0</ele><time>2026-04-18T08:34:23Z</time></trkpt><trkpt lat="43.536007461453906" lon="10.836278155250431"><ele>157.0</ele><time>2026-04-18T08:34:24Z</time></trkpt><trkpt lat="43.5359132169107" lon="10.836233544897667"><ele>158.0</ele><time>2026-04-18T08:34:25Z</time></trkpt><trkpt lat="43.53585483833215" lon="10.836147456887717"><ele>159.0</ele><time>2026-04-18T08:34:26Z</time></trkpt><trkpt lat="43.53579114154548" lon="10.836072271211206"><ele>160.0</ele><time>2026-04-18T08:34:27Z</time></trkpt><trkpt lat="43.53570970897172" lon="10.83596243606336"><ele>161.0</ele><time>2026-04-18T08:34:28Z</time></trkpt><trkpt lat="43.5356270029847" lon="10.835827482741335"><ele>162.0</ele><time>2026-04-18T08:34:29Z</time></trkpt><trkpt lat="43.53553336183098" lon="10.83570329298477"><ele>162.0</ele><time>2026-04-18T08:34:30Z</time></trkpt><trkpt lat="43.535448853872396" lon="10.835585323605535"><ele>162.0</ele><time>2026-04-18T08:34:31Z</time></trkpt><trkpt lat="43.535368350510076" lon="10.83547666251824"><ele>162.0</ele><time>2026-04-18T08:34:32Z</time></trkpt><trkpt lat="43.535278465969824" lon="10.835384844416371"><ele>162.0</ele><time>2026-04-18T08:34:33Z</time></trkpt><trkpt lat="43.53519668255201" lon="10.835314048686566"><ele>162.0</ele><time>2026-04-18T08:34:34Z</time></trkpt><trkpt lat="43.53511884211954" lon="10.835274927541116"><ele>163.6</ele><time>2026-04-18T08:34:35Z</time></trkpt><trkpt lat="43.53502505868528" lon="10.835270275506868"><ele>165.2</ele><time>2026-04-18T08:34:36Z</time></trkpt><trkpt lat="43.53495317506933" lon="10.835208528867355"><ele>166.8</ele><time>2026-04-18T08:34:37Z</time></trkpt><trkpt lat="43.534962480209856" lon="10.835078045745847"><ele>168.4</ele><time>2026-04-18T08:34:38Z</time></trkpt><trkpt lat="43.53491392872636" lon="10.834936269072546"><ele>170.0</ele><time>2026-04-18T08:34:40Z</time></trkpt><trkpt lat="43.534866513003266" lon="10.834802972974867"><ele>170.0</ele><time>2026-04-18T08:34:41Z</time></trkpt><trkpt lat="43.534807051911294" lon="10.834669504159923"><ele>170.0</ele><time>2026-04-18T08:34:42Z</time></trkpt><trkpt lat="43.53474636675741" lon="10.834553720055245"><ele>170.0</ele><time>2026-04-18T08:34:43Z</time></trkpt><trkpt lat="43.534680931351446" lon="10.834480759213251"><ele>170.0</ele><time>2026-04-18T08:34:44Z</time></trkpt><trkpt lat="43.53462615206635" lon="10.83440074037298"><ele>170.0</ele><time>2026-04-18T08:34:45Z</time></trkpt><trkpt lat="43.534561522121805" lon="10.834304637724202"><ele>170.33333333333331</ele><time>2026-04-18T08:34:46Z</time></trkpt><trkpt lat="43.53448038263528" lon="10.834214016746554"><ele>170.66666666666666</ele><time>2026-04-18T08:34:47Z</time></trkpt><trkpt lat="43.534408561056054" lon="10.834132963560462"><ele>171.0</ele><time>2026-04-18T08:34:48Z</time></trkpt><trkpt lat="43.53433508237163" lon="10.834050833421056"><ele>171.33333333333334</ele><time>2026-04-18T08:34:49Z</time></trkpt><trkpt lat="43.53427027524382" lon="10.833979493952011"><ele>171.66666666666669</ele><time>2026-04-18T08:34:50Z</time></trkpt><trkpt lat="43.5342160050951" lon="10.833932284642055"><ele>172.0</ele><time>2026-04-18T08:34:51Z</time></trkpt><trkpt lat="43.53409417131163" lon="10.833827767487398"><ele>172.0</ele><time>2026-04-18T08:34:53Z</time></trkpt><trkpt lat="43.53399217515819" lon="10.833756699973884"><ele>172.0</ele><time>2026-04-18T08:34:54Z</time></trkpt><trkpt lat="43.53392214402509" lon="10.833676671661848"><ele>172.0</ele><time>2026-04-18T08:34:55Z</time></trkpt><trkpt lat="43.53386457676852" lon="10.833586251331752"><ele>172.0</ele><time>2026-04-18T08:34:56Z</time></trkpt><trkpt lat="43.53380636701314" lon="10.833474604292865"><ele>172.0</ele><time>2026-04-18T08:34:57Z</time></trkpt><trkpt lat="43.533719932004246" lon="10.83334558504414"><ele>171.25</ele><time>2026-04-18T08:34:58Z</time></trkpt><trkpt lat="43.533642816829875" lon="10.833208881002692"><ele>170.5</ele><time>2026-04-18T08:34:59Z</time></trkpt><trkpt lat="43.5335487364169" lon="10.8330957630309"><ele>169.75</ele><time>2026-04-18T08:35:00Z</time></trkpt><trkpt lat="43.53349609788246" lon="10.832942449745163"><ele>169.0</ele><time>2026-04-18T08:35:01Z</time></trkpt><trkpt lat="43.53342781413442" lon="10.832776804433468"><ele>169.2</ele><time>2026-04-18T08:35:02Z</time></trkpt><trkpt lat="43.53336450078949" lon="10.832606914677521"><ele>169.39999999999998</ele><time>2026-04-18T08:35:03Z</time></trkpt><trkpt lat="43.533293832320815" lon="10.832483102451862"><ele>169.6</ele><time>2026-04-18T08:35:04Z</time></trkpt><trkpt lat="43.533249154603745" lon="10.832388241938647"><ele>169.8</ele><time>2026-04-18T08:35:05Z</time></trkpt><trkpt lat="43.533191006174434" lon="10.832300256290255"><ele>170.0</ele><time>2026-04-18T08:35:06Z</time></trkpt><trkpt lat="43.53311346616645" lon="10.832210757396663"><ele>170.0</ele><time>2026-04-18T08:35:07Z</time></trkpt><trkpt lat="43.53304533316606" lon="10.832090835962566"><ele>170.0</ele><time>2026-04-18T08:35:08Z</time></trkpt><trkpt lat="43.532959690179524" lon="10.831961031610799"><ele>170.0</ele><time>2026-04-18T08:35:09Z</time></trkpt><trkpt lat="43.5328840623878" lon="10.831813875014692"><ele>170.0</ele><time>2026-04-18T08:35:10Z</time></trkpt><trkpt lat="43.5328216199998" lon="10.831663156033398"><ele>170.0</ele><time>2026-04-18T08:35:11Z</time></trkpt><trkpt lat="43.532757789180685" lon="10.831499787773069"><ele>170.0</ele><time>2026-04-18T08:35:12Z</time></trkpt><trkpt lat="43.532693747823075" lon="10.831380095658808"><ele>170.0</ele><time>2026-04-18T08:35:13Z</time></trkpt><trkpt lat="43.5326295354747" lon="10.831311845985693"><ele>170.0</ele><time>2026-04-18T08:35:14Z</time></trkpt><trkpt lat="43.532570105732184" lon="10.831225319108407"><ele>170.0</ele><time>2026-04-18T08:35:15Z</time></trkpt><trkpt lat="43.5325110332212" lon="10.831125408095756"><ele>170.0</ele><time>2026-04-18T08:35:16Z</time></trkpt><trkpt lat="43.53242406687567" lon="10.83104065966577"><ele>170.0</ele><time>2026-04-18T08:35:17Z</time></trkpt><trkpt lat="43.5323342799344" lon="10.830965980250951"><ele>170.0</ele><time>2026-04-18T08:35:18Z</time></trkpt><trkpt lat="43.53223704056986" lon="10.8309057651868"><ele>170.0</ele><time>2026-04-18T08:35:19Z</time></trkpt><trkpt lat="43.532143437199544" lon="10.8308527714905"><ele>170.0</ele><time>2026-04-18T08:35:20Z</time></trkpt><trkpt lat="43.53204617130743" lon="10.83081883054322"><ele>172.75</ele><time>2026-04-18T08:35:21Z</time></trkpt><trkpt lat="43.531934846512065" lon="10.830779203555515"><ele>175.5</ele><time>2026-04-18T08:35:22Z</time></trkpt><trkpt lat="43.53181372714966" lon="10.830731219195556"><ele>178.25</ele><time>2026-04-18T08:35:23Z</time></trkpt><trkpt lat="43.53170566813028" lon="10.830657257173028"><ele>181.0</ele><time>2026-04-18T08:35:24Z</time></trkpt><trkpt lat="43.53158387058691" lon="10.830608766578427"><ele>181.0</ele><time>2026-04-18T08:35:25Z</time></trkpt><trkpt lat="43.531468061204876" lon="10.830541794129259"><ele>181.0</ele><time>2026-04-18T08:35:26Z</time></trkpt><trkpt lat="43.531359895185396" lon="10.830490452768144"><ele>181.0</ele><time>2026-04-18T08:35:27Z</time></trkpt><trkpt lat="43.531268417764224" lon="10.830451652928371"><ele>181.0</ele><time>2026-04-18T08:35:28Z</time></trkpt><trkpt lat="43.531213678805756" lon="10.830393688715612"><ele>181.0</ele><time>2026-04-18T08:35:29Z</time></trkpt><trkpt lat="43.5311549446039" lon="10.830355220314067"><ele>180.5</ele><time>2026-04-18T08:35:30Z</time></trkpt><trkpt lat="43.53109683998557" lon="10.830291237406431"><ele>180.0</ele><time>2026-04-18T08:35:31Z</time></trkpt><trkpt lat="43.5310573483973" lon="10.830158313267008"><ele>179.5</ele><time>2026-04-18T08:35:33Z</time></trkpt><trkpt lat="43.531036019249164" lon="10.830060752987782"><ele>179.0</ele><time>2026-04-18T08:35:36Z</time></trkpt><trkpt lat="43.530991802442635" lon="10.829911798902994"><ele>178.5</ele><time>2026-04-18T08:35:38Z</time></trkpt><trkpt lat="43.53099343478542" lon="10.829806761328884"><ele>178.0</ele><time>2026-04-18T08:35:39Z</time></trkpt><trkpt lat="43.53098016340301" lon="10.829682818821858"><ele>177.99999999999997</ele><time>2026-04-18T08:35:40Z</time></trkpt><trkpt lat="43.530955921312625" lon="10.829571833343405"><ele>178.0</ele><time>2026-04-18T08:35:41Z</time></trkpt><trkpt lat="43.53096024310312" lon="10.829461504034734"><ele>178.0</ele><time>2026-04-18T08:35:42Z</time></trkpt><trkpt lat="43.53093496944053" lon="10.829363646808426"><ele>178.0</ele><time>2026-04-18T08:35:43Z</time></trkpt><trkpt lat="43.5309302741927" lon="10.829262361803101"><ele>178.0</ele><time>2026-04-18T08:35:43.999Z</time></trkpt><trkpt lat="43.53092163794414" lon="10.829176319253557"><ele>177.99999999999997</ele><time>2026-04-18T08:35:44.999Z</time></trkpt><trkpt lat="43.53089636677386" lon="10.829093925534554"><ele>178.0</ele><time>2026-04-18T08:35:45.999Z</time></trkpt><trkpt lat="43.5308705606681" lon="10.829014153589181"><ele>177.60000000000002</ele><time>2026-04-18T08:35:46.999Z</time></trkpt><trkpt lat="43.53082292991492" lon="10.82890244119624"><ele>177.20000000000002</ele><time>2026-04-18T08:35:48.999Z</time></trkpt><trkpt lat="43.530782949743084" lon="10.828810405757208"><ele>176.8</ele><time>2026-04-18T08:35:54Z</time></trkpt><trkpt lat="43.530733298107215" lon="10.828734461792461"><ele>176.4</ele><time>2026-04-18T08:35:57Z</time></trkpt><trkpt lat="43.53065930039787" lon="10.828609972201047"><ele>176.0</ele><time>2026-04-18T08:35:59Z</time></trkpt><trkpt lat="43.53058993408891" lon="10.828524952772723"><ele>175.20000000000002</ele><time>2026-04-18T08:36:00Z</time></trkpt><trkpt lat="43.53051392478788" lon="10.82841333344909"><ele>174.4</ele><time>2026-04-18T08:36:01Z</time></trkpt><trkpt lat="43.530438867985154" lon="10.828305161080678"><ele>173.6</ele><time>2026-04-18T08:36:02Z</time></trkpt><trkpt lat="43.53037342041934" lon="10.828212337353488"><ele>172.8</ele><time>2026-04-18T08:36:03Z</time></trkpt><trkpt lat="43.530298515983596" lon="10.82813227075945"><ele>172.0</ele><time>2026-04-18T08:36:04Z</time></trkpt><trkpt lat="43.53022152210071" lon="10.828048806694486"><ele>171.33333333333334</ele><time>2026-04-18T08:36:05Z</time></trkpt><trkpt lat="43.53016371686773" lon="10.827952585867367"><ele>170.66666666666669</ele><time>2026-04-18T08:36:06Z</time></trkpt><trkpt lat="43.530077801728154" lon="10.827846074659757"><ele>170.0</ele><time>2026-04-18T08:36:08Z</time></trkpt><trkpt lat="43.53002787346295" lon="10.827764213489536"><ele>169.33333333333334</ele><time>2026-04-18T08:36:10Z</time></trkpt><trkpt lat="43.52997628870238" lon="10.827678877004347"><ele>168.66666666666666</ele><time>2026-04-18T08:36:13Z</time></trkpt><trkpt lat="43.52992998801704" lon="10.82760552350901"><ele>168.0</ele><time>2026-04-18T08:36:15Z</time></trkpt><trkpt lat="43.52988898301529" lon="10.827524092444204"><ele>168.0</ele><time>2026-04-18T08:36:17Z</time></trkpt><trkpt lat="43.52984118926247" lon="10.827427314208707"><ele>168.0</ele><time>2026-04-18T08:36:19Z</time></trkpt><trkpt lat="43.529814496156305" lon="10.827334383115048"><ele>168.0</ele><time>2026-04-18T08:36:22Z</time></trkpt><trkpt lat="43.52977923168794" lon="10.827257637708465"><ele>168.0</ele><time>2026-04-18T08:36:24Z</time></trkpt><trkpt lat="43.52973605328977" lon="10.82717476664067"><ele>168.0</ele><time>2026-04-18T08:36:26Z</time></trkpt><trkpt lat="43.529681648548326" lon="10.827077907421048"><ele>168.0</ele><time>2026-04-18T08:36:28Z</time></trkpt><trkpt lat="43.529627709450956" lon="10.827019225463488"><ele>168.0</ele><time>2026-04-18T08:36:30Z</time></trkpt><trkpt lat="43.52957135966182" lon="10.826930781190846"><ele>168.0</ele><time>2026-04-18T08:36:32Z</time></trkpt><trkpt lat="43.52951506110911" lon="10.826846063816399"><ele>168.0</ele><time>2026-04-18T08:36:35Z</time></trkpt><trkpt lat="43.52948170902024" lon="10.82675848885513"><ele>168.0</ele><time>2026-04-18T08:36:37Z</time></trkpt><trkpt lat="43.52942540353386" lon="10.826653746739881"><ele>168.0</ele><time>2026-04-18T08:36:39Z</time></trkpt><trkpt lat="43.52934324606469" lon="10.826533760342384"><ele>165.83333333333334</ele><time>2026-04-18T08:36:41Z</time></trkpt><trkpt lat="43.52930525176297" lon="10.826454760904284"><ele>163.66666666666666</ele><time>2026-04-18T08:36:42Z</time></trkpt><trkpt lat="43.52925884518877" lon="10.826366436930233"><ele>161.5</ele><time>2026-04-18T08:36:43Z</time></trkpt><trkpt lat="43.52920247519992" lon="10.82625546097233"><ele>159.33333333333331</ele><time>2026-04-18T08:36:44Z</time></trkpt><trkpt lat="43.52915001964758" lon="10.826158815224527"><ele>157.16666666666666</ele><time>2026-04-18T08:36:45Z</time></trkpt><trkpt lat="43.52909957862916" lon="10.82606156009893"><ele>155.0</ele><time>2026-04-18T08:36:46Z</time></trkpt><trkpt lat="43.52904703208088" lon="10.825960387163052"><ele>152.6</ele><time>2026-04-18T08:36:47Z</time></trkpt><trkpt lat="43.529021607878356" lon="10.825859573068042"><ele>150.2</ele><time>2026-04-18T08:36:48Z</time></trkpt><trkpt lat="43.5289636702173" lon="10.82573874191873"><ele>147.8</ele><time>2026-04-18T08:36:50Z</time></trkpt><trkpt lat="43.52892643525851" lon="10.825636980501484"><ele>145.4</ele><time>2026-04-18T08:36:51Z</time></trkpt><trkpt lat="43.528901639263765" lon="10.825502877868407"><ele>143.0</ele><time>2026-04-18T08:36:52Z</time></trkpt><trkpt lat="43.5288662335942" lon="10.825367128946205"><ele>143.0</ele><time>2026-04-18T08:36:53Z</time></trkpt><trkpt lat="43.52883775917727" lon="10.825241790978748"><ele>143.0</ele><time>2026-04-18T08:36:54Z</time></trkpt><trkpt lat="43.52881874375243" lon="10.825154266958014"><ele>143.0</ele><time>2026-04-18T08:36:55Z</time></trkpt><trkpt lat="43.528799922245696" lon="10.825067635561162"><ele>143.0</ele><time>2026-04-18T08:36:58Z</time></trkpt><trkpt lat="43.52876384641671" lon="10.82493709683612"><ele>143.0</ele><time>2026-04-18T08:37:04Z</time></trkpt><trkpt lat="43.52874669664961" lon="10.824853395101272"><ele>143.0</ele><time>2026-04-18T08:37:05Z</time></trkpt><trkpt lat="43.528727000085055" lon="10.824761794554426"><ele>142.0</ele><time>2026-04-18T08:37:06Z</time></trkpt><trkpt lat="43.52870640501573" lon="10.82465303933414"><ele>141.0</ele><time>2026-04-18T08:37:07Z</time></trkpt><trkpt lat="43.52868093386348" lon="10.824549229246111"><ele>140.0</ele><time>2026-04-18T08:37:08Z</time></trkpt><trkpt lat="43.52866912198506" lon="10.824442766120582"><ele>139.0</ele><time>2026-04-18T08:37:10Z</time></trkpt><trkpt lat="43.528642550781726" lon="10.824335170583199"><ele>138.0</ele><time>2026-04-18T08:37:13Z</time></trkpt><trkpt lat="43.52860825658397" lon="10.824251412809033"><ele>137.0</ele><time>2026-04-18T08:37:16Z</time></trkpt><trkpt lat="43.528587802296336" lon="10.824149320323286"><ele>136.83333333333331</ele><time>2026-04-18T08:37:19Z</time></trkpt><trkpt lat="43.52854368454187" lon="10.824053273459782"><ele>136.66666666666666</ele><time>2026-04-18T08:37:21Z</time></trkpt><trkpt lat="43.52849508858485" lon="10.823917712682782"><ele>136.5</ele><time>2026-04-18T08:37:23Z</time></trkpt><trkpt lat="43.528478459813904" lon="10.823829238940286"><ele>136.33333333333334</ele><time>2026-04-18T08:37:25Z</time></trkpt><trkpt lat="43.52842502857226" lon="10.823721863244069"><ele>136.16666666666669</ele><time>2026-04-18T08:37:27Z</time></trkpt><trkpt lat="43.528393681476885" lon="10.82363120746954"><ele>136.0</ele><time>2026-04-18T08:37:28Z</time></trkpt><trkpt lat="43.52835581893443" lon="10.823547617133814"><ele>134.6</ele><time>2026-04-18T08:37:29Z</time></trkpt><trkpt lat="43.52830720698035" lon="10.823442953349431"><ele>133.2</ele><time>2026-04-18T08:37:30Z</time></trkpt><trkpt lat="43.52824599848589" lon="10.823302399119209"><ele>131.8</ele><time>2026-04-18T08:37:31Z</time></trkpt><trkpt lat="43.52819317107265" lon="10.823180886244037"><ele>130.4</ele><time>2026-04-18T08:37:32Z</time></trkpt><trkpt lat="43.528146636229245" lon="10.823072957990565"><ele>129.0</ele><time>2026-04-18T08:37:33Z</time></trkpt><trkpt lat="43.52810063861248" lon="10.822967805023582"><ele>129.0</ele><time>2026-04-18T08:37:34Z</time></trkpt><trkpt lat="43.528051145159914" lon="10.822862944202456"><ele>129.0</ele><time>2026-04-18T08:37:35Z</time></trkpt><trkpt lat="43.528008693820425" lon="10.82277660951515"><ele>129.0</ele><time>2026-04-18T08:37:36Z</time></trkpt><trkpt lat="43.52797085232525" lon="10.822679039695426"><ele>129.0</ele><time>2026-04-18T08:37:37Z</time></trkpt><trkpt lat="43.52792602818849" lon="10.82259119233615"><ele>129.0</ele><time>2026-04-18T08:37:38Z</time></trkpt><trkpt lat="43.52788433923057" lon="10.822510477277687"><ele>129.0</ele><time>2026-04-18T08:37:39Z</time></trkpt><trkpt lat="43.52785557641389" lon="10.822372632196036"><ele>127.5</ele><time>2026-04-18T08:37:41Z</time></trkpt><trkpt lat="43.52786963012303" lon="10.822270764333943"><ele>126.0</ele><time>2026-04-18T08:37:43Z</time></trkpt><trkpt lat="43.52793046901788" lon="10.82217744913386"><ele>124.5</ele><time>2026-04-18T08:37:45Z</time></trkpt><trkpt lat="43.52799225593848" lon="10.822034697276898"><ele>123.0</ele><time>2026-04-18T08:37:47Z</time></trkpt><trkpt lat="43.528017881862105" lon="10.821941386410266"><ele>121.5</ele><time>2026-04-18T08:37:48Z</time></trkpt><trkpt lat="43.528033928266645" lon="10.821820115127865"><ele>120.0</ele><time>2026-04-18T08:37:49Z</time></trkpt><trkpt lat="43.5280172631725" lon="10.821666169152305"><ele>118.0</ele><time>2026-04-18T08:37:49.999Z</time></trkpt><trkpt lat="43.528006597173594" lon="10.821507039725539"><ele>116.0</ele><time>2026-04-18T08:37:50.999Z</time></trkpt><trkpt lat="43.52798313712637" lon="10.8213460820038"><ele>114.0</ele><time>2026-04-18T08:37:51.999Z</time></trkpt><trkpt lat="43.52795932982064" lon="10.821187046312051"><ele>112.0</ele><time>2026-04-18T08:37:52.999Z</time></trkpt><trkpt lat="43.52793672466903" lon="10.821026494790594"><ele>111.66666666666667</ele><time>2026-04-18T08:37:53.999Z</time></trkpt><trkpt lat="43.52793092510752" lon="10.82087988128132"><ele>111.33333333333334</ele><time>2026-04-18T08:37:54.999Z</time></trkpt><trkpt lat="43.5278955843215" lon="10.82075438353103"><ele>111.0</ele><time>2026-04-18T08:37:55.999Z</time></trkpt><trkpt lat="43.527875484430695" lon="10.820645114277394"><ele>110.66666666666666</ele><time>2026-04-18T08:37:56.999Z</time></trkpt><trkpt lat="43.52785414239962" lon="10.820543092401309"><ele>110.33333333333333</ele><time>2026-04-18T08:37:57.999Z</time></trkpt><trkpt lat="43.527798576159064" lon="10.820457984951524"><ele>110.0</ele><time>2026-04-18T08:37:58.999Z</time></trkpt><trkpt lat="43.52769644533194" lon="10.82043689926613"><ele>110.0</ele><time>2026-04-18T08:37:59.999Z</time></trkpt><trkpt lat="43.52760435359701" lon="10.820401705351776"><ele>110.0</ele><time>2026-04-18T08:38:00.999Z</time></trkpt><trkpt lat="43.5275036369434" lon="10.82037574633965"><ele>110.0</ele><time>2026-04-18T08:38:01.999Z</time></trkpt><trkpt lat="43.527403421432304" lon="10.820364285767933"><ele>110.0</ele><time>2026-04-18T08:38:02.999Z</time></trkpt><trkpt lat="43.52731024158203" lon="10.820328772713243"><ele>110.0</ele><time>2026-04-18T08:38:03.999Z</time></trkpt><trkpt lat="43.527234829102504" lon="10.820304469593903"><ele>109.99999999999999</ele><time>2026-04-18T08:38:04.999Z</time></trkpt><trkpt lat="43.52717157860528" lon="10.820280786126546"><ele>110.0</ele><time>2026-04-18T08:38:05.999Z</time></trkpt><trkpt lat="43.52706928742276" lon="10.82020039294832"><ele>110.0</ele><time>2026-04-18T08:38:07.999Z</time></trkpt><trkpt lat="43.5270287495304" lon="10.82012349667261"><ele>110.0</ele><time>2026-04-18T08:38:08.999Z</time></trkpt><trkpt lat="43.52700387057932" lon="10.820029223857563"><ele>109.99999999999999</ele><time>2026-04-18T08:38:09.999Z</time></trkpt><trkpt lat="43.52702980407136" lon="10.819915798076462"><ele>110.0</ele><time>2026-04-18T08:38:10.999Z</time></trkpt><trkpt lat="43.527020735119436" lon="10.819763213164206"><ele>106.6</ele><time>2026-04-18T08:38:11.999Z</time></trkpt><trkpt lat="43.527036165505834" lon="10.819580396181438"><ele>103.2</ele><time>2026-04-18T08:38:12.999Z</time></trkpt><trkpt lat="43.527045714854395" lon="10.81940557038106"><ele>99.80000000000001</ele><time>2026-04-18T08:38:13.999Z</time></trkpt><trkpt lat="43.527053624899665" lon="10.819276880507644"><ele>96.4</ele><time>2026-04-18T08:38:15Z</time></trkpt><trkpt lat="43.527058754498334" lon="10.819166596109122"><ele>93.0</ele><time>2026-04-18T08:38:16Z</time></trkpt><trkpt lat="43.527034093077376" lon="10.819068695270392"><ele>92.33333333333333</ele><time>2026-04-18T08:38:17Z</time></trkpt><trkpt lat="43.52700544486999" lon="10.818952231824715"><ele>91.66666666666667</ele><time>2026-04-18T08:38:18Z</time></trkpt><trkpt lat="43.52695369374564" lon="10.818823870229748"><ele>91.0</ele><time>2026-04-18T08:38:19Z</time></trkpt><trkpt lat="43.52690153998186" lon="10.818734255062886"><ele>90.33333333333334</ele><time>2026-04-18T08:38:20Z</time></trkpt><trkpt lat="43.52685612785716" lon="10.818657947735977"><ele>89.66666666666667</ele><time>2026-04-18T08:38:21Z</time></trkpt><trkpt lat="43.52680234806321" lon="10.81857718606074"><ele>89.0</ele><time>2026-04-18T08:38:23Z</time></trkpt><trkpt lat="43.52685853813628" lon="10.818438028794573"><ele>89.0</ele><time>2026-04-18T08:39:17Z</time></trkpt><trkpt lat="43.52691159473803" lon="10.818344641539253"><ele>89.0</ele><time>2026-04-18T08:39:18Z</time></trkpt><trkpt lat="43.5269787886622" lon="10.818219224668065"><ele>89.0</ele><time>2026-04-18T08:39:19Z</time></trkpt><trkpt lat="43.527045869140075" lon="10.818100338334663"><ele>89.0</ele><time>2026-04-18T08:39:20Z</time></trkpt><trkpt lat="43.52711603091997" lon="10.817961326482262"><ele>89.0</ele><time>2026-04-18T08:39:21Z</time></trkpt><trkpt lat="43.52718143557695" lon="10.817837302990219"><ele>88.16666666666667</ele><time>2026-04-18T08:39:22Z</time></trkpt><trkpt lat="43.52725111244199" lon="10.817706631350935"><ele>87.33333333333334</ele><time>2026-04-18T08:39:23Z</time></trkpt><trkpt lat="43.5273008891681" lon="10.817604524176875"><ele>86.5</ele><time>2026-04-18T08:39:24Z</time></trkpt><trkpt lat="43.52736919650526" lon="10.817527008133464"><ele>85.66666666666667</ele><time>2026-04-18T08:39:25Z</time></trkpt><trkpt lat="43.52742105979631" lon="10.817465122882"><ele>84.83333333333333</ele><time>2026-04-18T08:39:26Z</time></trkpt><trkpt lat="43.52749098810004" lon="10.817400185505107"><ele>84.0</ele><time>2026-04-18T08:39:27Z</time></trkpt><trkpt lat="43.52757160602544" lon="10.817338195822858"><ele>84.0</ele><time>2026-04-18T08:39:28Z</time></trkpt><trkpt lat="43.527670424471296" lon="10.81726171444594"><ele>84.0</ele><time>2026-04-18T08:39:29Z</time></trkpt><trkpt lat="43.52774831788867" lon="10.817158547445134"><ele>84.0</ele><time>2026-04-18T08:39:30Z</time></trkpt><trkpt lat="43.52777987745995" lon="10.817049183640137"><ele>84.0</ele><time>2026-04-18T08:39:31Z</time></trkpt><trkpt lat="43.52781299543866" lon="10.816935617662702"><ele>84.0</ele><time>2026-04-18T08:39:32Z</time></trkpt><trkpt lat="43.52785500426168" lon="10.816787419896908"><ele>85.5</ele><time>2026-04-18T08:39:33Z</time></trkpt><trkpt lat="43.5279041043829" lon="10.81661218333682"><ele>87.0</ele><time>2026-04-18T08:39:34Z</time></trkpt><trkpt lat="43.52796302729058" lon="10.816416541313423"><ele>88.5</ele><time>2026-04-18T08:39:35Z</time></trkpt><trkpt lat="43.52804177409849" lon="10.816251620780278"><ele>90.0</ele><time>2026-04-18T08:39:36Z</time></trkpt><trkpt lat="43.52810728579789" lon="10.816119608216333"><ele>90.0</ele><time>2026-04-18T08:39:37Z</time></trkpt><trkpt lat="43.528181824767984" lon="10.816027877474614"><ele>90.0</ele><time>2026-04-18T08:39:38Z</time></trkpt><trkpt lat="43.52824524549778" lon="10.815991009949405"><ele>90.0</ele><time>2026-04-18T08:39:39Z</time></trkpt><trkpt lat="43.52831881484649" lon="10.816008527185467"><ele>90.0</ele><time>2026-04-18T08:39:40Z</time></trkpt><trkpt lat="43.52841522652789" lon="10.816034771555143"><ele>90.0</ele><time>2026-04-18T08:39:41Z</time></trkpt><trkpt lat="43.528538576660075" lon="10.816068159255213"><ele>90.0</ele><time>2026-04-18T08:39:42Z</time></trkpt><trkpt lat="43.52866487287004" lon="10.816102361941095"><ele>90.0</ele><time>2026-04-18T08:39:43Z</time></trkpt><trkpt lat="43.52880715518748" lon="10.816133158514011"><ele>90.0</ele><time>2026-04-18T08:39:44Z</time></trkpt><trkpt lat="43.52893694019229" lon="10.816128650281582"><ele>90.0</ele><time>2026-04-18T08:39:45Z</time></trkpt><trkpt lat="43.52905533809251" lon="10.81608325947024"><ele>92.25</ele><time>2026-04-18T08:39:46Z</time></trkpt><trkpt lat="43.52917433241656" lon="10.816023822404143"><ele>94.5</ele><time>2026-04-18T08:39:47Z</time></trkpt><trkpt lat="43.52929834947144" lon="10.815948363284006"><ele>96.75</ele><time>2026-04-18T08:39:48Z</time></trkpt><trkpt lat="43.52942195593381" lon="10.8158681666678"><ele>99.0</ele><time>2026-04-18T08:39:49Z</time></trkpt><trkpt lat="43.52955710920017" lon="10.815836740838657"><ele>105.25</ele><time>2026-04-18T08:39:50Z</time></trkpt><trkpt lat="43.52970097085583" lon="10.815796372862218"><ele>111.5</ele><time>2026-04-18T08:39:51Z</time></trkpt><trkpt lat="43.52984989485087" lon="10.81574360591656"><ele>117.75</ele><time>2026-04-18T08:39:52Z</time></trkpt><trkpt lat="43.529988122393306" lon="10.815733729567972"><ele>124.0</ele><time>2026-04-18T08:39:53Z</time></trkpt><trkpt lat="43.5301099211079" lon="10.815715716257605"><ele>124.0</ele><time>2026-04-18T08:39:54Z</time></trkpt><trkpt lat="43.53023151456667" lon="10.815698698236034"><ele>124.0</ele><time>2026-04-18T08:39:55Z</time></trkpt><trkpt lat="43.53034583214279" lon="10.815666846267924"><ele>124.0</ele><time>2026-04-18T08:39:55.999Z</time></trkpt><trkpt lat="43.53045101001684" lon="10.815644589686874"><ele>124.0</ele><time>2026-04-18T08:39:56.999Z</time></trkpt><trkpt lat="43.53055664608983" lon="10.81562018177588"><ele>124.6</ele><time>2026-04-18T08:39:57.999Z</time></trkpt><trkpt lat="43.530660297580326" lon="10.815595416055597"><ele>125.2</ele><time>2026-04-18T08:39:58.999Z</time></trkpt><trkpt lat="43.53075081347521" lon="10.815583491136282"><ele>125.79999999999998</ele><time>2026-04-18T08:39:59.999Z</time></trkpt><trkpt lat="43.53083868043187" lon="10.815621677367156"><ele>126.39999999999999</ele><time>2026-04-18T08:40:00.999Z</time></trkpt><trkpt lat="43.53093810876219" lon="10.815658106668337"><ele>127.0</ele><time>2026-04-18T08:40:01.999Z</time></trkpt><trkpt lat="43.53105246742258" lon="10.81568410570377"><ele>127.0</ele><time>2026-04-18T08:40:02.999Z</time></trkpt><trkpt lat="43.53116698577536" lon="10.815735343118828"><ele>126.99999999999999</ele><time>2026-04-18T08:40:03.999Z</time></trkpt><trkpt lat="43.53127364130161" lon="10.815776211735924"><ele>126.99999999999999</ele><time>2026-04-18T08:40:04.999Z</time></trkpt><trkpt lat="43.53136531487892" lon="10.815815558156121"><ele>127.0</ele><time>2026-04-18T08:40:05.999Z</time></trkpt><trkpt lat="43.53144854974635" lon="10.815839485556843"><ele>127.0</ele><time>2026-04-18T08:40:06.999Z</time></trkpt><trkpt lat="43.53152810702783" lon="10.815839618892053"><ele>128.0</ele><time>2026-04-18T08:40:07.999Z</time></trkpt><trkpt lat="43.53161275362084" lon="10.815837644977849"><ele>129.0</ele><time>2026-04-18T08:40:08.999Z</time></trkpt><trkpt lat="43.53170176639473" lon="10.815837473546138"><ele>130.0</ele><time>2026-04-18T08:40:09.999Z</time></trkpt><trkpt lat="43.531790438485345" lon="10.815843058836842"><ele>131.0</ele><time>2026-04-18T08:40:10.999Z</time></trkpt><trkpt lat="43.531861693682856" lon="10.815875737810229"><ele>132.0</ele><time>2026-04-18T08:40:11.999Z</time></trkpt><trkpt lat="43.5319782657361" lon="10.81592620581093"><ele>132.0</ele><time>2026-04-18T08:40:13.999Z</time></trkpt><trkpt lat="43.53204368439321" lon="10.815966916964815"><ele>132.0</ele><time>2026-04-18T08:40:14.999Z</time></trkpt><trkpt lat="43.53210204688683" lon="10.816011913862942"><ele>132.0</ele><time>2026-04-18T08:40:15.999Z</time></trkpt><trkpt lat="43.53216388084019" lon="10.816063376010842"><ele>132.0</ele><time>2026-04-18T08:40:16.999Z</time></trkpt><trkpt lat="43.53223937020554" lon="10.816104098423375"><ele>132.0</ele><time>2026-04-18T08:40:17.999Z</time></trkpt><trkpt lat="43.53230473292114" lon="10.816185569085336"><ele>132.0</ele><time>2026-04-18T08:40:18.999Z</time></trkpt><trkpt lat="43.53238479645135" lon="10.816228654998522"><ele>133.0</ele><time>2026-04-18T08:40:19.999Z</time></trkpt><trkpt lat="43.532446171370424" lon="10.816282752559564"><ele>134.0</ele><time>2026-04-18T08:40:20.999Z</time></trkpt><trkpt lat="43.532510946165296" lon="10.816332953768798"><ele>135.0</ele><time>2026-04-18T08:40:21.999Z</time></trkpt><trkpt lat="43.53257095629882" lon="10.816386971735078"><ele>136.0</ele><time>2026-04-18T08:40:22.999Z</time></trkpt><trkpt lat="43.5326564040993" lon="10.816406123749735"><ele>137.0</ele><time>2026-04-18T08:40:23.999Z</time></trkpt><trkpt lat="43.53274222996054" lon="10.816420829736458"><ele>138.0</ele><time>2026-04-18T08:40:24.999Z</time></trkpt><trkpt lat="43.532821418056734" lon="10.816444140661588"><ele>137.83333333333334</ele><time>2026-04-18T08:40:25.999Z</time></trkpt><trkpt lat="43.532892700254976" lon="10.816493526667397"><ele>137.66666666666666</ele><time>2026-04-18T08:40:26.999Z</time></trkpt><trkpt lat="43.532972268640144" lon="10.816526106049597"><ele>137.5</ele><time>2026-04-18T08:40:27.999Z</time></trkpt><trkpt lat="43.533048499822854" lon="10.816542111472298"><ele>137.33333333333331</ele><time>2026-04-18T08:40:29Z</time></trkpt><trkpt lat="43.53312241468246" lon="10.816570724031214"><ele>137.16666666666666</ele><time>2026-04-18T08:40:30Z</time></trkpt><trkpt lat="43.533195712213896" lon="10.816602442610744"><ele>137.0</ele><time>2026-04-18T08:40:31Z</time></trkpt><trkpt lat="43.533271613666564" lon="10.81664017890485"><ele>137.0</ele><time>2026-04-18T08:40:32Z</time></trkpt><trkpt lat="43.533343799440935" lon="10.816669478800966"><ele>137.0</ele><time>2026-04-18T08:40:33Z</time></trkpt><trkpt lat="43.533447107351655" lon="10.81674869005381"><ele>137.0</ele><time>2026-04-18T08:40:35Z</time></trkpt><trkpt lat="43.53357341734294" lon="10.81677639884415"><ele>137.0</ele><time>2026-04-18T08:40:37Z</time></trkpt><trkpt lat="43.5337005187239" lon="10.816775446949089"><ele>137.0</ele><time>2026-04-18T08:40:39Z</time></trkpt><trkpt lat="43.53377581887691" lon="10.816743934784292"><ele>138.0</ele><time>2026-04-18T08:40:40Z</time></trkpt><trkpt lat="43.533857732423215" lon="10.816705178802165"><ele>139.0</ele><time>2026-04-18T08:40:41Z</time></trkpt><trkpt lat="43.533944511946615" lon="10.816674868032337"><ele>140.0</ele><time>2026-04-18T08:40:42Z</time></trkpt><trkpt lat="43.534019338673296" lon="10.816670205873407"><ele>141.0</ele><time>2026-04-18T08:40:43Z</time></trkpt><trkpt lat="43.53410623374981" lon="10.816666158907283"><ele>142.0</ele><time>2026-04-18T08:40:44Z</time></trkpt><trkpt lat="43.53419696931892" lon="10.816667865209057"><ele>143.0</ele><time>2026-04-18T08:40:45Z</time></trkpt><trkpt lat="43.53429390341362" lon="10.816671333333526"><ele>143.0</ele><time>2026-04-18T08:40:46Z</time></trkpt><trkpt lat="43.5343948149251" lon="10.816678754311196"><ele>143.0</ele><time>2026-04-18T08:40:47Z</time></trkpt><trkpt lat="43.53452000545078" lon="10.81669012878369"><ele>143.0</ele><time>2026-04-18T08:40:48Z</time></trkpt><trkpt lat="43.534647868469854" lon="10.816707831239182"><ele>143.0</ele><time>2026-04-18T08:40:49Z</time></trkpt><trkpt lat="43.53477328396842" lon="10.816703206093218"><ele>144.8</ele><time>2026-04-18T08:40:50Z</time></trkpt><trkpt lat="43.53487046873754" lon="10.816716516977069"><ele>146.60000000000002</ele><time>2026-04-18T08:40:51Z</time></trkpt><trkpt lat="43.53495644805442" lon="10.816726597177352"><ele>148.39999999999998</ele><time>2026-04-18T08:40:52Z</time></trkpt><trkpt lat="43.53503635173663" lon="10.816702120273398"><ele>150.2</ele><time>2026-04-18T08:40:53Z</time></trkpt><trkpt lat="43.535123520334096" lon="10.8166611014858"><ele>152.0</ele><time>2026-04-18T08:40:54Z</time></trkpt><trkpt lat="43.535218100429454" lon="10.816579719657119"><ele>152.0</ele><time>2026-04-18T08:40:55Z</time></trkpt><trkpt lat="43.535319660247715" lon="10.816479179585492"><ele>152.0</ele><time>2026-04-18T08:40:56Z</time></trkpt><trkpt lat="43.535449333157175" lon="10.816367609723104"><ele>152.0</ele><time>2026-04-18T08:40:57Z</time></trkpt><trkpt lat="43.53557084813031" lon="10.816250841136828"><ele>152.0</ele><time>2026-04-18T08:40:58Z</time></trkpt><trkpt lat="43.535662623807355" lon="10.816158977174469"><ele>155.0</ele><time>2026-04-18T08:40:59Z</time></trkpt><trkpt lat="43.535767875432285" lon="10.816077904284393"><ele>158.0</ele><time>2026-04-18T08:41:00Z</time></trkpt><trkpt lat="43.535870097306756" lon="10.81598109840393"><ele>161.0</ele><time>2026-04-18T08:41:01Z</time></trkpt><trkpt lat="43.53599107061103" lon="10.815885365181373"><ele>164.0</ele><time>2026-04-18T08:41:02Z</time></trkpt><trkpt lat="43.536109176482796" lon="10.815806944992213"><ele>164.0</ele><time>2026-04-18T08:41:03Z</time></trkpt><trkpt lat="43.53620946025295" lon="10.81575042529104"><ele>164.0</ele><time>2026-04-18T08:41:04Z</time></trkpt><trkpt lat="43.53630558754516" lon="10.81571685068014"><ele>164.0</ele><time>2026-04-18T08:41:05Z</time></trkpt><trkpt lat="43.536422997862836" lon="10.81567615026956"><ele>164.0</ele><time>2026-04-18T08:41:06Z</time></trkpt><trkpt lat="43.536536154557155" lon="10.815644306348581"><ele>164.0</ele><time>2026-04-18T08:41:07Z</time></trkpt><trkpt lat="43.53663223563413" lon="10.815643855712823"><ele>165.33333333333331</ele><time>2026-04-18T08:41:08Z</time></trkpt><trkpt lat="43.536710311786955" lon="10.81564967864078"><ele>166.66666666666666</ele><time>2026-04-18T08:41:09Z</time></trkpt><trkpt lat="43.53679292018371" lon="10.815655261091292"><ele>168.0</ele><time>2026-04-18T08:41:10Z</time></trkpt><trkpt lat="43.53687399464042" lon="10.815653748153336"><ele>169.33333333333334</ele><time>2026-04-18T08:41:11Z</time></trkpt><trkpt lat="43.536937516689854" lon="10.81564322848017"><ele>170.66666666666669</ele><time>2026-04-18T08:41:12Z</time></trkpt><trkpt lat="43.5369968660965" lon="10.815596145703825"><ele>172.0</ele><time>2026-04-18T08:41:13Z</time></trkpt><trkpt lat="43.53704870762382" lon="10.815490299741482"><ele>170.33333333333334</ele><time>2026-04-18T08:41:14Z</time></trkpt><trkpt lat="43.53710131854856" lon="10.815393782450546"><ele>168.66666666666669</ele><time>2026-04-18T08:41:15Z</time></trkpt><trkpt lat="43.53714377687541" lon="10.815280670894296"><ele>167.0</ele><time>2026-04-18T08:41:16Z</time></trkpt><trkpt lat="43.537184993109236" lon="10.81518859931684"><ele>165.33333333333334</ele><time>2026-04-18T08:41:17Z</time></trkpt><trkpt lat="43.53723571196291" lon="10.815061338372235"><ele>163.66666666666666</ele><time>2026-04-18T08:41:19Z</time></trkpt><trkpt lat="43.53727517972653" lon="10.814993211632585"><ele>162.0</ele><time>2026-04-18T08:41:21Z</time></trkpt><trkpt lat="43.53725988388106" lon="10.814841869027477"><ele>161.6</ele><time>2026-04-18T08:41:24Z</time></trkpt><trkpt lat="43.53722599384076" lon="10.814730154680927"><ele>161.2</ele><time>2026-04-18T08:41:26Z</time></trkpt><trkpt lat="43.53721053032503" lon="10.814634429730923"><ele>160.8</ele><time>2026-04-18T08:41:28Z</time></trkpt><trkpt lat="43.5371702124824" lon="10.814458930291009"><ele>160.4</ele><time>2026-04-18T08:41:54Z</time></trkpt><trkpt lat="43.537165943388366" lon="10.814342712780554"><ele>160.0</ele><time>2026-04-18T08:41:55Z</time></trkpt><trkpt lat="43.537183927089295" lon="10.814212662015025"><ele>161.75</ele><time>2026-04-18T08:41:56Z</time></trkpt><trkpt lat="43.53721912622365" lon="10.814070108082824"><ele>163.5</ele><time>2026-04-18T08:41:57Z</time></trkpt><trkpt lat="43.53727290456803" lon="10.813926297520316"><ele>165.25</ele><time>2026-04-18T08:41:58Z</time></trkpt><trkpt lat="43.53734099633432" lon="10.813803782169243"><ele>167.0</ele><time>2026-04-18T08:41:59Z</time></trkpt><trkpt lat="43.53741320220179" lon="10.81366849866261"><ele>167.0</ele><time>2026-04-18T08:42:00Z</time></trkpt><trkpt lat="43.53748322810328" lon="10.813518573469217"><ele>167.0</ele><time>2026-04-18T08:42:01.001Z</time></trkpt><trkpt lat="43.5375327920383" lon="10.813372082897978"><ele>167.0</ele><time>2026-04-18T08:42:01.999Z</time></trkpt><trkpt lat="43.537564493863634" lon="10.813225450276345"><ele>167.0</ele><time>2026-04-18T08:42:02.999Z</time></trkpt><trkpt lat="43.537546379966386" lon="10.813078408543655"><ele>168.75</ele><time>2026-04-18T08:42:03.999Z</time></trkpt><trkpt lat="43.53749821133852" lon="10.81293569037366"><ele>170.5</ele><time>2026-04-18T08:42:04.999Z</time></trkpt><trkpt lat="43.53741931809347" lon="10.81282260662172"><ele>172.25</ele><time>2026-04-18T08:42:05.999Z</time></trkpt><trkpt lat="43.53730859530983" lon="10.812725059063627"><ele>174.0</ele><time>2026-04-18T08:42:06.999Z</time></trkpt><trkpt lat="43.53718591046925" lon="10.812613143698986"><ele>174.0</ele><time>2026-04-18T08:42:07.999Z</time></trkpt><trkpt lat="43.53706640534698" lon="10.81247367503558"><ele>174.0</ele><time>2026-04-18T08:42:08.999Z</time></trkpt><trkpt lat="43.53695216926785" lon="10.81232438254388"><ele>174.0</ele><time>2026-04-18T08:42:09.999Z</time></trkpt><trkpt lat="43.53684045676906" lon="10.812163471056198"><ele>174.25</ele><time>2026-04-18T08:42:10.999Z</time></trkpt><trkpt lat="43.53673965111504" lon="10.812003344414073"><ele>174.5</ele><time>2026-04-18T08:42:11.999Z</time></trkpt><trkpt lat="43.53665213608328" lon="10.811847821810547"><ele>174.75</ele><time>2026-04-18T08:42:12.999Z</time></trkpt><trkpt lat="43.53657701266848" lon="10.811689301189285"><ele>175.0</ele><time>2026-04-18T08:42:13.999Z</time></trkpt><trkpt lat="43.53651310713138" lon="10.811536198285587"><ele>173.0</ele><time>2026-04-18T08:42:14.999Z</time></trkpt><trkpt lat="43.53644925217238" lon="10.811325322411616"><ele>171.0</ele><time>2026-04-18T08:42:15.999Z</time></trkpt><trkpt lat="43.53644282229999" lon="10.811109994410383"><ele>169.0</ele><time>2026-04-18T08:42:16.999Z</time></trkpt><trkpt lat="43.536439950742505" lon="10.81089422198068"><ele>168.33333333333334</ele><time>2026-04-18T08:42:17.999Z</time></trkpt><trkpt lat="43.53644444776663" lon="10.810649101677834"><ele>167.66666666666666</ele><time>2026-04-18T08:42:18.999Z</time></trkpt><trkpt lat="43.536430035076165" lon="10.810423469188535"><ele>167.0</ele><time>2026-04-18T08:42:19.999Z</time></trkpt><trkpt lat="43.536430940035196" lon="10.810227812811348"><ele>166.5</ele><time>2026-04-18T08:42:20.999Z</time></trkpt><trkpt lat="43.536407256841244" lon="10.81007710684227"><ele>166.0</ele><time>2026-04-18T08:42:21.999Z</time></trkpt><trkpt lat="43.53631042860265" lon="10.809936996311938"><ele>165.5</ele><time>2026-04-18T08:42:22.999Z</time></trkpt><trkpt lat="43.5361993768946" lon="10.80976410089311"><ele>165.0</ele><time>2026-04-18T08:42:24Z</time></trkpt><trkpt lat="43.536109754649196" lon="10.809577898992849"><ele>164.66666666666666</ele><time>2026-04-18T08:42:25Z</time></trkpt><trkpt lat="43.536040325191976" lon="10.809399949046467"><ele>164.33333333333331</ele><time>2026-04-18T08:42:26Z</time></trkpt><trkpt lat="43.53600546710574" lon="10.809190340710998"><ele>164.0</ele><time>2026-04-18T08:42:27Z</time></trkpt><trkpt lat="43.53598280155152" lon="10.808981803821377"><ele>164.0</ele><time>2026-04-18T08:42:28Z</time></trkpt><trkpt lat="43.53598882065425" lon="10.808785461472574"><ele>164.0</ele><time>2026-04-18T08:42:29Z</time></trkpt><trkpt lat="43.53603025485477" lon="10.808578956279218"><ele>164.0</ele><time>2026-04-18T08:42:30Z</time></trkpt><trkpt lat="43.53607820530811" lon="10.808326121880311"><ele>163.66666666666666</ele><time>2026-04-18T08:42:31Z</time></trkpt><trkpt lat="43.536110377268905" lon="10.80806477109211"><ele>163.33333333333334</ele><time>2026-04-18T08:42:32Z</time></trkpt><trkpt lat="43.536147816901966" lon="10.807836754134446"><ele>163.0</ele><time>2026-04-18T08:42:33Z</time></trkpt><trkpt lat="43.53615438263556" lon="10.807600337621475"><ele>163.0</ele><time>2026-04-18T08:42:34Z</time></trkpt><trkpt lat="43.53614162241398" lon="10.807328674120038"><ele>163.0</ele><time>2026-04-18T08:42:35Z</time></trkpt><trkpt lat="43.53612556033909" lon="10.807077003025308"><ele>163.0</ele><time>2026-04-18T08:42:36Z</time></trkpt><trkpt lat="43.53609209141312" lon="10.806855759239397"><ele>163.66666666666669</ele><time>2026-04-18T08:42:37Z</time></trkpt><trkpt lat="43.53606112020321" lon="10.80662287712884"><ele>164.33333333333334</ele><time>2026-04-18T08:42:38Z</time></trkpt><trkpt lat="43.53601820990021" lon="10.806416849792065"><ele>165.0</ele><time>2026-04-18T08:42:39Z</time></trkpt><trkpt lat="43.535992229678314" lon="10.806243539545875"><ele>165.0</ele><time>2026-04-18T08:42:40Z</time></trkpt><trkpt lat="43.53600553268084" lon="10.80607222532807"><ele>165.0</ele><time>2026-04-18T08:42:41Z</time></trkpt><trkpt lat="43.53604264402868" lon="10.805858886909322"><ele>165.0</ele><time>2026-04-18T08:42:42Z</time></trkpt><trkpt lat="43.53609053331549" lon="10.80563728250978"><ele>165.0</ele><time>2026-04-18T08:42:43Z</time></trkpt><trkpt lat="43.53614894473687" lon="10.80541639136776"><ele>165.0</ele><time>2026-04-18T08:42:44Z</time></trkpt><trkpt lat="43.53624535827023" lon="10.805212768569463"><ele>165.0</ele><time>2026-04-18T08:42:45Z</time></trkpt><trkpt lat="43.53632500199526" lon="10.804976703961568"><ele>164.66666666666666</ele><time>2026-04-18T08:42:46Z</time></trkpt><trkpt lat="43.53641246468958" lon="10.804750499058468"><ele>164.33333333333331</ele><time>2026-04-18T08:42:47Z</time></trkpt><trkpt lat="43.536484672782464" lon="10.804536750739745"><ele>164.0</ele><time>2026-04-18T08:42:48Z</time></trkpt><trkpt lat="43.53654564844038" lon="10.80434405934239"><ele>162.0</ele><time>2026-04-18T08:42:49Z</time></trkpt><trkpt lat="43.536597307756296" lon="10.804145855380842"><ele>160.0</ele><time>2026-04-18T08:42:50Z</time></trkpt><trkpt lat="43.53663062981072" lon="10.803932708583272"><ele>158.0</ele><time>2026-04-18T08:42:51Z</time></trkpt><trkpt lat="43.53666876332292" lon="10.80371113668896"><ele>157.33333333333331</ele><time>2026-04-18T08:42:52Z</time></trkpt><trkpt lat="43.5366929190248" lon="10.803486998484129"><ele>156.66666666666666</ele><time>2026-04-18T08:42:53Z</time></trkpt><trkpt lat="43.53671079184198" lon="10.803249263366702"><ele>156.0</ele><time>2026-04-18T08:42:54Z</time></trkpt><trkpt lat="43.53672751310078" lon="10.802976698469198"><ele>156.0</ele><time>2026-04-18T08:42:55Z</time></trkpt><trkpt lat="43.53673198888355" lon="10.802705563952335"><ele>156.0</ele><time>2026-04-18T08:42:56Z</time></trkpt><trkpt lat="43.53673761605182" lon="10.802466059470479"><ele>156.0</ele><time>2026-04-18T08:42:57Z</time></trkpt><trkpt lat="43.53674945265685" lon="10.802256146345133"><ele>157.33333333333334</ele><time>2026-04-18T08:42:58Z</time></trkpt><trkpt lat="43.53677679298701" lon="10.802061200880408"><ele>158.66666666666669</ele><time>2026-04-18T08:42:59Z</time></trkpt><trkpt lat="43.53683938582029" lon="10.801861318979633"><ele>160.0</ele><time>2026-04-18T08:43:00Z</time></trkpt><trkpt lat="43.53693015383168" lon="10.801677384555678"><ele>161.0</ele><time>2026-04-18T08:43:01Z</time></trkpt><trkpt lat="43.53702104345521" lon="10.801508507831613"><ele>162.0</ele><time>2026-04-18T08:43:02Z</time></trkpt><trkpt lat="43.53711507770825" lon="10.801394072510789"><ele>163.0</ele><time>2026-04-18T08:43:03Z</time></trkpt><trkpt lat="43.53722367738807" lon="10.801293078666175"><ele>164.0</ele><time>2026-04-18T08:43:04Z</time></trkpt><trkpt lat="43.53733884258909" lon="10.8011810300761"><ele>164.0</ele><time>2026-04-18T08:43:05Z</time></trkpt><trkpt lat="43.53748391689117" lon="10.80106471374718"><ele>164.0</ele><time>2026-04-18T08:43:06Z</time></trkpt><trkpt lat="43.53762805614159" lon="10.80091810844322"><ele>164.0</ele><time>2026-04-18T08:43:07Z</time></trkpt><trkpt lat="43.537751229011214" lon="10.80077043864946"><ele>162.66666666666666</ele><time>2026-04-18T08:43:08Z</time></trkpt><trkpt lat="43.537876168239855" lon="10.800595195937566"><ele>161.33333333333334</ele><time>2026-04-18T08:43:09Z</time></trkpt><trkpt lat="43.53799433273133" lon="10.800438670573188"><ele>160.0</ele><time>2026-04-18T08:43:10Z</time></trkpt><trkpt lat="43.53807968835552" lon="10.80028656610758"><ele>162.0</ele><time>2026-04-18T08:43:11Z</time></trkpt><trkpt lat="43.538139175355674" lon="10.800114320276471"><ele>164.0</ele><time>2026-04-18T08:43:12Z</time></trkpt><trkpt lat="43.53820859696585" lon="10.799908093630735"><ele>166.0</ele><time>2026-04-18T08:43:13Z</time></trkpt><trkpt lat="43.53830326180951" lon="10.799670624971203"><ele>166.0</ele><time>2026-04-18T08:43:14Z</time></trkpt><trkpt lat="43.53839399275671" lon="10.7994371979258"><ele>166.0</ele><time>2026-04-18T08:43:15Z</time></trkpt><trkpt lat="43.5384716425462" lon="10.799230056518839"><ele>166.0</ele><time>2026-04-18T08:43:16Z</time></trkpt><trkpt lat="43.53852219161619" lon="10.799062313387063"><ele>165.0</ele><time>2026-04-18T08:43:17Z</time></trkpt><trkpt lat="43.53854026535741" lon="10.798905648563268"><ele>164.0</ele><time>2026-04-18T08:43:18Z</time></trkpt><trkpt lat="43.53855526624009" lon="10.798716848306993"><ele>163.0</ele><time>2026-04-18T08:43:19Z</time></trkpt><trkpt lat="43.5385530676312" lon="10.79850038865282"><ele>162.0</ele><time>2026-04-18T08:43:20Z</time></trkpt><trkpt lat="43.538522993003596" lon="10.798256107287301"><ele>161.33333333333334</ele><time>2026-04-18T08:43:21Z</time></trkpt><trkpt lat="43.53846993183391" lon="10.797968530273161"><ele>160.66666666666669</ele><time>2026-04-18T08:43:22Z</time></trkpt><trkpt lat="43.538421496747695" lon="10.797679261763077"><ele>160.0</ele><time>2026-04-18T08:43:23Z</time></trkpt><trkpt lat="43.538387293110226" lon="10.79739817150331"><ele>160.0</ele><time>2026-04-18T08:43:24Z</time></trkpt><trkpt lat="43.53835600711626" lon="10.797165174650432"><ele>160.0</ele><time>2026-04-18T08:43:25Z</time></trkpt><trkpt lat="43.53831318452679" lon="10.796944612836317"><ele>160.0</ele><time>2026-04-18T08:43:26Z</time></trkpt><trkpt lat="43.53824111833797" lon="10.796736885514388"><ele>162.0</ele><time>2026-04-18T08:43:27Z</time></trkpt><trkpt lat="43.538163237586254" lon="10.796515197195163"><ele>164.0</ele><time>2026-04-18T08:43:28Z</time></trkpt><trkpt lat="43.53811269460401" lon="10.796325701022138"><ele>166.0</ele><time>2026-04-18T08:43:29Z</time></trkpt><trkpt lat="43.53809589722142" lon="10.796166848769342"><ele>168.0</ele><time>2026-04-18T08:43:30Z</time></trkpt><trkpt lat="43.53813132031772" lon="10.796033783860052"><ele>169.75</ele><time>2026-04-18T08:43:31Z</time></trkpt><trkpt lat="43.5381878575732" lon="10.795908064712831"><ele>171.5</ele><time>2026-04-18T08:43:32Z</time></trkpt><trkpt lat="43.538247272699195" lon="10.795737274971636"><ele>173.25</ele><time>2026-04-18T08:43:33Z</time></trkpt><trkpt lat="43.53830685486778" lon="10.79560428569821"><ele>175.0</ele><time>2026-04-18T08:43:34.001Z</time></trkpt><trkpt lat="43.538366703221115" lon="10.79550648548264"><ele>175.0</ele><time>2026-04-18T08:43:35.001Z</time></trkpt><trkpt lat="43.53847583297265" lon="10.795472625496002"><ele>175.0</ele><time>2026-04-18T08:43:36.001Z</time></trkpt><trkpt lat="43.538585730690386" lon="10.795384242714224"><ele>175.0</ele><time>2026-04-18T08:43:37.001Z</time></trkpt><trkpt lat="43.53871089704945" lon="10.795318847954194"><ele>175.0</ele><time>2026-04-18T08:43:38.001Z</time></trkpt><trkpt lat="43.53882044724293" lon="10.795217837134041"><ele>176.0</ele><time>2026-04-18T08:43:39.001Z</time></trkpt><trkpt lat="43.53890435281507" lon="10.79509344656299"><ele>177.0</ele><time>2026-04-18T08:43:40.001Z</time></trkpt><trkpt lat="43.53896014065527" lon="10.794947186622663"><ele>178.0</ele><time>2026-04-18T08:43:41.001Z</time></trkpt><trkpt lat="43.53896699210164" lon="10.794767377911437"><ele>179.0</ele><time>2026-04-18T08:43:42.001Z</time></trkpt><trkpt lat="43.53897821106638" lon="10.794619172746136"><ele>179.0</ele><time>2026-04-18T08:43:43.001Z</time></trkpt><trkpt lat="43.53898917324494" lon="10.79451867754401"><ele>179.0</ele><time>2026-04-18T08:43:44.001Z</time></trkpt><trkpt lat="43.53901134581043" lon="10.794418152795233"><ele>179.0</ele><time>2026-04-18T08:43:46.001Z</time></trkpt><trkpt lat="43.53902757199282" lon="10.794308888254788"><ele>179.0</ele><time>2026-04-18T08:43:49.001Z</time></trkpt><trkpt lat="43.539071573760566" lon="10.794138320809614"><ele>179.0</ele><time>2026-04-18T08:43:51.001Z</time></trkpt><trkpt lat="43.53913611758361" lon="10.79404904426119"><ele>179.2</ele><time>2026-04-18T08:43:52.001Z</time></trkpt><trkpt lat="43.539219184115794" lon="10.7939525540453"><ele>179.39999999999998</ele><time>2026-04-18T08:43:53.001Z</time></trkpt><trkpt lat="43.53931012344374" lon="10.793870147498417"><ele>179.6</ele><time>2026-04-18T08:43:54.001Z</time></trkpt><trkpt lat="43.5393941797283" lon="10.793786012825556"><ele>179.8</ele><time>2026-04-18T08:43:55.001Z</time></trkpt><trkpt lat="43.539461966614375" lon="10.793707097220237"><ele>180.0</ele><time>2026-04-18T08:43:56.001Z</time></trkpt><trkpt lat="43.53950803417222" lon="10.793628195136836"><ele>180.14285714285714</ele><time>2026-04-18T08:43:57.001Z</time></trkpt><trkpt lat="43.539554195318175" lon="10.79355406302702"><ele>180.2857142857143</ele><time>2026-04-18T08:43:58.001Z</time></trkpt><trkpt lat="43.539577414883325" lon="10.793467526882422"><ele>180.42857142857144</ele><time>2026-04-18T08:43:59.001Z</time></trkpt><trkpt lat="43.53959010258851" lon="10.793373980420165"><ele>180.57142857142856</ele><time>2026-04-18T08:44:00.001Z</time></trkpt><trkpt lat="43.53960168230164" lon="10.793280351211685"><ele>180.71428571428572</ele><time>2026-04-18T08:44:01.001Z</time></trkpt><trkpt lat="43.53961149156439" lon="10.793174649702955"><ele>180.85714285714286</ele><time>2026-04-18T08:44:02.001Z</time></trkpt><trkpt lat="43.53959451648256" lon="10.793060516696169"><ele>181.0</ele><time>2026-04-18T08:44:04.001Z</time></trkpt><trkpt lat="43.539588166385855" lon="10.79295390544904"><ele>181.0</ele><time>2026-04-18T08:44:06.001Z</time></trkpt><trkpt lat="43.539523909225935" lon="10.792786904979339"><ele>181.0</ele><time>2026-04-18T08:44:07.999Z</time></trkpt><trkpt lat="43.53948162129868" lon="10.792689922467469"><ele>181.0</ele><time>2026-04-18T08:44:08.999Z</time></trkpt><trkpt lat="43.53943162880301" lon="10.79257015215619"><ele>181.0</ele><time>2026-04-18T08:44:09.999Z</time></trkpt><trkpt lat="43.53937390441335" lon="10.792440920532863"><ele>181.0</ele><time>2026-04-18T08:44:10.999Z</time></trkpt><trkpt lat="43.53931610998807" lon="10.792308677774098"><ele>181.0</ele><time>2026-04-18T08:44:11.999Z</time></trkpt><trkpt lat="43.539253752786884" lon="10.792159969707638"><ele>181.0</ele><time>2026-04-18T08:44:12.999Z</time></trkpt><trkpt lat="43.5391899232177" lon="10.792006913461583"><ele>181.0</ele><time>2026-04-18T08:44:13.999Z</time></trkpt><trkpt lat="43.53913555195701" lon="10.791883962180759"><ele>181.0</ele><time>2026-04-18T08:44:14.999Z</time></trkpt><trkpt lat="43.5391047100497" lon="10.791776029444991"><ele>181.0</ele><time>2026-04-18T08:44:15.999Z</time></trkpt><trkpt lat="43.539074634707" lon="10.791689890902418"><ele>182.4</ele><time>2026-04-18T08:44:16.999Z</time></trkpt><trkpt lat="43.539040844041516" lon="10.791603960422938"><ele>183.8</ele><time>2026-04-18T08:44:17.999Z</time></trkpt><trkpt lat="43.53897253467283" lon="10.791511098400498"><ele>185.20000000000002</ele><time>2026-04-18T08:44:18.999Z</time></trkpt><trkpt lat="43.53887685271049" lon="10.791411040468104"><ele>186.60000000000002</ele><time>2026-04-18T08:44:19.999Z</time></trkpt><trkpt lat="43.538766133916916" lon="10.7912558082798"><ele>188.0</ele><time>2026-04-18T08:44:21Z</time></trkpt><trkpt lat="43.538666220581646" lon="10.791124355201925"><ele>186.5</ele><time>2026-04-18T08:44:22Z</time></trkpt><trkpt lat="43.53859575235839" lon="10.790993840983921"><ele>185.0</ele><time>2026-04-18T08:44:23Z</time></trkpt><trkpt lat="43.53855377311379" lon="10.790917037943155"><ele>183.5</ele><time>2026-04-18T08:44:24Z</time></trkpt><trkpt lat="43.538511072658935" lon="10.790843945017514"><ele>182.0</ele><time>2026-04-18T08:44:25Z</time></trkpt><trkpt lat="43.53841442901236" lon="10.790807265052633"><ele>180.5</ele><time>2026-04-18T08:44:28Z</time></trkpt><trkpt lat="43.538347860822086" lon="10.790794715259452"><ele>179.0</ele><time>2026-04-18T08:44:29Z</time></trkpt><trkpt lat="43.53826404714813" lon="10.790746490148317"><ele>179.0</ele><time>2026-04-18T08:44:30Z</time></trkpt><trkpt lat="43.538171923108074" lon="10.790679993975836"><ele>179.0</ele><time>2026-04-18T08:44:31Z</time></trkpt><trkpt lat="43.53806269978549" lon="10.790630279129907"><ele>179.0</ele><time>2026-04-18T08:44:32Z</time></trkpt><trkpt lat="43.537934838228296" lon="10.790606876874564"><ele>179.0</ele><time>2026-04-18T08:44:33Z</time></trkpt><trkpt lat="43.53780127125153" lon="10.790589206970807"><ele>178.5</ele><time>2026-04-18T08:44:34Z</time></trkpt><trkpt lat="43.537677226945256" lon="10.79059719262687"><ele>178.0</ele><time>2026-04-18T08:44:35Z</time></trkpt><trkpt lat="43.53755711573155" lon="10.790623594123703"><ele>177.5</ele><time>2026-04-18T08:44:36Z</time></trkpt><trkpt lat="43.53742401434819" lon="10.790678389045606"><ele>177.0</ele><time>2026-04-18T08:44:37Z</time></trkpt><trkpt lat="43.53729500097955" lon="10.790733049466196"><ele>177.0</ele><time>2026-04-18T08:44:38Z</time></trkpt><trkpt lat="43.53716741024302" lon="10.79077721656154"><ele>177.0</ele><time>2026-04-18T08:44:39Z</time></trkpt><trkpt lat="43.53704094010833" lon="10.790808915316386"><ele>177.0</ele><time>2026-04-18T08:44:40Z</time></trkpt><trkpt lat="43.53691716185808" lon="10.790801113474542"><ele>177.0</ele><time>2026-04-18T08:44:41Z</time></trkpt><trkpt lat="43.53678078172266" lon="10.79080246248075"><ele>177.5</ele><time>2026-04-18T08:44:42Z</time></trkpt><trkpt lat="43.53663708952446" lon="10.790773943297545"><ele>178.0</ele><time>2026-04-18T08:44:43Z</time></trkpt><trkpt lat="43.536488904089765" lon="10.7907682779606"><ele>178.5</ele><time>2026-04-18T08:44:44Z</time></trkpt><trkpt lat="43.536368384861284" lon="10.790791598275236"><ele>179.0</ele><time>2026-04-18T08:44:45Z</time></trkpt><trkpt lat="43.53626163785665" lon="10.790820035925938"><ele>178.83333333333331</ele><time>2026-04-18T08:44:46Z</time></trkpt><trkpt lat="43.53617262881437" lon="10.790840750464172"><ele>178.66666666666666</ele><time>2026-04-18T08:44:47Z</time></trkpt><trkpt lat="43.5360882494115" lon="10.790846751110738"><ele>178.5</ele><time>2026-04-18T08:44:48Z</time></trkpt><trkpt lat="43.53600809356664" lon="10.790823141130032"><ele>178.33333333333334</ele><time>2026-04-18T08:44:49Z</time></trkpt><trkpt lat="43.53593523508205" lon="10.790797429456621"><ele>178.16666666666669</ele><time>2026-04-18T08:44:50Z</time></trkpt><trkpt lat="43.53586075562972" lon="10.790727078122805"><ele>178.0</ele><time>2026-04-18T08:44:51Z</time></trkpt><trkpt lat="43.53575532952806" lon="10.790657142606495"><ele>178.0</ele><time>2026-04-18T08:44:52Z</time></trkpt><trkpt lat="43.53564579163683" lon="10.790573474267966"><ele>178.0</ele><time>2026-04-18T08:44:53Z</time></trkpt><trkpt lat="43.535539666972085" lon="10.790461629420077"><ele>178.0</ele><time>2026-04-18T08:44:54Z</time></trkpt><trkpt lat="43.53541798933398" lon="10.79034588956147"><ele>178.0</ele><time>2026-04-18T08:44:55Z</time></trkpt><trkpt lat="43.53529165787449" lon="10.790235377174566"><ele>176.25</ele><time>2026-04-18T08:44:56Z</time></trkpt><trkpt lat="43.53515808377981" lon="10.79013814897114"><ele>174.5</ele><time>2026-04-18T08:44:57Z</time></trkpt><trkpt lat="43.53502817002554" lon="10.79004265591802"><ele>172.75</ele><time>2026-04-18T08:44:58Z</time></trkpt><trkpt lat="43.53490784086318" lon="10.789939417142877"><ele>171.0</ele><time>2026-04-18T08:44:59Z</time></trkpt><trkpt lat="43.5347983920531" lon="10.789840861492381"><ele>171.0</ele><time>2026-04-18T08:45:00Z</time></trkpt><trkpt lat="43.53469348755633" lon="10.789756032798676"><ele>171.0</ele><time>2026-04-18T08:45:01Z</time></trkpt><trkpt lat="43.53455812198619" lon="10.7896720020026"><ele>171.0</ele><time>2026-04-18T08:45:02Z</time></trkpt><trkpt lat="43.53443345441229" lon="10.7895853452533"><ele>171.0</ele><time>2026-04-18T08:45:03Z</time></trkpt><trkpt lat="43.53431634682771" lon="10.789526709415785"><ele>170.75</ele><time>2026-04-18T08:45:04Z</time></trkpt><trkpt lat="43.53420931287303" lon="10.789469231660627"><ele>170.5</ele><time>2026-04-18T08:45:05Z</time></trkpt><trkpt lat="43.53409133678807" lon="10.789397412860462"><ele>170.25</ele><time>2026-04-18T08:45:06Z</time></trkpt><trkpt lat="43.533956094255466" lon="10.789313632525987"><ele>170.0</ele><time>2026-04-18T08:45:07Z</time></trkpt><trkpt lat="43.533813749084025" lon="10.789228078437652"><ele>167.33333333333331</ele><time>2026-04-18T08:45:08Z</time></trkpt><trkpt lat="43.53367215166967" lon="10.789136128808256"><ele>164.66666666666666</ele><time>2026-04-18T08:45:09Z</time></trkpt><trkpt lat="43.53352357598503" lon="10.789043773139664"><ele>162.0</ele><time>2026-04-18T08:45:10Z</time></trkpt><trkpt lat="43.53338407073853" lon="10.78895913941909"><ele>162.0</ele><time>2026-04-18T08:45:11Z</time></trkpt><trkpt lat="43.53325259825973" lon="10.78888740483039"><ele>162.0</ele><time>2026-04-18T08:45:12Z</time></trkpt><trkpt lat="43.53311663157779" lon="10.788817499253378"><ele>162.0</ele><time>2026-04-18T08:45:13.001Z</time></trkpt><trkpt lat="43.53298893439493" lon="10.788740705364182"><ele>162.0</ele><time>2026-04-18T08:45:14.001Z</time></trkpt><trkpt lat="43.532863550920645" lon="10.78866390356535"><ele>160.75</ele><time>2026-04-18T08:45:15.001Z</time></trkpt><trkpt lat="43.53273476755016" lon="10.788593308435473"><ele>159.5</ele><time>2026-04-18T08:45:16.001Z</time></trkpt><trkpt lat="43.53259942004418" lon="10.788520068020285"><ele>158.25</ele><time>2026-04-18T08:45:17.001Z</time></trkpt><trkpt lat="43.53247507037739" lon="10.788458964413687"><ele>157.0</ele><time>2026-04-18T08:45:18.001Z</time></trkpt><trkpt lat="43.53235916498936" lon="10.788384641635973"><ele>157.0</ele><time>2026-04-18T08:45:19.001Z</time></trkpt><trkpt lat="43.53225467143266" lon="10.788327750853863"><ele>157.0</ele><time>2026-04-18T08:45:20.001Z</time></trkpt><trkpt lat="43.53214739051839" lon="10.788272073546127"><ele>157.0</ele><time>2026-04-18T08:45:21.001Z</time></trkpt><trkpt lat="43.53204791645637" lon="10.788213304330679"><ele>157.0</ele><time>2026-04-18T08:45:22.001Z</time></trkpt><trkpt lat="43.531957508019964" lon="10.788151797934676"><ele>157.0</ele><time>2026-04-18T08:45:23.001Z</time></trkpt><trkpt lat="43.531881423379446" lon="10.788084851144486"><ele>156.0</ele><time>2026-04-18T08:45:24.001Z</time></trkpt><trkpt lat="43.53180024762729" lon="10.787986316305327"><ele>155.0</ele><time>2026-04-18T08:45:25.001Z</time></trkpt><trkpt lat="43.531722757018976" lon="10.78785886934771"><ele>154.0</ele><time>2026-04-18T08:45:26.001Z</time></trkpt><trkpt lat="43.531641382305494" lon="10.787704340085648"><ele>153.0</ele><time>2026-04-18T08:45:27.001Z</time></trkpt><trkpt lat="43.531559658507646" lon="10.787543701389025"><ele>153.0</ele><time>2026-04-18T08:45:28.001Z</time></trkpt><trkpt lat="43.531482145209864" lon="10.787395470638753"><ele>153.0</ele><time>2026-04-18T08:45:29.001Z</time></trkpt><trkpt lat="43.531405609336865" lon="10.787272098542354"><ele>153.0</ele><time>2026-04-18T08:45:30.001Z</time></trkpt><trkpt lat="43.53133122719677" lon="10.787151013115865"><ele>153.0</ele><time>2026-04-18T08:45:31.001Z</time></trkpt><trkpt lat="43.53126279648746" lon="10.787034085307873"><ele>150.0</ele><time>2026-04-18T08:45:32.001Z</time></trkpt><trkpt lat="43.53119143323253" lon="10.786913139030235"><ele>147.0</ele><time>2026-04-18T08:45:33.001Z</time></trkpt><trkpt lat="43.531112454799235" lon="10.78679139892685"><ele>144.0</ele><time>2026-04-18T08:45:34.001Z</time></trkpt><trkpt lat="43.53103363681298" lon="10.786674081544524"><ele>141.0</ele><time>2026-04-18T08:45:35.001Z</time></trkpt><trkpt lat="43.53094690302076" lon="10.786556254900333"><ele>141.0</ele><time>2026-04-18T08:45:36.001Z</time></trkpt><trkpt lat="43.530860964747816" lon="10.786441129347784"><ele>141.0</ele><time>2026-04-18T08:45:37.001Z</time></trkpt><trkpt lat="43.530783884863126" lon="10.786337980302344"><ele>141.0</ele><time>2026-04-18T08:45:38.001Z</time></trkpt><trkpt lat="43.53072034553" lon="10.786252010673772"><ele>141.0</ele><time>2026-04-18T08:45:39.001Z</time></trkpt><trkpt lat="43.53067998586082" lon="10.786174185697087"><ele>141.0</ele><time>2026-04-18T08:45:40.001Z</time></trkpt><trkpt lat="43.53064350139415" lon="10.786024015281278"><ele>141.5</ele><time>2026-04-18T08:45:42.001Z</time></trkpt><trkpt lat="43.53065872995726" lon="10.785928441505623"><ele>142.0</ele><time>2026-04-18T08:45:43.001Z</time></trkpt><trkpt lat="43.53069634335439" lon="10.78581732415469"><ele>142.5</ele><time>2026-04-18T08:45:44.001Z</time></trkpt><trkpt lat="43.530750376673886" lon="10.785700018085997"><ele>143.0</ele><time>2026-04-18T08:45:45.001Z</time></trkpt><trkpt lat="43.530797347664596" lon="10.785596970578048"><ele>143.5</ele><time>2026-04-18T08:45:46.001Z</time></trkpt><trkpt lat="43.53083894186708" lon="10.785498577457023"><ele>144.0</ele><time>2026-04-18T08:45:47.001Z</time></trkpt><trkpt lat="43.53086700621728" lon="10.78541364810196"><ele>144.0</ele><time>2026-04-18T08:45:48.001Z</time></trkpt><trkpt lat="43.530891998533924" lon="10.785308927197404"><ele>144.0</ele><time>2026-04-18T08:45:49.001Z</time></trkpt><trkpt lat="43.530906634935505" lon="10.785205995424592"><ele>144.0</ele><time>2026-04-18T08:45:50.001Z</time></trkpt><trkpt lat="43.53091198460654" lon="10.785101759942918"><ele>144.0</ele><time>2026-04-18T08:45:51.001Z</time></trkpt><trkpt lat="43.530894661258856" lon="10.78499601109722"><ele>144.0</ele><time>2026-04-18T08:45:52.001Z</time></trkpt><trkpt lat="43.53086011096957" lon="10.784864495577324"><ele>144.0</ele><time>2026-04-18T08:45:53.001Z</time></trkpt><trkpt lat="43.53080752560127" lon="10.784722922694872"><ele>143.16666666666666</ele><time>2026-04-18T08:45:54.001Z</time></trkpt><trkpt lat="43.53077098992621" lon="10.784589141426572"><ele>142.33333333333334</ele><time>2026-04-18T08:45:55.001Z</time></trkpt><trkpt lat="43.53074052356454" lon="10.784469483194028"><ele>141.5</ele><time>2026-04-18T08:45:56.001Z</time></trkpt><trkpt lat="43.530713409256215" lon="10.784368735012107"><ele>140.66666666666669</ele><time>2026-04-18T08:45:57.001Z</time></trkpt><trkpt lat="43.53068299929163" lon="10.784288548132652"><ele>139.83333333333334</ele><time>2026-04-18T08:45:58.001Z</time></trkpt><trkpt lat="43.530633663350244" lon="10.784156426143705"><ele>139.0</ele><time>2026-04-18T08:46:00.001Z</time></trkpt><trkpt lat="43.53056609379731" lon="10.78409412474604"><ele>138.33333333333334</ele><time>2026-04-18T08:46:04.001Z</time></trkpt><trkpt lat="43.530488988030136" lon="10.784099570114774"><ele>137.66666666666669</ele><time>2026-04-18T08:46:07.001Z</time></trkpt><trkpt lat="43.53043233308217" lon="10.784149726233654"><ele>137.0</ele><time>2026-04-18T08:46:09.001Z</time></trkpt><trkpt lat="43.5303195680095" lon="10.784255861519515"><ele>136.33333333333334</ele><time>2026-04-18T08:46:11.001Z</time></trkpt><trkpt lat="43.53025527048878" lon="10.784323676736571"><ele>135.66666666666666</ele><time>2026-04-18T08:46:12.001Z</time></trkpt><trkpt lat="43.53019765118155" lon="10.78439277803831"><ele>135.0</ele><time>2026-04-18T08:46:13Z</time></trkpt><trkpt lat="43.530137735555826" lon="10.784478321005965"><ele>135.0</ele><time>2026-04-18T08:46:14Z</time></trkpt><trkpt lat="43.530092216005436" lon="10.784539961423812"><ele>135.0</ele><time>2026-04-18T08:46:15Z</time></trkpt><trkpt lat="43.53000643631365" lon="10.784670179529234"><ele>135.0</ele><time>2026-04-18T08:46:17Z</time></trkpt><trkpt lat="43.52993343786629" lon="10.784700800904417"><ele>135.0</ele><time>2026-04-18T08:46:18Z</time></trkpt><trkpt lat="43.529842236657544" lon="10.784713843417116"><ele>135.0</ele><time>2026-04-18T08:46:19Z</time></trkpt><trkpt lat="43.529732109048624" lon="10.784728116607607"><ele>135.0</ele><time>2026-04-18T08:46:20Z</time></trkpt><trkpt lat="43.529628625615864" lon="10.784739391578954"><ele>135.0</ele><time>2026-04-18T08:46:21Z</time></trkpt><trkpt lat="43.529522364980096" lon="10.784740511987728"><ele>135.0</ele><time>2026-04-18T08:46:22Z</time></trkpt><trkpt lat="43.529423741660736" lon="10.7847336931646"><ele>135.0</ele><time>2026-04-18T08:46:23Z</time></trkpt><trkpt lat="43.52932955822484" lon="10.784718478821052"><ele>135.0</ele><time>2026-04-18T08:46:24Z</time></trkpt><trkpt lat="43.5292293442049" lon="10.78470733527748"><ele>131.33333333333334</ele><time>2026-04-18T08:46:25Z</time></trkpt><trkpt lat="43.52913639202649" lon="10.784691991033748"><ele>127.66666666666666</ele><time>2026-04-18T08:46:26Z</time></trkpt><trkpt lat="43.529052166470855" lon="10.784676300669085"><ele>124.0</ele><time>2026-04-18T08:46:27Z</time></trkpt><trkpt lat="43.52896658018644" lon="10.784658572278325"><ele>120.33333333333333</ele><time>2026-04-18T08:46:28Z</time></trkpt><trkpt lat="43.52888774586175" lon="10.784642238613602"><ele>116.66666666666666</ele><time>2026-04-18T08:46:29Z</time></trkpt><trkpt lat="43.528811054277035" lon="10.784612907966727"><ele>113.0</ele><time>2026-04-18T08:46:30Z</time></trkpt><trkpt lat="43.52872354671391" lon="10.78459291773444"><ele>110.60000000000001</ele><time>2026-04-18T08:46:31Z</time></trkpt><trkpt lat="43.52861930457103" lon="10.784590687912234"><ele>108.20000000000002</ele><time>2026-04-18T08:46:32Z</time></trkpt><trkpt lat="43.52852417674609" lon="10.784609020804307"><ele>105.8</ele><time>2026-04-18T08:46:33Z</time></trkpt><trkpt lat="43.52843348908314" lon="10.784640898536777"><ele>103.4</ele><time>2026-04-18T08:46:34Z</time></trkpt><trkpt lat="43.52833845795165" lon="10.784672333983892"><ele>101.0</ele><time>2026-04-18T08:46:35Z</time></trkpt><trkpt lat="43.528236190833766" lon="10.784691800145676"><ele>101.0</ele><time>2026-04-18T08:46:36Z</time></trkpt><trkpt lat="43.52812066150363" lon="10.784698906341651"><ele>101.0</ele><time>2026-04-18T08:46:37Z</time></trkpt><trkpt lat="43.52799897553083" lon="10.784687869080349"><ele>101.0</ele><time>2026-04-18T08:46:38Z</time></trkpt><trkpt lat="43.52788551494807" lon="10.784672699224652"><ele>101.0</ele><time>2026-04-18T08:46:39Z</time></trkpt><trkpt lat="43.52777653472606" lon="10.784662176337209"><ele>98.99999999999999</ele><time>2026-04-18T08:46:40Z</time></trkpt><trkpt lat="43.52768527167108" lon="10.78464269254361"><ele>97.0</ele><time>2026-04-18T08:46:41Z</time></trkpt><trkpt lat="43.527600491255356" lon="10.784622777682257"><ele>95.0</ele><time>2026-04-18T08:46:42Z</time></trkpt><trkpt lat="43.52751999759936" lon="10.784587671202482"><ele>93.0</ele><time>2026-04-18T08:46:43Z</time></trkpt><trkpt lat="43.52743734190664" lon="10.784535010984493"><ele>91.0</ele><time>2026-04-18T08:46:44Z</time></trkpt><trkpt lat="43.52735910230279" lon="10.784466352059978"><ele>89.0</ele><time>2026-04-18T08:46:45Z</time></trkpt><trkpt lat="43.52728263068695" lon="10.784380030749206"><ele>89.5</ele><time>2026-04-18T08:46:46Z</time></trkpt><trkpt lat="43.52721356742621" lon="10.784267088068606"><ele>90.0</ele><time>2026-04-18T08:46:47Z</time></trkpt><trkpt lat="43.52714695783268" lon="10.784120319845957"><ele>90.5</ele><time>2026-04-18T08:46:48Z</time></trkpt><trkpt lat="43.52707765144508" lon="10.783964380713394"><ele>91.0</ele><time>2026-04-18T08:46:49Z</time></trkpt><trkpt lat="43.526993591010736" lon="10.783818518947307"><ele>91.0</ele><time>2026-04-18T08:46:50Z</time></trkpt><trkpt lat="43.52691514238955" lon="10.783693562592198"><ele>91.0</ele><time>2026-04-18T08:46:51Z</time></trkpt><trkpt lat="43.52684706316672" lon="10.783574730238241"><ele>91.0</ele><time>2026-04-18T08:46:52Z</time></trkpt><trkpt lat="43.526783956206614" lon="10.783463588727232"><ele>91.0</ele><time>2026-04-18T08:46:53Z</time></trkpt><trkpt lat="43.52672405922811" lon="10.783362830605547"><ele>91.0</ele><time>2026-04-18T08:46:54Z</time></trkpt><trkpt lat="43.52667104377657" lon="10.783268835053489"><ele>90.19999999999999</ele><time>2026-04-18T08:46:55.001Z</time></trkpt><trkpt lat="43.52661977379215" lon="10.783168183894778"><ele>89.39999999999999</ele><time>2026-04-18T08:46:56.001Z</time></trkpt><trkpt lat="43.52657427419682" lon="10.783058580528683"><ele>88.6</ele><time>2026-04-18T08:46:57.001Z</time></trkpt><trkpt lat="43.5265305648042" lon="10.782914368770072"><ele>87.8</ele><time>2026-04-18T08:46:58.001Z</time></trkpt><trkpt lat="43.526482184705536" lon="10.782750325713952"><ele>87.0</ele><time>2026-04-18T08:46:59.001Z</time></trkpt><trkpt lat="43.5264318596549" lon="10.782597274461562"><ele>84.0</ele><time>2026-04-18T08:47:00.001Z</time></trkpt><trkpt lat="43.52638374872857" lon="10.78244109682358"><ele>81.0</ele><time>2026-04-18T08:47:01.001Z</time></trkpt><trkpt lat="43.52633459467847" lon="10.78228293746061"><ele>78.0</ele><time>2026-04-18T08:47:02.001Z</time></trkpt><trkpt lat="43.526289126800535" lon="10.782125766819762"><ele>75.0</ele><time>2026-04-18T08:47:03.001Z</time></trkpt><trkpt lat="43.526246522782685" lon="10.781974525484083"><ele>73.5</ele><time>2026-04-18T08:47:04.001Z</time></trkpt><trkpt lat="43.52619685630932" lon="10.781808059642566"><ele>72.0</ele><time>2026-04-18T08:47:05.001Z</time></trkpt><trkpt lat="43.52614414139835" lon="10.78163641090969"><ele>70.5</ele><time>2026-04-18T08:47:06.001Z</time></trkpt><trkpt lat="43.526101362065255" lon="10.78147643599895"><ele>69.0</ele><time>2026-04-18T08:47:07.001Z</time></trkpt><trkpt lat="43.52606470731554" lon="10.781351888720971"><ele>69.0</ele><time>2026-04-18T08:47:08.001Z</time></trkpt><trkpt lat="43.52602397817404" lon="10.781214608483104"><ele>69.0</ele><time>2026-04-18T08:47:10.001Z</time></trkpt><trkpt lat="43.52597376133779" lon="10.781147668760651"><ele>69.0</ele><time>2026-04-18T08:47:14.001Z</time></trkpt><trkpt lat="43.52590441834339" lon="10.781198325709378"><ele>69.0</ele><time>2026-04-18T08:47:15.001Z</time></trkpt><trkpt lat="43.525832809204495" lon="10.781301876606841"><ele>69.0</ele><time>2026-04-18T08:47:17.001Z</time></trkpt><trkpt lat="43.525724865495775" lon="10.78140905206745"><ele>69.0</ele><time>2026-04-18T08:47:19.001Z</time></trkpt><trkpt lat="43.52565563528383" lon="10.78147271752664"><ele>69.0</ele><time>2026-04-18T08:47:20.001Z</time></trkpt><trkpt lat="43.52558328300344" lon="10.78153585036095"><ele>69.0</ele><time>2026-04-18T08:47:21.001Z</time></trkpt><trkpt lat="43.52551310196066" lon="10.781606785115757"><ele>69.0</ele><time>2026-04-18T08:47:22.001Z</time></trkpt><trkpt lat="43.525439630624504" lon="10.78168768510878"><ele>69.0</ele><time>2026-04-18T08:47:23.001Z</time></trkpt><trkpt lat="43.525352264966536" lon="10.781774898460244"><ele>69.5</ele><time>2026-04-18T08:47:24.001Z</time></trkpt><trkpt lat="43.52525393150864" lon="10.781870196938833"><ele>70.0</ele><time>2026-04-18T08:47:25.001Z</time></trkpt><trkpt lat="43.52515224752394" lon="10.78197388778663"><ele>70.5</ele><time>2026-04-18T08:47:26.001Z</time></trkpt><trkpt lat="43.52503311069555" lon="10.782076430327665"><ele>71.0</ele><time>2026-04-18T08:47:27.001Z</time></trkpt><trkpt lat="43.52492500225348" lon="10.782190728323897"><ele>71.0</ele><time>2026-04-18T08:47:28.001Z</time></trkpt><trkpt lat="43.5248280270641" lon="10.782299212900982"><ele>71.0</ele><time>2026-04-18T08:47:29.001Z</time></trkpt><trkpt lat="43.52473205565539" lon="10.782429908388108"><ele>71.0</ele><time>2026-04-18T08:47:30.001Z</time></trkpt><trkpt lat="43.52463979381334" lon="10.782590094189494"><ele>71.0</ele><time>2026-04-18T08:47:31.001Z</time></trkpt><trkpt lat="43.52454834105626" lon="10.782787870206297"><ele>69.0</ele><time>2026-04-18T08:47:32.001Z</time></trkpt><trkpt lat="43.5244616308348" lon="10.783000299667279"><ele>67.0</ele><time>2026-04-18T08:47:33.001Z</time></trkpt><trkpt lat="43.52435723518871" lon="10.783195234348678"><ele>65.0</ele><time>2026-04-18T08:47:34.001Z</time></trkpt><trkpt lat="43.52428091757833" lon="10.783400403963121"><ele>65.0</ele><time>2026-04-18T08:47:35.001Z</time></trkpt><trkpt lat="43.524190897469495" lon="10.7835944710009"><ele>65.0</ele><time>2026-04-18T08:47:36.001Z</time></trkpt><trkpt lat="43.52410429766496" lon="10.783782512156737"><ele>65.0</ele><time>2026-04-18T08:47:37.001Z</time></trkpt><trkpt lat="43.52402596854152" lon="10.783956943217119"><ele>65.0</ele><time>2026-04-18T08:47:38.001Z</time></trkpt><trkpt lat="43.52394782060703" lon="10.784108777245045"><ele>65.0</ele><time>2026-04-18T08:47:39.001Z</time></trkpt><trkpt lat="43.523868620298785" lon="10.78424206538294"><ele>65.0</ele><time>2026-04-18T08:47:40.001Z</time></trkpt><trkpt lat="43.52376619676195" lon="10.784345606159812"><ele>65.0</ele><time>2026-04-18T08:47:41.001Z</time></trkpt><trkpt lat="43.52365161485302" lon="10.784472664154155"><ele>66.33333333333334</ele><time>2026-04-18T08:47:42.001Z</time></trkpt><trkpt lat="43.52350157017609" lon="10.784545240364478"><ele>67.66666666666667</ele><time>2026-04-18T08:47:43.001Z</time></trkpt><trkpt lat="43.52335037842398" lon="10.784650687305371"><ele>69.0</ele><time>2026-04-18T08:47:44.001Z</time></trkpt><trkpt lat="43.523191615127296" lon="10.78474133790546"><ele>69.0</ele><time>2026-04-18T08:47:45.001Z</time></trkpt><trkpt lat="43.52303702397415" lon="10.784835855335862"><ele>69.0</ele><time>2026-04-18T08:47:46.001Z</time></trkpt><trkpt lat="43.52289019620849" lon="10.78492505879503"><ele>69.0</ele><time>2026-04-18T08:47:47.001Z</time></trkpt><trkpt lat="43.52275273659075" lon="10.785004155017843"><ele>69.0</ele><time>2026-04-18T08:47:48.001Z</time></trkpt><trkpt lat="43.522634382943615" lon="10.78506758870309"><ele>69.0</ele><time>2026-04-18T08:47:49.001Z</time></trkpt><trkpt lat="43.522540152058966" lon="10.785121444981696"><ele>69.0</ele><time>2026-04-18T08:47:50.001Z</time></trkpt><trkpt lat="43.52247087989462" lon="10.785160309795165"><ele>69.0</ele><time>2026-04-18T08:47:51.001Z</time></trkpt><trkpt lat="43.52238700896134" lon="10.785221317750908"><ele>69.0</ele><time>2026-04-18T08:47:53.001Z</time></trkpt><trkpt lat="43.52240983812548" lon="10.785401773779604"><ele>69.0</ele><time>2026-04-18T08:47:57.001Z</time></trkpt><trkpt lat="43.522457893020054" lon="10.785480185281536"><ele>69.0</ele><time>2026-04-18T08:47:58.001Z</time></trkpt><trkpt lat="43.52251237497972" lon="10.785558949982303"><ele>69.0</ele><time>2026-04-18T08:47:59.001Z</time></trkpt><trkpt lat="43.52253840930082" lon="10.785668501430711"><ele>69.0</ele><time>2026-04-18T08:48:00.001Z</time></trkpt><trkpt lat="43.52254666388251" lon="10.785787248596566"><ele>69.0</ele><time>2026-04-18T08:48:01.001Z</time></trkpt><trkpt lat="43.52254981279484" lon="10.78591203264728"><ele>69.0</ele><time>2026-04-18T08:48:02.001Z</time></trkpt><trkpt lat="43.52255312924675" lon="10.786041123193174"><ele>69.25</ele><time>2026-04-18T08:48:03.001Z</time></trkpt><trkpt lat="43.522556138136146" lon="10.786202559006162"><ele>69.5</ele><time>2026-04-18T08:48:04.001Z</time></trkpt><trkpt lat="43.522575271585495" lon="10.786351473611491"><ele>69.75</ele><time>2026-04-18T08:48:05.001Z</time></trkpt><trkpt lat="43.522575919837" lon="10.78651033808464"><ele>70.0</ele><time>2026-04-18T08:48:06.002Z</time></trkpt><trkpt lat="43.522592299980595" lon="10.786668029298303"><ele>70.0</ele><time>2026-04-18T08:48:07.002Z</time></trkpt><trkpt lat="43.52261100378956" lon="10.786838178137689"><ele>70.0</ele><time>2026-04-18T08:48:08.002Z</time></trkpt><trkpt lat="43.52263526186083" lon="10.787011497531445"><ele>70.0</ele><time>2026-04-18T08:48:09.002Z</time></trkpt><trkpt lat="43.5226588322447" lon="10.787171811468985"><ele>70.0</ele><time>2026-04-18T08:48:10.002Z</time></trkpt><trkpt lat="43.52268102307564" lon="10.78730748246043"><ele>70.4</ele><time>2026-04-18T08:48:11.002Z</time></trkpt><trkpt lat="43.52270245356267" lon="10.787448460721501"><ele>70.8</ele><time>2026-04-18T08:48:12.002Z</time></trkpt><trkpt lat="43.52272441769482" lon="10.787579044614887"><ele>71.2</ele><time>2026-04-18T08:48:13.002Z</time></trkpt><trkpt lat="43.52274453766778" lon="10.787707966403739"><ele>71.6</ele><time>2026-04-18T08:48:14.002Z</time></trkpt><trkpt lat="43.52275963783558" lon="10.787835096056938"><ele>72.0</ele><time>2026-04-18T08:48:15.002Z</time></trkpt><trkpt lat="43.522772884252966" lon="10.787961823983654"><ele>72.4</ele><time>2026-04-18T08:48:16.002Z</time></trkpt><trkpt lat="43.52279191865281" lon="10.788089349148981"><ele>72.80000000000001</ele><time>2026-04-18T08:48:17.002Z</time></trkpt><trkpt lat="43.522812323259345" lon="10.788218566424776"><ele>73.2</ele><time>2026-04-18T08:48:18.002Z</time></trkpt><trkpt lat="43.52282911903067" lon="10.788344289331688"><ele>73.60000000000001</ele><time>2026-04-18T08:48:19Z</time></trkpt><trkpt lat="43.52284315382599" lon="10.788474326717557"><ele>74.0</ele><time>2026-04-18T08:48:20Z</time></trkpt><trkpt lat="43.52286385151072" lon="10.78860683244814"><ele>75.2</ele><time>2026-04-18T08:48:21Z</time></trkpt><trkpt lat="43.52288101757258" lon="10.788726744145576"><ele>76.4</ele><time>2026-04-18T08:48:22Z</time></trkpt><trkpt lat="43.52291021332369" lon="10.788871248635358"><ele>77.6</ele><time>2026-04-18T08:48:23Z</time></trkpt><trkpt lat="43.522928480290695" lon="10.789033354284813"><ele>78.8</ele><time>2026-04-18T08:48:24Z</time></trkpt><trkpt lat="43.52295429909812" lon="10.789199374338333"><ele>80.0</ele><time>2026-04-18T08:48:25Z</time></trkpt><trkpt lat="43.52297376776819" lon="10.7893802923308"><ele>82.0</ele><time>2026-04-18T08:48:26Z</time></trkpt><trkpt lat="43.523007525406456" lon="10.789555962514953"><ele>84.0</ele><time>2026-04-18T08:48:27Z</time></trkpt><trkpt lat="43.523033217615826" lon="10.789691389739632"><ele>86.0</ele><time>2026-04-18T08:48:27.999Z</time></trkpt><trkpt lat="43.52306072572973" lon="10.789812860110347"><ele>88.0</ele><time>2026-04-18T08:48:28.999Z</time></trkpt><trkpt lat="43.523090050328776" lon="10.789918368961644"><ele>90.0</ele><time>2026-04-18T08:48:30Z</time></trkpt><trkpt lat="43.523110949292594" lon="10.790025400335612"><ele>90.0</ele><time>2026-04-18T08:48:31Z</time></trkpt><trkpt lat="43.52313250292058" lon="10.790148516477418"><ele>90.0</ele><time>2026-04-18T08:48:32Z</time></trkpt><trkpt lat="43.52312983037665" lon="10.790287385582834"><ele>90.0</ele><time>2026-04-18T08:48:33Z</time></trkpt><trkpt lat="43.523152932256004" lon="10.790432171028028"><ele>90.0</ele><time>2026-04-18T08:48:34Z</time></trkpt><trkpt lat="43.523174496304996" lon="10.790575853534907"><ele>90.0</ele><time>2026-04-18T08:48:35Z</time></trkpt><trkpt lat="43.52319201170576" lon="10.790707250211689"><ele>90.6</ele><time>2026-04-18T08:48:36Z</time></trkpt><trkpt lat="43.5231941895924" lon="10.790827817480103"><ele>91.2</ele><time>2026-04-18T08:48:37Z</time></trkpt><trkpt lat="43.523218408484674" lon="10.790946696675714"><ele>91.80000000000001</ele><time>2026-04-18T08:48:38Z</time></trkpt><trkpt lat="43.52326108504805" lon="10.791071718812125"><ele>92.4</ele><time>2026-04-18T08:48:39Z</time></trkpt><trkpt lat="43.523343137613125" lon="10.791161254761922"><ele>93.0</ele><time>2026-04-18T08:48:40Z</time></trkpt><trkpt lat="43.52339982741942" lon="10.791274555706975"><ele>93.0</ele><time>2026-04-18T08:48:41Z</time></trkpt><trkpt lat="43.52347402217849" lon="10.79139494930814"><ele>93.0</ele><time>2026-04-18T08:48:42Z</time></trkpt><trkpt lat="43.52354030450606" lon="10.791511088143533"><ele>93.0</ele><time>2026-04-18T08:48:43Z</time></trkpt><trkpt lat="43.52359667775409" lon="10.791612898021496"><ele>93.0</ele><time>2026-04-18T08:48:44Z</time></trkpt><trkpt lat="43.52363891355735" lon="10.79169926836112"><ele>93.0</ele><time>2026-04-18T08:48:45Z</time></trkpt><trkpt lat="43.523675245605375" lon="10.791784170578296"><ele>93.0</ele><time>2026-04-18T08:48:46Z</time></trkpt><trkpt lat="43.52370910131882" lon="10.791887525410166"><ele>93.0</ele><time>2026-04-18T08:48:47Z</time></trkpt><trkpt lat="43.5236874039622" lon="10.792006356345732"><ele>93.0</ele><time>2026-04-18T08:48:48Z</time></trkpt><trkpt lat="43.52367691560412" lon="10.792124112420804"><ele>93.0</ele><time>2026-04-18T08:48:49Z</time></trkpt><trkpt lat="43.52365861570165" lon="10.792255037080317"><ele>93.0</ele><time>2026-04-18T08:48:50Z</time></trkpt><trkpt lat="43.52364452716908" lon="10.792394384960287"><ele>93.0</ele><time>2026-04-18T08:48:51Z</time></trkpt><trkpt lat="43.5236079176847" lon="10.792531505099761"><ele>93.0</ele><time>2026-04-18T08:48:52Z</time></trkpt><trkpt lat="43.52355922589475" lon="10.792672703294675"><ele>93.0</ele><time>2026-04-18T08:48:53Z</time></trkpt><trkpt lat="43.52352266088054" lon="10.792829615509136"><ele>93.0</ele><time>2026-04-18T08:48:54Z</time></trkpt><trkpt lat="43.52350354924322" lon="10.792979951051729"><ele>93.0</ele><time>2026-04-18T08:48:55Z</time></trkpt><trkpt lat="43.52349282586815" lon="10.793132170458723"><ele>93.75</ele><time>2026-04-18T08:48:56Z</time></trkpt><trkpt lat="43.52348727748413" lon="10.793298017451368"><ele>94.5</ele><time>2026-04-18T08:48:57Z</time></trkpt><trkpt lat="43.52350370590521" lon="10.793466175521464"><ele>95.25</ele><time>2026-04-18T08:48:58Z</time></trkpt><trkpt lat="43.5234988123202" lon="10.793620966125122"><ele>96.0</ele><time>2026-04-18T08:48:59Z</time></trkpt><trkpt lat="43.52351639266468" lon="10.793769012504804"><ele>96.0</ele><time>2026-04-18T08:49:00Z</time></trkpt><trkpt lat="43.52351272535296" lon="10.793940411050912"><ele>96.0</ele><time>2026-04-18T08:49:01Z</time></trkpt><trkpt lat="43.523506677710195" lon="10.794110260977334"><ele>96.0</ele><time>2026-04-18T08:49:02Z</time></trkpt><trkpt lat="43.52349233624695" lon="10.794292592957266"><ele>96.0</ele><time>2026-04-18T08:49:03Z</time></trkpt><trkpt lat="43.52346630117816" lon="10.794462091623574"><ele>96.0</ele><time>2026-04-18T08:49:04Z</time></trkpt><trkpt lat="43.52345199113052" lon="10.79462199413555"><ele>96.0</ele><time>2026-04-18T08:49:05Z</time></trkpt><trkpt lat="43.523457405861514" lon="10.794792516772741"><ele>96.0</ele><time>2026-04-18T08:49:06Z</time></trkpt><trkpt lat="43.5234522940284" lon="10.794948184248211"><ele>96.0</ele><time>2026-04-18T08:49:07Z</time></trkpt><trkpt lat="43.52345959235584" lon="10.795086043058905"><ele>95.0</ele><time>2026-04-18T08:49:08Z</time></trkpt><trkpt lat="43.52348229622963" lon="10.795254181931476"><ele>94.0</ele><time>2026-04-18T08:49:09Z</time></trkpt><trkpt lat="43.52352260703051" lon="10.795451121170057"><ele>93.0</ele><time>2026-04-18T08:49:10Z</time></trkpt><trkpt lat="43.52356974008238" lon="10.795642021028192"><ele>92.0</ele><time>2026-04-18T08:49:11Z</time></trkpt><trkpt lat="43.52361597763994" lon="10.79580320498194"><ele>92.0</ele><time>2026-04-18T08:49:12Z</time></trkpt><trkpt lat="43.52365968109248" lon="10.795966813636186"><ele>92.0</ele><time>2026-04-18T08:49:13Z</time></trkpt><trkpt lat="43.523720893586116" lon="10.796122678434811"><ele>92.0</ele><time>2026-04-18T08:49:14Z</time></trkpt><trkpt lat="43.52378862497588" lon="10.796293642065377"><ele>92.0</ele><time>2026-04-18T08:49:15Z</time></trkpt><trkpt lat="43.52384787979835" lon="10.796472901312304"><ele>92.66666666666667</ele><time>2026-04-18T08:49:16Z</time></trkpt><trkpt lat="43.523896386723855" lon="10.796669050860276"><ele>93.33333333333333</ele><time>2026-04-18T08:49:17Z</time></trkpt><trkpt lat="43.523937358674765" lon="10.796881839803003"><ele>94.0</ele><time>2026-04-18T08:49:18Z</time></trkpt><trkpt lat="43.52397185981442" lon="10.797103961810372"><ele>94.0</ele><time>2026-04-18T08:49:19Z</time></trkpt><trkpt lat="43.52399505714086" lon="10.797322641394986"><ele>94.0</ele><time>2026-04-18T08:49:20Z</time></trkpt><trkpt lat="43.52400391053521" lon="10.797529886093296"><ele>94.0</ele><time>2026-04-18T08:49:21Z</time></trkpt><trkpt lat="43.52401212260033" lon="10.7977252357093"><ele>95.33333333333333</ele><time>2026-04-18T08:49:22Z</time></trkpt><trkpt lat="43.52402493378023" lon="10.797927519442469"><ele>96.66666666666666</ele><time>2026-04-18T08:49:23Z</time></trkpt><trkpt lat="43.52404633951805" lon="10.798132843492015"><ele>98.0</ele><time>2026-04-18T08:49:24Z</time></trkpt><trkpt lat="43.5240707814712" lon="10.79834527943366"><ele>98.75</ele><time>2026-04-18T08:49:25Z</time></trkpt><trkpt lat="43.524100088981484" lon="10.798556353270628"><ele>99.5</ele><time>2026-04-18T08:49:26Z</time></trkpt><trkpt lat="43.524139321517964" lon="10.79874247867846"><ele>100.25</ele><time>2026-04-18T08:49:27Z</time></trkpt><trkpt lat="43.52417573324401" lon="10.79892496001535"><ele>101.0</ele><time>2026-04-18T08:49:28Z</time></trkpt><trkpt lat="43.5242039223209" lon="10.799118952469257"><ele>101.0</ele><time>2026-04-18T08:49:29Z</time></trkpt><trkpt lat="43.524230597617226" lon="10.799312001913046"><ele>101.0</ele><time>2026-04-18T08:49:30Z</time></trkpt><trkpt lat="43.52424465722094" lon="10.799490691141854"><ele>101.0</ele><time>2026-04-18T08:49:31Z</time></trkpt><trkpt lat="43.52422914340103" lon="10.79964957645403"><ele>101.0</ele><time>2026-04-18T08:49:32Z</time></trkpt><trkpt lat="43.52421284949658" lon="10.799820278099125"><ele>100.75</ele><time>2026-04-18T08:49:33Z</time></trkpt><trkpt lat="43.52420752183914" lon="10.79999963715744"><ele>100.5</ele><time>2026-04-18T08:49:34Z</time></trkpt><trkpt lat="43.52418308644411" lon="10.800167002989438"><ele>100.25</ele><time>2026-04-18T08:49:35Z</time></trkpt><trkpt lat="43.524164529852705" lon="10.80035193493484"><ele>100.0</ele><time>2026-04-18T08:49:36Z</time></trkpt><trkpt lat="43.52415553245366" lon="10.800541790491897"><ele>100.0</ele><time>2026-04-18T08:49:37Z</time></trkpt><trkpt lat="43.52414895761996" lon="10.800694537042846"><ele>100.0</ele><time>2026-04-18T08:49:38Z</time></trkpt><trkpt lat="43.52414632506443" lon="10.800831571784851"><ele>100.0</ele><time>2026-04-18T08:49:39Z</time></trkpt><trkpt lat="43.524130184031115" lon="10.800981268374665"><ele>100.0</ele><time>2026-04-18T08:49:40Z</time></trkpt><trkpt lat="43.5240966722663" lon="10.801133412940226"><ele>100.0</ele><time>2026-04-18T08:49:41Z</time></trkpt><trkpt lat="43.524027094359575" lon="10.801277283989396"><ele>98.5</ele><time>2026-04-18T08:49:42Z</time></trkpt><trkpt lat="43.52397823065939" lon="10.801441797529897"><ele>97.0</ele><time>2026-04-18T08:49:43.001Z</time></trkpt><trkpt lat="43.523915831865615" lon="10.801594604122412"><ele>95.5</ele><time>2026-04-18T08:49:44.001Z</time></trkpt><trkpt lat="43.52385281842099" lon="10.801735631743412"><ele>94.0</ele><time>2026-04-18T08:49:45.001Z</time></trkpt><trkpt lat="43.523793407341564" lon="10.80185540120116"><ele>96.25</ele><time>2026-04-18T08:49:46.001Z</time></trkpt><trkpt lat="43.523708189073595" lon="10.80193883140221"><ele>98.5</ele><time>2026-04-18T08:49:47.001Z</time></trkpt><trkpt lat="43.52360688260595" lon="10.802019589331946"><ele>100.75</ele><time>2026-04-18T08:49:48.001Z</time></trkpt><trkpt lat="43.52349254666814" lon="10.802096829039426"><ele>103.0</ele><time>2026-04-18T08:49:49.001Z</time></trkpt><trkpt lat="43.523372392230506" lon="10.802189061505297"><ele>103.0</ele><time>2026-04-18T08:49:50.001Z</time></trkpt><trkpt lat="43.52326493042849" lon="10.802252435610365"><ele>103.0</ele><time>2026-04-18T08:49:51.001Z</time></trkpt><trkpt lat="43.52319409155843" lon="10.802315298620186"><ele>103.0</ele><time>2026-04-18T08:49:52.001Z</time></trkpt><trkpt lat="43.523128968974916" lon="10.802395990472085"><ele>103.0</ele><time>2026-04-18T08:49:53.001Z</time></trkpt><trkpt lat="43.52306930938979" lon="10.802495596385299"><ele>103.0</ele><time>2026-04-18T08:49:54.001Z</time></trkpt><trkpt lat="43.523017652690385" lon="10.802612330567849"><ele>104.0</ele><time>2026-04-18T08:49:55.001Z</time></trkpt><trkpt lat="43.52297908974539" lon="10.802761396362024"><ele>105.0</ele><time>2026-04-18T08:49:56.001Z</time></trkpt><trkpt lat="43.52295238323494" lon="10.802925606111122"><ele>106.0</ele><time>2026-04-18T08:49:57.001Z</time></trkpt><trkpt lat="43.522940065043464" lon="10.80305897062759"><ele>107.0</ele><time>2026-04-18T08:49:58.001Z</time></trkpt><trkpt lat="43.522912179353625" lon="10.80322852370097"><ele>106.99999999999999</ele><time>2026-04-18T08:50:00.001Z</time></trkpt><trkpt lat="43.52290471001177" lon="10.803335666046042"><ele>107.0</ele><time>2026-04-18T08:50:01.001Z</time></trkpt><trkpt lat="43.52290372794052" lon="10.803460908616934"><ele>107.0</ele><time>2026-04-18T08:50:02.001Z</time></trkpt><trkpt lat="43.52291244247114" lon="10.803566952933446"><ele>107.0</ele><time>2026-04-18T08:50:03.001Z</time></trkpt><trkpt lat="43.52293632307523" lon="10.803677696624677"><ele>106.99999999999999</ele><time>2026-04-18T08:50:04.001Z</time></trkpt><trkpt lat="43.5229711792188" lon="10.80379996755338"><ele>107.0</ele><time>2026-04-18T08:50:05.001Z</time></trkpt><trkpt lat="43.523021906058446" lon="10.803923359828934"><ele>106.75</ele><time>2026-04-18T08:50:06.001Z</time></trkpt><trkpt lat="43.52308957515157" lon="10.804047043903376"><ele>106.5</ele><time>2026-04-18T08:50:07.001Z</time></trkpt><trkpt lat="43.523161088641054" lon="10.80417950063964"><ele>106.25</ele><time>2026-04-18T08:50:08.001Z</time></trkpt><trkpt lat="43.52323514745348" lon="10.804329990662623"><ele>106.0</ele><time>2026-04-18T08:50:09.001Z</time></trkpt><trkpt lat="43.523305402744136" lon="10.80449792660705"><ele>104.5</ele><time>2026-04-18T08:50:10.001Z</time></trkpt><trkpt lat="43.52336852686776" lon="10.80467017106218"><ele>103.0</ele><time>2026-04-18T08:50:11.001Z</time></trkpt><trkpt lat="43.52343318331126" lon="10.804812342367354"><ele>101.5</ele><time>2026-04-18T08:50:12.001Z</time></trkpt><trkpt lat="43.52349550684927" lon="10.80495838064972"><ele>100.0</ele><time>2026-04-18T08:50:13.001Z</time></trkpt><trkpt lat="43.52355548245655" lon="10.80510394281306"><ele>99.75</ele><time>2026-04-18T08:50:14.001Z</time></trkpt><trkpt lat="43.52360610863288" lon="10.80524084446148"><ele>99.5</ele><time>2026-04-18T08:50:15.001Z</time></trkpt><trkpt lat="43.52364498322308" lon="10.805381985433298"><ele>99.25</ele><time>2026-04-18T08:50:16.001Z</time></trkpt><trkpt lat="43.523675210482395" lon="10.805544790156583"><ele>99.0</ele><time>2026-04-18T08:50:17.001Z</time></trkpt><trkpt lat="43.52370517649867" lon="10.805699079467082"><ele>99.0</ele><time>2026-04-18T08:50:18.001Z</time></trkpt><trkpt lat="43.52371728762269" lon="10.805835753229287"><ele>99.0</ele><time>2026-04-18T08:50:19.001Z</time></trkpt><trkpt lat="43.52377160654084" lon="10.80598413833449"><ele>99.0</ele><time>2026-04-18T08:50:20.001Z</time></trkpt><trkpt lat="43.52379762224498" lon="10.806118408340696"><ele>99.0</ele><time>2026-04-18T08:50:21.001Z</time></trkpt><trkpt lat="43.52381127871451" lon="10.806230122531153"><ele>99.0</ele><time>2026-04-18T08:50:22.001Z</time></trkpt><trkpt lat="43.52381407574494" lon="10.806351887978721"><ele>98.4</ele><time>2026-04-18T08:50:23.001Z</time></trkpt><trkpt lat="43.52379962540932" lon="10.80648103060915"><ele>97.80000000000001</ele><time>2026-04-18T08:50:24.001Z</time></trkpt><trkpt lat="43.523773012117196" lon="10.80661783583754"><ele>97.19999999999999</ele><time>2026-04-18T08:50:25Z</time></trkpt><trkpt lat="43.523748257850244" lon="10.80675433474303"><ele>96.6</ele><time>2026-04-18T08:50:26Z</time></trkpt><trkpt lat="43.523725266433864" lon="10.806887394935133"><ele>96.0</ele><time>2026-04-18T08:50:27Z</time></trkpt><trkpt lat="43.523710469805984" lon="10.80703670999591"><ele>96.0</ele><time>2026-04-18T08:50:28Z</time></trkpt><trkpt lat="43.52371813908062" lon="10.807202958010324"><ele>96.0</ele><time>2026-04-18T08:50:29Z</time></trkpt><trkpt lat="43.52374184274372" lon="10.807360217473295"><ele>96.0</ele><time>2026-04-18T08:50:30Z</time></trkpt><trkpt lat="43.52377730307352" lon="10.807507346133356"><ele>96.0</ele><time>2026-04-18T08:50:31Z</time></trkpt><trkpt lat="43.52382539373621" lon="10.807652407170773"><ele>96.0</ele><time>2026-04-18T08:50:32Z</time></trkpt><trkpt lat="43.523879512703374" lon="10.8078093872169"><ele>96.0</ele><time>2026-04-18T08:50:33Z</time></trkpt><trkpt lat="43.52394735804838" lon="10.807963888805228"><ele>96.0</ele><time>2026-04-18T08:50:34Z</time></trkpt><trkpt lat="43.524003651601255" lon="10.80810243471601"><ele>96.0</ele><time>2026-04-18T08:50:35Z</time></trkpt><trkpt lat="43.524046819324084" lon="10.808223152180803"><ele>96.0</ele><time>2026-04-18T08:50:36Z</time></trkpt><trkpt lat="43.52408474743917" lon="10.808351751241798"><ele>96.0</ele><time>2026-04-18T08:50:37Z</time></trkpt><trkpt lat="43.524099002446455" lon="10.808483782137476"><ele>96.0</ele><time>2026-04-18T08:50:38Z</time></trkpt><trkpt lat="43.524075446228984" lon="10.80862364259483"><ele>96.0</ele><time>2026-04-18T08:50:39Z</time></trkpt><trkpt lat="43.524074173479626" lon="10.80878663472269"><ele>96.0</ele><time>2026-04-18T08:50:40Z</time></trkpt><trkpt lat="43.52405180196538" lon="10.808967704421987"><ele>97.0</ele><time>2026-04-18T08:50:41Z</time></trkpt><trkpt lat="43.52403573580279" lon="10.809145354073022"><ele>98.0</ele><time>2026-04-18T08:50:42Z</time></trkpt><trkpt lat="43.52403521189678" lon="10.809302744374966"><ele>99.0</ele><time>2026-04-18T08:50:43Z</time></trkpt><trkpt lat="43.524050418715014" lon="10.809463756992281"><ele>100.0</ele><time>2026-04-18T08:50:44Z</time></trkpt><trkpt lat="43.524076410571425" lon="10.809626453625711"><ele>100.75</ele><time>2026-04-18T08:50:45Z</time></trkpt><trkpt lat="43.52410774782231" lon="10.809785586277695"><ele>101.5</ele><time>2026-04-18T08:50:46Z</time></trkpt><trkpt lat="43.52410857501712" lon="10.80996331187188"><ele>102.25</ele><time>2026-04-18T08:50:47Z</time></trkpt><trkpt lat="43.52411080030109" lon="10.810124596054974"><ele>103.0</ele><time>2026-04-18T08:50:48Z</time></trkpt><trkpt lat="43.52409978328807" lon="10.810255968186194"><ele>103.25</ele><time>2026-04-18T08:50:49Z</time></trkpt><trkpt lat="43.52408373351286" lon="10.810391565791987"><ele>103.5</ele><time>2026-04-18T08:50:50Z</time></trkpt><trkpt lat="43.52404701743946" lon="10.810552665186139"><ele>103.75</ele><time>2026-04-18T08:50:51Z</time></trkpt><trkpt lat="43.524005158800826" lon="10.810732708425979"><ele>104.0</ele><time>2026-04-18T08:50:52Z</time></trkpt><trkpt lat="43.52397395954194" lon="10.810926935510745"><ele>103.5</ele><time>2026-04-18T08:50:53Z</time></trkpt><trkpt lat="43.523969727860894" lon="10.811102825520553"><ele>103.0</ele><time>2026-04-18T08:50:54Z</time></trkpt><trkpt lat="43.52392680813103" lon="10.811266552826789"><ele>102.5</ele><time>2026-04-18T08:50:55Z</time></trkpt><trkpt lat="43.52388965414564" lon="10.811408503394622"><ele>102.0</ele><time>2026-04-18T08:50:56Z</time></trkpt><trkpt lat="43.523838164654535" lon="10.81152200773158"><ele>102.0</ele><time>2026-04-18T08:50:57Z</time></trkpt><trkpt lat="43.523781473689134" lon="10.811624937677765"><ele>102.0</ele><time>2026-04-18T08:50:58Z</time></trkpt><trkpt lat="43.52369648920972" lon="10.811727508360509"><ele>102.0</ele><time>2026-04-18T08:50:59Z</time></trkpt><trkpt lat="43.52360061959375" lon="10.811839318043805"><ele>102.0</ele><time>2026-04-18T08:51:00Z</time></trkpt><trkpt lat="43.52350724840476" lon="10.811940948848168"><ele>104.8</ele><time>2026-04-18T08:51:01Z</time></trkpt><trkpt lat="43.52342141074003" lon="10.812008480531425"><ele>107.6</ele><time>2026-04-18T08:51:02Z</time></trkpt><trkpt lat="43.52333241897039" lon="10.81204084883502"><ele>110.39999999999999</ele><time>2026-04-18T08:51:03Z</time></trkpt><trkpt lat="43.52324313307282" lon="10.812094750826764"><ele>113.19999999999999</ele><time>2026-04-18T08:51:04Z</time></trkpt><trkpt lat="43.52314688632711" lon="10.812142194494605"><ele>116.0</ele><time>2026-04-18T08:51:05Z</time></trkpt><trkpt lat="43.523067357606884" lon="10.812207894495891"><ele>115.99999999999999</ele><time>2026-04-18T08:51:06Z</time></trkpt><trkpt lat="43.52301694524084" lon="10.81228874882098"><ele>116.0</ele><time>2026-04-18T08:51:07Z</time></trkpt><trkpt lat="43.522964354683346" lon="10.812353607543075"><ele>116.0</ele><time>2026-04-18T08:51:08Z</time></trkpt><trkpt lat="43.52292669746114" lon="10.812447826084437"><ele>116.0</ele><time>2026-04-18T08:51:09Z</time></trkpt><trkpt lat="43.52288935784246" lon="10.812563614074726"><ele>115.99999999999999</ele><time>2026-04-18T08:51:10Z</time></trkpt><trkpt lat="43.522857416475055" lon="10.812668225882534"><ele>116.0</ele><time>2026-04-18T08:51:11Z</time></trkpt><trkpt lat="43.52281266678224" lon="10.812813556271486"><ele>117.19999999999999</ele><time>2026-04-18T08:51:12Z</time></trkpt><trkpt lat="43.522772948045045" lon="10.812946644402903"><ele>118.39999999999999</ele><time>2026-04-18T08:51:13Z</time></trkpt><trkpt lat="43.52271125237675" lon="10.813056036069675"><ele>119.6</ele><time>2026-04-18T08:51:14Z</time></trkpt><trkpt lat="43.522632436517355" lon="10.813142953170127"><ele>120.8</ele><time>2026-04-18T08:51:15Z</time></trkpt><trkpt lat="43.522551251941906" lon="10.813223028764206"><ele>122.0</ele><time>2026-04-18T08:51:16Z</time></trkpt><trkpt lat="43.52244026218929" lon="10.81332313332588"><ele>122.0</ele><time>2026-04-18T08:51:17Z</time></trkpt><trkpt lat="43.52234560176817" lon="10.813405689889164"><ele>121.99999999999999</ele><time>2026-04-18T08:51:18Z</time></trkpt><trkpt lat="43.522233814644345" lon="10.813504184008915"><ele>121.99999999999999</ele><time>2026-04-18T08:51:19Z</time></trkpt><trkpt lat="43.522153919753116" lon="10.813583398149994"><ele>122.0</ele><time>2026-04-18T08:51:20Z</time></trkpt><trkpt lat="43.522091469243925" lon="10.813659809059128"><ele>122.0</ele><time>2026-04-18T08:51:21Z</time></trkpt><trkpt lat="43.52203610830974" lon="10.813734481090734"><ele>123.5</ele><time>2026-04-18T08:51:22Z</time></trkpt><trkpt lat="43.52200715307886" lon="10.813883710339022"><ele>125.0</ele><time>2026-04-18T08:51:23Z</time></trkpt><trkpt lat="43.52196781023356" lon="10.814047405708285"><ele>126.5</ele><time>2026-04-18T08:51:24Z</time></trkpt><trkpt lat="43.521932034050884" lon="10.81421333590471"><ele>128.0</ele><time>2026-04-18T08:51:25Z</time></trkpt><trkpt lat="43.5218982960359" lon="10.814363623471495"><ele>128.0</ele><time>2026-04-18T08:51:26Z</time></trkpt><trkpt lat="43.52184974700181" lon="10.814499413538895"><ele>128.0</ele><time>2026-04-18T08:51:27Z</time></trkpt><trkpt lat="43.52180082102864" lon="10.8146226726106"><ele>128.0</ele><time>2026-04-18T08:51:28Z</time></trkpt><trkpt lat="43.521743455096086" lon="10.814744170645225"><ele>128.0</ele><time>2026-04-18T08:51:29Z</time></trkpt><trkpt lat="43.521712171764406" lon="10.814835086062288"><ele>128.0</ele><time>2026-04-18T08:51:30Z</time></trkpt><trkpt lat="43.52169030212869" lon="10.814934893462862"><ele>128.0</ele><time>2026-04-18T08:51:31Z</time></trkpt><trkpt lat="43.521692142068254" lon="10.815058237229001"><ele>128.0</ele><time>2026-04-18T08:51:32Z</time></trkpt><trkpt lat="43.521693972885" lon="10.81518611293143"><ele>128.0</ele><time>2026-04-18T08:51:33Z</time></trkpt><trkpt lat="43.52169153494363" lon="10.815310111797782"><ele>128.0</ele><time>2026-04-18T08:51:34Z</time></trkpt><trkpt lat="43.52167894881718" lon="10.815448317333537"><ele>128.0</ele><time>2026-04-18T08:51:35Z</time></trkpt><trkpt lat="43.521666255261174" lon="10.815588034964515"><ele>127.75</ele><time>2026-04-18T08:51:36Z</time></trkpt><trkpt lat="43.52167081064225" lon="10.815721273789773"><ele>127.5</ele><time>2026-04-18T08:51:37Z</time></trkpt><trkpt lat="43.521698803356614" lon="10.815825533266745"><ele>127.25</ele><time>2026-04-18T08:51:38Z</time></trkpt><trkpt lat="43.52174433818759" lon="10.815916046310278"><ele>127.0</ele><time>2026-04-18T08:51:39Z</time></trkpt><trkpt lat="43.521859505759544" lon="10.816147648745787"><ele>126.39999999999999</ele><time>2026-04-18T08:51:41Z</time></trkpt><trkpt lat="43.52194385184247" lon="10.816292546518747"><ele>125.79999999999998</ele><time>2026-04-18T08:51:42Z</time></trkpt><trkpt lat="43.52200567443475" lon="10.81645141593384"><ele>125.2</ele><time>2026-04-18T08:51:43Z</time></trkpt><trkpt lat="43.52205368634686" lon="10.816578553322827"><ele>124.6</ele><time>2026-04-18T08:51:44Z</time></trkpt><trkpt lat="43.52208611421024" lon="10.816668708148088"><ele>124.0</ele><time>2026-04-18T08:51:45Z</time></trkpt><trkpt lat="43.522092423436234" lon="10.816774874897291"><ele>123.83333333333334</ele><time>2026-04-18T08:51:46Z</time></trkpt><trkpt lat="43.52209838950377" lon="10.816886953094812"><ele>123.66666666666667</ele><time>2026-04-18T08:51:47Z</time></trkpt><trkpt lat="43.52208547992299" lon="10.816990629770412"><ele>123.5</ele><time>2026-04-18T08:51:48Z</time></trkpt><trkpt lat="43.52206417991277" lon="10.817082926910201"><ele>123.33333333333334</ele><time>2026-04-18T08:51:49Z</time></trkpt><trkpt lat="43.52204330576634" lon="10.817165202925434"><ele>123.16666666666667</ele><time>2026-04-18T08:51:50Z</time></trkpt><trkpt lat="43.521998620118254" lon="10.817298135642517"><ele>123.0</ele><time>2026-04-18T08:51:52Z</time></trkpt><trkpt lat="43.521962508981" lon="10.817399289705923"><ele>123.0</ele><time>2026-04-18T08:51:54Z</time></trkpt><trkpt lat="43.52194330409892" lon="10.817488833513456"><ele>123.00000000000001</ele><time>2026-04-18T08:52:05Z</time></trkpt><trkpt lat="43.52189227951027" lon="10.817656818637948"><ele>123.00000000000001</ele><time>2026-04-18T08:52:07Z</time></trkpt><trkpt lat="43.52183368248303" lon="10.81776707972206"><ele>123.0</ele><time>2026-04-18T08:52:08Z</time></trkpt><trkpt lat="43.521790666573196" lon="10.817856407914276"><ele>123.0</ele><time>2026-04-18T08:52:09Z</time></trkpt><trkpt lat="43.52173193675633" lon="10.817963267801382"><ele>125.0</ele><time>2026-04-18T08:52:10Z</time></trkpt><trkpt lat="43.52165641570261" lon="10.818072847912246"><ele>127.0</ele><time>2026-04-18T08:52:11Z</time></trkpt><trkpt lat="43.52156127272395" lon="10.818156962504167"><ele>129.0</ele><time>2026-04-18T08:52:12Z</time></trkpt><trkpt lat="43.52145362028762" lon="10.818250845162876"><ele>131.0</ele><time>2026-04-18T08:52:13Z</time></trkpt><trkpt lat="43.52138485710981" lon="10.818361139711941"><ele>131.0</ele><time>2026-04-18T08:52:14Z</time></trkpt><trkpt lat="43.52135147931989" lon="10.818452300086534"><ele>131.0</ele><time>2026-04-18T08:52:15Z</time></trkpt><trkpt lat="43.52129543683489" lon="10.818510719368453"><ele>131.0</ele><time>2026-04-18T08:52:16Z</time></trkpt><trkpt lat="43.521271530897195" lon="10.818649247651473"><ele>131.0</ele><time>2026-04-18T08:52:18.001Z</time></trkpt><trkpt lat="43.52126327711042" lon="10.818820149333934"><ele>131.0</ele><time>2026-04-18T08:52:20.001Z</time></trkpt><trkpt lat="43.52127137897581" lon="10.818941457434365"><ele>130.16666666666666</ele><time>2026-04-18T08:52:21.001Z</time></trkpt><trkpt lat="43.52129156526635" lon="10.819034173168868"><ele>129.33333333333331</ele><time>2026-04-18T08:52:22.001Z</time></trkpt><trkpt lat="43.52132229903949" lon="10.819152740430225"><ele>128.5</ele><time>2026-04-18T08:52:24.001Z</time></trkpt><trkpt lat="43.52137439560846" lon="10.819268618762283"><ele>127.66666666666666</ele><time>2026-04-18T08:52:26.001Z</time></trkpt><trkpt lat="43.52140351766317" lon="10.819353410037188"><ele>126.83333333333333</ele><time>2026-04-18T08:52:27.001Z</time></trkpt><trkpt lat="43.52142765315956" lon="10.819506073027082"><ele>126.0</ele><time>2026-04-18T08:52:29.001Z</time></trkpt><trkpt lat="43.52144780031074" lon="10.819674636282578"><ele>124.16666666666667</ele><time>2026-04-18T08:52:31Z</time></trkpt><trkpt lat="43.521438164741866" lon="10.819763117069776"><ele>122.33333333333334</ele><time>2026-04-18T08:52:32Z</time></trkpt><trkpt lat="43.52141885916209" lon="10.81985713799295"><ele>120.5</ele><time>2026-04-18T08:52:33Z</time></trkpt><trkpt lat="43.52138748342346" lon="10.819959329982675"><ele>118.66666666666667</ele><time>2026-04-18T08:52:34Z</time></trkpt><trkpt lat="43.52134716055702" lon="10.820058283864709"><ele>116.83333333333334</ele><time>2026-04-18T08:52:35Z</time></trkpt><trkpt lat="43.521311122505026" lon="10.820146625468684"><ele>115.0</ele><time>2026-04-18T08:52:36Z</time></trkpt><trkpt lat="43.52128089634664" lon="10.820263716046593"><ele>113.0</ele><time>2026-04-18T08:52:37Z</time></trkpt><trkpt lat="43.521271000301496" lon="10.820399828948341"><ele>111.0</ele><time>2026-04-18T08:52:38Z</time></trkpt><trkpt lat="43.52127939948961" lon="10.820569326185833"><ele>109.0</ele><time>2026-04-18T08:52:39Z</time></trkpt><trkpt lat="43.52129749609858" lon="10.82076065805116"><ele>107.0</ele><time>2026-04-18T08:52:40Z</time></trkpt><trkpt lat="43.52131140491399" lon="10.820947025412622"><ele>106.5</ele><time>2026-04-18T08:52:41Z</time></trkpt><trkpt lat="43.521312333135974" lon="10.821102193480215"><ele>106.0</ele><time>2026-04-18T08:52:42Z</time></trkpt><trkpt lat="43.52132143864858" lon="10.82126428160573"><ele>105.5</ele><time>2026-04-18T08:52:43Z</time></trkpt><trkpt lat="43.52133409579583" lon="10.821431398860224"><ele>105.0</ele><time>2026-04-18T08:52:44Z</time></trkpt><trkpt lat="43.521351608478305" lon="10.821603003773443"><ele>105.0</ele><time>2026-04-18T08:52:45Z</time></trkpt><trkpt lat="43.52136647260974" lon="10.821768223247041"><ele>105.0</ele><time>2026-04-18T08:52:46Z</time></trkpt><trkpt lat="43.5213698049454" lon="10.821930504462548"><ele>105.0</ele><time>2026-04-18T08:52:47Z</time></trkpt><trkpt lat="43.52137328500006" lon="10.82209123191782"><ele>105.0</ele><time>2026-04-18T08:52:48Z</time></trkpt><trkpt lat="43.521379835392736" lon="10.82223734040301"><ele>104.83333333333333</ele><time>2026-04-18T08:52:49Z</time></trkpt><trkpt lat="43.52139165529336" lon="10.822336712821217"><ele>104.66666666666666</ele><time>2026-04-18T08:52:50Z</time></trkpt><trkpt lat="43.52140550519478" lon="10.8224904734426"><ele>104.5</ele><time>2026-04-18T08:52:52Z</time></trkpt><trkpt lat="43.52143697326833" lon="10.822572933257034"><ele>104.33333333333333</ele><time>2026-04-18T08:52:55Z</time></trkpt><trkpt lat="43.521443607117156" lon="10.822661571948679"><ele>104.16666666666666</ele><time>2026-04-18T08:52:57Z</time></trkpt><trkpt lat="43.521541985124195" lon="10.822672552869488"><ele>104.0</ele><time>2026-04-18T08:52:58Z</time></trkpt><trkpt lat="43.52165297790075" lon="10.82271596301389"><ele>103.83333333333333</ele><time>2026-04-18T08:53:00Z</time></trkpt><trkpt lat="43.521717693324874" lon="10.822759379098958"><ele>103.66666666666666</ele><time>2026-04-18T08:53:01Z</time></trkpt><trkpt lat="43.521775023274095" lon="10.822825270858566"><ele>103.5</ele><time>2026-04-18T08:53:02Z</time></trkpt><trkpt lat="43.52181897920071" lon="10.822909953990964"><ele>103.33333333333334</ele><time>2026-04-18T08:53:03Z</time></trkpt><trkpt lat="43.521854515656656" lon="10.823008578995326"><ele>103.16666666666667</ele><time>2026-04-18T08:53:04Z</time></trkpt><trkpt lat="43.52187796849006" lon="10.823109727187157"><ele>103.0</ele><time>2026-04-18T08:53:05Z</time></trkpt><trkpt lat="43.52189975375097" lon="10.823232646439596"><ele>103.00000000000001</ele><time>2026-04-18T08:53:06Z</time></trkpt><trkpt lat="43.521930930313225" lon="10.823370853064134"><ele>103.0</ele><time>2026-04-18T08:53:07Z</time></trkpt><trkpt lat="43.52196193090081" lon="10.823506674629991"><ele>103.0</ele><time>2026-04-18T08:53:08Z</time></trkpt><trkpt lat="43.5219914149235" lon="10.823632330885868"><ele>103.0</ele><time>2026-04-18T08:53:09Z</time></trkpt><trkpt lat="43.522009733964765" lon="10.823729298563324"><ele>103.00000000000001</ele><time>2026-04-18T08:53:10Z</time></trkpt><trkpt lat="43.52201180653695" lon="10.823820402395063"><ele>103.0</ele><time>2026-04-18T08:53:11Z</time></trkpt><trkpt lat="43.52198114412343" lon="10.823927188662363"><ele>103.0</ele><time>2026-04-18T08:53:12Z</time></trkpt><trkpt lat="43.52194372359347" lon="10.82406266501528"><ele>103.0</ele><time>2026-04-18T08:53:13Z</time></trkpt><trkpt lat="43.521893691159015" lon="10.824209487345664"><ele>103.0</ele><time>2026-04-18T08:53:14Z</time></trkpt><trkpt lat="43.52186388804478" lon="10.82433200838196"><ele>103.0</ele><time>2026-04-18T08:53:15Z</time></trkpt><trkpt lat="43.52186339435049" lon="10.82444751143227"><ele>103.0</ele><time>2026-04-18T08:53:16.001Z</time></trkpt><trkpt lat="43.52186719354095" lon="10.824580243300629"><ele>102.0</ele><time>2026-04-18T08:53:17.001Z</time></trkpt><trkpt lat="43.52189078949236" lon="10.82474053434682"><ele>101.0</ele><time>2026-04-18T08:53:18.001Z</time></trkpt><trkpt lat="43.52191773311297" lon="10.824910703169728"><ele>100.0</ele><time>2026-04-18T08:53:19.001Z</time></trkpt><trkpt lat="43.52194225833493" lon="10.825086860920182"><ele>99.0</ele><time>2026-04-18T08:53:20.001Z</time></trkpt><trkpt lat="43.521967207901106" lon="10.825260965927969"><ele>98.0</ele><time>2026-04-18T08:53:21.001Z</time></trkpt><trkpt lat="43.52198907184618" lon="10.825409770206639"><ele>97.0</ele><time>2026-04-18T08:53:22.001Z</time></trkpt><trkpt lat="43.52200424824151" lon="10.825540065795074"><ele>96.0</ele><time>2026-04-18T08:53:23.001Z</time></trkpt><trkpt lat="43.522008827140716" lon="10.82565637075464"><ele>95.0</ele><time>2026-04-18T08:53:24.001Z</time></trkpt><trkpt lat="43.52197396531053" lon="10.825776876415162"><ele>94.0</ele><time>2026-04-18T08:53:25.001Z</time></trkpt><trkpt lat="43.521954320937766" lon="10.825937965255084"><ele>94.6</ele><time>2026-04-18T08:53:26.001Z</time></trkpt><trkpt lat="43.521958579200465" lon="10.82610425718032"><ele>95.2</ele><time>2026-04-18T08:53:27.001Z</time></trkpt><trkpt lat="43.52194482875086" lon="10.826262355513983"><ele>95.8</ele><time>2026-04-18T08:53:28.001Z</time></trkpt><trkpt lat="43.52194681439977" lon="10.826401880401825"><ele>96.39999999999999</ele><time>2026-04-18T08:53:29.001Z</time></trkpt><trkpt lat="43.521960576201934" lon="10.826529110955848"><ele>97.0</ele><time>2026-04-18T08:53:30.001Z</time></trkpt><trkpt lat="43.52199718232577" lon="10.826654496972886"><ele>97.0</ele><time>2026-04-18T08:53:31.001Z</time></trkpt><trkpt lat="43.52203584537862" lon="10.8267852184434"><ele>97.0</ele><time>2026-04-18T08:53:32.001Z</time></trkpt><trkpt lat="43.52206503994152" lon="10.826929581318845"><ele>97.0</ele><time>2026-04-18T08:53:33.001Z</time></trkpt><trkpt lat="43.5220917036894" lon="10.82707026210635"><ele>97.0</ele><time>2026-04-18T08:53:34.001Z</time></trkpt><trkpt lat="43.52211812432431" lon="10.827220247585087"><ele>97.0</ele><time>2026-04-18T08:53:35.001Z</time></trkpt><trkpt lat="43.52214805327217" lon="10.827364285542041"><ele>97.0</ele><time>2026-04-18T08:53:36.001Z</time></trkpt><trkpt lat="43.522185782696795" lon="10.827506108614315"><ele>97.0</ele><time>2026-04-18T08:53:37.001Z</time></trkpt><trkpt lat="43.52221576818003" lon="10.827636018706286"><ele>97.0</ele><time>2026-04-18T08:53:38.001Z</time></trkpt><trkpt lat="43.52223644494492" lon="10.827735887179985"><ele>97.0</ele><time>2026-04-18T08:53:39.001Z</time></trkpt><trkpt lat="43.52221718149498" lon="10.827891955125747"><ele>97.0</ele><time>2026-04-18T08:53:41.001Z</time></trkpt><trkpt lat="43.522163020817985" lon="10.827944395126845"><ele>97.0</ele><time>2026-04-18T08:53:42.001Z</time></trkpt><trkpt lat="43.522095703704544" lon="10.828039275571793"><ele>97.0</ele><time>2026-04-18T08:53:44.001Z</time></trkpt><trkpt lat="43.52201578604478" lon="10.82809284200342"><ele>97.0</ele><time>2026-04-18T08:53:46.001Z</time></trkpt><trkpt lat="43.52190860831196" lon="10.82810292455746"><ele>97.0</ele><time>2026-04-18T08:53:48.001Z</time></trkpt><trkpt lat="43.521811180707886" lon="10.828112039181981"><ele>97.0</ele><time>2026-04-18T08:53:49.001Z</time></trkpt><trkpt lat="43.52171788860336" lon="10.828123274872064"><ele>99.6</ele><time>2026-04-18T08:53:50.001Z</time></trkpt><trkpt lat="43.521647606404954" lon="10.828131739356754"><ele>102.19999999999999</ele><time>2026-04-18T08:53:51.001Z</time></trkpt><trkpt lat="43.521518481742156" lon="10.828166458547756"><ele>104.8</ele><time>2026-04-18T08:53:53.001Z</time></trkpt><trkpt lat="43.52144271384369" lon="10.828170808273205"><ele>107.4</ele><time>2026-04-18T08:53:54.001Z</time></trkpt><trkpt lat="43.52133407862417" lon="10.828177425661138"><ele>110.0</ele><time>2026-04-18T08:53:55.001Z</time></trkpt><trkpt lat="43.52121508547705" lon="10.828185509027444"><ele>112.6</ele><time>2026-04-18T08:53:56.001Z</time></trkpt><trkpt lat="43.52108759997524" lon="10.828195852296197"><ele>115.2</ele><time>2026-04-18T08:53:57.001Z</time></trkpt><trkpt lat="43.52096290264174" lon="10.828201286546637"><ele>117.80000000000001</ele><time>2026-04-18T08:53:58.001Z</time></trkpt><trkpt lat="43.520864368228665" lon="10.828222043266667"><ele>120.4</ele><time>2026-04-18T08:53:59.001Z</time></trkpt><trkpt lat="43.52077456533364" lon="10.828265560995412"><ele>123.0</ele><time>2026-04-18T08:54:00.001Z</time></trkpt><trkpt lat="43.52067765764914" lon="10.828354084834483"><ele>123.0</ele><time>2026-04-18T08:54:01.001Z</time></trkpt><trkpt lat="43.52056705945243" lon="10.828454673539845"><ele>123.0</ele><time>2026-04-18T08:54:02.001Z</time></trkpt><trkpt lat="43.52047009451466" lon="10.828530054111265"><ele>123.0</ele><time>2026-04-18T08:54:03.001Z</time></trkpt><trkpt lat="43.52038801411711" lon="10.828598846185804"><ele>123.0</ele><time>2026-04-18T08:54:04.001Z</time></trkpt><trkpt lat="43.52027628117919" lon="10.828660450681882"><ele>124.60000000000001</ele><time>2026-04-18T08:54:05.001Z</time></trkpt><trkpt lat="43.52016871115032" lon="10.8287298750705"><ele>126.20000000000002</ele><time>2026-04-18T08:54:06.001Z</time></trkpt><trkpt lat="43.520061925211095" lon="10.828787922617414"><ele>127.8</ele><time>2026-04-18T08:54:07.001Z</time></trkpt><trkpt lat="43.51995922139648" lon="10.828834707709682"><ele>129.4</ele><time>2026-04-18T08:54:08.001Z</time></trkpt><trkpt lat="43.51985712532754" lon="10.828873399899994"><ele>131.0</ele><time>2026-04-18T08:54:09.001Z</time></trkpt><trkpt lat="43.51972564152145" lon="10.828918873767941"><ele>131.0</ele><time>2026-04-18T08:54:10.001Z</time></trkpt><trkpt lat="43.519581667987296" lon="10.828966864947375"><ele>131.0</ele><time>2026-04-18T08:54:11.001Z</time></trkpt><trkpt lat="43.519457946043914" lon="10.829008733457956"><ele>131.0</ele><time>2026-04-18T08:54:12.001Z</time></trkpt><trkpt lat="43.519345583018676" lon="10.829047311601803"><ele>131.0</ele><time>2026-04-18T08:54:13.001Z</time></trkpt><trkpt lat="43.51923374456742" lon="10.829087096535915"><ele>132.0</ele><time>2026-04-18T08:54:14.001Z</time></trkpt><trkpt lat="43.51911850489256" lon="10.829133219958964"><ele>133.0</ele><time>2026-04-18T08:54:15.001Z</time></trkpt><trkpt lat="43.519005782043344" lon="10.829204337035609"><ele>134.0</ele><time>2026-04-18T08:54:16.001Z</time></trkpt><trkpt lat="43.51889223659534" lon="10.82925090456562"><ele>135.0</ele><time>2026-04-18T08:54:17.001Z</time></trkpt><trkpt lat="43.51878982790649" lon="10.829284877682783"><ele>136.6</ele><time>2026-04-18T08:54:18.001Z</time></trkpt><trkpt lat="43.51870651953074" lon="10.829320636853627"><ele>138.2</ele><time>2026-04-18T08:54:19.001Z</time></trkpt><trkpt lat="43.518607887376156" lon="10.829362036826515"><ele>139.8</ele><time>2026-04-18T08:54:20.001Z</time></trkpt><trkpt lat="43.518490367400254" lon="10.829410516317541"><ele>141.4</ele><time>2026-04-18T08:54:21.001Z</time></trkpt><trkpt lat="43.51836992783884" lon="10.829458055232998"><ele>143.0</ele><time>2026-04-18T08:54:22.001Z</time></trkpt><trkpt lat="43.5182504809106" lon="10.829505107236606"><ele>143.0</ele><time>2026-04-18T08:54:23.001Z</time></trkpt><trkpt lat="43.51813543779905" lon="10.829550424533775"><ele>143.0</ele><time>2026-04-18T08:54:24.001Z</time></trkpt><trkpt lat="43.518029902989284" lon="10.829590043461966"><ele>143.0</ele><time>2026-04-18T08:54:25.001Z</time></trkpt><trkpt lat="43.51793327268906" lon="10.829623586223438"><ele>143.0</ele><time>2026-04-18T08:54:26.001Z</time></trkpt><trkpt lat="43.51783364747002" lon="10.829657736816165"><ele>143.0</ele><time>2026-04-18T08:54:27.001Z</time></trkpt><trkpt lat="43.517739097248224" lon="10.829691823348593"><ele>145.83333333333331</ele><time>2026-04-18T08:54:28.001Z</time></trkpt><trkpt lat="43.517648282178" lon="10.829725536695735"><ele>148.66666666666666</ele><time>2026-04-18T08:54:29.001Z</time></trkpt><trkpt lat="43.51754814484968" lon="10.829764541034892"><ele>151.5</ele><time>2026-04-18T08:54:30.001Z</time></trkpt><trkpt lat="43.51745494231972" lon="10.829815523134494"><ele>154.33333333333334</ele><time>2026-04-18T08:54:31.001Z</time></trkpt><trkpt lat="43.51739429070032" lon="10.829869006499978"><ele>157.16666666666669</ele><time>2026-04-18T08:54:32.001Z</time></trkpt><trkpt lat="43.51734079646127" lon="10.829946153505762"><ele>160.0</ele><time>2026-04-18T08:54:34.001Z</time></trkpt><trkpt lat="43.517298637566704" lon="10.83002348185653"><ele>160.0</ele><time>2026-04-18T08:54:37.001Z</time></trkpt><trkpt lat="43.517266303826425" lon="10.830103396567196"><ele>160.0</ele><time>2026-04-18T08:54:42.001Z</time></trkpt><trkpt lat="43.51723626965302" lon="10.830186290868564"><ele>160.0</ele><time>2026-04-18T08:54:46.001Z</time></trkpt><trkpt lat="43.5172020429064" lon="10.83027260405193"><ele>160.0</ele><time>2026-04-18T08:54:48.001Z</time></trkpt><trkpt lat="43.51715518047387" lon="10.830378748078475"><ele>160.0</ele><time>2026-04-18T08:54:50Z</time></trkpt><trkpt lat="43.51709539609935" lon="10.830507070412846"><ele>160.0</ele><time>2026-04-18T08:54:54Z</time></trkpt><trkpt lat="43.51704805604541" lon="10.830595825695813"><ele>163.4</ele><time>2026-04-18T08:54:56Z</time></trkpt><trkpt lat="43.51698913597447" lon="10.830700878494975"><ele>166.8</ele><time>2026-04-18T08:54:58Z</time></trkpt><trkpt lat="43.516916641551454" lon="10.830845666771948"><ele>170.2</ele><time>2026-04-18T08:55:00Z</time></trkpt><trkpt lat="43.51687037616478" lon="10.830943993291212"><ele>173.6</ele><time>2026-04-18T08:55:01Z</time></trkpt><trkpt lat="43.5168243071486" lon="10.831041880777352"><ele>177.0</ele><time>2026-04-18T08:55:02Z</time></trkpt><trkpt lat="43.516776735382095" lon="10.831142909069555"><ele>177.0</ele><time>2026-04-18T08:55:03Z</time></trkpt><trkpt lat="43.51672816916397" lon="10.831241654765462"><ele>177.0</ele><time>2026-04-18T08:55:04Z</time></trkpt><trkpt lat="43.51668444803603" lon="10.831326311475449"><ele>177.0</ele><time>2026-04-18T08:55:05Z</time></trkpt><trkpt lat="43.516638645248044" lon="10.831412617151324"><ele>177.0</ele><time>2026-04-18T08:55:06Z</time></trkpt><trkpt lat="43.516587497188425" lon="10.831505662446332"><ele>177.0</ele><time>2026-04-18T08:55:07Z</time></trkpt><trkpt lat="43.51652737058091" lon="10.831610067081662"><ele>177.0</ele><time>2026-04-18T08:55:08Z</time></trkpt><trkpt lat="43.51646564025664" lon="10.83172700401443"><ele>176.2</ele><time>2026-04-18T08:55:09Z</time></trkpt><trkpt lat="43.51641172992711" lon="10.831812185020285"><ele>175.39999999999998</ele><time>2026-04-18T08:55:10Z</time></trkpt><trkpt lat="43.51633598902141" lon="10.831869853572389"><ele>174.60000000000002</ele><time>2026-04-18T08:55:12Z</time></trkpt><trkpt lat="43.516213628230744" lon="10.831890020064538"><ele>173.8</ele><time>2026-04-18T08:55:14.001Z</time></trkpt><trkpt lat="43.51612408083354" lon="10.831885164060017"><ele>173.0</ele><time>2026-04-18T08:55:15.001Z</time></trkpt><trkpt lat="43.51605438486271" lon="10.831867677565606"><ele>172.8</ele><time>2026-04-18T08:55:16.001Z</time></trkpt><trkpt lat="43.51596940453402" lon="10.831808607796386"><ele>172.60000000000002</ele><time>2026-04-18T08:55:18.001Z</time></trkpt><trkpt lat="43.51585896510188" lon="10.831696453664179"><ele>172.39999999999998</ele><time>2026-04-18T08:55:20.001Z</time></trkpt><trkpt lat="43.51579097586313" lon="10.831606629719383"><ele>172.2</ele><time>2026-04-18T08:55:21.001Z</time></trkpt><trkpt lat="43.515713262799856" lon="10.8315061799206"><ele>172.0</ele><time>2026-04-18T08:55:22.001Z</time></trkpt><trkpt lat="43.515630986451924" lon="10.83141461163605"><ele>175.25</ele><time>2026-04-18T08:55:23.001Z</time></trkpt><trkpt lat="43.51554229323358" lon="10.831332166268655"><ele>178.5</ele><time>2026-04-18T08:55:24.001Z</time></trkpt><trkpt lat="43.51544221273106" lon="10.831258998540264"><ele>181.75</ele><time>2026-04-18T08:55:25.001Z</time></trkpt><trkpt lat="43.515326028806676" lon="10.831184704701945"><ele>185.0</ele><time>2026-04-18T08:55:26.001Z</time></trkpt><trkpt lat="43.515212771084364" lon="10.831107471939047"><ele>185.0</ele><time>2026-04-18T08:55:27.001Z</time></trkpt><trkpt lat="43.5151189354116" lon="10.831044620616227"><ele>185.0</ele><time>2026-04-18T08:55:28.001Z</time></trkpt><trkpt lat="43.5150204096597" lon="10.831014460720958"><ele>185.0</ele><time>2026-04-18T08:55:29.001Z</time></trkpt><trkpt lat="43.51490979047593" lon="10.830977699667075"><ele>185.0</ele><time>2026-04-18T08:55:30.001Z</time></trkpt><trkpt lat="43.51478158168987" lon="10.830960239244474"><ele>185.0</ele><time>2026-04-18T08:55:31.001Z</time></trkpt><trkpt lat="43.51464616911111" lon="10.830953028829738"><ele>186.0</ele><time>2026-04-18T08:55:32.001Z</time></trkpt><trkpt lat="43.5145168393278" lon="10.830954751248493"><ele>187.0</ele><time>2026-04-18T08:55:33.001Z</time></trkpt><trkpt lat="43.51437340094652" lon="10.830976424594866"><ele>188.0</ele><time>2026-04-18T08:55:34.001Z</time></trkpt><trkpt lat="43.51423354253683" lon="10.831008040155554"><ele>189.0</ele><time>2026-04-18T08:55:35.001Z</time></trkpt><trkpt lat="43.51408772668282" lon="10.831004878162297"><ele>189.0</ele><time>2026-04-18T08:55:36.001Z</time></trkpt><trkpt lat="43.513949512879854" lon="10.831014438024338"><ele>189.0</ele><time>2026-04-18T08:55:37.001Z</time></trkpt><trkpt lat="43.513839383786745" lon="10.831015048418221"><ele>189.0</ele><time>2026-04-18T08:55:38.001Z</time></trkpt><trkpt lat="43.51375139998499" lon="10.831017619272082"><ele>189.0</ele><time>2026-04-18T08:55:39.001Z</time></trkpt><trkpt lat="43.51365467988944" lon="10.83106043258752"><ele>189.0</ele><time>2026-04-18T08:55:40.001Z</time></trkpt><trkpt lat="43.51356437427311" lon="10.831157326257845"><ele>192.0</ele><time>2026-04-18T08:55:41.001Z</time></trkpt><trkpt lat="43.51344442769057" lon="10.831196250421844"><ele>195.0</ele><time>2026-04-18T08:55:42.001Z</time></trkpt><trkpt lat="43.51333168595905" lon="10.831214092562098"><ele>198.0</ele><time>2026-04-18T08:55:43.001Z</time></trkpt><trkpt lat="43.51325221550827" lon="10.831250655523496"><ele>201.0</ele><time>2026-04-18T08:55:44.001Z</time></trkpt><trkpt lat="43.51318506713967" lon="10.831348181015256"><ele>204.0</ele><time>2026-04-18T08:55:45.001Z</time></trkpt><trkpt lat="43.51309803619815" lon="10.831465811438987"><ele>204.0</ele><time>2026-04-18T08:55:46.001Z</time></trkpt><trkpt lat="43.51300798305801" lon="10.831607254739945"><ele>204.0</ele><time>2026-04-18T08:55:47.001Z</time></trkpt><trkpt lat="43.51292150792447" lon="10.831759542737968"><ele>204.0</ele><time>2026-04-18T08:55:48.001Z</time></trkpt><trkpt lat="43.51282939778517" lon="10.831853207357671"><ele>204.0</ele><time>2026-04-18T08:55:49.001Z</time></trkpt><trkpt lat="43.51274706201708" lon="10.831914613793002"><ele>205.6</ele><time>2026-04-18T08:55:50.001Z</time></trkpt><trkpt lat="43.512642784913844" lon="10.831985303008489"><ele>207.2</ele><time>2026-04-18T08:55:51.001Z</time></trkpt><trkpt lat="43.51252352983122" lon="10.832053749603771"><ele>208.79999999999998</ele><time>2026-04-18T08:55:52.001Z</time></trkpt><trkpt lat="43.512412381400004" lon="10.832113966679776"><ele>210.39999999999998</ele><time>2026-04-18T08:55:53.001Z</time></trkpt><trkpt lat="43.512335325588985" lon="10.832155356646622"><ele>212.0</ele><time>2026-04-18T08:55:54.001Z</time></trkpt><trkpt lat="43.51226607507604" lon="10.832195677299456"><ele>212.0</ele><time>2026-04-18T08:55:55.001Z</time></trkpt><trkpt lat="43.512201109890874" lon="10.832256917078046"><ele>212.0</ele><time>2026-04-18T08:55:56.001Z</time></trkpt><trkpt lat="43.512141906041286" lon="10.832333814996801"><ele>212.0</ele><time>2026-04-18T08:55:57.001Z</time></trkpt><trkpt lat="43.51208835291427" lon="10.832424678294545"><ele>212.0</ele><time>2026-04-18T08:55:58.001Z</time></trkpt><trkpt lat="43.512037872300965" lon="10.832515940435394"><ele>212.0</ele><time>2026-04-18T08:55:59.001Z</time></trkpt><trkpt lat="43.5119892657056" lon="10.832691631690087"><ele>208.75</ele><time>2026-04-18T08:56:00.001Z</time></trkpt><trkpt lat="43.51191948131947" lon="10.832856120185642"><ele>205.5</ele><time>2026-04-18T08:56:01.001Z</time></trkpt><trkpt lat="43.5118574559989" lon="10.833014907074379"><ele>202.25</ele><time>2026-04-18T08:56:02.001Z</time></trkpt><trkpt lat="43.51179628586842" lon="10.833145614693658"><ele>199.0</ele><time>2026-04-18T08:56:03.001Z</time></trkpt><trkpt lat="43.51172880010719" lon="10.83326763866902"><ele>199.0</ele><time>2026-04-18T08:56:04.001Z</time></trkpt><trkpt lat="43.51165233118937" lon="10.833368659037303"><ele>199.0</ele><time>2026-04-18T08:56:05.001Z</time></trkpt><trkpt lat="43.51156265816588" lon="10.833461743542866"><ele>199.0</ele><time>2026-04-18T08:56:06.001Z</time></trkpt><trkpt lat="43.51146277415656" lon="10.83354850861107"><ele>199.0</ele><time>2026-04-18T08:56:07.001Z</time></trkpt><trkpt lat="43.51136543396569" lon="10.833651184201052"><ele>199.39999999999998</ele><time>2026-04-18T08:56:08.001Z</time></trkpt><trkpt lat="43.51123703886179" lon="10.833747629629118"><ele>199.8</ele><time>2026-04-18T08:56:09.001Z</time></trkpt><trkpt lat="43.51113657768209" lon="10.833822995486626"><ele>200.2</ele><time>2026-04-18T08:56:10.001Z</time></trkpt><trkpt lat="43.51107512659955" lon="10.833877403783582"><ele>200.60000000000002</ele><time>2026-04-18T08:56:11.001Z</time></trkpt><trkpt lat="43.51103855331426" lon="10.833954520648234"><ele>201.0</ele><time>2026-04-18T08:56:13.001Z</time></trkpt><trkpt lat="43.511046737482545" lon="10.8341028037493"><ele>201.0</ele><time>2026-04-18T08:56:15.001Z</time></trkpt><trkpt lat="43.51106312368049" lon="10.834200787161524"><ele>201.0</ele><time>2026-04-18T08:56:16.001Z</time></trkpt><trkpt lat="43.51107886173764" lon="10.834317926494098"><ele>201.0</ele><time>2026-04-18T08:56:17.001Z</time></trkpt><trkpt lat="43.511098118460914" lon="10.834437394775174"><ele>201.0</ele><time>2026-04-18T08:56:18.001Z</time></trkpt><trkpt lat="43.51109500069206" lon="10.834559044319438"><ele>201.0</ele><time>2026-04-18T08:56:19.001Z</time></trkpt><trkpt lat="43.51108596453825" lon="10.834675409665536"><ele>201.0</ele><time>2026-04-18T08:56:20.001Z</time></trkpt><trkpt lat="43.51106333201782" lon="10.834786164351046"><ele>200.60000000000002</ele><time>2026-04-18T08:56:21.001Z</time></trkpt><trkpt lat="43.51102867849566" lon="10.834919318598011"><ele>200.2</ele><time>2026-04-18T08:56:22.001Z</time></trkpt><trkpt lat="43.51098499088728" lon="10.83503900687738"><ele>199.8</ele><time>2026-04-18T08:56:23.001Z</time></trkpt><trkpt lat="43.51092904166494" lon="10.835189109711255"><ele>199.39999999999998</ele><time>2026-04-18T08:56:24.001Z</time></trkpt><trkpt lat="43.51089331216199" lon="10.835338560973897"><ele>199.0</ele><time>2026-04-18T08:56:25.001Z</time></trkpt><trkpt lat="43.51087751042717" lon="10.835491976442642"><ele>197.0</ele><time>2026-04-18T08:56:26.001Z</time></trkpt><trkpt lat="43.510853686951556" lon="10.83563089887539"><ele>195.0</ele><time>2026-04-18T08:56:27.001Z</time></trkpt><trkpt lat="43.51081567159501" lon="10.835782290649385"><ele>193.0</ele><time>2026-04-18T08:56:28.001Z</time></trkpt><trkpt lat="43.510819764484566" lon="10.835944891144916"><ele>191.0</ele><time>2026-04-18T08:56:29.001Z</time></trkpt><trkpt lat="43.51082839521628" lon="10.836117080531269"><ele>190.75</ele><time>2026-04-18T08:56:30.001Z</time></trkpt><trkpt lat="43.510818786721046" lon="10.836288844141029"><ele>190.5</ele><time>2026-04-18T08:56:31.001Z</time></trkpt><trkpt lat="43.51082228804752" lon="10.836479910858122"><ele>190.25</ele><time>2026-04-18T08:56:32.001Z</time></trkpt><trkpt lat="43.510822020366334" lon="10.836682323750127"><ele>190.0</ele><time>2026-04-18T08:56:33.001Z</time></trkpt><trkpt lat="43.510820167293325" lon="10.836896578109371"><ele>190.0</ele><time>2026-04-18T08:56:34.001Z</time></trkpt><trkpt lat="43.51081616347452" lon="10.837068389374487"><ele>190.0</ele><time>2026-04-18T08:56:35.001Z</time></trkpt><trkpt lat="43.51080452943293" lon="10.837201789669844"><ele>190.0</ele><time>2026-04-18T08:56:36.001Z</time></trkpt><trkpt lat="43.51078150558641" lon="10.837310981287853"><ele>190.0</ele><time>2026-04-18T08:56:37.001Z</time></trkpt><trkpt lat="43.51074486855921" lon="10.837443777157949"><ele>190.0</ele><time>2026-04-18T08:56:38.001Z</time></trkpt><trkpt lat="43.51071577009406" lon="10.837606499146583"><ele>190.2</ele><time>2026-04-18T08:56:39.001Z</time></trkpt><trkpt lat="43.51067753040477" lon="10.837759351293894"><ele>190.4</ele><time>2026-04-18T08:56:40.001Z</time></trkpt><trkpt lat="43.51065518052901" lon="10.837900439151294"><ele>190.60000000000002</ele><time>2026-04-18T08:56:41.001Z</time></trkpt><trkpt lat="43.51065255310146" lon="10.838035807443966"><ele>190.8</ele><time>2026-04-18T08:56:42.001Z</time></trkpt><trkpt lat="43.510659832477636" lon="10.838182407959799"><ele>191.0</ele><time>2026-04-18T08:56:43Z</time></trkpt><trkpt lat="43.510683636667906" lon="10.83833971620975"><ele>190.33333333333331</ele><time>2026-04-18T08:56:44Z</time></trkpt><trkpt lat="43.51071279039572" lon="10.838472186914414"><ele>189.66666666666666</ele><time>2026-04-18T08:56:45Z</time></trkpt><trkpt lat="43.51074246722255" lon="10.838588639746472"><ele>189.0</ele><time>2026-04-18T08:56:46Z</time></trkpt><trkpt lat="43.510768309978886" lon="10.838679892082334"><ele>188.33333333333334</ele><time>2026-04-18T08:56:47Z</time></trkpt><trkpt lat="43.510785595412834" lon="10.838771108790661"><ele>187.66666666666669</ele><time>2026-04-18T08:56:48Z</time></trkpt><trkpt lat="43.51079290953965" lon="10.83887113652103"><ele>187.0</ele><time>2026-04-18T08:56:49Z</time></trkpt><trkpt lat="43.51078327824599" lon="10.839013297183186"><ele>187.0</ele><time>2026-04-18T08:56:50Z</time></trkpt><trkpt lat="43.510763374440515" lon="10.839130305278616"><ele>187.0</ele><time>2026-04-18T08:56:51Z</time></trkpt><trkpt lat="43.51071106753611" lon="10.83923237117749"><ele>187.0</ele><time>2026-04-18T08:56:52Z</time></trkpt><trkpt lat="43.51067865276694" lon="10.83933560862632"><ele>187.0</ele><time>2026-04-18T08:56:53Z</time></trkpt><trkpt lat="43.5106482033147" lon="10.839435836882569"><ele>187.0</ele><time>2026-04-18T08:56:54Z</time></trkpt><trkpt lat="43.510624480821605" lon="10.83954176298707"><ele>187.0</ele><time>2026-04-18T08:56:55Z</time></trkpt><trkpt lat="43.510641212298424" lon="10.839658674741399"><ele>186.39999999999998</ele><time>2026-04-18T08:56:56Z</time></trkpt><trkpt lat="43.510607140400154" lon="10.839751964792205"><ele>185.79999999999998</ele><time>2026-04-18T08:56:57Z</time></trkpt><trkpt lat="43.51062018329471" lon="10.839900097170986"><ele>185.2</ele><time>2026-04-18T08:56:58Z</time></trkpt><trkpt lat="43.51064524188042" lon="10.840031634840525"><ele>184.6</ele><time>2026-04-18T08:56:59Z</time></trkpt><trkpt lat="43.510667240842494" lon="10.84018007906126"><ele>184.0</ele><time>2026-04-18T08:57:00Z</time></trkpt><trkpt lat="43.51069309134605" lon="10.84034484606816"><ele>183.79999999999998</ele><time>2026-04-18T08:57:01Z</time></trkpt><trkpt lat="43.51073540777617" lon="10.840491521005621"><ele>183.6</ele><time>2026-04-18T08:57:02Z</time></trkpt><trkpt lat="43.51073907071262" lon="10.84063254898764"><ele>183.4</ele><time>2026-04-18T08:57:03Z</time></trkpt><trkpt lat="43.51075378290021" lon="10.840760713767656"><ele>183.2</ele><time>2026-04-18T08:57:04Z</time></trkpt><trkpt lat="43.51078219223766" lon="10.84089512907668"><ele>183.0</ele><time>2026-04-18T08:57:05Z</time></trkpt><trkpt lat="43.51079323050465" lon="10.84104449674343"><ele>183.0</ele><time>2026-04-18T08:57:06Z</time></trkpt><trkpt lat="43.51080248039882" lon="10.841169070144066"><ele>183.0</ele><time>2026-04-18T08:57:07Z</time></trkpt><trkpt lat="43.510813622489785" lon="10.841281094643362"><ele>183.0</ele><time>2026-04-18T08:57:08Z</time></trkpt><trkpt lat="43.51081969616287" lon="10.841388132803859"><ele>183.0</ele><time>2026-04-18T08:57:09Z</time></trkpt><trkpt lat="43.51082783539753" lon="10.84148248113198"><ele>183.0</ele><time>2026-04-18T08:57:10Z</time></trkpt><trkpt lat="43.51082953769218" lon="10.841572520587867"><ele>183.0</ele><time>2026-04-18T08:57:11Z</time></trkpt><trkpt lat="43.51085193147937" lon="10.841729654668544"><ele>183.4</ele><time>2026-04-18T08:57:13Z</time></trkpt><trkpt lat="43.5108814392459" lon="10.841873779689674"><ele>183.8</ele><time>2026-04-18T08:57:15Z</time></trkpt><trkpt lat="43.510920746121634" lon="10.841998188461305"><ele>184.2</ele><time>2026-04-18T08:57:17Z</time></trkpt><trkpt lat="43.510963140919664" lon="10.842105093053899"><ele>184.6</ele><time>2026-04-18T08:57:19Z</time></trkpt><trkpt lat="43.510996725312275" lon="10.84220544781546"><ele>185.0</ele><time>2026-04-18T08:57:21Z</time></trkpt><trkpt lat="43.511039087424535" lon="10.84229194028684"><ele>185.0</ele><time>2026-04-18T08:57:23Z</time></trkpt><trkpt lat="43.51106407171353" lon="10.842382741106901"><ele>185.0</ele><time>2026-04-18T08:57:25Z</time></trkpt><trkpt lat="43.511075207322456" lon="10.842468649226094"><ele>185.0</ele><time>2026-04-18T08:57:27Z</time></trkpt><trkpt lat="43.51109278583529" lon="10.842584708775348"><ele>185.0</ele><time>2026-04-18T08:57:29Z</time></trkpt><trkpt lat="43.5110866475583" lon="10.842746264333025"><ele>185.0</ele><time>2026-04-18T08:57:31Z</time></trkpt><trkpt lat="43.51109875754737" lon="10.842901650637282"><ele>184.66666666666666</ele><time>2026-04-18T08:57:33.001Z</time></trkpt><trkpt lat="43.51108387395038" lon="10.842988256717334"><ele>184.33333333333331</ele><time>2026-04-18T08:57:34.001Z</time></trkpt><trkpt lat="43.51107735864273" lon="10.843080397408022"><ele>184.0</ele><time>2026-04-18T08:57:35.001Z</time></trkpt><trkpt lat="43.511075669249315" lon="10.843194628079877"><ele>183.66666666666666</ele><time>2026-04-18T08:57:36.001Z</time></trkpt><trkpt lat="43.51106145119594" lon="10.84331495819788"><ele>183.33333333333334</ele><time>2026-04-18T08:57:37.001Z</time></trkpt><trkpt lat="43.51103962026414" lon="10.843447284884967"><ele>183.0</ele><time>2026-04-18T08:57:38.001Z</time></trkpt><trkpt lat="43.51101650519203" lon="10.84358684534423"><ele>182.33333333333334</ele><time>2026-04-18T08:57:39.001Z</time></trkpt><trkpt lat="43.51099961847555" lon="10.843718704142752"><ele>181.66666666666666</ele><time>2026-04-18T08:57:40.001Z</time></trkpt><trkpt lat="43.51098152255396" lon="10.843821200387078"><ele>181.0</ele><time>2026-04-18T08:57:41.001Z</time></trkpt><trkpt lat="43.51097358185031" lon="10.84391146107594"><ele>180.33333333333331</ele><time>2026-04-18T08:57:42.001Z</time></trkpt><trkpt lat="43.510976525331365" lon="10.844011381785908"><ele>179.66666666666666</ele><time>2026-04-18T08:57:43.001Z</time></trkpt><trkpt lat="43.51098276994343" lon="10.844116661984916"><ele>179.0</ele><time>2026-04-18T08:57:44.001Z</time></trkpt><trkpt lat="43.51099786271672" lon="10.8442400785351"><ele>178.16666666666666</ele><time>2026-04-18T08:57:45.001Z</time></trkpt><trkpt lat="43.51101841810188" lon="10.844361132825842"><ele>177.33333333333331</ele><time>2026-04-18T08:57:46.001Z</time></trkpt><trkpt lat="43.511033348881725" lon="10.844457713423486"><ele>176.5</ele><time>2026-04-18T08:57:47.001Z</time></trkpt><trkpt lat="43.51104442947981" lon="10.844553660162536"><ele>175.66666666666666</ele><time>2026-04-18T08:57:48.001Z</time></trkpt><trkpt lat="43.5110549828182" lon="10.844645603707304"><ele>174.83333333333334</ele><time>2026-04-18T08:57:49.001Z</time></trkpt><trkpt lat="43.51108003826437" lon="10.844731138756396"><ele>174.0</ele><time>2026-04-18T08:57:50.001Z</time></trkpt><trkpt lat="43.51114074696165" lon="10.844872713483202"><ele>174.0</ele><time>2026-04-18T08:57:52.001Z</time></trkpt><trkpt lat="43.51119707234955" lon="10.845010633503158"><ele>174.0</ele><time>2026-04-18T08:57:54.001Z</time></trkpt><trkpt lat="43.51127039450426" lon="10.84513534930359"><ele>174.0</ele><time>2026-04-18T08:57:56.001Z</time></trkpt><trkpt lat="43.511309744940554" lon="10.845213699608708"><ele>174.0</ele><time>2026-04-18T08:58:38.001Z</time></trkpt><trkpt lat="43.51136140075293" lon="10.84531466227784"><ele>174.0</ele><time>2026-04-18T08:58:40.001Z</time></trkpt><trkpt lat="43.51144393446422" lon="10.845471319469228"><ele>174.6</ele><time>2026-04-18T08:58:42.001Z</time></trkpt><trkpt lat="43.5114940335376" lon="10.845558570299117"><ele>175.2</ele><time>2026-04-18T08:58:43.001Z</time></trkpt><trkpt lat="43.51154016041467" lon="10.845638602792135"><ele>175.79999999999998</ele><time>2026-04-18T08:58:44.001Z</time></trkpt><trkpt lat="43.51158242284088" lon="10.845717398404792"><ele>176.39999999999998</ele><time>2026-04-18T08:58:45.001Z</time></trkpt><trkpt lat="43.51166922609355" lon="10.845911707603165"><ele>177.0</ele><time>2026-04-18T08:58:46.001Z</time></trkpt><trkpt lat="43.51169781535034" lon="10.84602495835166"><ele>177.39999999999998</ele><time>2026-04-18T08:58:47.001Z</time></trkpt><trkpt lat="43.511712725222345" lon="10.846145072943921"><ele>177.79999999999998</ele><time>2026-04-18T08:58:48.001Z</time></trkpt><trkpt lat="43.51171913551467" lon="10.846269078864925"><ele>178.2</ele><time>2026-04-18T08:58:49Z</time></trkpt><trkpt lat="43.511725802446804" lon="10.84642019299864"><ele>178.6</ele><time>2026-04-18T08:58:50Z</time></trkpt><trkpt lat="43.51170479309137" lon="10.846587006019696"><ele>179.0</ele><time>2026-04-18T08:58:51Z</time></trkpt><trkpt lat="43.511677949618566" lon="10.846726634611016"><ele>179.0</ele><time>2026-04-18T08:58:52Z</time></trkpt><trkpt lat="43.51165468143189" lon="10.846837868908173"><ele>179.0</ele><time>2026-04-18T08:58:53Z</time></trkpt><trkpt lat="43.511631510408414" lon="10.846968967712733"><ele>179.0</ele><time>2026-04-18T08:58:54Z</time></trkpt><trkpt lat="43.511611205374564" lon="10.84708684457853"><ele>179.0</ele><time>2026-04-18T08:58:55Z</time></trkpt><trkpt lat="43.51159696571977" lon="10.847188014372529"><ele>179.0</ele><time>2026-04-18T08:58:56Z</time></trkpt><trkpt lat="43.51161833788931" lon="10.847325960841827"><ele>179.0</ele><time>2026-04-18T08:58:58Z</time></trkpt><trkpt lat="43.511616854410526" lon="10.847416122588719"><ele>179.0</ele><time>2026-04-18T08:58:59Z</time></trkpt><trkpt lat="43.51164027923128" lon="10.847559828127395"><ele>179.0</ele><time>2026-04-18T08:59:01Z</time></trkpt><trkpt lat="43.51166086611201" lon="10.847710675750191"><ele>179.0</ele><time>2026-04-18T08:59:03Z</time></trkpt><trkpt lat="43.51167651714074" lon="10.847832077820984"><ele>179.0</ele><time>2026-04-18T08:59:04Z</time></trkpt><trkpt lat="43.51168762424217" lon="10.847932327711577"><ele>179.0</ele><time>2026-04-18T08:59:05Z</time></trkpt><trkpt lat="43.51170366284862" lon="10.848077087388704"><ele>179.0</ele><time>2026-04-18T08:59:07Z</time></trkpt><trkpt lat="43.51174193299842" lon="10.848240379003034"><ele>179.0</ele><time>2026-04-18T08:59:09Z</time></trkpt><trkpt lat="43.5117517270005" lon="10.848332851256348"><ele>179.0</ele><time>2026-04-18T08:59:10Z</time></trkpt><trkpt lat="43.51179875958499" lon="10.848479176692244"><ele>179.0</ele><time>2026-04-18T08:59:12Z</time></trkpt><trkpt lat="43.51183110766809" lon="10.848566650938277"><ele>179.0</ele><time>2026-04-18T08:59:13Z</time></trkpt><trkpt lat="43.51186756063635" lon="10.84867303208434"><ele>177.6</ele><time>2026-04-18T08:59:14Z</time></trkpt><trkpt lat="43.511889979191366" lon="10.848800841951784"><ele>176.2</ele><time>2026-04-18T08:59:15Z</time></trkpt><trkpt lat="43.51192069052034" lon="10.848918538215253"><ele>174.79999999999998</ele><time>2026-04-18T08:59:16Z</time></trkpt><trkpt lat="43.51195185720333" lon="10.849029000332338"><ele>173.39999999999998</ele><time>2026-04-18T08:59:17Z</time></trkpt><trkpt lat="43.512006044578435" lon="10.8491306901332"><ele>172.0</ele><time>2026-04-18T08:59:18Z</time></trkpt><trkpt lat="43.512065940560674" lon="10.849234987733313"><ele>172.2</ele><time>2026-04-18T08:59:19Z</time></trkpt><trkpt lat="43.512123868850566" lon="10.849314134288587"><ele>172.39999999999998</ele><time>2026-04-18T08:59:20Z</time></trkpt><trkpt lat="43.51216848196493" lon="10.849382802301388"><ele>172.60000000000002</ele><time>2026-04-18T08:59:21Z</time></trkpt><trkpt lat="43.51223345963938" lon="10.849478803840578"><ele>172.8</ele><time>2026-04-18T08:59:23Z</time></trkpt><trkpt lat="43.51229057539106" lon="10.849568983468417"><ele>173.0</ele><time>2026-04-18T08:59:26Z</time></trkpt><trkpt lat="43.512757690833226" lon="10.85020749866185"><ele>172.4</ele><time>2026-04-18T08:59:35Z</time></trkpt><trkpt lat="43.5128375650374" lon="10.850295847166674"><ele>171.8</ele><time>2026-04-18T08:59:36Z</time></trkpt><trkpt lat="43.51292530002056" lon="10.850395963639919"><ele>171.2</ele><time>2026-04-18T08:59:37.001Z</time></trkpt><trkpt lat="43.513000290243895" lon="10.850479786162202"><ele>170.6</ele><time>2026-04-18T08:59:38.001Z</time></trkpt><trkpt lat="43.51305374045919" lon="10.850550760758612"><ele>170.0</ele><time>2026-04-18T08:59:39.001Z</time></trkpt><trkpt lat="43.513103341104966" lon="10.850624240788727"><ele>170.0</ele><time>2026-04-18T08:59:40.001Z</time></trkpt><trkpt lat="43.513152438828776" lon="10.850718232901878"><ele>170.0</ele><time>2026-04-18T08:59:41.001Z</time></trkpt><trkpt lat="43.51319885589218" lon="10.8508552055186"><ele>170.0</ele><time>2026-04-18T08:59:43.001Z</time></trkpt><trkpt lat="43.513170099238195" lon="10.851025992039586"><ele>170.0</ele><time>2026-04-18T08:59:45.001Z</time></trkpt><trkpt lat="43.51312614013608" lon="10.851111121743237"><ele>170.0</ele><time>2026-04-18T08:59:46.001Z</time></trkpt><trkpt lat="43.513075467603734" lon="10.851222755159315"><ele>170.4</ele><time>2026-04-18T08:59:47.001Z</time></trkpt><trkpt lat="43.51303227741288" lon="10.851357015085584"><ele>170.8</ele><time>2026-04-18T08:59:48.001Z</time></trkpt><trkpt lat="43.513005238255815" lon="10.85150834126284"><ele>171.2</ele><time>2026-04-18T08:59:49.001Z</time></trkpt><trkpt lat="43.512988192682435" lon="10.85166992411516"><ele>171.6</ele><time>2026-04-18T08:59:50.001Z</time></trkpt><trkpt lat="43.5129839206735" lon="10.851807537734807"><ele>172.0</ele><time>2026-04-18T08:59:51.001Z</time></trkpt><trkpt lat="43.51294787125495" lon="10.851929896652392"><ele>172.0</ele><time>2026-04-18T08:59:52.001Z</time></trkpt><trkpt lat="43.51291158957605" lon="10.852069751850012"><ele>172.0</ele><time>2026-04-18T08:59:53.001Z</time></trkpt><trkpt lat="43.512868576988005" lon="10.852206148284019"><ele>172.0</ele><time>2026-04-18T08:59:54.001Z</time></trkpt><trkpt lat="43.512825117467116" lon="10.852328007228781"><ele>172.0</ele><time>2026-04-18T08:59:55.001Z</time></trkpt><trkpt lat="43.51277349342735" lon="10.852460219766494"><ele>172.0</ele><time>2026-04-18T08:59:56.001Z</time></trkpt><trkpt lat="43.51271146073471" lon="10.852577143059342"><ele>172.5</ele><time>2026-04-18T08:59:57.001Z</time></trkpt><trkpt lat="43.512656848778505" lon="10.85265955404525"><ele>173.0</ele><time>2026-04-18T08:59:58.001Z</time></trkpt><trkpt lat="43.51259422721799" lon="10.852709080979754"><ele>173.5</ele><time>2026-04-18T08:59:59.001Z</time></trkpt><trkpt lat="43.512518649338034" lon="10.85274505079426"><ele>174.0</ele><time>2026-04-18T09:00:00.001Z</time></trkpt><trkpt lat="43.512437281136215" lon="10.852808639929233"><ele>174.5</ele><time>2026-04-18T09:00:01.001Z</time></trkpt><trkpt lat="43.51239633707601" lon="10.852907772493749"><ele>175.0</ele><time>2026-04-18T09:00:02.001Z</time></trkpt><trkpt lat="43.51235767864985" lon="10.85297907590391"><ele>175.0</ele><time>2026-04-18T09:00:03.001Z</time></trkpt><trkpt lat="43.51232682188752" lon="10.853158485622256"><ele>175.0</ele><time>2026-04-18T09:00:05.001Z</time></trkpt><trkpt lat="43.512314958899054" lon="10.853278952249159"><ele>175.0</ele><time>2026-04-18T09:00:06.001Z</time></trkpt><trkpt lat="43.51231468277932" lon="10.853416066285561"><ele>175.0</ele><time>2026-04-18T09:00:07.001Z</time></trkpt><trkpt lat="43.51230380440334" lon="10.853552655444158"><ele>175.0</ele><time>2026-04-18T09:00:08.001Z</time></trkpt><trkpt lat="43.512300230149435" lon="10.853666039942022"><ele>175.0</ele><time>2026-04-18T09:00:09.001Z</time></trkpt><trkpt lat="43.512295748086444" lon="10.85376081837995"><ele>175.0</ele><time>2026-04-18T09:00:10.001Z</time></trkpt><trkpt lat="43.512289691129126" lon="10.853865472940832"><ele>175.0</ele><time>2026-04-18T09:00:11.001Z</time></trkpt><trkpt lat="43.512282778240554" lon="10.853965117025483"><ele>175.0</ele><time>2026-04-18T09:00:12.001Z</time></trkpt><trkpt lat="43.5122746993" lon="10.854079054030803"><ele>175.0</ele><time>2026-04-18T09:00:13.001Z</time></trkpt><trkpt lat="43.512265983864516" lon="10.854201967160776"><ele>175.0</ele><time>2026-04-18T09:00:14.001Z</time></trkpt><trkpt lat="43.51225953588005" lon="10.854296578378502"><ele>175.2</ele><time>2026-04-18T09:00:15.001Z</time></trkpt><trkpt lat="43.51225332469525" lon="10.854394170371116"><ele>175.4</ele><time>2026-04-18T09:00:16.001Z</time></trkpt><trkpt lat="43.512245011672555" lon="10.85452815181011"><ele>175.60000000000002</ele><time>2026-04-18T09:00:17.001Z</time></trkpt><trkpt lat="43.51223702695979" lon="10.854669732867094"><ele>175.8</ele><time>2026-04-18T09:00:18.001Z</time></trkpt><trkpt lat="43.5122320343968" lon="10.85481055233126"><ele>176.0</ele><time>2026-04-18T09:00:19.001Z</time></trkpt><trkpt lat="43.51222598336534" lon="10.854952267691898"><ele>176.0</ele><time>2026-04-18T09:00:20.001Z</time></trkpt><trkpt lat="43.51221637990517" lon="10.855101898220516"><ele>176.0</ele><time>2026-04-18T09:00:21.001Z</time></trkpt><trkpt lat="43.51220401560323" lon="10.855251991186181"><ele>176.0</ele><time>2026-04-18T09:00:22.001Z</time></trkpt><trkpt lat="43.51218880294414" lon="10.855395349616414"><ele>176.0</ele><time>2026-04-18T09:00:23.001Z</time></trkpt><trkpt lat="43.51217381526919" lon="10.855545969322025"><ele>176.0</ele><time>2026-04-18T09:00:24.001Z</time></trkpt><trkpt lat="43.51216295019775" lon="10.855692747191828"><ele>176.25</ele><time>2026-04-18T09:00:25.001Z</time></trkpt><trkpt lat="43.51215190984127" lon="10.855841893187554"><ele>176.5</ele><time>2026-04-18T09:00:26.001Z</time></trkpt><trkpt lat="43.51213844099934" lon="10.856011597709466"><ele>176.75</ele><time>2026-04-18T09:00:27.001Z</time></trkpt><trkpt lat="43.512120337397185" lon="10.856197973875702"><ele>177.0</ele><time>2026-04-18T09:00:28.001Z</time></trkpt><trkpt lat="43.512099282105396" lon="10.856360962604871"><ele>177.39999999999998</ele><time>2026-04-18T09:00:29.001Z</time></trkpt><trkpt lat="43.51208862012143" lon="10.856486641691978"><ele>177.79999999999998</ele><time>2026-04-18T09:00:30.001Z</time></trkpt><trkpt lat="43.51206563604551" lon="10.856605221642093"><ele>178.2</ele><time>2026-04-18T09:00:31.001Z</time></trkpt><trkpt lat="43.51205125874382" lon="10.856729052772032"><ele>178.6</ele><time>2026-04-18T09:00:32.001Z</time></trkpt><trkpt lat="43.51203402877195" lon="10.856878967676717"><ele>179.0</ele><time>2026-04-18T09:00:33.001Z</time></trkpt><trkpt lat="43.512020809912194" lon="10.85704343275021"><ele>179.39999999999998</ele><time>2026-04-18T09:00:34.001Z</time></trkpt><trkpt lat="43.512018524355" lon="10.857191490487635"><ele>179.8</ele><time>2026-04-18T09:00:35.001Z</time></trkpt><trkpt lat="43.51203051635144" lon="10.857332718066495"><ele>180.2</ele><time>2026-04-18T09:00:36.001Z</time></trkpt><trkpt lat="43.51205410686391" lon="10.85746898520308"><ele>180.60000000000002</ele><time>2026-04-18T09:00:37.001Z</time></trkpt><trkpt lat="43.512092069675504" lon="10.857608444341043"><ele>181.0</ele><time>2026-04-18T09:00:38.001Z</time></trkpt><trkpt lat="43.51213279163357" lon="10.857746392322639"><ele>181.33333333333334</ele><time>2026-04-18T09:00:39.001Z</time></trkpt><trkpt lat="43.512168985054856" lon="10.857868273645122"><ele>181.66666666666669</ele><time>2026-04-18T09:00:40.001Z</time></trkpt><trkpt lat="43.51220285026695" lon="10.857967047362822"><ele>182.0</ele><time>2026-04-18T09:00:41.001Z</time></trkpt><trkpt lat="43.51223167920646" lon="10.858056589282258"><ele>182.33333333333334</ele><time>2026-04-18T09:00:42.001Z</time></trkpt><trkpt lat="43.51226707380973" lon="10.858172077926756"><ele>182.66666666666666</ele><time>2026-04-18T09:00:43.001Z</time></trkpt><trkpt lat="43.512298274654206" lon="10.858288621207226"><ele>183.0</ele><time>2026-04-18T09:00:44.001Z</time></trkpt><trkpt lat="43.51233661120889" lon="10.858384979475703"><ele>182.5</ele><time>2026-04-18T09:00:45.001Z</time></trkpt><trkpt lat="43.51235208891804" lon="10.8584803645937"><ele>182.0</ele><time>2026-04-18T09:00:46.001Z</time></trkpt><trkpt lat="43.512383995690946" lon="10.858576994989948"><ele>181.5</ele><time>2026-04-18T09:00:47.001Z</time></trkpt><trkpt lat="43.51241777694395" lon="10.85866030538811"><ele>181.0</ele><time>2026-04-18T09:00:48.001Z</time></trkpt><trkpt lat="43.512469155924556" lon="10.858743066354608"><ele>180.5</ele><time>2026-04-18T09:00:49.001Z</time></trkpt><trkpt lat="43.512518564355965" lon="10.85885363708338"><ele>180.0</ele><time>2026-04-18T09:00:50.001Z</time></trkpt><trkpt lat="43.51260036831008" lon="10.858962629357377"><ele>180.0</ele><time>2026-04-18T09:00:51.001Z</time></trkpt><trkpt lat="43.51267778656077" lon="10.859063129856596"><ele>180.0</ele><time>2026-04-18T09:00:52.001Z</time></trkpt><trkpt lat="43.512752024836054" lon="10.859183211766712"><ele>180.0</ele><time>2026-04-18T09:00:53.001Z</time></trkpt><trkpt lat="43.51282089157111" lon="10.85929177356931"><ele>180.0</ele><time>2026-04-18T09:00:54.001Z</time></trkpt><trkpt lat="43.51287334391969" lon="10.859381439106297"><ele>180.0</ele><time>2026-04-18T09:00:55Z</time></trkpt><trkpt lat="43.51293885505009" lon="10.859461223929118"><ele>181.0</ele><time>2026-04-18T09:00:56Z</time></trkpt><trkpt lat="43.51301901493106" lon="10.859553743427517"><ele>182.0</ele><time>2026-04-18T09:00:57Z</time></trkpt><trkpt lat="43.51310583626223" lon="10.85964088247274"><ele>183.0</ele><time>2026-04-18T09:00:58Z</time></trkpt><trkpt lat="43.51319845944633" lon="10.859734344720502"><ele>184.0</ele><time>2026-04-18T09:00:59Z</time></trkpt><trkpt lat="43.513262706495894" lon="10.859841460225045"><ele>185.0</ele><time>2026-04-18T09:01:00Z</time></trkpt><trkpt lat="43.51332300291234" lon="10.859930629897681"><ele>185.0</ele><time>2026-04-18T09:01:01Z</time></trkpt><trkpt lat="43.5133909858635" lon="10.860012894252854"><ele>185.0</ele><time>2026-04-18T09:01:02Z</time></trkpt><trkpt lat="43.513458075918805" lon="10.860122594177522"><ele>185.0</ele><time>2026-04-18T09:01:03Z</time></trkpt><trkpt lat="43.51352691247491" lon="10.860219225270628"><ele>185.0</ele><time>2026-04-18T09:01:04Z</time></trkpt><trkpt lat="43.51358108012906" lon="10.860304120834046"><ele>185.0</ele><time>2026-04-18T09:01:05Z</time></trkpt><trkpt lat="43.51364316018489" lon="10.860386081149636"><ele>184.66666666666666</ele><time>2026-04-18T09:01:06Z</time></trkpt><trkpt lat="43.51371457156678" lon="10.86046603490321"><ele>184.33333333333331</ele><time>2026-04-18T09:01:07Z</time></trkpt><trkpt lat="43.51379175405636" lon="10.860531889731972"><ele>184.0</ele><time>2026-04-18T09:01:08Z</time></trkpt><trkpt lat="43.51388346885396" lon="10.860583904433708"><ele>183.66666666666666</ele><time>2026-04-18T09:01:09Z</time></trkpt><trkpt lat="43.51396890120245" lon="10.860603970199618"><ele>183.33333333333334</ele><time>2026-04-18T09:01:10Z</time></trkpt><trkpt lat="43.514040743283815" lon="10.860625001980601"><ele>183.0</ele><time>2026-04-18T09:01:11Z</time></trkpt><trkpt lat="43.514148692002074" lon="10.860701213726381"><ele>184.83333333333334</ele><time>2026-04-18T09:01:13Z</time></trkpt><trkpt lat="43.51420539958894" lon="10.860772538547927"><ele>186.66666666666669</ele><time>2026-04-18T09:01:14Z</time></trkpt><trkpt lat="43.514253124743085" lon="10.860853285270558"><ele>188.5</ele><time>2026-04-18T09:01:15Z</time></trkpt><trkpt lat="43.514294829044374" lon="10.860946676814526"><ele>190.33333333333334</ele><time>2026-04-18T09:01:16Z</time></trkpt><trkpt lat="43.514325899963644" lon="10.861048577460666"><ele>192.16666666666669</ele><time>2026-04-18T09:01:17Z</time></trkpt><trkpt lat="43.51434652213636" lon="10.861143089794613"><ele>194.0</ele><time>2026-04-18T09:01:18Z</time></trkpt><trkpt lat="43.51436696214773" lon="10.861250422828537"><ele>195.6</ele><time>2026-04-18T09:01:19Z</time></trkpt><trkpt lat="43.51438885757663" lon="10.861366821716512"><ele>197.2</ele><time>2026-04-18T09:01:20Z</time></trkpt><trkpt lat="43.514406935093795" lon="10.861479329207432"><ele>198.79999999999998</ele><time>2026-04-18T09:01:21Z</time></trkpt><trkpt lat="43.51442165232172" lon="10.861587159249618"><ele>200.39999999999998</ele><time>2026-04-18T09:01:22Z</time></trkpt><trkpt lat="43.51436340640553" lon="10.861739963895124"><ele>202.0</ele><time>2026-04-18T09:01:24Z</time></trkpt><trkpt lat="43.51429544599741" lon="10.861792538684488"><ele>202.49999999999997</ele><time>2026-04-18T09:01:25Z</time></trkpt><trkpt lat="43.5142376472951" lon="10.861832178019272"><ele>203.0</ele><time>2026-04-18T09:01:26Z</time></trkpt><trkpt lat="43.51416187277415" lon="10.861876261284111"><ele>203.5</ele><time>2026-04-18T09:01:27Z</time></trkpt><trkpt lat="43.51408366105042" lon="10.861942761841041"><ele>204.0</ele><time>2026-04-18T09:01:28Z</time></trkpt><trkpt lat="43.51402205420278" lon="10.862007654872606"><ele>204.49999999999997</ele><time>2026-04-18T09:01:29Z</time></trkpt><trkpt lat="43.513969415975296" lon="10.862096555210728"><ele>205.0</ele><time>2026-04-18T09:01:30Z</time></trkpt><trkpt lat="43.513917512626655" lon="10.862199469879524"><ele>205.0</ele><time>2026-04-18T09:01:31Z</time></trkpt><trkpt lat="43.51387349899852" lon="10.862315669260258"><ele>205.0</ele><time>2026-04-18T09:01:32Z</time></trkpt><trkpt lat="43.51387177294092" lon="10.862455314409036"><ele>205.0</ele><time>2026-04-18T09:01:33Z</time></trkpt><trkpt lat="43.51386379433898" lon="10.862570660760733"><ele>205.0</ele><time>2026-04-18T09:01:34Z</time></trkpt><trkpt lat="43.513854858896" lon="10.862704498049643"><ele>205.0</ele><time>2026-04-18T09:01:35Z</time></trkpt><trkpt lat="43.51386220418369" lon="10.862860746129526"><ele>206.0</ele><time>2026-04-18T09:01:36Z</time></trkpt><trkpt lat="43.51389637465403" lon="10.863014690216698"><ele>207.0</ele><time>2026-04-18T09:01:37Z</time></trkpt><trkpt lat="43.51393653697738" lon="10.863128076014792"><ele>208.0</ele><time>2026-04-18T09:01:38.001Z</time></trkpt><trkpt lat="43.513988139545695" lon="10.863245955343213"><ele>209.0</ele><time>2026-04-18T09:01:39.001Z</time></trkpt><trkpt lat="43.51405360782852" lon="10.863343972709925"><ele>210.0</ele><time>2026-04-18T09:01:40.001Z</time></trkpt><trkpt lat="43.5141353974593" lon="10.863438798543934"><ele>211.2</ele><time>2026-04-18T09:01:41.001Z</time></trkpt><trkpt lat="43.514177787082936" lon="10.863577954268552"><ele>212.4</ele><time>2026-04-18T09:01:42.001Z</time></trkpt><trkpt lat="43.514209802524206" lon="10.863697640220604"><ele>213.60000000000002</ele><time>2026-04-18T09:01:43.001Z</time></trkpt><trkpt lat="43.514212495277334" lon="10.863823834262345"><ele>214.8</ele><time>2026-04-18T09:01:44.001Z</time></trkpt><trkpt lat="43.5142285004576" lon="10.86396374349394"><ele>216.0</ele><time>2026-04-18T09:01:45.001Z</time></trkpt><trkpt lat="43.514246410871124" lon="10.864120305784109"><ele>216.0</ele><time>2026-04-18T09:01:46.001Z</time></trkpt><trkpt lat="43.51426373441298" lon="10.864278801333082"><ele>216.0</ele><time>2026-04-18T09:01:47.001Z</time></trkpt><trkpt lat="43.51428494121912" lon="10.864427728558915"><ele>216.0</ele><time>2026-04-18T09:01:48.001Z</time></trkpt><trkpt lat="43.51429702865849" lon="10.864581586864405"><ele>216.0</ele><time>2026-04-18T09:01:49.001Z</time></trkpt><trkpt lat="43.514308536475546" lon="10.864739169919204"><ele>218.25</ele><time>2026-04-18T09:01:50.001Z</time></trkpt><trkpt lat="43.51431720560207" lon="10.864903255354399"><ele>220.5</ele><time>2026-04-18T09:01:51.001Z</time></trkpt><trkpt lat="43.51432324807428" lon="10.865060870167529"><ele>222.75</ele><time>2026-04-18T09:01:52.001Z</time></trkpt><trkpt lat="43.514341884860364" lon="10.865223634919154"><ele>225.0</ele><time>2026-04-18T09:01:53.001Z</time></trkpt><trkpt lat="43.51437002017997" lon="10.865374146546902"><ele>227.0</ele><time>2026-04-18T09:01:54.001Z</time></trkpt><trkpt lat="43.51438512338747" lon="10.865530741414654"><ele>229.0</ele><time>2026-04-18T09:01:55.001Z</time></trkpt><trkpt lat="43.51440059192606" lon="10.865677729913724"><ele>231.0</ele><time>2026-04-18T09:01:56.001Z</time></trkpt><trkpt lat="43.5144111602553" lon="10.865823140366878"><ele>233.0</ele><time>2026-04-18T09:01:57.001Z</time></trkpt><trkpt lat="43.51443202734555" lon="10.865961256697826"><ele>235.0</ele><time>2026-04-18T09:01:58.001Z</time></trkpt><trkpt lat="43.514455319449404" lon="10.86609727795596"><ele>236.5</ele><time>2026-04-18T09:01:59.001Z</time></trkpt><trkpt lat="43.51448287158328" lon="10.866242739220285"><ele>238.0</ele><time>2026-04-18T09:02:00.001Z</time></trkpt><trkpt lat="43.51451688048477" lon="10.86639645688928"><ele>239.5</ele><time>2026-04-18T09:02:01.001Z</time></trkpt><trkpt lat="43.51455041056794" lon="10.866564156275821"><ele>241.0</ele><time>2026-04-18T09:02:02.001Z</time></trkpt><trkpt lat="43.514577488477734" lon="10.866722444469556"><ele>241.25</ele><time>2026-04-18T09:02:03.001Z</time></trkpt><trkpt lat="43.51458042443088" lon="10.86687717231738"><ele>241.5</ele><time>2026-04-18T09:02:04.001Z</time></trkpt><trkpt lat="43.5145775120848" lon="10.86701787133506"><ele>241.75</ele><time>2026-04-18T09:02:05.001Z</time></trkpt><trkpt lat="43.51456899656863" lon="10.86716847461712"><ele>242.0</ele><time>2026-04-18T09:02:06.001Z</time></trkpt><trkpt lat="43.51459036941417" lon="10.867348297932484"><ele>241.75</ele><time>2026-04-18T09:02:07.001Z</time></trkpt><trkpt lat="43.51464866566871" lon="10.86752311707203"><ele>241.5</ele><time>2026-04-18T09:02:08.001Z</time></trkpt><trkpt lat="43.514722234170634" lon="10.86767913684979"><ele>241.25</ele><time>2026-04-18T09:02:09.001Z</time></trkpt><trkpt lat="43.51479689853057" lon="10.86782395867521"><ele>241.0</ele><time>2026-04-18T09:02:10.001Z</time></trkpt><trkpt lat="43.51485595550458" lon="10.867956825923859"><ele>241.0</ele><time>2026-04-18T09:02:11.001Z</time></trkpt><trkpt lat="43.51492471577705" lon="10.86808104346884"><ele>241.0</ele><time>2026-04-18T09:02:12.001Z</time></trkpt><trkpt lat="43.51499914993842" lon="10.868200076060004"><ele>241.0</ele><time>2026-04-18T09:02:13.001Z</time></trkpt><trkpt lat="43.51507008837433" lon="10.868321533445064"><ele>241.0</ele><time>2026-04-18T09:02:14.001Z</time></trkpt><trkpt lat="43.515144430899284" lon="10.868459016709954"><ele>240.0</ele><time>2026-04-18T09:02:15.001Z</time></trkpt><trkpt lat="43.515223921017046" lon="10.868610013235806"><ele>239.0</ele><time>2026-04-18T09:02:16.001Z</time></trkpt><trkpt lat="43.515313136620584" lon="10.868762900432333"><ele>238.0</ele><time>2026-04-18T09:02:17.001Z</time></trkpt><trkpt lat="43.515414172436316" lon="10.868910590482043"><ele>237.0</ele><time>2026-04-18T09:02:18.001Z</time></trkpt><trkpt lat="43.51551198149492" lon="10.869063394683417"><ele>239.5</ele><time>2026-04-18T09:02:19.001Z</time></trkpt><trkpt lat="43.51561738936818" lon="10.86919080979667"><ele>242.0</ele><time>2026-04-18T09:02:20.001Z</time></trkpt><trkpt lat="43.515716578383746" lon="10.869319970056564"><ele>244.5</ele><time>2026-04-18T09:02:21.001Z</time></trkpt><trkpt lat="43.515818499001114" lon="10.86944970854728"><ele>247.0</ele><time>2026-04-18T09:02:22.001Z</time></trkpt><trkpt lat="43.51590616716773" lon="10.86959120567346"><ele>248.75</ele><time>2026-04-18T09:02:23.001Z</time></trkpt><trkpt lat="43.51599617511911" lon="10.869722289070056"><ele>250.5</ele><time>2026-04-18T09:02:24.001Z</time></trkpt><trkpt lat="43.51608722176115" lon="10.86984946411142"><ele>252.25</ele><time>2026-04-18T09:02:25.001Z</time></trkpt><trkpt lat="43.51617028402157" lon="10.86996491124195"><ele>254.0</ele><time>2026-04-18T09:02:26.001Z</time></trkpt><trkpt lat="43.51623112625591" lon="10.8700650056041"><ele>259.4</ele><time>2026-04-18T09:02:27.001Z</time></trkpt><trkpt lat="43.51627949413151" lon="10.870162264862454"><ele>264.79999999999995</ele><time>2026-04-18T09:02:28.001Z</time></trkpt><trkpt lat="43.5163042576601" lon="10.870245176454285"><ele>270.20000000000005</ele><time>2026-04-18T09:02:29.001Z</time></trkpt><trkpt lat="43.51629507678231" lon="10.870434865680638"><ele>275.6</ele><time>2026-04-18T09:02:31.001Z</time></trkpt><trkpt lat="43.51627719466026" lon="10.87056767795152"><ele>281.0</ele><time>2026-04-18T09:02:32.001Z</time></trkpt><trkpt lat="43.51626523916397" lon="10.87073214897323"><ele>281.0</ele><time>2026-04-18T09:02:33.001Z</time></trkpt><trkpt lat="43.51625792697605" lon="10.870834266179228"><ele>281.0</ele><time>2026-04-18T09:02:34.001Z</time></trkpt><trkpt lat="43.51619794731013" lon="10.870960434126879"><ele>281.0</ele><time>2026-04-18T09:02:36.001Z</time></trkpt><trkpt lat="43.516082579293986" lon="10.870953278823727"><ele>281.0</ele><time>2026-04-18T09:02:38.001Z</time></trkpt><trkpt lat="43.515943560771774" lon="10.870942721689252"><ele>281.0</ele><time>2026-04-18T09:02:40.001Z</time></trkpt><trkpt lat="43.51584971409257" lon="10.870980541505757"><ele>282.0</ele><time>2026-04-18T09:02:41.001Z</time></trkpt><trkpt lat="43.51576278103652" lon="10.871064035865516"><ele>283.0</ele><time>2026-04-18T09:02:42.001Z</time></trkpt><trkpt lat="43.51570046776564" lon="10.871161699499963"><ele>284.0</ele><time>2026-04-18T09:02:43.001Z</time></trkpt><trkpt lat="43.51564098829276" lon="10.871264621946445"><ele>285.0</ele><time>2026-04-18T09:02:44.001Z</time></trkpt><trkpt lat="43.51559763054675" lon="10.871408826216598"><ele>286.0</ele><time>2026-04-18T09:02:45.001Z</time></trkpt><trkpt lat="43.515576311095955" lon="10.871547479412417"><ele>286.0</ele><time>2026-04-18T09:02:46.001Z</time></trkpt><trkpt lat="43.51557004150933" lon="10.871701768967077"><ele>286.0</ele><time>2026-04-18T09:02:47.001Z</time></trkpt><trkpt lat="43.51554513874418" lon="10.871833931008174"><ele>286.0</ele><time>2026-04-18T09:02:48.001Z</time></trkpt><trkpt lat="43.5155321016601" lon="10.871958010650244"><ele>286.0</ele><time>2026-04-18T09:02:49.001Z</time></trkpt><trkpt lat="43.51552212001724" lon="10.87207352038524"><ele>286.0</ele><time>2026-04-18T09:02:50.001Z</time></trkpt><trkpt lat="43.51558636717013" lon="10.87213129076075"><ele>287.66666666666663</ele><time>2026-04-18T09:02:52.001Z</time></trkpt><trkpt lat="43.515660331281" lon="10.87211568191753"><ele>289.3333333333333</ele><time>2026-04-18T09:02:53.001Z</time></trkpt><trkpt lat="43.51572511115112" lon="10.872101082875394"><ele>291.0</ele><time>2026-04-18T09:02:54.001Z</time></trkpt><trkpt lat="43.51580925939891" lon="10.872138666613171"><ele>292.6666666666667</ele><time>2026-04-18T09:02:55.001Z</time></trkpt><trkpt lat="43.515901693632856" lon="10.872154265274741"><ele>294.33333333333337</ele><time>2026-04-18T09:02:56.001Z</time></trkpt><trkpt lat="43.516004246991564" lon="10.872161685281965"><ele>296.0</ele><time>2026-04-18T09:02:57.001Z</time></trkpt><trkpt lat="43.51608081192405" lon="10.872189502698278"><ele>296.0</ele><time>2026-04-18T09:02:58.001Z</time></trkpt><trkpt lat="43.51614969275526" lon="10.872316029878842"><ele>296.0</ele><time>2026-04-18T09:03:00.001Z</time></trkpt><trkpt lat="43.51615157910848" lon="10.872416996185324"><ele>296.0</ele><time>2026-04-18T09:03:01Z</time></trkpt><trkpt lat="43.51615084510887" lon="10.872538352004744"><ele>296.0</ele><time>2026-04-18T09:03:02Z</time></trkpt><trkpt lat="43.51615110451513" lon="10.872670036586216"><ele>296.0</ele><time>2026-04-18T09:03:03Z</time></trkpt><trkpt lat="43.516196641968875" lon="10.872762898547903"><ele>299.33333333333337</ele><time>2026-04-18T09:03:04Z</time></trkpt><trkpt lat="43.51624412568489" lon="10.872840891232283"><ele>302.6666666666667</ele><time>2026-04-18T09:03:05Z</time></trkpt><trkpt lat="43.516301719586856" lon="10.872901973406782"><ele>306.0</ele><time>2026-04-18T09:03:06Z</time></trkpt><trkpt lat="43.516364883816564" lon="10.872940044926686"><ele>309.3333333333333</ele><time>2026-04-18T09:03:07Z</time></trkpt><trkpt lat="43.51638786056929" lon="10.873023094361379"><ele>312.66666666666663</ele><time>2026-04-18T09:03:09Z</time></trkpt><trkpt lat="43.51636740596078" lon="10.873150282282735"><ele>316.0</ele><time>2026-04-18T09:03:12Z</time></trkpt><trkpt lat="43.516321300283074" lon="10.873284606092678"><ele>316.0</ele><time>2026-04-18T09:04:35.001Z</time></trkpt><trkpt lat="43.51631295524051" lon="10.873390176236175"><ele>316.0</ele><time>2026-04-18T09:04:36.001Z</time></trkpt><trkpt lat="43.51631655771351" lon="10.873502192705876"><ele>316.0</ele><time>2026-04-18T09:04:37.001Z</time></trkpt><trkpt lat="43.51631049124772" lon="10.873631371095803"><ele>316.0</ele><time>2026-04-18T09:04:38.001Z</time></trkpt><trkpt lat="43.51629905169623" lon="10.873762775509947"><ele>316.0</ele><time>2026-04-18T09:04:39.001Z</time></trkpt><trkpt lat="43.516283371294264" lon="10.873900668282142"><ele>316.0</ele><time>2026-04-18T09:04:40.001Z</time></trkpt><trkpt lat="43.51626507285555" lon="10.874028029217548"><ele>315.8</ele><time>2026-04-18T09:04:41.001Z</time></trkpt><trkpt lat="43.51623442437474" lon="10.874148264768207"><ele>315.6</ele><time>2026-04-18T09:04:42.001Z</time></trkpt><trkpt lat="43.51617895571369" lon="10.874267260162329"><ele>315.4</ele><time>2026-04-18T09:04:43.001Z</time></trkpt><trkpt lat="43.51610908295165" lon="10.874381987805734"><ele>315.2</ele><time>2026-04-18T09:04:44.001Z</time></trkpt><trkpt lat="43.51603683704949" lon="10.874486269918545"><ele>315.0</ele><time>2026-04-18T09:04:45.001Z</time></trkpt><trkpt lat="43.51596101353707" lon="10.874546965054186"><ele>315.0</ele><time>2026-04-18T09:04:46.001Z</time></trkpt><trkpt lat="43.515897871627836" lon="10.874569130536464"><ele>315.0</ele><time>2026-04-18T09:04:48.001Z</time></trkpt><trkpt lat="43.51583242022928" lon="10.87458502040225"><ele>315.0</ele><time>2026-04-18T09:04:49.001Z</time></trkpt><trkpt lat="43.51575942223929" lon="10.874600694798472"><ele>315.0</ele><time>2026-04-18T09:04:50.001Z</time></trkpt><trkpt lat="43.51568957750174" lon="10.87469261456653"><ele>315.0</ele><time>2026-04-18T09:04:52.001Z</time></trkpt><trkpt lat="43.51562764112293" lon="10.874721295430273"><ele>315.0</ele><time>2026-04-18T09:04:53.001Z</time></trkpt><trkpt lat="43.51549079534345" lon="10.874834844402557"><ele>315.0</ele><time>2026-04-18T09:04:55.001Z</time></trkpt><trkpt lat="43.51543158429578" lon="10.874880128515183"><ele>315.0</ele><time>2026-04-18T09:04:56.001Z</time></trkpt><trkpt lat="43.51537995187117" lon="10.874951658667"><ele>315.0</ele><time>2026-04-18T09:04:57.001Z</time></trkpt><trkpt lat="43.51531332332304" lon="10.87499413865425"><ele>315.0</ele><time>2026-04-18T09:04:58.001Z</time></trkpt><trkpt lat="43.51523514847123" lon="10.875113002916708"><ele>315.0</ele><time>2026-04-18T09:05:00.001Z</time></trkpt><trkpt lat="43.515142271389415" lon="10.875323319011207"><ele>315.0</ele><time>2026-04-18T09:05:02.001Z</time></trkpt><trkpt lat="43.515143121897324" lon="10.875483169259597"><ele>315.0</ele><time>2026-04-18T09:05:03.001Z</time></trkpt><trkpt lat="43.51513994914239" lon="10.875602143546834"><ele>315.0</ele><time>2026-04-18T09:05:04.001Z</time></trkpt><trkpt lat="43.51510427847923" lon="10.875741379258063"><ele>315.0</ele><time>2026-04-18T09:05:06.001Z</time></trkpt><trkpt lat="43.515093245763126" lon="10.87588010690351"><ele>315.0</ele><time>2026-04-18T09:05:08Z</time></trkpt><trkpt lat="43.51509510732141" lon="10.875990426705952"><ele>317.0</ele><time>2026-04-18T09:05:12Z</time></trkpt><trkpt lat="43.51522009891691" lon="10.875996684041208"><ele>319.0</ele><time>2026-04-18T09:05:13Z</time></trkpt><trkpt lat="43.5153502430445" lon="10.87603050502318"><ele>321.0</ele><time>2026-04-18T09:05:15Z</time></trkpt><trkpt lat="43.51542933788476" lon="10.876047785455428"><ele>323.0</ele><time>2026-04-18T09:05:16Z</time></trkpt><trkpt lat="43.51550091475977" lon="10.876083510859077"><ele>325.0</ele><time>2026-04-18T09:05:17Z</time></trkpt><trkpt lat="43.515568954727186" lon="10.876143909981248"><ele>326.4</ele><time>2026-04-18T09:05:18Z</time></trkpt><trkpt lat="43.515637673891796" lon="10.876215953254688"><ele>327.8</ele><time>2026-04-18T09:05:19Z</time></trkpt><trkpt lat="43.51571185647829" lon="10.876292484251886"><ele>329.20000000000005</ele><time>2026-04-18T09:05:20Z</time></trkpt><trkpt lat="43.51580160733192" lon="10.876361841739214"><ele>330.6</ele><time>2026-04-18T09:05:21Z</time></trkpt><trkpt lat="43.51591471895975" lon="10.87635488399257"><ele>332.0</ele><time>2026-04-18T09:05:22Z</time></trkpt><trkpt lat="43.51603206963836" lon="10.876317275371903"><ele>332.0</ele><time>2026-04-18T09:05:23Z</time></trkpt><trkpt lat="43.51613122054477" lon="10.876258218062672"><ele>332.0</ele><time>2026-04-18T09:05:24Z</time></trkpt><trkpt lat="43.51623121710118" lon="10.876205726520139"><ele>332.0</ele><time>2026-04-18T09:05:25Z</time></trkpt><trkpt lat="43.51633826438393" lon="10.87614690142385"><ele>332.0</ele><time>2026-04-18T09:05:26Z</time></trkpt><trkpt lat="43.51644475937381" lon="10.876082969470557"><ele>332.0</ele><time>2026-04-18T09:05:27Z</time></trkpt><trkpt lat="43.51655526907618" lon="10.876011618763085"><ele>332.6</ele><time>2026-04-18T09:05:28Z</time></trkpt><trkpt lat="43.51666906458489" lon="10.875960459168072"><ele>333.20000000000005</ele><time>2026-04-18T09:05:29Z</time></trkpt><trkpt lat="43.51676849958375" lon="10.875882737042264"><ele>333.8</ele><time>2026-04-18T09:05:30Z</time></trkpt><trkpt lat="43.51686140631288" lon="10.875819684533198"><ele>334.4</ele><time>2026-04-18T09:05:31Z</time></trkpt><trkpt lat="43.51692149225263" lon="10.875728212486395"><ele>335.0</ele><time>2026-04-18T09:05:32Z</time></trkpt><trkpt lat="43.5169637797719" lon="10.87560435036063"><ele>335.0</ele><time>2026-04-18T09:05:33Z</time></trkpt><trkpt lat="43.516989236215295" lon="10.875452297094874"><ele>335.0</ele><time>2026-04-18T09:05:34Z</time></trkpt><trkpt lat="43.517024865676774" lon="10.875277080994254"><ele>335.0</ele><time>2026-04-18T09:05:35Z</time></trkpt><trkpt lat="43.51710350101794" lon="10.875125507138897"><ele>335.0</ele><time>2026-04-18T09:05:36Z</time></trkpt><trkpt lat="43.51719647521813" lon="10.874991415759835"><ele>337.25</ele><time>2026-04-18T09:05:37Z</time></trkpt><trkpt lat="43.517315941545064" lon="10.874893872289906"><ele>339.5</ele><time>2026-04-18T09:05:38Z</time></trkpt><trkpt lat="43.517448099796766" lon="10.87484667579171"><ele>341.75</ele><time>2026-04-18T09:05:39Z</time></trkpt><trkpt lat="43.51759166558799" lon="10.874814995513661"><ele>344.0</ele><time>2026-04-18T09:05:40Z</time></trkpt><trkpt lat="43.51773412593963" lon="10.874792129279411"><ele>344.0</ele><time>2026-04-18T09:05:41Z</time></trkpt><trkpt lat="43.51787424189475" lon="10.874780556455145"><ele>344.0</ele><time>2026-04-18T09:05:42Z</time></trkpt><trkpt lat="43.51801033049507" lon="10.874787410979998"><ele>344.0</ele><time>2026-04-18T09:05:43Z</time></trkpt><trkpt lat="43.51814872287123" lon="10.874795760923124"><ele>344.0</ele><time>2026-04-18T09:05:44Z</time></trkpt><trkpt lat="43.51828587454286" lon="10.874816212825694"><ele>344.25</ele><time>2026-04-18T09:05:45Z</time></trkpt><trkpt lat="43.518427694084856" lon="10.874849254622541"><ele>344.5</ele><time>2026-04-18T09:05:46.001Z</time></trkpt><trkpt lat="43.518555973115056" lon="10.874874079808805"><ele>344.75</ele><time>2026-04-18T09:05:47.001Z</time></trkpt><trkpt lat="43.518669639658704" lon="10.874888899533111"><ele>345.0</ele><time>2026-04-18T09:05:48.001Z</time></trkpt><trkpt lat="43.518784321074385" lon="10.874901782149"><ele>345.0</ele><time>2026-04-18T09:05:49.001Z</time></trkpt><trkpt lat="43.51889007505328" lon="10.87491449002967"><ele>345.0</ele><time>2026-04-18T09:05:50.001Z</time></trkpt><trkpt lat="43.51899093856564" lon="10.874933255159188"><ele>345.0</ele><time>2026-04-18T09:05:51.001Z</time></trkpt><trkpt lat="43.519091589266125" lon="10.87497993437704"><ele>345.0</ele><time>2026-04-18T09:05:52.001Z</time></trkpt><trkpt lat="43.51916955246191" lon="10.875069213275546"><ele>345.0</ele><time>2026-04-18T09:05:53.001Z</time></trkpt><trkpt lat="43.51923662538043" lon="10.875181882411667"><ele>347.0</ele><time>2026-04-18T09:05:54.001Z</time></trkpt><trkpt lat="43.51925648583832" lon="10.875375334630293"><ele>349.0</ele><time>2026-04-18T09:05:55.001Z</time></trkpt><trkpt lat="43.519317453410075" lon="10.875567436804744"><ele>351.0</ele><time>2026-04-18T09:05:56.001Z</time></trkpt><trkpt lat="43.51936639370097" lon="10.87575308438859"><ele>353.0</ele><time>2026-04-18T09:05:57.001Z</time></trkpt><trkpt lat="43.519435858957564" lon="10.875906820094118"><ele>355.75</ele><time>2026-04-18T09:05:58.001Z</time></trkpt><trkpt lat="43.51953504138755" lon="10.876017918413016"><ele>358.5</ele><time>2026-04-18T09:05:59.001Z</time></trkpt><trkpt lat="43.51964229887528" lon="10.876102287471383"><ele>361.25</ele><time>2026-04-18T09:06:00.001Z</time></trkpt><trkpt lat="43.519746040010666" lon="10.876190748792496"><ele>364.0</ele><time>2026-04-18T09:06:01.001Z</time></trkpt><trkpt lat="43.51982360528187" lon="10.876285909921052"><ele>358.5</ele><time>2026-04-18T09:06:02.001Z</time></trkpt><trkpt lat="43.519847608645016" lon="10.87644656340424"><ele>353.0</ele><time>2026-04-18T09:06:03.001Z</time></trkpt><trkpt lat="43.51988051050346" lon="10.876655625383387"><ele>347.5</ele><time>2026-04-18T09:06:04.001Z</time></trkpt><trkpt lat="43.519895977696535" lon="10.87686153675883"><ele>342.0</ele><time>2026-04-18T09:06:05.001Z</time></trkpt><trkpt lat="43.519920969607604" lon="10.87707732708743"><ele>342.0</ele><time>2026-04-18T09:06:06.001Z</time></trkpt><trkpt lat="43.51994888007164" lon="10.87730207803074"><ele>342.0</ele><time>2026-04-18T09:06:07.001Z</time></trkpt><trkpt lat="43.5199812086336" lon="10.877522313255037"><ele>342.0</ele><time>2026-04-18T09:06:08.001Z</time></trkpt><trkpt lat="43.52001760411164" lon="10.877744377298873"><ele>343.25</ele><time>2026-04-18T09:06:09.001Z</time></trkpt><trkpt lat="43.52009062006877" lon="10.877957337847782"><ele>344.5</ele><time>2026-04-18T09:06:10.001Z</time></trkpt><trkpt lat="43.52015469470785" lon="10.87814197596163"><ele>345.75</ele><time>2026-04-18T09:06:11.001Z</time></trkpt><trkpt lat="43.52018353757451" lon="10.87831091713131"><ele>347.0</ele><time>2026-04-18T09:06:12.001Z</time></trkpt><trkpt lat="43.5202171626891" lon="10.878462388449957"><ele>344.8</ele><time>2026-04-18T09:06:13.001Z</time></trkpt><trkpt lat="43.520262391707575" lon="10.878591678663652"><ele>342.6</ele><time>2026-04-18T09:06:14.001Z</time></trkpt><trkpt lat="43.52023304663221" lon="10.878725589711317"><ele>340.40000000000003</ele><time>2026-04-18T09:06:15.001Z</time></trkpt><trkpt lat="43.5202089685908" lon="10.878874739836286"><ele>338.20000000000005</ele><time>2026-04-18T09:06:16.001Z</time></trkpt><trkpt lat="43.5201284925172" lon="10.878995128049885"><ele>336.0</ele><time>2026-04-18T09:06:17.001Z</time></trkpt><trkpt lat="43.5200516660621" lon="10.879106782998456"><ele>336.0</ele><time>2026-04-18T09:06:18.001Z</time></trkpt><trkpt lat="43.519945793980305" lon="10.879186885347453"><ele>336.0</ele><time>2026-04-18T09:06:19.001Z</time></trkpt><trkpt lat="43.51983047739411" lon="10.879216704503312"><ele>336.0</ele><time>2026-04-18T09:06:20.001Z</time></trkpt><trkpt lat="43.51973933582705" lon="10.879196238534346"><ele>336.0</ele><time>2026-04-18T09:06:21.001Z</time></trkpt><trkpt lat="43.51962194462324" lon="10.87915207325257"><ele>337.75</ele><time>2026-04-18T09:06:22.001Z</time></trkpt><trkpt lat="43.519483715079495" lon="10.879122667192227"><ele>339.5</ele><time>2026-04-18T09:06:23.001Z</time></trkpt><trkpt lat="43.51934357332693" lon="10.879122742731171"><ele>341.25</ele><time>2026-04-18T09:06:24.001Z</time></trkpt><trkpt lat="43.519224894443774" lon="10.879096320158046"><ele>343.0</ele><time>2026-04-18T09:06:25.001Z</time></trkpt><trkpt lat="43.51911128869908" lon="10.879122272693843"><ele>343.0</ele><time>2026-04-18T09:06:26.001Z</time></trkpt><trkpt lat="43.519011554097354" lon="10.879188014265496"><ele>343.0</ele><time>2026-04-18T09:06:27.001Z</time></trkpt><trkpt lat="43.51894447672652" lon="10.879343162428018"><ele>343.0</ele><time>2026-04-18T09:06:28.001Z</time></trkpt><trkpt lat="43.51892270658445" lon="10.879498809225822"><ele>343.0</ele><time>2026-04-18T09:06:29.001Z</time></trkpt><trkpt lat="43.518988797660924" lon="10.879651453031418"><ele>342.5</ele><time>2026-04-18T09:06:30.001Z</time></trkpt><trkpt lat="43.5190853831617" lon="10.879722595892645"><ele>342.0</ele><time>2026-04-18T09:06:31.001Z</time></trkpt><trkpt lat="43.51919586990351" lon="10.879752417665072"><ele>341.5</ele><time>2026-04-18T09:06:32.001Z</time></trkpt><trkpt lat="43.519314633365276" lon="10.87978162046269"><ele>341.0</ele><time>2026-04-18T09:06:33.001Z</time></trkpt><trkpt lat="43.519434981675964" lon="10.879796171743648"><ele>341.0</ele><time>2026-04-18T09:06:34.001Z</time></trkpt><trkpt lat="43.519522984478016" lon="10.879883841596275"><ele>341.0</ele><time>2026-04-18T09:06:35.001Z</time></trkpt><trkpt lat="43.519593098551866" lon="10.879990053974382"><ele>341.0</ele><time>2026-04-18T09:06:36.001Z</time></trkpt><trkpt lat="43.519634819974584" lon="10.880092288161658"><ele>341.0</ele><time>2026-04-18T09:06:37.001Z</time></trkpt><trkpt lat="43.51964930841068" lon="10.880191046926068"><ele>341.0</ele><time>2026-04-18T09:06:38.001Z</time></trkpt><trkpt lat="43.51960458257891" lon="10.880305172021629"><ele>340.8</ele><time>2026-04-18T09:06:39.001Z</time></trkpt><trkpt lat="43.51957545365069" lon="10.880444417944567"><ele>340.6</ele><time>2026-04-18T09:06:40.001Z</time></trkpt><trkpt lat="43.519555372408256" lon="10.88057330041689"><ele>340.4</ele><time>2026-04-18T09:06:41.001Z</time></trkpt><trkpt lat="43.519547949648924" lon="10.88072730873135"><ele>340.2</ele><time>2026-04-18T09:06:42.001Z</time></trkpt><trkpt lat="43.51957229665238" lon="10.880900981391909"><ele>340.0</ele><time>2026-04-18T09:06:43.001Z</time></trkpt><trkpt lat="43.519581774273185" lon="10.881087650100206"><ele>340.0</ele><time>2026-04-18T09:06:44.001Z</time></trkpt><trkpt lat="43.51956781957518" lon="10.8812603779547"><ele>340.0</ele><time>2026-04-18T09:06:45.001Z</time></trkpt><trkpt lat="43.5195344080179" lon="10.881443381586143"><ele>340.0</ele><time>2026-04-18T09:06:46.001Z</time></trkpt><trkpt lat="43.51950309236257" lon="10.881621847588349"><ele>340.0</ele><time>2026-04-18T09:06:47.001Z</time></trkpt><trkpt lat="43.51948520389555" lon="10.881809870242956"><ele>342.25</ele><time>2026-04-18T09:06:48.001Z</time></trkpt><trkpt lat="43.51948649100588" lon="10.881996144702935"><ele>344.5</ele><time>2026-04-18T09:06:49.001Z</time></trkpt><trkpt lat="43.51952636197468" lon="10.882177950871117"><ele>346.75</ele><time>2026-04-18T09:06:50.001Z</time></trkpt><trkpt lat="43.519587497628635" lon="10.882347130858415"><ele>349.0</ele><time>2026-04-18T09:06:51.001Z</time></trkpt><trkpt lat="43.519653431986" lon="10.882520874395091"><ele>352.0</ele><time>2026-04-18T09:06:52.001Z</time></trkpt><trkpt lat="43.51973368903156" lon="10.882683999623717"><ele>355.0</ele><time>2026-04-18T09:06:53.001Z</time></trkpt><trkpt lat="43.51983854757907" lon="10.882804940843881"><ele>358.0</ele><time>2026-04-18T09:06:54.001Z</time></trkpt><trkpt lat="43.51997072182717" lon="10.882902822022386"><ele>361.0</ele><time>2026-04-18T09:06:55.001Z</time></trkpt><trkpt lat="43.52008466014455" lon="10.882996734246582"><ele>361.0</ele><time>2026-04-18T09:06:56.001Z</time></trkpt><trkpt lat="43.52020093111756" lon="10.883087292519303"><ele>361.0</ele><time>2026-04-18T09:06:57.001Z</time></trkpt><trkpt lat="43.52031640902394" lon="10.883150544665357"><ele>361.0</ele><time>2026-04-18T09:06:58.001Z</time></trkpt><trkpt lat="43.520429378348766" lon="10.883194735504155"><ele>361.0</ele><time>2026-04-18T09:06:59.001Z</time></trkpt><trkpt lat="43.52055443608765" lon="10.883138702024842"><ele>359.75</ele><time>2026-04-18T09:07:00.001Z</time></trkpt><trkpt lat="43.5206881380482" lon="10.883063102563895"><ele>358.5</ele><time>2026-04-18T09:07:01.001Z</time></trkpt><trkpt lat="43.520808541591194" lon="10.883055755242797"><ele>357.25</ele><time>2026-04-18T09:07:02.001Z</time></trkpt><trkpt lat="43.52090769019794" lon="10.883094267420248"><ele>356.0</ele><time>2026-04-18T09:07:03.001Z</time></trkpt><trkpt lat="43.521014644821086" lon="10.883168649960085"><ele>356.0</ele><time>2026-04-18T09:07:04.001Z</time></trkpt><trkpt lat="43.52113157993419" lon="10.883250883921836"><ele>356.0</ele><time>2026-04-18T09:07:05.001Z</time></trkpt><trkpt lat="43.52121412925873" lon="10.883344143192213"><ele>356.0</ele><time>2026-04-18T09:07:06.001Z</time></trkpt><trkpt lat="43.52127790755117" lon="10.883455098110728"><ele>356.0</ele><time>2026-04-18T09:07:07.001Z</time></trkpt><trkpt lat="43.52131965104123" lon="10.883596164997574"><ele>357.25</ele><time>2026-04-18T09:07:08.001Z</time></trkpt><trkpt lat="43.52134172975545" lon="10.88375011472007"><ele>358.5</ele><time>2026-04-18T09:07:09.001Z</time></trkpt><trkpt lat="43.52132171553637" lon="10.88388884400051"><ele>359.75</ele><time>2026-04-18T09:07:10.001Z</time></trkpt><trkpt lat="43.5212825363087" lon="10.88403031398091"><ele>361.0</ele><time>2026-04-18T09:07:11.001Z</time></trkpt><trkpt lat="43.52119745876024" lon="10.884160839633438"><ele>362.5</ele><time>2026-04-18T09:07:12Z</time></trkpt><trkpt lat="43.52112627017025" lon="10.884290770101584"><ele>364.0</ele><time>2026-04-18T09:07:13Z</time></trkpt><trkpt lat="43.52109224365711" lon="10.884428341267586"><ele>365.5</ele><time>2026-04-18T09:07:14Z</time></trkpt><trkpt lat="43.52108426304876" lon="10.884586569091645"><ele>367.0</ele><time>2026-04-18T09:07:15Z</time></trkpt><trkpt lat="43.52113228714332" lon="10.884784909591234"><ele>367.0</ele><time>2026-04-18T09:07:16Z</time></trkpt><trkpt lat="43.52119128309324" lon="10.884989074183673"><ele>367.0</ele><time>2026-04-18T09:07:17Z</time></trkpt><trkpt lat="43.52125731406174" lon="10.885191787351362"><ele>367.0</ele><time>2026-04-18T09:07:18Z</time></trkpt><trkpt lat="43.52132861270389" lon="10.88537184334677"><ele>367.75</ele><time>2026-04-18T09:07:19Z</time></trkpt><trkpt lat="43.52141394281222" lon="10.885533988319457"><ele>368.5</ele><time>2026-04-18T09:07:20Z</time></trkpt><trkpt lat="43.52150436854802" lon="10.8856919298718"><ele>369.25</ele><time>2026-04-18T09:07:21Z</time></trkpt><trkpt lat="43.52160435671565" lon="10.885831461725074"><ele>370.0</ele><time>2026-04-18T09:07:22Z</time></trkpt><trkpt lat="43.52167716183543" lon="10.885980402969825"><ele>370.0</ele><time>2026-04-18T09:07:23Z</time></trkpt><trkpt lat="43.52176418590087" lon="10.886164713611715"><ele>370.0</ele><time>2026-04-18T09:07:24Z</time></trkpt><trkpt lat="43.521838926788945" lon="10.886354074352191"><ele>370.0</ele><time>2026-04-18T09:07:25Z</time></trkpt><trkpt lat="43.521910180603044" lon="10.886547437890417"><ele>370.0</ele><time>2026-04-18T09:07:26Z</time></trkpt><trkpt lat="43.521981311369935" lon="10.886741645161537"><ele>370.0</ele><time>2026-04-18T09:07:27Z</time></trkpt><trkpt lat="43.52205328751787" lon="10.886938723068393"><ele>370.0</ele><time>2026-04-18T09:07:28Z</time></trkpt><trkpt lat="43.522125038400205" lon="10.887134763971625"><ele>370.5</ele><time>2026-04-18T09:07:29Z</time></trkpt><trkpt lat="43.52219826600812" lon="10.887324026595754"><ele>371.0</ele><time>2026-04-18T09:07:30Z</time></trkpt><trkpt lat="43.52226449878037" lon="10.887503574849617"><ele>371.5</ele><time>2026-04-18T09:07:31Z</time></trkpt><trkpt lat="43.52233202200099" lon="10.887677518685217"><ele>372.0</ele><time>2026-04-18T09:07:32Z</time></trkpt><trkpt lat="43.522376377687266" lon="10.887846754963528"><ele>372.0</ele><time>2026-04-18T09:07:33Z</time></trkpt><trkpt lat="43.522395793056496" lon="10.888037018890898"><ele>372.0</ele><time>2026-04-18T09:07:34Z</time></trkpt><trkpt lat="43.522368791045636" lon="10.888230950013222"><ele>372.0</ele><time>2026-04-18T09:07:35.001Z</time></trkpt><trkpt lat="43.522349592245696" lon="10.88842700294334"><ele>372.0</ele><time>2026-04-18T09:07:36.001Z</time></trkpt><trkpt lat="43.52232670511837" lon="10.888637510053421"><ele>374.6666666666667</ele><time>2026-04-18T09:07:37.001Z</time></trkpt><trkpt lat="43.52230549103407" lon="10.888842816442644"><ele>377.33333333333337</ele><time>2026-04-18T09:07:38.001Z</time></trkpt><trkpt lat="43.52228674745544" lon="10.889055776474699"><ele>380.0</ele><time>2026-04-18T09:07:39.001Z</time></trkpt><trkpt lat="43.52228340414198" lon="10.889266605272441"><ele>382.0</ele><time>2026-04-18T09:07:40.001Z</time></trkpt><trkpt lat="43.522251032103576" lon="10.889430467280658"><ele>384.0</ele><time>2026-04-18T09:07:41.001Z</time></trkpt><trkpt lat="43.522234014986765" lon="10.889605484548662"><ele>386.0</ele><time>2026-04-18T09:07:42.001Z</time></trkpt><trkpt lat="43.52222305302577" lon="10.889776352370399"><ele>388.0</ele><time>2026-04-18T09:07:43.001Z</time></trkpt><trkpt lat="43.52220158991454" lon="10.889943971004595"><ele>389.0</ele><time>2026-04-18T09:07:44.001Z</time></trkpt><trkpt lat="43.52219283426571" lon="10.890105919841863"><ele>390.0</ele><time>2026-04-18T09:07:45.001Z</time></trkpt><trkpt lat="43.52219372045692" lon="10.890257731264029"><ele>391.0</ele><time>2026-04-18T09:07:46.001Z</time></trkpt><trkpt lat="43.52219533393398" lon="10.890402350234329"><ele>392.0</ele><time>2026-04-18T09:07:47.001Z</time></trkpt><trkpt lat="43.52222169922489" lon="10.890568209573411"><ele>392.0</ele><time>2026-04-18T09:07:48.001Z</time></trkpt><trkpt lat="43.522280055054665" lon="10.89074168937992"><ele>392.0</ele><time>2026-04-18T09:07:49.001Z</time></trkpt><trkpt lat="43.522324353283686" lon="10.890938482964058"><ele>392.0</ele><time>2026-04-18T09:07:50.001Z</time></trkpt><trkpt lat="43.522382639541036" lon="10.891128313727517"><ele>392.0</ele><time>2026-04-18T09:07:51.001Z</time></trkpt><trkpt lat="43.52245411977389" lon="10.89131683438676"><ele>393.3333333333333</ele><time>2026-04-18T09:07:52.001Z</time></trkpt><trkpt lat="43.522517893636646" lon="10.891511038463674"><ele>394.66666666666663</ele><time>2026-04-18T09:07:53.001Z</time></trkpt><trkpt lat="43.52258106859614" lon="10.891704716536669"><ele>396.0</ele><time>2026-04-18T09:07:54.001Z</time></trkpt><trkpt lat="43.52264808861113" lon="10.891897670244328"><ele>398.0</ele><time>2026-04-18T09:07:55.001Z</time></trkpt><trkpt lat="43.522700867310526" lon="10.892096645142741"><ele>400.0</ele><time>2026-04-18T09:07:56.001Z</time></trkpt><trkpt lat="43.52277929467937" lon="10.892283006005863"><ele>402.0</ele><time>2026-04-18T09:07:57.001Z</time></trkpt><trkpt lat="43.522827614512266" lon="10.892488350574745"><ele>402.66666666666663</ele><time>2026-04-18T09:07:58.001Z</time></trkpt><trkpt lat="43.522890052103335" lon="10.892689270288084"><ele>403.3333333333333</ele><time>2026-04-18T09:07:59.001Z</time></trkpt><trkpt lat="43.52295540950187" lon="10.892894823863033"><ele>404.0</ele><time>2026-04-18T09:08:00.001Z</time></trkpt><trkpt lat="43.523020351805044" lon="10.893098902088967"><ele>402.66666666666663</ele><time>2026-04-18T09:08:01.001Z</time></trkpt><trkpt lat="43.52308709634875" lon="10.893306403177899"><ele>401.33333333333337</ele><time>2026-04-18T09:08:02.001Z</time></trkpt><trkpt lat="43.52315174533689" lon="10.89350738926484"><ele>400.0</ele><time>2026-04-18T09:08:03.001Z</time></trkpt><trkpt lat="43.52321307486215" lon="10.89370580126684"><ele>400.5</ele><time>2026-04-18T09:08:04.001Z</time></trkpt><trkpt lat="43.523271016751735" lon="10.893895333207766"><ele>401.0</ele><time>2026-04-18T09:08:05.001Z</time></trkpt><trkpt lat="43.523324079959906" lon="10.894085724873309"><ele>401.5</ele><time>2026-04-18T09:08:06.001Z</time></trkpt><trkpt lat="43.52340515578798" lon="10.894260659666598"><ele>402.0</ele><time>2026-04-18T09:08:07.001Z</time></trkpt><trkpt lat="43.523462060287585" lon="10.894440284112937"><ele>402.0</ele><time>2026-04-18T09:08:08.001Z</time></trkpt><trkpt lat="43.52352730940886" lon="10.894595260257017"><ele>402.0</ele><time>2026-04-18T09:08:09.001Z</time></trkpt><trkpt lat="43.52359044799102" lon="10.894741017368528"><ele>402.0</ele><time>2026-04-18T09:08:10.001Z</time></trkpt><trkpt lat="43.52364230488886" lon="10.894861291272074"><ele>402.0</ele><time>2026-04-18T09:08:11.001Z</time></trkpt><trkpt lat="43.523702333732004" lon="10.894978370480816"><ele>401.40000000000003</ele><time>2026-04-18T09:08:12.001Z</time></trkpt><trkpt lat="43.52372411323807" lon="10.895103554686472"><ele>400.8</ele><time>2026-04-18T09:08:13.001Z</time></trkpt><trkpt lat="43.52375776658293" lon="10.8952291551502"><ele>400.2</ele><time>2026-04-18T09:08:14.001Z</time></trkpt><trkpt lat="43.52379293715782" lon="10.895366923843449"><ele>399.6</ele><time>2026-04-18T09:08:15.001Z</time></trkpt><trkpt lat="43.52382858505391" lon="10.895525159733083"><ele>399.0</ele><time>2026-04-18T09:08:16.001Z</time></trkpt><trkpt lat="43.52386500953537" lon="10.89568663833915"><ele>401.0</ele><time>2026-04-18T09:08:17.001Z</time></trkpt><trkpt lat="43.52390695989157" lon="10.89586541750833"><ele>403.0</ele><time>2026-04-18T09:08:18.001Z</time></trkpt><trkpt lat="43.5239504483112" lon="10.896050751350197"><ele>405.0</ele><time>2026-04-18T09:08:19.001Z</time></trkpt><trkpt lat="43.52399675559164" lon="10.896248882819942"><ele>407.0</ele><time>2026-04-18T09:08:20.001Z</time></trkpt><trkpt lat="43.52404313342598" lon="10.896449534218647"><ele>408.66666666666663</ele><time>2026-04-18T09:08:21.001Z</time></trkpt><trkpt lat="43.524092792468615" lon="10.896664381706438"><ele>410.33333333333337</ele><time>2026-04-18T09:08:22.001Z</time></trkpt><trkpt lat="43.5241373079932" lon="10.89685697578741"><ele>412.0</ele><time>2026-04-18T09:08:23.001Z</time></trkpt><trkpt lat="43.52418106500823" lon="10.897046288448712"><ele>412.25</ele><time>2026-04-18T09:08:24.001Z</time></trkpt><trkpt lat="43.52422126977669" lon="10.897220232460084"><ele>412.5</ele><time>2026-04-18T09:08:25.001Z</time></trkpt><trkpt lat="43.52426069210327" lon="10.897391270651433"><ele>412.75</ele><time>2026-04-18T09:08:26.001Z</time></trkpt><trkpt lat="43.52431343648969" lon="10.897557554259029"><ele>413.0</ele><time>2026-04-18T09:08:27.001Z</time></trkpt><trkpt lat="43.524351442432184" lon="10.897727996987907"><ele>413.8333333333333</ele><time>2026-04-18T09:08:28.001Z</time></trkpt><trkpt lat="43.524375185077254" lon="10.897868340243939"><ele>414.66666666666663</ele><time>2026-04-18T09:08:29.001Z</time></trkpt><trkpt lat="43.52440167753902" lon="10.897953271534423"><ele>415.5</ele><time>2026-04-18T09:08:30.001Z</time></trkpt><trkpt lat="43.52440511766743" lon="10.898051040751449"><ele>416.33333333333337</ele><time>2026-04-18T09:08:32.001Z</time></trkpt><trkpt lat="43.524384280275456" lon="10.8981385090188"><ele>417.1666666666667</ele><time>2026-04-18T09:08:34.001Z</time></trkpt><trkpt lat="43.52430543639156" lon="10.898242331677132"><ele>418.0</ele><time>2026-04-18T09:08:36.001Z</time></trkpt><trkpt lat="43.5242487216476" lon="10.8983077494747"><ele>418.0</ele><time>2026-04-18T09:08:37.001Z</time></trkpt><trkpt lat="43.52418294701796" lon="10.898381043937588"><ele>418.0</ele><time>2026-04-18T09:08:38.001Z</time></trkpt><trkpt lat="43.524108856810535" lon="10.898456956383951"><ele>418.0</ele><time>2026-04-18T09:08:39.001Z</time></trkpt><trkpt lat="43.524019261496484" lon="10.898562125692141"><ele>418.0</ele><time>2026-04-18T09:08:40.001Z</time></trkpt><trkpt lat="43.52392619226121" lon="10.89867511332117"><ele>418.0</ele><time>2026-04-18T09:08:41.001Z</time></trkpt><trkpt lat="43.52383334858173" lon="10.89878086035405"><ele>419.59999999999997</ele><time>2026-04-18T09:08:42.001Z</time></trkpt><trkpt lat="43.523735044709284" lon="10.898891352713564"><ele>421.2</ele><time>2026-04-18T09:08:43.001Z</time></trkpt><trkpt lat="43.523689053275326" lon="10.898966502552067"><ele>422.8</ele><time>2026-04-18T09:08:44.001Z</time></trkpt><trkpt lat="43.52359567413309" lon="10.8990641688199"><ele>424.4</ele><time>2026-04-18T09:08:45.001Z</time></trkpt><trkpt lat="43.523500913278674" lon="10.899164762836978"><ele>426.0</ele><time>2026-04-18T09:08:46.001Z</time></trkpt><trkpt lat="43.5234047241518" lon="10.899267921535387"><ele>426.0</ele><time>2026-04-18T09:08:47.001Z</time></trkpt><trkpt lat="43.52329333286745" lon="10.899364211238204"><ele>426.0</ele><time>2026-04-18T09:08:48.001Z</time></trkpt><trkpt lat="43.523180432202494" lon="10.89945798528173"><ele>426.0</ele><time>2026-04-18T09:08:49.001Z</time></trkpt><trkpt lat="43.523064894889615" lon="10.899533852970855"><ele>426.0</ele><time>2026-04-18T09:08:50.001Z</time></trkpt><trkpt lat="43.522927517758625" lon="10.899582478635883"><ele>426.5</ele><time>2026-04-18T09:08:51.001Z</time></trkpt><trkpt lat="43.52280658133544" lon="10.89963937350109"><ele>427.0</ele><time>2026-04-18T09:08:52.001Z</time></trkpt><trkpt lat="43.52268242646472" lon="10.89969563645794"><ele>427.5</ele><time>2026-04-18T09:08:53.001Z</time></trkpt><trkpt lat="43.52254725587164" lon="10.89977483297233"><ele>428.0</ele><time>2026-04-18T09:08:54.001Z</time></trkpt><trkpt lat="43.52238674372693" lon="10.899828042232096"><ele>428.0</ele><time>2026-04-18T09:08:55.001Z</time></trkpt><trkpt lat="43.52223162834244" lon="10.899887466288858"><ele>428.0</ele><time>2026-04-18T09:08:56.001Z</time></trkpt><trkpt lat="43.52207024410195" lon="10.899970686816063"><ele>428.0</ele><time>2026-04-18T09:08:57.001Z</time></trkpt><trkpt lat="43.52192520133053" lon="10.900052266964094"><ele>429.66666666666663</ele><time>2026-04-18T09:08:58.001Z</time></trkpt><trkpt lat="43.52177765115927" lon="10.90015465326296"><ele>431.33333333333337</ele><time>2026-04-18T09:08:59.001Z</time></trkpt><trkpt lat="43.5216378199135" lon="10.900290025641448"><ele>433.0</ele><time>2026-04-18T09:09:00.001Z</time></trkpt><trkpt lat="43.52149034712703" lon="10.90044005611657"><ele>433.0</ele><time>2026-04-18T09:09:01.001Z</time></trkpt><trkpt lat="43.521354293663414" lon="10.900598076605911"><ele>433.0</ele><time>2026-04-18T09:09:02.001Z</time></trkpt><trkpt lat="43.52121594619801" lon="10.900750474032614"><ele>433.0</ele><time>2026-04-18T09:09:03.001Z</time></trkpt><trkpt lat="43.52106419275574" lon="10.900910378003058"><ele>435.0</ele><time>2026-04-18T09:09:04.001Z</time></trkpt><trkpt lat="43.52092642818388" lon="10.901072547867539"><ele>437.0</ele><time>2026-04-18T09:09:05.001Z</time></trkpt><trkpt lat="43.52078957858221" lon="10.901241662677958"><ele>439.0</ele><time>2026-04-18T09:09:06.001Z</time></trkpt><trkpt lat="43.52065359238146" lon="10.901391233101203"><ele>439.0</ele><time>2026-04-18T09:09:07.001Z</time></trkpt><trkpt lat="43.520515455793166" lon="10.901543482294477"><ele>439.0</ele><time>2026-04-18T09:09:08.001Z</time></trkpt><trkpt lat="43.520376520897564" lon="10.901693679223857"><ele>439.0</ele><time>2026-04-18T09:09:09.001Z</time></trkpt><trkpt lat="43.520234864809225" lon="10.90186329060145"><ele>438.0</ele><time>2026-04-18T09:09:10.001Z</time></trkpt><trkpt lat="43.52007509559717" lon="10.902031779699724"><ele>437.0</ele><time>2026-04-18T09:09:11.001Z</time></trkpt><trkpt lat="43.51992356890266" lon="10.902186627936093"><ele>436.0</ele><time>2026-04-18T09:09:12.001Z</time></trkpt><trkpt lat="43.51976335895404" lon="10.90231547551083"><ele>436.0</ele><time>2026-04-18T09:09:13.001Z</time></trkpt><trkpt lat="43.51960250770233" lon="10.902430709095292"><ele>436.0</ele><time>2026-04-18T09:09:14.001Z</time></trkpt><trkpt lat="43.5194293522675" lon="10.902534507335792"><ele>436.0</ele><time>2026-04-18T09:09:15.001Z</time></trkpt><trkpt lat="43.51924603095676" lon="10.902606464563943"><ele>437.6666666666667</ele><time>2026-04-18T09:09:16.001Z</time></trkpt><trkpt lat="43.51906023598537" lon="10.902668638473997"><ele>439.33333333333337</ele><time>2026-04-18T09:09:17.001Z</time></trkpt><trkpt lat="43.518873693138126" lon="10.902683485389742"><ele>441.0</ele><time>2026-04-18T09:09:18.001Z</time></trkpt><trkpt lat="43.5186849544833" lon="10.902685566841084"><ele>441.0</ele><time>2026-04-18T09:09:19.001Z</time></trkpt><trkpt lat="43.51850233713966" lon="10.902685582939787"><ele>441.0</ele><time>2026-04-18T09:09:20.001Z</time></trkpt><trkpt lat="43.51831740449899" lon="10.902686087975136"><ele>441.0</ele><time>2026-04-18T09:09:21.001Z</time></trkpt><trkpt lat="43.518125601972955" lon="10.902697640550098"><ele>441.0</ele><time>2026-04-18T09:09:22.001Z</time></trkpt><trkpt lat="43.51793530535145" lon="10.90270681078829"><ele>441.0</ele><time>2026-04-18T09:09:23.001Z</time></trkpt><trkpt lat="43.51775527037304" lon="10.902718874688443"><ele>441.0</ele><time>2026-04-18T09:09:24.001Z</time></trkpt><trkpt lat="43.51757351634448" lon="10.902713394951924"><ele>443.66666666666663</ele><time>2026-04-18T09:09:25.001Z</time></trkpt><trkpt lat="43.51739036895352" lon="10.902656172954176"><ele>446.3333333333333</ele><time>2026-04-18T09:09:26.001Z</time></trkpt><trkpt lat="43.51722241276971" lon="10.902560078607527"><ele>449.0</ele><time>2026-04-18T09:09:27.001Z</time></trkpt><trkpt lat="43.51707120388735" lon="10.902447687283178"><ele>453.0</ele><time>2026-04-18T09:09:28.001Z</time></trkpt><trkpt lat="43.51693814896477" lon="10.902280115111534"><ele>457.0</ele><time>2026-04-18T09:09:29Z</time></trkpt><trkpt lat="43.5168130732728" lon="10.902112123793103"><ele>461.0</ele><time>2026-04-18T09:09:30Z</time></trkpt><trkpt lat="43.516677087276236" lon="10.901951806664073"><ele>461.0</ele><time>2026-04-18T09:09:31Z</time></trkpt><trkpt lat="43.51654415829713" lon="10.901793472522506"><ele>461.0</ele><time>2026-04-18T09:09:32Z</time></trkpt><trkpt lat="43.516408390323484" lon="10.901634590602926"><ele>461.0</ele><time>2026-04-18T09:09:33Z</time></trkpt><trkpt lat="43.51627014932753" lon="10.901482573707693"><ele>462.0</ele><time>2026-04-18T09:09:34Z</time></trkpt><trkpt lat="43.5161244063524" lon="10.90135234784085"><ele>463.0</ele><time>2026-04-18T09:09:35Z</time></trkpt><trkpt lat="43.51596867202712" lon="10.901235984811139"><ele>464.0</ele><time>2026-04-18T09:09:36Z</time></trkpt><trkpt lat="43.51580082947678" lon="10.90113104117328"><ele>464.0</ele><time>2026-04-18T09:09:37Z</time></trkpt><trkpt lat="43.515629531308505" lon="10.901023997031324"><ele>464.0</ele><time>2026-04-18T09:09:38Z</time></trkpt><trkpt lat="43.515456620550275" lon="10.900905666928056"><ele>464.0</ele><time>2026-04-18T09:09:39Z</time></trkpt><trkpt lat="43.515283497081434" lon="10.900785750758567"><ele>467.0</ele><time>2026-04-18T09:09:40Z</time></trkpt><trkpt lat="43.51510960280313" lon="10.900675551328161"><ele>470.0</ele><time>2026-04-18T09:09:41Z</time></trkpt><trkpt lat="43.51493595063905" lon="10.900573831537098"><ele>473.0</ele><time>2026-04-18T09:09:42Z</time></trkpt><trkpt lat="43.51476360163635" lon="10.900468729741034"><ele>473.0</ele><time>2026-04-18T09:09:43Z</time></trkpt><trkpt lat="43.51458283553109" lon="10.900349737629572"><ele>473.0</ele><time>2026-04-18T09:09:44Z</time></trkpt><trkpt lat="43.51441041131057" lon="10.900228323065875"><ele>473.0</ele><time>2026-04-18T09:09:45Z</time></trkpt><trkpt lat="43.51425495029745" lon="10.900065325252731"><ele>474.66666666666663</ele><time>2026-04-18T09:09:46Z</time></trkpt><trkpt lat="43.51409983282503" lon="10.899902892573028"><ele>476.33333333333337</ele><time>2026-04-18T09:09:47Z</time></trkpt><trkpt lat="43.51394510706759" lon="10.899739324540228"><ele>478.0</ele><time>2026-04-18T09:09:48Z</time></trkpt><trkpt lat="43.51378962234471" lon="10.899573685553412"><ele>477.33333333333337</ele><time>2026-04-18T09:09:49Z</time></trkpt><trkpt lat="43.51363465158837" lon="10.89941183342338"><ele>476.66666666666663</ele><time>2026-04-18T09:09:50Z</time></trkpt><trkpt lat="43.513481386034265" lon="10.89926099388704"><ele>476.0</ele><time>2026-04-18T09:09:51Z</time></trkpt><trkpt lat="43.51332934886248" lon="10.899126257678253"><ele>476.66666666666663</ele><time>2026-04-18T09:09:52Z</time></trkpt><trkpt lat="43.513161575105336" lon="10.89904135453839"><ele>477.33333333333337</ele><time>2026-04-18T09:09:53Z</time></trkpt><trkpt lat="43.51299686015094" lon="10.898965814101048"><ele>478.0</ele><time>2026-04-18T09:09:54Z</time></trkpt><trkpt lat="43.51282986554921" lon="10.898913095499745"><ele>478.0</ele><time>2026-04-18T09:09:55Z</time></trkpt><trkpt lat="43.512658265872226" lon="10.898908587945087"><ele>478.0</ele><time>2026-04-18T09:09:56Z</time></trkpt><trkpt lat="43.5124693594526" lon="10.898954652806276"><ele>478.0</ele><time>2026-04-18T09:09:57Z</time></trkpt><trkpt lat="43.512299543457715" lon="10.899042148507935"><ele>478.0</ele><time>2026-04-18T09:09:58Z</time></trkpt><trkpt lat="43.51214369595177" lon="10.899159575566154"><ele>478.0</ele><time>2026-04-18T09:09:59Z</time></trkpt><trkpt lat="43.51200817005706" lon="10.899307468013484"><ele>478.0</ele><time>2026-04-18T09:10:00Z</time></trkpt><trkpt lat="43.51189920149515" lon="10.899488695234497"><ele>480.0</ele><time>2026-04-18T09:10:01Z</time></trkpt><trkpt lat="43.511815196016826" lon="10.899697543731133"><ele>482.0</ele><time>2026-04-18T09:10:02Z</time></trkpt><trkpt lat="43.51176656468403" lon="10.899928876472726"><ele>484.0</ele><time>2026-04-18T09:10:03Z</time></trkpt><trkpt lat="43.511750967556765" lon="10.900175521573617"><ele>484.0</ele><time>2026-04-18T09:10:04Z</time></trkpt><trkpt lat="43.51174475966349" lon="10.900410865978573"><ele>484.0</ele><time>2026-04-18T09:10:05Z</time></trkpt><trkpt lat="43.5117597436923" lon="10.900652428151682"><ele>484.0</ele><time>2026-04-18T09:10:06Z</time></trkpt><trkpt lat="43.5117891095984" lon="10.900893346752236"><ele>484.0</ele><time>2026-04-18T09:10:07Z</time></trkpt><trkpt lat="43.5118345631205" lon="10.901130524529455"><ele>484.0</ele><time>2026-04-18T09:10:08Z</time></trkpt><trkpt lat="43.511899918357216" lon="10.901366412947084"><ele>484.0</ele><time>2026-04-18T09:10:09Z</time></trkpt><trkpt lat="43.51197667293637" lon="10.90159134626119"><ele>483.6666666666667</ele><time>2026-04-18T09:10:10Z</time></trkpt><trkpt lat="43.512054164222285" lon="10.901816599607281"><ele>483.33333333333337</ele><time>2026-04-18T09:10:11Z</time></trkpt><trkpt lat="43.51213471142223" lon="10.902043916435364"><ele>483.0</ele><time>2026-04-18T09:10:12Z</time></trkpt><trkpt lat="43.51219054542522" lon="10.902289896177807"><ele>483.0</ele><time>2026-04-18T09:10:13Z</time></trkpt><trkpt lat="43.51220102214617" lon="10.902553425778741"><ele>483.0</ele><time>2026-04-18T09:10:14Z</time></trkpt><trkpt lat="43.512203270858755" lon="10.90282331280376"><ele>483.0</ele><time>2026-04-18T09:10:15Z</time></trkpt><trkpt lat="43.51219903976829" lon="10.903087386821802"><ele>483.33333333333337</ele><time>2026-04-18T09:10:16Z</time></trkpt><trkpt lat="43.51217604423389" lon="10.903353064287794"><ele>483.6666666666667</ele><time>2026-04-18T09:10:17Z</time></trkpt><trkpt lat="43.512155289943514" lon="10.903597910759418"><ele>484.0</ele><time>2026-04-18T09:10:18Z</time></trkpt><trkpt lat="43.51213769680913" lon="10.903826073810745"><ele>484.33333333333337</ele><time>2026-04-18T09:10:19Z</time></trkpt><trkpt lat="43.51210877499716" lon="10.904042555486294"><ele>484.66666666666663</ele><time>2026-04-18T09:10:20Z</time></trkpt><trkpt lat="43.51205899892505" lon="10.904244073923794"><ele>485.0</ele><time>2026-04-18T09:10:21Z</time></trkpt><trkpt lat="43.51195811662601" lon="10.904420196378258"><ele>486.66666666666663</ele><time>2026-04-18T09:10:22Z</time></trkpt><trkpt lat="43.51184017927963" lon="10.904589995799652"><ele>488.33333333333337</ele><time>2026-04-18T09:10:23Z</time></trkpt><trkpt lat="43.511692463701735" lon="10.904712511716589"><ele>490.0</ele><time>2026-04-18T09:10:24Z</time></trkpt><trkpt lat="43.51152191458649" lon="10.904790723446757"><ele>490.0</ele><time>2026-04-18T09:10:25Z</time></trkpt><trkpt lat="43.51134894213861" lon="10.90485359136213"><ele>490.0</ele><time>2026-04-18T09:10:26Z</time></trkpt><trkpt lat="43.51117770081134" lon="10.904926107945206"><ele>490.0</ele><time>2026-04-18T09:10:27Z</time></trkpt><trkpt lat="43.5110028763653" lon="10.9049865843888"><ele>489.33333333333337</ele><time>2026-04-18T09:10:28Z</time></trkpt><trkpt lat="43.510824599772846" lon="10.905054285815755"><ele>488.66666666666663</ele><time>2026-04-18T09:10:29Z</time></trkpt><trkpt lat="43.510642614896916" lon="10.905118003382748"><ele>488.0</ele><time>2026-04-18T09:10:30Z</time></trkpt><trkpt lat="43.51046166325335" lon="10.905183128568995"><ele>489.0</ele><time>2026-04-18T09:10:31Z</time></trkpt><trkpt lat="43.510278788120566" lon="10.905247893104518"><ele>490.0</ele><time>2026-04-18T09:10:32Z</time></trkpt><trkpt lat="43.510097326078764" lon="10.905313903620867"><ele>491.0</ele><time>2026-04-18T09:10:33Z</time></trkpt><trkpt lat="43.50991679401663" lon="10.905378277413224"><ele>491.0</ele><time>2026-04-18T09:10:34Z</time></trkpt><trkpt lat="43.50973379823622" lon="10.905448578638783"><ele>491.0</ele><time>2026-04-18T09:10:35Z</time></trkpt><trkpt lat="43.50954839642627" lon="10.90551391883688"><ele>491.0</ele><time>2026-04-18T09:10:36Z</time></trkpt><trkpt lat="43.50936551592439" lon="10.905577574595352"><ele>493.66666666666663</ele><time>2026-04-18T09:10:37Z</time></trkpt><trkpt lat="43.50918296554998" lon="10.90563940590253"><ele>496.33333333333337</ele><time>2026-04-18T09:10:38Z</time></trkpt><trkpt lat="43.508997917065145" lon="10.905706436214384"><ele>499.0</ele><time>2026-04-18T09:10:39Z</time></trkpt><trkpt lat="43.50881188721547" lon="10.905773223897677"><ele>501.0</ele><time>2026-04-18T09:10:40Z</time></trkpt><trkpt lat="43.50862690399851" lon="10.905837137358546"><ele>503.0</ele><time>2026-04-18T09:10:41Z</time></trkpt><trkpt lat="43.50843966746578" lon="10.905903825610348"><ele>505.0</ele><time>2026-04-18T09:10:42Z</time></trkpt><trkpt lat="43.508254154916855" lon="10.905966415194793"><ele>505.6666666666667</ele><time>2026-04-18T09:10:43Z</time></trkpt><trkpt lat="43.508068642663744" lon="10.906030237336562"><ele>506.33333333333337</ele><time>2026-04-18T09:10:44Z</time></trkpt><trkpt lat="43.507882077774" lon="10.906096110376687"><ele>507.0</ele><time>2026-04-18T09:10:45Z</time></trkpt><trkpt lat="43.50770544548092" lon="10.906178279587103"><ele>508.0</ele><time>2026-04-18T09:10:46Z</time></trkpt><trkpt lat="43.507539492102545" lon="10.906288264207483"><ele>509.0</ele><time>2026-04-18T09:10:47Z</time></trkpt><trkpt lat="43.50738218828181" lon="10.906433240644324"><ele>510.0</ele><time>2026-04-18T09:10:48Z</time></trkpt><trkpt lat="43.507238617521644" lon="10.906601777877436"><ele>512.6666666666666</ele><time>2026-04-18T09:10:49Z</time></trkpt><trkpt lat="43.50709614365684" lon="10.906769011030296"><ele>515.3333333333333</ele><time>2026-04-18T09:10:50Z</time></trkpt><trkpt lat="43.50695638216018" lon="10.90692968295252"><ele>518.0</ele><time>2026-04-18T09:10:51Z</time></trkpt><trkpt lat="43.50681036615357" lon="10.907083284124885"><ele>518.6666666666666</ele><time>2026-04-18T09:10:52Z</time></trkpt><trkpt lat="43.50666846185151" lon="10.907245553810881"><ele>519.3333333333334</ele><time>2026-04-18T09:10:53Z</time></trkpt><trkpt lat="43.50652214478991" lon="10.907414388021447"><ele>520.0</ele><time>2026-04-18T09:10:54Z</time></trkpt><trkpt lat="43.50637367230118" lon="10.907580831063571"><ele>521.3333333333334</ele><time>2026-04-18T09:10:55Z</time></trkpt><trkpt lat="43.50622496486625" lon="10.907744692997072"><ele>522.6666666666666</ele><time>2026-04-18T09:10:56Z</time></trkpt><trkpt lat="43.506079964536006" lon="10.907904086895206"><ele>524.0</ele><time>2026-04-18T09:10:57Z</time></trkpt><trkpt lat="43.505909502904736" lon="10.908013397569555"><ele>524.0</ele><time>2026-04-18T09:10:58Z</time></trkpt><trkpt lat="43.50572141369513" lon="10.908110113414931"><ele>524.0</ele><time>2026-04-18T09:10:59Z</time></trkpt><trkpt lat="43.505531180813975" lon="10.908160662413644"><ele>524.0</ele><time>2026-04-18T09:11:00Z</time></trkpt><trkpt lat="43.50533688539166" lon="10.908161318742584"><ele>525.3333333333333</ele><time>2026-04-18T09:11:01Z</time></trkpt><trkpt lat="43.505141033232164" lon="10.908154512311468"><ele>526.6666666666666</ele><time>2026-04-18T09:11:02Z</time></trkpt><trkpt lat="43.50494286256069" lon="10.908114530718855"><ele>528.0</ele><time>2026-04-18T09:11:03Z</time></trkpt><trkpt lat="43.50474551561787" lon="10.90808139805979"><ele>530.0</ele><time>2026-04-18T09:11:04Z</time></trkpt><trkpt lat="43.50454669352235" lon="10.908049217942107"><ele>532.0</ele><time>2026-04-18T09:11:05Z</time></trkpt><trkpt lat="43.504343101057046" lon="10.908022060643605"><ele>534.0</ele><time>2026-04-18T09:11:06Z</time></trkpt><trkpt lat="43.50414192934342" lon="10.907993695130592"><ele>534.0</ele><time>2026-04-18T09:11:07Z</time></trkpt><trkpt lat="43.503938721624294" lon="10.90796443626393"><ele>534.0</ele><time>2026-04-18T09:11:08Z</time></trkpt><trkpt lat="43.503734272757214" lon="10.90793441113254"><ele>534.0</ele><time>2026-04-18T09:11:09Z</time></trkpt><trkpt lat="43.50353339177881" lon="10.907903433659234"><ele>534.6666666666666</ele><time>2026-04-18T09:11:10Z</time></trkpt><trkpt lat="43.50332915612775" lon="10.907873891563368"><ele>535.3333333333333</ele><time>2026-04-18T09:11:11Z</time></trkpt><trkpt lat="43.50312769059883" lon="10.907842555855892"><ele>536.0</ele><time>2026-04-18T09:11:12Z</time></trkpt><trkpt lat="43.50293394945927" lon="10.907811302318667"><ele>535.3333333333333</ele><time>2026-04-18T09:11:13Z</time></trkpt><trkpt lat="43.50274452486467" lon="10.907780476885808"><ele>534.6666666666666</ele><time>2026-04-18T09:11:14Z</time></trkpt><trkpt lat="43.502559356110936" lon="10.907750323854838"><ele>534.0</ele><time>2026-04-18T09:11:15Z</time></trkpt><trkpt lat="43.50238097833578" lon="10.907721094585774"><ele>534.0</ele><time>2026-04-18T09:11:16Z</time></trkpt><trkpt lat="43.50220270516488" lon="10.907697806712884"><ele>534.0</ele><time>2026-04-18T09:11:17Z</time></trkpt><trkpt lat="43.5020342304502" lon="10.907675714769773"><ele>534.0</ele><time>2026-04-18T09:11:18Z</time></trkpt><trkpt lat="43.50187554079126" lon="10.907667877392496"><ele>535.0</ele><time>2026-04-18T09:11:19Z</time></trkpt><trkpt lat="43.50172772608524" lon="10.907695117617145"><ele>536.0</ele><time>2026-04-18T09:11:20Z</time></trkpt><trkpt lat="43.50158486547212" lon="10.907764748287887"><ele>537.0</ele><time>2026-04-18T09:11:21Z</time></trkpt><trkpt lat="43.50144079806913" lon="10.907877020742724"><ele>537.0</ele><time>2026-04-18T09:11:22Z</time></trkpt><trkpt lat="43.501308796219995" lon="10.90803052134362"><ele>537.0</ele><time>2026-04-18T09:11:23.001Z</time></trkpt><trkpt lat="43.50119520599914" lon="10.908209279878228"><ele>537.0</ele><time>2026-04-18T09:11:24Z</time></trkpt><trkpt lat="43.501089511296016" lon="10.90841288207422"><ele>538.6666666666666</ele><time>2026-04-18T09:11:25Z</time></trkpt><trkpt lat="43.50098441463445" lon="10.908592369418056"><ele>540.3333333333333</ele><time>2026-04-18T09:11:26Z</time></trkpt><trkpt lat="43.5008968075899" lon="10.908800965347389"><ele>542.0</ele><time>2026-04-18T09:11:27Z</time></trkpt><trkpt lat="43.50081736040694" lon="10.909037865984565"><ele>542.0</ele><time>2026-04-18T09:11:28Z</time></trkpt><trkpt lat="43.500765006921995" lon="10.909285201163867"><ele>542.0</ele><time>2026-04-18T09:11:29Z</time></trkpt><trkpt lat="43.500701659694904" lon="10.909521452996636"><ele>542.0</ele><time>2026-04-18T09:11:30Z</time></trkpt><trkpt lat="43.500650592727695" lon="10.909727964228278"><ele>542.0</ele><time>2026-04-18T09:11:31Z</time></trkpt><trkpt lat="43.50059213216742" lon="10.909918725363756"><ele>542.0</ele><time>2026-04-18T09:11:32Z</time></trkpt><trkpt lat="43.50057865262175" lon="10.910123728779023"><ele>542.0</ele><time>2026-04-18T09:11:33Z</time></trkpt><trkpt lat="43.500567700712196" lon="10.910330515444151"><ele>543.3333333333333</ele><time>2026-04-18T09:11:34Z</time></trkpt><trkpt lat="43.50058979190603" lon="10.910545963478857"><ele>544.6666666666666</ele><time>2026-04-18T09:11:35Z</time></trkpt><trkpt lat="43.50063245737765" lon="10.910764276357265"><ele>546.0</ele><time>2026-04-18T09:11:36Z</time></trkpt><trkpt lat="43.500656454502554" lon="10.910996803701455"><ele>546.0</ele><time>2026-04-18T09:11:37Z</time></trkpt><trkpt lat="43.50069736510064" lon="10.911220247882842"><ele>546.0</ele><time>2026-04-18T09:11:38Z</time></trkpt><trkpt lat="43.5007497997818" lon="10.91144691062581"><ele>546.0</ele><time>2026-04-18T09:11:39Z</time></trkpt><trkpt lat="43.500786115493604" lon="10.911651726002608"><ele>544.75</ele><time>2026-04-18T09:11:40Z</time></trkpt><trkpt lat="43.500782306505954" lon="10.911861590726106"><ele>543.5</ele><time>2026-04-18T09:11:41Z</time></trkpt><trkpt lat="43.50075401232933" lon="10.912053271544682"><ele>542.25</ele><time>2026-04-18T09:11:42Z</time></trkpt><trkpt lat="43.50070165441776" lon="10.912254089923653"><ele>541.0</ele><time>2026-04-18T09:11:43Z</time></trkpt><trkpt lat="43.500622701461616" lon="10.912488816707924"><ele>539.6666666666667</ele><time>2026-04-18T09:11:44Z</time></trkpt><trkpt lat="43.50055145120273" lon="10.912735245667735"><ele>538.3333333333334</ele><time>2026-04-18T09:11:45Z</time></trkpt><trkpt lat="43.50046312716617" lon="10.912970140184987"><ele>537.0</ele><time>2026-04-18T09:11:46Z</time></trkpt><trkpt lat="43.50036851843683" lon="10.913196746929964"><ele>537.0</ele><time>2026-04-18T09:11:47Z</time></trkpt><trkpt lat="43.50027499958522" lon="10.913390833038008"><ele>537.0</ele><time>2026-04-18T09:11:48Z</time></trkpt><trkpt lat="43.50016326655539" lon="10.913625459447589"><ele>537.0</ele><time>2026-04-18T09:11:49Z</time></trkpt><trkpt lat="43.5000680537914" lon="10.913823940756291"><ele>537.25</ele><time>2026-04-18T09:11:50Z</time></trkpt><trkpt lat="43.49998975971708" lon="10.914013698144704"><ele>537.5</ele><time>2026-04-18T09:11:51Z</time></trkpt><trkpt lat="43.49991859970655" lon="10.914184863394961"><ele>537.75</ele><time>2026-04-18T09:11:52Z</time></trkpt><trkpt lat="43.49985145425155" lon="10.91434093170923"><ele>538.0</ele><time>2026-04-18T09:11:53Z</time></trkpt><trkpt lat="43.4998221776986" lon="10.914522927795167"><ele>538.0</ele><time>2026-04-18T09:11:54Z</time></trkpt><trkpt lat="43.49983688377999" lon="10.914720641982"><ele>538.0</ele><time>2026-04-18T09:11:55Z</time></trkpt><trkpt lat="43.49985470975378" lon="10.914919327991303"><ele>538.0</ele><time>2026-04-18T09:11:56Z</time></trkpt><trkpt lat="43.49988517870716" lon="10.915122637179746"><ele>538.0</ele><time>2026-04-18T09:11:57Z</time></trkpt><trkpt lat="43.4998938464942" lon="10.91534812853269"><ele>537.6666666666667</ele><time>2026-04-18T09:11:58Z</time></trkpt><trkpt lat="43.4999300159737" lon="10.915577792225381"><ele>537.3333333333334</ele><time>2026-04-18T09:11:59Z</time></trkpt><trkpt lat="43.49996200606674" lon="10.915809293780807"><ele>537.0</ele><time>2026-04-18T09:12:00Z</time></trkpt><trkpt lat="43.49998810253259" lon="10.916016165677453"><ele>536.5</ele><time>2026-04-18T09:12:01Z</time></trkpt><trkpt lat="43.49999788732682" lon="10.916213727877686"><ele>536.0</ele><time>2026-04-18T09:12:02Z</time></trkpt><trkpt lat="43.499950989492426" lon="10.916407496347741"><ele>535.5</ele><time>2026-04-18T09:12:03Z</time></trkpt><trkpt lat="43.49988368429085" lon="10.916575695774137"><ele>535.0</ele><time>2026-04-18T09:12:04Z</time></trkpt><trkpt lat="43.499782863842576" lon="10.916738375936376"><ele>536.3333333333334</ele><time>2026-04-18T09:12:05Z</time></trkpt><trkpt lat="43.49965604650687" lon="10.916847827550587"><ele>537.6666666666666</ele><time>2026-04-18T09:12:06Z</time></trkpt><trkpt lat="43.4995110030961" lon="10.916962452142272"><ele>539.0</ele><time>2026-04-18T09:12:07Z</time></trkpt><trkpt lat="43.49937799443178" lon="10.917066887596741"><ele>540.3333333333333</ele><time>2026-04-18T09:12:08Z</time></trkpt><trkpt lat="43.49925161066639" lon="10.917188589844661"><ele>541.6666666666666</ele><time>2026-04-18T09:12:09Z</time></trkpt><trkpt lat="43.49911822004803" lon="10.91728878646011"><ele>543.0</ele><time>2026-04-18T09:12:10Z</time></trkpt><trkpt lat="43.49898841167782" lon="10.917393726766814"><ele>543.0</ele><time>2026-04-18T09:12:11Z</time></trkpt><trkpt lat="43.498872737792034" lon="10.917482664464451"><ele>543.0</ele><time>2026-04-18T09:12:12Z</time></trkpt><trkpt lat="43.49876451404581" lon="10.9175670195564"><ele>543.0</ele><time>2026-04-18T09:12:13Z</time></trkpt><trkpt lat="43.49864528865781" lon="10.917644189200562"><ele>543.0</ele><time>2026-04-18T09:12:14Z</time></trkpt><trkpt lat="43.498506803979566" lon="10.917668806214413"><ele>541.75</ele><time>2026-04-18T09:12:15Z</time></trkpt><trkpt lat="43.49836310589335" lon="10.917691990222824"><ele>540.5</ele><time>2026-04-18T09:12:16Z</time></trkpt><trkpt lat="43.498218551947424" lon="10.91772395604606"><ele>539.25</ele><time>2026-04-18T09:12:17Z</time></trkpt><trkpt lat="43.49808918425742" lon="10.917783149256511"><ele>538.0</ele><time>2026-04-18T09:12:18Z</time></trkpt><trkpt lat="43.49797917855724" lon="10.91786291594161"><ele>538.0</ele><time>2026-04-18T09:12:19Z</time></trkpt><trkpt lat="43.49790753676809" lon="10.918017568170322"><ele>538.0</ele><time>2026-04-18T09:12:20Z</time></trkpt><trkpt lat="43.497846125114926" lon="10.918224856583038"><ele>538.0</ele><time>2026-04-18T09:12:21Z</time></trkpt><trkpt lat="43.497805011342614" lon="10.918469577929255"><ele>538.0</ele><time>2026-04-18T09:12:22Z</time></trkpt><trkpt lat="43.49774726450019" lon="10.918721384472839"><ele>538.0</ele><time>2026-04-18T09:12:23Z</time></trkpt><trkpt lat="43.49767871155011" lon="10.918956796411916"><ele>538.0</ele><time>2026-04-18T09:12:24Z</time></trkpt><trkpt lat="43.497604976265805" lon="10.919181990073163"><ele>536.0</ele><time>2026-04-18T09:12:25Z</time></trkpt><trkpt lat="43.49753350610355" lon="10.919396172869911"><ele>534.0</ele><time>2026-04-18T09:12:26Z</time></trkpt><trkpt lat="43.497467345827744" lon="10.919585282451342"><ele>532.0</ele><time>2026-04-18T09:12:27Z</time></trkpt><trkpt lat="43.49740182994565" lon="10.91976586968153"><ele>532.0</ele><time>2026-04-18T09:12:28Z</time></trkpt><trkpt lat="43.497351099694846" lon="10.91997269884327"><ele>532.0</ele><time>2026-04-18T09:12:29Z</time></trkpt><trkpt lat="43.49733395042511" lon="10.920201864934768"><ele>532.0</ele><time>2026-04-18T09:12:30Z</time></trkpt><trkpt lat="43.49735938361974" lon="10.92043035004373"><ele>531.0</ele><time>2026-04-18T09:12:31Z</time></trkpt><trkpt lat="43.497374885631785" lon="10.920605087177563"><ele>530.0</ele><time>2026-04-18T09:12:32Z</time></trkpt><trkpt lat="43.49735901120379" lon="10.92076590265098"><ele>529.0</ele><time>2026-04-18T09:12:33Z</time></trkpt><trkpt lat="43.497318410113735" lon="10.920880453874513"><ele>528.0</ele><time>2026-04-18T09:12:34Z</time></trkpt><trkpt lat="43.49723319697649" lon="10.920934684786658"><ele>527.0</ele><time>2026-04-18T09:12:35Z</time></trkpt><trkpt lat="43.49712396246535" lon="10.920979340964104"><ele>524.75</ele><time>2026-04-18T09:12:36Z</time></trkpt><trkpt lat="43.497008629711196" lon="10.921039698210642"><ele>522.5</ele><time>2026-04-18T09:12:37Z</time></trkpt><trkpt lat="43.496873963777816" lon="10.92110526128296"><ele>520.25</ele><time>2026-04-18T09:12:38Z</time></trkpt><trkpt lat="43.496717397126076" lon="10.92117334134228"><ele>518.0</ele><time>2026-04-18T09:12:39.001Z</time></trkpt><trkpt lat="43.4965750246853" lon="10.921244373276933"><ele>518.0</ele><time>2026-04-18T09:12:40.001Z</time></trkpt><trkpt lat="43.49646206415713" lon="10.92135450519257"><ele>518.0</ele><time>2026-04-18T09:12:41.001Z</time></trkpt><trkpt lat="43.49634357582031" lon="10.92149158504885"><ele>518.0</ele><time>2026-04-18T09:12:42.001Z</time></trkpt><trkpt lat="43.49624555299786" lon="10.921687465336575"><ele>517.6666666666666</ele><time>2026-04-18T09:12:43.001Z</time></trkpt><trkpt lat="43.49612871647381" lon="10.921900452657058"><ele>517.3333333333334</ele><time>2026-04-18T09:12:44.001Z</time></trkpt><trkpt lat="43.4960333954979" lon="10.92210607520451"><ele>517.0</ele><time>2026-04-18T09:12:45.001Z</time></trkpt><trkpt lat="43.495934295961405" lon="10.922319698684502"><ele>517.0</ele><time>2026-04-18T09:12:46.001Z</time></trkpt><trkpt lat="43.495823972974854" lon="10.92255638897821"><ele>517.0</ele><time>2026-04-18T09:12:47.001Z</time></trkpt><trkpt lat="43.4957129738433" lon="10.92277096681229"><ele>517.0</ele><time>2026-04-18T09:12:48.001Z</time></trkpt><trkpt lat="43.49558156114549" lon="10.922962707113218"><ele>517.6666666666667</ele><time>2026-04-18T09:12:49.001Z</time></trkpt><trkpt lat="43.495435540950524" lon="10.923137912890441"><ele>518.3333333333334</ele><time>2026-04-18T09:12:50.001Z</time></trkpt><trkpt lat="43.495290574029625" lon="10.923309863742771"><ele>519.0</ele><time>2026-04-18T09:12:51.001Z</time></trkpt><trkpt lat="43.49515305508285" lon="10.923496782914372"><ele>517.6666666666666</ele><time>2026-04-18T09:12:52.001Z</time></trkpt><trkpt lat="43.4950079516331" lon="10.923673224979737"><ele>516.3333333333333</ele><time>2026-04-18T09:12:53.001Z</time></trkpt><trkpt lat="43.494874201772525" lon="10.923842970084362"><ele>515.0</ele><time>2026-04-18T09:12:54.001Z</time></trkpt><trkpt lat="43.494749587807114" lon="10.923982298675925"><ele>515.0</ele><time>2026-04-18T09:12:55.001Z</time></trkpt><trkpt lat="43.49462707926478" lon="10.924136199339372"><ele>515.0</ele><time>2026-04-18T09:12:56.001Z</time></trkpt><trkpt lat="43.49451223799418" lon="10.924304713737865"><ele>515.0</ele><time>2026-04-18T09:12:57.001Z</time></trkpt><trkpt lat="43.494377724226354" lon="10.92445926017375"><ele>512.3333333333333</ele><time>2026-04-18T09:12:58.001Z</time></trkpt><trkpt lat="43.49426773723454" lon="10.924636075991815"><ele>509.66666666666663</ele><time>2026-04-18T09:12:59.001Z</time></trkpt><trkpt lat="43.494149768692" lon="10.92478903577002"><ele>507.0</ele><time>2026-04-18T09:13:00.001Z</time></trkpt><trkpt lat="43.494051458341524" lon="10.924926518003286"><ele>507.0</ele><time>2026-04-18T09:13:01.001Z</time></trkpt><trkpt lat="43.493975105905" lon="10.925052414096088"><ele>507.0</ele><time>2026-04-18T09:13:02.001Z</time></trkpt><trkpt lat="43.49392128857186" lon="10.92521233459152"><ele>507.0</ele><time>2026-04-18T09:13:03.001Z</time></trkpt><trkpt lat="43.49390093938485" lon="10.925397702344505"><ele>507.0</ele><time>2026-04-18T09:13:04.001Z</time></trkpt><trkpt lat="43.493899393299046" lon="10.925590224773885"><ele>506.0</ele><time>2026-04-18T09:13:05.001Z</time></trkpt><trkpt lat="43.49390316361463" lon="10.925774252383306"><ele>505.0</ele><time>2026-04-18T09:13:06.001Z</time></trkpt><trkpt lat="43.4939033381449" lon="10.92595652174754"><ele>504.0</ele><time>2026-04-18T09:13:07.001Z</time></trkpt><trkpt lat="43.49389985222864" lon="10.926134819164178"><ele>503.0</ele><time>2026-04-18T09:13:08.001Z</time></trkpt><trkpt lat="43.493894813076146" lon="10.926300019616146"><ele>502.16666666666663</ele><time>2026-04-18T09:13:09.001Z</time></trkpt><trkpt lat="43.4938772325215" lon="10.926445649799776"><ele>501.3333333333333</ele><time>2026-04-18T09:13:10.001Z</time></trkpt><trkpt lat="43.493879671652074" lon="10.92654070213186"><ele>500.5</ele><time>2026-04-18T09:13:11.001Z</time></trkpt><trkpt lat="43.49387530034925" lon="10.926675354726505"><ele>499.66666666666663</ele><time>2026-04-18T09:13:13.001Z</time></trkpt><trkpt lat="43.493841182479315" lon="10.926755736264159"><ele>498.8333333333333</ele><time>2026-04-18T09:13:24.001Z</time></trkpt><trkpt lat="43.493770540014914" lon="10.926805668001023"><ele>498.0</ele><time>2026-04-18T09:13:26.001Z</time></trkpt><trkpt lat="43.493700414245374" lon="10.926875975828528"><ele>498.0</ele><time>2026-04-18T09:13:28.001Z</time></trkpt><trkpt lat="43.49363674773726" lon="10.926938331791817"><ele>497.99999999999994</ele><time>2026-04-18T09:14:05Z</time></trkpt><trkpt lat="43.493560681970436" lon="10.927065697913786"><ele>497.99999999999994</ele><time>2026-04-18T09:14:08Z</time></trkpt><trkpt lat="43.49347923603669" lon="10.927196292031116"><ele>498.0</ele><time>2026-04-18T09:14:10Z</time></trkpt><trkpt lat="43.493422067593876" lon="10.927273293377773"><ele>498.0</ele><time>2026-04-18T09:14:11Z</time></trkpt><trkpt lat="43.49336335747609" lon="10.927365850492109"><ele>498.0</ele><time>2026-04-18T09:14:12Z</time></trkpt><trkpt lat="43.493286652575144" lon="10.927468075000023"><ele>497.99999999999994</ele><time>2026-04-18T09:14:13Z</time></trkpt><trkpt lat="43.49321598897493" lon="10.927585078462632"><ele>497.99999999999994</ele><time>2026-04-18T09:14:14Z</time></trkpt><trkpt lat="43.493140850326114" lon="10.927687007082609"><ele>498.0</ele><time>2026-04-18T09:14:15Z</time></trkpt><trkpt lat="43.493071538925165" lon="10.927789845533468"><ele>498.0</ele><time>2026-04-18T09:14:16Z</time></trkpt><trkpt lat="43.49299412114143" lon="10.927897439153302"><ele>495.4</ele><time>2026-04-18T09:14:17Z</time></trkpt><trkpt lat="43.49291892758867" lon="10.928003561621667"><ele>492.79999999999995</ele><time>2026-04-18T09:14:18Z</time></trkpt><trkpt lat="43.49284323005467" lon="10.92812390534981"><ele>490.2</ele><time>2026-04-18T09:14:19Z</time></trkpt><trkpt lat="43.49278223417894" lon="10.928207967079768"><ele>487.6</ele><time>2026-04-18T09:14:20Z</time></trkpt><trkpt lat="43.49273064634228" lon="10.928288842506317"><ele>485.0</ele><time>2026-04-18T09:14:21Z</time></trkpt><trkpt lat="43.492652131596216" lon="10.928384139501043"><ele>485.0</ele><time>2026-04-18T09:14:23Z</time></trkpt><trkpt lat="43.49258506447796" lon="10.928424315596676"><ele>484.0</ele><time>2026-04-18T09:14:26Z</time></trkpt></trkseg><trkseg><trkpt lat="43.54424412939255" lon="10.92684879315877"><ele>334.0</ele><time>2026-04-18T09:34:58Z</time></trkpt><trkpt lat="43.54415440133965" lon="10.926883572063728"><ele>334.0</ele><time>2026-04-18T09:34:59Z</time></trkpt><trkpt lat="43.54407431941339" lon="10.926904174017489"><ele>334.0</ele><time>2026-04-18T09:35:00Z</time></trkpt><trkpt lat="43.54398461759288" lon="10.926921752733008"><ele>334.0</ele><time>2026-04-18T09:35:01Z</time></trkpt><trkpt lat="43.54388274647113" lon="10.926942649106268"><ele>334.0</ele><time>2026-04-18T09:35:02Z</time></trkpt><trkpt lat="43.54379257771564" lon="10.926962240973218"><ele>334.79999999999995</ele><time>2026-04-18T09:35:03Z</time></trkpt><trkpt lat="43.543706519171494" lon="10.926981223773904"><ele>335.59999999999997</ele><time>2026-04-18T09:35:04Z</time></trkpt><trkpt lat="43.543613675855234" lon="10.927006514793838"><ele>336.4</ele><time>2026-04-18T09:35:05Z</time></trkpt><trkpt lat="43.54351495033035" lon="10.927032647683468"><ele>337.2</ele><time>2026-04-18T09:35:06Z</time></trkpt><trkpt lat="43.54340846875768" lon="10.92705804494109"><ele>338.0</ele><time>2026-04-18T09:35:07Z</time></trkpt><trkpt lat="43.54329258968314" lon="10.927084034740153"><ele>338.0</ele><time>2026-04-18T09:35:08Z</time></trkpt><trkpt lat="43.543196050953206" lon="10.927160870601929"><ele>338.0</ele><time>2026-04-18T09:35:09Z</time></trkpt><trkpt lat="43.54306959116811" lon="10.927148076590335"><ele>338.0</ele><time>2026-04-18T09:35:10Z</time></trkpt><trkpt lat="43.542952433874866" lon="10.927186415419367"><ele>338.0</ele><time>2026-04-18T09:35:11Z</time></trkpt><trkpt lat="43.54283388409334" lon="10.92720806130149"><ele>339.0</ele><time>2026-04-18T09:35:12Z</time></trkpt><trkpt lat="43.54271800752863" lon="10.927230185070243"><ele>340.0</ele><time>2026-04-18T09:35:13Z</time></trkpt><trkpt lat="43.54260506152274" lon="10.927275403534065"><ele>341.0</ele><time>2026-04-18T09:35:14Z</time></trkpt><trkpt lat="43.54247934925037" lon="10.927248691922754"><ele>342.0</ele><time>2026-04-18T09:35:15Z</time></trkpt><trkpt lat="43.54235810420273" lon="10.927245458343053"><ele>342.0</ele><time>2026-04-18T09:35:16Z</time></trkpt><trkpt lat="43.54222976811136" lon="10.927240851084813"><ele>342.0</ele><time>2026-04-18T09:35:17Z</time></trkpt><trkpt lat="43.54209739668781" lon="10.927236493236208"><ele>342.0</ele><time>2026-04-18T09:35:18Z</time></trkpt><trkpt lat="43.541961131308085" lon="10.927233587435973"><ele>342.0</ele><time>2026-04-18T09:35:19Z</time></trkpt><trkpt lat="43.54182630223076" lon="10.927230033683582"><ele>343.75</ele><time>2026-04-18T09:35:20Z</time></trkpt><trkpt lat="43.54169664939418" lon="10.927226580113913"><ele>345.5</ele><time>2026-04-18T09:35:21Z</time></trkpt><trkpt lat="43.54156173918774" lon="10.92722638687334"><ele>347.25</ele><time>2026-04-18T09:35:22Z</time></trkpt><trkpt lat="43.54141847246638" lon="10.927228742403768"><ele>349.0</ele><time>2026-04-18T09:35:23Z</time></trkpt><trkpt lat="43.5412646134172" lon="10.927228345452097"><ele>351.66666666666663</ele><time>2026-04-18T09:35:24Z</time></trkpt><trkpt lat="43.54110470068261" lon="10.927235601473296"><ele>354.3333333333333</ele><time>2026-04-18T09:35:25Z</time></trkpt><trkpt lat="43.54095667101412" lon="10.927226712010217"><ele>357.0</ele><time>2026-04-18T09:35:26Z</time></trkpt><trkpt lat="43.540809982824456" lon="10.927217538870542"><ele>357.0</ele><time>2026-04-18T09:35:27Z</time></trkpt><trkpt lat="43.540681820757484" lon="10.92717809285908"><ele>357.0</ele><time>2026-04-18T09:35:28Z</time></trkpt><trkpt lat="43.54055771664415" lon="10.927092120433176"><ele>357.0</ele><time>2026-04-18T09:35:29Z</time></trkpt><trkpt lat="43.54041906168158" lon="10.926972315572675"><ele>357.0</ele><time>2026-04-18T09:35:30Z</time></trkpt><trkpt lat="43.540260717210735" lon="10.926851966091283"><ele>359.3333333333333</ele><time>2026-04-18T09:35:31Z</time></trkpt><trkpt lat="43.54009988161803" lon="10.92673059484808"><ele>361.66666666666663</ele><time>2026-04-18T09:35:32Z</time></trkpt><trkpt lat="43.53992882373782" lon="10.926615896023279"><ele>364.0</ele><time>2026-04-18T09:35:33Z</time></trkpt><trkpt lat="43.53975599800598" lon="10.926498967782848"><ele>364.3333333333333</ele><time>2026-04-18T09:35:34Z</time></trkpt><trkpt lat="43.539597873203284" lon="10.92637136112458"><ele>364.6666666666667</ele><time>2026-04-18T09:35:35Z</time></trkpt><trkpt lat="43.5394296122006" lon="10.92624419469148"><ele>365.0</ele><time>2026-04-18T09:35:36Z</time></trkpt><trkpt lat="43.53926848613836" lon="10.926123439117678"><ele>368.33333333333337</ele><time>2026-04-18T09:35:37Z</time></trkpt><trkpt lat="43.53910605092274" lon="10.92601396588534"><ele>371.6666666666667</ele><time>2026-04-18T09:35:38Z</time></trkpt><trkpt lat="43.53894119888641" lon="10.925914004438768"><ele>375.0</ele><time>2026-04-18T09:35:39Z</time></trkpt><trkpt lat="43.53877249204773" lon="10.925816890327761"><ele>377.3333333333333</ele><time>2026-04-18T09:35:40Z</time></trkpt><trkpt lat="43.53860455566914" lon="10.925713542116508"><ele>379.66666666666663</ele><time>2026-04-18T09:35:41Z</time></trkpt><trkpt lat="43.53844036226749" lon="10.925592980529267"><ele>382.0</ele><time>2026-04-18T09:35:42Z</time></trkpt><trkpt lat="43.53828125142622" lon="10.9254604287815"><ele>382.0</ele><time>2026-04-18T09:35:43Z</time></trkpt><trkpt lat="43.53812015715639" lon="10.92531809226513"><ele>382.0</ele><time>2026-04-18T09:35:44Z</time></trkpt><trkpt lat="43.537956668988606" lon="10.925182315404665"><ele>382.0</ele><time>2026-04-18T09:35:45Z</time></trkpt><trkpt lat="43.537797381915" lon="10.925051209179903"><ele>385.0</ele><time>2026-04-18T09:35:46Z</time></trkpt><trkpt lat="43.53763666556538" lon="10.924917470215705"><ele>388.0</ele><time>2026-04-18T09:35:47Z</time></trkpt><trkpt lat="43.5374785394789" lon="10.924778606445638"><ele>391.0</ele><time>2026-04-18T09:35:48Z</time></trkpt><trkpt lat="43.53731598810192" lon="10.92463390995879"><ele>391.0</ele><time>2026-04-18T09:35:49Z</time></trkpt><trkpt lat="43.53715329309683" lon="10.924491833029272"><ele>391.0</ele><time>2026-04-18T09:35:50Z</time></trkpt><trkpt lat="43.53699056125303" lon="10.924350376288206"><ele>391.0</ele><time>2026-04-18T09:35:51Z</time></trkpt><trkpt lat="43.5368284702696" lon="10.924212616178865"><ele>393.33333333333337</ele><time>2026-04-18T09:35:52Z</time></trkpt><trkpt lat="43.53666032086291" lon="10.924082030019614"><ele>395.66666666666663</ele><time>2026-04-18T09:35:53Z</time></trkpt><trkpt lat="43.536482997407056" lon="10.923976758848166"><ele>398.0</ele><time>2026-04-18T09:35:54Z</time></trkpt><trkpt lat="43.53629624979703" lon="10.923899125368958"><ele>401.0</ele><time>2026-04-18T09:35:55Z</time></trkpt><trkpt lat="43.536107863078854" lon="10.923837944213297"><ele>404.0</ele><time>2026-04-18T09:35:56Z</time></trkpt><trkpt lat="43.53593880234754" lon="10.92381398386716"><ele>407.0</ele><time>2026-04-18T09:35:57Z</time></trkpt><trkpt lat="43.535775571382054" lon="10.923816812983475"><ele>407.0</ele><time>2026-04-18T09:35:58Z</time></trkpt><trkpt lat="43.53561304763255" lon="10.923830919869626"><ele>407.0</ele><time>2026-04-18T09:35:59Z</time></trkpt><trkpt lat="43.53543688322907" lon="10.923845535211004"><ele>407.0</ele><time>2026-04-18T09:36:00Z</time></trkpt><trkpt lat="43.53525947008749" lon="10.923865061802706"><ele>409.0</ele><time>2026-04-18T09:36:01Z</time></trkpt><trkpt lat="43.53508047912549" lon="10.923883328308717"><ele>411.0</ele><time>2026-04-18T09:36:02Z</time></trkpt><trkpt lat="43.534901153385526" lon="10.923898239812397"><ele>413.0</ele><time>2026-04-18T09:36:03Z</time></trkpt><trkpt lat="43.53472739662656" lon="10.923917375665955"><ele>415.3333333333333</ele><time>2026-04-18T09:36:04Z</time></trkpt><trkpt lat="43.534537467788034" lon="10.923934564742352"><ele>417.66666666666663</ele><time>2026-04-18T09:36:05Z</time></trkpt><trkpt lat="43.53434367876729" lon="10.923953678799437"><ele>420.0</ele><time>2026-04-18T09:36:06Z</time></trkpt><trkpt lat="43.534151164531416" lon="10.923972649274685"><ele>420.0</ele><time>2026-04-18T09:36:07Z</time></trkpt><trkpt lat="43.53395515755416" lon="10.923992779133737"><ele>420.0</ele><time>2026-04-18T09:36:08Z</time></trkpt><trkpt lat="43.53375926016641" lon="10.924013441206833"><ele>420.0</ele><time>2026-04-18T09:36:09Z</time></trkpt><trkpt lat="43.533568969412016" lon="10.924032711737015"><ele>423.0</ele><time>2026-04-18T09:36:10Z</time></trkpt><trkpt lat="43.53338940862711" lon="10.92405415138805"><ele>426.0</ele><time>2026-04-18T09:36:11Z</time></trkpt><trkpt lat="43.533221990825325" lon="10.924074583120735"><ele>429.0</ele><time>2026-04-18T09:36:12Z</time></trkpt><trkpt lat="43.533064283629514" lon="10.924084682317517"><ele>429.0</ele><time>2026-04-18T09:36:13Z</time></trkpt><trkpt lat="43.53291166455013" lon="10.924068357922403"><ele>429.0</ele><time>2026-04-18T09:36:14Z</time></trkpt><trkpt lat="43.53275685730228" lon="10.924031165902626"><ele>429.0</ele><time>2026-04-18T09:36:15Z</time></trkpt><trkpt lat="43.5326080845811" lon="10.923967532425275"><ele>431.25</ele><time>2026-04-18T09:36:16Z</time></trkpt><trkpt lat="43.5324709116547" lon="10.923916357482994"><ele>433.5</ele><time>2026-04-18T09:36:17Z</time></trkpt><trkpt lat="43.5323438080941" lon="10.923891452821817"><ele>435.75</ele><time>2026-04-18T09:36:18Z</time></trkpt><trkpt lat="43.5322166434079" lon="10.9239163118358"><ele>438.0</ele><time>2026-04-18T09:36:19Z</time></trkpt><trkpt lat="43.53208776810693" lon="10.924014092703798"><ele>438.25</ele><time>2026-04-18T09:36:20Z</time></trkpt><trkpt lat="43.53196826165093" lon="10.924182566871721"><ele>438.5</ele><time>2026-04-18T09:36:21Z</time></trkpt><trkpt lat="43.531858139449994" lon="10.924317577441"><ele>438.75</ele><time>2026-04-18T09:36:22Z</time></trkpt><trkpt lat="43.531751541822345" lon="10.924383696771867"><ele>439.0</ele><time>2026-04-18T09:36:23Z</time></trkpt><trkpt lat="43.5316367702335" lon="10.924391006707955"><ele>439.0</ele><time>2026-04-18T09:36:24Z</time></trkpt><trkpt lat="43.53153211573127" lon="10.924300989871035"><ele>439.0</ele><time>2026-04-18T09:36:25Z</time></trkpt><trkpt lat="43.53139178882497" lon="10.924230239518891"><ele>439.0</ele><time>2026-04-18T09:36:26Z</time></trkpt><trkpt lat="43.53124016364345" lon="10.924216323065178"><ele>439.0</ele><time>2026-04-18T09:36:27Z</time></trkpt><trkpt lat="43.5310964386194" lon="10.924300964628861"><ele>442.75</ele><time>2026-04-18T09:36:28Z</time></trkpt><trkpt lat="43.530958004481874" lon="10.924393011832134"><ele>446.5</ele><time>2026-04-18T09:36:29Z</time></trkpt><trkpt lat="43.53084154317676" lon="10.92449457075237"><ele>450.25</ele><time>2026-04-18T09:36:30Z</time></trkpt><trkpt lat="43.53076746162688" lon="10.92458993243473"><ele>454.0</ele><time>2026-04-18T09:36:31Z</time></trkpt><trkpt lat="43.530731900296466" lon="10.924782263220887"><ele>454.0</ele><time>2026-04-18T09:36:32Z</time></trkpt><trkpt lat="43.53074894578802" lon="10.924967624039596"><ele>454.0</ele><time>2026-04-18T09:36:33Z</time></trkpt><trkpt lat="43.53080159127081" lon="10.925166144849875"><ele>454.0</ele><time>2026-04-18T09:36:34.001Z</time></trkpt><trkpt lat="43.53082097935645" lon="10.925352821001614"><ele>454.0</ele><time>2026-04-18T09:36:35.001Z</time></trkpt><trkpt lat="43.53080547581647" lon="10.925516099103579"><ele>454.25</ele><time>2026-04-18T09:36:36Z</time></trkpt><trkpt lat="43.53077563884128" lon="10.92570163874227"><ele>454.5</ele><time>2026-04-18T09:36:37Z</time></trkpt><trkpt lat="43.53074738638192" lon="10.925867820965994"><ele>454.75</ele><time>2026-04-18T09:36:38Z</time></trkpt><trkpt lat="43.53072067837347" lon="10.926043031625927"><ele>455.0</ele><time>2026-04-18T09:36:39Z</time></trkpt><trkpt lat="43.53071145497764" lon="10.92623464710081"><ele>454.3333333333333</ele><time>2026-04-18T09:36:40Z</time></trkpt><trkpt lat="43.53071319249504" lon="10.926433759363654"><ele>453.66666666666663</ele><time>2026-04-18T09:36:41Z</time></trkpt><trkpt lat="43.53071245755039" lon="10.926648140665797"><ele>453.0</ele><time>2026-04-18T09:36:42Z</time></trkpt><trkpt lat="43.530711674245026" lon="10.92687663069089"><ele>451.0</ele><time>2026-04-18T09:36:43Z</time></trkpt><trkpt lat="43.530710336672044" lon="10.927105157031534"><ele>449.0</ele><time>2026-04-18T09:36:44Z</time></trkpt><trkpt lat="43.53069603864908" lon="10.927323244610916"><ele>447.0</ele><time>2026-04-18T09:36:45Z</time></trkpt><trkpt lat="43.530658558390286" lon="10.927531574242634"><ele>445.66666666666663</ele><time>2026-04-18T09:36:46Z</time></trkpt><trkpt lat="43.53059155668089" lon="10.927729984274764"><ele>444.3333333333333</ele><time>2026-04-18T09:36:47Z</time></trkpt><trkpt lat="43.530513454520104" lon="10.927942924790752"><ele>443.0</ele><time>2026-04-18T09:36:48Z</time></trkpt><trkpt lat="43.530428079272745" lon="10.928171639228152"><ele>441.3333333333333</ele><time>2026-04-18T09:36:49Z</time></trkpt><trkpt lat="43.530360769850546" lon="10.928404229298769"><ele>439.66666666666663</ele><time>2026-04-18T09:36:50Z</time></trkpt><trkpt lat="43.530286496340004" lon="10.928599426435065"><ele>438.0</ele><time>2026-04-18T09:36:51Z</time></trkpt><trkpt lat="43.53020403996242" lon="10.928752581862145"><ele>438.0</ele><time>2026-04-18T09:36:52Z</time></trkpt><trkpt lat="43.53011985539135" lon="10.928886179407268"><ele>438.0</ele><time>2026-04-18T09:36:53Z</time></trkpt><trkpt lat="43.53001355480086" lon="10.928958672840272"><ele>438.0</ele><time>2026-04-18T09:36:54Z</time></trkpt><trkpt lat="43.52991035921205" lon="10.929030307505007"><ele>438.0</ele><time>2026-04-18T09:36:55Z</time></trkpt><trkpt lat="43.529809742403465" lon="10.92907485747909"><ele>438.0</ele><time>2026-04-18T09:36:56Z</time></trkpt><trkpt lat="43.5297400977989" lon="10.929120892770479"><ele>438.0</ele><time>2026-04-18T09:36:57Z</time></trkpt><trkpt lat="43.52969970170537" lon="10.929210502028738"><ele>438.0</ele><time>2026-04-18T09:36:59Z</time></trkpt><trkpt lat="43.529630156749285" lon="10.929197538388422"><ele>438.0</ele><time>2026-04-18T09:37:08Z</time></trkpt><trkpt lat="43.52956549359701" lon="10.929131635672972"><ele>438.0</ele><time>2026-04-18T09:37:09Z</time></trkpt><trkpt lat="43.52949010506386" lon="10.929062881287942"><ele>438.0</ele><time>2026-04-18T09:37:10Z</time></trkpt><trkpt lat="43.529405340700514" lon="10.92898964748816"><ele>436.75</ele><time>2026-04-18T09:37:11Z</time></trkpt><trkpt lat="43.52930635521519" lon="10.928908078699896"><ele>435.5</ele><time>2026-04-18T09:37:12Z</time></trkpt><trkpt lat="43.52919160777323" lon="10.9288163108638"><ele>434.25</ele><time>2026-04-18T09:37:13Z</time></trkpt><trkpt lat="43.5290661502642" lon="10.928724712045982"><ele>433.0</ele><time>2026-04-18T09:37:14Z</time></trkpt><trkpt lat="43.528932352131534" lon="10.928632925846705"><ele>433.0</ele><time>2026-04-18T09:37:15Z</time></trkpt><trkpt lat="43.52878852059299" lon="10.92856034262946"><ele>433.0</ele><time>2026-04-18T09:37:16Z</time></trkpt><trkpt lat="43.528636625117464" lon="10.92850931249212"><ele>433.0</ele><time>2026-04-18T09:37:17Z</time></trkpt><trkpt lat="43.52847546344295" lon="10.928485497800903"><ele>432.0</ele><time>2026-04-18T09:37:18Z</time></trkpt><trkpt lat="43.52830380514058" lon="10.92848646335816"><ele>431.0</ele><time>2026-04-18T09:37:19Z</time></trkpt><trkpt lat="43.52813910022091" lon="10.928467114336012"><ele>430.0</ele><time>2026-04-18T09:37:20Z</time></trkpt><trkpt lat="43.52795627060902" lon="10.928490841773188"><ele>429.6666666666667</ele><time>2026-04-18T09:37:21Z</time></trkpt><trkpt lat="43.5277690770877" lon="10.928501769986351"><ele>429.33333333333337</ele><time>2026-04-18T09:37:22Z</time></trkpt><trkpt lat="43.52758410807473" lon="10.928510846766"><ele>429.0</ele><time>2026-04-18T09:37:23Z</time></trkpt><trkpt lat="43.527395685211935" lon="10.928522624052636"><ele>429.0</ele><time>2026-04-18T09:37:24Z</time></trkpt><trkpt lat="43.52720350906142" lon="10.928533721564214"><ele>429.0</ele><time>2026-04-18T09:37:25Z</time></trkpt><trkpt lat="43.52699619885332" lon="10.928553332654731"><ele>429.0</ele><time>2026-04-18T09:37:26Z</time></trkpt><trkpt lat="43.5267876068629" lon="10.92857779997384"><ele>428.66666666666663</ele><time>2026-04-18T09:37:27Z</time></trkpt><trkpt lat="43.52658000770619" lon="10.928621939171522"><ele>428.3333333333333</ele><time>2026-04-18T09:37:28Z</time></trkpt><trkpt lat="43.52636709527979" lon="10.928666281413744"><ele>428.0</ele><time>2026-04-18T09:37:29Z</time></trkpt><trkpt lat="43.52616516815039" lon="10.928693254407879"><ele>427.3333333333333</ele><time>2026-04-18T09:37:30Z</time></trkpt><trkpt lat="43.525961467578604" lon="10.928725093491265"><ele>426.66666666666663</ele><time>2026-04-18T09:37:31Z</time></trkpt><trkpt lat="43.52574896586721" lon="10.928761863651197"><ele>426.0</ele><time>2026-04-18T09:37:32Z</time></trkpt><trkpt lat="43.52553101258576" lon="10.928792609370165"><ele>424.0</ele><time>2026-04-18T09:37:33Z</time></trkpt><trkpt lat="43.525316762695844" lon="10.928826385257281"><ele>422.0</ele><time>2026-04-18T09:37:34Z</time></trkpt><trkpt lat="43.5251047215709" lon="10.928853534608315"><ele>420.0</ele><time>2026-04-18T09:37:35Z</time></trkpt><trkpt lat="43.524899820298614" lon="10.928865641421647"><ele>420.0</ele><time>2026-04-18T09:37:36Z</time></trkpt><trkpt lat="43.524709777823986" lon="10.928845704367893"><ele>420.0</ele><time>2026-04-18T09:37:37Z</time></trkpt><trkpt lat="43.524517303346954" lon="10.928805238879677"><ele>420.0</ele><time>2026-04-18T09:37:38Z</time></trkpt><trkpt lat="43.52432164688484" lon="10.928757757526714"><ele>420.33333333333337</ele><time>2026-04-18T09:37:39Z</time></trkpt><trkpt lat="43.5241220639362" lon="10.928711643627938"><ele>420.6666666666667</ele><time>2026-04-18T09:37:40Z</time></trkpt><trkpt lat="43.52392885338502" lon="10.928663613830576"><ele>421.0</ele><time>2026-04-18T09:37:41Z</time></trkpt><trkpt lat="43.52374864550824" lon="10.928625203470473"><ele>421.6666666666667</ele><time>2026-04-18T09:37:42Z</time></trkpt><trkpt lat="43.52358266344584" lon="10.928584387419777"><ele>422.33333333333337</ele><time>2026-04-18T09:37:43Z</time></trkpt><trkpt lat="43.523399617612185" lon="10.928535208349667"><ele>423.0</ele><time>2026-04-18T09:37:44Z</time></trkpt><trkpt lat="43.52321450682872" lon="10.928461777340042"><ele>426.0</ele><time>2026-04-18T09:37:45Z</time></trkpt><trkpt lat="43.52302734563579" lon="10.92836595793319"><ele>429.0</ele><time>2026-04-18T09:37:46Z</time></trkpt><trkpt lat="43.522841564621196" lon="10.928248630545058"><ele>432.0</ele><time>2026-04-18T09:37:47Z</time></trkpt><trkpt lat="43.52264503192791" lon="10.92813552706925"><ele>432.0</ele><time>2026-04-18T09:37:48Z</time></trkpt><trkpt lat="43.52244058539999" lon="10.928028608127896"><ele>432.0</ele><time>2026-04-18T09:37:49Z</time></trkpt><trkpt lat="43.522234445710865" lon="10.9279305272317"><ele>432.0</ele><time>2026-04-18T09:37:50Z</time></trkpt><trkpt lat="43.52202914057853" lon="10.927836647999275"><ele>431.33333333333337</ele><time>2026-04-18T09:37:51Z</time></trkpt><trkpt lat="43.521818358727316" lon="10.927763748759013"><ele>430.6666666666667</ele><time>2026-04-18T09:37:52Z</time></trkpt><trkpt lat="43.521604028081605" lon="10.927703569787408"><ele>430.0</ele><time>2026-04-18T09:37:53Z</time></trkpt><trkpt lat="43.52138901791226" lon="10.927649161277635"><ele>431.6666666666667</ele><time>2026-04-18T09:37:54Z</time></trkpt><trkpt lat="43.52118223696246" lon="10.927593749941751"><ele>433.33333333333337</ele><time>2026-04-18T09:37:55Z</time></trkpt><trkpt lat="43.52098474130119" lon="10.927537838021003"><ele>435.0</ele><time>2026-04-18T09:37:56Z</time></trkpt><trkpt lat="43.520789508655234" lon="10.92748466610554"><ele>435.66666666666663</ele><time>2026-04-18T09:37:57Z</time></trkpt><trkpt lat="43.520600707796945" lon="10.927431756634416"><ele>436.3333333333333</ele><time>2026-04-18T09:37:58Z</time></trkpt><trkpt lat="43.52040401314323" lon="10.927381109490375"><ele>437.0</ele><time>2026-04-18T09:37:59Z</time></trkpt><trkpt lat="43.52021281175127" lon="10.927330004608901"><ele>438.0</ele><time>2026-04-18T09:38:00Z</time></trkpt><trkpt lat="43.52002612977268" lon="10.927281033614623"><ele>439.0</ele><time>2026-04-18T09:38:01Z</time></trkpt><trkpt lat="43.51985084676659" lon="10.927231152623254"><ele>440.0</ele><time>2026-04-18T09:38:02Z</time></trkpt><trkpt lat="43.51969351552145" lon="10.927187426591457"><ele>440.3333333333333</ele><time>2026-04-18T09:38:03Z</time></trkpt><trkpt lat="43.519548813854485" lon="10.927151550896257"><ele>440.66666666666663</ele><time>2026-04-18T09:38:04Z</time></trkpt><trkpt lat="43.519399705934084" lon="10.9271242790669"><ele>441.0</ele><time>2026-04-18T09:38:05Z</time></trkpt><trkpt lat="43.519243663229496" lon="10.927112279429029"><ele>441.0</ele><time>2026-04-18T09:38:06Z</time></trkpt><trkpt lat="43.5190867026695" lon="10.927093536115526"><ele>441.0</ele><time>2026-04-18T09:38:07Z</time></trkpt><trkpt lat="43.51891783330285" lon="10.927076470435706"><ele>441.0</ele><time>2026-04-18T09:38:08Z</time></trkpt><trkpt lat="43.5187406421774" lon="10.927058316035245"><ele>440.33333333333337</ele><time>2026-04-18T09:38:09Z</time></trkpt><trkpt lat="43.51855915367899" lon="10.927038443451542"><ele>439.6666666666667</ele><time>2026-04-18T09:38:10Z</time></trkpt><trkpt lat="43.51837132655089" lon="10.92702080731381"><ele>439.0</ele><time>2026-04-18T09:38:11Z</time></trkpt><trkpt lat="43.518184557423034" lon="10.927008663951339"><ele>439.0</ele><time>2026-04-18T09:38:12Z</time></trkpt><trkpt lat="43.51799761699161" lon="10.926995749881689"><ele>439.0</ele><time>2026-04-18T09:38:13Z</time></trkpt><trkpt lat="43.517796026789405" lon="10.926981293538216"><ele>439.0</ele><time>2026-04-18T09:38:14Z</time></trkpt><trkpt lat="43.51759145264257" lon="10.926962623776628"><ele>438.6666666666667</ele><time>2026-04-18T09:38:15Z</time></trkpt><trkpt lat="43.51738221822896" lon="10.926942940649942"><ele>438.33333333333337</ele><time>2026-04-18T09:38:16Z</time></trkpt><trkpt lat="43.5171684418724" lon="10.926924663070986"><ele>438.0</ele><time>2026-04-18T09:38:17Z</time></trkpt><trkpt lat="43.51695218308744" lon="10.926904865198438"><ele>439.0</ele><time>2026-04-18T09:38:18Z</time></trkpt><trkpt lat="43.51674699627787" lon="10.926883713235952"><ele>440.0</ele><time>2026-04-18T09:38:19Z</time></trkpt><trkpt lat="43.51656508396194" lon="10.926859020040881"><ele>441.0</ele><time>2026-04-18T09:38:20Z</time></trkpt><trkpt lat="43.51640322959301" lon="10.926847955020147"><ele>441.0</ele><time>2026-04-18T09:38:21Z</time></trkpt><trkpt lat="43.51624785183904" lon="10.926850218710129"><ele>441.0</ele><time>2026-04-18T09:38:22Z</time></trkpt><trkpt lat="43.51611425677936" lon="10.926909624314805"><ele>441.0</ele><time>2026-04-18T09:38:23Z</time></trkpt><trkpt lat="43.51599535335646" lon="10.927051342301464"><ele>444.66666666666663</ele><time>2026-04-18T09:38:24Z</time></trkpt><trkpt lat="43.51590240793292" lon="10.927254337621275"><ele>448.3333333333333</ele><time>2026-04-18T09:38:25Z</time></trkpt><trkpt lat="43.51580790214132" lon="10.927478018902924"><ele>452.0</ele><time>2026-04-18T09:38:26Z</time></trkpt><trkpt lat="43.515701268468874" lon="10.927687474849867"><ele>452.0</ele><time>2026-04-18T09:38:27Z</time></trkpt><trkpt lat="43.51556196581629" lon="10.92788050770249"><ele>452.0</ele><time>2026-04-18T09:38:28Z</time></trkpt><trkpt lat="43.51538873116942" lon="10.928038118233259"><ele>452.0</ele><time>2026-04-18T09:38:29Z</time></trkpt><trkpt lat="43.51521068892666" lon="10.928187086000426"><ele>455.66666666666663</ele><time>2026-04-18T09:38:30Z</time></trkpt><trkpt lat="43.51505006356909" lon="10.92833726838609"><ele>459.33333333333337</ele><time>2026-04-18T09:38:31Z</time></trkpt><trkpt lat="43.51490029432151" lon="10.928466510914769"><ele>463.0</ele><time>2026-04-18T09:38:32Z</time></trkpt><trkpt lat="43.514729347822346" lon="10.928556509864531"><ele>467.33333333333337</ele><time>2026-04-18T09:38:33Z</time></trkpt><trkpt lat="43.51453909899683" lon="10.928594681918586"><ele>471.66666666666663</ele><time>2026-04-18T09:38:34Z</time></trkpt><trkpt lat="43.51434773484" lon="10.928598597881761"><ele>476.0</ele><time>2026-04-18T09:38:35Z</time></trkpt><trkpt lat="43.5141784453879" lon="10.928623657362747"><ele>476.0</ele><time>2026-04-18T09:38:36Z</time></trkpt><trkpt lat="43.51403076524774" lon="10.928684591096522"><ele>476.0</ele><time>2026-04-18T09:38:37Z</time></trkpt><trkpt lat="43.513889237132055" lon="10.928787590584065"><ele>476.0</ele><time>2026-04-18T09:38:38Z</time></trkpt><trkpt lat="43.51375458106979" lon="10.928953620918383"><ele>475.66666666666663</ele><time>2026-04-18T09:38:39Z</time></trkpt><trkpt lat="43.51362420107917" lon="10.929142505729482"><ele>475.33333333333337</ele><time>2026-04-18T09:38:40Z</time></trkpt><trkpt lat="43.51350480358889" lon="10.929342742990215"><ele>475.0</ele><time>2026-04-18T09:38:41Z</time></trkpt><trkpt lat="43.51340424738144" lon="10.929568504777317"><ele>477.0</ele><time>2026-04-18T09:38:42Z</time></trkpt><trkpt lat="43.51332236056217" lon="10.929776673328012"><ele>479.0</ele><time>2026-04-18T09:38:43Z</time></trkpt><trkpt lat="43.51322714896809" lon="10.929952336708642"><ele>481.0</ele><time>2026-04-18T09:38:44Z</time></trkpt><trkpt lat="43.51310103446805" lon="10.930068118892692"><ele>481.33333333333337</ele><time>2026-04-18T09:38:45Z</time></trkpt><trkpt lat="43.51294697251143" lon="10.930158086951261"><ele>481.66666666666663</ele><time>2026-04-18T09:38:46Z</time></trkpt><trkpt lat="43.512773468429806" lon="10.930206696928812"><ele>482.0</ele><time>2026-04-18T09:38:47Z</time></trkpt><trkpt lat="43.512608893438035" lon="10.930214580136232"><ele>482.66666666666663</ele><time>2026-04-18T09:38:48Z</time></trkpt><trkpt lat="43.51243577552343" lon="10.930191275336986"><ele>483.33333333333337</ele><time>2026-04-18T09:38:49Z</time></trkpt><trkpt lat="43.51224368580876" lon="10.930139342466967"><ele>484.0</ele><time>2026-04-18T09:38:50Z</time></trkpt><trkpt lat="43.51204216133459" lon="10.930084732894844"><ele>484.6666666666667</ele><time>2026-04-18T09:38:51Z</time></trkpt><trkpt lat="43.51183772488835" lon="10.930017727333114"><ele>485.33333333333337</ele><time>2026-04-18T09:38:52Z</time></trkpt><trkpt lat="43.51163185091287" lon="10.929931681766044"><ele>486.0</ele><time>2026-04-18T09:38:53Z</time></trkpt><trkpt lat="43.511422486738816" lon="10.929813096669207"><ele>488.33333333333337</ele><time>2026-04-18T09:38:54Z</time></trkpt><trkpt lat="43.511235701994934" lon="10.929672615033908"><ele>490.6666666666667</ele><time>2026-04-18T09:38:55Z</time></trkpt><trkpt lat="43.51105200762482" lon="10.929519387305762"><ele>493.0</ele><time>2026-04-18T09:38:56Z</time></trkpt><trkpt lat="43.510846195525254" lon="10.929387075539283"><ele>493.0</ele><time>2026-04-18T09:38:57Z</time></trkpt><trkpt lat="43.51064847445935" lon="10.929279949740556"><ele>493.0</ele><time>2026-04-18T09:38:58Z</time></trkpt><trkpt lat="43.51047849089256" lon="10.929163462840432"><ele>493.0</ele><time>2026-04-18T09:38:59Z</time></trkpt><trkpt lat="43.51032727762107" lon="10.929061338783255"><ele>492.33333333333337</ele><time>2026-04-18T09:39:00Z</time></trkpt><trkpt lat="43.51016646467088" lon="10.92897007381441"><ele>491.66666666666663</ele><time>2026-04-18T09:39:01Z</time></trkpt><trkpt lat="43.509993977395744" lon="10.928886551928038"><ele>491.0</ele><time>2026-04-18T09:39:02Z</time></trkpt><trkpt lat="43.509809749514964" lon="10.928793481262511"><ele>491.0</ele><time>2026-04-18T09:39:03Z</time></trkpt><trkpt lat="43.50962869251445" lon="10.928720468300945"><ele>491.0</ele><time>2026-04-18T09:39:04Z</time></trkpt><trkpt lat="43.509471774238165" lon="10.928640338177875"><ele>491.0</ele><time>2026-04-18T09:39:05Z</time></trkpt><trkpt lat="43.50923739007214" lon="10.928560126995617"><ele>490.66666666666663</ele><time>2026-04-18T09:39:06Z</time></trkpt><trkpt lat="43.50904024903786" lon="10.928536791423415"><ele>490.33333333333337</ele><time>2026-04-18T09:39:07Z</time></trkpt><trkpt lat="43.508837754067024" lon="10.928559691205912"><ele>490.0</ele><time>2026-04-18T09:39:08Z</time></trkpt><trkpt lat="43.50864149750734" lon="10.928586143936284"><ele>490.0</ele><time>2026-04-18T09:39:09Z</time></trkpt><trkpt lat="43.50834384840643" lon="10.928602180225887"><ele>490.0</ele><time>2026-04-18T09:39:11Z</time></trkpt><trkpt lat="43.508242356929756" lon="10.928602759936444"><ele>490.0</ele><time>2026-04-18T09:39:12Z</time></trkpt><trkpt lat="43.508145667851245" lon="10.928614135733262"><ele>490.0</ele><time>2026-04-18T09:39:13Z</time></trkpt><trkpt lat="43.50803723030627" lon="10.928625511615838"><ele>490.0</ele><time>2026-04-18T09:39:14Z</time></trkpt><trkpt lat="43.507911225882026" lon="10.92864194329901"><ele>490.0</ele><time>2026-04-18T09:39:15Z</time></trkpt><trkpt lat="43.507783261328235" lon="10.928650405273554"><ele>490.0</ele><time>2026-04-18T09:39:16Z</time></trkpt><trkpt lat="43.50763911852977" lon="10.928664605811456"><ele>491.33333333333337</ele><time>2026-04-18T09:39:17Z</time></trkpt><trkpt lat="43.507492427530856" lon="10.92867068298881"><ele>492.66666666666663</ele><time>2026-04-18T09:39:18Z</time></trkpt><trkpt lat="43.50731958645139" lon="10.928690977674494"><ele>494.0</ele><time>2026-04-18T09:39:19Z</time></trkpt><trkpt lat="43.50712992857657" lon="10.928718080165618"><ele>496.66666666666663</ele><time>2026-04-18T09:39:20Z</time></trkpt><trkpt lat="43.506947560615465" lon="10.928760501116551"><ele>499.33333333333337</ele><time>2026-04-18T09:39:21Z</time></trkpt><trkpt lat="43.50677437728708" lon="10.928821237314434"><ele>502.0</ele><time>2026-04-18T09:39:22Z</time></trkpt><trkpt lat="43.5066380707301" lon="10.928902017848353"><ele>502.0</ele><time>2026-04-18T09:39:23Z</time></trkpt><trkpt lat="43.50654287650613" lon="10.929010430915108"><ele>502.0</ele><time>2026-04-18T09:39:24Z</time></trkpt><trkpt lat="43.506462588225396" lon="10.929185917516573"><ele>502.0</ele><time>2026-04-18T09:39:25Z</time></trkpt><trkpt lat="43.506404259708994" lon="10.929368652155263"><ele>502.0</ele><time>2026-04-18T09:39:26Z</time></trkpt><trkpt lat="43.506340213082396" lon="10.92951150975418"><ele>502.25</ele><time>2026-04-18T09:39:27Z</time></trkpt><trkpt lat="43.50623274777827" lon="10.929575109163228"><ele>502.5</ele><time>2026-04-18T09:39:28Z</time></trkpt><trkpt lat="43.50609277829416" lon="10.929585029022324"><ele>502.75</ele><time>2026-04-18T09:39:29Z</time></trkpt><trkpt lat="43.505934072714055" lon="10.929575521334076"><ele>503.0</ele><time>2026-04-18T09:39:30Z</time></trkpt><trkpt lat="43.50576072417239" lon="10.929586601477165"><ele>503.0</ele><time>2026-04-18T09:39:31Z</time></trkpt><trkpt lat="43.50558069593493" lon="10.929574051535207"><ele>503.0</ele><time>2026-04-18T09:39:32Z</time></trkpt><trkpt lat="43.505398700384255" lon="10.929560039560897"><ele>503.0</ele><time>2026-04-18T09:39:33Z</time></trkpt><trkpt lat="43.505221565325634" lon="10.92954884936717"><ele>506.0</ele><time>2026-04-18T09:39:34Z</time></trkpt><trkpt lat="43.505039991218624" lon="10.92953527754229"><ele>509.0</ele><time>2026-04-18T09:39:35Z</time></trkpt><trkpt lat="43.5048620777942" lon="10.929513252947071"><ele>512.0</ele><time>2026-04-18T09:39:36Z</time></trkpt><trkpt lat="43.50466923127465" lon="10.929484231314996"><ele>515.3333333333333</ele><time>2026-04-18T09:39:37Z</time></trkpt><trkpt lat="43.50447485157654" lon="10.929427481113644"><ele>518.6666666666666</ele><time>2026-04-18T09:39:38Z</time></trkpt><trkpt lat="43.50429494822683" lon="10.929368403058422"><ele>522.0</ele><time>2026-04-18T09:39:39Z</time></trkpt><trkpt lat="43.5041363486853" lon="10.929326344405098"><ele>522.0</ele><time>2026-04-18T09:39:40Z</time></trkpt><trkpt lat="43.50397666523067" lon="10.929267556145714"><ele>522.0</ele><time>2026-04-18T09:39:41Z</time></trkpt><trkpt lat="43.50379869421573" lon="10.92919721512104"><ele>522.0</ele><time>2026-04-18T09:39:42Z</time></trkpt><trkpt lat="43.50360803423049" lon="10.929124757693257"><ele>521.0</ele><time>2026-04-18T09:39:43Z</time></trkpt><trkpt lat="43.50341028377286" lon="10.929049549134534"><ele>520.0</ele><time>2026-04-18T09:39:44Z</time></trkpt><trkpt lat="43.50320647167851" lon="10.928969194085383"><ele>519.0</ele><time>2026-04-18T09:39:45Z</time></trkpt><trkpt lat="43.502994899796526" lon="10.928882844750344"><ele>517.0</ele><time>2026-04-18T09:39:46Z</time></trkpt><trkpt lat="43.50277231240375" lon="10.928797662093583"><ele>515.0</ele><time>2026-04-18T09:39:47Z</time></trkpt><trkpt lat="43.50254498854847" lon="10.928713097612757"><ele>515.0</ele><time>2026-04-18T09:39:48Z</time></trkpt><trkpt lat="43.502313896251096" lon="10.928628111848468"><ele>515.0</ele><time>2026-04-18T09:39:49Z</time></trkpt><trkpt lat="43.50208076752977" lon="10.928537684792255"><ele>514.5</ele><time>2026-04-18T09:39:50Z</time></trkpt><trkpt lat="43.501835997225974" lon="10.928451207197321"><ele>514.0</ele><time>2026-04-18T09:39:51Z</time></trkpt><trkpt lat="43.50159775879091" lon="10.928349842758756"><ele>514.0</ele><time>2026-04-18T09:39:52Z</time></trkpt><trkpt lat="43.50135908370596" lon="10.928260198462931"><ele>514.0</ele><time>2026-04-18T09:39:53Z</time></trkpt><trkpt lat="43.5011194096867" lon="10.928170817987212"><ele>512.0</ele><time>2026-04-18T09:39:54Z</time></trkpt><trkpt lat="43.500880004852306" lon="10.928080350866544"><ele>510.0</ele><time>2026-04-18T09:39:55Z</time></trkpt><trkpt lat="43.500623165202605" lon="10.927994440241358"><ele>509.5</ele><time>2026-04-18T09:39:56Z</time></trkpt><trkpt lat="43.500356935804774" lon="10.927900655518311"><ele>509.0</ele><time>2026-04-18T09:39:57Z</time></trkpt><trkpt lat="43.50007837355696" lon="10.92782077343137"><ele>509.0</ele><time>2026-04-18T09:39:58Z</time></trkpt><trkpt lat="43.49982258974467" lon="10.927767022665744"><ele>509.0</ele><time>2026-04-18T09:39:59Z</time></trkpt><trkpt lat="43.49958158715236" lon="10.927706106789934"><ele>509.0</ele><time>2026-04-18T09:40:00Z</time></trkpt><trkpt lat="43.499353184362015" lon="10.927654513833975"><ele>509.0</ele><time>2026-04-18T09:40:01Z</time></trkpt><trkpt lat="43.499121142769" lon="10.927596995272845"><ele>511.5</ele><time>2026-04-18T09:40:02Z</time></trkpt><trkpt lat="43.49889260119752" lon="10.927530618779794"><ele>514.0</ele><time>2026-04-18T09:40:03Z</time></trkpt><trkpt lat="43.498667595329636" lon="10.927452726493733"><ele>514.0</ele><time>2026-04-18T09:40:04Z</time></trkpt><trkpt lat="43.49845956778196" lon="10.927378398271541"><ele>514.0</ele><time>2026-04-18T09:40:05Z</time></trkpt><trkpt lat="43.498274835941174" lon="10.927306224458782"><ele>514.0</ele><time>2026-04-18T09:40:06Z</time></trkpt><trkpt lat="43.49809863994159" lon="10.927254166557681"><ele>512.6666666666667</ele><time>2026-04-18T09:40:07Z</time></trkpt><trkpt lat="43.49791487267057" lon="10.927212850221382"><ele>511.33333333333337</ele><time>2026-04-18T09:40:08Z</time></trkpt><trkpt lat="43.497722325577215" lon="10.927174812001208"><ele>510.0</ele><time>2026-04-18T09:40:09Z</time></trkpt><trkpt lat="43.49752104934669" lon="10.927138105087222"><ele>510.0</ele><time>2026-04-18T09:40:10Z</time></trkpt><trkpt lat="43.497324077784114" lon="10.927100811622363"><ele>510.0</ele><time>2026-04-18T09:40:11Z</time></trkpt><trkpt lat="43.4971504324616" lon="10.927065315364707"><ele>510.0</ele><time>2026-04-18T09:40:12Z</time></trkpt><trkpt lat="43.4969930340389" lon="10.927030973390572"><ele>510.25</ele><time>2026-04-18T09:40:13Z</time></trkpt><trkpt lat="43.49684367876329" lon="10.926996986025161"><ele>510.5</ele><time>2026-04-18T09:40:14Z</time></trkpt><trkpt lat="43.49671169684896" lon="10.9269742316316"><ele>510.75</ele><time>2026-04-18T09:40:15Z</time></trkpt><trkpt lat="43.496594042678645" lon="10.926929232509478"><ele>511.0</ele><time>2026-04-18T09:40:16Z</time></trkpt><trkpt lat="43.49648552094695" lon="10.926853418385535"><ele>511.0</ele><time>2026-04-18T09:40:17Z</time></trkpt><trkpt lat="43.49638923721585" lon="10.926735817875365"><ele>511.0</ele><time>2026-04-18T09:40:18Z</time></trkpt><trkpt lat="43.49628739022772" lon="10.926570789943964"><ele>511.0</ele><time>2026-04-18T09:40:19Z</time></trkpt><trkpt lat="43.49618392507353" lon="10.926384470703246"><ele>509.5</ele><time>2026-04-18T09:40:20Z</time></trkpt><trkpt lat="43.496089474506206" lon="10.926209321980737"><ele>508.0</ele><time>2026-04-18T09:40:21Z</time></trkpt><trkpt lat="43.495979904431024" lon="10.926089813025088"><ele>506.5</ele><time>2026-04-18T09:40:22Z</time></trkpt><trkpt lat="43.49587533803254" lon="10.92599534578539"><ele>505.0</ele><time>2026-04-18T09:40:23Z</time></trkpt><trkpt lat="43.49574973946251" lon="10.925954322307163"><ele>505.0</ele><time>2026-04-18T09:40:24Z</time></trkpt><trkpt lat="43.495602805053046" lon="10.925981523182319"><ele>505.0</ele><time>2026-04-18T09:40:25Z</time></trkpt><trkpt lat="43.495466527812795" lon="10.926044626338923"><ele>505.0</ele><time>2026-04-18T09:40:26Z</time></trkpt><trkpt lat="43.49533505389496" lon="10.92608114055405"><ele>505.0</ele><time>2026-04-18T09:40:27Z</time></trkpt><trkpt lat="43.495208749068716" lon="10.92608117215263"><ele>502.75</ele><time>2026-04-18T09:40:28Z</time></trkpt><trkpt lat="43.495067083706594" lon="10.926010395492604"><ele>500.5</ele><time>2026-04-18T09:40:29Z</time></trkpt><trkpt lat="43.4949376949647" lon="10.92596034441159"><ele>498.25</ele><time>2026-04-18T09:40:30Z</time></trkpt><trkpt lat="43.49478791650192" lon="10.926022040092048"><ele>496.0</ele><time>2026-04-18T09:40:31Z</time></trkpt><trkpt lat="43.494631537629424" lon="10.926141293997581"><ele>496.6666666666667</ele><time>2026-04-18T09:40:32Z</time></trkpt><trkpt lat="43.49448486270442" lon="10.92625745772899"><ele>497.33333333333337</ele><time>2026-04-18T09:40:33Z</time></trkpt><trkpt lat="43.49435939141778" lon="10.92635880006208"><ele>498.0</ele><time>2026-04-18T09:40:34Z</time></trkpt><trkpt lat="43.49422343541124" lon="10.926454427968501"><ele>498.0</ele><time>2026-04-18T09:40:35Z</time></trkpt><trkpt lat="43.49409971087279" lon="10.92655349248265"><ele>498.0</ele><time>2026-04-18T09:40:36Z</time></trkpt><trkpt lat="43.49397494407844" lon="10.926648049142086"><ele>498.0</ele><time>2026-04-18T09:40:37Z</time></trkpt><trkpt lat="43.493845965796076" lon="10.926743845165197"><ele>498.0</ele><time>2026-04-18T09:40:38Z</time></trkpt><trkpt lat="43.493727656434814" lon="10.92685169924502"><ele>498.0</ele><time>2026-04-18T09:40:39Z</time></trkpt><trkpt lat="43.49361666570696" lon="10.926967635127813"><ele>498.0</ele><time>2026-04-18T09:40:40Z</time></trkpt><trkpt lat="43.49352118904936" lon="10.9271085888468"><ele>498.0</ele><time>2026-04-18T09:40:41Z</time></trkpt><trkpt lat="43.4934170137918" lon="10.927261971491202"><ele>498.0</ele><time>2026-04-18T09:40:42Z</time></trkpt><trkpt lat="43.49331927095688" lon="10.927416138678185"><ele>498.0</ele><time>2026-04-18T09:40:43Z</time></trkpt><trkpt lat="43.49322492865374" lon="10.927560278080298"><ele>498.0</ele><time>2026-04-18T09:40:44Z</time></trkpt><trkpt lat="43.49312040014104" lon="10.92770399958668"><ele>498.0</ele><time>2026-04-18T09:40:45Z</time></trkpt><trkpt lat="43.49301249852877" lon="10.927864583633879"><ele>498.0</ele><time>2026-04-18T09:40:46Z</time></trkpt><trkpt lat="43.49289792303167" lon="10.928034670589344"><ele>493.66666666666663</ele><time>2026-04-18T09:40:47Z</time></trkpt><trkpt lat="43.49278307246066" lon="10.928216750318407"><ele>489.3333333333333</ele><time>2026-04-18T09:40:48Z</time></trkpt><trkpt lat="43.492671748685964" lon="10.9283832155029"><ele>485.0</ele><time>2026-04-18T09:40:49Z</time></trkpt><trkpt lat="43.49256145266973" lon="10.928535530478952"><ele>484.75</ele><time>2026-04-18T09:40:50Z</time></trkpt><trkpt lat="43.492444835445134" lon="10.928655214385714"><ele>484.5</ele><time>2026-04-18T09:40:51Z</time></trkpt><trkpt lat="43.49232222741747" lon="10.928748439238033"><ele>484.25</ele><time>2026-04-18T09:40:52Z</time></trkpt><trkpt lat="43.492184941366524" lon="10.928795926512723"><ele>484.0</ele><time>2026-04-18T09:40:53Z</time></trkpt><trkpt lat="43.49203996385574" lon="10.928798806540645"><ele>484.6666666666667</ele><time>2026-04-18T09:40:54Z</time></trkpt><trkpt lat="43.491887073039855" lon="10.928757046872864"><ele>485.33333333333337</ele><time>2026-04-18T09:40:55Z</time></trkpt><trkpt lat="43.49171533273581" lon="10.928655609525093"><ele>486.0</ele><time>2026-04-18T09:40:56Z</time></trkpt><trkpt lat="43.49157146878814" lon="10.928543434116426"><ele>486.0</ele><time>2026-04-18T09:40:57Z</time></trkpt><trkpt lat="43.491446413297545" lon="10.928465142795268"><ele>486.0</ele><time>2026-04-18T09:40:58Z</time></trkpt><trkpt lat="43.49130912226359" lon="10.92845387979192"><ele>486.0</ele><time>2026-04-18T09:40:59Z</time></trkpt><trkpt lat="43.49117230643739" lon="10.928511983828319"><ele>486.0</ele><time>2026-04-18T09:41:00Z</time></trkpt><trkpt lat="43.49105110594672" lon="10.928646388261257"><ele>484.0</ele><time>2026-04-18T09:41:01Z</time></trkpt><trkpt lat="43.490952608283074" lon="10.928831382585168"><ele>482.0</ele><time>2026-04-18T09:41:02Z</time></trkpt><trkpt lat="43.49086590298847" lon="10.929055627364901"><ele>480.0</ele><time>2026-04-18T09:41:03Z</time></trkpt><trkpt lat="43.490783407630914" lon="10.929250015978822"><ele>480.0</ele><time>2026-04-18T09:41:04Z</time></trkpt><trkpt lat="43.490699840420106" lon="10.929447222489888"><ele>480.0</ele><time>2026-04-18T09:41:05Z</time></trkpt><trkpt lat="43.490618140338015" lon="10.929637898796553"><ele>480.0</ele><time>2026-04-18T09:41:06Z</time></trkpt><trkpt lat="43.490558904939675" lon="10.929813679893998"><ele>480.0</ele><time>2026-04-18T09:41:07Z</time></trkpt><trkpt lat="43.490488522377724" lon="10.929981835620485"><ele>480.0</ele><time>2026-04-18T09:41:08Z</time></trkpt><trkpt lat="43.4904169951885" lon="10.93014642271784"><ele>480.0</ele><time>2026-04-18T09:41:09Z</time></trkpt><trkpt lat="43.49035075797891" lon="10.930301660082241"><ele>480.0</ele><time>2026-04-18T09:41:10Z</time></trkpt><trkpt lat="43.49028808261458" lon="10.930463023045052"><ele>475.5</ele><time>2026-04-18T09:41:11Z</time></trkpt><trkpt lat="43.490218422459535" lon="10.930601072904103"><ele>471.0</ele><time>2026-04-18T09:41:12Z</time></trkpt><trkpt lat="43.49016237556307" lon="10.930756789823104"><ele>466.5</ele><time>2026-04-18T09:41:13Z</time></trkpt><trkpt lat="43.49010925632526" lon="10.930952261636127"><ele>462.0</ele><time>2026-04-18T09:41:14Z</time></trkpt><trkpt lat="43.490081612052634" lon="10.931159435370303"><ele>461.75</ele><time>2026-04-18T09:41:15Z</time></trkpt><trkpt lat="43.49007049072566" lon="10.931351021073743"><ele>461.5</ele><time>2026-04-18T09:41:16Z</time></trkpt><trkpt lat="43.4900663551933" lon="10.931532208955323"><ele>461.25</ele><time>2026-04-18T09:41:17Z</time></trkpt><trkpt lat="43.490066520240894" lon="10.931702501873069"><ele>461.0</ele><time>2026-04-18T09:41:18Z</time></trkpt><trkpt lat="43.49006663110185" lon="10.931867173825479"><ele>460.49999999999994</ele><time>2026-04-18T09:41:19Z</time></trkpt><trkpt lat="43.490066288332905" lon="10.93201837301035"><ele>460.0</ele><time>2026-04-18T09:41:20Z</time></trkpt><trkpt lat="43.490065994001654" lon="10.932148205363907"><ele>459.5</ele><time>2026-04-18T09:41:21Z</time></trkpt><trkpt lat="43.49006401903247" lon="10.932252817737577"><ele>459.0</ele><time>2026-04-18T09:41:22Z</time></trkpt><trkpt lat="43.490057891691826" lon="10.93235277161051"><ele>458.49999999999994</ele><time>2026-04-18T09:41:23Z</time></trkpt><trkpt lat="43.49005337303442" lon="10.932440769759287"><ele>458.0</ele><time>2026-04-18T09:41:24Z</time></trkpt><trkpt lat="43.48999144726602" lon="10.932495662419718"><ele>458.0</ele><time>2026-04-18T09:41:25Z</time></trkpt><trkpt lat="43.48991164186982" lon="10.932504288215215"><ele>457.99999999999994</ele><time>2026-04-18T09:41:26Z</time></trkpt><trkpt lat="43.48984371939687" lon="10.932461547961763"><ele>457.99999999999994</ele><time>2026-04-18T09:41:27Z</time></trkpt><trkpt lat="43.48978550290836" lon="10.932329066755857"><ele>458.0</ele><time>2026-04-18T09:41:28Z</time></trkpt><trkpt lat="43.489754859813466" lon="10.93218375066876"><ele>458.0</ele><time>2026-04-18T09:41:29Z</time></trkpt><trkpt lat="43.48974489916513" lon="10.932002336227535"><ele>458.0</ele><time>2026-04-18T09:41:30Z</time></trkpt><trkpt lat="43.4897295228865" lon="10.931796563039992"><ele>458.0</ele><time>2026-04-18T09:41:31Z</time></trkpt><trkpt lat="43.48971021232218" lon="10.931570980748099"><ele>458.0</ele><time>2026-04-18T09:41:32Z</time></trkpt><trkpt lat="43.48968853443161" lon="10.931346102785199"><ele>459.0</ele><time>2026-04-18T09:41:33Z</time></trkpt><trkpt lat="43.48967146663743" lon="10.93111205321742"><ele>460.0</ele><time>2026-04-18T09:41:34Z</time></trkpt><trkpt lat="43.489660930306286" lon="10.930910401682473"><ele>461.0</ele><time>2026-04-18T09:41:35Z</time></trkpt><trkpt lat="43.48964597676263" lon="10.930704622936162"><ele>461.3333333333333</ele><time>2026-04-18T09:41:36Z</time></trkpt><trkpt lat="43.48962964013906" lon="10.930492788768866"><ele>461.66666666666663</ele><time>2026-04-18T09:41:37Z</time></trkpt><trkpt lat="43.48960065709238" lon="10.930283790542672"><ele>462.0</ele><time>2026-04-18T09:41:38Z</time></trkpt><trkpt lat="43.489552727504105" lon="10.930078598727725"><ele>453.66666666666663</ele><time>2026-04-18T09:41:39Z</time></trkpt><trkpt lat="43.48948956542157" lon="10.929884702127639"><ele>445.3333333333333</ele><time>2026-04-18T09:41:40Z</time></trkpt><trkpt lat="43.48942591024993" lon="10.929691252151237"><ele>437.0</ele><time>2026-04-18T09:41:41Z</time></trkpt><trkpt lat="43.489361671210936" lon="10.929488757433202"><ele>437.0</ele><time>2026-04-18T09:41:42Z</time></trkpt><trkpt lat="43.489303701997024" lon="10.929291899337796"><ele>437.0</ele><time>2026-04-18T09:41:43Z</time></trkpt><trkpt lat="43.489253689822554" lon="10.929109621853545"><ele>437.0</ele><time>2026-04-18T09:41:44Z</time></trkpt><trkpt lat="43.48922735841664" lon="10.928921699349209"><ele>437.0</ele><time>2026-04-18T09:41:45Z</time></trkpt><trkpt lat="43.489227891006045" lon="10.928714617059896"><ele>436.66666666666663</ele><time>2026-04-18T09:41:46Z</time></trkpt><trkpt lat="43.48924909185724" lon="10.928487018221242"><ele>436.33333333333337</ele><time>2026-04-18T09:41:47Z</time></trkpt><trkpt lat="43.48927240225599" lon="10.928252826718856"><ele>436.0</ele><time>2026-04-18T09:41:48Z</time></trkpt><trkpt lat="43.48929037486533" lon="10.928010686031966"><ele>435.33333333333337</ele><time>2026-04-18T09:41:49Z</time></trkpt><trkpt lat="43.48930041334097" lon="10.927780258053204"><ele>434.66666666666663</ele><time>2026-04-18T09:41:50Z</time></trkpt><trkpt lat="43.48931047723257" lon="10.927567121007772"><ele>434.0</ele><time>2026-04-18T09:41:51Z</time></trkpt><trkpt lat="43.489326590110174" lon="10.927347366680118"><ele>433.3333333333333</ele><time>2026-04-18T09:41:52Z</time></trkpt><trkpt lat="43.48934914059713" lon="10.927103835566989"><ele>432.66666666666663</ele><time>2026-04-18T09:41:53Z</time></trkpt><trkpt lat="43.48938102513019" lon="10.926853588559498"><ele>432.0</ele><time>2026-04-18T09:41:54Z</time></trkpt><trkpt lat="43.48941462052895" lon="10.926611994452912"><ele>429.66666666666663</ele><time>2026-04-18T09:41:55Z</time></trkpt><trkpt lat="43.48945163207321" lon="10.926373863851154"><ele>427.3333333333333</ele><time>2026-04-18T09:41:56Z</time></trkpt><trkpt lat="43.48948742957883" lon="10.926131216896977"><ele>425.0</ele><time>2026-04-18T09:41:57Z</time></trkpt><trkpt lat="43.48952275634358" lon="10.925904678603736"><ele>426.5</ele><time>2026-04-18T09:41:58Z</time></trkpt><trkpt lat="43.48955020022227" lon="10.925685318789014"><ele>428.0</ele><time>2026-04-18T09:41:59Z</time></trkpt><trkpt lat="43.48957773209608" lon="10.925481328446164"><ele>429.5</ele><time>2026-04-18T09:42:00Z</time></trkpt><trkpt lat="43.489605221519305" lon="10.925298135116106"><ele>431.0</ele><time>2026-04-18T09:42:01Z</time></trkpt><trkpt lat="43.48962322079411" lon="10.925139237046515"><ele>429.8</ele><time>2026-04-18T09:42:02Z</time></trkpt><trkpt lat="43.48964059070307" lon="10.925019952496621"><ele>428.6</ele><time>2026-04-18T09:42:03Z</time></trkpt><trkpt lat="43.48967231892496" lon="10.924889221384198"><ele>427.4</ele><time>2026-04-18T09:42:05Z</time></trkpt><trkpt lat="43.489513836457775" lon="10.924847528981626"><ele>426.2</ele><time>2026-04-18T09:42:07Z</time></trkpt><trkpt lat="43.489447103721254" lon="10.924861782115087"><ele>425.0</ele><time>2026-04-18T09:42:08Z</time></trkpt><trkpt lat="43.489373028392535" lon="10.924889628307767"><ele>423.4</ele><time>2026-04-18T09:42:09Z</time></trkpt><trkpt lat="43.48931199790614" lon="10.92491926432601"><ele>421.8</ele><time>2026-04-18T09:42:10Z</time></trkpt><trkpt lat="43.48920641055959" lon="10.92501837428264"><ele>420.20000000000005</ele><time>2026-04-18T09:42:12Z</time></trkpt><trkpt lat="43.489158011388966" lon="10.925120174589704"><ele>418.6</ele><time>2026-04-18T09:42:13Z</time></trkpt><trkpt lat="43.489130856368774" lon="10.92523990337632"><ele>417.0</ele><time>2026-04-18T09:42:14Z</time></trkpt><trkpt lat="43.48910308710023" lon="10.925363270746459"><ele>417.0</ele><time>2026-04-18T09:42:15Z</time></trkpt><trkpt lat="43.48909881730042" lon="10.92552281159881"><ele>417.0</ele><time>2026-04-18T09:42:16Z</time></trkpt><trkpt lat="43.48911172894427" lon="10.92567108299043"><ele>417.0</ele><time>2026-04-18T09:42:17Z</time></trkpt><trkpt lat="43.489106215775735" lon="10.925796669872753"><ele>417.0</ele><time>2026-04-18T09:42:18Z</time></trkpt><trkpt lat="43.48908456943439" lon="10.92592823559895"><ele>417.0</ele><time>2026-04-18T09:42:19Z</time></trkpt><trkpt lat="43.48904666596297" lon="10.926041384218838"><ele>418.6</ele><time>2026-04-18T09:42:20Z</time></trkpt><trkpt lat="43.488988165993966" lon="10.926148720783877"><ele>420.20000000000005</ele><time>2026-04-18T09:42:21Z</time></trkpt><trkpt lat="43.4889059874537" lon="10.926249336713482"><ele>421.8</ele><time>2026-04-18T09:42:22Z</time></trkpt><trkpt lat="43.48881004514005" lon="10.926325886641607"><ele>423.4</ele><time>2026-04-18T09:42:23Z</time></trkpt><trkpt lat="43.488696870627486" lon="10.926382808548567"><ele>425.0</ele><time>2026-04-18T09:42:24Z</time></trkpt><trkpt lat="43.48857253509429" lon="10.926426329783403"><ele>421.4</ele><time>2026-04-18T09:42:25Z</time></trkpt><trkpt lat="43.48844634440068" lon="10.926461131242133"><ele>417.8</ele><time>2026-04-18T09:42:26Z</time></trkpt><trkpt lat="43.48834469830412" lon="10.926499026889282"><ele>414.20000000000005</ele><time>2026-04-18T09:42:27Z</time></trkpt><trkpt lat="43.48826035586108" lon="10.926526100751104"><ele>410.6</ele><time>2026-04-18T09:42:28Z</time></trkpt><trkpt lat="43.48818163244168" lon="10.926556455133083"><ele>407.0</ele><time>2026-04-18T09:42:29Z</time></trkpt><trkpt lat="43.488121035433075" lon="10.926607762521504"><ele>407.0</ele><time>2026-04-18T09:42:30Z</time></trkpt><trkpt lat="43.48805420082616" lon="10.926637015565664"><ele>407.0</ele><time>2026-04-18T09:42:33Z</time></trkpt><trkpt lat="43.488017970169324" lon="10.926727789468025"><ele>407.0</ele><time>2026-04-18T09:43:31Z</time></trkpt><trkpt lat="43.48794293252613" lon="10.926886376545077"><ele>407.0</ele><time>2026-04-18T09:43:33Z</time></trkpt><trkpt lat="43.48790878540513" lon="10.926972440497918"><ele>407.0</ele><time>2026-04-18T09:43:34Z</time></trkpt><trkpt lat="43.487832037875066" lon="10.927089663024871"><ele>405.16666666666663</ele><time>2026-04-18T09:43:36Z</time></trkpt><trkpt lat="43.48777464579683" lon="10.927131982833803"><ele>403.3333333333333</ele><time>2026-04-18T09:43:37Z</time></trkpt><trkpt lat="43.487645381563965" lon="10.92714108467404"><ele>401.5</ele><time>2026-04-18T09:43:39Z</time></trkpt><trkpt lat="43.48759409430409" lon="10.927069590890722"><ele>399.66666666666663</ele><time>2026-04-18T09:43:40Z</time></trkpt><trkpt lat="43.48756181857416" lon="10.926989020692305"><ele>397.8333333333333</ele><time>2026-04-18T09:43:41Z</time></trkpt><trkpt lat="43.487550563986446" lon="10.926874956682926"><ele>396.0</ele><time>2026-04-18T09:43:42Z</time></trkpt><trkpt lat="43.48756154874102" lon="10.926751600606728"><ele>395.3333333333333</ele><time>2026-04-18T09:43:43Z</time></trkpt><trkpt lat="43.487571559651215" lon="10.926653349166198"><ele>394.66666666666663</ele><time>2026-04-18T09:43:44Z</time></trkpt><trkpt lat="43.48753036947799" lon="10.926505687234906"><ele>394.0</ele><time>2026-04-18T09:43:46Z</time></trkpt><trkpt lat="43.48747906599811" lon="10.926432787865906"><ele>393.3333333333333</ele><time>2026-04-18T09:43:47Z</time></trkpt><trkpt lat="43.487414816655" lon="10.926378050519737"><ele>392.66666666666663</ele><time>2026-04-18T09:43:48Z</time></trkpt><trkpt lat="43.48731764280092" lon="10.926354140850199"><ele>392.0</ele><time>2026-04-18T09:43:49Z</time></trkpt><trkpt lat="43.48720756515727" lon="10.926344897012408"><ele>388.5</ele><time>2026-04-18T09:43:50Z</time></trkpt><trkpt lat="43.48708288197056" lon="10.926335426601085"><ele>385.0</ele><time>2026-04-18T09:43:51Z</time></trkpt><trkpt lat="43.486942906083" lon="10.926313421689022"><ele>381.5</ele><time>2026-04-18T09:43:52Z</time></trkpt><trkpt lat="43.486800449102084" lon="10.926295893357105"><ele>378.0</ele><time>2026-04-18T09:43:53Z</time></trkpt><trkpt lat="43.48668190962773" lon="10.926269884470656"><ele>378.0</ele><time>2026-04-18T09:43:54Z</time></trkpt><trkpt lat="43.48656008261745" lon="10.926246952947983"><ele>378.0</ele><time>2026-04-18T09:43:55Z</time></trkpt><trkpt lat="43.48642501723257" lon="10.926226009964864"><ele>378.0</ele><time>2026-04-18T09:43:56Z</time></trkpt><trkpt lat="43.486283658912235" lon="10.92621493301673"><ele>378.0</ele><time>2026-04-18T09:43:57Z</time></trkpt><trkpt lat="43.48614174746842" lon="10.926211964296975"><ele>377.5</ele><time>2026-04-18T09:43:58Z</time></trkpt><trkpt lat="43.48601863600808" lon="10.926221359130436"><ele>377.0</ele><time>2026-04-18T09:43:59Z</time></trkpt><trkpt lat="43.48590468230499" lon="10.926235174537233"><ele>376.5</ele><time>2026-04-18T09:44:00Z</time></trkpt><trkpt lat="43.485790707732654" lon="10.926258006838623"><ele>376.0</ele><time>2026-04-18T09:44:01Z</time></trkpt><trkpt lat="43.48568255937601" lon="10.926278349063134"><ele>376.0</ele><time>2026-04-18T09:44:02Z</time></trkpt><trkpt lat="43.485573469471355" lon="10.926265926172283"><ele>376.0</ele><time>2026-04-18T09:44:03Z</time></trkpt><trkpt lat="43.48547168311338" lon="10.92629217612181"><ele>376.0</ele><time>2026-04-18T09:44:04Z</time></trkpt><trkpt lat="43.48536473953433" lon="10.926280398860083"><ele>376.0</ele><time>2026-04-18T09:44:05Z</time></trkpt><trkpt lat="43.48525650601921" lon="10.926256185135339"><ele>376.0</ele><time>2026-04-18T09:44:06Z</time></trkpt><trkpt lat="43.48515471390421" lon="10.92622422283549"><ele>374.0</ele><time>2026-04-18T09:44:07Z</time></trkpt><trkpt lat="43.48505896210363" lon="10.926172032863121"><ele>372.0</ele><time>2026-04-18T09:44:08Z</time></trkpt><trkpt lat="43.48496821132393" lon="10.926087553149383"><ele>370.0</ele><time>2026-04-18T09:44:09Z</time></trkpt><trkpt lat="43.48487710366501" lon="10.925968007570983"><ele>368.0</ele><time>2026-04-18T09:44:10Z</time></trkpt><trkpt lat="43.48478311426802" lon="10.925835638230813"><ele>368.0</ele><time>2026-04-18T09:44:11Z</time></trkpt><trkpt lat="43.48469826506546" lon="10.925721750620284"><ele>368.0</ele><time>2026-04-18T09:44:12Z</time></trkpt><trkpt lat="43.48463465412565" lon="10.925640454324181"><ele>368.0</ele><time>2026-04-18T09:44:13Z</time></trkpt><trkpt lat="43.48457312251368" lon="10.925572418574175"><ele>368.0</ele><time>2026-04-18T09:44:14Z</time></trkpt><trkpt lat="43.48450030360214" lon="10.925529567584377"><ele>368.0</ele><time>2026-04-18T09:44:15Z</time></trkpt><trkpt lat="43.48439824916846" lon="10.925491237187341"><ele>367.0</ele><time>2026-04-18T09:44:16Z</time></trkpt><trkpt lat="43.48428487005651" lon="10.925489276483287"><ele>366.0</ele><time>2026-04-18T09:44:17Z</time></trkpt><trkpt lat="43.48417468405496" lon="10.92551575954698"><ele>365.0</ele><time>2026-04-18T09:44:18Z</time></trkpt><trkpt lat="43.484070230197425" lon="10.925556437880102"><ele>364.0</ele><time>2026-04-18T09:44:19Z</time></trkpt><trkpt lat="43.48397480639279" lon="10.925612907286634"><ele>363.0</ele><time>2026-04-18T09:44:20Z</time></trkpt><trkpt lat="43.48388156936909" lon="10.92568703813181"><ele>363.0</ele><time>2026-04-18T09:44:21Z</time></trkpt><trkpt lat="43.48377497831908" lon="10.925790907579014"><ele>363.0</ele><time>2026-04-18T09:44:22Z</time></trkpt><trkpt lat="43.48366429691503" lon="10.925884615382948"><ele>363.0</ele><time>2026-04-18T09:44:23Z</time></trkpt><trkpt lat="43.483586199961685" lon="10.926002033412326"><ele>363.0</ele><time>2026-04-18T09:44:24Z</time></trkpt><trkpt lat="43.483496168427685" lon="10.926094327209379"><ele>360.5</ele><time>2026-04-18T09:44:25.001Z</time></trkpt><trkpt lat="43.48339762906287" lon="10.926183339542355"><ele>358.0</ele><time>2026-04-18T09:44:26.001Z</time></trkpt><trkpt lat="43.48328464638387" lon="10.92626451730552"><ele>355.5</ele><time>2026-04-18T09:44:27.001Z</time></trkpt><trkpt lat="43.48315649657114" lon="10.926338092004428"><ele>353.0</ele><time>2026-04-18T09:44:28.001Z</time></trkpt><trkpt lat="43.48301264723725" lon="10.92639592168811"><ele>352.75</ele><time>2026-04-18T09:44:29.001Z</time></trkpt><trkpt lat="43.482880786534025" lon="10.926444634610577"><ele>352.5</ele><time>2026-04-18T09:44:30.001Z</time></trkpt><trkpt lat="43.48276485949376" lon="10.926483259775761"><ele>352.25</ele><time>2026-04-18T09:44:31.001Z</time></trkpt><trkpt lat="43.48264800786733" lon="10.926521118024635"><ele>352.0</ele><time>2026-04-18T09:44:32.001Z</time></trkpt><trkpt lat="43.48252416188767" lon="10.926576273478082"><ele>352.0</ele><time>2026-04-18T09:44:33.001Z</time></trkpt><trkpt lat="43.482405510721485" lon="10.926648086820473"><ele>352.0</ele><time>2026-04-18T09:44:34.001Z</time></trkpt><trkpt lat="43.48229778641849" lon="10.926729601364462"><ele>352.0</ele><time>2026-04-18T09:44:35.001Z</time></trkpt><trkpt lat="43.482211828972716" lon="10.926811047294404"><ele>352.0</ele><time>2026-04-18T09:44:36.001Z</time></trkpt><trkpt lat="43.48213983491257" lon="10.926896985033311"><ele>351.0</ele><time>2026-04-18T09:44:37.001Z</time></trkpt><trkpt lat="43.482068485000504" lon="10.927003462829735"><ele>350.0</ele><time>2026-04-18T09:44:38.001Z</time></trkpt><trkpt lat="43.48198926019173" lon="10.927120230539066"><ele>349.0</ele><time>2026-04-18T09:44:39.001Z</time></trkpt><trkpt lat="43.48191213137419" lon="10.927235991919973"><ele>348.0</ele><time>2026-04-18T09:44:40.001Z</time></trkpt><trkpt lat="43.48182138184866" lon="10.927305354269317"><ele>347.0</ele><time>2026-04-18T09:44:41.001Z</time></trkpt><trkpt lat="43.481729965183014" lon="10.927354529643319"><ele>347.0</ele><time>2026-04-18T09:44:42.001Z</time></trkpt><trkpt lat="43.481629102837275" lon="10.927365122801545"><ele>347.0</ele><time>2026-04-18T09:44:43.001Z</time></trkpt><trkpt lat="43.48151445282467" lon="10.927367975469794"><ele>347.0</ele><time>2026-04-18T09:44:44.001Z</time></trkpt><trkpt lat="43.481392559777895" lon="10.927346467860199"><ele>347.0</ele><time>2026-04-18T09:44:45.001Z</time></trkpt><trkpt lat="43.48125446023768" lon="10.927315390284294"><ele>346.0</ele><time>2026-04-18T09:44:46.001Z</time></trkpt><trkpt lat="43.48111025664824" lon="10.92728506915953"><ele>345.0</ele><time>2026-04-18T09:44:47.001Z</time></trkpt><trkpt lat="43.48095942249965" lon="10.9272495049612"><ele>344.0</ele><time>2026-04-18T09:44:48.001Z</time></trkpt><trkpt lat="43.48080706722007" lon="10.927218552297292"><ele>344.0</ele><time>2026-04-18T09:44:49.001Z</time></trkpt><trkpt lat="43.48065425846097" lon="10.927192675199938"><ele>344.0</ele><time>2026-04-18T09:44:50.001Z</time></trkpt><trkpt lat="43.48050040393677" lon="10.927178396973778"><ele>344.0</ele><time>2026-04-18T09:44:51.001Z</time></trkpt><trkpt lat="43.4803696675579" lon="10.927168843741171"><ele>344.0</ele><time>2026-04-18T09:44:52.001Z</time></trkpt><trkpt lat="43.48024151750946" lon="10.927160205496325"><ele>343.5</ele><time>2026-04-18T09:44:53.001Z</time></trkpt><trkpt lat="43.4801028986811" lon="10.927150928542224"><ele>343.0</ele><time>2026-04-18T09:44:54.001Z</time></trkpt><trkpt lat="43.47994995708291" lon="10.927152348587434"><ele>342.5</ele><time>2026-04-18T09:44:55.001Z</time></trkpt><trkpt lat="43.47980122683411" lon="10.927157064089112"><ele>342.0</ele><time>2026-04-18T09:44:56.001Z</time></trkpt><trkpt lat="43.47966602239228" lon="10.927162389966924"><ele>341.25</ele><time>2026-04-18T09:44:57.001Z</time></trkpt><trkpt lat="43.47953761695535" lon="10.927164042047567"><ele>340.5</ele><time>2026-04-18T09:44:58.001Z</time></trkpt><trkpt lat="43.47941264935456" lon="10.927167101153634"><ele>339.75</ele><time>2026-04-18T09:44:59.001Z</time></trkpt><trkpt lat="43.47928668946221" lon="10.927172960619334"><ele>339.0</ele><time>2026-04-18T09:45:00Z</time></trkpt><trkpt lat="43.479161029507026" lon="10.927178546269918"><ele>339.0</ele><time>2026-04-18T09:45:01Z</time></trkpt><trkpt lat="43.47905159852361" lon="10.927186406891868"><ele>339.0</ele><time>2026-04-18T09:45:02Z</time></trkpt><trkpt lat="43.47892189808689" lon="10.927178679290892"><ele>339.0</ele><time>2026-04-18T09:45:03Z</time></trkpt><trkpt lat="43.47879583077779" lon="10.927168444809656"><ele>339.0</ele><time>2026-04-18T09:45:04Z</time></trkpt><trkpt lat="43.47867025897522" lon="10.92713322919016"><ele>337.0</ele><time>2026-04-18T09:45:05Z</time></trkpt><trkpt lat="43.478534724467146" lon="10.927071567839421"><ele>335.0</ele><time>2026-04-18T09:45:06Z</time></trkpt><trkpt lat="43.478385339640525" lon="10.92699889674453"><ele>333.0</ele><time>2026-04-18T09:45:07Z</time></trkpt><trkpt lat="43.47823135192839" lon="10.926931227520095"><ele>333.0</ele><time>2026-04-18T09:45:08Z</time></trkpt><trkpt lat="43.47807296380625" lon="10.926864012526874"><ele>333.0</ele><time>2026-04-18T09:45:09Z</time></trkpt><trkpt lat="43.47792230743246" lon="10.926804443631573"><ele>333.0</ele><time>2026-04-18T09:45:10Z</time></trkpt><trkpt lat="43.477788587541056" lon="10.926756214352865"><ele>334.0</ele><time>2026-04-18T09:45:11Z</time></trkpt><trkpt lat="43.477661941617335" lon="10.926698395989737"><ele>335.0</ele><time>2026-04-18T09:45:12Z</time></trkpt><trkpt lat="43.47754607474498" lon="10.926639616324334"><ele>336.0</ele><time>2026-04-18T09:45:13Z</time></trkpt><trkpt lat="43.477444817308616" lon="10.926580579209729"><ele>337.0</ele><time>2026-04-18T09:45:14Z</time></trkpt><trkpt lat="43.47734538144977" lon="10.926515119373388"><ele>337.0</ele><time>2026-04-18T09:45:15Z</time></trkpt><trkpt lat="43.47723081444247" lon="10.926443598206172"><ele>337.0</ele><time>2026-04-18T09:45:16Z</time></trkpt><trkpt lat="43.47709776523309" lon="10.926356836020616"><ele>337.0</ele><time>2026-04-18T09:45:17Z</time></trkpt><trkpt lat="43.47696476769406" lon="10.926272494854222"><ele>337.0</ele><time>2026-04-18T09:45:18Z</time></trkpt><trkpt lat="43.476840853232304" lon="10.926181199860121"><ele>334.0</ele><time>2026-04-18T09:45:19Z</time></trkpt><trkpt lat="43.476728200325205" lon="10.926100216049894"><ele>331.0</ele><time>2026-04-18T09:45:20Z</time></trkpt><trkpt lat="43.47661996002687" lon="10.92603192625904"><ele>328.0</ele><time>2026-04-18T09:45:21Z</time></trkpt><trkpt lat="43.476521405927734" lon="10.925964830784622"><ele>325.0</ele><time>2026-04-18T09:45:22Z</time></trkpt><trkpt lat="43.47642995670335" lon="10.925901497263201"><ele>325.0</ele><time>2026-04-18T09:45:23Z</time></trkpt><trkpt lat="43.47632892274166" lon="10.925839233407567"><ele>325.0</ele><time>2026-04-18T09:45:24Z</time></trkpt><trkpt lat="43.47623019456332" lon="10.92577285769248"><ele>325.0</ele><time>2026-04-18T09:45:25Z</time></trkpt><trkpt lat="43.47611331758937" lon="10.925729284705179"><ele>325.0</ele><time>2026-04-18T09:45:26Z</time></trkpt><trkpt lat="43.476002473718914" lon="10.92571701257695"><ele>325.0</ele><time>2026-04-18T09:45:27Z</time></trkpt><trkpt lat="43.475881549081926" lon="10.925724345651824"><ele>325.0</ele><time>2026-04-18T09:45:28Z</time></trkpt><trkpt lat="43.475747556962276" lon="10.925751310205374"><ele>325.0</ele><time>2026-04-18T09:45:29Z</time></trkpt><trkpt lat="43.475601308192104" lon="10.925796948442096"><ele>325.0</ele><time>2026-04-18T09:45:30Z</time></trkpt><trkpt lat="43.47544704275577" lon="10.925841913171219"><ele>323.5</ele><time>2026-04-18T09:45:31Z</time></trkpt><trkpt lat="43.47531812844354" lon="10.925874500924957"><ele>322.0</ele><time>2026-04-18T09:45:32Z</time></trkpt><trkpt lat="43.47518857728171" lon="10.925909368273635"><ele>320.5</ele><time>2026-04-18T09:45:33Z</time></trkpt><trkpt lat="43.475052848493355" lon="10.925944517527952"><ele>319.0</ele><time>2026-04-18T09:45:34Z</time></trkpt><trkpt lat="43.474921624987935" lon="10.925975716437794"><ele>315.2</ele><time>2026-04-18T09:45:35Z</time></trkpt><trkpt lat="43.474798975562926" lon="10.926007222199924"><ele>311.4</ele><time>2026-04-18T09:45:36Z</time></trkpt><trkpt lat="43.47468521446893" lon="10.926031274382778"><ele>307.6</ele><time>2026-04-18T09:45:37Z</time></trkpt><trkpt lat="43.47458199406915" lon="10.926033876305201"><ele>303.8</ele><time>2026-04-18T09:45:38Z</time></trkpt><trkpt lat="43.47448388529472" lon="10.926020724226017"><ele>300.0</ele><time>2026-04-18T09:45:39Z</time></trkpt><trkpt lat="43.47439848060134" lon="10.925996806976036"><ele>301.1666666666667</ele><time>2026-04-18T09:45:40Z</time></trkpt><trkpt lat="43.4743163635223" lon="10.925961501628255"><ele>302.3333333333333</ele><time>2026-04-18T09:45:41Z</time></trkpt><trkpt lat="43.47424423807216" lon="10.925910821501787"><ele>303.5</ele><time>2026-04-18T09:45:42Z</time></trkpt><trkpt lat="43.47418084355184" lon="10.925853869025039"><ele>304.66666666666663</ele><time>2026-04-18T09:45:43Z</time></trkpt><trkpt lat="43.47411732514696" lon="10.925784954942095"><ele>305.8333333333333</ele><time>2026-04-18T09:45:44Z</time></trkpt><trkpt lat="43.47405426340273" lon="10.925710662729212"><ele>307.0</ele><time>2026-04-18T09:45:45Z</time></trkpt><trkpt lat="43.47399267261724" lon="10.925631070387098"><ele>307.0</ele><time>2026-04-18T09:45:46Z</time></trkpt><trkpt lat="43.47392688693666" lon="10.925543292170893"><ele>307.0</ele><time>2026-04-18T09:45:47Z</time></trkpt><trkpt lat="43.47386465005294" lon="10.925453463010157"><ele>307.0</ele><time>2026-04-18T09:45:48Z</time></trkpt><trkpt lat="43.4738036869121" lon="10.92536457403393"><ele>307.0</ele><time>2026-04-18T09:45:49Z</time></trkpt><trkpt lat="43.47374411092793" lon="10.925280327303259"><ele>307.0</ele><time>2026-04-18T09:45:50Z</time></trkpt><trkpt lat="43.47367870532879" lon="10.925190338487592"><ele>307.0</ele><time>2026-04-18T09:45:51Z</time></trkpt><trkpt lat="43.473620710349614" lon="10.92508265837956"><ele>305.4</ele><time>2026-04-18T09:45:52Z</time></trkpt><trkpt lat="43.47356473048798" lon="10.924954850945866"><ele>303.79999999999995</ele><time>2026-04-18T09:45:53Z</time></trkpt><trkpt lat="43.473503548187644" lon="10.924797284988927"><ele>302.2</ele><time>2026-04-18T09:45:54Z</time></trkpt><trkpt lat="43.47344718011983" lon="10.92466572858798"><ele>300.59999999999997</ele><time>2026-04-18T09:45:55Z</time></trkpt><trkpt lat="43.47339239478985" lon="10.924560628191887"><ele>299.0</ele><time>2026-04-18T09:45:56Z</time></trkpt><trkpt lat="43.47326417993489" lon="10.924376135002655"><ele>299.0</ele><time>2026-04-18T09:45:58Z</time></trkpt><trkpt lat="43.47316532124437" lon="10.92426921399318"><ele>299.0</ele><time>2026-04-18T09:45:59Z</time></trkpt><trkpt lat="43.4730359187123" lon="10.924161746784039"><ele>299.0</ele><time>2026-04-18T09:46:00Z</time></trkpt><trkpt lat="43.47290098147157" lon="10.924063959658536"><ele>299.0</ele><time>2026-04-18T09:46:01Z</time></trkpt><trkpt lat="43.472783150397134" lon="10.923967716024574"><ele>296.5</ele><time>2026-04-18T09:46:02Z</time></trkpt><trkpt lat="43.47267126172332" lon="10.923878073013785"><ele>294.0</ele><time>2026-04-18T09:46:03Z</time></trkpt><trkpt lat="43.472566407739826" lon="10.923786025741078"><ele>291.5</ele><time>2026-04-18T09:46:04Z</time></trkpt><trkpt lat="43.47246307073779" lon="10.923710345468935"><ele>289.0</ele><time>2026-04-18T09:46:05Z</time></trkpt><trkpt lat="43.47237641543521" lon="10.92363325906044"><ele>289.0</ele><time>2026-04-18T09:46:06Z</time></trkpt><trkpt lat="43.47228290036142" lon="10.923573654588631"><ele>289.0</ele><time>2026-04-18T09:46:07Z</time></trkpt><trkpt lat="43.472211952828864" lon="10.923497208123697"><ele>289.0</ele><time>2026-04-18T09:46:08.001Z</time></trkpt><trkpt lat="43.47214929230243" lon="10.923400335632504"><ele>289.0</ele><time>2026-04-18T09:46:09.001Z</time></trkpt><trkpt lat="43.47210904953273" lon="10.923284341293549"><ele>289.0</ele><time>2026-04-18T09:46:10.001Z</time></trkpt><trkpt lat="43.47210620981686" lon="10.923186675575716"><ele>289.8</ele><time>2026-04-18T09:46:11.001Z</time></trkpt><trkpt lat="43.472122145481734" lon="10.923066980009837"><ele>290.59999999999997</ele><time>2026-04-18T09:46:12.001Z</time></trkpt><trkpt lat="43.47216088112219" lon="10.92293730512647"><ele>291.4</ele><time>2026-04-18T09:46:13.001Z</time></trkpt><trkpt lat="43.472213677492164" lon="10.922817639678264"><ele>292.2</ele><time>2026-04-18T09:46:14.001Z</time></trkpt><trkpt lat="43.4723086297425" lon="10.92271041328751"><ele>293.0</ele><time>2026-04-18T09:46:15.001Z</time></trkpt><trkpt lat="43.47241665584723" lon="10.922591871187882"><ele>290.25</ele><time>2026-04-18T09:46:16.001Z</time></trkpt><trkpt lat="43.4725301811136" lon="10.922462160193781"><ele>287.5</ele><time>2026-04-18T09:46:17.001Z</time></trkpt><trkpt lat="43.472632419796966" lon="10.922348484674457"><ele>284.75</ele><time>2026-04-18T09:46:18.001Z</time></trkpt><trkpt lat="43.47273614151797" lon="10.922232494090286"><ele>282.0</ele><time>2026-04-18T09:46:19.001Z</time></trkpt><trkpt lat="43.472830649475654" lon="10.922116950541191"><ele>282.0</ele><time>2026-04-18T09:46:20.001Z</time></trkpt><trkpt lat="43.47291867226278" lon="10.921990221268311"><ele>282.0</ele><time>2026-04-18T09:46:21.001Z</time></trkpt><trkpt lat="43.47300117974558" lon="10.921876716304505"><ele>282.0</ele><time>2026-04-18T09:46:22.001Z</time></trkpt><trkpt lat="43.47306980934985" lon="10.921754419173585"><ele>282.0</ele><time>2026-04-18T09:46:23.001Z</time></trkpt><trkpt lat="43.47313812245754" lon="10.92164858523813"><ele>281.6</ele><time>2026-04-18T09:46:24.001Z</time></trkpt><trkpt lat="43.47319850888572" lon="10.92153559679269"><ele>281.2</ele><time>2026-04-18T09:46:25.001Z</time></trkpt><trkpt lat="43.47325374182588" lon="10.92142381431114"><ele>280.8</ele><time>2026-04-18T09:46:26.001Z</time></trkpt><trkpt lat="43.473308997417334" lon="10.921292898346184"><ele>280.4</ele><time>2026-04-18T09:46:27.001Z</time></trkpt><trkpt lat="43.47334333553877" lon="10.921128509857358"><ele>280.0</ele><time>2026-04-18T09:46:28.001Z</time></trkpt><trkpt lat="43.47337214373987" lon="10.920945192555369"><ele>278.3333333333333</ele><time>2026-04-18T09:46:29.001Z</time></trkpt><trkpt lat="43.47339778057256" lon="10.920782187497293"><ele>276.66666666666663</ele><time>2026-04-18T09:46:30.001Z</time></trkpt><trkpt lat="43.47341776229717" lon="10.920660529931283"><ele>275.0</ele><time>2026-04-18T09:46:31.001Z</time></trkpt><trkpt lat="43.473431610861496" lon="10.920554150762545"><ele>273.3333333333333</ele><time>2026-04-18T09:46:32.001Z</time></trkpt><trkpt lat="43.47343002894112" lon="10.92044621859023"><ele>271.6666666666667</ele><time>2026-04-18T09:46:33.001Z</time></trkpt><trkpt lat="43.47341796015105" lon="10.920341255032668"><ele>270.0</ele><time>2026-04-18T09:46:34.001Z</time></trkpt><trkpt lat="43.47339855368308" lon="10.920221905159455"><ele>270.0</ele><time>2026-04-18T09:46:35.001Z</time></trkpt><trkpt lat="43.473369552263485" lon="10.920106889948757"><ele>270.0</ele><time>2026-04-18T09:46:36.001Z</time></trkpt><trkpt lat="43.47331349103198" lon="10.919995062450147"><ele>270.0</ele><time>2026-04-18T09:46:37.001Z</time></trkpt><trkpt lat="43.4732345663424" lon="10.91989071942175"><ele>270.0</ele><time>2026-04-18T09:46:38.001Z</time></trkpt><trkpt lat="43.47315260782386" lon="10.919807462037666"><ele>270.0</ele><time>2026-04-18T09:46:39.001Z</time></trkpt><trkpt lat="43.47308313669522" lon="10.919734357904726"><ele>268.6</ele><time>2026-04-18T09:46:40.001Z</time></trkpt><trkpt lat="43.47302428619412" lon="10.919650159718943"><ele>267.2</ele><time>2026-04-18T09:46:41.001Z</time></trkpt><trkpt lat="43.472980539600464" lon="10.91954171203617"><ele>265.8</ele><time>2026-04-18T09:46:42.001Z</time></trkpt><trkpt lat="43.47294216021006" lon="10.919398319243165"><ele>264.4</ele><time>2026-04-18T09:46:43.001Z</time></trkpt><trkpt lat="43.47291260070815" lon="10.91925401960411"><ele>263.0</ele><time>2026-04-18T09:46:44.001Z</time></trkpt><trkpt lat="43.47290797353427" lon="10.919086254125668"><ele>261.2</ele><time>2026-04-18T09:46:45.001Z</time></trkpt><trkpt lat="43.47290076195284" lon="10.918935677118718"><ele>259.4</ele><time>2026-04-18T09:46:46.001Z</time></trkpt><trkpt lat="43.47288194117844" lon="10.918796033349963"><ele>257.59999999999997</ele><time>2026-04-18T09:46:47.001Z</time></trkpt><trkpt lat="43.472843833805406" lon="10.918664865027095"><ele>255.79999999999998</ele><time>2026-04-18T09:46:48.001Z</time></trkpt><trkpt lat="43.47277902532832" lon="10.918509259218794"><ele>254.0</ele><time>2026-04-18T09:46:49.001Z</time></trkpt><trkpt lat="43.47270043193899" lon="10.918352484358229"><ele>252.79999999999998</ele><time>2026-04-18T09:46:50.001Z</time></trkpt><trkpt lat="43.47262301649253" lon="10.918208680651727"><ele>251.59999999999997</ele><time>2026-04-18T09:46:51.001Z</time></trkpt><trkpt lat="43.472563620805005" lon="10.91808588615904"><ele>250.4</ele><time>2026-04-18T09:46:52.001Z</time></trkpt><trkpt lat="43.472508931273964" lon="10.917968291454653"><ele>249.2</ele><time>2026-04-18T09:46:53.001Z</time></trkpt><trkpt lat="43.47245647148325" lon="10.917856073067332"><ele>248.0</ele><time>2026-04-18T09:46:54.001Z</time></trkpt><trkpt lat="43.47240220342763" lon="10.917730293490953"><ele>248.0</ele><time>2026-04-18T09:46:55.001Z</time></trkpt><trkpt lat="43.47234768061189" lon="10.91761669474203"><ele>248.0</ele><time>2026-04-18T09:46:56.001Z</time></trkpt><trkpt lat="43.47229686270052" lon="10.917520127597355"><ele>248.0</ele><time>2026-04-18T09:46:57.001Z</time></trkpt><trkpt lat="43.472243031789" lon="10.91743056949348"><ele>248.0</ele><time>2026-04-18T09:46:58.001Z</time></trkpt><trkpt lat="43.47217564154109" lon="10.917347083354722"><ele>248.0</ele><time>2026-04-18T09:46:59.001Z</time></trkpt><trkpt lat="43.47208271124599" lon="10.917268333212371"><ele>246.66666666666669</ele><time>2026-04-18T09:47:00.001Z</time></trkpt><trkpt lat="43.47199284591294" lon="10.917207729775791"><ele>245.33333333333334</ele><time>2026-04-18T09:47:01.001Z</time></trkpt><trkpt lat="43.47190976454051" lon="10.917165851653243"><ele>244.0</ele><time>2026-04-18T09:47:02.001Z</time></trkpt><trkpt lat="43.47182802768171" lon="10.917138547744598"><ele>242.66666666666669</ele><time>2026-04-18T09:47:03.001Z</time></trkpt><trkpt lat="43.47174895946535" lon="10.91712455088621"><ele>241.33333333333334</ele><time>2026-04-18T09:47:04.001Z</time></trkpt><trkpt lat="43.47167033562355" lon="10.917133153823443"><ele>240.0</ele><time>2026-04-18T09:47:05.001Z</time></trkpt><trkpt lat="43.471578499004686" lon="10.917163863808732"><ele>240.0</ele><time>2026-04-18T09:47:06Z</time></trkpt><trkpt lat="43.471484159518454" lon="10.917211996296547"><ele>240.0</ele><time>2026-04-18T09:47:07Z</time></trkpt><trkpt lat="43.47138972824894" lon="10.917280753543391"><ele>240.0</ele><time>2026-04-18T09:47:08Z</time></trkpt><trkpt lat="43.47128717177024" lon="10.917389944342792"><ele>240.0</ele><time>2026-04-18T09:47:09Z</time></trkpt><trkpt lat="43.47118001244839" lon="10.917513379607685"><ele>239.33333333333331</ele><time>2026-04-18T09:47:10Z</time></trkpt><trkpt lat="43.47106400152517" lon="10.917644515865955"><ele>238.66666666666666</ele><time>2026-04-18T09:47:11Z</time></trkpt><trkpt lat="43.47093422952807" lon="10.917774317454061"><ele>238.0</ele><time>2026-04-18T09:47:12Z</time></trkpt><trkpt lat="43.47081030895533" lon="10.917911234826638"><ele>238.0</ele><time>2026-04-18T09:47:13Z</time></trkpt><trkpt lat="43.47070015637911" lon="10.918029480497308"><ele>238.0</ele><time>2026-04-18T09:47:14Z</time></trkpt><trkpt lat="43.470589546316226" lon="10.918135956331433"><ele>238.0</ele><time>2026-04-18T09:47:15Z</time></trkpt><trkpt lat="43.47048954029527" lon="10.918237934336828"><ele>238.0</ele><time>2026-04-18T09:47:16Z</time></trkpt><trkpt lat="43.470398006538" lon="10.918343786036646"><ele>236.99999999999997</ele><time>2026-04-18T09:47:17Z</time></trkpt><trkpt lat="43.470311613565556" lon="10.918432084892455"><ele>236.0</ele><time>2026-04-18T09:47:18Z</time></trkpt><trkpt lat="43.47022891218055" lon="10.918495876517643"><ele>235.0</ele><time>2026-04-18T09:47:19Z</time></trkpt><trkpt lat="43.47015769122252" lon="10.918530030459808"><ele>234.0</ele><time>2026-04-18T09:47:20Z</time></trkpt><trkpt lat="43.470086533605844" lon="10.91852576530786"><ele>232.99999999999997</ele><time>2026-04-18T09:47:21Z</time></trkpt><trkpt lat="43.47001598417483" lon="10.91847304213515"><ele>232.0</ele><time>2026-04-18T09:47:22Z</time></trkpt><trkpt lat="43.469955109997315" lon="10.918398755543475"><ele>230.99999999999997</ele><time>2026-04-18T09:47:23Z</time></trkpt><trkpt lat="43.469922888898104" lon="10.91830371245914"><ele>230.0</ele><time>2026-04-18T09:47:24Z</time></trkpt><trkpt lat="43.46990726769601" lon="10.918188917348436"><ele>229.0</ele><time>2026-04-18T09:47:25Z</time></trkpt><trkpt lat="43.46991052201391" lon="10.91806174105516"><ele>228.0</ele><time>2026-04-18T09:47:26Z</time></trkpt><trkpt lat="43.46993260340822" lon="10.917938485732762"><ele>226.99999999999997</ele><time>2026-04-18T09:47:27Z</time></trkpt><trkpt lat="43.46995422434783" lon="10.91781988157684"><ele>226.0</ele><time>2026-04-18T09:47:28Z</time></trkpt><trkpt lat="43.469973503194204" lon="10.917715342018933"><ele>225.99999999999997</ele><time>2026-04-18T09:47:29Z</time></trkpt><trkpt lat="43.46998533753687" lon="10.917624168871848"><ele>226.0</ele><time>2026-04-18T09:47:30Z</time></trkpt><trkpt lat="43.46998751194815" lon="10.917532800501698"><ele>226.0</ele><time>2026-04-18T09:47:31Z</time></trkpt><trkpt lat="43.46997805328668" lon="10.917443530968656"><ele>226.0</ele><time>2026-04-18T09:47:32Z</time></trkpt><trkpt lat="43.46991783735362" lon="10.917307440476856"><ele>225.99999999999997</ele><time>2026-04-18T09:47:34Z</time></trkpt><trkpt lat="43.46986654918085" lon="10.917252958778494"><ele>226.0</ele><time>2026-04-18T09:47:35Z</time></trkpt><trkpt lat="43.46978366272344" lon="10.917210929857717"><ele>224.5</ele><time>2026-04-18T09:47:36Z</time></trkpt><trkpt lat="43.46966990427323" lon="10.91719948223335"><ele>223.0</ele><time>2026-04-18T09:47:37Z</time></trkpt><trkpt lat="43.46953084983576" lon="10.917196824917607"><ele>221.5</ele><time>2026-04-18T09:47:38Z</time></trkpt><trkpt lat="43.4693719105133" lon="10.917211995283102"><ele>220.0</ele><time>2026-04-18T09:47:39Z</time></trkpt><trkpt lat="43.46919198761006" lon="10.917213689548088"><ele>217.5</ele><time>2026-04-18T09:47:40Z</time></trkpt><trkpt lat="43.46904103434939" lon="10.917204079536507"><ele>215.0</ele><time>2026-04-18T09:47:41Z</time></trkpt><trkpt lat="43.46890843989469" lon="10.917202147829137"><ele>212.5</ele><time>2026-04-18T09:47:42Z</time></trkpt><trkpt lat="43.46879260058536" lon="10.917212618095283"><ele>210.0</ele><time>2026-04-18T09:47:43Z</time></trkpt><trkpt lat="43.46867695816878" lon="10.917220885319272"><ele>208.25</ele><time>2026-04-18T09:47:44Z</time></trkpt><trkpt lat="43.468552206923086" lon="10.917210185381482"><ele>206.5</ele><time>2026-04-18T09:47:45Z</time></trkpt><trkpt lat="43.46842353693034" lon="10.917186988524566"><ele>204.75</ele><time>2026-04-18T09:47:46Z</time></trkpt><trkpt lat="43.46829724759417" lon="10.917156926351069"><ele>203.0</ele><time>2026-04-18T09:47:47Z</time></trkpt><trkpt lat="43.46818135113109" lon="10.91710143579929"><ele>203.0</ele><time>2026-04-18T09:47:48Z</time></trkpt><trkpt lat="43.4680616709369" lon="10.917022832163013"><ele>203.0</ele><time>2026-04-18T09:47:49Z</time></trkpt><trkpt lat="43.467959042082974" lon="10.916942190105932"><ele>203.0</ele><time>2026-04-18T09:47:50Z</time></trkpt><trkpt lat="43.46787380142509" lon="10.916871586807243"><ele>203.0</ele><time>2026-04-18T09:47:51Z</time></trkpt><trkpt lat="43.46780588758557" lon="10.916790051288482"><ele>203.0</ele><time>2026-04-18T09:47:52Z</time></trkpt><trkpt lat="43.46775290766651" lon="10.916691214073538"><ele>201.60000000000002</ele><time>2026-04-18T09:47:53Z</time></trkpt><trkpt lat="43.46770811783882" lon="10.916579251418217"><ele>200.20000000000002</ele><time>2026-04-18T09:47:54Z</time></trkpt><trkpt lat="43.467695690125645" lon="10.916434826166947"><ele>198.8</ele><time>2026-04-18T09:47:55Z</time></trkpt><trkpt lat="43.46769624800726" lon="10.916287035044014"><ele>197.4</ele><time>2026-04-18T09:47:56Z</time></trkpt><trkpt lat="43.4677044621327" lon="10.916163062154505"><ele>196.0</ele><time>2026-04-18T09:47:57Z</time></trkpt><trkpt lat="43.467731875276066" lon="10.916042707409465"><ele>196.0</ele><time>2026-04-18T09:47:58Z</time></trkpt><trkpt lat="43.46776139295861" lon="10.915909701519206"><ele>196.0</ele><time>2026-04-18T09:47:59Z</time></trkpt><trkpt lat="43.46778904837799" lon="10.915780885198856"><ele>196.0</ele><time>2026-04-18T09:48:00Z</time></trkpt><trkpt lat="43.46781716376546" lon="10.91565952861587"><ele>196.0</ele><time>2026-04-18T09:48:01Z</time></trkpt><trkpt lat="43.467842481595525" lon="10.915524794380916"><ele>196.0</ele><time>2026-04-18T09:48:02Z</time></trkpt><trkpt lat="43.46786599556808" lon="10.91538495973157"><ele>194.5</ele><time>2026-04-18T09:48:03Z</time></trkpt><trkpt lat="43.46788073380873" lon="10.915231779968073"><ele>193.0</ele><time>2026-04-18T09:48:04Z</time></trkpt><trkpt lat="43.46787827609797" lon="10.915056603298737"><ele>191.5</ele><time>2026-04-18T09:48:05.001Z</time></trkpt><trkpt lat="43.467862797801345" lon="10.914863064622779"><ele>190.0</ele><time>2026-04-18T09:48:06.001Z</time></trkpt><trkpt lat="43.46783581021002" lon="10.914635590134981"><ele>189.25</ele><time>2026-04-18T09:48:07.001Z</time></trkpt><trkpt lat="43.46780651238619" lon="10.91441154375064"><ele>188.5</ele><time>2026-04-18T09:48:08.001Z</time></trkpt><trkpt lat="43.46778735324684" lon="10.914222782494042"><ele>187.75</ele><time>2026-04-18T09:48:09.001Z</time></trkpt><trkpt lat="43.467771301052025" lon="10.914063429387229"><ele>187.0</ele><time>2026-04-18T09:48:10.001Z</time></trkpt><trkpt lat="43.46775707632237" lon="10.913917584593344"><ele>186.75</ele><time>2026-04-18T09:48:11.001Z</time></trkpt><trkpt lat="43.46774046400854" lon="10.913773387708877"><ele>186.5</ele><time>2026-04-18T09:48:12.001Z</time></trkpt><trkpt lat="43.467726216761456" lon="10.913625784717832"><ele>186.25</ele><time>2026-04-18T09:48:13.001Z</time></trkpt><trkpt lat="43.4677116613002" lon="10.913483391930136"><ele>186.0</ele><time>2026-04-18T09:48:14.001Z</time></trkpt><trkpt lat="43.472843833805406" lon="10.918664865027095"><ele>201.5</ele><time>2026-04-18T09:46:48.001Z</time></trkpt><trkpt lat="43.47277902532832" lon="10.918509259218794"><ele>217.0</ele><time>2026-04-18T09:46:49.001Z</time></trkpt><trkpt lat="43.47270043193899" lon="10.918352484358229"><ele>232.5</ele><time>2026-04-18T09:46:50.001Z</time></trkpt><trkpt lat="43.47262301649253" lon="10.918208680651727"><ele>248.0</ele><time>2026-04-18T09:46:51.001Z</time></trkpt><trkpt lat="43.472563620805005" lon="10.91808588615904"><ele>248.0</ele><time>2026-04-18T09:46:52.001Z</time></trkpt><trkpt lat="43.472508931273964" lon="10.917968291454653"><ele>248.0</ele><time>2026-04-18T09:46:53.001Z</time></trkpt><trkpt lat="43.47245647148325" lon="10.917856073067332"><ele>248.0</ele><time>2026-04-18T09:46:54.001Z</time></trkpt><trkpt lat="43.47240220342763" lon="10.917730293490953"><ele>248.0</ele><time>2026-04-18T09:46:55.001Z</time></trkpt><trkpt lat="43.47234768061189" lon="10.91761669474203"><ele>248.0</ele><time>2026-04-18T09:46:56.001Z</time></trkpt><trkpt lat="43.47229686270052" lon="10.917520127597355"><ele>247.4</ele><time>2026-04-18T09:46:57.001Z</time></trkpt><trkpt lat="43.472243031789" lon="10.91743056949348"><ele>246.8</ele><time>2026-04-18T09:46:58.001Z</time></trkpt><trkpt lat="43.47217564154109" lon="10.917347083354722"><ele>246.2</ele><time>2026-04-18T09:46:59.001Z</time></trkpt><trkpt lat="43.47208271124599" lon="10.917268333212371"><ele>245.6</ele><time>2026-04-18T09:47:00.001Z</time></trkpt><trkpt lat="43.47199284591294" lon="10.917207729775791"><ele>245.0</ele><time>2026-04-18T09:47:01.001Z</time></trkpt><trkpt lat="43.47190976454051" lon="10.917165851653243"><ele>244.16666666666669</ele><time>2026-04-18T09:47:02.001Z</time></trkpt><trkpt lat="43.47182802768171" lon="10.917138547744598"><ele>243.33333333333334</ele><time>2026-04-18T09:47:03.001Z</time></trkpt><trkpt lat="43.47174895946535" lon="10.91712455088621"><ele>242.5</ele><time>2026-04-18T09:47:04.001Z</time></trkpt><trkpt lat="43.47167033562355" lon="10.917133153823443"><ele>241.66666666666669</ele><time>2026-04-18T09:47:05.001Z</time></trkpt><trkpt lat="43.471578499004686" lon="10.917163863808732"><ele>240.83333333333334</ele><time>2026-04-18T09:47:06Z</time></trkpt><trkpt lat="43.471484159518454" lon="10.917211996296547"><ele>240.0</ele><time>2026-04-18T09:47:07Z</time></trkpt><trkpt lat="43.47138972824894" lon="10.917280753543391"><ele>240.0</ele><time>2026-04-18T09:47:08Z</time></trkpt><trkpt lat="43.47128717177024" lon="10.917389944342792"><ele>240.0</ele><time>2026-04-18T09:47:09Z</time></trkpt><trkpt lat="43.47118001244839" lon="10.917513379607685"><ele>240.0</ele><time>2026-04-18T09:47:10Z</time></trkpt><trkpt lat="43.47106400152517" lon="10.917644515865955"><ele>240.0</ele><time>2026-04-18T09:47:11Z</time></trkpt><trkpt lat="43.47093422952807" lon="10.917774317454061"><ele>239.5</ele><time>2026-04-18T09:47:12Z</time></trkpt><trkpt lat="43.47081030895533" lon="10.917911234826638"><ele>239.0</ele><time>2026-04-18T09:47:13Z</time></trkpt><trkpt lat="43.47070015637911" lon="10.918029480497308"><ele>238.5</ele><time>2026-04-18T09:47:14Z</time></trkpt><trkpt lat="43.470589546316226" lon="10.918135956331433"><ele>238.0</ele><time>2026-04-18T09:47:15Z</time></trkpt><trkpt lat="43.47048954029527" lon="10.918237934336828"><ele>236.8</ele><time>2026-04-18T09:47:16Z</time></trkpt><trkpt lat="43.470398006538" lon="10.918343786036646"><ele>235.60000000000002</ele><time>2026-04-18T09:47:17Z</time></trkpt><trkpt lat="43.470311613565556" lon="10.918432084892455"><ele>234.39999999999998</ele><time>2026-04-18T09:47:18Z</time></trkpt><trkpt lat="43.47022891218055" lon="10.918495876517643"><ele>233.2</ele><time>2026-04-18T09:47:19Z</time></trkpt><trkpt lat="43.47015769122252" lon="10.918530030459808"><ele>232.0</ele><time>2026-04-18T09:47:20Z</time></trkpt><trkpt lat="43.470086533605844" lon="10.91852576530786"><ele>231.99999999999997</ele><time>2026-04-18T09:47:21Z</time></trkpt><trkpt lat="43.47001598417483" lon="10.91847304213515"><ele>232.0</ele><time>2026-04-18T09:47:22Z</time></trkpt><trkpt lat="43.469955109997315" lon="10.918398755543475"><ele>232.0</ele><time>2026-04-18T09:47:23Z</time></trkpt><trkpt lat="43.469922888898104" lon="10.91830371245914"><ele>232.0</ele><time>2026-04-18T09:47:24Z</time></trkpt><trkpt lat="43.46990726769601" lon="10.918188917348436"><ele>231.99999999999997</ele><time>2026-04-18T09:47:25Z</time></trkpt><trkpt lat="43.46991052201391" lon="10.91806174105516"><ele>232.0</ele><time>2026-04-18T09:47:26Z</time></trkpt><trkpt lat="43.46993260340822" lon="10.917938485732762"><ele>230.99999999999997</ele><time>2026-04-18T09:47:27Z</time></trkpt><trkpt lat="43.46995422434783" lon="10.91781988157684"><ele>230.0</ele><time>2026-04-18T09:47:28Z</time></trkpt><trkpt lat="43.469973503194204" lon="10.917715342018933"><ele>229.0</ele><time>2026-04-18T09:47:29Z</time></trkpt><trkpt lat="43.46998533753687" lon="10.917624168871848"><ele>228.0</ele><time>2026-04-18T09:47:30Z</time></trkpt><trkpt lat="43.46998751194815" lon="10.917532800501698"><ele>226.99999999999997</ele><time>2026-04-18T09:47:31Z</time></trkpt><trkpt lat="43.46997805328668" lon="10.917443530968656"><ele>226.0</ele><time>2026-04-18T09:47:32Z</time></trkpt><trkpt lat="43.46991783735362" lon="10.917307440476856"><ele>224.8</ele><time>2026-04-18T09:47:34Z</time></trkpt><trkpt lat="43.46986654918085" lon="10.917252958778494"><ele>223.60000000000002</ele><time>2026-04-18T09:47:35Z</time></trkpt><trkpt lat="43.46978366272344" lon="10.917210929857717"><ele>222.4</ele><time>2026-04-18T09:47:36Z</time></trkpt><trkpt lat="43.46966990427323" lon="10.91719948223335"><ele>221.2</ele><time>2026-04-18T09:47:37Z</time></trkpt><trkpt lat="43.46953084983576" lon="10.917196824917607"><ele>220.0</ele><time>2026-04-18T09:47:38Z</time></trkpt><trkpt lat="43.4693719105133" lon="10.917211995283102"><ele>216.66666666666666</ele><time>2026-04-18T09:47:39Z</time></trkpt><trkpt lat="43.46919198761006" lon="10.917213689548088"><ele>213.33333333333331</ele><time>2026-04-18T09:47:40Z</time></trkpt><trkpt lat="43.46904103434939" lon="10.917204079536507"><ele>210.0</ele><time>2026-04-18T09:47:41Z</time></trkpt><trkpt lat="43.46890843989469" lon="10.917202147829137"><ele>210.0</ele><time>2026-04-18T09:47:42Z</time></trkpt><trkpt lat="43.46879260058536" lon="10.917212618095283"><ele>210.0</ele><time>2026-04-18T09:47:43Z</time></trkpt><trkpt lat="43.46867695816878" lon="10.917220885319272"><ele>210.0</ele><time>2026-04-18T09:47:44Z</time></trkpt><trkpt lat="43.468552206923086" lon="10.917210185381482"><ele>210.0</ele><time>2026-04-18T09:47:45Z</time></trkpt><trkpt lat="43.46842353693034" lon="10.917186988524566"><ele>208.25</ele><time>2026-04-18T09:47:46Z</time></trkpt><trkpt lat="43.46829724759417" lon="10.917156926351069"><ele>206.5</ele><time>2026-04-18T09:47:47Z</time></trkpt><trkpt lat="43.46818135113109" lon="10.91710143579929"><ele>204.75</ele><time>2026-04-18T09:47:48Z</time></trkpt><trkpt lat="43.4680616709369" lon="10.917022832163013"><ele>203.0</ele><time>2026-04-18T09:47:49Z</time></trkpt><trkpt lat="43.467959042082974" lon="10.916942190105932"><ele>202.4</ele><time>2026-04-18T09:47:50Z</time></trkpt><trkpt lat="43.46787380142509" lon="10.916871586807243"><ele>201.8</ele><time>2026-04-18T09:47:51Z</time></trkpt><trkpt lat="43.46780588758557" lon="10.916790051288482"><ele>201.2</ele><time>2026-04-18T09:47:52Z</time></trkpt><trkpt lat="43.46775290766651" lon="10.916691214073538"><ele>200.6</ele><time>2026-04-18T09:47:53Z</time></trkpt><trkpt lat="43.46770811783882" lon="10.916579251418217"><ele>200.0</ele><time>2026-04-18T09:47:54Z</time></trkpt><trkpt lat="43.467695690125645" lon="10.916434826166947"><ele>199.2</ele><time>2026-04-18T09:47:55Z</time></trkpt><trkpt lat="43.46769624800726" lon="10.916287035044014"><ele>198.4</ele><time>2026-04-18T09:47:56Z</time></trkpt><trkpt lat="43.4677044621327" lon="10.916163062154505"><ele>197.60000000000002</ele><time>2026-04-18T09:47:57Z</time></trkpt><trkpt lat="43.467731875276066" lon="10.916042707409465"><ele>196.8</ele><time>2026-04-18T09:47:58Z</time></trkpt><trkpt lat="43.46776139295861" lon="10.915909701519206"><ele>196.0</ele><time>2026-04-18T09:47:59Z</time></trkpt><trkpt lat="43.46778904837799" lon="10.915780885198856"><ele>194.8</ele><time>2026-04-18T09:48:00Z</time></trkpt><trkpt lat="43.46781716376546" lon="10.91565952861587"><ele>193.60000000000002</ele><time>2026-04-18T09:48:01Z</time></trkpt><trkpt lat="43.467842481595525" lon="10.915524794380916"><ele>192.4</ele><time>2026-04-18T09:48:02Z</time></trkpt><trkpt lat="43.46786599556808" lon="10.91538495973157"><ele>191.2</ele><time>2026-04-18T09:48:03Z</time></trkpt><trkpt lat="43.46788073380873" lon="10.915231779968073"><ele>190.0</ele><time>2026-04-18T09:48:04Z</time></trkpt><trkpt lat="43.46787827609797" lon="10.915056603298737"><ele>189.0</ele><time>2026-04-18T09:48:05.001Z</time></trkpt><trkpt lat="43.467862797801345" lon="10.914863064622779"><ele>188.0</ele><time>2026-04-18T09:48:06.001Z</time></trkpt><trkpt lat="43.46783581021002" lon="10.914635590134981"><ele>187.0</ele><time>2026-04-18T09:48:07.001Z</time></trkpt><trkpt lat="43.46780651238619" lon="10.91441154375064"><ele>186.75</ele><time>2026-04-18T09:48:08.001Z</time></trkpt><trkpt lat="43.46778735324684" lon="10.914222782494042"><ele>186.5</ele><time>2026-04-18T09:48:09.001Z</time></trkpt><trkpt lat="43.467771301052025" lon="10.914063429387229"><ele>186.25</ele><time>2026-04-18T09:48:10.001Z</time></trkpt><trkpt lat="43.46775707632237" lon="10.913917584593344"><ele>186.0</ele><time>2026-04-18T09:48:11.001Z</time></trkpt><trkpt lat="43.46774046400854" lon="10.913773387708877"><ele>186.0</ele><time>2026-04-18T09:48:12.001Z</time></trkpt><trkpt lat="43.467726216761456" lon="10.913625784717832"><ele>186.0</ele><time>2026-04-18T09:48:13.001Z</time></trkpt><trkpt lat="43.4677116613002" lon="10.913483391930136"><ele>186.0</ele><time>2026-04-18T09:48:14.001Z</time></trkpt><trkpt lat="43.46768597951149" lon="10.91335388733413"><ele>186.0</ele><time>2026-04-18T09:48:15.001Z</time></trkpt><trkpt lat="43.467655387048936" lon="10.913232573392436"><ele>186.0</ele><time>2026-04-18T09:48:16.001Z</time></trkpt><trkpt lat="43.46761504170824" lon="10.91313851028508"><ele>185.66666666666666</ele><time>2026-04-18T09:48:17.001Z</time></trkpt><trkpt lat="43.467514770991095" lon="10.91302588072497"><ele>185.33333333333334</ele><time>2026-04-18T09:48:19.001Z</time></trkpt><trkpt lat="43.467445747639985" lon="10.91299997873754"><ele>185.0</ele><time>2026-04-18T09:48:20.001Z</time></trkpt><trkpt lat="43.46738091189832" lon="10.912993648548289"><ele>184.66666666666669</ele><time>2026-04-18T09:48:21.001Z</time></trkpt><trkpt lat="43.4673072206675" lon="10.913019557538611"><ele>184.33333333333334</ele><time>2026-04-18T09:48:23.001Z</time></trkpt><trkpt lat="43.46724023941097" lon="10.913044631880474"><ele>184.0</ele><time>2026-04-18T09:48:27.001Z</time></trkpt><trkpt lat="43.46716162609438" lon="10.913069517230992"><ele>184.66666666666669</ele><time>2026-04-18T09:48:31.001Z</time></trkpt><trkpt lat="43.46710037724356" lon="10.913091883565095"><ele>185.33333333333334</ele><time>2026-04-18T09:48:34.001Z</time></trkpt><trkpt lat="43.467016236925005" lon="10.913125079887745"><ele>186.0</ele><time>2026-04-18T09:48:36.001Z</time></trkpt><trkpt lat="43.466938019700855" lon="10.913151708896658"><ele>186.66666666666666</ele><time>2026-04-18T09:48:37.001Z</time></trkpt><trkpt lat="43.46685502150458" lon="10.91317257227166"><ele>187.33333333333331</ele><time>2026-04-18T09:48:38.001Z</time></trkpt><trkpt lat="43.46677289295261" lon="10.913178997202222"><ele>188.0</ele><time>2026-04-18T09:48:39.001Z</time></trkpt><trkpt lat="43.46667491543179" lon="10.913172195163106"><ele>188.0</ele><time>2026-04-18T09:48:40.001Z</time></trkpt><trkpt lat="43.46655192743724" lon="10.91314246784428"><ele>188.0</ele><time>2026-04-18T09:48:41.001Z</time></trkpt><trkpt lat="43.46643222855064" lon="10.913116187330262"><ele>188.0</ele><time>2026-04-18T09:48:42.001Z</time></trkpt><trkpt lat="43.466297551102905" lon="10.913099670374368"><ele>188.0</ele><time>2026-04-18T09:48:43.001Z</time></trkpt><trkpt lat="43.4661593813817" lon="10.91307475255599"><ele>189.0</ele><time>2026-04-18T09:48:44.001Z</time></trkpt><trkpt lat="43.46600705022381" lon="10.913049302497132"><ele>190.0</ele><time>2026-04-18T09:48:45.001Z</time></trkpt><trkpt lat="43.46586719783706" lon="10.913022171891004"><ele>191.0</ele><time>2026-04-18T09:48:46.001Z</time></trkpt><trkpt lat="43.46574785891616" lon="10.913006352363938"><ele>192.0</ele><time>2026-04-18T09:48:47.001Z</time></trkpt><trkpt lat="43.46564661909337" lon="10.912994875876597"><ele>192.0</ele><time>2026-04-18T09:48:48.001Z</time></trkpt><trkpt lat="43.465546587762795" lon="10.912999772289602"><ele>192.0</ele><time>2026-04-18T09:48:49.001Z</time></trkpt><trkpt lat="43.46543518164587" lon="10.913036001857845"><ele>192.0</ele><time>2026-04-18T09:48:50.001Z</time></trkpt><trkpt lat="43.465323118973615" lon="10.913106482944276"><ele>192.0</ele><time>2026-04-18T09:48:51.001Z</time></trkpt><trkpt lat="43.465201888315896" lon="10.913193406426494"><ele>193.0</ele><time>2026-04-18T09:48:52.001Z</time></trkpt><trkpt lat="43.46508615746704" lon="10.913313387665745"><ele>194.0</ele><time>2026-04-18T09:48:53.001Z</time></trkpt><trkpt lat="43.46498145232612" lon="10.913444482823097"><ele>195.0</ele><time>2026-04-18T09:48:54.001Z</time></trkpt><trkpt lat="43.464869133392234" lon="10.913577111318874"><ele>196.0</ele><time>2026-04-18T09:48:55.001Z</time></trkpt><trkpt lat="43.464761218161335" lon="10.913702641570152"><ele>196.0</ele><time>2026-04-18T09:48:56.001Z</time></trkpt><trkpt lat="43.46467387557865" lon="10.913798474693651"><ele>196.0</ele><time>2026-04-18T09:48:57.001Z</time></trkpt><trkpt lat="43.46459729043267" lon="10.913875189927282"><ele>196.0</ele><time>2026-04-18T09:48:58.001Z</time></trkpt><trkpt lat="43.46450952856144" lon="10.913943218286784"><ele>196.0</ele><time>2026-04-18T09:48:59.001Z</time></trkpt><trkpt lat="43.46441346530507" lon="10.913989317898091"><ele>196.0</ele><time>2026-04-18T09:49:00.001Z</time></trkpt><trkpt lat="43.46431656996386" lon="10.913993307555307"><ele>195.0</ele><time>2026-04-18T09:49:01.001Z</time></trkpt><trkpt lat="43.46421794542887" lon="10.913966533893596"><ele>194.0</ele><time>2026-04-18T09:49:02.001Z</time></trkpt><trkpt lat="43.464114322291046" lon="10.913904742676326"><ele>193.0</ele><time>2026-04-18T09:49:03.001Z</time></trkpt><trkpt lat="43.46401726682645" lon="10.913840961076241"><ele>192.0</ele><time>2026-04-18T09:49:04.001Z</time></trkpt><trkpt lat="43.46393339712894" lon="10.913788771486743"><ele>191.0</ele><time>2026-04-18T09:49:05.001Z</time></trkpt><trkpt lat="43.46384537545407" lon="10.913782497089693"><ele>192.20000000000002</ele><time>2026-04-18T09:49:06.001Z</time></trkpt><trkpt lat="43.463756380609766" lon="10.913841003905194"><ele>193.4</ele><time>2026-04-18T09:49:07.001Z</time></trkpt><trkpt lat="43.46367497212285" lon="10.913938589398896"><ele>194.6</ele><time>2026-04-18T09:49:08.001Z</time></trkpt><trkpt lat="43.463611708392406" lon="10.914046082701471"><ele>195.8</ele><time>2026-04-18T09:49:09.001Z</time></trkpt><trkpt lat="43.46356161635615" lon="10.914157405395528"><ele>197.0</ele><time>2026-04-18T09:49:10.001Z</time></trkpt><trkpt lat="43.46350719414951" lon="10.914278497642803"><ele>197.00000000000003</ele><time>2026-04-18T09:49:11.001Z</time></trkpt><trkpt lat="43.46345571662118" lon="10.914393158960792"><ele>197.0</ele><time>2026-04-18T09:49:12Z</time></trkpt><trkpt lat="43.46339497191853" lon="10.91447849280839"><ele>197.0</ele><time>2026-04-18T09:49:13Z</time></trkpt><trkpt lat="43.46335588181649" lon="10.914595295592513"><ele>197.0</ele><time>2026-04-18T09:49:14Z</time></trkpt><trkpt lat="43.463304787340384" lon="10.914684248215169"><ele>197.00000000000003</ele><time>2026-04-18T09:49:15Z</time></trkpt><trkpt lat="43.46325246191714" lon="10.914773409804356"><ele>197.0</ele><time>2026-04-18T09:49:16Z</time></trkpt><trkpt lat="43.463209361186806" lon="10.914858049671087"><ele>197.00000000000003</ele><time>2026-04-18T09:49:17Z</time></trkpt><trkpt lat="43.46316649797534" lon="10.91493037788561"><ele>197.0</ele><time>2026-04-18T09:49:18Z</time></trkpt><trkpt lat="43.46311737754526" lon="10.915008398588279"><ele>197.0</ele><time>2026-04-18T09:49:19Z</time></trkpt><trkpt lat="43.46306649838257" lon="10.91509478452507"><ele>197.0</ele><time>2026-04-18T09:49:20Z</time></trkpt><trkpt lat="43.463013619235895" lon="10.915170998797695"><ele>197.00000000000003</ele><time>2026-04-18T09:49:21Z</time></trkpt><trkpt lat="43.4629542302998" lon="10.915238305736333"><ele>197.0</ele><time>2026-04-18T09:49:22Z</time></trkpt><trkpt lat="43.462889768082455" lon="10.915301643790082"><ele>198.39999999999998</ele><time>2026-04-18T09:49:23Z</time></trkpt><trkpt lat="43.46281681683194" lon="10.915358777366396"><ele>199.79999999999998</ele><time>2026-04-18T09:49:24Z</time></trkpt><trkpt lat="43.462732994274" lon="10.915409208557238"><ele>201.2</ele><time>2026-04-18T09:49:25Z</time></trkpt><trkpt lat="43.46263888423888" lon="10.915457641212695"><ele>202.6</ele><time>2026-04-18T09:49:26Z</time></trkpt><trkpt lat="43.46254425405538" lon="10.915504990739336"><ele>204.0</ele><time>2026-04-18T09:49:27Z</time></trkpt><trkpt lat="43.462431092158205" lon="10.915558974709237"><ele>204.0</ele><time>2026-04-18T09:49:28Z</time></trkpt><trkpt lat="43.46230462593457" lon="10.915605347759078"><ele>204.0</ele><time>2026-04-18T09:49:29Z</time></trkpt><trkpt lat="43.46215629885518" lon="10.91564138613046"><ele>204.0</ele><time>2026-04-18T09:49:30Z</time></trkpt><trkpt lat="43.46198488725797" lon="10.915671340408075"><ele>207.66666666666669</ele><time>2026-04-18T09:49:31Z</time></trkpt><trkpt lat="43.461810458083356" lon="10.915698603238159"><ele>211.33333333333334</ele><time>2026-04-18T09:49:32Z</time></trkpt><trkpt lat="43.46163366235586" lon="10.915738255922575"><ele>215.0</ele><time>2026-04-18T09:49:33Z</time></trkpt><trkpt lat="43.461481985923385" lon="10.915786905626721"><ele>215.0</ele><time>2026-04-18T09:49:34Z</time></trkpt><trkpt lat="43.461347553971336" lon="10.915834444409645"><ele>215.0</ele><time>2026-04-18T09:49:35Z</time></trkpt><trkpt lat="43.461218164989454" lon="10.915844929440455"><ele>215.0</ele><time>2026-04-18T09:49:36Z</time></trkpt><trkpt lat="43.46110929918703" lon="10.915846823127215"><ele>215.0</ele><time>2026-04-18T09:49:37Z</time></trkpt><trkpt lat="43.46100381487599" lon="10.915814824662117"><ele>216.2</ele><time>2026-04-18T09:49:38Z</time></trkpt><trkpt lat="43.4608996996037" lon="10.91574848267101"><ele>217.4</ele><time>2026-04-18T09:49:39Z</time></trkpt><trkpt lat="43.460802004757255" lon="10.91562562207572"><ele>218.60000000000002</ele><time>2026-04-18T09:49:40Z</time></trkpt><trkpt lat="43.46070734390698" lon="10.91554143277698"><ele>219.8</ele><time>2026-04-18T09:49:41Z</time></trkpt><trkpt lat="43.4606475935698" lon="10.915488292128291"><ele>221.0</ele><time>2026-04-18T09:49:42Z</time></trkpt><trkpt lat="43.460570686883734" lon="10.915438565973915"><ele>223.0</ele><time>2026-04-18T09:49:44Z</time></trkpt><trkpt lat="43.46037695426474" lon="10.915787794851298"><ele>225.0</ele><time>2026-04-18T09:49:45Z</time></trkpt><trkpt lat="43.46028162970051" lon="10.915867818688175"><ele>227.0</ele><time>2026-04-18T09:49:46Z</time></trkpt><trkpt lat="43.460188955650054" lon="10.91589123433879"><ele>227.0</ele><time>2026-04-18T09:49:47Z</time></trkpt><trkpt lat="43.460065676738914" lon="10.91590103319547"><ele>227.0</ele><time>2026-04-18T09:49:48Z</time></trkpt><trkpt lat="43.4599359973164" lon="10.915875576357475"><ele>227.0</ele><time>2026-04-18T09:49:49Z</time></trkpt><trkpt lat="43.459846267669164" lon="10.91578971532631"><ele>227.0</ele><time>2026-04-18T09:49:50Z</time></trkpt><trkpt lat="43.45976406472886" lon="10.915701729823551"><ele>227.0</ele><time>2026-04-18T09:49:51Z</time></trkpt><trkpt lat="43.45968759656807" lon="10.91556515826335"><ele>227.0</ele><time>2026-04-18T09:49:52Z</time></trkpt><trkpt lat="43.45959767506074" lon="10.915411777886991"><ele>227.0</ele><time>2026-04-18T09:49:53Z</time></trkpt><trkpt lat="43.459522886851396" lon="10.915291359414343"><ele>227.0</ele><time>2026-04-18T09:49:54Z</time></trkpt><trkpt lat="43.45944184872607" lon="10.915202946021303"><ele>227.6</ele><time>2026-04-18T09:49:55Z</time></trkpt><trkpt lat="43.4593535860568" lon="10.9151685520175"><ele>228.2</ele><time>2026-04-18T09:49:56Z</time></trkpt><trkpt lat="43.45926306302302" lon="10.915167239329449"><ele>228.8</ele><time>2026-04-18T09:49:57Z</time></trkpt><trkpt lat="43.45917035428071" lon="10.915209659801834"><ele>229.4</ele><time>2026-04-18T09:49:58Z</time></trkpt><trkpt lat="43.45907286202329" lon="10.915290810430774"><ele>230.0</ele><time>2026-04-18T09:49:59Z</time></trkpt><trkpt lat="43.45898410031381" lon="10.915345724112912"><ele>230.0</ele><time>2026-04-18T09:50:00Z</time></trkpt><trkpt lat="43.458897324764514" lon="10.915342038863644"><ele>230.0</ele><time>2026-04-18T09:50:01Z</time></trkpt><trkpt lat="43.458816466278286" lon="10.91528637080878"><ele>230.0</ele><time>2026-04-18T09:50:02Z</time></trkpt><trkpt lat="43.458733966822294" lon="10.915213706039506"><ele>230.0</ele><time>2026-04-18T09:50:03Z</time></trkpt><trkpt lat="43.4586626226206" lon="10.915116738037085"><ele>230.0</ele><time>2026-04-18T09:50:04Z</time></trkpt><trkpt lat="43.45861031916945" lon="10.91500661570265"><ele>231.25</ele><time>2026-04-18T09:50:05Z</time></trkpt><trkpt lat="43.45857784245246" lon="10.914869745010186"><ele>232.5</ele><time>2026-04-18T09:50:06Z</time></trkpt><trkpt lat="43.45855355812433" lon="10.914733568501266"><ele>233.75</ele><time>2026-04-18T09:50:07Z</time></trkpt><trkpt lat="43.45855603323605" lon="10.91458203226362"><ele>235.0</ele><time>2026-04-18T09:50:08Z</time></trkpt><trkpt lat="43.45856018034493" lon="10.914389724096662"><ele>237.66666666666666</ele><time>2026-04-18T09:50:09.001Z</time></trkpt><trkpt lat="43.45856146735586" lon="10.914165522658749"><ele>240.33333333333331</ele><time>2026-04-18T09:50:10.001Z</time></trkpt><trkpt lat="43.458560758449856" lon="10.913913568600405"><ele>243.0</ele><time>2026-04-18T09:50:11.001Z</time></trkpt><trkpt lat="43.45856352303335" lon="10.913659176117273"><ele>243.0</ele><time>2026-04-18T09:50:12.001Z</time></trkpt><trkpt lat="43.4585679234434" lon="10.913486965203383"><ele>243.0</ele><time>2026-04-18T09:50:13.001Z</time></trkpt><trkpt lat="43.4585730721175" lon="10.913345314580203"><ele>243.0</ele><time>2026-04-18T09:50:14.001Z</time></trkpt><trkpt lat="43.45856200962404" lon="10.91320493603945"><ele>243.0</ele><time>2026-04-18T09:50:15.001Z</time></trkpt><trkpt lat="43.45853571807318" lon="10.91307333409251"><ele>243.0</ele><time>2026-04-18T09:50:16.001Z</time></trkpt><trkpt lat="43.45848491775199" lon="10.912954118657893"><ele>244.75</ele><time>2026-04-18T09:50:17.001Z</time></trkpt><trkpt lat="43.45840655983745" lon="10.912854170561886"><ele>246.5</ele><time>2026-04-18T09:50:18.001Z</time></trkpt><trkpt lat="43.45831177031741" lon="10.912761943186927"><ele>248.25</ele><time>2026-04-18T09:50:19.001Z</time></trkpt><trkpt lat="43.4581963266676" lon="10.912692315236118"><ele>250.0</ele><time>2026-04-18T09:50:20.001Z</time></trkpt><trkpt lat="43.458058898721355" lon="10.912608573292143"><ele>253.0</ele><time>2026-04-18T09:50:21.001Z</time></trkpt><trkpt lat="43.457907521338896" lon="10.912505888113344"><ele>256.0</ele><time>2026-04-18T09:50:22.001Z</time></trkpt><trkpt lat="43.45772887520475" lon="10.912383483238461"><ele>259.0</ele><time>2026-04-18T09:50:23.001Z</time></trkpt><trkpt lat="43.45754608734306" lon="10.91225206789539"><ele>259.0</ele><time>2026-04-18T09:50:24.001Z</time></trkpt><trkpt lat="43.45736356975719" lon="10.912123861659774"><ele>259.0</ele><time>2026-04-18T09:50:25.001Z</time></trkpt><trkpt lat="43.457184880682476" lon="10.911996057479803"><ele>259.0</ele><time>2026-04-18T09:50:26.001Z</time></trkpt><trkpt lat="43.45702902747208" lon="10.911887319842023"><ele>260.0</ele><time>2026-04-18T09:50:27.001Z</time></trkpt><trkpt lat="43.45689188138153" lon="10.911787509024036"><ele>261.0</ele><time>2026-04-18T09:50:28.001Z</time></trkpt><trkpt lat="43.45677435136177" lon="10.911708350469542"><ele>262.0</ele><time>2026-04-18T09:50:29.001Z</time></trkpt><trkpt lat="43.45667409904896" lon="10.911641141829284"><ele>263.0</ele><time>2026-04-18T09:50:30.001Z</time></trkpt><trkpt lat="43.45658105117892" lon="10.91157696803165"><ele>263.1666666666667</ele><time>2026-04-18T09:50:31.001Z</time></trkpt><trkpt lat="43.4565119585633" lon="10.911524399769105"><ele>263.33333333333337</ele><time>2026-04-18T09:50:32.001Z</time></trkpt><trkpt lat="43.45644935989407" lon="10.911484489784076"><ele>263.5</ele><time>2026-04-18T09:50:33.001Z</time></trkpt><trkpt lat="43.45637603479648" lon="10.911489148418577"><ele>263.6666666666667</ele><time>2026-04-18T09:50:35.001Z</time></trkpt><trkpt lat="43.45629779293505" lon="10.911516763825885"><ele>263.8333333333333</ele><time>2026-04-18T09:50:39.001Z</time></trkpt><trkpt lat="43.45622005974606" lon="10.911546642684922"><ele>264.0</ele><time>2026-04-18T09:50:50.001Z</time></trkpt><trkpt lat="43.456118503819894" lon="10.911637900716567"><ele>265.3333333333333</ele><time>2026-04-18T09:50:52.001Z</time></trkpt><trkpt lat="43.456052164635366" lon="10.91167232763501"><ele>266.6666666666667</ele><time>2026-04-18T09:50:53.001Z</time></trkpt><trkpt lat="43.455963835299556" lon="10.911704586253911"><ele>268.0</ele><time>2026-04-18T09:50:55.001Z</time></trkpt><trkpt lat="43.45588712089598" lon="10.911740280292715"><ele>269.33333333333337</ele><time>2026-04-18T09:50:57.001Z</time></trkpt><trkpt lat="43.45582800817808" lon="10.911772933564611"><ele>270.6666666666667</ele><time>2026-04-18T09:50:58.001Z</time></trkpt><trkpt lat="43.45574072496101" lon="10.911810925854505"><ele>272.0</ele><time>2026-04-18T09:50:59.001Z</time></trkpt><trkpt lat="43.45562853570982" lon="10.911853868015747"><ele>272.0</ele><time>2026-04-18T09:51:00.001Z</time></trkpt><trkpt lat="43.45549727921054" lon="10.911893849392165"><ele>272.0</ele><time>2026-04-18T09:51:01.001Z</time></trkpt><trkpt lat="43.4553499714588" lon="10.91192686771245"><ele>272.0</ele><time>2026-04-18T09:51:02.001Z</time></trkpt><trkpt lat="43.45519014630996" lon="10.911952764590906"><ele>272.0</ele><time>2026-04-18T09:51:03.001Z</time></trkpt><trkpt lat="43.4550501901439" lon="10.91197897833869"><ele>274.5</ele><time>2026-04-18T09:51:04.001Z</time></trkpt><trkpt lat="43.454948279460076" lon="10.912012008317685"><ele>277.0</ele><time>2026-04-18T09:51:05.001Z</time></trkpt><trkpt lat="43.45484069688492" lon="10.912072906333261"><ele>279.5</ele><time>2026-04-18T09:51:06.001Z</time></trkpt><trkpt lat="43.45471782453292" lon="10.912156671346173"><ele>282.0</ele><time>2026-04-18T09:51:07.001Z</time></trkpt><trkpt lat="43.45458982878808" lon="10.91222700681666"><ele>284.5</ele><time>2026-04-18T09:51:08.001Z</time></trkpt><trkpt lat="43.45445724765773" lon="10.912265396005917"><ele>287.0</ele><time>2026-04-18T09:51:09.001Z</time></trkpt><trkpt lat="43.45431928410852" lon="10.912269557097652"><ele>289.5</ele><time>2026-04-18T09:51:10.001Z</time></trkpt><trkpt lat="43.45416937710386" lon="10.912263172315033"><ele>292.0</ele><time>2026-04-18T09:51:11.001Z</time></trkpt><trkpt lat="43.454046620832926" lon="10.91224262001734"><ele>292.0</ele><time>2026-04-18T09:51:12.001Z</time></trkpt><trkpt lat="43.45395451772488" lon="10.9122029890282"><ele>292.0</ele><time>2026-04-18T09:51:13.001Z</time></trkpt><trkpt lat="43.45387244012647" lon="10.91215586088526"><ele>292.0</ele><time>2026-04-18T09:51:14.001Z</time></trkpt><trkpt lat="43.45378004954511" lon="10.912121036222285"><ele>292.0</ele><time>2026-04-18T09:51:15.001Z</time></trkpt><trkpt lat="43.45368430119361" lon="10.912107321209579"><ele>292.0</ele><time>2026-04-18T09:51:16.001Z</time></trkpt><trkpt lat="43.453569971737494" lon="10.912108307506555"><ele>292.5</ele><time>2026-04-18T09:51:17.001Z</time></trkpt><trkpt lat="43.45344964841005" lon="10.912127634564786"><ele>293.0</ele><time>2026-04-18T09:51:18Z</time></trkpt><trkpt lat="43.45331364584809" lon="10.912171479609006"><ele>293.5</ele><time>2026-04-18T09:51:19Z</time></trkpt><trkpt lat="43.45315601408555" lon="10.912234772165155"><ele>294.0</ele><time>2026-04-18T09:51:20Z</time></trkpt><trkpt lat="43.45301877851695" lon="10.912271746280595"><ele>293.59999999999997</ele><time>2026-04-18T09:51:21Z</time></trkpt><trkpt lat="43.4529018564414" lon="10.912294428951164"><ele>293.2</ele><time>2026-04-18T09:51:22Z</time></trkpt><trkpt lat="43.45279653327857" lon="10.912312722436173"><ele>292.79999999999995</ele><time>2026-04-18T09:51:23Z</time></trkpt><trkpt lat="43.452702502052276" lon="10.912317074329001"><ele>292.4</ele><time>2026-04-18T09:51:24Z</time></trkpt><trkpt lat="43.45260570939505" lon="10.912299936312094"><ele>292.0</ele><time>2026-04-18T09:51:25Z</time></trkpt><trkpt lat="43.45249634858597" lon="10.912248167885183"><ele>292.0</ele><time>2026-04-18T09:51:26Z</time></trkpt><trkpt lat="43.45237839959674" lon="10.91217402328345"><ele>292.0</ele><time>2026-04-18T09:51:27Z</time></trkpt><trkpt lat="43.452264639253336" lon="10.912107471419596"><ele>292.0</ele><time>2026-04-18T09:51:28Z</time></trkpt><trkpt lat="43.452139171621205" lon="10.912080461687466"><ele>292.0</ele><time>2026-04-18T09:51:29Z</time></trkpt><trkpt lat="43.45199318537823" lon="10.912074193790016"><ele>290.75</ele><time>2026-04-18T09:51:30Z</time></trkpt><trkpt lat="43.45183376745369" lon="10.912070403976335"><ele>289.5</ele><time>2026-04-18T09:51:31Z</time></trkpt><trkpt lat="43.451689961640504" lon="10.912072697834022"><ele>288.25</ele><time>2026-04-18T09:51:32Z</time></trkpt><trkpt lat="43.45157570767485" lon="10.912070098878557"><ele>287.0</ele><time>2026-04-18T09:51:33Z</time></trkpt><trkpt lat="43.451475678012535" lon="10.91204937961498"><ele>287.0</ele><time>2026-04-18T09:51:34Z</time></trkpt><trkpt lat="43.451371493782595" lon="10.912014952559899"><ele>287.0</ele><time>2026-04-18T09:51:35Z</time></trkpt><trkpt lat="43.45126707430175" lon="10.911951763631217"><ele>287.0</ele><time>2026-04-18T09:51:36Z</time></trkpt><trkpt lat="43.45118208053406" lon="10.91191608182937"><ele>287.0</ele><time>2026-04-18T09:51:37Z</time></trkpt><trkpt lat="43.45109700339285" lon="10.911904870160013"><ele>287.0</ele><time>2026-04-18T09:51:38Z</time></trkpt><trkpt lat="43.450998395809584" lon="10.91192142627136"><ele>286.33333333333337</ele><time>2026-04-18T09:51:39Z</time></trkpt><trkpt lat="43.45090948276526" lon="10.911954904437158"><ele>285.6666666666667</ele><time>2026-04-18T09:51:40Z</time></trkpt><trkpt lat="43.450844279874495" lon="10.91196427229962"><ele>285.0</ele><time>2026-04-18T09:51:41Z</time></trkpt><trkpt lat="43.450773358476155" lon="10.911935807527241"><ele>284.3333333333333</ele><time>2026-04-18T09:51:42Z</time></trkpt><trkpt lat="43.450694720432466" lon="10.911852871298562"><ele>283.66666666666663</ele><time>2026-04-18T09:51:43Z</time></trkpt><trkpt lat="43.450625487024205" lon="10.91173114663615"><ele>283.0</ele><time>2026-04-18T09:51:44Z</time></trkpt><trkpt lat="43.450553552727555" lon="10.911619864531941"><ele>282.25</ele><time>2026-04-18T09:51:45Z</time></trkpt><trkpt lat="43.450462649720414" lon="10.911547787348304"><ele>281.5</ele><time>2026-04-18T09:51:46Z</time></trkpt><trkpt lat="43.45032541488501" lon="10.911460375664545"><ele>280.75</ele><time>2026-04-18T09:51:47Z</time></trkpt><trkpt lat="43.45018385581314" lon="10.911371529262809"><ele>280.0</ele><time>2026-04-18T09:51:48Z</time></trkpt><trkpt lat="43.450046221244904" lon="10.911285135022426"><ele>279.5</ele><time>2026-04-18T09:51:49Z</time></trkpt><trkpt lat="43.449920962581" lon="10.911203527702716"><ele>279.0</ele><time>2026-04-18T09:51:50Z</time></trkpt><trkpt lat="43.449787027333215" lon="10.911136463997524"><ele>278.5</ele><time>2026-04-18T09:51:51Z</time></trkpt><trkpt lat="43.44963984416484" lon="10.911056052456509"><ele>278.0</ele><time>2026-04-18T09:51:52Z</time></trkpt><trkpt lat="43.44947743246154" lon="10.91097129528664"><ele>276.33333333333337</ele><time>2026-04-18T09:51:53Z</time></trkpt><trkpt lat="43.44930780171456" lon="10.910893441781568"><ele>274.6666666666667</ele><time>2026-04-18T09:51:54Z</time></trkpt><trkpt lat="43.44916156563367" lon="10.91083208280366"><ele>273.0</ele><time>2026-04-18T09:51:55Z</time></trkpt><trkpt lat="43.44902313305533" lon="10.910781485554594"><ele>273.0</ele><time>2026-04-18T09:51:56Z</time></trkpt><trkpt lat="43.448906879324205" lon="10.91074622623093"><ele>273.0</ele><time>2026-04-18T09:51:57Z</time></trkpt><trkpt lat="43.44878934864725" lon="10.910704516399068"><ele>273.0</ele><time>2026-04-18T09:51:58Z</time></trkpt><trkpt lat="43.44866864660518" lon="10.910638259073368"><ele>273.0</ele><time>2026-04-18T09:51:59.001Z</time></trkpt><trkpt lat="43.44854522167519" lon="10.910527604641999"><ele>272.75</ele><time>2026-04-18T09:52:00.001Z</time></trkpt><trkpt lat="43.44842368990058" lon="10.91041887330089"><ele>272.5</ele><time>2026-04-18T09:52:01.001Z</time></trkpt><trkpt lat="43.448330744493454" lon="10.910338388597676"><ele>272.25</ele><time>2026-04-18T09:52:02.001Z</time></trkpt><trkpt lat="43.44822905059105" lon="10.910254352044849"><ele>272.0</ele><time>2026-04-18T09:52:03.001Z</time></trkpt><trkpt lat="43.4481034447087" lon="10.910171402324226"><ele>272.0</ele><time>2026-04-18T09:52:04.001Z</time></trkpt><trkpt lat="43.44797429302439" lon="10.910095508133551"><ele>272.0</ele><time>2026-04-18T09:52:05.001Z</time></trkpt><trkpt lat="43.44785528348823" lon="10.910025990462175"><ele>272.0</ele><time>2026-04-18T09:52:06.001Z</time></trkpt><trkpt lat="43.44774394809985" lon="10.909962841082113"><ele>272.0</ele><time>2026-04-18T09:52:07.001Z</time></trkpt><trkpt lat="43.44762697225572" lon="10.909904601542094"><ele>270.75</ele><time>2026-04-18T09:52:08.001Z</time></trkpt><trkpt lat="43.4475140682889" lon="10.909843054369041"><ele>269.5</ele><time>2026-04-18T09:52:09.001Z</time></trkpt><trkpt lat="43.44740595307553" lon="10.909769346531803"><ele>268.25</ele><time>2026-04-18T09:52:10.001Z</time></trkpt><trkpt lat="43.447296870047005" lon="10.909689898830054"><ele>267.0</ele><time>2026-04-18T09:52:11.001Z</time></trkpt><trkpt lat="43.44717229726539" lon="10.909619078088628"><ele>265.5</ele><time>2026-04-18T09:52:12.001Z</time></trkpt><trkpt lat="43.447040808418585" lon="10.909556375126236"><ele>264.0</ele><time>2026-04-18T09:52:13.001Z</time></trkpt><trkpt lat="43.446920541244445" lon="10.909509414825026"><ele>262.5</ele><time>2026-04-18T09:52:14.001Z</time></trkpt><trkpt lat="43.446816470172266" lon="10.909471667106137"><ele>261.0</ele><time>2026-04-18T09:52:15.001Z</time></trkpt><trkpt lat="43.44672515486063" lon="10.9094399445361"><ele>261.0</ele><time>2026-04-18T09:52:16.001Z</time></trkpt><trkpt lat="43.446635987668216" lon="10.909407613403047"><ele>261.0</ele><time>2026-04-18T09:52:17Z</time></trkpt><trkpt lat="43.44655781935136" lon="10.90936011932453"><ele>261.0</ele><time>2026-04-18T09:52:18Z</time></trkpt><trkpt lat="43.44648512256247" lon="10.909287005573876"><ele>261.0</ele><time>2026-04-18T09:52:19Z</time></trkpt><trkpt lat="43.4464097819648" lon="10.90917967379322"><ele>261.0</ele><time>2026-04-18T09:52:20Z</time></trkpt><trkpt lat="43.44634114495244" lon="10.909040089906197"><ele>258.3333333333333</ele><time>2026-04-18T09:52:21Z</time></trkpt><trkpt lat="43.44627534047314" lon="10.908860655492733"><ele>255.66666666666666</ele><time>2026-04-18T09:52:22Z</time></trkpt><trkpt lat="43.44620798773047" lon="10.908664650281029"><ele>253.0</ele><time>2026-04-18T09:52:23Z</time></trkpt><trkpt lat="43.44614576038945" lon="10.90846945072321"><ele>254.0</ele><time>2026-04-18T09:52:24Z</time></trkpt><trkpt lat="43.446112732867284" lon="10.908295276960493"><ele>255.0</ele><time>2026-04-18T09:52:25Z</time></trkpt><trkpt lat="43.446072145708904" lon="10.908166273218065"><ele>256.0</ele><time>2026-04-18T09:52:26Z</time></trkpt><trkpt lat="43.44603088924272" lon="10.908028834913878"><ele>257.0</ele><time>2026-04-18T09:52:27Z</time></trkpt><trkpt lat="43.44597213958516" lon="10.907875259235844"><ele>257.0</ele><time>2026-04-18T09:52:28Z</time></trkpt><trkpt lat="43.44590323523009" lon="10.907713805742997"><ele>257.0</ele><time>2026-04-18T09:52:29Z</time></trkpt><trkpt lat="43.44581367261386" lon="10.907552419144634"><ele>257.0</ele><time>2026-04-18T09:52:30Z</time></trkpt><trkpt lat="43.44571082149678" lon="10.907392760204196"><ele>257.0</ele><time>2026-04-18T09:52:31Z</time></trkpt><trkpt lat="43.445606077768055" lon="10.907241421367644"><ele>256.5</ele><time>2026-04-18T09:52:32Z</time></trkpt><trkpt lat="43.4455139104689" lon="10.90707977976671"><ele>256.0</ele><time>2026-04-18T09:52:33Z</time></trkpt><trkpt lat="43.44544021554256" lon="10.90693070840318"><ele>255.5</ele><time>2026-04-18T09:52:34Z</time></trkpt><trkpt lat="43.445366471789754" lon="10.9067897326384"><ele>255.0</ele><time>2026-04-18T09:52:35Z</time></trkpt><trkpt lat="43.44528057111549" lon="10.906645291675014"><ele>254.0</ele><time>2026-04-18T09:52:36Z</time></trkpt><trkpt lat="43.44518178087789" lon="10.906494761595907"><ele>253.0</ele><time>2026-04-18T09:52:37Z</time></trkpt><trkpt lat="43.44506933909641" lon="10.90633918393209"><ele>252.0</ele><time>2026-04-18T09:52:38Z</time></trkpt><trkpt lat="43.44494156870427" lon="10.906173591827002"><ele>252.0</ele><time>2026-04-18T09:52:39Z</time></trkpt><trkpt lat="43.444819621042804" lon="10.906010375726659"><ele>252.0</ele><time>2026-04-18T09:52:40Z</time></trkpt><trkpt lat="43.444715777235096" lon="10.905873995960015"><ele>252.0</ele><time>2026-04-18T09:52:41Z</time></trkpt><trkpt lat="43.444622217634276" lon="10.905748646872645"><ele>252.0</ele><time>2026-04-18T09:52:42Z</time></trkpt><trkpt lat="43.44453707108093" lon="10.905599829951724"><ele>251.75</ele><time>2026-04-18T09:52:43Z</time></trkpt><trkpt lat="43.4444664776876" lon="10.905425325083739"><ele>251.5</ele><time>2026-04-18T09:52:44Z</time></trkpt><trkpt lat="43.4443993507077" lon="10.905276538636922"><ele>251.25</ele><time>2026-04-18T09:52:45Z</time></trkpt><trkpt lat="43.44433893012571" lon="10.90515236809944"><ele>251.0</ele><time>2026-04-18T09:52:46Z</time></trkpt><trkpt lat="43.444272958885996" lon="10.905041958238696"><ele>251.0</ele><time>2026-04-18T09:52:47Z</time></trkpt><trkpt lat="43.44418211337427" lon="10.904920797663523"><ele>251.0</ele><time>2026-04-18T09:52:48Z</time></trkpt><trkpt lat="43.44407746739045" lon="10.904800212275864"><ele>251.0</ele><time>2026-04-18T09:52:49Z</time></trkpt><trkpt lat="43.443984130262486" lon="10.904702668984001"><ele>251.0</ele><time>2026-04-18T09:52:50Z</time></trkpt><trkpt lat="43.44389064826029" lon="10.904607706614307"><ele>249.8</ele><time>2026-04-18T09:52:51Z</time></trkpt><trkpt lat="43.44378883376962" lon="10.90453071358015"><ele>248.60000000000002</ele><time>2026-04-18T09:52:52Z</time></trkpt><trkpt lat="43.44369921010499" lon="10.904456284666761"><ele>247.4</ele><time>2026-04-18T09:52:53Z</time></trkpt><trkpt lat="43.443621791005924" lon="10.904379689808378"><ele>246.2</ele><time>2026-04-18T09:52:54Z</time></trkpt><trkpt lat="43.443536191833275" lon="10.904296621222798"><ele>245.0</ele><time>2026-04-18T09:52:55Z</time></trkpt><trkpt lat="43.44344726409875" lon="10.90421518031596"><ele>245.0</ele><time>2026-04-18T09:52:56Z</time></trkpt><trkpt lat="43.44336018450926" lon="10.904132506719526"><ele>245.0</ele><time>2026-04-18T09:52:57Z</time></trkpt><trkpt lat="43.443265763292445" lon="10.904041121063738"><ele>245.0</ele><time>2026-04-18T09:52:58Z</time></trkpt><trkpt lat="43.44316531008292" lon="10.90394940288341"><ele>245.0</ele><time>2026-04-18T09:52:59Z</time></trkpt><trkpt lat="43.44306403331338" lon="10.903858713558444"><ele>243.5</ele><time>2026-04-18T09:53:00Z</time></trkpt><trkpt lat="43.44295366352294" lon="10.903773981382201"><ele>242.0</ele><time>2026-04-18T09:53:01Z</time></trkpt><trkpt lat="43.442842587586526" lon="10.903686944109822"><ele>240.5</ele><time>2026-04-18T09:53:02Z</time></trkpt><trkpt lat="43.44273537966309" lon="10.903591541214645"><ele>239.0</ele><time>2026-04-18T09:53:03Z</time></trkpt><trkpt lat="43.44263001772635" lon="10.903493344531201"><ele>240.75</ele><time>2026-04-18T09:53:04Z</time></trkpt><trkpt lat="43.44251999943149" lon="10.903392094189536"><ele>242.5</ele><time>2026-04-18T09:53:05Z</time></trkpt><trkpt lat="43.44241019346383" lon="10.90327864722506"><ele>244.25</ele><time>2026-04-18T09:53:06Z</time></trkpt><trkpt lat="43.44229106954314" lon="10.90316251167866"><ele>246.0</ele><time>2026-04-18T09:53:07Z</time></trkpt><trkpt lat="43.44217160861166" lon="10.903047673711853"><ele>245.5</ele><time>2026-04-18T09:53:08Z</time></trkpt><trkpt lat="43.44205645197916" lon="10.902956907283963"><ele>245.0</ele><time>2026-04-18T09:53:09Z</time></trkpt><trkpt lat="43.441947655312674" lon="10.902873819877515"><ele>244.5</ele><time>2026-04-18T09:53:10Z</time></trkpt><trkpt lat="43.44183322724275" lon="10.902794299228745"><ele>244.0</ele><time>2026-04-18T09:53:11Z</time></trkpt><trkpt lat="43.44168933855686" lon="10.90272708765009"><ele>244.0</ele><time>2026-04-18T09:53:12Z</time></trkpt><trkpt lat="43.44152858089675" lon="10.902680328583196"><ele>244.0</ele><time>2026-04-18T09:53:13Z</time></trkpt><trkpt lat="43.44137253562905" lon="10.902657235522907"><ele>244.0</ele><time>2026-04-18T09:53:14Z</time></trkpt><trkpt lat="43.44123215784444" lon="10.902658385827971"><ele>243.5</ele><time>2026-04-18T09:53:15Z</time></trkpt><trkpt lat="43.441101373149024" lon="10.90266959846145"><ele>243.0</ele><time>2026-04-18T09:53:16Z</time></trkpt><trkpt lat="43.440965801804396" lon="10.90264462493043"><ele>242.5</ele><time>2026-04-18T09:53:17Z</time></trkpt><trkpt lat="43.44082182966049" lon="10.902610186585626"><ele>242.0</ele><time>2026-04-18T09:53:18Z</time></trkpt><trkpt lat="43.44067702922507" lon="10.902553516064973"><ele>243.33333333333334</ele><time>2026-04-18T09:53:19Z</time></trkpt><trkpt lat="43.44053517660811" lon="10.902470701774607"><ele>244.66666666666669</ele><time>2026-04-18T09:53:20Z</time></trkpt><trkpt lat="43.44038801756491" lon="10.902362387263368"><ele>246.0</ele><time>2026-04-18T09:53:21Z</time></trkpt><trkpt lat="43.4402671573236" lon="10.90224675078701"><ele>247.0</ele><time>2026-04-18T09:53:22Z</time></trkpt><trkpt lat="43.44016641225444" lon="10.902131613200925"><ele>248.0</ele><time>2026-04-18T09:53:23Z</time></trkpt><trkpt lat="43.44007362581888" lon="10.901993463113442"><ele>249.0</ele><time>2026-04-18T09:53:23.999Z</time></trkpt><trkpt lat="43.43998483823729" lon="10.901829424764236"><ele>250.0</ele><time>2026-04-18T09:53:24.999Z</time></trkpt><trkpt lat="43.439894476765865" lon="10.901643303177563"><ele>250.0</ele><time>2026-04-18T09:53:25.999Z</time></trkpt><trkpt lat="43.43981009230384" lon="10.901478542655507"><ele>250.0</ele><time>2026-04-18T09:53:26.999Z</time></trkpt><trkpt lat="43.439739837259125" lon="10.90134667660652"><ele>250.0</ele><time>2026-04-18T09:53:27.999Z</time></trkpt><trkpt lat="43.43968092738539" lon="10.901198363882123"><ele>250.0</ele><time>2026-04-18T09:53:28.999Z</time></trkpt><trkpt lat="43.43965052527982" lon="10.901039725265164"><ele>249.25</ele><time>2026-04-18T09:53:29.999Z</time></trkpt><trkpt lat="43.43964255539492" lon="10.900871676058983"><ele>248.5</ele><time>2026-04-18T09:53:30.999Z</time></trkpt><trkpt lat="43.43964744838485" lon="10.900678761434635"><ele>247.75</ele><time>2026-04-18T09:53:31.999Z</time></trkpt><trkpt lat="43.4396611692077" lon="10.900471925831697"><ele>247.0</ele><time>2026-04-18T09:53:32.999Z</time></trkpt><trkpt lat="43.439675513455086" lon="10.900305550598612"><ele>247.0</ele><time>2026-04-18T09:53:33.999Z</time></trkpt><trkpt lat="43.43969156940401" lon="10.90016422312948"><ele>247.0</ele><time>2026-04-18T09:53:34.999Z</time></trkpt><trkpt lat="43.43970042158311" lon="10.900013144216091"><ele>247.0</ele><time>2026-04-18T09:53:35.999Z</time></trkpt><trkpt lat="43.439692124567706" lon="10.899842251482028"><ele>247.0</ele><time>2026-04-18T09:53:36.999Z</time></trkpt><trkpt lat="43.439661889580044" lon="10.899680870453233"><ele>247.8</ele><time>2026-04-18T09:53:37.999Z</time></trkpt><trkpt lat="43.439613784356574" lon="10.89955116192547"><ele>248.6</ele><time>2026-04-18T09:53:38.999Z</time></trkpt><trkpt lat="43.43957244397094" lon="10.89945151588779"><ele>249.40000000000003</ele><time>2026-04-18T09:53:39.999Z</time></trkpt><trkpt lat="43.439492613385276" lon="10.899370427713409"><ele>250.20000000000002</ele><time>2026-04-18T09:53:40.999Z</time></trkpt><trkpt lat="43.439384459421454" lon="10.899288994794437"><ele>251.0</ele><time>2026-04-18T09:53:41.999Z</time></trkpt><trkpt lat="43.43927514483172" lon="10.899187411219094"><ele>251.0</ele><time>2026-04-18T09:53:42.999Z</time></trkpt><trkpt lat="43.43919647377151" lon="10.899071162785138"><ele>251.0</ele><time>2026-04-18T09:53:43.999Z</time></trkpt><trkpt lat="43.439097507154656" lon="10.898943899755347"><ele>251.0</ele><time>2026-04-18T09:53:44.999Z</time></trkpt><trkpt lat="43.438996856086746" lon="10.898837270497902"><ele>251.0</ele><time>2026-04-18T09:53:45.999Z</time></trkpt><trkpt lat="43.43891383976597" lon="10.898743419786818"><ele>251.0</ele><time>2026-04-18T09:53:46.999Z</time></trkpt><trkpt lat="43.438836185243616" lon="10.898640854279702"><ele>251.0</ele><time>2026-04-18T09:53:47.999Z</time></trkpt><trkpt lat="43.43877815477582" lon="10.898507457247531"><ele>251.0</ele><time>2026-04-18T09:53:48.999Z</time></trkpt><trkpt lat="43.43875635931037" lon="10.898351305005548"><ele>251.0</ele><time>2026-04-18T09:53:49.999Z</time></trkpt><trkpt lat="43.43872473723029" lon="10.898199895984835"><ele>250.20000000000002</ele><time>2026-04-18T09:53:50.999Z</time></trkpt><trkpt lat="43.43866977529629" lon="10.898076775609626"><ele>249.40000000000003</ele><time>2026-04-18T09:53:52Z</time></trkpt><trkpt lat="43.43861038795392" lon="10.897936538030532"><ele>248.6</ele><time>2026-04-18T09:53:53Z</time></trkpt><trkpt lat="43.438536835172755" lon="10.897815123331263"><ele>247.8</ele><time>2026-04-18T09:53:54Z</time></trkpt><trkpt lat="43.43846659582956" lon="10.897701668344686"><ele>247.0</ele><time>2026-04-18T09:53:55Z</time></trkpt><trkpt lat="43.43840987147871" lon="10.897550097274403"><ele>245.0</ele><time>2026-04-18T09:53:56Z</time></trkpt><trkpt lat="43.438376579621675" lon="10.897362554909996"><ele>243.0</ele><time>2026-04-18T09:53:57Z</time></trkpt><trkpt lat="43.438358782288084" lon="10.897156825388166"><ele>241.0</ele><time>2026-04-18T09:53:58Z</time></trkpt><trkpt lat="43.4383345400689" lon="10.896951544594055"><ele>239.0</ele><time>2026-04-18T09:53:59Z</time></trkpt><trkpt lat="43.43829503795348" lon="10.89677398465686"><ele>237.6</ele><time>2026-04-18T09:54:00Z</time></trkpt><trkpt lat="43.43825359070062" lon="10.89661861866306"><ele>236.2</ele><time>2026-04-18T09:54:01Z</time></trkpt><trkpt lat="43.43821966766763" lon="10.896487908542467"><ele>234.79999999999998</ele><time>2026-04-18T09:54:02Z</time></trkpt><trkpt lat="43.438191959183285" lon="10.896351080788909"><ele>233.39999999999998</ele><time>2026-04-18T09:54:03Z</time></trkpt><trkpt lat="43.438181460450245" lon="10.89620607785517"><ele>232.0</ele><time>2026-04-18T09:54:04Z</time></trkpt><trkpt lat="43.43821095724938" lon="10.89604177561655"><ele>232.0</ele><time>2026-04-18T09:54:05Z</time></trkpt><trkpt lat="43.438205755821954" lon="10.895927322384203"><ele>232.0</ele><time>2026-04-18T09:54:06Z</time></trkpt><trkpt lat="43.43818580644455" lon="10.895777853569088"><ele>232.0</ele><time>2026-04-18T09:54:08Z</time></trkpt><trkpt lat="43.438142533705935" lon="10.895708682330309"><ele>232.0</ele><time>2026-04-18T09:54:09Z</time></trkpt><trkpt lat="43.43807328650348" lon="10.895631830862055"><ele>232.0</ele><time>2026-04-18T09:54:10Z</time></trkpt><trkpt lat="43.437984042877176" lon="10.895550526747096"><ele>231.25</ele><time>2026-04-18T09:54:11Z</time></trkpt><trkpt lat="43.43789632560716" lon="10.895452568904162"><ele>230.5</ele><time>2026-04-18T09:54:12Z</time></trkpt><trkpt lat="43.43783184764571" lon="10.89532889355826"><ele>229.75</ele><time>2026-04-18T09:54:13Z</time></trkpt><trkpt lat="43.43776625537181" lon="10.89516382043913"><ele>229.0</ele><time>2026-04-18T09:54:14Z</time></trkpt><trkpt lat="43.43770422049168" lon="10.894998167711629"><ele>228.6</ele><time>2026-04-18T09:54:15Z</time></trkpt><trkpt lat="43.437656522608066" lon="10.89485438608841"><ele>228.2</ele><time>2026-04-18T09:54:16Z</time></trkpt><trkpt lat="43.43761310902054" lon="10.894735856616325"><ele>227.79999999999998</ele><time>2026-04-18T09:54:17Z</time></trkpt><trkpt lat="43.437556535347916" lon="10.894617285273679"><ele>227.39999999999998</ele><time>2026-04-18T09:54:18Z</time></trkpt><trkpt lat="43.43748237759197" lon="10.894488729054514"><ele>227.0</ele><time>2026-04-18T09:54:19Z</time></trkpt><trkpt lat="43.43737970897771" lon="10.894354702339239"><ele>225.0</ele><time>2026-04-18T09:54:20Z</time></trkpt><trkpt lat="43.43725959586081" lon="10.894224299949908"><ele>223.0</ele><time>2026-04-18T09:54:21Z</time></trkpt><trkpt lat="43.43712734513533" lon="10.894104998870146"><ele>221.0</ele><time>2026-04-18T09:54:22Z</time></trkpt><trkpt lat="43.43699975123172" lon="10.894014384634811"><ele>220.0</ele><time>2026-04-18T09:54:23Z</time></trkpt><trkpt lat="43.43686200364729" lon="10.89393965779452"><ele>219.0</ele><time>2026-04-18T09:54:24Z</time></trkpt><trkpt lat="43.436695258857014" lon="10.8938788450986"><ele>218.0</ele><time>2026-04-18T09:54:25Z</time></trkpt><trkpt lat="43.436529038026585" lon="10.893846311828895"><ele>218.0</ele><time>2026-04-18T09:54:26Z</time></trkpt><trkpt lat="43.43640063703073" lon="10.89381881060406"><ele>218.0</ele><time>2026-04-18T09:54:27Z</time></trkpt><trkpt lat="43.436297570608815" lon="10.89378135872438"><ele>218.0</ele><time>2026-04-18T09:54:28Z</time></trkpt><trkpt lat="43.43618905245431" lon="10.893731776381786"><ele>218.0</ele><time>2026-04-18T09:54:29Z</time></trkpt><trkpt lat="43.43609195158832" lon="10.89366633948772"><ele>218.0</ele><time>2026-04-18T09:54:30Z</time></trkpt><trkpt lat="43.435994066491006" lon="10.893571963538939"><ele>218.0</ele><time>2026-04-18T09:54:31Z</time></trkpt><trkpt lat="43.43589210747427" lon="10.893426863309513"><ele>218.0</ele><time>2026-04-18T09:54:32Z</time></trkpt><trkpt lat="43.4357757011039" lon="10.89324356756773"><ele>218.0</ele><time>2026-04-18T09:54:33Z</time></trkpt><trkpt lat="43.43565310701141" lon="10.893057199980335"><ele>218.0</ele><time>2026-04-18T09:54:34Z</time></trkpt><trkpt lat="43.43553781238618" lon="10.892889176621402"><ele>218.0</ele><time>2026-04-18T09:54:35Z</time></trkpt><trkpt lat="43.43543897447571" lon="10.892751934434779"><ele>218.0</ele><time>2026-04-18T09:54:36Z</time></trkpt><trkpt lat="43.43534754021342" lon="10.892630712423108"><ele>218.0</ele><time>2026-04-18T09:54:37Z</time></trkpt><trkpt lat="43.435248379310856" lon="10.89250573535849"><ele>216.60000000000002</ele><time>2026-04-18T09:54:38Z</time></trkpt><trkpt lat="43.43515339075923" lon="10.892393750380773"><ele>215.20000000000002</ele><time>2026-04-18T09:54:39Z</time></trkpt><trkpt lat="43.43506336694696" lon="10.892296376514372"><ele>213.8</ele><time>2026-04-18T09:54:40Z</time></trkpt><trkpt lat="43.4349877362995" lon="10.892213009691528"><ele>212.4</ele><time>2026-04-18T09:54:41Z</time></trkpt><trkpt lat="43.43491590487059" lon="10.892109405203122"><ele>211.0</ele><time>2026-04-18T09:54:42Z</time></trkpt><trkpt lat="43.43485385612173" lon="10.891980471267788"><ele>211.0</ele><time>2026-04-18T09:54:43Z</time></trkpt><trkpt lat="43.43481309269143" lon="10.89183852621475"><ele>211.0</ele><time>2026-04-18T09:54:44Z</time></trkpt><trkpt lat="43.43478018097217" lon="10.891702144166537"><ele>211.0</ele><time>2026-04-18T09:54:45Z</time></trkpt><trkpt lat="43.43475199535836" lon="10.89160695817411"><ele>211.0</ele><time>2026-04-18T09:54:46Z</time></trkpt><trkpt lat="43.434681700413826" lon="10.891504550743837"><ele>211.0</ele><time>2026-04-18T09:54:48Z</time></trkpt><trkpt lat="43.43455661113709" lon="10.891538650470999"><ele>209.33333333333331</ele><time>2026-04-18T09:54:50Z</time></trkpt><trkpt lat="43.434504984497856" lon="10.891628073243938"><ele>207.66666666666666</ele><time>2026-04-18T09:54:51Z</time></trkpt><trkpt lat="43.434468350834884" lon="10.891714717407849"><ele>206.0</ele><time>2026-04-18T09:54:52Z</time></trkpt><trkpt lat="43.43444049661704" lon="10.891804320616211"><ele>204.33333333333331</ele><time>2026-04-18T09:54:53Z</time></trkpt><trkpt lat="43.43441199394271" lon="10.891959021602572"><ele>202.66666666666666</ele><time>2026-04-18T09:54:55Z</time></trkpt><trkpt lat="43.434384134527306" lon="10.892062077871472"><ele>201.0</ele><time>2026-04-18T09:54:56Z</time></trkpt><trkpt lat="43.434389216312205" lon="10.89218744289657"><ele>200.20000000000002</ele><time>2026-04-18T09:54:57Z</time></trkpt><trkpt lat="43.43442565131825" lon="10.892314817930071"><ele>199.4</ele><time>2026-04-18T09:54:58Z</time></trkpt><trkpt lat="43.4344703950669" lon="10.892452366304992"><ele>198.6</ele><time>2026-04-18T09:54:59Z</time></trkpt><trkpt lat="43.43452126245176" lon="10.89257987943648"><ele>197.8</ele><time>2026-04-18T09:55:00Z</time></trkpt><trkpt lat="43.4345629954063" lon="10.892677805874884"><ele>197.0</ele><time>2026-04-18T09:55:01Z</time></trkpt><trkpt lat="43.434602156300976" lon="10.892772756796436"><ele>196.66666666666669</ele><time>2026-04-18T09:55:02Z</time></trkpt><trkpt lat="43.43463404201348" lon="10.892869659316872"><ele>196.33333333333334</ele><time>2026-04-18T09:55:03Z</time></trkpt><trkpt lat="43.434651817756816" lon="10.89297741630423"><ele>196.0</ele><time>2026-04-18T09:55:04Z</time></trkpt><trkpt lat="43.43465561789142" lon="10.893074466614229"><ele>195.66666666666669</ele><time>2026-04-18T09:55:05Z</time></trkpt><trkpt lat="43.434669372386175" lon="10.893161141446468"><ele>195.33333333333334</ele><time>2026-04-18T09:55:06Z</time></trkpt><trkpt lat="43.434656286164625" lon="10.893286009151222"><ele>195.0</ele><time>2026-04-18T09:55:08Z</time></trkpt><trkpt lat="43.43469074999221" lon="10.893462348560677"><ele>195.0</ele><time>2026-04-18T09:56:42Z</time></trkpt><trkpt lat="43.4346692930749" lon="10.893611027964475"><ele>195.0</ele><time>2026-04-18T09:56:43Z</time></trkpt><trkpt lat="43.43467554398995" lon="10.893802612006711"><ele>195.0</ele><time>2026-04-18T09:56:44Z</time></trkpt><trkpt lat="43.4346388679508" lon="10.893966121957643"><ele>195.0</ele><time>2026-04-18T09:56:45Z</time></trkpt><trkpt lat="43.43457481076548" lon="10.894155469709812"><ele>195.0</ele><time>2026-04-18T09:56:46Z</time></trkpt><trkpt lat="43.434688404375244" lon="10.893852168352188"><ele>195.0</ele><time>2026-04-18T09:56:47Z</time></trkpt><trkpt lat="43.434618906627314" lon="10.893927606701347"><ele>195.0</ele><time>2026-04-18T09:56:50Z</time></trkpt><trkpt lat="43.434529627239804" lon="10.893860709503535"><ele>195.0</ele><time>2026-04-18T09:56:52Z</time></trkpt><trkpt lat="43.43448248130284" lon="10.89378782209904"><ele>194.0</ele><time>2026-04-18T09:56:53Z</time></trkpt><trkpt lat="43.43442005862553" lon="10.893682062081785"><ele>193.0</ele><time>2026-04-18T09:56:54Z</time></trkpt><trkpt lat="43.434342814330634" lon="10.893573559323288"><ele>192.0</ele><time>2026-04-18T09:56:55Z</time></trkpt><trkpt lat="43.43426199091167" lon="10.893491965078304"><ele>191.0</ele><time>2026-04-18T09:56:56Z</time></trkpt><trkpt lat="43.43418248666991" lon="10.893421222302274"><ele>190.0</ele><time>2026-04-18T09:56:57Z</time></trkpt><trkpt lat="43.43408583756277" lon="10.89335569579738"><ele>190.0</ele><time>2026-04-18T09:56:58Z</time></trkpt><trkpt lat="43.433984978745784" lon="10.893290705107276"><ele>190.0</ele><time>2026-04-18T09:56:59Z</time></trkpt><trkpt lat="43.43389496963635" lon="10.893242192279402"><ele>190.0</ele><time>2026-04-18T09:57:00Z</time></trkpt><trkpt lat="43.43380717645805" lon="10.893191574753768"><ele>190.0</ele><time>2026-04-18T09:57:01Z</time></trkpt><trkpt lat="43.43373878816274" lon="10.893119814244685"><ele>190.0</ele><time>2026-04-18T09:57:02Z</time></trkpt><trkpt lat="43.433659519282564" lon="10.89306849258584"><ele>187.6</ele><time>2026-04-18T09:57:03Z</time></trkpt><trkpt lat="43.43357483780307" lon="10.892979104332841"><ele>185.2</ele><time>2026-04-18T09:57:04Z</time></trkpt><trkpt lat="43.433480843631166" lon="10.892876403050426"><ele>182.8</ele><time>2026-04-18T09:57:05Z</time></trkpt><trkpt lat="43.433396929986586" lon="10.892787086044445"><ele>180.4</ele><time>2026-04-18T09:57:06Z</time></trkpt><trkpt lat="43.43332827243831" lon="10.892712818435133"><ele>178.0</ele><time>2026-04-18T09:57:07Z</time></trkpt><trkpt lat="43.433263537071554" lon="10.892658328450533"><ele>178.0</ele><time>2026-04-18T09:57:08Z</time></trkpt><trkpt lat="43.43318009916035" lon="10.89263927805326"><ele>178.0</ele><time>2026-04-18T09:57:09Z</time></trkpt><trkpt lat="43.43306222571181" lon="10.892642148191436"><ele>178.0</ele><time>2026-04-18T09:57:10Z</time></trkpt><trkpt lat="43.432937956458275" lon="10.892669566270875"><ele>178.0</ele><time>2026-04-18T09:57:11Z</time></trkpt><trkpt lat="43.43280741993295" lon="10.892712599236003"><ele>176.75</ele><time>2026-04-18T09:57:12Z</time></trkpt><trkpt lat="43.43268110022076" lon="10.892756823820713"><ele>175.5</ele><time>2026-04-18T09:57:13Z</time></trkpt><trkpt lat="43.4325664350392" lon="10.892796677437001"><ele>174.25</ele><time>2026-04-18T09:57:14Z</time></trkpt><trkpt lat="43.43245596350769" lon="10.892821799189571"><ele>173.0</ele><time>2026-04-18T09:57:15Z</time></trkpt><trkpt lat="43.432357276735075" lon="10.89284316285851"><ele>173.0</ele><time>2026-04-18T09:57:16Z</time></trkpt><trkpt lat="43.43225923531108" lon="10.892862179187302"><ele>173.0</ele><time>2026-04-18T09:57:17Z</time></trkpt><trkpt lat="43.432169492818" lon="10.892885066440781"><ele>173.0</ele><time>2026-04-18T09:57:18Z</time></trkpt><trkpt lat="43.43209399622207" lon="10.89290992130566"><ele>173.0</ele><time>2026-04-18T09:57:19Z</time></trkpt><trkpt lat="43.43200789181517" lon="10.892937598297083"><ele>173.0</ele><time>2026-04-18T09:57:20Z</time></trkpt><trkpt lat="43.43192757338805" lon="10.892958037528704"><ele>173.0</ele><time>2026-04-18T09:57:21Z</time></trkpt><trkpt lat="43.43185962667884" lon="10.892960693115521"><ele>174.0</ele><time>2026-04-18T09:57:24Z</time></trkpt><trkpt lat="43.4318563049689" lon="10.89316918735144"><ele>175.0</ele><time>2026-04-18T09:57:26Z</time></trkpt><trkpt lat="43.43187416266841" lon="10.893288016380499"><ele>176.0</ele><time>2026-04-18T09:57:27Z</time></trkpt><trkpt lat="43.431891936688295" lon="10.893407991191637"><ele>177.0</ele><time>2026-04-18T09:57:28Z</time></trkpt><trkpt lat="43.431907831551825" lon="10.893542858360552"><ele>178.0</ele><time>2026-04-18T09:57:29Z</time></trkpt><trkpt lat="43.43191127547656" lon="10.893673109910464"><ele>178.0</ele><time>2026-04-18T09:57:30Z</time></trkpt><trkpt lat="43.43189796862786" lon="10.89382711149662"><ele>178.0</ele><time>2026-04-18T09:57:31Z</time></trkpt><trkpt lat="43.43185343146497" lon="10.894001957250579"><ele>178.0</ele><time>2026-04-18T09:57:32Z</time></trkpt><trkpt lat="43.43180333146483" lon="10.894223981215845"><ele>178.0</ele><time>2026-04-18T09:57:33Z</time></trkpt><trkpt lat="43.43173002853458" lon="10.8944035280648"><ele>178.0</ele><time>2026-04-18T09:57:34Z</time></trkpt><trkpt lat="43.43166500052031" lon="10.894543838627222"><ele>178.0</ele><time>2026-04-18T09:57:35Z</time></trkpt><trkpt lat="43.43158997711669" lon="10.894660503709883"><ele>178.0</ele><time>2026-04-18T09:57:36Z</time></trkpt><trkpt lat="43.431503582115944" lon="10.894737225890491"><ele>178.0</ele><time>2026-04-18T09:57:37Z</time></trkpt><trkpt lat="43.43143662973549" lon="10.89484680302604"><ele>178.0</ele><time>2026-04-18T09:57:38Z</time></trkpt><trkpt lat="43.431414591978076" lon="10.894966459018226"><ele>178.0</ele><time>2026-04-18T09:57:39Z</time></trkpt><trkpt lat="43.431428368452764" lon="10.89507166721752"><ele>178.0</ele><time>2026-04-18T09:57:40Z</time></trkpt><trkpt lat="43.43144334228827" lon="10.895174861801786"><ele>178.0</ele><time>2026-04-18T09:57:41Z</time></trkpt><trkpt lat="43.43147374045891" lon="10.895280207892734"><ele>178.0</ele><time>2026-04-18T09:57:42Z</time></trkpt><trkpt lat="43.431510501777225" lon="10.895387746911403"><ele>178.0</ele><time>2026-04-18T09:57:43Z</time></trkpt><trkpt lat="43.431550660502744" lon="10.895522722328955"><ele>178.0</ele><time>2026-04-18T09:57:44Z</time></trkpt><trkpt lat="43.43158809414829" lon="10.895673700664911"><ele>178.60000000000002</ele><time>2026-04-18T09:57:45Z</time></trkpt><trkpt lat="43.431619161767195" lon="10.895837996251936"><ele>179.20000000000002</ele><time>2026-04-18T09:57:46Z</time></trkpt><trkpt lat="43.43164413928714" lon="10.895995140539984"><ele>179.8</ele><time>2026-04-18T09:57:47Z</time></trkpt><trkpt lat="43.43165630809715" lon="10.89612083234115"><ele>180.4</ele><time>2026-04-18T09:57:48Z</time></trkpt><trkpt lat="43.43165366857379" lon="10.896218363431858"><ele>181.0</ele><time>2026-04-18T09:57:49Z</time></trkpt><trkpt lat="43.43161207236609" lon="10.896308306144826"><ele>182.0</ele><time>2026-04-18T09:57:51.001Z</time></trkpt><trkpt lat="43.4314950672717" lon="10.896280854466987"><ele>183.0</ele><time>2026-04-18T09:57:53.001Z</time></trkpt><trkpt lat="43.431457790091095" lon="10.896189623425341"><ele>184.0</ele><time>2026-04-18T09:57:53.999Z</time></trkpt><trkpt lat="43.4313939590375" lon="10.896105759490474"><ele>185.0</ele><time>2026-04-18T09:57:54.999Z</time></trkpt><trkpt lat="43.43133592379288" lon="10.89601919481729"><ele>186.0</ele><time>2026-04-18T09:57:55.999Z</time></trkpt><trkpt lat="43.43125674382395" lon="10.895976045330801"><ele>187.0</ele><time>2026-04-18T09:57:56.999Z</time></trkpt><trkpt lat="43.43115818771667" lon="10.895954296824403"><ele>188.0</ele><time>2026-04-18T09:57:57.999Z</time></trkpt><trkpt lat="43.431019133176925" lon="10.895933489508183"><ele>189.0</ele><time>2026-04-18T09:57:58.999Z</time></trkpt><trkpt lat="43.430885897969986" lon="10.895855978581583"><ele>190.0</ele><time>2026-04-18T09:57:59.999Z</time></trkpt><trkpt lat="43.43076982023097" lon="10.895824612003514"><ele>190.0</ele><time>2026-04-18T09:58:00.999Z</time></trkpt><trkpt lat="43.43070113750247" lon="10.895801806894479"><ele>190.0</ele><time>2026-04-18T09:58:01.999Z</time></trkpt><trkpt lat="43.4306280631808" lon="10.895845200037424"><ele>190.0</ele><time>2026-04-18T09:58:03.999Z</time></trkpt><trkpt lat="43.43056694435241" lon="10.895993171491597"><ele>190.0</ele><time>2026-04-18T09:58:05.999Z</time></trkpt><trkpt lat="43.430607482936004" lon="10.896108670707315"><ele>190.0</ele><time>2026-04-18T09:58:06.999Z</time></trkpt><trkpt lat="43.43066540800677" lon="10.896206416173722"><ele>192.75</ele><time>2026-04-18T09:58:07.999Z</time></trkpt><trkpt lat="43.43074361284452" lon="10.896325915390136"><ele>195.5</ele><time>2026-04-18T09:58:08.999Z</time></trkpt><trkpt lat="43.4308391877078" lon="10.896469241486573"><ele>198.25</ele><time>2026-04-18T09:58:09.999Z</time></trkpt><trkpt lat="43.43092505265252" lon="10.89660415499959"><ele>201.0</ele><time>2026-04-18T09:58:10.999Z</time></trkpt><trkpt lat="43.43098401608852" lon="10.896703702720426"><ele>202.60000000000002</ele><time>2026-04-18T09:58:11.999Z</time></trkpt><trkpt lat="43.43101648184623" lon="10.89681275843411"><ele>204.2</ele><time>2026-04-18T09:58:12.999Z</time></trkpt><trkpt lat="43.4310080490433" lon="10.896945741978978"><ele>205.8</ele><time>2026-04-18T09:58:13.999Z</time></trkpt><trkpt lat="43.43099708196655" lon="10.897082095468408"><ele>207.39999999999998</ele><time>2026-04-18T09:58:14.999Z</time></trkpt><trkpt lat="43.430968878178085" lon="10.897206836620924"><ele>209.0</ele><time>2026-04-18T09:58:15.999Z</time></trkpt><trkpt lat="43.43092634225436" lon="10.897322384597029"><ele>209.00000000000003</ele><time>2026-04-18T09:58:16.999Z</time></trkpt><trkpt lat="43.430898663535025" lon="10.897402701026973"><ele>209.0</ele><time>2026-04-18T09:58:17.999Z</time></trkpt><trkpt lat="43.43078823454298" lon="10.897412292708003"><ele>209.0</ele><time>2026-04-18T09:58:20Z</time></trkpt><trkpt lat="43.43072648869533" lon="10.89734409875029"><ele>209.0</ele><time>2026-04-18T09:58:21Z</time></trkpt><trkpt lat="43.43068655957424" lon="10.897211442999085"><ele>209.00000000000003</ele><time>2026-04-18T09:58:22Z</time></trkpt><trkpt lat="43.43062861375296" lon="10.897150533675433"><ele>209.0</ele><time>2026-04-18T09:58:23Z</time></trkpt><trkpt lat="43.43057470578531" lon="10.897070511949943"><ele>209.0</ele><time>2026-04-18T09:58:24Z</time></trkpt><trkpt lat="43.430479668712366" lon="10.89707568430366"><ele>209.0</ele><time>2026-04-18T09:58:25Z</time></trkpt><trkpt lat="43.430402216782504" lon="10.89712456348991"><ele>209.0</ele><time>2026-04-18T09:58:26Z</time></trkpt><trkpt lat="43.43032585064591" lon="10.897184877510961"><ele>209.0</ele><time>2026-04-18T09:58:27Z</time></trkpt><trkpt lat="43.430258597140906" lon="10.897256996910636"><ele>209.0</ele><time>2026-04-18T09:58:28Z</time></trkpt><trkpt lat="43.43017131500009" lon="10.897314084612514"><ele>210.39999999999998</ele><time>2026-04-18T09:58:29Z</time></trkpt><trkpt lat="43.430077136342945" lon="10.89736018532645"><ele>211.8</ele><time>2026-04-18T09:58:30Z</time></trkpt><trkpt lat="43.43000735585466" lon="10.89743518666333"><ele>213.20000000000002</ele><time>2026-04-18T09:58:31Z</time></trkpt><trkpt lat="43.42994917499436" lon="10.897529378704709"><ele>214.60000000000002</ele><time>2026-04-18T09:58:32Z</time></trkpt><trkpt lat="43.42990778752733" lon="10.897632110169408"><ele>216.0</ele><time>2026-04-18T09:58:33Z</time></trkpt><trkpt lat="43.429922900427016" lon="10.89778778211409"><ele>217.5</ele><time>2026-04-18T09:58:34Z</time></trkpt><trkpt lat="43.42991301624255" lon="10.89794390563434"><ele>219.0</ele><time>2026-04-18T09:58:35Z</time></trkpt><trkpt lat="43.42991456074475" lon="10.898117945920202"><ele>220.5</ele><time>2026-04-18T09:58:36Z</time></trkpt><trkpt lat="43.42992152313857" lon="10.898337582965349"><ele>222.0</ele><time>2026-04-18T09:58:37Z</time></trkpt><trkpt lat="43.42992955785486" lon="10.898558038624202"><ele>223.2</ele><time>2026-04-18T09:58:38Z</time></trkpt><trkpt lat="43.42994620130204" lon="10.898740471357254"><ele>224.39999999999998</ele><time>2026-04-18T09:58:39Z</time></trkpt><trkpt lat="43.429971799708795" lon="10.898875217618368"><ele>225.60000000000002</ele><time>2026-04-18T09:58:40Z</time></trkpt><trkpt lat="43.42994976676069" lon="10.898977135432709"><ele>226.8</ele><time>2026-04-18T09:58:41Z</time></trkpt><trkpt lat="43.42990178307085" lon="10.899082572371398"><ele>228.0</ele><time>2026-04-18T09:58:43Z</time></trkpt><trkpt lat="43.42976992130317" lon="10.899061307933165"><ele>228.0</ele><time>2026-04-18T09:58:45Z</time></trkpt><trkpt lat="43.42968327041667" lon="10.89902890720193"><ele>228.0</ele><time>2026-04-18T09:58:46Z</time></trkpt><trkpt lat="43.42956046310131" lon="10.89899414886612"><ele>228.0</ele><time>2026-04-18T09:58:47Z</time></trkpt><trkpt lat="43.42943460329716" lon="10.89899823733301"><ele>228.0</ele><time>2026-04-18T09:58:48Z</time></trkpt><trkpt lat="43.4292920744026" lon="10.89906283739274"><ele>229.60000000000002</ele><time>2026-04-18T09:58:49Z</time></trkpt><trkpt lat="43.429144082473556" lon="10.899143809146102"><ele>231.20000000000002</ele><time>2026-04-18T09:58:50Z</time></trkpt><trkpt lat="43.429039733609066" lon="10.899194412754385"><ele>232.8</ele><time>2026-04-18T09:58:51Z</time></trkpt><trkpt lat="43.428971984717954" lon="10.899243896327771"><ele>234.4</ele><time>2026-04-18T09:58:53Z</time></trkpt><trkpt lat="43.428964651121284" lon="10.899370925536418"><ele>236.0</ele><time>2026-04-18T09:58:55Z</time></trkpt><trkpt lat="43.42901491651072" lon="10.899476191446533"><ele>237.60000000000002</ele><time>2026-04-18T09:58:56Z</time></trkpt><trkpt lat="43.429062007325676" lon="10.89959211286442"><ele>239.20000000000002</ele><time>2026-04-18T09:58:57Z</time></trkpt><trkpt lat="43.42911919710797" lon="10.899710322580951"><ele>240.79999999999998</ele><time>2026-04-18T09:58:58Z</time></trkpt><trkpt lat="43.42917838825622" lon="10.899857229741789"><ele>242.39999999999998</ele><time>2026-04-18T09:58:59Z</time></trkpt><trkpt lat="43.42921906215713" lon="10.899969685678775"><ele>244.0</ele><time>2026-04-18T09:59:00Z</time></trkpt><trkpt lat="43.429212787465005" lon="10.900096983341351"><ele>245.0</ele><time>2026-04-18T09:59:01Z</time></trkpt><trkpt lat="43.42918275036051" lon="10.900212231974884"><ele>245.99999999999997</ele><time>2026-04-18T09:59:02Z</time></trkpt><trkpt lat="43.42915403749758" lon="10.900351389634563"><ele>246.99999999999997</ele><time>2026-04-18T09:59:03Z</time></trkpt><trkpt lat="43.4290851244627" lon="10.900456981146972"><ele>248.0</ele><time>2026-04-18T09:59:04Z</time></trkpt><trkpt lat="43.429004748239755" lon="10.90052397398493"><ele>249.0</ele><time>2026-04-18T09:59:05Z</time></trkpt><trkpt lat="43.42890736759081" lon="10.900561990504617"><ele>250.6</ele><time>2026-04-18T09:59:06Z</time></trkpt><trkpt lat="43.42879641481489" lon="10.900552644681959"><ele>252.2</ele><time>2026-04-18T09:59:07Z</time></trkpt><trkpt lat="43.42871208946148" lon="10.90059229721006"><ele>253.79999999999998</ele><time>2026-04-18T09:59:08Z</time></trkpt><trkpt lat="43.42865176483047" lon="10.900665335009771"><ele>255.39999999999998</ele><time>2026-04-18T09:59:09Z</time></trkpt><trkpt lat="43.4286102704348" lon="10.900807589681863"><ele>257.0</ele><time>2026-04-18T09:59:10Z</time></trkpt><trkpt lat="43.42862940306957" lon="10.900951744882507"><ele>256.5</ele><time>2026-04-18T09:59:11Z</time></trkpt><trkpt lat="43.42863444154878" lon="10.901116790045569"><ele>256.0</ele><time>2026-04-18T09:59:12Z</time></trkpt><trkpt lat="43.428679985086866" lon="10.901279802064742"><ele>255.5</ele><time>2026-04-18T09:59:13Z</time></trkpt><trkpt lat="43.42873167791513" lon="10.901429885888835"><ele>255.0</ele><time>2026-04-18T09:59:14Z</time></trkpt><trkpt lat="43.428820279552504" lon="10.901569530581215"><ele>255.0</ele><time>2026-04-18T09:59:15Z</time></trkpt><trkpt lat="43.428940025298985" lon="10.9017048046706"><ele>255.0</ele><time>2026-04-18T09:59:16Z</time></trkpt><trkpt lat="43.429055058976836" lon="10.901848766644909"><ele>255.0</ele><time>2026-04-18T09:59:17Z</time></trkpt><trkpt lat="43.42914187328672" lon="10.902015874645656"><ele>259.3333333333333</ele><time>2026-04-18T09:59:18Z</time></trkpt><trkpt lat="43.42923793822471" lon="10.902149780295751"><ele>263.66666666666663</ele><time>2026-04-18T09:59:19Z</time></trkpt><trkpt lat="43.42935782967109" lon="10.90226879160164"><ele>268.0</ele><time>2026-04-18T09:59:20Z</time></trkpt><trkpt lat="43.42949628830353" lon="10.902396414399286"><ele>268.0</ele><time>2026-04-18T09:59:21Z</time></trkpt><trkpt lat="43.42958833717654" lon="10.902484025478573"><ele>268.0</ele><time>2026-04-18T09:59:22Z</time></trkpt><trkpt lat="43.4296500403156" lon="10.902557709870539"><ele>268.0</ele><time>2026-04-18T09:59:23Z</time></trkpt><trkpt lat="43.42970165198544" lon="10.902659789173308"><ele>268.0</ele><time>2026-04-18T09:59:25Z</time></trkpt><trkpt lat="43.42967983441856" lon="10.902746701990296"><ele>268.0</ele><time>2026-04-18T09:59:27Z</time></trkpt><trkpt lat="43.42957388013885" lon="10.902789517290055"><ele>269.6</ele><time>2026-04-18T09:59:29Z</time></trkpt><trkpt lat="43.429471572062084" lon="10.902821669016676"><ele>271.20000000000005</ele><time>2026-04-18T09:59:30Z</time></trkpt><trkpt lat="43.42933724328357" lon="10.902822080931164"><ele>272.8</ele><time>2026-04-18T09:59:31Z</time></trkpt><trkpt lat="43.4292413945478" lon="10.9027935234669"><ele>274.40000000000003</ele><time>2026-04-18T09:59:32Z</time></trkpt><trkpt lat="43.429179957406426" lon="10.90273890327193"><ele>276.0</ele><time>2026-04-18T09:59:33Z</time></trkpt><trkpt lat="43.42913141393659" lon="10.902615032189864"><ele>276.40000000000003</ele><time>2026-04-18T09:59:34Z</time></trkpt><trkpt lat="43.42907268150809" lon="10.902481112969289"><ele>276.8</ele><time>2026-04-18T09:59:35Z</time></trkpt><trkpt lat="43.429018284919835" lon="10.902353781601239"><ele>277.20000000000005</ele><time>2026-04-18T09:59:36Z</time></trkpt><trkpt lat="43.428937401772906" lon="10.902285040802331"><ele>277.6</ele><time>2026-04-18T09:59:37Z</time></trkpt><trkpt lat="43.42885095646268" lon="10.90225094551981"><ele>278.0</ele><time>2026-04-18T09:59:38Z</time></trkpt><trkpt lat="43.42876282625883" lon="10.902215922507809"><ele>278.0</ele><time>2026-04-18T09:59:39Z</time></trkpt><trkpt lat="43.42866765890636" lon="10.902211943575821"><ele>278.0</ele><time>2026-04-18T09:59:40Z</time></trkpt><trkpt lat="43.42856494213842" lon="10.902237628527596"><ele>278.0</ele><time>2026-04-18T09:59:41Z</time></trkpt><trkpt lat="43.428446995181694" lon="10.902296593429233"><ele>278.0</ele><time>2026-04-18T09:59:42Z</time></trkpt><trkpt lat="43.42831408564903" lon="10.9023586001108"><ele>278.0</ele><time>2026-04-18T09:59:43Z</time></trkpt><trkpt lat="43.42819253432952" lon="10.902367554030615"><ele>278.0</ele><time>2026-04-18T09:59:44Z</time></trkpt><trkpt lat="43.428095235352494" lon="10.902293998426055"><ele>278.0</ele><time>2026-04-18T09:59:45Z</time></trkpt><trkpt lat="43.42797177489896" lon="10.90225165045743"><ele>278.0</ele><time>2026-04-18T09:59:46Z</time></trkpt><trkpt lat="43.42785225932648" lon="10.902161613781514"><ele>278.5</ele><time>2026-04-18T09:59:47Z</time></trkpt><trkpt lat="43.427771366421936" lon="10.902104762212842"><ele>279.0</ele><time>2026-04-18T09:59:48Z</time></trkpt><trkpt lat="43.427657062486865" lon="10.902118275660342"><ele>279.5</ele><time>2026-04-18T09:59:50Z</time></trkpt><trkpt lat="43.427605928675874" lon="10.902177770916705"><ele>280.0</ele><time>2026-04-18T09:59:51Z</time></trkpt><trkpt lat="43.42756304815468" lon="10.902241741715482"><ele>280.5</ele><time>2026-04-18T09:59:52Z</time></trkpt><trkpt lat="43.4275609505451" lon="10.902359148774242"><ele>281.0</ele><time>2026-04-18T09:59:53Z</time></trkpt><trkpt lat="43.4276064038048" lon="10.902455583300943"><ele>281.0</ele><time>2026-04-18T09:59:54Z</time></trkpt><trkpt lat="43.42768466408889" lon="10.902536759606157"><ele>281.0</ele><time>2026-04-18T09:59:55.001Z</time></trkpt><trkpt lat="43.42776827843996" lon="10.902627905758113"><ele>281.0</ele><time>2026-04-18T09:59:56.001Z</time></trkpt><trkpt lat="43.427875806278806" lon="10.90273618831615"><ele>281.0</ele><time>2026-04-18T09:59:57.001Z</time></trkpt><trkpt lat="43.42800755609875" lon="10.902863107525869"><ele>282.5</ele><time>2026-04-18T09:59:58.001Z</time></trkpt><trkpt lat="43.42814066881258" lon="10.902983965423948"><ele>284.0</ele><time>2026-04-18T09:59:59.001Z</time></trkpt><trkpt lat="43.428270415163816" lon="10.903085358155236"><ele>285.5</ele><time>2026-04-18T09:59:59.999Z</time></trkpt><trkpt lat="43.42836970654665" lon="10.903168811381454"><ele>287.0</ele><time>2026-04-18T10:00:00.999Z</time></trkpt><trkpt lat="43.42843151703729" lon="10.903239358632918"><ele>287.0</ele><time>2026-04-18T10:00:01.999Z</time></trkpt><trkpt lat="43.4284834955903" lon="10.903323115363497"><ele>287.0</ele><time>2026-04-18T10:00:02.999Z</time></trkpt><trkpt lat="43.42855047185986" lon="10.903462419998098"><ele>287.0</ele><time>2026-04-18T10:00:03.999Z</time></trkpt><trkpt lat="43.42862317951968" lon="10.903625251822955"><ele>287.0</ele><time>2026-04-18T10:00:04.999Z</time></trkpt><trkpt lat="43.42867831100196" lon="10.903766287724624"><ele>288.75</ele><time>2026-04-18T10:00:05.999Z</time></trkpt><trkpt lat="43.428728889370774" lon="10.903911733969796"><ele>290.5</ele><time>2026-04-18T10:00:06.999Z</time></trkpt><trkpt lat="43.428782087317174" lon="10.904081731591212"><ele>292.25</ele><time>2026-04-18T10:00:07.999Z</time></trkpt><trkpt lat="43.428834169895055" lon="10.904257417654934"><ele>294.0</ele><time>2026-04-18T10:00:08.999Z</time></trkpt><trkpt lat="43.42887944679938" lon="10.904444384246284"><ele>294.0</ele><time>2026-04-18T10:00:09.999Z</time></trkpt><trkpt lat="43.42891305984184" lon="10.904624934398926"><ele>294.0</ele><time>2026-04-18T10:00:11Z</time></trkpt><trkpt lat="43.42894934510112" lon="10.904786141970613"><ele>294.0</ele><time>2026-04-18T10:00:12Z</time></trkpt><trkpt lat="43.429021232575174" lon="10.904915137917008"><ele>294.0</ele><time>2026-04-18T10:00:13Z</time></trkpt><trkpt lat="43.42911721224957" lon="10.90505784986099"><ele>296.5</ele><time>2026-04-18T10:00:14Z</time></trkpt><trkpt lat="43.42924114240446" lon="10.905190098843798"><ele>299.0</ele><time>2026-04-18T10:00:15Z</time></trkpt><trkpt lat="43.429354529447416" lon="10.905328093585211"><ele>301.5</ele><time>2026-04-18T10:00:16Z</time></trkpt><trkpt lat="43.42939797365326" lon="10.90546267019969"><ele>304.0</ele><time>2026-04-18T10:00:17Z</time></trkpt><trkpt lat="43.429420848906936" lon="10.905570894863294"><ele>304.0</ele><time>2026-04-18T10:00:18Z</time></trkpt><trkpt lat="43.42940591553151" lon="10.905697272937433"><ele>304.0</ele><time>2026-04-18T10:00:19Z</time></trkpt><trkpt lat="43.42937052700768" lon="10.90579990035591"><ele>304.0</ele><time>2026-04-18T10:00:20Z</time></trkpt><trkpt lat="43.42927078030186" lon="10.905874087642516"><ele>304.0</ele><time>2026-04-18T10:00:22Z</time></trkpt><trkpt lat="43.42920638221082" lon="10.905881894499135"><ele>304.0</ele><time>2026-04-18T10:00:23Z</time></trkpt><trkpt lat="43.42913429286689" lon="10.905860758031304"><ele>304.0</ele><time>2026-04-18T10:00:24Z</time></trkpt><trkpt lat="43.42904502341669" lon="10.90580494649158"><ele>304.0</ele><time>2026-04-18T10:00:25Z</time></trkpt><trkpt lat="43.42893643253417" lon="10.90572394948799"><ele>304.0</ele><time>2026-04-18T10:00:26Z</time></trkpt><trkpt lat="43.42879960712417" lon="10.905613914525562"><ele>304.0</ele><time>2026-04-18T10:00:27Z</time></trkpt><trkpt lat="43.428641979309575" lon="10.905520224038803"><ele>308.3333333333333</ele><time>2026-04-18T10:00:28Z</time></trkpt><trkpt lat="43.4284776512332" lon="10.905428687131321"><ele>312.6666666666667</ele><time>2026-04-18T10:00:29Z</time></trkpt><trkpt lat="43.42833580725314" lon="10.905340465369418"><ele>317.0</ele><time>2026-04-18T10:00:30Z</time></trkpt><trkpt lat="43.428214128844374" lon="10.905268532462937"><ele>317.0</ele><time>2026-04-18T10:00:31Z</time></trkpt><trkpt lat="43.428080833758884" lon="10.905197402429906"><ele>317.0</ele><time>2026-04-18T10:00:32Z</time></trkpt><trkpt lat="43.42795151787474" lon="10.905116935114407"><ele>317.0</ele><time>2026-04-18T10:00:33Z</time></trkpt><trkpt lat="43.42783483604838" lon="10.905034902327742"><ele>317.0</ele><time>2026-04-18T10:00:34Z</time></trkpt><trkpt lat="43.4277178165331" lon="10.904949700663245"><ele>317.2</ele><time>2026-04-18T10:00:35Z</time></trkpt><trkpt lat="43.42760797390891" lon="10.904881869667907"><ele>317.4</ele><time>2026-04-18T10:00:36Z</time></trkpt><trkpt lat="43.4275070232515" lon="10.904822917509936"><ele>317.6</ele><time>2026-04-18T10:00:37Z</time></trkpt><trkpt lat="43.427425823628575" lon="10.904779546605093"><ele>317.8</ele><time>2026-04-18T10:00:38Z</time></trkpt><trkpt lat="43.427343761076976" lon="10.904757671040715"><ele>318.0</ele><time>2026-04-18T10:00:39Z</time></trkpt><trkpt lat="43.42726564602672" lon="10.904775345508344"><ele>318.0</ele><time>2026-04-18T10:00:40Z</time></trkpt><trkpt lat="43.42720710636198" lon="10.904810256596168"><ele>318.0</ele><time>2026-04-18T10:00:41Z</time></trkpt><trkpt lat="43.42714913473007" lon="10.90490855577774"><ele>318.0</ele><time>2026-04-18T10:00:43Z</time></trkpt><trkpt lat="43.42712924579526" lon="10.905020301359317"><ele>318.0</ele><time>2026-04-18T10:00:44Z</time></trkpt><trkpt lat="43.42710354734424" lon="10.905107084069979"><ele>318.0</ele><time>2026-04-18T10:00:45Z</time></trkpt><trkpt lat="43.42703717959324" lon="10.905267174884974"><ele>318.0</ele><time>2026-04-18T10:00:47Z</time></trkpt><trkpt lat="43.4269679654288" lon="10.905392074737971"><ele>320.1666666666667</ele><time>2026-04-18T10:00:49Z</time></trkpt><trkpt lat="43.42685823691075" lon="10.905431341702101"><ele>322.3333333333333</ele><time>2026-04-18T10:00:51Z</time></trkpt><trkpt lat="43.42676002505133" lon="10.905483306833613"><ele>324.5</ele><time>2026-04-18T10:00:53Z</time></trkpt><trkpt lat="43.426695917351985" lon="10.905523140083709"><ele>326.66666666666663</ele><time>2026-04-18T10:00:54Z</time></trkpt><trkpt lat="43.42663245828251" lon="10.905550520904907"><ele>328.8333333333333</ele><time>2026-04-18T10:00:55Z</time></trkpt><trkpt lat="43.4265884641057" lon="10.90564302936793"><ele>331.0</ele><time>2026-04-18T10:00:57Z</time></trkpt><trkpt lat="43.426629078296095" lon="10.905756541858684"><ele>331.0</ele><time>2026-04-18T10:00:59Z</time></trkpt><trkpt lat="43.42672954577674" lon="10.905847603981947"><ele>331.0</ele><time>2026-04-18T10:01:01Z</time></trkpt><trkpt lat="43.426831978893276" lon="10.905916647186256"><ele>331.0</ele><time>2026-04-18T10:01:03Z</time></trkpt><trkpt lat="43.42689687195995" lon="10.905960698714019"><ele>331.0</ele><time>2026-04-18T10:01:04Z</time></trkpt><trkpt lat="43.42695801659475" lon="10.906002879318134"><ele>331.0</ele><time>2026-04-18T10:01:05Z</time></trkpt><trkpt lat="43.42702599251223" lon="10.906028163982596"><ele>331.0</ele><time>2026-04-18T10:01:06Z</time></trkpt><trkpt lat="43.42708764990638" lon="10.906083354918621"><ele>333.20000000000005</ele><time>2026-04-18T10:01:07Z</time></trkpt><trkpt lat="43.427151999889524" lon="10.906174220590044"><ele>335.40000000000003</ele><time>2026-04-18T10:01:08.001Z</time></trkpt><trkpt lat="43.427235812382946" lon="10.906258930213477"><ele>337.6</ele><time>2026-04-18T10:01:09.001Z</time></trkpt><trkpt lat="43.42732872501688" lon="10.906336969775928"><ele>339.8</ele><time>2026-04-18T10:01:10.001Z</time></trkpt><trkpt lat="43.42741965593659" lon="10.906427657192372"><ele>342.0</ele><time>2026-04-18T10:01:11.001Z</time></trkpt><trkpt lat="43.427483401362515" lon="10.906512519129235"><ele>342.0</ele><time>2026-04-18T10:01:12.001Z</time></trkpt><trkpt lat="43.427537517188824" lon="10.906620784357303"><ele>342.0</ele><time>2026-04-18T10:01:13.001Z</time></trkpt><trkpt lat="43.42760260094307" lon="10.906746991292692"><ele>342.0</ele><time>2026-04-18T10:01:14.001Z</time></trkpt><trkpt lat="43.42765693978088" lon="10.90689915313171"><ele>342.0</ele><time>2026-04-18T10:01:15.001Z</time></trkpt><trkpt lat="43.427708087152226" lon="10.907058686038607"><ele>344.0</ele><time>2026-04-18T10:01:16.001Z</time></trkpt><trkpt lat="43.427741201320934" lon="10.907230689033922"><ele>346.0</ele><time>2026-04-18T10:01:17.001Z</time></trkpt><trkpt lat="43.42778669792247" lon="10.907347707698447"><ele>348.0</ele><time>2026-04-18T10:01:18.001Z</time></trkpt><trkpt lat="43.42779803927743" lon="10.907460680092036"><ele>350.0</ele><time>2026-04-18T10:01:19.001Z</time></trkpt><trkpt lat="43.427783849412734" lon="10.907592906582028"><ele>352.0</ele><time>2026-04-18T10:01:20.001Z</time></trkpt><trkpt lat="43.427784630835816" lon="10.907715095156176"><ele>352.8</ele><time>2026-04-18T10:01:21.001Z</time></trkpt><trkpt lat="43.427751150226456" lon="10.907832107194412"><ele>353.6</ele><time>2026-04-18T10:01:22.001Z</time></trkpt><trkpt lat="43.427690634860134" lon="10.90795642722463"><ele>354.40000000000003</ele><time>2026-04-18T10:01:23.001Z</time></trkpt><trkpt lat="43.427627557401976" lon="10.908109116500775"><ele>355.20000000000005</ele><time>2026-04-18T10:01:24.001Z</time></trkpt><trkpt lat="43.42757432075986" lon="10.908256430252278"><ele>356.0</ele><time>2026-04-18T10:01:25.001Z</time></trkpt><trkpt lat="43.42749984930114" lon="10.908398967579211"><ele>356.8</ele><time>2026-04-18T10:01:26.001Z</time></trkpt><trkpt lat="43.42745315793344" lon="10.908522229980347"><ele>357.6</ele><time>2026-04-18T10:01:27.001Z</time></trkpt><trkpt lat="43.42738008853144" lon="10.908581418749183"><ele>358.4</ele><time>2026-04-18T10:01:28.001Z</time></trkpt><trkpt lat="43.42727733442771" lon="10.908606975838307"><ele>359.2</ele><time>2026-04-18T10:01:29.001Z</time></trkpt><trkpt lat="43.427191200012636" lon="10.908664786854079"><ele>360.0</ele><time>2026-04-18T10:01:30.001Z</time></trkpt><trkpt lat="43.427131063486485" lon="10.908737462988867"><ele>360.0</ele><time>2026-04-18T10:01:31.001Z</time></trkpt><trkpt lat="43.42709693706077" lon="10.908820659403975"><ele>360.0</ele><time>2026-04-18T10:01:32.001Z</time></trkpt><trkpt lat="43.42711277823386" lon="10.908931478114193"><ele>360.0</ele><time>2026-04-18T10:01:33.001Z</time></trkpt><trkpt lat="43.427178989314704" lon="10.909044720206058"><ele>360.0</ele><time>2026-04-18T10:01:34.001Z</time></trkpt><trkpt lat="43.42725442910685" lon="10.90912785628307"><ele>360.0</ele><time>2026-04-18T10:01:35.001Z</time></trkpt><trkpt lat="43.42735270573465" lon="10.909208972653179"><ele>362.25</ele><time>2026-04-18T10:01:36.001Z</time></trkpt><trkpt lat="43.427463036522695" lon="10.909291862836126"><ele>364.5</ele><time>2026-04-18T10:01:37.001Z</time></trkpt><trkpt lat="43.42757765995198" lon="10.909373919671996"><ele>366.75</ele><time>2026-04-18T10:01:38.001Z</time></trkpt><trkpt lat="43.42767460164831" lon="10.909457639307197"><ele>369.0</ele><time>2026-04-18T10:01:39.001Z</time></trkpt><trkpt lat="43.427744264402" lon="10.90954516808554"><ele>369.0</ele><time>2026-04-18T10:01:40.001Z</time></trkpt><trkpt lat="43.427781768688945" lon="10.90963774858976"><ele>369.0</ele><time>2026-04-18T10:01:41.001Z</time></trkpt><trkpt lat="43.42778201959486" lon="10.909751530667402"><ele>369.0</ele><time>2026-04-18T10:01:42.001Z</time></trkpt><trkpt lat="43.42776547129769" lon="10.909869280234421"><ele>369.0</ele><time>2026-04-18T10:01:43.001Z</time></trkpt><trkpt lat="43.42773319249681" lon="10.910020684388124"><ele>369.0</ele><time>2026-04-18T10:01:44.001Z</time></trkpt><trkpt lat="43.427703793768515" lon="10.910185409575611"><ele>370.75</ele><time>2026-04-18T10:01:45.001Z</time></trkpt><trkpt lat="43.42770694947039" lon="10.910328618968027"><ele>372.5</ele><time>2026-04-18T10:01:46.001Z</time></trkpt><trkpt lat="43.427802545894025" lon="10.910462304716255"><ele>374.25</ele><time>2026-04-18T10:01:47.001Z</time></trkpt><trkpt lat="43.42785545768126" lon="10.91063337483165"><ele>376.0</ele><time>2026-04-18T10:01:48.001Z</time></trkpt><trkpt lat="43.427910152329574" lon="10.910792747687937"><ele>378.0</ele><time>2026-04-18T10:01:49.001Z</time></trkpt><trkpt lat="43.427907757800995" lon="10.910943698594146"><ele>380.0</ele><time>2026-04-18T10:01:50.001Z</time></trkpt><trkpt lat="43.42789390614762" lon="10.911132954501458"><ele>382.0</ele><time>2026-04-18T10:01:51.001Z</time></trkpt><trkpt lat="43.42788531513971" lon="10.91137226622249"><ele>384.0</ele><time>2026-04-18T10:01:52.001Z</time></trkpt><trkpt lat="43.427874030757835" lon="10.91163816685382"><ele>385.75</ele><time>2026-04-18T10:01:53.001Z</time></trkpt><trkpt lat="43.427869563871724" lon="10.911885990440487"><ele>387.5</ele><time>2026-04-18T10:01:54.001Z</time></trkpt><trkpt lat="43.42785436876437" lon="10.912067212643688"><ele>389.25</ele><time>2026-04-18T10:01:55.001Z</time></trkpt><trkpt lat="43.42783302502461" lon="10.912195084217002"><ele>391.0</ele><time>2026-04-18T10:01:56.001Z</time></trkpt><trkpt lat="43.427808308198216" lon="10.912321580717775"><ele>391.0</ele><time>2026-04-18T10:01:57.001Z</time></trkpt><trkpt lat="43.42776634389109" lon="10.912463873356021"><ele>391.0</ele><time>2026-04-18T10:01:58.001Z</time></trkpt><trkpt lat="43.42771007439589" lon="10.912609396171735"><ele>391.0</ele><time>2026-04-18T10:01:59.001Z</time></trkpt><trkpt lat="43.427645897788366" lon="10.912768439837386"><ele>391.0</ele><time>2026-04-18T10:02:00.001Z</time></trkpt><trkpt lat="43.42757313918366" lon="10.91291188393999"><ele>390.25</ele><time>2026-04-18T10:02:01.001Z</time></trkpt><trkpt lat="43.42746646311332" lon="10.91307250102046"><ele>389.5</ele><time>2026-04-18T10:02:02.001Z</time></trkpt><trkpt lat="43.427378714543174" lon="10.913243563711092"><ele>388.75</ele><time>2026-04-18T10:02:03.001Z</time></trkpt><trkpt lat="43.42734023609506" lon="10.913399914253183"><ele>388.0</ele><time>2026-04-18T10:02:04.001Z</time></trkpt><trkpt lat="43.4273227752005" lon="10.913507197088679"><ele>387.79999999999995</ele><time>2026-04-18T10:02:05.001Z</time></trkpt><trkpt lat="43.4273474591707" lon="10.913682704802367"><ele>387.6</ele><time>2026-04-18T10:02:07Z</time></trkpt><trkpt lat="43.427367543463596" lon="10.913816295670813"><ele>387.4</ele><time>2026-04-18T10:02:09Z</time></trkpt><trkpt lat="43.42741522099291" lon="10.913883043533747"><ele>387.20000000000005</ele><time>2026-04-18T10:07:21.001Z</time></trkpt><trkpt lat="43.42749156529338" lon="10.913951270453195"><ele>387.0</ele><time>2026-04-18T10:07:29.002Z</time></trkpt><trkpt lat="43.427564841712794" lon="10.914090038644664"><ele>387.0</ele><time>2026-04-18T10:07:31.002Z</time></trkpt><trkpt lat="43.42760926295539" lon="10.914181643663795"><ele>387.0</ele><time>2026-04-18T10:07:32.002Z</time></trkpt><trkpt lat="43.427655118644445" lon="10.914266752841087"><ele>387.0</ele><time>2026-04-18T10:07:33.002Z</time></trkpt><trkpt lat="43.42770155594649" lon="10.914349231433336"><ele>387.0</ele><time>2026-04-18T10:07:34.002Z</time></trkpt><trkpt lat="43.427749842199376" lon="10.914460668625706"><ele>387.0</ele><time>2026-04-18T10:07:35.002Z</time></trkpt><trkpt lat="43.427810942743264" lon="10.914562982505387"><ele>387.0</ele><time>2026-04-18T10:07:36.002Z</time></trkpt><trkpt lat="43.42789053833761" lon="10.914695557211049"><ele>388.0</ele><time>2026-04-18T10:07:37.002Z</time></trkpt><trkpt lat="43.42798451239983" lon="10.914849595124398"><ele>389.0</ele><time>2026-04-18T10:07:38.002Z</time></trkpt><trkpt lat="43.42807889729099" lon="10.915005392108108"><ele>390.0</ele><time>2026-04-18T10:07:39.002Z</time></trkpt><trkpt lat="43.42815645531571" lon="10.915136850173491"><ele>391.0</ele><time>2026-04-18T10:07:40.002Z</time></trkpt><trkpt lat="43.428221910891956" lon="10.915237732672304"><ele>391.20000000000005</ele><time>2026-04-18T10:07:41.002Z</time></trkpt><trkpt lat="43.42828421403468" lon="10.915321177856962"><ele>391.40000000000003</ele><time>2026-04-18T10:07:42.002Z</time></trkpt><trkpt lat="43.428357176494295" lon="10.915378114579855"><ele>391.6</ele><time>2026-04-18T10:07:43.002Z</time></trkpt><trkpt lat="43.428464008913394" lon="10.915423407601981"><ele>391.8</ele><time>2026-04-18T10:07:44.002Z</time></trkpt><trkpt lat="43.428581675964644" lon="10.915452365732895"><ele>392.0</ele><time>2026-04-18T10:07:45.002Z</time></trkpt><trkpt lat="43.428692056135596" lon="10.915471638819929"><ele>392.0</ele><time>2026-04-18T10:07:46.002Z</time></trkpt><trkpt lat="43.42877883223567" lon="10.915524056202502"><ele>392.0</ele><time>2026-04-18T10:07:47.002Z</time></trkpt><trkpt lat="43.42884932970456" lon="10.91559201852054"><ele>392.0</ele><time>2026-04-18T10:07:48.002Z</time></trkpt><trkpt lat="43.4288975225116" lon="10.915679906734834"><ele>392.0</ele><time>2026-04-18T10:07:49.002Z</time></trkpt><trkpt lat="43.42892798548587" lon="10.915803190357458"><ele>392.0</ele><time>2026-04-18T10:07:50.002Z</time></trkpt><trkpt lat="43.4289366893983" lon="10.915951532413153"><ele>397.5</ele><time>2026-04-18T10:07:51.002Z</time></trkpt><trkpt lat="43.42892794363015" lon="10.916109695264131"><ele>403.0</ele><time>2026-04-18T10:07:52.002Z</time></trkpt><trkpt lat="43.428943241715665" lon="10.91629458430623"><ele>408.5</ele><time>2026-04-18T10:07:53.002Z</time></trkpt><trkpt lat="43.42896467498608" lon="10.916486596075636"><ele>414.0</ele><time>2026-04-18T10:07:54.002Z</time></trkpt><trkpt lat="43.429005392381754" lon="10.916714324265365"><ele>414.66666666666663</ele><time>2026-04-18T10:07:55.002Z</time></trkpt><trkpt lat="43.429051584384595" lon="10.916966581989561"><ele>415.3333333333333</ele><time>2026-04-18T10:07:56.002Z</time></trkpt><trkpt lat="43.429089908017346" lon="10.917201717819959"><ele>416.0</ele><time>2026-04-18T10:07:57.002Z</time></trkpt><trkpt lat="43.429116022292376" lon="10.917368580781858"><ele>416.0</ele><time>2026-04-18T10:07:58.002Z</time></trkpt><trkpt lat="43.42914861646672" lon="10.91748622799625"><ele>416.0</ele><time>2026-04-18T10:07:59.002Z</time></trkpt><trkpt lat="43.42918324092146" lon="10.917603405024794"><ele>416.0</ele><time>2026-04-18T10:08:00.002Z</time></trkpt><trkpt lat="43.429220779737896" lon="10.917748968344968"><ele>416.0</ele><time>2026-04-18T10:08:01.002Z</time></trkpt><trkpt lat="43.42925234654494" lon="10.917899093710368"><ele>416.0</ele><time>2026-04-18T10:08:02.002Z</time></trkpt><trkpt lat="43.429273119575875" lon="10.918049781118148"><ele>416.0</ele><time>2026-04-18T10:08:03.002Z</time></trkpt><trkpt lat="43.42928580154402" lon="10.918202655868845"><ele>416.0</ele><time>2026-04-18T10:08:04.002Z</time></trkpt><trkpt lat="43.42928749017986" lon="10.91835132908659"><ele>416.0</ele><time>2026-04-18T10:08:05.002Z</time></trkpt><trkpt lat="43.42928803376088" lon="10.918492319145589"><ele>416.0</ele><time>2026-04-18T10:08:06.002Z</time></trkpt><trkpt lat="43.42928861411416" lon="10.918641763566978"><ele>416.0</ele><time>2026-04-18T10:08:07.002Z</time></trkpt><trkpt lat="43.429274815027725" lon="10.918800385327213"><ele>417.25</ele><time>2026-04-18T10:08:08.002Z</time></trkpt><trkpt lat="43.42924253501319" lon="10.91897605864061"><ele>418.5</ele><time>2026-04-18T10:08:09.002Z</time></trkpt><trkpt lat="43.429195376987316" lon="10.919156654078833"><ele>419.75</ele><time>2026-04-18T10:08:10.002Z</time></trkpt><trkpt lat="43.429136730112894" lon="10.919333970694103"><ele>421.0</ele><time>2026-04-18T10:08:11.002Z</time></trkpt><trkpt lat="43.42907488501432" lon="10.91949160769132"><ele>422.0</ele><time>2026-04-18T10:08:12.002Z</time></trkpt><trkpt lat="43.42900730697039" lon="10.919636124350529"><ele>423.0</ele><time>2026-04-18T10:08:13.002Z</time></trkpt><trkpt lat="43.428947287556966" lon="10.91977537331237"><ele>424.0</ele><time>2026-04-18T10:08:14.002Z</time></trkpt><trkpt lat="43.428905758584506" lon="10.91989449287366"><ele>425.0</ele><time>2026-04-18T10:08:15.002Z</time></trkpt><trkpt lat="43.42887294141337" lon="10.92001021531505"><ele>426.0</ele><time>2026-04-18T10:08:16.002Z</time></trkpt><trkpt lat="43.42885900143808" lon="10.920122691436553"><ele>426.0</ele><time>2026-04-18T10:08:17.002Z</time></trkpt><trkpt lat="43.42886378860923" lon="10.92022834926213"><ele>426.0</ele><time>2026-04-18T10:08:18.002Z</time></trkpt><trkpt lat="43.42888762394683" lon="10.920357391950116"><ele>426.0</ele><time>2026-04-18T10:08:19.002Z</time></trkpt><trkpt lat="43.42891022841483" lon="10.920524511756403"><ele>426.0</ele><time>2026-04-18T10:08:20.002Z</time></trkpt><trkpt lat="43.42894848008745" lon="10.920695948743003"><ele>426.0</ele><time>2026-04-18T10:08:21.002Z</time></trkpt><trkpt lat="43.428979519312115" lon="10.920843361306156"><ele>425.20000000000005</ele><time>2026-04-18T10:08:22.002Z</time></trkpt><trkpt lat="43.42900613304498" lon="10.920960559076734"><ele>424.40000000000003</ele><time>2026-04-18T10:08:23.002Z</time></trkpt><trkpt lat="43.4290104994643" lon="10.921078910027967"><ele>423.6</ele><time>2026-04-18T10:08:24.002Z</time></trkpt><trkpt lat="43.42899721703269" lon="10.921192358751677"><ele>422.8</ele><time>2026-04-18T10:08:25.002Z</time></trkpt><trkpt lat="43.42897194837361" lon="10.921322769161293"><ele>422.0</ele><time>2026-04-18T10:08:26.002Z</time></trkpt><trkpt lat="43.42891740778863" lon="10.921444089302856"><ele>422.0</ele><time>2026-04-18T10:08:27.002Z</time></trkpt><trkpt lat="43.42883426845642" lon="10.921549065659967"><ele>422.0</ele><time>2026-04-18T10:08:28.002Z</time></trkpt><trkpt lat="43.42872180258853" lon="10.921653105950567"><ele>422.0</ele><time>2026-04-18T10:08:29.002Z</time></trkpt><trkpt lat="43.42859054953825" lon="10.921763004679438"><ele>422.0</ele><time>2026-04-18T10:08:30.002Z</time></trkpt><trkpt lat="43.42847019708711" lon="10.921893015438341"><ele>422.0</ele><time>2026-04-18T10:08:31.002Z</time></trkpt><trkpt lat="43.42836455192196" lon="10.922036066603413"><ele>422.0</ele><time>2026-04-18T10:08:32.002Z</time></trkpt><trkpt lat="43.428276301013256" lon="10.92220548491164"><ele>422.0</ele><time>2026-04-18T10:08:33.002Z</time></trkpt><trkpt lat="43.42820951582505" lon="10.92239431573015"><ele>422.3333333333333</ele><time>2026-04-18T10:08:34.002Z</time></trkpt><trkpt lat="43.42815477936486" lon="10.922601180488499"><ele>422.66666666666663</ele><time>2026-04-18T10:08:35.002Z</time></trkpt><trkpt lat="43.42810316373609" lon="10.922812555015916"><ele>423.0</ele><time>2026-04-18T10:08:36.001Z</time></trkpt><trkpt lat="43.42804936863465" lon="10.92303219023205"><ele>423.0</ele><time>2026-04-18T10:08:37.001Z</time></trkpt><trkpt lat="43.4279991905212" lon="10.92322717670844"><ele>423.0</ele><time>2026-04-18T10:08:38.001Z</time></trkpt><trkpt lat="43.42794895718895" lon="10.923403851757934"><ele>423.0</ele><time>2026-04-18T10:08:39.001Z</time></trkpt><trkpt lat="43.427903278221294" lon="10.92359014453319"><ele>423.0</ele><time>2026-04-18T10:08:40.001Z</time></trkpt><trkpt lat="43.42786531284185" lon="10.923770223280332"><ele>431.0</ele><time>2026-04-18T10:08:41.001Z</time></trkpt><trkpt lat="43.427844267134226" lon="10.92394888729042"><ele>439.0</ele><time>2026-04-18T10:08:42.001Z</time></trkpt><trkpt lat="43.427831419580194" lon="10.924132542819832"><ele>447.0</ele><time>2026-04-18T10:08:43.001Z</time></trkpt><trkpt lat="43.427826542425784" lon="10.924333322275825"><ele>455.0</ele><time>2026-04-18T10:08:44.001Z</time></trkpt><trkpt lat="43.427831493680976" lon="10.924542968157896"><ele>456.0</ele><time>2026-04-18T10:08:45.001Z</time></trkpt><trkpt lat="43.42782930186386" lon="10.924757584002444"><ele>457.0</ele><time>2026-04-18T10:08:46.001Z</time></trkpt><trkpt lat="43.42783811712494" lon="10.924979657546906"><ele>458.0</ele><time>2026-04-18T10:08:47.001Z</time></trkpt><trkpt lat="43.42783306083095" lon="10.925196620650638"><ele>458.0</ele><time>2026-04-18T10:08:48.001Z</time></trkpt><trkpt lat="43.42783990291178" lon="10.925393317004302"><ele>458.0</ele><time>2026-04-18T10:08:49.001Z</time></trkpt><trkpt lat="43.427844120368796" lon="10.925564158428553"><ele>458.0</ele><time>2026-04-18T10:08:50.001Z</time></trkpt><trkpt lat="43.427853308735344" lon="10.925706464691428"><ele>458.0</ele><time>2026-04-18T10:08:51.001Z</time></trkpt><trkpt lat="43.4278438551215" lon="10.9258318920748"><ele>457.49999999999994</ele><time>2026-04-18T10:08:52.001Z</time></trkpt><trkpt lat="43.427822516146854" lon="10.92593424017109"><ele>457.0</ele><time>2026-04-18T10:08:53.001Z</time></trkpt><trkpt lat="43.42778368495894" lon="10.92604637280211"><ele>456.5</ele><time>2026-04-18T10:08:54.001Z</time></trkpt><trkpt lat="43.427730763875125" lon="10.926165268843798"><ele>456.0</ele><time>2026-04-18T10:08:55.001Z</time></trkpt><trkpt lat="43.42768109021617" lon="10.926227491407706"><ele>455.49999999999994</ele><time>2026-04-18T10:08:56.001Z</time></trkpt><trkpt lat="43.42759821584355" lon="10.926319816401595"><ele>455.0</ele><time>2026-04-18T10:08:58.001Z</time></trkpt><trkpt lat="43.42752777223003" lon="10.92636045598393"><ele>455.0</ele><time>2026-04-18T10:08:59.001Z</time></trkpt><trkpt lat="43.427431048465316" lon="10.926359006710383"><ele>455.0</ele><time>2026-04-18T10:09:00.001Z</time></trkpt><trkpt lat="43.427318656723116" lon="10.92640471158259"><ele>455.0</ele><time>2026-04-18T10:09:01.001Z</time></trkpt><trkpt lat="43.42720308792091" lon="10.92641803782601"><ele>455.0</ele><time>2026-04-18T10:09:02.001Z</time></trkpt><trkpt lat="43.42710301339442" lon="10.926463898296774"><ele>455.0</ele><time>2026-04-18T10:09:03.001Z</time></trkpt><trkpt lat="43.42703773040229" lon="10.926536480318887"><ele>457.16666666666663</ele><time>2026-04-18T10:09:04.001Z</time></trkpt><trkpt lat="43.42696793603509" lon="10.926613273818774"><ele>459.3333333333333</ele><time>2026-04-18T10:09:05.001Z</time></trkpt><trkpt lat="43.42694047933475" lon="10.92672527823063"><ele>461.5</ele><time>2026-04-18T10:09:06.001Z</time></trkpt><trkpt lat="43.42694296169985" lon="10.92684521618389"><ele>463.66666666666663</ele><time>2026-04-18T10:09:07.001Z</time></trkpt><trkpt lat="43.426976129770374" lon="10.926960030305608"><ele>465.8333333333333</ele><time>2026-04-18T10:09:08.001Z</time></trkpt><trkpt lat="43.42704424034426" lon="10.927043591637906"><ele>468.0</ele><time>2026-04-18T10:09:09.001Z</time></trkpt><trkpt lat="43.427142232962375" lon="10.927084141017874"><ele>467.5</ele><time>2026-04-18T10:09:10.001Z</time></trkpt><trkpt lat="43.42723965872426" lon="10.927163974574304"><ele>467.0</ele><time>2026-04-18T10:09:11.001Z</time></trkpt><trkpt lat="43.427350213859484" lon="10.927230803587912"><ele>466.5</ele><time>2026-04-18T10:09:12.001Z</time></trkpt><trkpt lat="43.42746833128399" lon="10.927289322859385"><ele>466.0</ele><time>2026-04-18T10:09:13.001Z</time></trkpt><trkpt lat="43.42754657986742" lon="10.927407951307213"><ele>466.0</ele><time>2026-04-18T10:09:14.001Z</time></trkpt><trkpt lat="43.42759561359852" lon="10.927523601654455"><ele>466.0</ele><time>2026-04-18T10:09:15.001Z</time></trkpt><trkpt lat="43.42766055952404" lon="10.927671364860009"><ele>466.0</ele><time>2026-04-18T10:09:16.001Z</time></trkpt><trkpt lat="43.42775747160387" lon="10.92785612843958"><ele>466.0</ele><time>2026-04-18T10:09:17.001Z</time></trkpt><trkpt lat="43.42781715464676" lon="10.928005806237909"><ele>469.20000000000005</ele><time>2026-04-18T10:09:18.001Z</time></trkpt><trkpt lat="43.427873877912965" lon="10.928134322348455"><ele>472.40000000000003</ele><time>2026-04-18T10:09:19.001Z</time></trkpt><trkpt lat="43.427915473601765" lon="10.928242428598328"><ele>475.6</ele><time>2026-04-18T10:09:20.001Z</time></trkpt><trkpt lat="43.42795496449215" lon="10.928365053044747"><ele>478.8</ele><time>2026-04-18T10:09:21.001Z</time></trkpt><trkpt lat="43.42795863573424" lon="10.928513475626671"><ele>482.0</ele><time>2026-04-18T10:09:22.001Z</time></trkpt><trkpt lat="43.42796335689097" lon="10.92868945897088"><ele>482.75</ele><time>2026-04-18T10:09:23.001Z</time></trkpt><trkpt lat="43.4279752606415" lon="10.928863544841498"><ele>483.5</ele><time>2026-04-18T10:09:24.001Z</time></trkpt><trkpt lat="43.42800559586375" lon="10.929005319472912"><ele>484.25</ele><time>2026-04-18T10:09:25.001Z</time></trkpt><trkpt lat="43.42802288806785" lon="10.92917477895586"><ele>485.0</ele><time>2026-04-18T10:09:26.001Z</time></trkpt><trkpt lat="43.428078520159865" lon="10.929349271657747"><ele>485.0</ele><time>2026-04-18T10:09:27.001Z</time></trkpt><trkpt lat="43.42814336462494" lon="10.929535061210268"><ele>485.0</ele><time>2026-04-18T10:09:28.001Z</time></trkpt><trkpt lat="43.42819448555854" lon="10.929704863609087"><ele>485.0</ele><time>2026-04-18T10:09:29.001Z</time></trkpt><trkpt lat="43.42822329977238" lon="10.929840272611159"><ele>485.0</ele><time>2026-04-18T10:09:30.001Z</time></trkpt><trkpt lat="43.42823482288626" lon="10.929965131064659"><ele>487.25</ele><time>2026-04-18T10:09:31.001Z</time></trkpt><trkpt lat="43.42822835738243" lon="10.930089577130023"><ele>489.5</ele><time>2026-04-18T10:09:32.001Z</time></trkpt><trkpt lat="43.428204164181096" lon="10.930240981480697"><ele>491.75</ele><time>2026-04-18T10:09:33.001Z</time></trkpt><trkpt lat="43.42817049642856" lon="10.930434892588114"><ele>494.0</ele><time>2026-04-18T10:09:34.001Z</time></trkpt><trkpt lat="43.42811065334735" lon="10.93064480274746"><ele>494.0</ele><time>2026-04-18T10:09:35.002Z</time></trkpt><trkpt lat="43.42807473463843" lon="10.930856621240178"><ele>494.0</ele><time>2026-04-18T10:09:36.002Z</time></trkpt><trkpt lat="43.42804719026887" lon="10.931039329178924"><ele>494.0</ele><time>2026-04-18T10:09:37.002Z</time></trkpt><trkpt lat="43.42802567362078" lon="10.931201103629755"><ele>494.0</ele><time>2026-04-18T10:09:38.002Z</time></trkpt><trkpt lat="43.42802115169924" lon="10.931359865758427"><ele>496.75</ele><time>2026-04-18T10:09:39.002Z</time></trkpt><trkpt lat="43.428048217872444" lon="10.931518441099795"><ele>499.5</ele><time>2026-04-18T10:09:40.002Z</time></trkpt><trkpt lat="43.428071935119895" lon="10.931697204052616"><ele>502.25</ele><time>2026-04-18T10:09:41.002Z</time></trkpt><trkpt lat="43.428103767744425" lon="10.9318682651141"><ele>505.0</ele><time>2026-04-18T10:09:42.002Z</time></trkpt><trkpt lat="43.42811139173134" lon="10.931983170347856"><ele>506.4</ele><time>2026-04-18T10:09:43.002Z</time></trkpt><trkpt lat="43.42805947834362" lon="10.932146778884487"><ele>507.8</ele><time>2026-04-18T10:09:45.002Z</time></trkpt><trkpt lat="43.42800417197934" lon="10.932245007514819"><ele>509.20000000000005</ele><time>2026-04-18T10:09:46.002Z</time></trkpt><trkpt lat="43.42789213795717" lon="10.932303204306947"><ele>510.6</ele><time>2026-04-18T10:09:47.002Z</time></trkpt><trkpt lat="43.42780146188384" lon="10.932376460595611"><ele>512.0</ele><time>2026-04-18T10:09:48.002Z</time></trkpt><trkpt lat="43.42773508575806" lon="10.932412550783624"><ele>512.4</ele><time>2026-04-18T10:09:49.002Z</time></trkpt><trkpt lat="43.427725431952624" lon="10.932570546404582"><ele>512.8000000000001</ele><time>2026-04-18T10:09:51.002Z</time></trkpt><trkpt lat="43.42775275054534" lon="10.93266498105018"><ele>513.2</ele><time>2026-04-18T10:09:52.002Z</time></trkpt><trkpt lat="43.42779378479873" lon="10.93278017605354"><ele>513.6</ele><time>2026-04-18T10:09:53.002Z</time></trkpt><trkpt lat="43.427830080538" lon="10.932921041024114"><ele>514.0</ele><time>2026-04-18T10:09:54.002Z</time></trkpt><trkpt lat="43.42787838779589" lon="10.933084624905792"><ele>514.0</ele><time>2026-04-18T10:09:55.002Z</time></trkpt><trkpt lat="43.42793197877838" lon="10.93327076256686"><ele>514.0</ele><time>2026-04-18T10:09:56.002Z</time></trkpt><trkpt lat="43.42797752433922" lon="10.93344495260439"><ele>514.0</ele><time>2026-04-18T10:09:57.002Z</time></trkpt><trkpt lat="43.42801903847723" lon="10.933582735101085"><ele>514.0</ele><time>2026-04-18T10:09:58.002Z</time></trkpt><trkpt lat="43.428057336506185" lon="10.933688166022844"><ele>511.0</ele><time>2026-04-18T10:09:59.002Z</time></trkpt><trkpt lat="43.428102390589615" lon="10.933784389883295"><ele>508.0</ele><time>2026-04-18T10:10:00.002Z</time></trkpt><trkpt lat="43.42816524492165" lon="10.933875855928154"><ele>505.0</ele><time>2026-04-18T10:10:01.002Z</time></trkpt><trkpt lat="43.428236706214754" lon="10.93397440262334"><ele>502.0</ele><time>2026-04-18T10:10:02.002Z</time></trkpt><trkpt lat="43.428334241796904" lon="10.93405952606784"><ele>499.0</ele><time>2026-04-18T10:10:03.002Z</time></trkpt><trkpt lat="43.42844309417568" lon="10.934157606317473"><ele>496.5</ele><time>2026-04-18T10:10:04.002Z</time></trkpt><trkpt lat="43.42857291427681" lon="10.934266654354904"><ele>494.0</ele><time>2026-04-18T10:10:05.002Z</time></trkpt><trkpt lat="43.42868842976234" lon="10.93436820499417"><ele>491.5</ele><time>2026-04-18T10:10:06.002Z</time></trkpt><trkpt lat="43.42878997743521" lon="10.93446442869607"><ele>489.0</ele><time>2026-04-18T10:10:07.002Z</time></trkpt><trkpt lat="43.428896004556854" lon="10.934547261591728"><ele>489.0</ele><time>2026-04-18T10:10:08.002Z</time></trkpt><trkpt lat="43.429003207242616" lon="10.934654323672994"><ele>489.0</ele><time>2026-04-18T10:10:09.002Z</time></trkpt><trkpt lat="43.42914359691286" lon="10.93474128127"><ele>489.0</ele><time>2026-04-18T10:10:10.002Z</time></trkpt><trkpt lat="43.42928649874086" lon="10.934825921329542"><ele>489.0</ele><time>2026-04-18T10:10:11.002Z</time></trkpt><trkpt lat="43.42942358791837" lon="10.934917680820652"><ele>489.0</ele><time>2026-04-18T10:10:12.002Z</time></trkpt><trkpt lat="43.42955097527413" lon="10.93502016853242"><ele>489.0</ele><time>2026-04-18T10:10:13.002Z</time></trkpt><trkpt lat="43.42968057173652" lon="10.935109330410782"><ele>489.0</ele><time>2026-04-18T10:10:14.002Z</time></trkpt><trkpt lat="43.429808336339256" lon="10.935207265612604"><ele>489.0</ele><time>2026-04-18T10:10:15.002Z</time></trkpt><trkpt lat="43.42994624768189" lon="10.935318655911026"><ele>489.25</ele><time>2026-04-18T10:10:16.002Z</time></trkpt><trkpt lat="43.43006828568389" lon="10.935409640009203"><ele>489.5</ele><time>2026-04-18T10:10:17.002Z</time></trkpt><trkpt lat="43.43015016395008" lon="10.935509995567994"><ele>489.75</ele><time>2026-04-18T10:10:18.002Z</time></trkpt><trkpt lat="43.430245959245156" lon="10.935598523167936"><ele>490.0</ele><time>2026-04-18T10:10:19.002Z</time></trkpt><trkpt lat="43.43033667088665" lon="10.935752774505392"><ele>492.25</ele><time>2026-04-18T10:10:20.002Z</time></trkpt><trkpt lat="43.43043232995845" lon="10.935921001183164"><ele>494.5</ele><time>2026-04-18T10:10:21.001Z</time></trkpt><trkpt lat="43.430537846185096" lon="10.936065726398871"><ele>496.75</ele><time>2026-04-18T10:10:22.001Z</time></trkpt><trkpt lat="43.430624916973315" lon="10.936211523854595"><ele>499.0</ele><time>2026-04-18T10:10:23.001Z</time></trkpt><trkpt lat="43.43070024946608" lon="10.93634976150114"><ele>499.0</ele><time>2026-04-18T10:10:24.001Z</time></trkpt><trkpt lat="43.43076009972332" lon="10.936505183011496"><ele>499.0</ele><time>2026-04-18T10:10:25.001Z</time></trkpt><trkpt lat="43.430825053715644" lon="10.936663447460507"><ele>499.0</ele><time>2026-04-18T10:10:26.001Z</time></trkpt><trkpt lat="43.43087943146545" lon="10.936795597552655"><ele>499.0</ele><time>2026-04-18T10:10:27.001Z</time></trkpt><trkpt lat="43.43091300567039" lon="10.936909228719689"><ele>498.00000000000006</ele><time>2026-04-18T10:10:28.001Z</time></trkpt><trkpt lat="43.4309454651561" lon="10.937036959458645"><ele>497.0</ele><time>2026-04-18T10:10:29.001Z</time></trkpt><trkpt lat="43.430979376585405" lon="10.937162360170337"><ele>496.0</ele><time>2026-04-18T10:10:30Z</time></trkpt><trkpt lat="43.4310184374342" lon="10.937269288076447"><ele>495.0</ele><time>2026-04-18T10:10:31Z</time></trkpt><trkpt lat="43.43106398694085" lon="10.937354613364151"><ele>494.00000000000006</ele><time>2026-04-18T10:10:32Z</time></trkpt><trkpt lat="43.431107624969364" lon="10.937421422037481"><ele>493.0</ele><time>2026-04-18T10:10:33Z</time></trkpt><trkpt lat="43.43115474525494" lon="10.937481046208106"><ele>491.59999999999997</ele><time>2026-04-18T10:10:34Z</time></trkpt><trkpt lat="43.43120229993232" lon="10.937583438079422"><ele>490.19999999999993</ele><time>2026-04-18T10:10:35Z</time></trkpt><trkpt lat="43.43128737954148" lon="10.937662958396663"><ele>488.8</ele><time>2026-04-18T10:10:36Z</time></trkpt><trkpt lat="43.431380371900886" lon="10.937750540387926"><ele>487.4</ele><time>2026-04-18T10:10:37Z</time></trkpt><trkpt lat="43.431473887005794" lon="10.937849814266542"><ele>486.0</ele><time>2026-04-18T10:10:38Z</time></trkpt><trkpt lat="43.43156503401962" lon="10.937974884888881"><ele>489.5</ele><time>2026-04-18T10:10:39Z</time></trkpt><trkpt lat="43.43166133290391" lon="10.938116861511732"><ele>493.0</ele><time>2026-04-18T10:10:40Z</time></trkpt><trkpt lat="43.43175809170622" lon="10.938275320359717"><ele>496.5</ele><time>2026-04-18T10:10:41Z</time></trkpt><trkpt lat="43.431836148061016" lon="10.93841804596324"><ele>500.0</ele><time>2026-04-18T10:10:42Z</time></trkpt><trkpt lat="43.43191397239834" lon="10.93854503162415"><ele>500.0</ele><time>2026-04-18T10:10:43Z</time></trkpt><trkpt lat="43.431967076136885" lon="10.938703327820956"><ele>500.0</ele><time>2026-04-18T10:10:44Z</time></trkpt><trkpt lat="43.4319951284258" lon="10.938865095846397"><ele>500.0</ele><time>2026-04-18T10:10:45Z</time></trkpt><trkpt lat="43.431995187028" lon="10.939037900596448"><ele>500.0</ele><time>2026-04-18T10:10:46Z</time></trkpt><trkpt lat="43.43196020524946" lon="10.939212250481301"><ele>501.0</ele><time>2026-04-18T10:10:47Z</time></trkpt><trkpt lat="43.43194155813265" lon="10.939394062349464"><ele>502.0</ele><time>2026-04-18T10:10:48Z</time></trkpt><trkpt lat="43.431948332893256" lon="10.939556105285511"><ele>503.0</ele><time>2026-04-18T10:10:49Z</time></trkpt><trkpt lat="43.431966609211486" lon="10.939687350982764"><ele>504.0</ele><time>2026-04-18T10:10:50Z</time></trkpt><trkpt lat="43.432038477854306" lon="10.939814324845713"><ele>504.0</ele><time>2026-04-18T10:10:51Z</time></trkpt><trkpt lat="43.43207970708058" lon="10.93993716946709"><ele>504.0</ele><time>2026-04-18T10:10:52Z</time></trkpt><trkpt lat="43.432068749824005" lon="10.940041405884163"><ele>504.0</ele><time>2026-04-18T10:10:53Z</time></trkpt><trkpt lat="43.432042742879936" lon="10.940139159829267"><ele>504.0</ele><time>2026-04-18T10:10:54Z</time></trkpt><trkpt lat="43.43201830975341" lon="10.940291122716484"><ele>504.0</ele><time>2026-04-18T10:10:55Z</time></trkpt><trkpt lat="43.43199316877352" lon="10.9404942439881"><ele>505.5</ele><time>2026-04-18T10:10:56Z</time></trkpt><trkpt lat="43.43195847364772" lon="10.940704668333757"><ele>507.0</ele><time>2026-04-18T10:10:57Z</time></trkpt><trkpt lat="43.43192797150471" lon="10.94091268276993"><ele>508.5</ele><time>2026-04-18T10:10:58Z</time></trkpt><trkpt lat="43.43190278660347" lon="10.941097127176795"><ele>510.0</ele><time>2026-04-18T10:10:59Z</time></trkpt><trkpt lat="43.43189005447889" lon="10.941293005642772"><ele>511.25</ele><time>2026-04-18T10:11:00Z</time></trkpt><trkpt lat="43.43187049082536" lon="10.941501467908914"><ele>512.5</ele><time>2026-04-18T10:11:01Z</time></trkpt><trkpt lat="43.431867701311184" lon="10.941684511144736"><ele>513.75</ele><time>2026-04-18T10:11:02Z</time></trkpt><trkpt lat="43.431864767087525" lon="10.941820609669445"><ele>515.0</ele><time>2026-04-18T10:11:03Z</time></trkpt><trkpt lat="43.4318621999948" lon="10.941939679835007"><ele>515.1666666666666</ele><time>2026-04-18T10:11:04Z</time></trkpt><trkpt lat="43.431859420276645" lon="10.942068612109257"><ele>515.3333333333333</ele><time>2026-04-18T10:11:05Z</time></trkpt><trkpt lat="43.431857143044724" lon="10.942183377836189"><ele>515.5</ele><time>2026-04-18T10:11:06Z</time></trkpt><trkpt lat="43.43185511745928" lon="10.942292594037726"><ele>515.6666666666666</ele><time>2026-04-18T10:11:07Z</time></trkpt><trkpt lat="43.431853205862595" lon="10.942401579970666"><ele>515.8333333333334</ele><time>2026-04-18T10:11:08Z</time></trkpt><trkpt lat="43.431854763528314" lon="10.942509735796332"><ele>516.0</ele><time>2026-04-18T10:11:09Z</time></trkpt><trkpt lat="43.431860337314625" lon="10.94262630242119"><ele>515.0</ele><time>2026-04-18T10:11:10Z</time></trkpt><trkpt lat="43.43186518294759" lon="10.942727640465506"><ele>514.0</ele><time>2026-04-18T10:11:11Z</time></trkpt><trkpt lat="43.43188091159675" lon="10.942844821987585"><ele>513.0</ele><time>2026-04-18T10:11:12Z</time></trkpt><trkpt lat="43.43189552285808" lon="10.942992398601652"><ele>512.0</ele><time>2026-04-18T10:11:13Z</time></trkpt><trkpt lat="43.43191071320604" lon="10.943144328452904"><ele>511.0</ele><time>2026-04-18T10:11:14Z</time></trkpt><trkpt lat="43.431918980553554" lon="10.943310365038288"><ele>510.25</ele><time>2026-04-18T10:11:15Z</time></trkpt><trkpt lat="43.43190789734713" lon="10.943497161240002"><ele>509.5</ele><time>2026-04-18T10:11:16Z</time></trkpt><trkpt lat="43.431900249842414" lon="10.943713574038304"><ele>508.75</ele><time>2026-04-18T10:11:17Z</time></trkpt><trkpt lat="43.43190277152694" lon="10.943893672547057"><ele>508.0</ele><time>2026-04-18T10:11:18Z</time></trkpt><trkpt lat="43.43191823581896" lon="10.944049949049019"><ele>508.0</ele><time>2026-04-18T10:11:19Z</time></trkpt><trkpt lat="43.43195722290031" lon="10.944179630086238"><ele>507.99999999999994</ele><time>2026-04-18T10:11:20Z</time></trkpt><trkpt lat="43.43199279224247" lon="10.944308125121617"><ele>507.99999999999994</ele><time>2026-04-18T10:11:21Z</time></trkpt><trkpt lat="43.432031391360816" lon="10.944433912253293"><ele>508.0</ele><time>2026-04-18T10:11:22Z</time></trkpt><trkpt lat="43.43211301614894" lon="10.944526162479722"><ele>508.0</ele><time>2026-04-18T10:11:23Z</time></trkpt><trkpt lat="43.43221321493248" lon="10.944558837332334"><ele>508.75</ele><time>2026-04-18T10:11:24Z</time></trkpt><trkpt lat="43.432322786109964" lon="10.944565059578279"><ele>509.5</ele><time>2026-04-18T10:11:25Z</time></trkpt><trkpt lat="43.43244727136542" lon="10.94456379650339"><ele>510.25</ele><time>2026-04-18T10:11:26Z</time></trkpt><trkpt lat="43.432600055076485" lon="10.944538458067285"><ele>511.0</ele><time>2026-04-18T10:11:27Z</time></trkpt><trkpt lat="43.432761427572274" lon="10.944497817194698"><ele>511.0</ele><time>2026-04-18T10:11:28Z</time></trkpt><trkpt lat="43.4329208725258" lon="10.944435965983464"><ele>511.0</ele><time>2026-04-18T10:11:29Z</time></trkpt><trkpt lat="43.43306766812062" lon="10.944411281591792"><ele>511.0</ele><time>2026-04-18T10:11:30Z</time></trkpt><trkpt lat="43.43318502958941" lon="10.944384560604796"><ele>511.0</ele><time>2026-04-18T10:11:31Z</time></trkpt><trkpt lat="43.433288892228376" lon="10.94435817043996"><ele>512.2</ele><time>2026-04-18T10:11:32Z</time></trkpt><trkpt lat="43.433385228588165" lon="10.944345240126585"><ele>513.4000000000001</ele><time>2026-04-18T10:11:33Z</time></trkpt><trkpt lat="43.43347614219289" lon="10.944397219592952"><ele>514.6</ele><time>2026-04-18T10:11:34Z</time></trkpt><trkpt lat="43.433565334208" lon="10.944455411165817"><ele>515.8000000000001</ele><time>2026-04-18T10:11:35Z</time></trkpt><trkpt lat="43.433664760269096" lon="10.944528353935912"><ele>517.0</ele><time>2026-04-18T10:11:36Z</time></trkpt><trkpt lat="43.43377833414904" lon="10.944625745087299"><ele>519.75</ele><time>2026-04-18T10:11:37Z</time></trkpt><trkpt lat="43.43390626943827" lon="10.944733533274945"><ele>522.5</ele><time>2026-04-18T10:11:38Z</time></trkpt><trkpt lat="43.434039526290036" lon="10.944815598046059"><ele>525.25</ele><time>2026-04-18T10:11:39Z</time></trkpt><trkpt lat="43.43416239799332" lon="10.944861360403685"><ele>528.0</ele><time>2026-04-18T10:11:40Z</time></trkpt><trkpt lat="43.434296508576004" lon="10.944908979698313"><ele>528.0</ele><time>2026-04-18T10:11:41Z</time></trkpt><trkpt lat="43.43443093087366" lon="10.944943757912336"><ele>528.0</ele><time>2026-04-18T10:11:42Z</time></trkpt><trkpt lat="43.43456112281968" lon="10.944971237185053"><ele>528.0</ele><time>2026-04-18T10:11:43Z</time></trkpt><trkpt lat="43.43468554395994" lon="10.944989244064114"><ele>528.0</ele><time>2026-04-18T10:11:44Z</time></trkpt><trkpt lat="43.43477002055229" lon="10.94505894935002"><ele>531.0</ele><time>2026-04-18T10:11:45Z</time></trkpt><trkpt lat="43.43480396189313" lon="10.945183683003608"><ele>534.0</ele><time>2026-04-18T10:11:47Z</time></trkpt><trkpt lat="43.4348438066774" lon="10.945325072424884"><ele>537.0</ele><time>2026-04-18T10:11:49Z</time></trkpt><trkpt lat="43.43488090374926" lon="10.945428106297923"><ele>540.0</ele><time>2026-04-18T10:11:50Z</time></trkpt><trkpt lat="43.43491868694784" lon="10.945536006717651"><ele>543.0</ele><time>2026-04-18T10:11:51Z</time></trkpt><trkpt lat="43.43498674449394" lon="10.945655632297779"><ele>543.0</ele><time>2026-04-18T10:11:52Z</time></trkpt><trkpt lat="43.43507216264957" lon="10.945754742956185"><ele>543.0</ele><time>2026-04-18T10:11:53Z</time></trkpt><trkpt lat="43.4351538118911" lon="10.945859330205389"><ele>543.0</ele><time>2026-04-18T10:11:54Z</time></trkpt><trkpt lat="43.435247247409436" lon="10.945959983662215"><ele>543.0</ele><time>2026-04-18T10:11:55Z</time></trkpt><trkpt lat="43.435331124443614" lon="10.946044683495794"><ele>543.0</ele><time>2026-04-18T10:11:56Z</time></trkpt><trkpt lat="43.435400317219795" lon="10.946146810599469"><ele>545.0</ele><time>2026-04-18T10:11:57Z</time></trkpt><trkpt lat="43.43549889638714" lon="10.94623733458967"><ele>547.0</ele><time>2026-04-18T10:11:58Z</time></trkpt><trkpt lat="43.435598552009495" lon="10.94632465513639"><ele>549.0</ele><time>2026-04-18T10:11:59Z</time></trkpt><trkpt lat="43.43570304591807" lon="10.946412220598434"><ele>551.0</ele><time>2026-04-18T10:12:00Z</time></trkpt><trkpt lat="43.435794351045836" lon="10.94650270730368"><ele>551.0</ele><time>2026-04-18T10:12:01Z</time></trkpt><trkpt lat="43.43588062835338" lon="10.946589377023452"><ele>551.0</ele><time>2026-04-18T10:12:02Z</time></trkpt><trkpt lat="43.435977074155105" lon="10.946687696925979"><ele>551.0</ele><time>2026-04-18T10:12:03Z</time></trkpt><trkpt lat="43.436063250953886" lon="10.946844712315537"><ele>551.0</ele><time>2026-04-18T10:12:04Z</time></trkpt><trkpt lat="43.43614562733482" lon="10.947028190658758"><ele>553.5</ele><time>2026-04-18T10:12:05Z</time></trkpt><trkpt lat="43.43621876970818" lon="10.947154706836065"><ele>556.0</ele><time>2026-04-18T10:12:06.001Z</time></trkpt><trkpt lat="43.436278254747656" lon="10.947252099559503"><ele>558.5</ele><time>2026-04-18T10:12:07.001Z</time></trkpt><trkpt lat="43.436289633343904" lon="10.94735739106948"><ele>561.0</ele><time>2026-04-18T10:12:08.001Z</time></trkpt><trkpt lat="43.43627365988041" lon="10.94748589565743"><ele>563.5</ele><time>2026-04-18T10:12:10.001Z</time></trkpt><trkpt lat="43.436220336212244" lon="10.947539300518745"><ele>566.0</ele><time>2026-04-18T10:12:11.001Z</time></trkpt><trkpt lat="43.436174744511966" lon="10.947661748409116"><ele>566.0</ele><time>2026-04-18T10:12:12.001Z</time></trkpt><trkpt lat="43.436147743948574" lon="10.947824273799268"><ele>566.0</ele><time>2026-04-18T10:12:13.001Z</time></trkpt><trkpt lat="43.43613520909746" lon="10.947978828480576"><ele>566.0</ele><time>2026-04-18T10:12:14.001Z</time></trkpt><trkpt lat="43.436145197581844" lon="10.948144082921155"><ele>566.0</ele><time>2026-04-18T10:12:15.001Z</time></trkpt><trkpt lat="43.43615822793646" lon="10.948296485090454"><ele>564.75</ele><time>2026-04-18T10:12:16.001Z</time></trkpt><trkpt lat="43.436181339309734" lon="10.948464661602852"><ele>563.5</ele><time>2026-04-18T10:12:17.001Z</time></trkpt><trkpt lat="43.436233724053146" lon="10.948643995324336"><ele>562.25</ele><time>2026-04-18T10:12:18.001Z</time></trkpt><trkpt lat="43.43630825187092" lon="10.948784442415077"><ele>561.0</ele><time>2026-04-18T10:12:19.001Z</time></trkpt><trkpt lat="43.4363672504708" lon="10.94891534369968"><ele>561.0</ele><time>2026-04-18T10:12:20.001Z</time></trkpt><trkpt lat="43.4364189415057" lon="10.949034869511442"><ele>561.0</ele><time>2026-04-18T10:12:21.001Z</time></trkpt><trkpt lat="43.436475847820155" lon="10.949166454648132"><ele>561.0</ele><time>2026-04-18T10:12:22.001Z</time></trkpt><trkpt lat="43.436536718163644" lon="10.949307199353928"><ele>561.0</ele><time>2026-04-18T10:12:23.001Z</time></trkpt><trkpt lat="43.43663660058623" lon="10.94943909348092"><ele>560.75</ele><time>2026-04-18T10:12:24.001Z</time></trkpt><trkpt lat="43.4367369339703" lon="10.949557131798608"><ele>560.5</ele><time>2026-04-18T10:12:25.001Z</time></trkpt><trkpt lat="43.43684040415215" lon="10.949638094198837"><ele>560.25</ele><time>2026-04-18T10:12:26.001Z</time></trkpt><trkpt lat="43.436955491578786" lon="10.949688285900933"><ele>560.0</ele><time>2026-04-18T10:12:27.001Z</time></trkpt><trkpt lat="43.43706705248544" lon="10.949722632332515"><ele>561.0</ele><time>2026-04-18T10:12:28.001Z</time></trkpt><trkpt lat="43.437198987340544" lon="10.949750497672907"><ele>562.0</ele><time>2026-04-18T10:12:29.001Z</time></trkpt><trkpt lat="43.43734095470553" lon="10.949748439291477"><ele>563.0</ele><time>2026-04-18T10:12:30.001Z</time></trkpt><trkpt lat="43.437477215279046" lon="10.949800439078336"><ele>564.0</ele><time>2026-04-18T10:12:31.001Z</time></trkpt><trkpt lat="43.43760865662263" lon="10.949853852439125"><ele>564.0</ele><time>2026-04-18T10:12:32.001Z</time></trkpt><trkpt lat="43.437725399606464" lon="10.949926890380391"><ele>564.0</ele><time>2026-04-18T10:12:33.001Z</time></trkpt><trkpt lat="43.437827180848785" lon="10.950010371002907"><ele>564.0</ele><time>2026-04-18T10:12:34.001Z</time></trkpt><trkpt lat="43.437943965259755" lon="10.950104523034625"><ele>564.0</ele><time>2026-04-18T10:12:35.001Z</time></trkpt><trkpt lat="43.43807025745517" lon="10.950243115614695"><ele>564.3333333333334</ele><time>2026-04-18T10:12:36Z</time></trkpt><trkpt lat="43.438209603015764" lon="10.950388659214799"><ele>564.6666666666667</ele><time>2026-04-18T10:12:37Z</time></trkpt><trkpt lat="43.438352403094605" lon="10.950533660034937"><ele>565.0</ele><time>2026-04-18T10:12:38Z</time></trkpt><trkpt lat="43.4384902961589" lon="10.950682567209382"><ele>565.0</ele><time>2026-04-18T10:12:39Z</time></trkpt><trkpt lat="43.43862405548206" lon="10.950852048695438"><ele>565.0</ele><time>2026-04-18T10:12:40Z</time></trkpt><trkpt lat="43.43877745174467" lon="10.950994455734023"><ele>565.0</ele><time>2026-04-18T10:12:41Z</time></trkpt><trkpt lat="43.43893102220904" lon="10.95115697454739"><ele>567.0</ele><time>2026-04-18T10:12:42Z</time></trkpt><trkpt lat="43.43909101335262" lon="10.95131718959435"><ele>569.0</ele><time>2026-04-18T10:12:43Z</time></trkpt><trkpt lat="43.43926171208692" lon="10.951496592849603"><ele>571.0</ele><time>2026-04-18T10:12:44Z</time></trkpt><trkpt lat="43.43944103357876" lon="10.95168109861001"><ele>570.0</ele><time>2026-04-18T10:12:45Z</time></trkpt><trkpt lat="43.439596373654894" lon="10.951854880779758"><ele>569.0</ele><time>2026-04-18T10:12:46Z</time></trkpt><trkpt lat="43.43973678980155" lon="10.95200840236951"><ele>568.0</ele><time>2026-04-18T10:12:47Z</time></trkpt><trkpt lat="43.439871423473804" lon="10.952144457425883"><ele>572.0</ele><time>2026-04-18T10:12:48Z</time></trkpt><trkpt lat="43.4400092841071" lon="10.952289971795715"><ele>576.0</ele><time>2026-04-18T10:12:49Z</time></trkpt><trkpt lat="43.44014452059808" lon="10.952437988719893"><ele>580.0</ele><time>2026-04-18T10:12:50Z</time></trkpt><trkpt lat="43.44027314708756" lon="10.952578429778956"><ele>580.0</ele><time>2026-04-18T10:12:51Z</time></trkpt><trkpt lat="43.440390887530185" lon="10.952705168973257"><ele>580.0</ele><time>2026-04-18T10:12:52Z</time></trkpt><trkpt lat="43.44049511383032" lon="10.952816283125088"><ele>580.0</ele><time>2026-04-18T10:12:53Z</time></trkpt><trkpt lat="43.44059621438693" lon="10.952922372807743"><ele>580.0</ele><time>2026-04-18T10:12:54Z</time></trkpt><trkpt lat="43.440698397669465" lon="10.95300624122859"><ele>582.0</ele><time>2026-04-18T10:12:55Z</time></trkpt><trkpt lat="43.4407916348904" lon="10.953079759205167"><ele>584.0</ele><time>2026-04-18T10:12:56Z</time></trkpt><trkpt lat="43.44086391322059" lon="10.953146511882847"><ele>586.0</ele><time>2026-04-18T10:12:57Z</time></trkpt><trkpt lat="43.440933027791594" lon="10.953178968509903"><ele>588.0</ele><time>2026-04-18T10:12:58Z</time></trkpt><trkpt lat="43.441019643131575" lon="10.953180908226718"><ele>590.0</ele><time>2026-04-18T10:12:59Z</time></trkpt><trkpt lat="43.44110011752339" lon="10.953126608246537"><ele>592.0</ele><time>2026-04-18T10:13:00Z</time></trkpt><trkpt lat="43.44116511857725" lon="10.953054188609201"><ele>592.0</ele><time>2026-04-18T10:13:01Z</time></trkpt><trkpt lat="43.44120709493517" lon="10.952954056002577"><ele>592.0</ele><time>2026-04-18T10:13:02Z</time></trkpt><trkpt lat="43.44122567365502" lon="10.952824506831535"><ele>592.0</ele><time>2026-04-18T10:13:03Z</time></trkpt><trkpt lat="43.441225262919595" lon="10.952678134377777"><ele>592.0</ele><time>2026-04-18T10:13:04Z</time></trkpt><trkpt lat="43.44123844179196" lon="10.952542912048225"><ele>592.0</ele><time>2026-04-18T10:13:05Z</time></trkpt><trkpt lat="43.4412746498059" lon="10.952460853424965"><ele>593.5</ele><time>2026-04-18T10:13:06Z</time></trkpt><trkpt lat="43.441348533869956" lon="10.95243718263276"><ele>595.0</ele><time>2026-04-18T10:13:07Z</time></trkpt><trkpt lat="43.4414132751599" lon="10.952397453274234"><ele>596.5</ele><time>2026-04-18T10:13:08Z</time></trkpt><trkpt lat="43.441499817299295" lon="10.952431648769398"><ele>598.0</ele><time>2026-04-18T10:13:09Z</time></trkpt><trkpt lat="43.44158152613491" lon="10.95245861055622"><ele>599.5</ele><time>2026-04-18T10:13:10Z</time></trkpt><trkpt lat="43.44167120296262" lon="10.952484605052902"><ele>601.0</ele><time>2026-04-18T10:13:11Z</time></trkpt><trkpt lat="43.441719751313705" lon="10.952540476086222"><ele>601.6</ele><time>2026-04-18T10:13:12Z</time></trkpt><trkpt lat="43.44168946791597" lon="10.95266381052539"><ele>602.2</ele><time>2026-04-18T10:13:15Z</time></trkpt><trkpt lat="43.441648607534454" lon="10.952816426615474"><ele>602.8</ele><time>2026-04-18T10:13:17Z</time></trkpt><trkpt lat="43.441652368549846" lon="10.952920588421007"><ele>603.4</ele><time>2026-04-18T10:13:18Z</time></trkpt><trkpt lat="43.44166308547253" lon="10.953043714165352"><ele>604.0</ele><time>2026-04-18T10:13:19Z</time></trkpt><trkpt lat="43.441672226697904" lon="10.953194830406956"><ele>604.0</ele><time>2026-04-18T10:13:20Z</time></trkpt><trkpt lat="43.44168124022307" lon="10.953359201939657"><ele>604.0</ele><time>2026-04-18T10:13:21Z</time></trkpt><trkpt lat="43.441695661281365" lon="10.953545046111644"><ele>604.0</ele><time>2026-04-18T10:13:22Z</time></trkpt><trkpt lat="43.44170757301994" lon="10.953730172514367"><ele>604.0</ele><time>2026-04-18T10:13:23Z</time></trkpt><trkpt lat="43.44171709552571" lon="10.953910138487919"><ele>604.0</ele><time>2026-04-18T10:13:24Z</time></trkpt><trkpt lat="43.44172631356867" lon="10.954101130274124"><ele>604.0</ele><time>2026-04-18T10:13:25Z</time></trkpt><trkpt lat="43.44172143647079" lon="10.954299277058634"><ele>604.0</ele><time>2026-04-18T10:13:26Z</time></trkpt><trkpt lat="43.44170226689911" lon="10.954503664747065"><ele>604.0</ele><time>2026-04-18T10:13:27Z</time></trkpt><trkpt lat="43.44167181716029" lon="10.954708220896723"><ele>603.6666666666667</ele><time>2026-04-18T10:13:28Z</time></trkpt><trkpt lat="43.44163966639975" lon="10.954919079076559"><ele>603.3333333333334</ele><time>2026-04-18T10:13:29Z</time></trkpt><trkpt lat="43.44160343804463" lon="10.955123587773269"><ele>603.0</ele><time>2026-04-18T10:13:30Z</time></trkpt><trkpt lat="43.44156098214679" lon="10.955321638264314"><ele>602.5</ele><time>2026-04-18T10:13:31Z</time></trkpt><trkpt lat="43.44151748691071" lon="10.955503214223834"><ele>602.0</ele><time>2026-04-18T10:13:32Z</time></trkpt><trkpt lat="43.441472175594235" lon="10.955664447503903"><ele>601.5</ele><time>2026-04-18T10:13:33Z</time></trkpt><trkpt lat="43.44142095620385" lon="10.955827494708949"><ele>601.0</ele><time>2026-04-18T10:13:34Z</time></trkpt><trkpt lat="43.4413645186311" lon="10.95597409129721"><ele>600.6</ele><time>2026-04-18T10:13:35Z</time></trkpt><trkpt lat="43.44130370597573" lon="10.956104030368296"><ele>600.2</ele><time>2026-04-18T10:13:36Z</time></trkpt><trkpt lat="43.44123936832089" lon="10.956222034718989"><ele>599.8</ele><time>2026-04-18T10:13:37Z</time></trkpt><trkpt lat="43.44117659889422" lon="10.956325031854032"><ele>599.4</ele><time>2026-04-18T10:13:38Z</time></trkpt><trkpt lat="43.441114608980776" lon="10.956422453408925"><ele>599.0</ele><time>2026-04-18T10:13:39Z</time></trkpt><trkpt lat="43.441053522223704" lon="10.956519596698689"><ele>599.0</ele><time>2026-04-18T10:13:40Z</time></trkpt><trkpt lat="43.44099517176943" lon="10.956610682928895"><ele>599.0</ele><time>2026-04-18T10:13:41Z</time></trkpt><trkpt lat="43.44092544842528" lon="10.956713822752178"><ele>599.0</ele><time>2026-04-18T10:13:42Z</time></trkpt><trkpt lat="43.44084604347403" lon="10.95683557559055"><ele>599.0</ele><time>2026-04-18T10:13:43Z</time></trkpt><trkpt lat="43.44075518018988" lon="10.956981855797698"><ele>599.0</ele><time>2026-04-18T10:13:44Z</time></trkpt><trkpt lat="43.44064675800045" lon="10.957150604537349"><ele>598.6666666666666</ele><time>2026-04-18T10:13:45Z</time></trkpt><trkpt lat="43.440526651666374" lon="10.957339989971926"><ele>598.3333333333334</ele><time>2026-04-18T10:13:46Z</time></trkpt><trkpt lat="43.44040007052887" lon="10.957540936655231"><ele>598.0</ele><time>2026-04-18T10:13:47Z</time></trkpt><trkpt lat="43.44027108120222" lon="10.957748613208137"><ele>598.0</ele><time>2026-04-18T10:13:48Z</time></trkpt><trkpt lat="43.4401251272135" lon="10.957989892210238"><ele>598.0</ele><time>2026-04-18T10:13:49Z</time></trkpt><trkpt lat="43.43998138056871" lon="10.958230940430457"><ele>595.0</ele><time>2026-04-18T10:13:50Z</time></trkpt><trkpt lat="43.43983176591177" lon="10.95848522246841"><ele>592.0</ele><time>2026-04-18T10:13:51Z</time></trkpt><trkpt lat="43.439686380588505" lon="10.958732131332232"><ele>591.6666666666667</ele><time>2026-04-18T10:13:52Z</time></trkpt><trkpt lat="43.43954999687095" lon="10.958968183035028"><ele>591.3333333333334</ele><time>2026-04-18T10:13:53Z</time></trkpt><trkpt lat="43.43941494246634" lon="10.959200621412277"><ele>591.0</ele><time>2026-04-18T10:13:54Z</time></trkpt><trkpt lat="43.43926946988961" lon="10.959404710175791"><ele>590.6666666666666</ele><time>2026-04-18T10:13:55Z</time></trkpt><trkpt lat="43.43916155926779" lon="10.959612495276978"><ele>590.3333333333333</ele><time>2026-04-18T10:13:56Z</time></trkpt><trkpt lat="43.43901672077609" lon="10.95976612507279"><ele>590.0</ele><time>2026-04-18T10:13:57Z</time></trkpt><trkpt lat="43.438853642160794" lon="10.959925280989959"><ele>590.5</ele><time>2026-04-18T10:13:58Z</time></trkpt><trkpt lat="43.43866925946075" lon="10.960087006752303"><ele>591.0</ele><time>2026-04-18T10:13:59Z</time></trkpt><trkpt lat="43.438469209401696" lon="10.960279657438459"><ele>591.0</ele><time>2026-04-18T10:14:00Z</time></trkpt><trkpt lat="43.4382626803012" lon="10.960450874787517"><ele>591.0</ele><time>2026-04-18T10:14:01Z</time></trkpt><trkpt lat="43.43807876704157" lon="10.960595513201044"><ele>590.3333333333334</ele><time>2026-04-18T10:14:02Z</time></trkpt><trkpt lat="43.43791102527568" lon="10.960724523672136"><ele>589.6666666666667</ele><time>2026-04-18T10:14:03Z</time></trkpt><trkpt lat="43.437744483730846" lon="10.960842224180933"><ele>589.0</ele><time>2026-04-18T10:14:04Z</time></trkpt><trkpt lat="43.43757823332427" lon="10.960934477332579"><ele>590.3333333333334</ele><time>2026-04-18T10:14:05Z</time></trkpt><trkpt lat="43.43742250777297" lon="10.961014109422402"><ele>591.6666666666666</ele><time>2026-04-18T10:14:06Z</time></trkpt><trkpt lat="43.43727572202072" lon="10.961109642760196"><ele>593.0</ele><time>2026-04-18T10:14:07Z</time></trkpt><trkpt lat="43.43714803961713" lon="10.961231214000767"><ele>590.6666666666666</ele><time>2026-04-18T10:14:08Z</time></trkpt><trkpt lat="43.43703566239553" lon="10.961378838485382"><ele>588.3333333333334</ele><time>2026-04-18T10:14:09Z</time></trkpt><trkpt lat="43.436944257692154" lon="10.961569514890352"><ele>586.0</ele><time>2026-04-18T10:14:10Z</time></trkpt><trkpt lat="43.43687773553559" lon="10.96181108563645"><ele>586.0</ele><time>2026-04-18T10:14:11Z</time></trkpt><trkpt lat="43.436831294264785" lon="10.962085986743707"><ele>586.0</ele><time>2026-04-18T10:14:12Z</time></trkpt><trkpt lat="43.43679089895307" lon="10.962366083097887"><ele>586.0</ele><time>2026-04-18T10:14:13Z</time></trkpt><trkpt lat="43.43672347889215" lon="10.962575326831816"><ele>586.25</ele><time>2026-04-18T10:14:14Z</time></trkpt><trkpt lat="43.43664382235041" lon="10.962753704415675"><ele>586.5</ele><time>2026-04-18T10:14:15Z</time></trkpt><trkpt lat="43.43653970601031" lon="10.962875990999088"><ele>586.75</ele><time>2026-04-18T10:14:16Z</time></trkpt><trkpt lat="43.43643189365977" lon="10.962975580068939"><ele>587.0</ele><time>2026-04-18T10:14:17Z</time></trkpt><trkpt lat="43.436305997621574" lon="10.96308540900302"><ele>586.6666666666666</ele><time>2026-04-18T10:14:18Z</time></trkpt><trkpt lat="43.43617692073001" lon="10.963209375302009"><ele>586.3333333333334</ele><time>2026-04-18T10:14:19Z</time></trkpt><trkpt lat="43.43604159072926" lon="10.963389687627803"><ele>586.0</ele><time>2026-04-18T10:14:20Z</time></trkpt><trkpt lat="43.435928614130724" lon="10.963587230972275"><ele>586.0</ele><time>2026-04-18T10:14:21Z</time></trkpt><trkpt lat="43.43582819061882" lon="10.963791651306778"><ele>586.0</ele><time>2026-04-18T10:14:22Z</time></trkpt><trkpt lat="43.43572952758651" lon="10.964024725351608"><ele>586.0</ele><time>2026-04-18T10:14:23Z</time></trkpt><trkpt lat="43.43567704920243" lon="10.964281205960074"><ele>584.6666666666667</ele><time>2026-04-18T10:14:24Z</time></trkpt><trkpt lat="43.435574822130704" lon="10.96449593506854"><ele>583.3333333333334</ele><time>2026-04-18T10:14:25Z</time></trkpt><trkpt lat="43.435461228563476" lon="10.96470799483602"><ele>582.0</ele><time>2026-04-18T10:14:26Z</time></trkpt><trkpt lat="43.43532532409489" lon="10.96494156512153"><ele>580.0</ele><time>2026-04-18T10:14:27Z</time></trkpt><trkpt lat="43.435213235433665" lon="10.965202406164517"><ele>578.0</ele><time>2026-04-18T10:14:28Z</time></trkpt><trkpt lat="43.435115299700726" lon="10.965422747378947"><ele>576.0</ele><time>2026-04-18T10:14:29Z</time></trkpt><trkpt lat="43.43503231976302" lon="10.96561339973478"><ele>576.0</ele><time>2026-04-18T10:14:30Z</time></trkpt><trkpt lat="43.4349477915089" lon="10.9657888410723"><ele>576.0</ele><time>2026-04-18T10:14:31Z</time></trkpt><trkpt lat="43.434840817464185" lon="10.965951952069082"><ele>576.0</ele><time>2026-04-18T10:14:32.001Z</time></trkpt><trkpt lat="43.43468786325168" lon="10.96611742411832"><ele>573.3333333333334</ele><time>2026-04-18T10:14:33.001Z</time></trkpt><trkpt lat="43.43451995724947" lon="10.966309998026693"><ele>570.6666666666667</ele><time>2026-04-18T10:14:34.001Z</time></trkpt><trkpt lat="43.434394051517614" lon="10.966534312523537"><ele>568.0</ele><time>2026-04-18T10:14:35.001Z</time></trkpt><trkpt lat="43.43429065400321" lon="10.966751166422767"><ele>566.3333333333334</ele><time>2026-04-18T10:14:36.001Z</time></trkpt><trkpt lat="43.43416829591827" lon="10.966940235841825"><ele>564.6666666666666</ele><time>2026-04-18T10:14:37.001Z</time></trkpt><trkpt lat="43.434000950655125" lon="10.967076366115885"><ele>563.0</ele><time>2026-04-18T10:14:38.001Z</time></trkpt><trkpt lat="43.43382911892259" lon="10.96719959027246"><ele>562.3333333333333</ele><time>2026-04-18T10:14:39.001Z</time></trkpt><trkpt lat="43.433636752940004" lon="10.967357089784864"><ele>561.6666666666666</ele><time>2026-04-18T10:14:40.001Z</time></trkpt><trkpt lat="43.43343211444243" lon="10.967487577980748"><ele>561.0</ele><time>2026-04-18T10:14:41.001Z</time></trkpt><trkpt lat="43.433249926593014" lon="10.967608126694884"><ele>560.6666666666666</ele><time>2026-04-18T10:14:42Z</time></trkpt><trkpt lat="43.433093389689404" lon="10.967725959068853"><ele>560.3333333333333</ele><time>2026-04-18T10:14:43Z</time></trkpt><trkpt lat="43.432939488984" lon="10.96778254022141"><ele>560.0</ele><time>2026-04-18T10:14:44Z</time></trkpt><trkpt lat="43.43280002190295" lon="10.967864124185018"><ele>560.0</ele><time>2026-04-18T10:14:45Z</time></trkpt><trkpt lat="43.43266476472336" lon="10.967887892713279"><ele>560.0</ele><time>2026-04-18T10:14:46Z</time></trkpt><trkpt lat="43.432547649173976" lon="10.967951932794577"><ele>560.0</ele><time>2026-04-18T10:14:47Z</time></trkpt><trkpt lat="43.43243214415918" lon="10.968091884894248"><ele>560.0</ele><time>2026-04-18T10:14:48Z</time></trkpt><trkpt lat="43.432322711069595" lon="10.968269438853355"><ele>557.5</ele><time>2026-04-18T10:14:49Z</time></trkpt><trkpt lat="43.43222306743325" lon="10.968402715224386"><ele>555.0</ele><time>2026-04-18T10:14:50Z</time></trkpt><trkpt lat="43.432129159687555" lon="10.96848968802594"><ele>552.5</ele><time>2026-04-18T10:14:51Z</time></trkpt><trkpt lat="43.43202032052436" lon="10.968528621499841"><ele>550.0</ele><time>2026-04-18T10:14:52Z</time></trkpt><trkpt lat="43.4318706457916" lon="10.968503368389547"><ele>550.0</ele><time>2026-04-18T10:14:53Z</time></trkpt><trkpt lat="43.43169780623605" lon="10.968455665093844"><ele>550.0</ele><time>2026-04-18T10:14:54Z</time></trkpt><trkpt lat="43.431513045147895" lon="10.968394185940465"><ele>550.0</ele><time>2026-04-18T10:14:55Z</time></trkpt><trkpt lat="43.43133823098186" lon="10.968319708187208"><ele>549.5</ele><time>2026-04-18T10:14:56Z</time></trkpt><trkpt lat="43.431195004441626" lon="10.968224887992438"><ele>549.0</ele><time>2026-04-18T10:14:57Z</time></trkpt><trkpt lat="43.43106835057769" lon="10.9681455212361"><ele>548.5</ele><time>2026-04-18T10:14:58Z</time></trkpt><trkpt lat="43.430925192305395" lon="10.968109953205392"><ele>548.0</ele><time>2026-04-18T10:14:58.999Z</time></trkpt><trkpt lat="43.430779910612216" lon="10.968084051869123"><ele>548.0</ele><time>2026-04-18T10:14:59.999Z</time></trkpt><trkpt lat="43.43064107501752" lon="10.96807319627941"><ele>548.0</ele><time>2026-04-18T10:15:00.999Z</time></trkpt><trkpt lat="43.43050937229353" lon="10.968112078652991"><ele>548.0</ele><time>2026-04-18T10:15:01.999Z</time></trkpt><trkpt lat="43.43036175158669" lon="10.968190118697043"><ele>548.0</ele><time>2026-04-18T10:15:02.999Z</time></trkpt><trkpt lat="43.43021687803719" lon="10.968334236515059"><ele>544.6666666666666</ele><time>2026-04-18T10:15:03.999Z</time></trkpt><trkpt lat="43.43007251449518" lon="10.968513784125175"><ele>541.3333333333334</ele><time>2026-04-18T10:15:04.999Z</time></trkpt><trkpt lat="43.429935054211334" lon="10.96864633864501"><ele>538.0</ele><time>2026-04-18T10:15:05.999Z</time></trkpt><trkpt lat="43.42979500006453" lon="10.968801440408065"><ele>538.0</ele><time>2026-04-18T10:15:06.999Z</time></trkpt><trkpt lat="43.42966939641672" lon="10.968999592720316"><ele>538.0</ele><time>2026-04-18T10:15:07.999Z</time></trkpt><trkpt lat="43.42957204096412" lon="10.969230899538871"><ele>538.0</ele><time>2026-04-18T10:15:08.999Z</time></trkpt><trkpt lat="43.42946394661089" lon="10.969463250896403"><ele>536.0</ele><time>2026-04-18T10:15:09.999Z</time></trkpt><trkpt lat="43.42934933515984" lon="10.969660962438445"><ele>534.0</ele><time>2026-04-18T10:15:10.999Z</time></trkpt><trkpt lat="43.42925402732034" lon="10.969855337369006"><ele>532.0</ele><time>2026-04-18T10:15:11.999Z</time></trkpt><trkpt lat="43.42916322371067" lon="10.970032699933896"><ele>532.0</ele><time>2026-04-18T10:15:12.999Z</time></trkpt><trkpt lat="43.429050599295536" lon="10.970149722973115"><ele>532.0</ele><time>2026-04-18T10:15:13.999Z</time></trkpt><trkpt lat="43.428905097503026" lon="10.970224346402143"><ele>532.0</ele><time>2026-04-18T10:15:14.999Z</time></trkpt><trkpt lat="43.428731791529295" lon="10.970268929753704"><ele>530.75</ele><time>2026-04-18T10:15:15.999Z</time></trkpt><trkpt lat="43.428554197239485" lon="10.970305181420466"><ele>529.5</ele><time>2026-04-18T10:15:16.999Z</time></trkpt><trkpt lat="43.42840790261149" lon="10.970333769566029"><ele>528.25</ele><time>2026-04-18T10:15:17.999Z</time></trkpt><trkpt lat="43.42829059013883" lon="10.970364226654436"><ele>527.0</ele><time>2026-04-18T10:15:18.999Z</time></trkpt><trkpt lat="43.42818332854773" lon="10.97041114725408"><ele>527.0</ele><time>2026-04-18T10:15:19.999Z</time></trkpt><trkpt lat="43.42810511967679" lon="10.970496132252288"><ele>527.0</ele><time>2026-04-18T10:15:20.999Z</time></trkpt><trkpt lat="43.42807008970467" lon="10.970617940334723"><ele>527.0</ele><time>2026-04-18T10:15:21.999Z</time></trkpt><trkpt lat="43.428068493434886" lon="10.970784593353173"><ele>527.0</ele><time>2026-04-18T10:15:22.999Z</time></trkpt><trkpt lat="43.42806305379755" lon="10.970992418358337"><ele>526.0</ele><time>2026-04-18T10:15:23.999Z</time></trkpt><trkpt lat="43.42807380582274" lon="10.971226218394937"><ele>525.0</ele><time>2026-04-18T10:15:24.999Z</time></trkpt><trkpt lat="43.428079234635334" lon="10.97145564822501"><ele>524.0</ele><time>2026-04-18T10:15:25.999Z</time></trkpt><trkpt lat="43.42806079024938" lon="10.971647985727225"><ele>523.6666666666666</ele><time>2026-04-18T10:15:26.999Z</time></trkpt><trkpt lat="43.42799318493486" lon="10.971823124917234"><ele>523.3333333333334</ele><time>2026-04-18T10:15:27.999Z</time></trkpt><trkpt lat="43.427889704262206" lon="10.972011684426805"><ele>523.0</ele><time>2026-04-18T10:15:28.999Z</time></trkpt><trkpt lat="43.4277874284392" lon="10.972246063752479"><ele>519.6666666666667</ele><time>2026-04-18T10:15:29.999Z</time></trkpt><trkpt lat="43.42765022602105" lon="10.972466065984428"><ele>516.3333333333334</ele><time>2026-04-18T10:15:30.999Z</time></trkpt><trkpt lat="43.42748835667317" lon="10.972670625161948"><ele>513.0</ele><time>2026-04-18T10:15:31.999Z</time></trkpt><trkpt lat="43.427329533601124" lon="10.972892382860392"><ele>512.6666666666666</ele><time>2026-04-18T10:15:32.999Z</time></trkpt><trkpt lat="43.42717926038839" lon="10.973118641691547"><ele>512.3333333333333</ele><time>2026-04-18T10:15:33.999Z</time></trkpt><trkpt lat="43.42702424370479" lon="10.973315810173908"><ele>512.0</ele><time>2026-04-18T10:15:34.999Z</time></trkpt><trkpt lat="43.42686630832216" lon="10.9734619982886"><ele>511.3333333333333</ele><time>2026-04-18T10:15:35.999Z</time></trkpt><trkpt lat="43.42672550242812" lon="10.973579990384806"><ele>510.66666666666663</ele><time>2026-04-18T10:15:36.999Z</time></trkpt><trkpt lat="43.42656288046356" lon="10.973667565189189"><ele>510.0</ele><time>2026-04-18T10:15:37.999Z</time></trkpt><trkpt lat="43.42637890407223" lon="10.973722947114087"><ele>509.5</ele><time>2026-04-18T10:15:38.999Z</time></trkpt><trkpt lat="43.42621462735327" lon="10.973747876068508"><ele>509.0</ele><time>2026-04-18T10:15:39.999Z</time></trkpt><trkpt lat="43.42607588602241" lon="10.973738896902914"><ele>508.5</ele><time>2026-04-18T10:15:40.999Z</time></trkpt><trkpt lat="43.42595413196528" lon="10.973703106408895"><ele>508.0</ele><time>2026-04-18T10:15:41.999Z</time></trkpt><trkpt lat="43.42586522101319" lon="10.973549154964033"><ele>508.0</ele><time>2026-04-18T10:15:42.999Z</time></trkpt><trkpt lat="43.4257584156313" lon="10.973418513785195"><ele>508.0</ele><time>2026-04-18T10:15:43.999Z</time></trkpt><trkpt lat="43.42564531453036" lon="10.973312822642516"><ele>508.0</ele><time>2026-04-18T10:15:44.999Z</time></trkpt><trkpt lat="43.425513747791754" lon="10.973250145871548"><ele>508.0</ele><time>2026-04-18T10:15:45.999Z</time></trkpt><trkpt lat="43.42537971075488" lon="10.973231231319282"><ele>505.5</ele><time>2026-04-18T10:15:46.999Z</time></trkpt><trkpt lat="43.425264165262085" lon="10.973255037598946"><ele>503.0</ele><time>2026-04-18T10:15:47.999Z</time></trkpt><trkpt lat="43.4251619215548" lon="10.973327798081932"><ele>500.5</ele><time>2026-04-18T10:15:48.999Z</time></trkpt><trkpt lat="43.42508352030487" lon="10.973447469421222"><ele>498.0</ele><time>2026-04-18T10:15:49.999Z</time></trkpt><trkpt lat="43.4250426914185" lon="10.973618108045038"><ele>498.0</ele><time>2026-04-18T10:15:50.999Z</time></trkpt><trkpt lat="43.42503075010862" lon="10.97383910218611"><ele>498.0</ele><time>2026-04-18T10:15:51.999Z</time></trkpt><trkpt lat="43.425023751268945" lon="10.974081357326945"><ele>498.0</ele><time>2026-04-18T10:15:52.999Z</time></trkpt><trkpt lat="43.424985511878546" lon="10.974311858118968"><ele>496.66666666666663</ele><time>2026-04-18T10:15:53.999Z</time></trkpt><trkpt lat="43.4248872508576" lon="10.974525169944997"><ele>495.3333333333333</ele><time>2026-04-18T10:15:54.999Z</time></trkpt><trkpt lat="43.42480856409764" lon="10.974776152712241"><ele>494.0</ele><time>2026-04-18T10:15:55.999Z</time></trkpt><trkpt lat="43.42470313246441" lon="10.974967288547381"><ele>493.66666666666663</ele><time>2026-04-18T10:15:56.999Z</time></trkpt><trkpt lat="43.424611203880495" lon="10.975115372280928"><ele>493.33333333333337</ele><time>2026-04-18T10:15:57.999Z</time></trkpt><trkpt lat="43.424501086135294" lon="10.975222766903746"><ele>493.0</ele><time>2026-04-18T10:15:58.999Z</time></trkpt><trkpt lat="43.4243420402195" lon="10.975322047406198"><ele>493.0</ele><time>2026-04-18T10:15:59.999Z</time></trkpt><trkpt lat="43.424143289720995" lon="10.975401715038469"><ele>493.0</ele><time>2026-04-18T10:16:00.999Z</time></trkpt><trkpt lat="43.42393672362796" lon="10.975495129708417"><ele>493.0</ele><time>2026-04-18T10:16:01.999Z</time></trkpt><trkpt lat="43.4237473988712" lon="10.975592914788958"><ele>493.33333333333337</ele><time>2026-04-18T10:16:02.999Z</time></trkpt><trkpt lat="43.42357859077952" lon="10.975705022409523"><ele>493.66666666666663</ele><time>2026-04-18T10:16:03.999Z</time></trkpt><trkpt lat="43.42341006369725" lon="10.975848837620713"><ele>494.0</ele><time>2026-04-18T10:16:04.999Z</time></trkpt><trkpt lat="43.42323051266204" lon="10.97600795345291"><ele>494.66666666666663</ele><time>2026-04-18T10:16:05.999Z</time></trkpt><trkpt lat="43.423039582463225" lon="10.976147566327914"><ele>495.33333333333337</ele><time>2026-04-18T10:16:06.999Z</time></trkpt><trkpt lat="43.42286277110498" lon="10.976236023028346"><ele>496.0</ele><time>2026-04-18T10:16:07.999Z</time></trkpt><trkpt lat="43.42270753412386" lon="10.976260473803599"><ele>496.0</ele><time>2026-04-18T10:16:08.999Z</time></trkpt><trkpt lat="43.42255048179666" lon="10.976273838549208"><ele>496.0</ele><time>2026-04-18T10:16:09.999Z</time></trkpt><trkpt lat="43.42240279370745" lon="10.976208800779165"><ele>496.0</ele><time>2026-04-18T10:16:10.999Z</time></trkpt><trkpt lat="43.42226801836746" lon="10.976085516772846"><ele>496.0</ele><time>2026-04-18T10:16:11.999Z</time></trkpt><trkpt lat="43.4221497662341" lon="10.97594392896091"><ele>496.0</ele><time>2026-04-18T10:16:12.999Z</time></trkpt><trkpt lat="43.422050319677574" lon="10.975825226005535"><ele>496.0</ele><time>2026-04-18T10:16:13.999Z</time></trkpt><trkpt lat="43.42194613042798" lon="10.975756092890718"><ele>496.0</ele><time>2026-04-18T10:16:14.999Z</time></trkpt><trkpt lat="43.42182664864875" lon="10.975743078117894"><ele>499.6666666666667</ele><time>2026-04-18T10:16:15.999Z</time></trkpt><trkpt lat="43.42168191399092" lon="10.97579223327905"><ele>503.33333333333337</ele><time>2026-04-18T10:16:16.999Z</time></trkpt><trkpt lat="43.42152426757166" lon="10.975854097943078"><ele>507.0</ele><time>2026-04-18T10:16:17.999Z</time></trkpt><trkpt lat="43.42134674352765" lon="10.975890397494288"><ele>508.66666666666663</ele><time>2026-04-18T10:16:18.999Z</time></trkpt><trkpt lat="43.42117549701643" lon="10.975881591852765"><ele>510.3333333333333</ele><time>2026-04-18T10:16:19.999Z</time></trkpt><trkpt lat="43.42100849990957" lon="10.975837015696015"><ele>512.0</ele><time>2026-04-18T10:16:20.999Z</time></trkpt><trkpt lat="43.42084841867115" lon="10.975785304002668"><ele>512.0</ele><time>2026-04-18T10:16:21.999Z</time></trkpt><trkpt lat="43.42068192872267" lon="10.975720502305567"><ele>512.0</ele><time>2026-04-18T10:16:22.999Z</time></trkpt><trkpt lat="43.42051769895279" lon="10.975705552317494"><ele>512.0</ele><time>2026-04-18T10:16:23.999Z</time></trkpt><trkpt lat="43.420361094219274" lon="10.975715349049453"><ele>513.6666666666666</ele><time>2026-04-18T10:16:24.999Z</time></trkpt><trkpt lat="43.42020129729154" lon="10.975714552965915"><ele>515.3333333333334</ele><time>2026-04-18T10:16:25.999Z</time></trkpt><trkpt lat="43.42004027058755" lon="10.97574518287104"><ele>517.0</ele><time>2026-04-18T10:16:26.999Z</time></trkpt><trkpt lat="43.419865653287445" lon="10.97579645390271"><ele>517.6666666666667</ele><time>2026-04-18T10:16:27.999Z</time></trkpt><trkpt lat="43.41969097533949" lon="10.975880446819177"><ele>518.3333333333334</ele><time>2026-04-18T10:16:28.999Z</time></trkpt><trkpt lat="43.41950799637228" lon="10.975971125449146"><ele>519.0</ele><time>2026-04-18T10:16:29.999Z</time></trkpt><trkpt lat="43.41931398084554" lon="10.97606810517572"><ele>519.0</ele><time>2026-04-18T10:16:30.999Z</time></trkpt><trkpt lat="43.41912750214615" lon="10.97616126113723"><ele>519.0</ele><time>2026-04-18T10:16:31.999Z</time></trkpt><trkpt lat="43.41898476522476" lon="10.976236883268166"><ele>519.0</ele><time>2026-04-18T10:16:32.999Z</time></trkpt><trkpt lat="43.418851162619774" lon="10.976285264139987"><ele>520.25</ele><time>2026-04-18T10:16:33.999Z</time></trkpt><trkpt lat="43.41873202107253" lon="10.976277775658186"><ele>521.5</ele><time>2026-04-18T10:16:34.999Z</time></trkpt><trkpt lat="43.41863386686784" lon="10.976172363410832"><ele>522.75</ele><time>2026-04-18T10:16:35.999Z</time></trkpt><trkpt lat="43.41853476085065" lon="10.976057442776197"><ele>524.0</ele><time>2026-04-18T10:16:36.999Z</time></trkpt><trkpt lat="43.41842170935638" lon="10.975985291130456"><ele>524.0</ele><time>2026-04-18T10:16:37.999Z</time></trkpt><trkpt lat="43.4182704412382" lon="10.97599277725427"><ele>524.0</ele><time>2026-04-18T10:16:38.999Z</time></trkpt><trkpt lat="43.41809872017815" lon="10.976005673851938"><ele>524.0</ele><time>2026-04-18T10:16:39.999Z</time></trkpt><trkpt lat="43.41789359921505" lon="10.976075391974657"><ele>525.0</ele><time>2026-04-18T10:16:40.999Z</time></trkpt><trkpt lat="43.417740946553415" lon="10.976094177154112"><ele>526.0</ele><time>2026-04-18T10:16:41.999Z</time></trkpt><trkpt lat="43.41759623095089" lon="10.97609818864368"><ele>527.0</ele><time>2026-04-18T10:16:42.999Z</time></trkpt><trkpt lat="43.417446315992194" lon="10.976184245654625"><ele>527.0</ele><time>2026-04-18T10:16:43.999Z</time></trkpt><trkpt lat="43.417322167646766" lon="10.976309262949416"><ele>527.0</ele><time>2026-04-18T10:16:44.999Z</time></trkpt><trkpt lat="43.417221315072666" lon="10.976370919007206"><ele>527.0</ele><time>2026-04-18T10:16:45.999Z</time></trkpt><trkpt lat="43.41711563149808" lon="10.976369302991156"><ele>527.0</ele><time>2026-04-18T10:16:46.999Z</time></trkpt><trkpt lat="43.417006962089246" lon="10.976310155472513"><ele>526.0</ele><time>2026-04-18T10:16:47.999Z</time></trkpt><trkpt lat="43.41674560740852" lon="10.976250732886667"><ele>525.0</ele><time>2026-04-18T10:16:48.999Z</time></trkpt><trkpt lat="43.416595372810505" lon="10.976252051688821"><ele>524.0</ele><time>2026-04-18T10:16:49.999Z</time></trkpt><trkpt lat="43.41645580950724" lon="10.976296914980743"><ele>524.0</ele><time>2026-04-18T10:16:50.999Z</time></trkpt><trkpt lat="43.416336589218666" lon="10.97638561877012"><ele>524.0</ele><time>2026-04-18T10:16:51.999Z</time></trkpt><trkpt lat="43.416241064932585" lon="10.976527454136546"><ele>524.0</ele><time>2026-04-18T10:16:52.999Z</time></trkpt><trkpt lat="43.416174910976316" lon="10.976718791327517"><ele>524.0</ele><time>2026-04-18T10:16:53.999Z</time></trkpt><trkpt lat="43.41612209467171" lon="10.976954824916282"><ele>525.0</ele><time>2026-04-18T10:16:54.999Z</time></trkpt><trkpt lat="43.41605278174402" lon="10.977197227498953"><ele>526.0</ele><time>2026-04-18T10:16:55.999Z</time></trkpt><trkpt lat="43.41597738326297" lon="10.977392830392583"><ele>527.0</ele><time>2026-04-18T10:16:56.999Z</time></trkpt><trkpt lat="43.41587718532708" lon="10.97749070635962"><ele>527.0</ele><time>2026-04-18T10:16:57.999Z</time></trkpt><trkpt lat="43.415776671743444" lon="10.97749012497419"><ele>527.0</ele><time>2026-04-18T10:16:58.999Z</time></trkpt><trkpt lat="43.4156638223365" lon="10.97747835828006"><ele>527.0</ele><time>2026-04-18T10:16:59.999Z</time></trkpt><trkpt lat="43.415570715768055" lon="10.977476793383678"><ele>527.0</ele><time>2026-04-18T10:17:00.999Z</time></trkpt><trkpt lat="43.4154889266386" lon="10.977488393655205"><ele>527.0</ele><time>2026-04-18T10:17:01.999Z</time></trkpt><trkpt lat="43.415409188654884" lon="10.977459065005688"><ele>527.8333333333333</ele><time>2026-04-18T10:17:02.999Z</time></trkpt><trkpt lat="43.41534550052052" lon="10.977455153833452"><ele>528.6666666666666</ele><time>2026-04-18T10:17:03.999Z</time></trkpt><trkpt lat="43.415280099246495" lon="10.977384274113085"><ele>529.5</ele><time>2026-04-18T10:17:04.999Z</time></trkpt><trkpt lat="43.41520884316886" lon="10.977309505347595"><ele>530.3333333333334</ele><time>2026-04-18T10:17:05.999Z</time></trkpt><trkpt lat="43.415134199609476" lon="10.977220331501055"><ele>531.1666666666667</ele><time>2026-04-18T10:17:07Z</time></trkpt><trkpt lat="43.4150620915228" lon="10.97715933915355"><ele>532.0</ele><time>2026-04-18T10:17:08Z</time></trkpt><trkpt lat="43.414985345648546" lon="10.977127426906824"><ele>532.0</ele><time>2026-04-18T10:17:10Z</time></trkpt><trkpt lat="43.415082114236064" lon="10.97717009259079"><ele>532.0</ele><time>2026-04-18T10:17:21Z</time></trkpt><trkpt lat="43.4151381504078" lon="10.977101150248064"><ele>532.0</ele><time>2026-04-18T10:17:22Z</time></trkpt><trkpt lat="43.41523903657885" lon="10.977333981082941"><ele>532.0</ele><time>2026-04-18T10:17:23Z</time></trkpt><trkpt lat="43.41535795268547" lon="10.977469956128486"><ele>530.75</ele><time>2026-04-18T10:17:24Z</time></trkpt><trkpt lat="43.415482573282404" lon="10.977529918032575"><ele>529.5</ele><time>2026-04-18T10:17:25Z</time></trkpt><trkpt lat="43.415650119745166" lon="10.977529677623949"><ele>528.25</ele><time>2026-04-18T10:17:26Z</time></trkpt><trkpt lat="43.41579847643522" lon="10.977519702946358"><ele>527.0</ele><time>2026-04-18T10:17:27Z</time></trkpt><trkpt lat="43.4159109447975" lon="10.977494575101053"><ele>527.0</ele><time>2026-04-18T10:17:28Z</time></trkpt><trkpt lat="43.41601127722247" lon="10.977437325514108"><ele>527.0</ele><time>2026-04-18T10:17:29Z</time></trkpt><trkpt lat="43.416073826641565" lon="10.977328543881148"><ele>527.0</ele><time>2026-04-18T10:17:30Z</time></trkpt><trkpt lat="43.41610694962415" lon="10.977227779505027"><ele>527.0</ele><time>2026-04-18T10:17:31Z</time></trkpt><trkpt lat="43.416132693534784" lon="10.977122906838327"><ele>527.0</ele><time>2026-04-18T10:17:32Z</time></trkpt><trkpt lat="43.416165120097126" lon="10.976987112903618"><ele>527.0</ele><time>2026-04-18T10:17:33Z</time></trkpt><trkpt lat="43.416213885834786" lon="10.976829216127152"><ele>527.0</ele><time>2026-04-18T10:17:34Z</time></trkpt><trkpt lat="43.416264021478156" lon="10.97666282369158"><ele>527.0</ele><time>2026-04-18T10:17:35Z</time></trkpt><trkpt lat="43.416316125893644" lon="10.976528459085563"><ele>527.0</ele><time>2026-04-18T10:17:36Z</time></trkpt><trkpt lat="43.4163893871496" lon="10.976429917498022"><ele>526.25</ele><time>2026-04-18T10:17:37Z</time></trkpt><trkpt lat="43.41647465292221" lon="10.976357278167692"><ele>525.5</ele><time>2026-04-18T10:17:38Z</time></trkpt><trkpt lat="43.416572539946195" lon="10.97630620691495"><ele>524.75</ele><time>2026-04-18T10:17:39Z</time></trkpt><trkpt lat="43.416686652731606" lon="10.9762708031596"><ele>524.0</ele><time>2026-04-18T10:17:40Z</time></trkpt><trkpt lat="43.41681910212219" lon="10.976262184330638"><ele>524.0</ele><time>2026-04-18T10:17:41Z</time></trkpt><trkpt lat="43.41695094882872" lon="10.976323970467826"><ele>524.0</ele><time>2026-04-18T10:17:42Z</time></trkpt><trkpt lat="43.41707573982786" lon="10.97638517486051"><ele>524.0</ele><time>2026-04-18T10:17:43Z</time></trkpt><trkpt lat="43.417195100014446" lon="10.976406787499094"><ele>524.0</ele><time>2026-04-18T10:17:44Z</time></trkpt><trkpt lat="43.41729255303746" lon="10.976402458990991"><ele>524.75</ele><time>2026-04-18T10:17:45Z</time></trkpt><trkpt lat="43.41739630014767" lon="10.976317571858871"><ele>525.5</ele><time>2026-04-18T10:17:46Z</time></trkpt><trkpt lat="43.417499010018716" lon="10.976211976236662"><ele>526.25</ele><time>2026-04-18T10:17:47Z</time></trkpt><trkpt lat="43.41760833521786" lon="10.976124587706575"><ele>527.0</ele><time>2026-04-18T10:17:48Z</time></trkpt><trkpt lat="43.41774654788641" lon="10.976129886632716"><ele>527.0</ele><time>2026-04-18T10:17:49Z</time></trkpt><trkpt lat="43.41790778765112" lon="10.97610455287611"><ele>527.0</ele><time>2026-04-18T10:17:50Z</time></trkpt><trkpt lat="43.418067584218484" lon="10.97605257107339"><ele>527.0</ele><time>2026-04-18T10:17:51Z</time></trkpt><trkpt lat="43.41820867616509" lon="10.976021626278648"><ele>526.25</ele><time>2026-04-18T10:17:52Z</time></trkpt><trkpt lat="43.418329103577705" lon="10.976018328722109"><ele>525.5</ele><time>2026-04-18T10:17:53Z</time></trkpt><trkpt lat="43.418438904550385" lon="10.976076443177293"><ele>524.75</ele><time>2026-04-18T10:17:54Z</time></trkpt><trkpt lat="43.41861348379754" lon="10.976228904135791"><ele>524.0</ele><time>2026-04-18T10:17:56Z</time></trkpt><trkpt lat="43.4186965100695" lon="10.976286152933202"><ele>524.0</ele><time>2026-04-18T10:17:57Z</time></trkpt><trkpt lat="43.41877506756684" lon="10.976339491362507"><ele>524.0</ele><time>2026-04-18T10:17:58Z</time></trkpt><trkpt lat="43.418865482210634" lon="10.976340719159523"><ele>524.0</ele><time>2026-04-18T10:17:59Z</time></trkpt><trkpt lat="43.41895712562957" lon="10.976301138674552"><ele>524.0</ele><time>2026-04-18T10:18:00Z</time></trkpt><trkpt lat="43.4190128310041" lon="10.976260321984501"><ele>524.0</ele><time>2026-04-18T10:18:01Z</time></trkpt><trkpt lat="43.41896225147316" lon="10.976122364048283"><ele>524.0</ele><time>2026-04-18T10:18:05Z</time></trkpt><trkpt lat="43.41886868316118" lon="10.975996476887328"><ele>524.0</ele><time>2026-04-18T10:18:07Z</time></trkpt><trkpt lat="43.41879871637562" lon="10.97594228898781"><ele>524.0</ele><time>2026-04-18T10:18:08Z</time></trkpt><trkpt lat="43.41868966618959" lon="10.975895091381888"><ele>524.0</ele><time>2026-04-18T10:18:09Z</time></trkpt><trkpt lat="43.418584922170275" lon="10.97580505539318"><ele>524.0</ele><time>2026-04-18T10:18:10Z</time></trkpt><trkpt lat="43.41848211179956" lon="10.975733211700547"><ele>524.0</ele><time>2026-04-18T10:18:11Z</time></trkpt><trkpt lat="43.418396632629744" lon="10.975674063918667"><ele>522.0</ele><time>2026-04-18T10:18:12Z</time></trkpt><trkpt lat="43.418322880802044" lon="10.975641394399727"><ele>520.0</ele><time>2026-04-18T10:18:13Z</time></trkpt><trkpt lat="43.41824938146418" lon="10.975596011529378"><ele>518.0</ele><time>2026-04-18T10:18:14Z</time></trkpt><trkpt lat="43.41816728165581" lon="10.975544895065351"><ele>516.0</ele><time>2026-04-18T10:18:15Z</time></trkpt><trkpt lat="43.41808382619567" lon="10.975521304918846"><ele>514.0</ele><time>2026-04-18T10:18:16.001Z</time></trkpt><trkpt lat="43.41799126001581" lon="10.975501672943086"><ele>512.0</ele><time>2026-04-18T10:18:17.001Z</time></trkpt><trkpt lat="43.41788780822226" lon="10.975449175051066"><ele>511.99999999999994</ele><time>2026-04-18T10:18:18.001Z</time></trkpt><trkpt lat="43.417776344105164" lon="10.975430903750256"><ele>512.0</ele><time>2026-04-18T10:18:19.001Z</time></trkpt><trkpt lat="43.41768462073727" lon="10.975442531053181"><ele>512.0</ele><time>2026-04-18T10:18:20.001Z</time></trkpt><trkpt lat="43.417597169848854" lon="10.975434127193951"><ele>512.0</ele><time>2026-04-18T10:18:21.001Z</time></trkpt><trkpt lat="43.4175167689967" lon="10.975427578940531"><ele>511.99999999999994</ele><time>2026-04-18T10:18:22.001Z</time></trkpt><trkpt lat="43.41744679406269" lon="10.975421811526648"><ele>512.0</ele><time>2026-04-18T10:18:23.001Z</time></trkpt><trkpt lat="43.41735098465598" lon="10.975415494802215"><ele>512.0</ele><time>2026-04-18T10:18:25.001Z</time></trkpt><trkpt lat="43.41726736735415" lon="10.975400613305888"><ele>512.0</ele><time>2026-04-18T10:18:27.001Z</time></trkpt><trkpt lat="43.41731268115522" lon="10.975298896033905"><ele>512.0</ele><time>2026-04-18T10:18:32.001Z</time></trkpt><trkpt lat="43.4174133541323" lon="10.975174746103864"><ele>512.0</ele><time>2026-04-18T10:18:34.001Z</time></trkpt><trkpt lat="43.41748727436725" lon="10.975081631048635"><ele>512.0</ele><time>2026-04-18T10:18:35.001Z</time></trkpt><trkpt lat="43.41757361191353" lon="10.974972874426625"><ele>509.20000000000005</ele><time>2026-04-18T10:18:36.001Z</time></trkpt><trkpt lat="43.41766193596709" lon="10.974856753644927"><ele>506.40000000000003</ele><time>2026-04-18T10:18:37.001Z</time></trkpt><trkpt lat="43.417723263365815" lon="10.974752278626593"><ele>503.59999999999997</ele><time>2026-04-18T10:18:38.001Z</time></trkpt><trkpt lat="43.41776135805559" lon="10.974667815264525"><ele>500.79999999999995</ele><time>2026-04-18T10:18:39.001Z</time></trkpt><trkpt lat="43.41775342893816" lon="10.974556787817473"><ele>498.0</ele><time>2026-04-18T10:18:40.001Z</time></trkpt><trkpt lat="43.41772861209684" lon="10.974437289950531"><ele>498.0</ele><time>2026-04-18T10:18:41.001Z</time></trkpt><trkpt lat="43.4176668183755" lon="10.974297690928944"><ele>498.0</ele><time>2026-04-18T10:18:42.001Z</time></trkpt><trkpt lat="43.41758823264796" lon="10.974169237568617"><ele>498.0</ele><time>2026-04-18T10:18:43.001Z</time></trkpt><trkpt lat="43.41752296173302" lon="10.974018667314413"><ele>498.0</ele><time>2026-04-18T10:18:44.001Z</time></trkpt><trkpt lat="43.41745446871452" lon="10.973868919341019"><ele>495.0</ele><time>2026-04-18T10:18:45.001Z</time></trkpt><trkpt lat="43.41739250749358" lon="10.973717831603606"><ele>492.0</ele><time>2026-04-18T10:18:46.001Z</time></trkpt><trkpt lat="43.41733022674683" lon="10.973582321938727"><ele>489.0</ele><time>2026-04-18T10:18:47.001Z</time></trkpt><trkpt lat="43.417246959769294" lon="10.973438793146155"><ele>486.0</ele><time>2026-04-18T10:18:48.001Z</time></trkpt><trkpt lat="43.41716707735934" lon="10.973262359234873"><ele>483.5</ele><time>2026-04-18T10:18:49.001Z</time></trkpt><trkpt lat="43.41709576174839" lon="10.973072166007737"><ele>481.0</ele><time>2026-04-18T10:18:50.001Z</time></trkpt><trkpt lat="43.417030462716205" lon="10.972888037978024"><ele>478.5</ele><time>2026-04-18T10:18:51.001Z</time></trkpt><trkpt lat="43.41698843226262" lon="10.972715930782064"><ele>476.0</ele><time>2026-04-18T10:18:52.001Z</time></trkpt><trkpt lat="43.41694824024304" lon="10.972542900118153"><ele>475.75</ele><time>2026-04-18T10:18:53.001Z</time></trkpt><trkpt lat="43.41689858414529" lon="10.972336214766818"><ele>475.5</ele><time>2026-04-18T10:18:54Z</time></trkpt><trkpt lat="43.41683680892123" lon="10.972150215029664"><ele>475.25</ele><time>2026-04-18T10:18:55Z</time></trkpt><trkpt lat="43.41679439578496" lon="10.971976080038147"><ele>475.0</ele><time>2026-04-18T10:18:56Z</time></trkpt><trkpt lat="43.416745684696025" lon="10.971810873345362"><ele>475.75</ele><time>2026-04-18T10:18:57Z</time></trkpt><trkpt lat="43.41669271223057" lon="10.97164526285764"><ele>476.5</ele><time>2026-04-18T10:18:58Z</time></trkpt><trkpt lat="43.416638971240324" lon="10.971473741728511"><ele>477.25</ele><time>2026-04-18T10:18:59Z</time></trkpt><trkpt lat="43.416570643391616" lon="10.971318162930958"><ele>478.0</ele><time>2026-04-18T10:19:00Z</time></trkpt><trkpt lat="43.416502759262514" lon="10.971164757768872"><ele>478.0</ele><time>2026-04-18T10:19:01Z</time></trkpt><trkpt lat="43.41642772898513" lon="10.971009614589885"><ele>478.0</ele><time>2026-04-18T10:19:02Z</time></trkpt><trkpt lat="43.41634795707776" lon="10.970859680829449"><ele>478.0</ele><time>2026-04-18T10:19:03Z</time></trkpt><trkpt lat="43.41626692013428" lon="10.970703727065297"><ele>478.0</ele><time>2026-04-18T10:19:04Z</time></trkpt><trkpt lat="43.41617074127659" lon="10.970541787162553"><ele>478.6666666666667</ele><time>2026-04-18T10:19:05Z</time></trkpt><trkpt lat="43.416083169199766" lon="10.970361670376308"><ele>479.33333333333337</ele><time>2026-04-18T10:19:06Z</time></trkpt><trkpt lat="43.4159794916827" lon="10.970195081635445"><ele>480.0</ele><time>2026-04-18T10:19:07Z</time></trkpt><trkpt lat="43.41588428328626" lon="10.970015682791411"><ele>480.0</ele><time>2026-04-18T10:19:08Z</time></trkpt><trkpt lat="43.41578622066746" lon="10.96983171646836"><ele>480.0</ele><time>2026-04-18T10:19:09Z</time></trkpt><trkpt lat="43.41569528404117" lon="10.969665204747697"><ele>480.0</ele><time>2026-04-18T10:19:10Z</time></trkpt><trkpt lat="43.41562151165946" lon="10.969525869604064"><ele>480.0</ele><time>2026-04-18T10:19:11Z</time></trkpt><trkpt lat="43.41555749201101" lon="10.969381134136249"><ele>480.0</ele><time>2026-04-18T10:19:12Z</time></trkpt><trkpt lat="43.41551022454528" lon="10.969232323104942"><ele>480.0</ele><time>2026-04-18T10:19:13Z</time></trkpt><trkpt lat="43.415486462832995" lon="10.969083914980207"><ele>480.0</ele><time>2026-04-18T10:19:14Z</time></trkpt><trkpt lat="43.41550514715584" lon="10.968895752778138"><ele>480.0</ele><time>2026-04-18T10:19:15Z</time></trkpt><trkpt lat="43.41550143906003" lon="10.968681988725134"><ele>478.66666666666663</ele><time>2026-04-18T10:19:16Z</time></trkpt><trkpt lat="43.41551701979155" lon="10.968458514587065"><ele>477.3333333333333</ele><time>2026-04-18T10:19:17Z</time></trkpt><trkpt lat="43.41551812204857" lon="10.968234384026198"><ele>476.0</ele><time>2026-04-18T10:19:18Z</time></trkpt><trkpt lat="43.41553422291386" lon="10.968008737236783"><ele>476.0</ele><time>2026-04-18T10:19:19Z</time></trkpt><trkpt lat="43.415561109315604" lon="10.967779843094004"><ele>476.0</ele><time>2026-04-18T10:19:20Z</time></trkpt><trkpt lat="43.41558954731004" lon="10.96753609585261"><ele>476.0</ele><time>2026-04-18T10:19:21Z</time></trkpt><trkpt lat="43.41561516551391" lon="10.96729315076542"><ele>478.0</ele><time>2026-04-18T10:19:22Z</time></trkpt><trkpt lat="43.41564365488609" lon="10.967062969857686"><ele>480.0</ele><time>2026-04-18T10:19:23Z</time></trkpt><trkpt lat="43.415657118734686" lon="10.9668698035412"><ele>482.0</ele><time>2026-04-18T10:19:24Z</time></trkpt><trkpt lat="43.415673846196256" lon="10.966716531710814"><ele>484.0</ele><time>2026-04-18T10:19:25Z</time></trkpt><trkpt lat="43.415688907628265" lon="10.966576494896199"><ele>485.4</ele><time>2026-04-18T10:19:26Z</time></trkpt><trkpt lat="43.41571916026121" lon="10.966422093807205"><ele>486.79999999999995</ele><time>2026-04-18T10:19:27Z</time></trkpt><trkpt lat="43.415728023234585" lon="10.966310005563367"><ele>488.20000000000005</ele><time>2026-04-18T10:19:28Z</time></trkpt><trkpt lat="43.415711058880774" lon="10.966185034767793"><ele>489.6</ele><time>2026-04-18T10:19:32Z</time></trkpt><trkpt lat="43.41568663952324" lon="10.966003442518636"><ele>491.0</ele><time>2026-04-18T10:19:34Z</time></trkpt><trkpt lat="43.41567018662094" lon="10.965890399381857"><ele>491.6</ele><time>2026-04-18T10:19:35Z</time></trkpt><trkpt lat="43.41565144989942" lon="10.965781024590571"><ele>492.20000000000005</ele><time>2026-04-18T10:19:36Z</time></trkpt><trkpt lat="43.415627285949355" lon="10.965670682992803"><ele>492.79999999999995</ele><time>2026-04-18T10:19:37Z</time></trkpt><trkpt lat="43.41562549290603" lon="10.9655173193677"><ele>493.4</ele><time>2026-04-18T10:19:38Z</time></trkpt><trkpt lat="43.41562495611525" lon="10.965366519418845"><ele>494.0</ele><time>2026-04-18T10:19:39Z</time></trkpt><trkpt lat="43.41564288359544" lon="10.965220676166162"><ele>493.99999999999994</ele><time>2026-04-18T10:19:40Z</time></trkpt><trkpt lat="43.41565711177901" lon="10.965093178001302"><ele>494.0</ele><time>2026-04-18T10:19:41Z</time></trkpt><trkpt lat="43.415669464783946" lon="10.96497229067415"><ele>494.0</ele><time>2026-04-18T10:19:42Z</time></trkpt><trkpt lat="43.41568998909126" lon="10.964873309795387"><ele>494.0</ele><time>2026-04-18T10:19:43Z</time></trkpt><trkpt lat="43.41570748917217" lon="10.964774899959092"><ele>493.99999999999994</ele><time>2026-04-18T10:19:44Z</time></trkpt><trkpt lat="43.415724284547096" lon="10.964687724796187"><ele>494.0</ele><time>2026-04-18T10:19:45Z</time></trkpt><trkpt lat="43.415695990539824" lon="10.964548156502376"><ele>493.6</ele><time>2026-04-18T10:19:47Z</time></trkpt><trkpt lat="43.41562703559294" lon="10.96443432514773"><ele>493.2</ele><time>2026-04-18T10:19:49Z</time></trkpt><trkpt lat="43.41554852150469" lon="10.964298244771385"><ele>492.80000000000007</ele><time>2026-04-18T10:19:51Z</time></trkpt><trkpt lat="43.41549568138762" lon="10.964212694810158"><ele>492.40000000000003</ele><time>2026-04-18T10:19:52Z</time></trkpt><trkpt lat="43.415439035663844" lon="10.964135687719219"><ele>492.0</ele><time>2026-04-18T10:19:53Z</time></trkpt><trkpt lat="43.41538319340665" lon="10.964071312683233"><ele>492.00000000000006</ele><time>2026-04-18T10:19:54Z</time></trkpt><trkpt lat="43.41533004455263" lon="10.964018974661256"><ele>492.0</ele><time>2026-04-18T10:19:55Z</time></trkpt><trkpt lat="43.41527209864897" lon="10.963971342536531"><ele>492.00000000000006</ele><time>2026-04-18T10:19:56Z</time></trkpt><trkpt lat="43.415209856944266" lon="10.963933082119413"><ele>492.00000000000006</ele><time>2026-04-18T10:19:57Z</time></trkpt><trkpt lat="43.41514181201508" lon="10.963898795456714"><ele>492.0</ele><time>2026-04-18T10:19:58Z</time></trkpt><trkpt lat="43.41507399918092" lon="10.96385300267813"><ele>492.00000000000006</ele><time>2026-04-18T10:19:59Z</time></trkpt><trkpt lat="43.41501380551243" lon="10.963791372600909"><ele>492.00000000000006</ele><time>2026-04-18T10:20:00Z</time></trkpt><trkpt lat="43.41495549430894" lon="10.963725730235636"><ele>492.0</ele><time>2026-04-18T10:20:01Z</time></trkpt><trkpt lat="43.414887092429026" lon="10.963664847245395"><ele>492.0</ele><time>2026-04-18T10:20:02Z</time></trkpt><trkpt lat="43.414818269511336" lon="10.963628888761555"><ele>492.0</ele><time>2026-04-18T10:20:03Z</time></trkpt><trkpt lat="43.41472950594229" lon="10.963598369798614"><ele>492.0</ele><time>2026-04-18T10:20:04Z</time></trkpt><trkpt lat="43.41464089628874" lon="10.963566959428663"><ele>492.0</ele><time>2026-04-18T10:20:05Z</time></trkpt><trkpt lat="43.414567180885825" lon="10.96353945075639"><ele>492.0</ele><time>2026-04-18T10:20:06Z</time></trkpt><trkpt lat="43.41449556163619" lon="10.96351935964641"><ele>489.6</ele><time>2026-04-18T10:20:07Z</time></trkpt><trkpt lat="43.414424507161925" lon="10.963504672353897"><ele>487.20000000000005</ele><time>2026-04-18T10:20:08Z</time></trkpt><trkpt lat="43.4143090298813" lon="10.963465400812169"><ele>484.8</ele><time>2026-04-18T10:20:10.001Z</time></trkpt><trkpt lat="43.41421344823679" lon="10.963433200460281"><ele>482.4</ele><time>2026-04-18T10:20:12.001Z</time></trkpt><trkpt lat="43.414134983573625" lon="10.963395007716528"><ele>480.0</ele><time>2026-04-18T10:20:15.001Z</time></trkpt><trkpt lat="43.41408097233954" lon="10.963291552360783"><ele>480.0</ele><time>2026-04-18T10:20:18.001Z</time></trkpt><trkpt lat="43.41405387869614" lon="10.963201702771514"><ele>480.0</ele><time>2026-04-18T10:20:19.001Z</time></trkpt><trkpt lat="43.414023159403946" lon="10.963078426203673"><ele>480.0</ele><time>2026-04-18T10:20:20.001Z</time></trkpt><trkpt lat="43.41399825742635" lon="10.962973968699318"><ele>480.0</ele><time>2026-04-18T10:20:21.001Z</time></trkpt><trkpt lat="43.413953257672674" lon="10.962883942764112"><ele>480.0</ele><time>2026-04-18T10:20:23.001Z</time></trkpt><trkpt lat="43.41385200372355" lon="10.96287551539193"><ele>480.0</ele><time>2026-04-18T10:20:25.001Z</time></trkpt><trkpt lat="43.413783258170156" lon="10.962931696753474"><ele>478.0</ele><time>2026-04-18T10:20:26.001Z</time></trkpt><trkpt lat="43.41370716194525" lon="10.96301638387079"><ele>476.0</ele><time>2026-04-18T10:20:27.001Z</time></trkpt><trkpt lat="43.413633944074455" lon="10.963090634239123"><ele>474.0</ele><time>2026-04-18T10:20:28.001Z</time></trkpt><trkpt lat="43.41356348480736" lon="10.963126852607436"><ele>472.0</ele><time>2026-04-18T10:20:29.001Z</time></trkpt><trkpt lat="43.41349430366545" lon="10.96316124624397"><ele>470.0</ele><time>2026-04-18T10:20:30.001Z</time></trkpt><trkpt lat="43.413428403168055" lon="10.963177335509368"><ele>468.0</ele><time>2026-04-18T10:20:31.001Z</time></trkpt><trkpt lat="43.41336498527456" lon="10.963181137450592"><ele>468.0</ele><time>2026-04-18T10:20:32.001Z</time></trkpt><trkpt lat="43.41326426421084" lon="10.963147010862004"><ele>468.0</ele><time>2026-04-18T10:20:34.001Z</time></trkpt><trkpt lat="43.41318216959184" lon="10.963083128360395"><ele>468.0</ele><time>2026-04-18T10:20:36.001Z</time></trkpt><trkpt lat="43.41311610256468" lon="10.963010208417884"><ele>468.0</ele><time>2026-04-18T10:20:38.001Z</time></trkpt><trkpt lat="43.4130549458262" lon="10.962929155805835"><ele>468.0</ele><time>2026-04-18T10:20:40.001Z</time></trkpt><trkpt lat="43.41299673537021" lon="10.962873652244381"><ele>468.0</ele><time>2026-04-18T10:20:43.001Z</time></trkpt><trkpt lat="43.412935762612705" lon="10.96276584340335"><ele>464.79999999999995</ele><time>2026-04-18T10:20:46.001Z</time></trkpt><trkpt lat="43.41285140809435" lon="10.962663504340618"><ele>461.59999999999997</ele><time>2026-04-18T10:20:49.001Z</time></trkpt><trkpt lat="43.412801332044864" lon="10.962592912517994"><ele>458.40000000000003</ele><time>2026-04-18T10:20:50.001Z</time></trkpt><trkpt lat="43.41275710730026" lon="10.962523638678512"><ele>455.20000000000005</ele><time>2026-04-18T10:20:51.001Z</time></trkpt><trkpt lat="43.41269888147035" lon="10.96242350973974"><ele>452.0</ele><time>2026-04-18T10:20:53.001Z</time></trkpt><trkpt lat="43.41269563433149" lon="10.962256463776527"><ele>451.6</ele><time>2026-04-18T10:20:55.001Z</time></trkpt><trkpt lat="43.41270247737226" lon="10.962154568862731"><ele>451.20000000000005</ele><time>2026-04-18T10:20:56.001Z</time></trkpt><trkpt lat="43.41272043176152" lon="10.962006254431454"><ele>450.8</ele><time>2026-04-18T10:20:57.001Z</time></trkpt><trkpt lat="43.412744738911265" lon="10.96186628339231"><ele>450.4</ele><time>2026-04-18T10:20:58.001Z</time></trkpt><trkpt lat="43.41276478410733" lon="10.961746216458339"><ele>450.0</ele><time>2026-04-18T10:20:59.001Z</time></trkpt><trkpt lat="43.41278899869478" lon="10.96161500570873"><ele>449.1666666666667</ele><time>2026-04-18T10:21:00Z</time></trkpt><trkpt lat="43.41281028531644" lon="10.961494941903535"><ele>448.33333333333337</ele><time>2026-04-18T10:21:01Z</time></trkpt><trkpt lat="43.41283197819665" lon="10.961378002126008"><ele>447.5</ele><time>2026-04-18T10:21:02Z</time></trkpt><trkpt lat="43.41284572544496" lon="10.961275131452094"><ele>446.6666666666667</ele><time>2026-04-18T10:21:03Z</time></trkpt><trkpt lat="43.412836551606894" lon="10.961149975658367"><ele>445.83333333333337</ele><time>2026-04-18T10:21:04Z</time></trkpt><trkpt lat="43.412822223022744" lon="10.961024655670661"><ele>445.0</ele><time>2026-04-18T10:21:05Z</time></trkpt><trkpt lat="43.412803694327714" lon="10.960912072120607"><ele>442.4</ele><time>2026-04-18T10:21:06Z</time></trkpt><trkpt lat="43.41278635020647" lon="10.960780740111302"><ele>439.8</ele><time>2026-04-18T10:21:07Z</time></trkpt><trkpt lat="43.41276701185032" lon="10.960657666631846"><ele>437.20000000000005</ele><time>2026-04-18T10:21:08Z</time></trkpt><trkpt lat="43.41276019877706" lon="10.960537462494882"><ele>434.6</ele><time>2026-04-18T10:21:09Z</time></trkpt><trkpt lat="43.412765923166795" lon="10.96042529142361"><ele>432.0</ele><time>2026-04-18T10:21:10Z</time></trkpt><trkpt lat="43.41277256706519" lon="10.960283588239639"><ele>432.0</ele><time>2026-04-18T10:21:11Z</time></trkpt><trkpt lat="43.41279622914773" lon="10.960143638918032"><ele>432.00000000000006</ele><time>2026-04-18T10:21:12Z</time></trkpt><trkpt lat="43.41281463298657" lon="10.959993518938935"><ele>432.00000000000006</ele><time>2026-04-18T10:21:13Z</time></trkpt><trkpt lat="43.412834492425006" lon="10.959847989046795"><ele>432.0</ele><time>2026-04-18T10:21:14Z</time></trkpt><trkpt lat="43.41286167138645" lon="10.959728594741483"><ele>432.0</ele><time>2026-04-18T10:21:15Z</time></trkpt><trkpt lat="43.41289650829389" lon="10.959614105098309"><ele>430.3333333333333</ele><time>2026-04-18T10:21:16Z</time></trkpt><trkpt lat="43.41293455433016" lon="10.95951012331057"><ele>428.66666666666663</ele><time>2026-04-18T10:21:17Z</time></trkpt><trkpt lat="43.41295952028183" lon="10.95941229208122"><ele>427.0</ele><time>2026-04-18T10:21:18Z</time></trkpt><trkpt lat="43.41297681981131" lon="10.959307367402491"><ele>425.3333333333333</ele><time>2026-04-18T10:21:19Z</time></trkpt><trkpt lat="43.412990621550456" lon="10.9591933977243"><ele>423.66666666666663</ele><time>2026-04-18T10:21:20Z</time></trkpt><trkpt lat="43.413000489857325" lon="10.959082389880601"><ele>422.0</ele><time>2026-04-18T10:21:21Z</time></trkpt><trkpt lat="43.41298028351953" lon="10.958945893874478"><ele>420.0</ele><time>2026-04-18T10:21:22Z</time></trkpt><trkpt lat="43.412936682549045" lon="10.958805893054308"><ele>418.0</ele><time>2026-04-18T10:21:23Z</time></trkpt><trkpt lat="43.41289247670663" lon="10.958651507229797"><ele>416.0</ele><time>2026-04-18T10:21:24Z</time></trkpt><trkpt lat="43.41285671955486" lon="10.958510975891647"><ele>414.0</ele><time>2026-04-18T10:21:25Z</time></trkpt><trkpt lat="43.41281823456332" lon="10.95837851083621"><ele>412.0</ele><time>2026-04-18T10:21:26Z</time></trkpt><trkpt lat="43.41278251946691" lon="10.958238804621923"><ele>410.0</ele><time>2026-04-18T10:21:27Z</time></trkpt><trkpt lat="43.41274363673117" lon="10.958089755162312"><ele>408.0</ele><time>2026-04-18T10:21:28Z</time></trkpt><trkpt lat="43.41270222883341" lon="10.957941719325984"><ele>406.0</ele><time>2026-04-18T10:21:29Z</time></trkpt><trkpt lat="43.41266121670188" lon="10.957786924229602"><ele>404.0</ele><time>2026-04-18T10:21:30Z</time></trkpt><trkpt lat="43.41261793884133" lon="10.957627611405842"><ele>402.0</ele><time>2026-04-18T10:21:31Z</time></trkpt><trkpt lat="43.412573828012114" lon="10.957480096166766"><ele>400.0</ele><time>2026-04-18T10:21:32Z</time></trkpt><trkpt lat="43.41253566878982" lon="10.957337980980968"><ele>398.0</ele><time>2026-04-18T10:21:33Z</time></trkpt><trkpt lat="43.41250192540283" lon="10.957202564723856"><ele>396.0</ele><time>2026-04-18T10:21:34Z</time></trkpt><trkpt lat="43.41246555082915" lon="10.957071942903648"><ele>394.0</ele><time>2026-04-18T10:21:35Z</time></trkpt><trkpt lat="43.41243072753595" lon="10.956941529911381"><ele>394.00000000000006</ele><time>2026-04-18T10:21:36Z</time></trkpt><trkpt lat="43.41239518800381" lon="10.956822687046314"><ele>394.0</ele><time>2026-04-18T10:21:37Z</time></trkpt><trkpt lat="43.41236436749226" lon="10.956728759542544"><ele>394.0</ele><time>2026-04-18T10:21:38Z</time></trkpt><trkpt lat="43.412356896438105" lon="10.95658170021083"><ele>394.0</ele><time>2026-04-18T10:21:40Z</time></trkpt><trkpt lat="43.412377036875846" lon="10.95649314974214"><ele>394.00000000000006</ele><time>2026-04-18T10:21:41Z</time></trkpt><trkpt lat="43.41239479138045" lon="10.956395622244775"><ele>394.0</ele><time>2026-04-18T10:21:42Z</time></trkpt><trkpt lat="43.41240857927897" lon="10.956292028919599"><ele>393.1666666666667</ele><time>2026-04-18T10:21:43Z</time></trkpt><trkpt lat="43.412420219288535" lon="10.956182988732158"><ele>392.33333333333337</ele><time>2026-04-18T10:21:44Z</time></trkpt><trkpt lat="43.41241161031218" lon="10.956060208967596"><ele>391.5</ele><time>2026-04-18T10:21:45Z</time></trkpt><trkpt lat="43.4123808094407" lon="10.955942336312246"><ele>390.66666666666663</ele><time>2026-04-18T10:21:46Z</time></trkpt><trkpt lat="43.412327211781005" lon="10.955862909078347"><ele>389.8333333333333</ele><time>2026-04-18T10:21:47Z</time></trkpt><trkpt lat="43.41226907885487" lon="10.955806583577198"><ele>389.0</ele><time>2026-04-18T10:21:48Z</time></trkpt><trkpt lat="43.41218823037225" lon="10.955730430620521"><ele>388.99999999999994</ele><time>2026-04-18T10:21:49Z</time></trkpt><trkpt lat="43.41210771644167" lon="10.955660739831256"><ele>389.0</ele><time>2026-04-18T10:21:50Z</time></trkpt><trkpt lat="43.41206257362271" lon="10.955591786896687"><ele>389.0</ele><time>2026-04-18T10:21:51Z</time></trkpt><trkpt lat="43.412083525944354" lon="10.955435410354811"><ele>389.0</ele><time>2026-04-18T10:21:53Z</time></trkpt><trkpt lat="43.41211008783528" lon="10.955339322006768"><ele>388.99999999999994</ele><time>2026-04-18T10:21:54Z</time></trkpt><trkpt lat="43.412129715373936" lon="10.955231911853431"><ele>389.0</ele><time>2026-04-18T10:21:55Z</time></trkpt><trkpt lat="43.412134648617084" lon="10.95510888272664"><ele>390.79999999999995</ele><time>2026-04-18T10:21:56Z</time></trkpt><trkpt lat="43.41212450579967" lon="10.95498938915776"><ele>392.59999999999997</ele><time>2026-04-18T10:21:57Z</time></trkpt><trkpt lat="43.4120902028864" lon="10.95488274725406"><ele>394.4</ele><time>2026-04-18T10:21:58Z</time></trkpt><trkpt lat="43.41204207975723" lon="10.954759708730391"><ele>396.2</ele><time>2026-04-18T10:21:59Z</time></trkpt><trkpt lat="43.411988082499384" lon="10.954623105234395"><ele>398.0</ele><time>2026-04-18T10:22:00Z</time></trkpt><trkpt lat="43.41193672383245" lon="10.954480164335619"><ele>398.0</ele><time>2026-04-18T10:22:01Z</time></trkpt><trkpt lat="43.41192162868275" lon="10.954337827656763"><ele>398.0</ele><time>2026-04-18T10:22:02Z</time></trkpt><trkpt lat="43.41192465455401" lon="10.954200038633996"><ele>398.0</ele><time>2026-04-18T10:22:03Z</time></trkpt><trkpt lat="43.411917598254426" lon="10.954006764991309"><ele>398.0</ele><time>2026-04-18T10:22:04Z</time></trkpt><trkpt lat="43.41190272719317" lon="10.953802702870524"><ele>398.5</ele><time>2026-04-18T10:22:05Z</time></trkpt><trkpt lat="43.411885478620626" lon="10.953592029316994"><ele>399.0</ele><time>2026-04-18T10:22:06.001Z</time></trkpt><trkpt lat="43.411868491490715" lon="10.953395077374198"><ele>399.5</ele><time>2026-04-18T10:22:07.001Z</time></trkpt><trkpt lat="43.411855354916845" lon="10.953197122094844"><ele>400.0</ele><time>2026-04-18T10:22:08.001Z</time></trkpt><trkpt lat="43.41184078548173" lon="10.953008686805772"><ele>401.5</ele><time>2026-04-18T10:22:09.001Z</time></trkpt><trkpt lat="43.41183499940138" lon="10.952821031970792"><ele>403.0</ele><time>2026-04-18T10:22:10.001Z</time></trkpt><trkpt lat="43.41182054598484" lon="10.952636195712508"><ele>404.5</ele><time>2026-04-18T10:22:11.001Z</time></trkpt><trkpt lat="43.41180687351263" lon="10.952445198464776"><ele>406.0</ele><time>2026-04-18T10:22:12.001Z</time></trkpt><trkpt lat="43.411791624701074" lon="10.952252521342789"><ele>407.5</ele><time>2026-04-18T10:22:13.001Z</time></trkpt><trkpt lat="43.41178233975108" lon="10.952065779866489"><ele>409.0</ele><time>2026-04-18T10:22:14.001Z</time></trkpt><trkpt lat="43.41177102966175" lon="10.951875960307348"><ele>410.5</ele><time>2026-04-18T10:22:15.001Z</time></trkpt><trkpt lat="43.411756702504434" lon="10.951681247366318"><ele>412.0</ele><time>2026-04-18T10:22:16.001Z</time></trkpt><trkpt lat="43.41174269194244" lon="10.95148751493057"><ele>413.33333333333337</ele><time>2026-04-18T10:22:17.001Z</time></trkpt><trkpt lat="43.41172817720417" lon="10.951274877556527"><ele>414.66666666666663</ele><time>2026-04-18T10:22:18.001Z</time></trkpt><trkpt lat="43.411714367734525" lon="10.951045862103339"><ele>416.0</ele><time>2026-04-18T10:22:19.001Z</time></trkpt><trkpt lat="43.41172636711792" lon="10.950852302343415"><ele>417.0</ele><time>2026-04-18T10:22:20.001Z</time></trkpt><trkpt lat="43.411698409539824" lon="10.950688692030463"><ele>418.0</ele><time>2026-04-18T10:22:21.001Z</time></trkpt><trkpt lat="43.41168376892683" lon="10.950515257727947"><ele>419.0</ele><time>2026-04-18T10:22:22.001Z</time></trkpt><trkpt lat="43.41165949948418" lon="10.950345083921201"><ele>420.0</ele><time>2026-04-18T10:22:23.001Z</time></trkpt><trkpt lat="43.411632144845086" lon="10.950190782736822"><ele>420.4</ele><time>2026-04-18T10:22:24.001Z</time></trkpt><trkpt lat="43.41160334765811" lon="10.950038890393914"><ele>420.8</ele><time>2026-04-18T10:22:25.001Z</time></trkpt><trkpt lat="43.41157647016842" lon="10.949897183507167"><ele>421.20000000000005</ele><time>2026-04-18T10:22:26.001Z</time></trkpt><trkpt lat="43.41155702679162" lon="10.949774447444629"><ele>421.6</ele><time>2026-04-18T10:22:27.001Z</time></trkpt><trkpt lat="43.411528529298245" lon="10.949668341200814"><ele>422.0</ele><time>2026-04-18T10:22:28.001Z</time></trkpt><trkpt lat="43.41150495188254" lon="10.949562557354959"><ele>422.0</ele><time>2026-04-18T10:22:29.001Z</time></trkpt><trkpt lat="43.41146908839077" lon="10.949451023076275"><ele>422.0</ele><time>2026-04-18T10:22:30.001Z</time></trkpt><trkpt lat="43.41141844742079" lon="10.949335020434617"><ele>422.0</ele><time>2026-04-18T10:22:31.001Z</time></trkpt><trkpt lat="43.411366016520134" lon="10.949221947146134"><ele>422.0</ele><time>2026-04-18T10:22:32.001Z</time></trkpt><trkpt lat="43.41130351200804" lon="10.94913567138579"><ele>422.0</ele><time>2026-04-18T10:22:33.001Z</time></trkpt><trkpt lat="43.41122907192588" lon="10.94906720602588"><ele>421.6</ele><time>2026-04-18T10:22:34.001Z</time></trkpt><trkpt lat="43.41114867823555" lon="10.949035678936978"><ele>421.20000000000005</ele><time>2026-04-18T10:22:35.001Z</time></trkpt><trkpt lat="43.411034484972525" lon="10.948931217683956"><ele>420.8</ele><time>2026-04-18T10:22:37.001Z</time></trkpt><trkpt lat="43.410983681101754" lon="10.948825294431952"><ele>420.4</ele><time>2026-04-18T10:22:38.001Z</time></trkpt><trkpt lat="43.41094481347236" lon="10.948688552015323"><ele>420.0</ele><time>2026-04-18T10:22:39.001Z</time></trkpt><trkpt lat="43.41091276930993" lon="10.948523769580474"><ele>419.5</ele><time>2026-04-18T10:22:40.001Z</time></trkpt><trkpt lat="43.41089578977078" lon="10.948357155212712"><ele>419.0</ele><time>2026-04-18T10:22:41.001Z</time></trkpt><trkpt lat="43.410886981838836" lon="10.948168988780196"><ele>418.5</ele><time>2026-04-18T10:22:42.001Z</time></trkpt><trkpt lat="43.41087205204419" lon="10.94799252454834"><ele>418.0</ele><time>2026-04-18T10:22:43.001Z</time></trkpt><trkpt lat="43.41086330700268" lon="10.947848070329908"><ele>418.0</ele><time>2026-04-18T10:22:44.001Z</time></trkpt><trkpt lat="43.410873153112604" lon="10.947711881346846"><ele>418.0</ele><time>2026-04-18T10:22:45.001Z</time></trkpt><trkpt lat="43.41089835124018" lon="10.947572509849033"><ele>418.0</ele><time>2026-04-18T10:22:46.001Z</time></trkpt><trkpt lat="43.41092984470892" lon="10.947408933458963"><ele>418.0</ele><time>2026-04-18T10:22:47.001Z</time></trkpt><trkpt lat="43.41095819921954" lon="10.947255588671206"><ele>418.0</ele><time>2026-04-18T10:22:48.001Z</time></trkpt><trkpt lat="43.41099210147955" lon="10.947086843649439"><ele>419.0</ele><time>2026-04-18T10:22:49.001Z</time></trkpt><trkpt lat="43.410997490297746" lon="10.946922070499532"><ele>420.0</ele><time>2026-04-18T10:22:50.001Z</time></trkpt><trkpt lat="43.41100425886747" lon="10.946745893577763"><ele>421.0</ele><time>2026-04-18T10:22:51.001Z</time></trkpt><trkpt lat="43.411009432543864" lon="10.94657597363845"><ele>422.0</ele><time>2026-04-18T10:22:52.001Z</time></trkpt><trkpt lat="43.41102216429935" lon="10.946403716484943"><ele>422.8</ele><time>2026-04-18T10:22:53.001Z</time></trkpt><trkpt lat="43.41102746405576" lon="10.946235000997843"><ele>423.6</ele><time>2026-04-18T10:22:54.001Z</time></trkpt><trkpt lat="43.41102299159737" lon="10.946102453047946"><ele>424.40000000000003</ele><time>2026-04-18T10:22:55.001Z</time></trkpt><trkpt lat="43.411022157699456" lon="10.945971875319897"><ele>425.20000000000005</ele><time>2026-04-18T10:22:56.001Z</time></trkpt><trkpt lat="43.41101115310422" lon="10.9458200472379"><ele>426.0</ele><time>2026-04-18T10:22:57.001Z</time></trkpt><trkpt lat="43.41101412281293" lon="10.945667242211359"><ele>426.25</ele><time>2026-04-18T10:22:58.001Z</time></trkpt><trkpt lat="43.410996509716284" lon="10.945507587121453"><ele>426.5</ele><time>2026-04-18T10:22:59.001Z</time></trkpt><trkpt lat="43.410974111172806" lon="10.945350039990137"><ele>426.75</ele><time>2026-04-18T10:23:00.001Z</time></trkpt><trkpt lat="43.41095315996971" lon="10.945195540450909"><ele>427.0</ele><time>2026-04-18T10:23:01.001Z</time></trkpt><trkpt lat="43.41094029296604" lon="10.945051730001609"><ele>426.75</ele><time>2026-04-18T10:23:02.001Z</time></trkpt><trkpt lat="43.41093750042815" lon="10.944898098724696"><ele>426.5</ele><time>2026-04-18T10:23:03.001Z</time></trkpt><trkpt lat="43.41091903009312" lon="10.944721343960254"><ele>426.25</ele><time>2026-04-18T10:23:04.001Z</time></trkpt><trkpt lat="43.41091129580434" lon="10.944556051499239"><ele>426.0</ele><time>2026-04-18T10:23:05.001Z</time></trkpt><trkpt lat="43.41089923573173" lon="10.944382288708505"><ele>426.0</ele><time>2026-04-18T10:23:06Z</time></trkpt><trkpt lat="43.41089314578897" lon="10.94422111686792"><ele>426.0</ele><time>2026-04-18T10:23:07Z</time></trkpt><trkpt lat="43.41089211758869" lon="10.944065544663568"><ele>426.0</ele><time>2026-04-18T10:23:08Z</time></trkpt><trkpt lat="43.410879420266646" lon="10.943908753637881"><ele>426.0</ele><time>2026-04-18T10:23:09Z</time></trkpt><trkpt lat="43.41086546747821" lon="10.943752683538305"><ele>425.4</ele><time>2026-04-18T10:23:10Z</time></trkpt><trkpt lat="43.41084798101278" lon="10.943624642771544"><ele>424.8</ele><time>2026-04-18T10:23:11Z</time></trkpt><trkpt lat="43.41085314349156" lon="10.94349484537152"><ele>424.2</ele><time>2026-04-18T10:23:12Z</time></trkpt><trkpt lat="43.41085347827342" lon="10.943345575386855"><ele>423.59999999999997</ele><time>2026-04-18T10:23:13Z</time></trkpt><trkpt lat="43.41084604740009" lon="10.9431985984767"><ele>423.0</ele><time>2026-04-18T10:23:14Z</time></trkpt><trkpt lat="43.410833598750884" lon="10.943044403719913"><ele>423.0</ele><time>2026-04-18T10:23:15Z</time></trkpt><trkpt lat="43.41081454197083" lon="10.942882603632833"><ele>423.0</ele><time>2026-04-18T10:23:16Z</time></trkpt><trkpt lat="43.41078342958938" lon="10.942721063534748"><ele>423.0</ele><time>2026-04-18T10:23:17Z</time></trkpt><trkpt lat="43.41075405053667" lon="10.942574423776016"><ele>423.0</ele><time>2026-04-18T10:23:18Z</time></trkpt><trkpt lat="43.41071679450673" lon="10.942433455874454"><ele>421.75</ele><time>2026-04-18T10:23:19Z</time></trkpt><trkpt lat="43.410665581832404" lon="10.942284449818654"><ele>420.5</ele><time>2026-04-18T10:23:20Z</time></trkpt><trkpt lat="43.41060822756652" lon="10.942131361164012"><ele>419.25</ele><time>2026-04-18T10:23:21Z</time></trkpt><trkpt lat="43.41053914806154" lon="10.941959782929608"><ele>418.0</ele><time>2026-04-18T10:23:22Z</time></trkpt><trkpt lat="43.4104795873951" lon="10.941776548633275"><ele>414.75</ele><time>2026-04-18T10:23:23Z</time></trkpt><trkpt lat="43.410436043596974" lon="10.9416001861514"><ele>411.5</ele><time>2026-04-18T10:23:24Z</time></trkpt><trkpt lat="43.410397230001585" lon="10.941445228748362"><ele>408.25</ele><time>2026-04-18T10:23:25Z</time></trkpt><trkpt lat="43.41036255706124" lon="10.941296134023967"><ele>405.0</ele><time>2026-04-18T10:23:26Z</time></trkpt><trkpt lat="43.410339296727734" lon="10.941175432694035"><ele>405.0</ele><time>2026-04-18T10:23:27Z</time></trkpt><trkpt lat="43.410309353897794" lon="10.941063766680491"><ele>405.0</ele><time>2026-04-18T10:23:28Z</time></trkpt><trkpt lat="43.41028464897395" lon="10.940971485020189"><ele>405.0</ele><time>2026-04-18T10:23:29Z</time></trkpt><trkpt lat="43.410265856300214" lon="10.940880027105015"><ele>405.0</ele><time>2026-04-18T10:23:30Z</time></trkpt><trkpt lat="43.410288992980206" lon="10.940756072843664"><ele>405.0</ele><time>2026-04-18T10:23:32Z</time></trkpt><trkpt lat="43.4103357209045" lon="10.940691984970686"><ele>405.0</ele><time>2026-04-18T10:23:33Z</time></trkpt><trkpt lat="43.41040265845447" lon="10.940641213671576"><ele>404.6666666666667</ele><time>2026-04-18T10:23:34Z</time></trkpt><trkpt lat="43.41047438541257" lon="10.940615072931557"><ele>404.33333333333337</ele><time>2026-04-18T10:23:35Z</time></trkpt><trkpt lat="43.410557766082526" lon="10.940596327489791"><ele>404.0</ele><time>2026-04-18T10:23:36Z</time></trkpt><trkpt lat="43.41062319335295" lon="10.940584796425068"><ele>403.6666666666667</ele><time>2026-04-18T10:23:37Z</time></trkpt><trkpt lat="43.41069687704992" lon="10.940449974650184"><ele>403.33333333333337</ele><time>2026-04-18T10:23:39Z</time></trkpt><trkpt lat="43.410701027302096" lon="10.940337880352667"><ele>403.0</ele><time>2026-04-18T10:23:40Z</time></trkpt><trkpt lat="43.41068048847194" lon="10.940190385853539"><ele>401.5</ele><time>2026-04-18T10:23:41Z</time></trkpt><trkpt lat="43.41065711387146" lon="10.940024529007415"><ele>400.0</ele><time>2026-04-18T10:23:42Z</time></trkpt><trkpt lat="43.41063715902396" lon="10.939842626183772"><ele>398.5</ele><time>2026-04-18T10:23:43Z</time></trkpt><trkpt lat="43.41062415833089" lon="10.939674902675728"><ele>397.0</ele><time>2026-04-18T10:23:44.001Z</time></trkpt><trkpt lat="43.41062502403892" lon="10.93954344422241"><ele>397.00000000000006</ele><time>2026-04-18T10:23:45.001Z</time></trkpt><trkpt lat="43.41061977561958" lon="10.939416432292594"><ele>397.0</ele><time>2026-04-18T10:23:46.001Z</time></trkpt><trkpt lat="43.41061931342181" lon="10.939288139377112"><ele>397.0</ele><time>2026-04-18T10:23:47.001Z</time></trkpt><trkpt lat="43.41062810153742" lon="10.939172842752882"><ele>397.0</ele><time>2026-04-18T10:23:48.001Z</time></trkpt><trkpt lat="43.410644140722155" lon="10.939049460522256"><ele>397.00000000000006</ele><time>2026-04-18T10:23:49.001Z</time></trkpt><trkpt lat="43.41066301681932" lon="10.938949342120457"><ele>397.0</ele><time>2026-04-18T10:23:50.001Z</time></trkpt><trkpt lat="43.410661450913686" lon="10.938836100931468"><ele>396.0</ele><time>2026-04-18T10:23:51.001Z</time></trkpt><trkpt lat="43.410630812007724" lon="10.938703130878471"><ele>395.0</ele><time>2026-04-18T10:23:52.001Z</time></trkpt><trkpt lat="43.41058282773231" lon="10.938571348071202"><ele>394.0</ele><time>2026-04-18T10:23:53.001Z</time></trkpt><trkpt lat="43.410536234702974" lon="10.938431654383836"><ele>393.0</ele><time>2026-04-18T10:23:54.001Z</time></trkpt><trkpt lat="43.41049358880688" lon="10.938313970011459"><ele>392.0</ele><time>2026-04-18T10:23:55.001Z</time></trkpt><trkpt lat="43.410456263132986" lon="10.938210385995882"><ele>391.16666666666663</ele><time>2026-04-18T10:23:56.001Z</time></trkpt><trkpt lat="43.4104059194439" lon="10.938136753682201"><ele>390.3333333333333</ele><time>2026-04-18T10:23:57.001Z</time></trkpt><trkpt lat="43.41034851435565" lon="10.938086806611269"><ele>389.5</ele><time>2026-04-18T10:23:58.001Z</time></trkpt><trkpt lat="43.4102643923846" lon="10.938055945954108"><ele>388.66666666666663</ele><time>2026-04-18T10:23:59.001Z</time></trkpt><trkpt lat="43.41017669713652" lon="10.938034183755839"><ele>387.8333333333333</ele><time>2026-04-18T10:24:00.001Z</time></trkpt><trkpt lat="43.41009807574191" lon="10.938024591183776"><ele>387.0</ele><time>2026-04-18T10:24:01.001Z</time></trkpt><trkpt lat="43.41003914549683" lon="10.937990580833933"><ele>387.0</ele><time>2026-04-18T10:24:02.001Z</time></trkpt><trkpt lat="43.40996737409288" lon="10.937956362230375"><ele>387.0</ele><time>2026-04-18T10:24:03.001Z</time></trkpt><trkpt lat="43.40990041900976" lon="10.937905525293235"><ele>387.0</ele><time>2026-04-18T10:24:04.001Z</time></trkpt><trkpt lat="43.40982328663674" lon="10.93781113768469"><ele>387.0</ele><time>2026-04-18T10:24:06.001Z</time></trkpt><trkpt lat="43.409794526202944" lon="10.93763905727916"><ele>387.0</ele><time>2026-04-18T10:24:08.001Z</time></trkpt><trkpt lat="43.40979493777615" lon="10.937531147920678"><ele>386.20000000000005</ele><time>2026-04-18T10:24:09.001Z</time></trkpt><trkpt lat="43.409806882180106" lon="10.937397332611118"><ele>385.4</ele><time>2026-04-18T10:24:10.001Z</time></trkpt><trkpt lat="43.40980271839883" lon="10.93725335891125"><ele>384.6</ele><time>2026-04-18T10:24:11.001Z</time></trkpt><trkpt lat="43.4097977172288" lon="10.937103254319545"><ele>383.79999999999995</ele><time>2026-04-18T10:24:12.001Z</time></trkpt><trkpt lat="43.40979674886914" lon="10.936970003442495"><ele>383.0</ele><time>2026-04-18T10:24:13.001Z</time></trkpt><trkpt lat="43.40980545311602" lon="10.936859122384188"><ele>383.0</ele><time>2026-04-18T10:24:14.001Z</time></trkpt><trkpt lat="43.40981797748312" lon="10.93676831374339"><ele>383.0</ele><time>2026-04-18T10:24:15.001Z</time></trkpt><trkpt lat="43.4098319191373" lon="10.936682891123985"><ele>383.0</ele><time>2026-04-18T10:24:16.001Z</time></trkpt><trkpt lat="43.409841186704604" lon="10.936537401175245"><ele>383.0</ele><time>2026-04-18T10:24:18.001Z</time></trkpt><trkpt lat="43.40981661163376" lon="10.936452000553839"><ele>383.0</ele><time>2026-04-18T10:24:19.001Z</time></trkpt><trkpt lat="43.409770609864424" lon="10.936336055084908"><ele>383.0</ele><time>2026-04-18T10:24:20.001Z</time></trkpt><trkpt lat="43.40967954377606" lon="10.936215141557305"><ele>381.0</ele><time>2026-04-18T10:24:21.001Z</time></trkpt><trkpt lat="43.409599653280154" lon="10.936124094245528"><ele>379.0</ele><time>2026-04-18T10:24:22.001Z</time></trkpt><trkpt lat="43.409502884078755" lon="10.93603211151608"><ele>377.0</ele><time>2026-04-18T10:24:23.001Z</time></trkpt><trkpt lat="43.40940802376304" lon="10.935925096884041"><ele>375.0</ele><time>2026-04-18T10:24:24.001Z</time></trkpt><trkpt lat="43.40930864732158" lon="10.935826281010687"><ele>374.75</ele><time>2026-04-18T10:24:25.001Z</time></trkpt><trkpt lat="43.409218361085074" lon="10.93572492642781"><ele>374.5</ele><time>2026-04-18T10:24:26.001Z</time></trkpt><trkpt lat="43.40913250222556" lon="10.93563534050871"><ele>374.25</ele><time>2026-04-18T10:24:27.001Z</time></trkpt><trkpt lat="43.40903679382291" lon="10.935533811390206"><ele>374.0</ele><time>2026-04-18T10:24:28.001Z</time></trkpt><trkpt lat="43.408946007254066" lon="10.935445434032765"><ele>374.0</ele><time>2026-04-18T10:24:29.001Z</time></trkpt><trkpt lat="43.40887724649431" lon="10.935377767801363"><ele>374.0</ele><time>2026-04-18T10:24:30.001Z</time></trkpt><trkpt lat="43.40882545506206" lon="10.935294626208737"><ele>374.0</ele><time>2026-04-18T10:24:31.001Z</time></trkpt><trkpt lat="43.40877954382956" lon="10.935210918100367"><ele>374.0</ele><time>2026-04-18T10:24:32.001Z</time></trkpt><trkpt lat="43.40873829958975" lon="10.935103326585196"><ele>374.0</ele><time>2026-04-18T10:24:33.001Z</time></trkpt><trkpt lat="43.408697213760384" lon="10.934960224142438"><ele>374.0</ele><time>2026-04-18T10:24:34.001Z</time></trkpt><trkpt lat="43.40867132466052" lon="10.934791765007594"><ele>372.25</ele><time>2026-04-18T10:24:35.001Z</time></trkpt><trkpt lat="43.408649954242776" lon="10.934615075609873"><ele>370.5</ele><time>2026-04-18T10:24:36.001Z</time></trkpt><trkpt lat="43.40863352191307" lon="10.93443826094986"><ele>368.75</ele><time>2026-04-18T10:24:37.001Z</time></trkpt><trkpt lat="43.40862053523405" lon="10.93426045773782"><ele>367.0</ele><time>2026-04-18T10:24:38.001Z</time></trkpt><trkpt lat="43.408612984413395" lon="10.934084602316839"><ele>367.0</ele><time>2026-04-18T10:24:39.001Z</time></trkpt><trkpt lat="43.40858247742274" lon="10.933886626960168"><ele>367.0</ele><time>2026-04-18T10:24:40.001Z</time></trkpt><trkpt lat="43.4085559776425" lon="10.933714333226723"><ele>367.0</ele><time>2026-04-18T10:24:41.001Z</time></trkpt><trkpt lat="43.40853223158723" lon="10.933563571720502"><ele>367.0</ele><time>2026-04-18T10:24:42.001Z</time></trkpt><trkpt lat="43.40851427905206" lon="10.933413050715146"><ele>367.0</ele><time>2026-04-18T10:24:43.001Z</time></trkpt><trkpt lat="43.40849132535479" lon="10.933252970916646"><ele>367.0</ele><time>2026-04-18T10:24:44.001Z</time></trkpt><trkpt lat="43.40846335497387" lon="10.933093067275973"><ele>367.0</ele><time>2026-04-18T10:24:45.001Z</time></trkpt><trkpt lat="43.40841981402718" lon="10.932940264425298"><ele>367.0</ele><time>2026-04-18T10:24:46.001Z</time></trkpt><trkpt lat="43.40836152277689" lon="10.932797121680416"><ele>367.0</ele><time>2026-04-18T10:24:47.001Z</time></trkpt><trkpt lat="43.40829195729087" lon="10.932642011620596"><ele>367.0</ele><time>2026-04-18T10:24:48.001Z</time></trkpt><trkpt lat="43.40821931599755" lon="10.93247870848386"><ele>367.0</ele><time>2026-04-18T10:24:49.001Z</time></trkpt><trkpt lat="43.4081438807121" lon="10.932326512990437"><ele>367.0</ele><time>2026-04-18T10:24:50.001Z</time></trkpt><trkpt lat="43.40808495288727" lon="10.932186994719205"><ele>366.75</ele><time>2026-04-18T10:24:51.001Z</time></trkpt><trkpt lat="43.408058670935745" lon="10.932067489038623"><ele>366.5</ele><time>2026-04-18T10:24:52.001Z</time></trkpt><trkpt lat="43.40802210582136" lon="10.931911073857968"><ele>366.25</ele><time>2026-04-18T10:24:53.001Z</time></trkpt><trkpt lat="43.40797266782192" lon="10.931751740793883"><ele>366.0</ele><time>2026-04-18T10:24:54.001Z</time></trkpt><trkpt lat="43.40791093671966" lon="10.931591144425493"><ele>366.0</ele><time>2026-04-18T10:24:55.001Z</time></trkpt><trkpt lat="43.407836679092284" lon="10.931433844495169"><ele>366.0</ele><time>2026-04-18T10:24:56.001Z</time></trkpt><trkpt lat="43.407753927297605" lon="10.931273158280739"><ele>366.0</ele><time>2026-04-18T10:24:57.001Z</time></trkpt><trkpt lat="43.40767471233058" lon="10.931124076575953"><ele>366.0</ele><time>2026-04-18T10:24:58.001Z</time></trkpt><trkpt lat="43.40760046884429" lon="10.930968699772125"><ele>367.0</ele><time>2026-04-18T10:24:59.001Z</time></trkpt><trkpt lat="43.40753759262104" lon="10.93085057708929"><ele>368.0</ele><time>2026-04-18T10:25:00.001Z</time></trkpt><trkpt lat="43.40747512386677" lon="10.930714445182032"><ele>369.0</ele><time>2026-04-18T10:25:01.001Z</time></trkpt><trkpt lat="43.40741732506882" lon="10.93060667988293"><ele>370.0</ele><time>2026-04-18T10:25:02.001Z</time></trkpt><trkpt lat="43.40737740355489" lon="10.93051863314203"><ele>371.0</ele><time>2026-04-18T10:25:03.001Z</time></trkpt><trkpt lat="43.407361172588786" lon="10.93042678010326"><ele>371.0</ele><time>2026-04-18T10:25:04.001Z</time></trkpt><trkpt lat="43.40735502539059" lon="10.930320320060739"><ele>371.0</ele><time>2026-04-18T10:25:05.001Z</time></trkpt><trkpt lat="43.40735204343455" lon="10.930181783749214"><ele>371.0</ele><time>2026-04-18T10:25:06.001Z</time></trkpt><trkpt lat="43.407353294955875" lon="10.930029326677893"><ele>371.0</ele><time>2026-04-18T10:25:07.001Z</time></trkpt><trkpt lat="43.40736678005381" lon="10.929833957722291"><ele>371.0</ele><time>2026-04-18T10:25:08.001Z</time></trkpt><trkpt lat="43.40736663910804" lon="10.929628159290987"><ele>371.0</ele><time>2026-04-18T10:25:09.001Z</time></trkpt><trkpt lat="43.4073556586177" lon="10.929432340365135"><ele>371.0</ele><time>2026-04-18T10:25:10.001Z</time></trkpt><trkpt lat="43.40735057754301" lon="10.929224022224584"><ele>371.0</ele><time>2026-04-18T10:25:11.001Z</time></trkpt><trkpt lat="43.407348694813244" lon="10.929034507988057"><ele>371.0</ele><time>2026-04-18T10:25:12Z</time></trkpt><trkpt lat="43.40733648267777" lon="10.928877423510242"><ele>370.6</ele><time>2026-04-18T10:25:13Z</time></trkpt><trkpt lat="43.40733536473984" lon="10.928737897471562"><ele>370.20000000000005</ele><time>2026-04-18T10:25:14Z</time></trkpt><trkpt lat="43.407306367181526" lon="10.92858726123891"><ele>369.79999999999995</ele><time>2026-04-18T10:25:15Z</time></trkpt><trkpt lat="43.40727196848015" lon="10.928473113853672"><ele>369.4</ele><time>2026-04-18T10:25:16Z</time></trkpt><trkpt lat="43.40721958124867" lon="10.928360744269535"><ele>369.0</ele><time>2026-04-18T10:25:17Z</time></trkpt><trkpt lat="43.40714189858565" lon="10.928263018656944"><ele>368.25</ele><time>2026-04-18T10:25:18Z</time></trkpt><trkpt lat="43.407039009749" lon="10.92815549478701"><ele>367.5</ele><time>2026-04-18T10:25:19Z</time></trkpt><trkpt lat="43.406938527150395" lon="10.928048532774316"><ele>366.75</ele><time>2026-04-18T10:25:20Z</time></trkpt><trkpt lat="43.40685168386978" lon="10.927934983696737"><ele>366.0</ele><time>2026-04-18T10:25:21Z</time></trkpt><trkpt lat="43.40676391705234" lon="10.927821635842006"><ele>366.0</ele><time>2026-04-18T10:25:22Z</time></trkpt><trkpt lat="43.40669841784469" lon="10.927746992225968"><ele>366.0</ele><time>2026-04-18T10:25:23Z</time></trkpt><trkpt lat="43.40665252921967" lon="10.927671081515136"><ele>366.0</ele><time>2026-04-18T10:25:24Z</time></trkpt><trkpt lat="43.40660586274504" lon="10.927552553048487"><ele>366.0</ele><time>2026-04-18T10:25:25Z</time></trkpt><trkpt lat="43.40657276422033" lon="10.927395259282868"><ele>366.0</ele><time>2026-04-18T10:25:26Z</time></trkpt><trkpt lat="43.406533881582654" lon="10.927189811545649"><ele>368.5</ele><time>2026-04-18T10:25:27Z</time></trkpt><trkpt lat="43.406482222796235" lon="10.927000992728315"><ele>371.0</ele><time>2026-04-18T10:25:28Z</time></trkpt><trkpt lat="43.40642146980298" lon="10.92684585167893"><ele>373.5</ele><time>2026-04-18T10:25:29Z</time></trkpt><trkpt lat="43.40635064824343" lon="10.926704929189864"><ele>376.0</ele><time>2026-04-18T10:25:30Z</time></trkpt><trkpt lat="43.40626125464159" lon="10.926581302236624"><ele>376.5</ele><time>2026-04-18T10:25:31Z</time></trkpt><trkpt lat="43.40615053789244" lon="10.92645998798512"><ele>377.0</ele><time>2026-04-18T10:25:32Z</time></trkpt><trkpt lat="43.40603530778862" lon="10.92633482750694"><ele>377.5</ele><time>2026-04-18T10:25:33Z</time></trkpt><trkpt lat="43.40593209931719" lon="10.926212735523801"><ele>378.0</ele><time>2026-04-18T10:25:34Z</time></trkpt><trkpt lat="43.40584056059094" lon="10.926096638820011"><ele>378.0</ele><time>2026-04-18T10:25:35Z</time></trkpt><trkpt lat="43.40574340128347" lon="10.925968337866472"><ele>378.0</ele><time>2026-04-18T10:25:36Z</time></trkpt><trkpt lat="43.405640719236466" lon="10.92583501855068"><ele>378.0</ele><time>2026-04-18T10:25:37Z</time></trkpt><trkpt lat="43.405540474858405" lon="10.925689039061465"><ele>378.0</ele><time>2026-04-18T10:25:38Z</time></trkpt><trkpt lat="43.40543588230296" lon="10.925542029684367"><ele>377.0</ele><time>2026-04-18T10:25:39Z</time></trkpt><trkpt lat="43.405325142663806" lon="10.92538858217998"><ele>376.0</ele><time>2026-04-18T10:25:40Z</time></trkpt><trkpt lat="43.40519556737975" lon="10.925238259063732"><ele>375.0</ele><time>2026-04-18T10:25:41Z</time></trkpt><trkpt lat="43.405038146491144" lon="10.925086235886011"><ele>375.3333333333333</ele><time>2026-04-18T10:25:42.001Z</time></trkpt><trkpt lat="43.404859872947284" lon="10.924933973937582"><ele>375.66666666666663</ele><time>2026-04-18T10:25:43.001Z</time></trkpt><trkpt lat="43.404681576729985" lon="10.924779897007046"><ele>376.0</ele><time>2026-04-18T10:25:44.001Z</time></trkpt><trkpt lat="43.40451055875233" lon="10.924623882622711"><ele>376.0</ele><time>2026-04-18T10:25:45.001Z</time></trkpt><trkpt lat="43.40435594293663" lon="10.924475700101516"><ele>376.0</ele><time>2026-04-18T10:25:46.001Z</time></trkpt><trkpt lat="43.40423395464513" lon="10.924346513339408"><ele>376.0</ele><time>2026-04-18T10:25:47.001Z</time></trkpt><trkpt lat="43.4041185822144" lon="10.924220910154267"><ele>375.25</ele><time>2026-04-18T10:25:48.001Z</time></trkpt><trkpt lat="43.404016889860394" lon="10.924107501956648"><ele>374.5</ele><time>2026-04-18T10:25:49.001Z</time></trkpt><trkpt lat="43.40392114642615" lon="10.923990969577833"><ele>373.75</ele><time>2026-04-18T10:25:50.001Z</time></trkpt><trkpt lat="43.40383447082878" lon="10.923869002296053"><ele>373.0</ele><time>2026-04-18T10:25:51.001Z</time></trkpt><trkpt lat="43.4037502815919" lon="10.923755666221878"><ele>373.0</ele><time>2026-04-18T10:25:52.001Z</time></trkpt><trkpt lat="43.40367436150538" lon="10.923633538387506"><ele>373.0</ele><time>2026-04-18T10:25:53.001Z</time></trkpt><trkpt lat="43.40360005132863" lon="10.923489826503896"><ele>373.0</ele><time>2026-04-18T10:25:54.001Z</time></trkpt><trkpt lat="43.403541646048936" lon="10.9233225731771"><ele>373.0</ele><time>2026-04-18T10:25:55.001Z</time></trkpt><trkpt lat="43.403502686912674" lon="10.923136238513337"><ele>373.75</ele><time>2026-04-18T10:25:56.001Z</time></trkpt><trkpt lat="43.40347071978783" lon="10.922948512653255"><ele>374.5</ele><time>2026-04-18T10:25:57.001Z</time></trkpt><trkpt lat="43.403428037230306" lon="10.922781492805736"><ele>375.25</ele><time>2026-04-18T10:25:58.001Z</time></trkpt><trkpt lat="43.40337746107516" lon="10.922608319103515"><ele>376.0</ele><time>2026-04-18T10:25:59.001Z</time></trkpt><trkpt lat="43.40332152036027" lon="10.922426329081707"><ele>376.0</ele><time>2026-04-18T10:26:00.001Z</time></trkpt><trkpt lat="43.403267291356876" lon="10.922252574266498"><ele>376.0</ele><time>2026-04-18T10:26:01.001Z</time></trkpt><trkpt lat="43.40322041811256" lon="10.922101720735322"><ele>376.0</ele><time>2026-04-18T10:26:02.001Z</time></trkpt><trkpt lat="43.403190837659785" lon="10.921961101453235"><ele>376.0</ele><time>2026-04-18T10:26:03.001Z</time></trkpt><trkpt lat="43.40316407027941" lon="10.921826257236015"><ele>375.20000000000005</ele><time>2026-04-18T10:26:04.001Z</time></trkpt><trkpt lat="43.40312910935647" lon="10.9216841381114"><ele>374.40000000000003</ele><time>2026-04-18T10:26:05.001Z</time></trkpt><trkpt lat="43.403098450244904" lon="10.921549079241771"><ele>373.6</ele><time>2026-04-18T10:26:06.001Z</time></trkpt><trkpt lat="43.403078082072085" lon="10.921430567696865"><ele>372.8</ele><time>2026-04-18T10:26:07.001Z</time></trkpt><trkpt lat="43.403066246411505" lon="10.921314329545059"><ele>372.0</ele><time>2026-04-18T10:26:08.001Z</time></trkpt><trkpt lat="43.40306590656671" lon="10.921196195790856"><ele>372.0</ele><time>2026-04-18T10:26:09.001Z</time></trkpt><trkpt lat="43.403082038220646" lon="10.921059564400563"><ele>372.0</ele><time>2026-04-18T10:26:10.001Z</time></trkpt><trkpt lat="43.40311909357039" lon="10.920916291629537"><ele>372.0</ele><time>2026-04-18T10:26:11.001Z</time></trkpt><trkpt lat="43.40316550949481" lon="10.920766451373009"><ele>372.0</ele><time>2026-04-18T10:26:12.001Z</time></trkpt><trkpt lat="43.403226117263735" lon="10.920620039034706"><ele>371.0</ele><time>2026-04-18T10:26:13.001Z</time></trkpt><trkpt lat="43.40329277906412" lon="10.920468249249467"><ele>370.0</ele><time>2026-04-18T10:26:14.001Z</time></trkpt><trkpt lat="43.4033485092125" lon="10.92032373348182"><ele>369.0</ele><time>2026-04-18T10:26:15.001Z</time></trkpt><trkpt lat="43.40339752006403" lon="10.920195859835326"><ele>368.0</ele><time>2026-04-18T10:26:16.001Z</time></trkpt><trkpt lat="43.403452520983244" lon="10.920058853151946"><ele>367.5</ele><time>2026-04-18T10:26:17.001Z</time></trkpt><trkpt lat="43.40349508778896" lon="10.9199186874616"><ele>367.0</ele><time>2026-04-18T10:26:18.001Z</time></trkpt><trkpt lat="43.403540984456534" lon="10.919777101815125"><ele>366.5</ele><time>2026-04-18T10:26:19.001Z</time></trkpt><trkpt lat="43.403586444746935" lon="10.919634415662916"><ele>366.0</ele><time>2026-04-18T10:26:20.001Z</time></trkpt><trkpt lat="43.40363339944775" lon="10.919472769905244"><ele>366.0</ele><time>2026-04-18T10:26:21.001Z</time></trkpt><trkpt lat="43.40367669501829" lon="10.919296168388698"><ele>366.0</ele><time>2026-04-18T10:26:22.001Z</time></trkpt><trkpt lat="43.40371097559231" lon="10.91913141024491"><ele>366.0</ele><time>2026-04-18T10:26:23.001Z</time></trkpt><trkpt lat="43.40374193126326" lon="10.918978590437828"><ele>366.0</ele><time>2026-04-18T10:26:24.001Z</time></trkpt><trkpt lat="43.40376742261904" lon="10.918820898415255"><ele>365.20000000000005</ele><time>2026-04-18T10:26:25.001Z</time></trkpt><trkpt lat="43.403781702252715" lon="10.918679034000634"><ele>364.40000000000003</ele><time>2026-04-18T10:26:26.001Z</time></trkpt><trkpt lat="43.40377901653264" lon="10.91854085034514"><ele>363.6</ele><time>2026-04-18T10:26:27.001Z</time></trkpt><trkpt lat="43.403764511403594" lon="10.918400738940758"><ele>362.8</ele><time>2026-04-18T10:26:28.001Z</time></trkpt><trkpt lat="43.40374570446278" lon="10.918271412148048"><ele>362.0</ele><time>2026-04-18T10:26:29.001Z</time></trkpt><trkpt lat="43.40370637215075" lon="10.9181592189836"><ele>360.8</ele><time>2026-04-18T10:26:30.001Z</time></trkpt><trkpt lat="43.40365103669872" lon="10.918035554981204"><ele>359.6</ele><time>2026-04-18T10:26:31.001Z</time></trkpt><trkpt lat="43.40357618441664" lon="10.91789953414027"><ele>358.40000000000003</ele><time>2026-04-18T10:26:32.001Z</time></trkpt><trkpt lat="43.40350554286305" lon="10.917775430010384"><ele>357.20000000000005</ele><time>2026-04-18T10:26:33.001Z</time></trkpt><trkpt lat="43.40344628652681" lon="10.917658061992018"><ele>356.0</ele><time>2026-04-18T10:26:34.001Z</time></trkpt><trkpt lat="43.40340504445532" lon="10.917530677651532"><ele>354.6</ele><time>2026-04-18T10:26:35.001Z</time></trkpt><trkpt lat="43.40336985393674" lon="10.917373168606485"><ele>353.20000000000005</ele><time>2026-04-18T10:26:36.001Z</time></trkpt><trkpt lat="43.403350077198866" lon="10.917221470775614"><ele>351.79999999999995</ele><time>2026-04-18T10:26:37.001Z</time></trkpt><trkpt lat="43.40332943422681" lon="10.917102865889126"><ele>350.4</ele><time>2026-04-18T10:26:38.001Z</time></trkpt><trkpt lat="43.4033071333887" lon="10.91698781423212"><ele>349.0</ele><time>2026-04-18T10:26:39.001Z</time></trkpt><trkpt lat="43.403274648212346" lon="10.91687318865909"><ele>349.0</ele><time>2026-04-18T10:26:40.001Z</time></trkpt><trkpt lat="43.40322326939519" lon="10.916770829740614"><ele>349.0</ele><time>2026-04-18T10:26:41.001Z</time></trkpt><trkpt lat="43.403141914571734" lon="10.916647926435049"><ele>349.0</ele><time>2026-04-18T10:26:42.001Z</time></trkpt><trkpt lat="43.40303581482856" lon="10.916523233472311"><ele>349.0</ele><time>2026-04-18T10:26:43.001Z</time></trkpt><trkpt lat="43.40292047063958" lon="10.916400277832675"><ele>348.75</ele><time>2026-04-18T10:26:44.001Z</time></trkpt><trkpt lat="43.402804853148844" lon="10.916271340328558"><ele>348.5</ele><time>2026-04-18T10:26:45.001Z</time></trkpt><trkpt lat="43.402700677720354" lon="10.916169637900675"><ele>348.25</ele><time>2026-04-18T10:26:46.001Z</time></trkpt><trkpt lat="43.402616586717286" lon="10.916077107698321"><ele>348.0</ele><time>2026-04-18T10:26:47.001Z</time></trkpt><trkpt lat="43.40253618377944" lon="10.915998893084504"><ele>348.0</ele><time>2026-04-18T10:26:48.001Z</time></trkpt><trkpt lat="43.402452610553574" lon="10.91593057141288"><ele>348.0</ele><time>2026-04-18T10:26:49.001Z</time></trkpt><trkpt lat="43.40237107814015" lon="10.915858499651725"><ele>348.0</ele><time>2026-04-18T10:26:50.001Z</time></trkpt><trkpt lat="43.40230730304624" lon="10.915795099809957"><ele>348.0</ele><time>2026-04-18T10:26:51.001Z</time></trkpt><trkpt lat="43.40222384244084" lon="10.915726150217079"><ele>348.0</ele><time>2026-04-18T10:26:53.001Z</time></trkpt><trkpt lat="43.40219690674824" lon="10.915625893449908"><ele>348.0</ele><time>2026-04-18T10:26:55.001Z</time></trkpt><trkpt lat="43.402266755559424" lon="10.915502104718609"><ele>346.0</ele><time>2026-04-18T10:26:57.001Z</time></trkpt><trkpt lat="43.40235697280686" lon="10.915455467178049"><ele>344.0</ele><time>2026-04-18T10:26:58.001Z</time></trkpt><trkpt lat="43.40246316397251" lon="10.915412649232655"><ele>342.0</ele><time>2026-04-18T10:26:59.001Z</time></trkpt><trkpt lat="43.40255374812822" lon="10.91537120637453"><ele>340.0</ele><time>2026-04-18T10:27:00.001Z</time></trkpt><trkpt lat="43.402627102965326" lon="10.91531723162636"><ele>338.0</ele><time>2026-04-18T10:27:01.001Z</time></trkpt><trkpt lat="43.402690911561" lon="10.915234123176488"><ele>338.0</ele><time>2026-04-18T10:27:02.001Z</time></trkpt><trkpt lat="43.402746923914975" lon="10.915109311619018"><ele>338.0</ele><time>2026-04-18T10:27:03.001Z</time></trkpt><trkpt lat="43.40278889246451" lon="10.91493874274098"><ele>338.0</ele><time>2026-04-18T10:27:04.001Z</time></trkpt><trkpt lat="43.402830814395564" lon="10.9147378601359"><ele>338.0</ele><time>2026-04-18T10:27:05.001Z</time></trkpt><trkpt lat="43.40287349745559" lon="10.914532205234808"><ele>334.6666666666667</ele><time>2026-04-18T10:27:06.001Z</time></trkpt><trkpt lat="43.402913014354816" lon="10.914326758692216"><ele>331.3333333333333</ele><time>2026-04-18T10:27:07.001Z</time></trkpt><trkpt lat="43.40294620620842" lon="10.914125118721316"><ele>328.0</ele><time>2026-04-18T10:27:08.001Z</time></trkpt><trkpt lat="43.40297507525522" lon="10.913922621924756"><ele>326.0</ele><time>2026-04-18T10:27:09.001Z</time></trkpt><trkpt lat="43.4029987819336" lon="10.913701670245255"><ele>324.0</ele><time>2026-04-18T10:27:10.001Z</time></trkpt><trkpt lat="43.4030079347014" lon="10.913467788041885"><ele>322.0</ele><time>2026-04-18T10:27:11.001Z</time></trkpt><trkpt lat="43.403009314795895" lon="10.913222157575863"><ele>322.3333333333333</ele><time>2026-04-18T10:27:12.001Z</time></trkpt><trkpt lat="43.4029948843461" lon="10.912975824026374"><ele>322.6666666666667</ele><time>2026-04-18T10:27:13.001Z</time></trkpt><trkpt lat="43.40296755181327" lon="10.912719369043225"><ele>323.0</ele><time>2026-04-18T10:27:14.001Z</time></trkpt><trkpt lat="43.402935080821685" lon="10.912435319053493"><ele>323.0</ele><time>2026-04-18T10:27:15.001Z</time></trkpt><trkpt lat="43.40289741977821" lon="10.91213307457475"><ele>323.0</ele><time>2026-04-18T10:27:16.001Z</time></trkpt><trkpt lat="43.40286506429141" lon="10.91183135675729"><ele>323.0</ele><time>2026-04-18T10:27:17.001Z</time></trkpt><trkpt lat="43.402830521475884" lon="10.911535459463643"><ele>325.0</ele><time>2026-04-18T10:27:18.001Z</time></trkpt><trkpt lat="43.4027951901977" lon="10.911238234163662"><ele>327.0</ele><time>2026-04-18T10:27:19.001Z</time></trkpt><trkpt lat="43.40276062446181" lon="10.910945997217873"><ele>329.0</ele><time>2026-04-18T10:27:20.001Z</time></trkpt><trkpt lat="43.40273203182279" lon="10.910769853825872"><ele>331.0</ele><time>2026-04-18T10:27:21Z</time></trkpt><trkpt lat="43.40268893586022" lon="10.910573834526241"><ele>333.0</ele><time>2026-04-18T10:27:22Z</time></trkpt><trkpt lat="43.402622653447395" lon="10.910385761897132"><ele>335.0</ele><time>2026-04-18T10:27:23Z</time></trkpt><trkpt lat="43.402529239565034" lon="10.910159337957767"><ele>337.6666666666667</ele><time>2026-04-18T10:27:24Z</time></trkpt><trkpt lat="43.40243991475957" lon="10.909936451880618"><ele>340.3333333333333</ele><time>2026-04-18T10:27:25Z</time></trkpt><trkpt lat="43.402363144123484" lon="10.90972079099197"><ele>343.0</ele><time>2026-04-18T10:27:26Z</time></trkpt><trkpt lat="43.402283966651574" lon="10.909502338146975"><ele>343.0</ele><time>2026-04-18T10:27:27Z</time></trkpt><trkpt lat="43.40220581752176" lon="10.909303688224927"><ele>343.0</ele><time>2026-04-18T10:27:28Z</time></trkpt><trkpt lat="43.40213380471153" lon="10.90911040501796"><ele>343.0</ele><time>2026-04-18T10:27:29Z</time></trkpt><trkpt lat="43.40206763130032" lon="10.908934939457405"><ele>343.5</ele><time>2026-04-18T10:27:30Z</time></trkpt><trkpt lat="43.40201425256088" lon="10.908788361605371"><ele>344.0</ele><time>2026-04-18T10:27:31Z</time></trkpt><trkpt lat="43.4019757706341" lon="10.908672273472328"><ele>344.5</ele><time>2026-04-18T10:27:32Z</time></trkpt><trkpt lat="43.40193410630175" lon="10.908584362457683"><ele>345.0</ele><time>2026-04-18T10:27:33Z</time></trkpt><trkpt lat="43.40188582286781" lon="10.90852412112165"><ele>345.5</ele><time>2026-04-18T10:27:34Z</time></trkpt><trkpt lat="43.40181904083038" lon="10.908475292029664"><ele>346.0</ele><time>2026-04-18T10:27:35Z</time></trkpt><trkpt lat="43.401737361326475" lon="10.908464190591753"><ele>346.0</ele><time>2026-04-18T10:27:36Z</time></trkpt><trkpt lat="43.40165830503193" lon="10.908470856667998"><ele>346.0</ele><time>2026-04-18T10:27:37Z</time></trkpt><trkpt lat="43.40156258082251" lon="10.908488836484795"><ele>346.0</ele><time>2026-04-18T10:27:38Z</time></trkpt><trkpt lat="43.4014479954454" lon="10.908505066952282"><ele>346.0</ele><time>2026-04-18T10:27:39Z</time></trkpt><trkpt lat="43.40134158211062" lon="10.908517920331589"><ele>346.0</ele><time>2026-04-18T10:27:40Z</time></trkpt><trkpt lat="43.40124918854901" lon="10.908526522873528"><ele>346.0</ele><time>2026-04-18T10:27:41Z</time></trkpt><trkpt lat="43.40115482340378" lon="10.908538426078938"><ele>346.0</ele><time>2026-04-18T10:27:42Z</time></trkpt><trkpt lat="43.40104779450578" lon="10.908559812738087"><ele>346.0</ele><time>2026-04-18T10:27:43Z</time></trkpt><trkpt lat="43.40094652870851" lon="10.908571131373149"><ele>346.0</ele><time>2026-04-18T10:27:44.001Z</time></trkpt><trkpt lat="43.40084976399838" lon="10.90857807021145"><ele>346.0</ele><time>2026-04-18T10:27:45.001Z</time></trkpt><trkpt lat="43.40074921958917" lon="10.908592580706008"><ele>346.0</ele><time>2026-04-18T10:27:46.001Z</time></trkpt><trkpt lat="43.400638601057764" lon="10.908597274995932"><ele>346.0</ele><time>2026-04-18T10:27:47.001Z</time></trkpt><trkpt lat="43.400528994438304" lon="10.908614086268086"><ele>346.0</ele><time>2026-04-18T10:27:48.001Z</time></trkpt><trkpt lat="43.400423348612556" lon="10.908627123379823"><ele>346.0</ele><time>2026-04-18T10:27:49.001Z</time></trkpt><trkpt lat="43.40033951939194" lon="10.908646493057216"><ele>346.0</ele><time>2026-04-18T10:27:50.001Z</time></trkpt><trkpt lat="43.40027117504779" lon="10.9086573244642"><ele>346.4</ele><time>2026-04-18T10:27:51.001Z</time></trkpt><trkpt lat="43.40019420945937" lon="10.908582592883063"><ele>346.8</ele><time>2026-04-18T10:27:53.001Z</time></trkpt><trkpt lat="43.40014162320762" lon="10.90841169564431"><ele>347.2</ele><time>2026-04-18T10:27:55.001Z</time></trkpt><trkpt lat="43.400116520461005" lon="10.908310241751902"><ele>347.59999999999997</ele><time>2026-04-18T10:27:56.001Z</time></trkpt><trkpt lat="43.4000751024752" lon="10.908200783395323"><ele>348.0</ele><time>2026-04-18T10:27:57.001Z</time></trkpt><trkpt lat="43.40002804030811" lon="10.908089586814455"><ele>348.59999999999997</ele><time>2026-04-18T10:27:58.001Z</time></trkpt><trkpt lat="43.39998970489176" lon="10.907999741242637"><ele>349.2</ele><time>2026-04-18T10:27:59.001Z</time></trkpt><trkpt lat="43.39996869731254" lon="10.907893109665153"><ele>349.8</ele><time>2026-04-18T10:28:00.001Z</time></trkpt><trkpt lat="43.399972978922335" lon="10.907755338101868"><ele>350.4</ele><time>2026-04-18T10:28:01.001Z</time></trkpt><trkpt lat="43.40000538376652" lon="10.907594894275727"><ele>351.0</ele><time>2026-04-18T10:28:02.001Z</time></trkpt><trkpt lat="43.40005220158147" lon="10.90740871948246"><ele>349.25</ele><time>2026-04-18T10:28:03.001Z</time></trkpt><trkpt lat="43.40009465684142" lon="10.90720838184202"><ele>347.5</ele><time>2026-04-18T10:28:04.001Z</time></trkpt><trkpt lat="43.40013262947942" lon="10.907033757834256"><ele>345.75</ele><time>2026-04-18T10:28:05.001Z</time></trkpt><trkpt lat="43.400173489258805" lon="10.90688612266118"><ele>344.0</ele><time>2026-04-18T10:28:06.001Z</time></trkpt><trkpt lat="43.400198993577575" lon="10.906747982092996"><ele>343.0</ele><time>2026-04-18T10:28:07.001Z</time></trkpt><trkpt lat="43.400235731266456" lon="10.906619661293785"><ele>342.0</ele><time>2026-04-18T10:28:08.001Z</time></trkpt><trkpt lat="43.40026568409836" lon="10.906500240316383"><ele>341.0</ele><time>2026-04-18T10:28:09.001Z</time></trkpt><trkpt lat="43.40028523067379" lon="10.906363773302424"><ele>340.0</ele><time>2026-04-18T10:28:10.001Z</time></trkpt><trkpt lat="43.40028075765712" lon="10.906223855859306"><ele>339.0</ele><time>2026-04-18T10:28:11.001Z</time></trkpt><trkpt lat="43.400253382479036" lon="10.906075026370884"><ele>339.0</ele><time>2026-04-18T10:28:12.001Z</time></trkpt><trkpt lat="43.40020192067977" lon="10.905922249626947"><ele>339.0</ele><time>2026-04-18T10:28:13.001Z</time></trkpt><trkpt lat="43.40012487549733" lon="10.905762732190656"><ele>339.0</ele><time>2026-04-18T10:28:14.001Z</time></trkpt><trkpt lat="43.40003270473882" lon="10.905583715090174"><ele>339.0</ele><time>2026-04-18T10:28:15.001Z</time></trkpt><trkpt lat="43.39995528117664" lon="10.90541799707436"><ele>339.3333333333333</ele><time>2026-04-18T10:28:16.001Z</time></trkpt><trkpt lat="43.39990562094426" lon="10.905292944144307"><ele>339.6666666666667</ele><time>2026-04-18T10:28:17.001Z</time></trkpt><trkpt lat="43.39986782413941" lon="10.90518085955947"><ele>340.0</ele><time>2026-04-18T10:28:18.001Z</time></trkpt><trkpt lat="43.39984665068157" lon="10.905080944705812"><ele>340.33333333333337</ele><time>2026-04-18T10:28:19.001Z</time></trkpt><trkpt lat="43.39981650602353" lon="10.904958087017231"><ele>340.6666666666667</ele><time>2026-04-18T10:28:21.001Z</time></trkpt><trkpt lat="43.399751056300126" lon="10.904923287229048"><ele>341.0</ele><time>2026-04-18T10:28:23.001Z</time></trkpt><trkpt lat="43.39967287414062" lon="10.905013754647307"><ele>341.0</ele><time>2026-04-18T10:28:25.001Z</time></trkpt><trkpt lat="43.399658189273495" lon="10.905115777106255"><ele>341.0</ele><time>2026-04-18T10:28:26.001Z</time></trkpt><trkpt lat="43.39965789075539" lon="10.905228013912323"><ele>341.0</ele><time>2026-04-18T10:28:27.001Z</time></trkpt><trkpt lat="43.39968056697593" lon="10.905338193951586"><ele>341.0</ele><time>2026-04-18T10:28:28.001Z</time></trkpt><trkpt lat="43.39972029608878" lon="10.905412855252587"><ele>341.0</ele><time>2026-04-18T10:28:29.001Z</time></trkpt><trkpt lat="43.399751904046404" lon="10.90551621567534"><ele>341.0</ele><time>2026-04-18T10:28:31.001Z</time></trkpt><trkpt lat="43.39969503360096" lon="10.905590275316111"><ele>335.6</ele><time>2026-04-18T10:28:33.001Z</time></trkpt><trkpt lat="43.39958005754905" lon="10.905576681949467"><ele>330.20000000000005</ele><time>2026-04-18T10:28:35.001Z</time></trkpt><trkpt lat="43.399523408697846" lon="10.905516800378498"><ele>324.79999999999995</ele><time>2026-04-18T10:28:36.001Z</time></trkpt><trkpt lat="43.39946432310305" lon="10.905421698016475"><ele>319.4</ele><time>2026-04-18T10:28:37.001Z</time></trkpt><trkpt lat="43.399418462435484" lon="10.905306876538019"><ele>314.0</ele><time>2026-04-18T10:28:38.001Z</time></trkpt><trkpt lat="43.399391858759905" lon="10.905154472202593"><ele>314.33333333333337</ele><time>2026-04-18T10:28:39.001Z</time></trkpt><trkpt lat="43.39936319039371" lon="10.905023221196469"><ele>314.6666666666667</ele><time>2026-04-18T10:28:40.001Z</time></trkpt><trkpt lat="43.399322833596266" lon="10.9049245559669"><ele>315.0</ele><time>2026-04-18T10:28:41.001Z</time></trkpt><trkpt lat="43.399288049249705" lon="10.9048505385622"><ele>315.3333333333333</ele><time>2026-04-18T10:28:42.001Z</time></trkpt><trkpt lat="43.399256569780825" lon="10.904701724742312"><ele>315.66666666666663</ele><time>2026-04-18T10:28:44.001Z</time></trkpt><trkpt lat="43.39926789301229" lon="10.904608696875748"><ele>316.0</ele><time>2026-04-18T10:28:45.001Z</time></trkpt><trkpt lat="43.3992888385564" lon="10.904524346165118"><ele>316.0</ele><time>2026-04-18T10:28:46.001Z</time></trkpt><trkpt lat="43.399357249609466" lon="10.904437583804791"><ele>316.0</ele><time>2026-04-18T10:28:48.001Z</time></trkpt><trkpt lat="43.39946470276203" lon="10.9043361149726"><ele>316.0</ele><time>2026-04-18T10:28:50.001Z</time></trkpt><trkpt lat="43.399516477000894" lon="10.904251480124593"><ele>316.0</ele><time>2026-04-18T10:28:51.001Z</time></trkpt><trkpt lat="43.39954402084289" lon="10.904158969054548"><ele>316.0</ele><time>2026-04-18T10:28:52.001Z</time></trkpt><trkpt lat="43.39953565788152" lon="10.904035379264883"><ele>316.0</ele><time>2026-04-18T10:28:54.001Z</time></trkpt><trkpt lat="43.39945111875049" lon="10.903981704928752"><ele>316.0</ele><time>2026-04-18T10:28:56.001Z</time></trkpt><trkpt lat="43.39932714973339" lon="10.904052436807975"><ele>316.0</ele><time>2026-04-18T10:28:58.001Z</time></trkpt><trkpt lat="43.39926750760999" lon="10.904125841680065"><ele>316.0</ele><time>2026-04-18T10:28:59.001Z</time></trkpt><trkpt lat="43.39919453437081" lon="10.90419935924693"><ele>316.0</ele><time>2026-04-18T10:29:00.001Z</time></trkpt><trkpt lat="43.39912736633071" lon="10.904262121132534"><ele>316.0</ele><time>2026-04-18T10:29:01.001Z</time></trkpt><trkpt lat="43.399060845387105" lon="10.904334533729397"><ele>316.0</ele><time>2026-04-18T10:29:02.001Z</time></trkpt><trkpt lat="43.399010750602436" lon="10.904419563865813"><ele>316.0</ele><time>2026-04-18T10:29:03.001Z</time></trkpt><trkpt lat="43.398969530599" lon="10.90452408811262"><ele>316.0</ele><time>2026-04-18T10:29:04.001Z</time></trkpt><trkpt lat="43.39892900851411" lon="10.904661551865914"><ele>316.0</ele><time>2026-04-18T10:29:05.001Z</time></trkpt><trkpt lat="43.39888222994066" lon="10.904831580319831"><ele>311.25</ele><time>2026-04-18T10:29:06.001Z</time></trkpt><trkpt lat="43.3988181996111" lon="10.905019163419018"><ele>306.5</ele><time>2026-04-18T10:29:07.001Z</time></trkpt><trkpt lat="43.39874959698764" lon="10.905185710875836"><ele>301.75</ele><time>2026-04-18T10:29:08.001Z</time></trkpt><trkpt lat="43.398693490433025" lon="10.905319200046979"><ele>297.0</ele><time>2026-04-18T10:29:09.001Z</time></trkpt><trkpt lat="43.398653833140436" lon="10.90542839557927"><ele>297.0</ele><time>2026-04-18T10:29:10.001Z</time></trkpt><trkpt lat="43.39861893867068" lon="10.905522268445795"><ele>297.0</ele><time>2026-04-18T10:29:11.001Z</time></trkpt><trkpt lat="43.39858778111658" lon="10.905601068021834"><ele>297.0</ele><time>2026-04-18T10:29:12.001Z</time></trkpt><trkpt lat="43.39849460692103" lon="10.905680596814365"><ele>297.0</ele><time>2026-04-18T10:29:14.001Z</time></trkpt><trkpt lat="43.39842817522179" lon="10.905682487813923"><ele>297.0</ele><time>2026-04-18T10:29:15.001Z</time></trkpt><trkpt lat="43.3983611979693" lon="10.905648140803612"><ele>297.0</ele><time>2026-04-18T10:29:16.001Z</time></trkpt><trkpt lat="43.398302069425945" lon="10.905565222232426"><ele>297.0</ele><time>2026-04-18T10:29:17.001Z</time></trkpt><trkpt lat="43.3982621303918" lon="10.905458699929838"><ele>297.0</ele><time>2026-04-18T10:29:18.001Z</time></trkpt><trkpt lat="43.39824338193643" lon="10.905332881331955"><ele>297.0</ele><time>2026-04-18T10:29:19.001Z</time></trkpt><trkpt lat="43.39821909998606" lon="10.905181343094847"><ele>297.0</ele><time>2026-04-18T10:29:20.001Z</time></trkpt><trkpt lat="43.39819680780943" lon="10.905029772569081"><ele>297.0</ele><time>2026-04-18T10:29:21.001Z</time></trkpt><trkpt lat="43.398180833933004" lon="10.904900424306923"><ele>296.4</ele><time>2026-04-18T10:29:22.001Z</time></trkpt><trkpt lat="43.398166047957986" lon="10.90479612947925"><ele>295.79999999999995</ele><time>2026-04-18T10:29:23Z</time></trkpt><trkpt lat="43.39819885497757" lon="10.904593331172418"><ele>295.2</ele><time>2026-04-18T10:29:25Z</time></trkpt><trkpt lat="43.398246618495236" lon="10.904453971471595"><ele>294.59999999999997</ele><time>2026-04-18T10:29:26Z</time></trkpt><trkpt lat="43.3982777598609" lon="10.904341003054824"><ele>294.0</ele><time>2026-04-18T10:29:27Z</time></trkpt><trkpt lat="43.3983233784644" lon="10.904215143361657"><ele>294.0</ele><time>2026-04-18T10:29:29Z</time></trkpt><trkpt lat="43.398287980003246" lon="10.904107197385477"><ele>294.0</ele><time>2026-04-18T10:29:31Z</time></trkpt><trkpt lat="43.39817142478993" lon="10.904114402130963"><ele>294.0</ele><time>2026-04-18T10:29:33Z</time></trkpt><trkpt lat="43.3981097369254" lon="10.90417876765508"><ele>294.0</ele><time>2026-04-18T10:29:34Z</time></trkpt><trkpt lat="43.39803542904716" lon="10.904266582802054"><ele>294.0</ele><time>2026-04-18T10:29:35Z</time></trkpt><trkpt lat="43.39796439905575" lon="10.904364886868025"><ele>290.59999999999997</ele><time>2026-04-18T10:29:36Z</time></trkpt><trkpt lat="43.39790386479243" lon="10.904452571202054"><ele>287.2</ele><time>2026-04-18T10:29:37Z</time></trkpt><trkpt lat="43.39785630850972" lon="10.90455969621285"><ele>283.79999999999995</ele><time>2026-04-18T10:29:38Z</time></trkpt><trkpt lat="43.397806369251555" lon="10.904693879854939"><ele>280.4</ele><time>2026-04-18T10:29:39Z</time></trkpt><trkpt lat="43.39775011928299" lon="10.904842801509218"><ele>277.0</ele><time>2026-04-18T10:29:40Z</time></trkpt><trkpt lat="43.397692141814154" lon="10.905002568919047"><ele>277.6</ele><time>2026-04-18T10:29:41Z</time></trkpt><trkpt lat="43.39763406488447" lon="10.905159206949767"><ele>278.2</ele><time>2026-04-18T10:29:42Z</time></trkpt><trkpt lat="43.397586339702" lon="10.905292439523196"><ele>278.8</ele><time>2026-04-18T10:29:43Z</time></trkpt><trkpt lat="43.39753646145055" lon="10.905407935000312"><ele>279.4</ele><time>2026-04-18T10:29:44Z</time></trkpt><trkpt lat="43.397488083653" lon="10.905504173494855"><ele>280.0</ele><time>2026-04-18T10:29:45Z</time></trkpt><trkpt lat="43.397446283196786" lon="10.905613281056935"><ele>280.0</ele><time>2026-04-18T10:29:46Z</time></trkpt><trkpt lat="43.39742223799813" lon="10.905713050568334"><ele>280.0</ele><time>2026-04-18T10:29:47Z</time></trkpt><trkpt lat="43.39740115257404" lon="10.90581690657903"><ele>280.0</ele><time>2026-04-18T10:29:48Z</time></trkpt><trkpt lat="43.397358122802444" lon="10.905918757612795"><ele>280.0</ele><time>2026-04-18T10:29:50Z</time></trkpt><trkpt lat="43.397281154744874" lon="10.905920316152589"><ele>280.0</ele><time>2026-04-18T10:29:52Z</time></trkpt><trkpt lat="43.39718465515348" lon="10.90581256155095"><ele>280.0</ele><time>2026-04-18T10:29:54Z</time></trkpt><trkpt lat="43.39715471064619" lon="10.905703328109112"><ele>264.0</ele><time>2026-04-18T10:29:55Z</time></trkpt></trkseg><trkseg><trkpt lat="43.39479199769207" lon="10.902477430945286"><ele>229.0</ele><time>2026-04-18T10:33:14Z</time></trkpt><trkpt lat="43.39479677452443" lon="10.902354385272728"><ele>228.99999999999997</ele><time>2026-04-18T10:33:16Z</time></trkpt><trkpt lat="43.3948570596331" lon="10.902198222787309"><ele>228.99999999999997</ele><time>2026-04-18T10:33:18Z</time></trkpt><trkpt lat="43.39491717788415" lon="10.902108916772061"><ele>229.0</ele><time>2026-04-18T10:33:19Z</time></trkpt><trkpt lat="43.39496787289341" lon="10.902013032232864"><ele>229.0</ele><time>2026-04-18T10:33:20Z</time></trkpt><trkpt lat="43.39502127739247" lon="10.901881590470152"><ele>229.2</ele><time>2026-04-18T10:33:21Z</time></trkpt><trkpt lat="43.39507363299657" lon="10.90174118588721"><ele>229.39999999999998</ele><time>2026-04-18T10:33:22Z</time></trkpt><trkpt lat="43.39513180209474" lon="10.901610386944231"><ele>229.6</ele><time>2026-04-18T10:33:23Z</time></trkpt><trkpt lat="43.39517989889502" lon="10.901496675259502"><ele>229.8</ele><time>2026-04-18T10:33:24Z</time></trkpt><trkpt lat="43.39520822096439" lon="10.90140649893947"><ele>230.0</ele><time>2026-04-18T10:33:25Z</time></trkpt><trkpt lat="43.3952268230781" lon="10.901282112555165"><ele>230.0</ele><time>2026-04-18T10:33:26Z</time></trkpt><trkpt lat="43.39522503150995" lon="10.901123422006352"><ele>230.0</ele><time>2026-04-18T10:33:27Z</time></trkpt><trkpt lat="43.39521089742612" lon="10.900967237545562"><ele>230.0</ele><time>2026-04-18T10:33:28Z</time></trkpt><trkpt lat="43.39519075698703" lon="10.900819571937426"><ele>230.0</ele><time>2026-04-18T10:33:29Z</time></trkpt><trkpt lat="43.395187026754144" lon="10.900712929066737"><ele>230.0</ele><time>2026-04-18T10:33:30Z</time></trkpt><trkpt lat="43.39520830335512" lon="10.900599830155882"><ele>231.75</ele><time>2026-04-18T10:33:31Z</time></trkpt><trkpt lat="43.39524566883229" lon="10.900452390673198"><ele>233.5</ele><time>2026-04-18T10:33:32Z</time></trkpt><trkpt lat="43.395282288381836" lon="10.900288830454393"><ele>235.25</ele><time>2026-04-18T10:33:33Z</time></trkpt><trkpt lat="43.39531016157771" lon="10.90011843916098"><ele>237.0</ele><time>2026-04-18T10:33:34Z</time></trkpt><trkpt lat="43.39533710076813" lon="10.89994759377808"><ele>235.8</ele><time>2026-04-18T10:33:35Z</time></trkpt><trkpt lat="43.39536038377071" lon="10.899782007693982"><ele>234.6</ele><time>2026-04-18T10:33:36Z</time></trkpt><trkpt lat="43.395387103116654" lon="10.899629534187323"><ele>233.40000000000003</ele><time>2026-04-18T10:33:37Z</time></trkpt><trkpt lat="43.39541354601003" lon="10.89948079396081"><ele>232.20000000000002</ele><time>2026-04-18T10:33:38Z</time></trkpt><trkpt lat="43.39545801533225" lon="10.899359556140842"><ele>231.0</ele><time>2026-04-18T10:33:39Z</time></trkpt><trkpt lat="43.395521364132314" lon="10.899267669511076"><ele>233.5</ele><time>2026-04-18T10:33:40Z</time></trkpt><trkpt lat="43.39561270891869" lon="10.89916293409758"><ele>236.0</ele><time>2026-04-18T10:33:41Z</time></trkpt><trkpt lat="43.395709081901785" lon="10.899024475605692"><ele>238.5</ele><time>2026-04-18T10:33:42Z</time></trkpt><trkpt lat="43.395789829142544" lon="10.898892841929682"><ele>241.0</ele><time>2026-04-18T10:33:43Z</time></trkpt><trkpt lat="43.39585619992755" lon="10.898799695317939"><ele>241.0</ele><time>2026-04-18T10:33:44Z</time></trkpt><trkpt lat="43.39591940980294" lon="10.898731209941941"><ele>241.00000000000003</ele><time>2026-04-18T10:33:45Z</time></trkpt><trkpt lat="43.39596852894487" lon="10.898637086707604"><ele>241.00000000000003</ele><time>2026-04-18T10:33:46Z</time></trkpt><trkpt lat="43.3960081884081" lon="10.89851869814619"><ele>241.0</ele><time>2026-04-18T10:33:47Z</time></trkpt><trkpt lat="43.39604041256974" lon="10.898383204853753"><ele>241.0</ele><time>2026-04-18T10:33:48Z</time></trkpt><trkpt lat="43.39607823581216" lon="10.898245733906876"><ele>241.20000000000002</ele><time>2026-04-18T10:33:49Z</time></trkpt><trkpt lat="43.39612930078955" lon="10.898132027090023"><ele>241.40000000000003</ele><time>2026-04-18T10:33:50Z</time></trkpt><trkpt lat="43.396198231828095" lon="10.89805131893783"><ele>241.6</ele><time>2026-04-18T10:33:51Z</time></trkpt><trkpt lat="43.39627672670199" lon="10.898000496863505"><ele>241.8</ele><time>2026-04-18T10:33:52Z</time></trkpt><trkpt lat="43.39637964044152" lon="10.897934098841628"><ele>242.0</ele><time>2026-04-18T10:33:53Z</time></trkpt><trkpt lat="43.39647252608171" lon="10.897867383018339"><ele>242.00000000000003</ele><time>2026-04-18T10:33:54Z</time></trkpt><trkpt lat="43.39655512172794" lon="10.897793838983054"><ele>242.0</ele><time>2026-04-18T10:33:55Z</time></trkpt><trkpt lat="43.39663272923611" lon="10.897707942637684"><ele>242.0</ele><time>2026-04-18T10:33:56Z</time></trkpt><trkpt lat="43.39670190374605" lon="10.89763028707692"><ele>242.0</ele><time>2026-04-18T10:33:57Z</time></trkpt><trkpt lat="43.39674456183025" lon="10.897550388623339"><ele>242.00000000000003</ele><time>2026-04-18T10:33:58Z</time></trkpt><trkpt lat="43.396786676635855" lon="10.897448926419345"><ele>242.0</ele><time>2026-04-18T10:33:59Z</time></trkpt><trkpt lat="43.39681302544949" lon="10.897313460326421"><ele>245.5</ele><time>2026-04-18T10:34:00Z</time></trkpt><trkpt lat="43.39683437939457" lon="10.897149114109206"><ele>249.0</ele><time>2026-04-18T10:34:01Z</time></trkpt><trkpt lat="43.396864135947624" lon="10.896996172743064"><ele>252.5</ele><time>2026-04-18T10:34:02Z</time></trkpt><trkpt lat="43.39692055509224" lon="10.89687237221452"><ele>256.0</ele><time>2026-04-18T10:34:03Z</time></trkpt><trkpt lat="43.3969783896983" lon="10.896745737487642"><ele>255.60000000000002</ele><time>2026-04-18T10:34:04Z</time></trkpt><trkpt lat="43.39701819243616" lon="10.896602132004247"><ele>255.20000000000002</ele><time>2026-04-18T10:34:05Z</time></trkpt><trkpt lat="43.397040677087396" lon="10.896445651989218"><ele>254.79999999999998</ele><time>2026-04-18T10:34:06Z</time></trkpt><trkpt lat="43.39707149054322" lon="10.896319417220834"><ele>254.39999999999998</ele><time>2026-04-18T10:34:07Z</time></trkpt><trkpt lat="43.39711724462415" lon="10.896203423552363"><ele>254.0</ele><time>2026-04-18T10:34:08Z</time></trkpt><trkpt lat="43.39717443405122" lon="10.896085947321186"><ele>254.0</ele><time>2026-04-18T10:34:09Z</time></trkpt><trkpt lat="43.397227377796284" lon="10.895961091835911"><ele>253.99999999999997</ele><time>2026-04-18T10:34:10Z</time></trkpt><trkpt lat="43.397254109907585" lon="10.895832377371146"><ele>253.99999999999997</ele><time>2026-04-18T10:34:11Z</time></trkpt><trkpt lat="43.39726820140722" lon="10.895685394327517"><ele>254.0</ele><time>2026-04-18T10:34:12Z</time></trkpt><trkpt lat="43.39728033554417" lon="10.895542595899329"><ele>254.0</ele><time>2026-04-18T10:34:13Z</time></trkpt><trkpt lat="43.39731769615291" lon="10.895401213646444"><ele>255.75</ele><time>2026-04-18T10:34:14Z</time></trkpt><trkpt lat="43.39738047305448" lon="10.895267172201182"><ele>257.5</ele><time>2026-04-18T10:34:15Z</time></trkpt><trkpt lat="43.39746062078423" lon="10.895148210108026"><ele>259.25</ele><time>2026-04-18T10:34:16Z</time></trkpt><trkpt lat="43.39753088604792" lon="10.895017550326815"><ele>261.0</ele><time>2026-04-18T10:34:17Z</time></trkpt><trkpt lat="43.39759447903155" lon="10.894903458742188"><ele>260.40000000000003</ele><time>2026-04-18T10:34:18Z</time></trkpt><trkpt lat="43.39768048166653" lon="10.894814075807671"><ele>259.8</ele><time>2026-04-18T10:34:19Z</time></trkpt><trkpt lat="43.39778746285379" lon="10.894740013290084"><ele>259.20000000000005</ele><time>2026-04-18T10:34:20Z</time></trkpt><trkpt lat="43.39788769038259" lon="10.894677243192733"><ele>258.6</ele><time>2026-04-18T10:34:21Z</time></trkpt><trkpt lat="43.39797351550001" lon="10.894613377090057"><ele>258.0</ele><time>2026-04-18T10:34:22Z</time></trkpt><trkpt lat="43.39805880595789" lon="10.894536629246849"><ele>258.0</ele><time>2026-04-18T10:34:23Z</time></trkpt><trkpt lat="43.39814522209724" lon="10.89444616410631"><ele>258.0</ele><time>2026-04-18T10:34:24Z</time></trkpt><trkpt lat="43.398230409851365" lon="10.894337387050886"><ele>258.0</ele><time>2026-04-18T10:34:25Z</time></trkpt><trkpt lat="43.398301280093655" lon="10.894207136606518"><ele>258.0</ele><time>2026-04-18T10:34:26Z</time></trkpt><trkpt lat="43.39836131729344" lon="10.89407017117281"><ele>261.2</ele><time>2026-04-18T10:34:27Z</time></trkpt><trkpt lat="43.398430421721855" lon="10.893946946927837"><ele>264.4</ele><time>2026-04-18T10:34:28Z</time></trkpt><trkpt lat="43.39851151383192" lon="10.893852745352701"><ele>267.59999999999997</ele><time>2026-04-18T10:34:29Z</time></trkpt><trkpt lat="43.39859080409882" lon="10.893758207498673"><ele>270.8</ele><time>2026-04-18T10:34:30Z</time></trkpt><trkpt lat="43.398672263975385" lon="10.893655700319188"><ele>274.0</ele><time>2026-04-18T10:34:31Z</time></trkpt><trkpt lat="43.398745581080256" lon="10.893558953885275"><ele>274.0</ele><time>2026-04-18T10:34:32Z</time></trkpt><trkpt lat="43.3988107968658" lon="10.893484644920271"><ele>274.0</ele><time>2026-04-18T10:34:33Z</time></trkpt><trkpt lat="43.398869296318175" lon="10.893412833490054"><ele>274.0</ele><time>2026-04-18T10:34:34Z</time></trkpt><trkpt lat="43.398948497017706" lon="10.893347045991607"><ele>274.0</ele><time>2026-04-18T10:34:35Z</time></trkpt><trkpt lat="43.399038500415514" lon="10.89329736783018"><ele>274.0</ele><time>2026-04-18T10:34:36Z</time></trkpt><trkpt lat="43.39914300092595" lon="10.893258081632474"><ele>275.2</ele><time>2026-04-18T10:34:37Z</time></trkpt><trkpt lat="43.39924519313744" lon="10.893231716898473"><ele>276.4</ele><time>2026-04-18T10:34:38Z</time></trkpt><trkpt lat="43.399342100622924" lon="10.89321802601258"><ele>277.6</ele><time>2026-04-18T10:34:39Z</time></trkpt><trkpt lat="43.399421922400386" lon="10.893226237128504"><ele>278.8</ele><time>2026-04-18T10:34:40Z</time></trkpt><trkpt lat="43.399562368880204" lon="10.89317522577679"><ele>280.0</ele><time>2026-04-18T10:34:43Z</time></trkpt><trkpt lat="43.399638392756465" lon="10.893022055331551"><ele>280.0</ele><time>2026-04-18T10:34:45Z</time></trkpt><trkpt lat="43.39966005916109" lon="10.892922330628988"><ele>280.0</ele><time>2026-04-18T10:34:46Z</time></trkpt><trkpt lat="43.39969112371894" lon="10.892790998018727"><ele>280.0</ele><time>2026-04-18T10:34:48Z</time></trkpt><trkpt lat="43.39960440087089" lon="10.892767889294905"><ele>280.0</ele><time>2026-04-18T10:34:51Z</time></trkpt><trkpt lat="43.39950064472153" lon="10.892918878930201"><ele>280.0</ele><time>2026-04-18T10:34:53Z</time></trkpt><trkpt lat="43.39942833068356" lon="10.892989876809844"><ele>280.0</ele><time>2026-04-18T10:34:54Z</time></trkpt><trkpt lat="43.39935261105745" lon="10.893004546838638"><ele>280.0</ele><time>2026-04-18T10:34:55Z</time></trkpt><trkpt lat="43.39925622748094" lon="10.892996898035067"><ele>280.0</ele><time>2026-04-18T10:34:56Z</time></trkpt><trkpt lat="43.399140555007484" lon="10.892991291543133"><ele>280.0</ele><time>2026-04-18T10:34:57Z</time></trkpt><trkpt lat="43.398991107396334" lon="10.89299021164038"><ele>280.0</ele><time>2026-04-18T10:34:58Z</time></trkpt><trkpt lat="43.39884054378425" lon="10.893010659625544"><ele>284.66666666666663</ele><time>2026-04-18T10:34:59Z</time></trkpt><trkpt lat="43.398690622388735" lon="10.893044509888227"><ele>289.3333333333333</ele><time>2026-04-18T10:35:00Z</time></trkpt><trkpt lat="43.39850287951655" lon="10.89311637808767"><ele>294.0</ele><time>2026-04-18T10:35:01Z</time></trkpt><trkpt lat="43.3982858157843" lon="10.893194163298716"><ele>294.0</ele><time>2026-04-18T10:35:02Z</time></trkpt><trkpt lat="43.398106686003686" lon="10.893249224535378"><ele>294.0</ele><time>2026-04-18T10:35:03Z</time></trkpt><trkpt lat="43.3979193598131" lon="10.89328422495218"><ele>294.0</ele><time>2026-04-18T10:35:04Z</time></trkpt><trkpt lat="43.39773216255267" lon="10.893299940218737"><ele>297.0</ele><time>2026-04-18T10:35:05Z</time></trkpt><trkpt lat="43.39753260162651" lon="10.89329403944993"><ele>300.0</ele><time>2026-04-18T10:35:06Z</time></trkpt><trkpt lat="43.397325906045545" lon="10.893288247782689"><ele>303.0</ele><time>2026-04-18T10:35:07Z</time></trkpt><trkpt lat="43.39711367367513" lon="10.893297449711287"><ele>300.0</ele><time>2026-04-18T10:35:08Z</time></trkpt><trkpt lat="43.3968845920796" lon="10.893359616171152"><ele>297.0</ele><time>2026-04-18T10:35:09Z</time></trkpt><trkpt lat="43.39666625751202" lon="10.893469879886728"><ele>297.0</ele><time>2026-04-18T10:35:10Z</time></trkpt><trkpt lat="43.39644140024848" lon="10.893616489396544"><ele>297.0</ele><time>2026-04-18T10:35:11Z</time></trkpt><trkpt lat="43.39624292841072" lon="10.893739286161578"><ele>301.6666666666667</ele><time>2026-04-18T10:35:12Z</time></trkpt><trkpt lat="43.39606985853933" lon="10.893865546662948"><ele>306.33333333333337</ele><time>2026-04-18T10:35:13Z</time></trkpt><trkpt lat="43.39591671219693" lon="10.893965154324388"><ele>311.0</ele><time>2026-04-18T10:35:14Z</time></trkpt><trkpt lat="43.39575212168877" lon="10.89405848428966"><ele>311.0</ele><time>2026-04-18T10:35:15Z</time></trkpt><trkpt lat="43.39560508445682" lon="10.894153456702927"><ele>311.0</ele><time>2026-04-18T10:35:16Z</time></trkpt><trkpt lat="43.395454437815665" lon="10.894249078025746"><ele>311.0</ele><time>2026-04-18T10:35:17Z</time></trkpt><trkpt lat="43.395291933689165" lon="10.894362031447876"><ele>312.6666666666667</ele><time>2026-04-18T10:35:18Z</time></trkpt><trkpt lat="43.395160892812456" lon="10.894463236751006"><ele>314.3333333333333</ele><time>2026-04-18T10:35:19Z</time></trkpt><trkpt lat="43.39493484862343" lon="10.894601550793457"><ele>316.0</ele><time>2026-04-18T10:35:20Z</time></trkpt><trkpt lat="43.39478203161804" lon="10.894752001433472"><ele>318.66666666666663</ele><time>2026-04-18T10:35:21Z</time></trkpt><trkpt lat="43.39465610625594" lon="10.894895601658556"><ele>321.3333333333333</ele><time>2026-04-18T10:35:22Z</time></trkpt><trkpt lat="43.39453428090244" lon="10.895046046853453"><ele>324.0</ele><time>2026-04-18T10:35:23Z</time></trkpt><trkpt lat="43.394395889947575" lon="10.895197984256397"><ele>324.0</ele><time>2026-04-18T10:35:24Z</time></trkpt><trkpt lat="43.39423877717433" lon="10.895343627617915"><ele>324.0</ele><time>2026-04-18T10:35:25Z</time></trkpt><trkpt lat="43.394088363304675" lon="10.895459364369378"><ele>324.0</ele><time>2026-04-18T10:35:26Z</time></trkpt><trkpt lat="43.393944983594146" lon="10.895559672469766"><ele>327.0</ele><time>2026-04-18T10:35:27Z</time></trkpt><trkpt lat="43.39379519419294" lon="10.895664164476573"><ele>330.0</ele><time>2026-04-18T10:35:28Z</time></trkpt><trkpt lat="43.393640100041864" lon="10.895758908911883"><ele>333.0</ele><time>2026-04-18T10:35:29Z</time></trkpt><trkpt lat="43.39348838962017" lon="10.895827296535437"><ele>333.0</ele><time>2026-04-18T10:35:30Z</time></trkpt><trkpt lat="43.39334136431732" lon="10.895863535015685"><ele>333.0</ele><time>2026-04-18T10:35:31Z</time></trkpt><trkpt lat="43.39319613268936" lon="10.895884117020856"><ele>333.0</ele><time>2026-04-18T10:35:32Z</time></trkpt><trkpt lat="43.393053731642866" lon="10.895898727381685"><ele>333.0</ele><time>2026-04-18T10:35:33Z</time></trkpt><trkpt lat="43.39292750366606" lon="10.895912747891279"><ele>333.0</ele><time>2026-04-18T10:35:34Z</time></trkpt><trkpt lat="43.39281536246405" lon="10.895896618257767"><ele>333.0</ele><time>2026-04-18T10:35:35Z</time></trkpt><trkpt lat="43.39271414202338" lon="10.8958882866092"><ele>333.0</ele><time>2026-04-18T10:35:36Z</time></trkpt><trkpt lat="43.39262886392261" lon="10.895868703029329"><ele>333.0</ele><time>2026-04-18T10:35:37Z</time></trkpt><trkpt lat="43.392560701592025" lon="10.895824587799037"><ele>333.0</ele><time>2026-04-18T10:35:38Z</time></trkpt><trkpt lat="43.39250596094759" lon="10.895760071331885"><ele>333.0</ele><time>2026-04-18T10:35:39Z</time></trkpt><trkpt lat="43.392490077013676" lon="10.895672907046812"><ele>333.0</ele><time>2026-04-18T10:35:39.999Z</time></trkpt><trkpt lat="43.39249299426986" lon="10.895585619809188"><ele>333.0</ele><time>2026-04-18T10:35:40.999Z</time></trkpt><trkpt lat="43.39250258294965" lon="10.895437934445905"><ele>333.0</ele><time>2026-04-18T10:35:41.999Z</time></trkpt><trkpt lat="43.392498611565394" lon="10.895270052867453"><ele>333.0</ele><time>2026-04-18T10:35:42.999Z</time></trkpt><trkpt lat="43.392489360263006" lon="10.895075147144555"><ele>333.0</ele><time>2026-04-18T10:35:43.999Z</time></trkpt><trkpt lat="43.3924977995551" lon="10.894907770338657"><ele>333.79999999999995</ele><time>2026-04-18T10:35:44.999Z</time></trkpt><trkpt lat="43.39251320554968" lon="10.894761437475212"><ele>334.6</ele><time>2026-04-18T10:35:45.999Z</time></trkpt><trkpt lat="43.39254373781577" lon="10.894626620674336"><ele>335.4</ele><time>2026-04-18T10:35:46.999Z</time></trkpt><trkpt lat="43.39260515747169" lon="10.894501635380006"><ele>336.20000000000005</ele><time>2026-04-18T10:35:47.999Z</time></trkpt><trkpt lat="43.392692695608126" lon="10.894376514439136"><ele>337.0</ele><time>2026-04-18T10:35:48.999Z</time></trkpt><trkpt lat="43.39279030831121" lon="10.894259811166886"><ele>336.0</ele><time>2026-04-18T10:35:49.999Z</time></trkpt><trkpt lat="43.39289314542338" lon="10.89414754165062"><ele>335.0</ele><time>2026-04-18T10:35:50.999Z</time></trkpt><trkpt lat="43.393001398970505" lon="10.894041787206062"><ele>334.0</ele><time>2026-04-18T10:35:51.999Z</time></trkpt><trkpt lat="43.393123241039994" lon="10.893937705784953"><ele>333.0</ele><time>2026-04-18T10:35:52.999Z</time></trkpt><trkpt lat="43.393252714618335" lon="10.893841489574406"><ele>334.75</ele><time>2026-04-18T10:35:53.999Z</time></trkpt><trkpt lat="43.39337876815731" lon="10.893760777273675"><ele>336.5</ele><time>2026-04-18T10:35:54.999Z</time></trkpt><trkpt lat="43.393501107399594" lon="10.893681108024657"><ele>338.25</ele><time>2026-04-18T10:35:55.999Z</time></trkpt><trkpt lat="43.39361564614713" lon="10.89356520526615"><ele>340.0</ele><time>2026-04-18T10:35:56.999Z</time></trkpt><trkpt lat="43.39370563815977" lon="10.893405618176049"><ele>340.0</ele><time>2026-04-18T10:35:57.999Z</time></trkpt><trkpt lat="43.39377574819234" lon="10.89323433329214"><ele>340.0</ele><time>2026-04-18T10:35:58.999Z</time></trkpt><trkpt lat="43.39384330975997" lon="10.893068236281534"><ele>340.0</ele><time>2026-04-18T10:35:59.999Z</time></trkpt><trkpt lat="43.39390062905293" lon="10.892932186102344"><ele>340.0</ele><time>2026-04-18T10:36:00.999Z</time></trkpt><trkpt lat="43.3939437335678" lon="10.892793762522006"><ele>340.25</ele><time>2026-04-18T10:36:01.999Z</time></trkpt><trkpt lat="43.39395834176684" lon="10.892639444071131"><ele>340.5</ele><time>2026-04-18T10:36:02.999Z</time></trkpt><trkpt lat="43.39394099118235" lon="10.89247849865827"><ele>340.75</ele><time>2026-04-18T10:36:04Z</time></trkpt><trkpt lat="43.39388551079124" lon="10.892332315001878"><ele>341.0</ele><time>2026-04-18T10:36:05Z</time></trkpt><trkpt lat="43.3937900947281" lon="10.892195670005226"><ele>340.33333333333337</ele><time>2026-04-18T10:36:06Z</time></trkpt><trkpt lat="43.39364184325634" lon="10.892053237714721"><ele>339.6666666666667</ele><time>2026-04-18T10:36:07Z</time></trkpt><trkpt lat="43.39348120768493" lon="10.891870054022814"><ele>339.0</ele><time>2026-04-18T10:36:08Z</time></trkpt><trkpt lat="43.39335063745859" lon="10.89165508627439"><ele>343.6666666666667</ele><time>2026-04-18T10:36:09Z</time></trkpt><trkpt lat="43.393278241790945" lon="10.891449881170297"><ele>348.33333333333337</ele><time>2026-04-18T10:36:10Z</time></trkpt><trkpt lat="43.39321088971474" lon="10.89126942764491"><ele>353.0</ele><time>2026-04-18T10:36:11Z</time></trkpt><trkpt lat="43.393140872148905" lon="10.891103978614856"><ele>353.0</ele><time>2026-04-18T10:36:12Z</time></trkpt><trkpt lat="43.393078042430794" lon="10.890956884981573"><ele>353.0</ele><time>2026-04-18T10:36:13Z</time></trkpt><trkpt lat="43.39304016932644" lon="10.890808840902299"><ele>353.0</ele><time>2026-04-18T10:36:14Z</time></trkpt><trkpt lat="43.39304784090336" lon="10.890676884721827"><ele>353.0</ele><time>2026-04-18T10:36:15Z</time></trkpt><trkpt lat="43.393086803275" lon="10.890549228385844"><ele>353.0</ele><time>2026-04-18T10:36:16Z</time></trkpt><trkpt lat="43.3931455797776" lon="10.890398388919023"><ele>357.0</ele><time>2026-04-18T10:36:17Z</time></trkpt><trkpt lat="43.39322211932641" lon="10.890208965829574"><ele>361.0</ele><time>2026-04-18T10:36:18Z</time></trkpt><trkpt lat="43.393316460728556" lon="10.89000094121113"><ele>365.0</ele><time>2026-04-18T10:36:19Z</time></trkpt><trkpt lat="43.39341166867402" lon="10.889800594091628"><ele>365.0</ele><time>2026-04-18T10:36:20Z</time></trkpt><trkpt lat="43.39348954994312" lon="10.889635447046071"><ele>365.0</ele><time>2026-04-18T10:36:21Z</time></trkpt><trkpt lat="43.39354821161895" lon="10.88949161477742"><ele>365.0</ele><time>2026-04-18T10:36:22Z</time></trkpt><trkpt lat="43.39360949020416" lon="10.889379237912324"><ele>365.0</ele><time>2026-04-18T10:36:23Z</time></trkpt><trkpt lat="43.39368697693704" lon="10.889284067076158"><ele>367.2</ele><time>2026-04-18T10:36:24Z</time></trkpt><trkpt lat="43.39377926354505" lon="10.889202974122021"><ele>369.4</ele><time>2026-04-18T10:36:25Z</time></trkpt><trkpt lat="43.393874719131944" lon="10.889140200986922"><ele>371.6</ele><time>2026-04-18T10:36:26Z</time></trkpt><trkpt lat="43.393971808361044" lon="10.889071226150685"><ele>373.8</ele><time>2026-04-18T10:36:27Z</time></trkpt><trkpt lat="43.39406957447664" lon="10.88899816798934"><ele>376.0</ele><time>2026-04-18T10:36:28Z</time></trkpt><trkpt lat="43.39417055927583" lon="10.88892204826003"><ele>376.0</ele><time>2026-04-18T10:36:29Z</time></trkpt><trkpt lat="43.39427604390485" lon="10.888847607487175"><ele>376.0</ele><time>2026-04-18T10:36:30Z</time></trkpt><trkpt lat="43.394369589753225" lon="10.888764707293163"><ele>376.0</ele><time>2026-04-18T10:36:31Z</time></trkpt><trkpt lat="43.39443852992114" lon="10.88864733134792"><ele>376.0</ele><time>2026-04-18T10:36:32Z</time></trkpt><trkpt lat="43.39450023957014" lon="10.888449629074184"><ele>377.0</ele><time>2026-04-18T10:36:33Z</time></trkpt><trkpt lat="43.39456803249137" lon="10.888241385183749"><ele>378.0</ele><time>2026-04-18T10:36:34Z</time></trkpt><trkpt lat="43.39462706579651" lon="10.888122955319686"><ele>379.0</ele><time>2026-04-18T10:36:35Z</time></trkpt><trkpt lat="43.39469566217215" lon="10.888077255976837"><ele>380.0</ele><time>2026-04-18T10:36:36Z</time></trkpt><trkpt lat="43.39477684967064" lon="10.888091201334149"><ele>381.0</ele><time>2026-04-18T10:36:37Z</time></trkpt><trkpt lat="43.39484279458014" lon="10.888182829205576"><ele>381.0</ele><time>2026-04-18T10:36:38Z</time></trkpt><trkpt lat="43.394880691099516" lon="10.888299305274062"><ele>381.0</ele><time>2026-04-18T10:36:39Z</time></trkpt><trkpt lat="43.394882286766325" lon="10.888416955592414"><ele>381.0</ele><time>2026-04-18T10:36:40Z</time></trkpt><trkpt lat="43.39488279706192" lon="10.888526938493916"><ele>381.0</ele><time>2026-04-18T10:36:41Z</time></trkpt><trkpt lat="43.394875791877666" lon="10.888645340072042"><ele>381.0</ele><time>2026-04-18T10:36:42Z</time></trkpt><trkpt lat="43.394854018617444" lon="10.888763402137307"><ele>381.0</ele><time>2026-04-18T10:36:43Z</time></trkpt><trkpt lat="43.394827464070225" lon="10.888874845952358"><ele>381.5</ele><time>2026-04-18T10:36:44Z</time></trkpt><trkpt lat="43.39481633060759" lon="10.88898374259995"><ele>382.0</ele><time>2026-04-18T10:36:45Z</time></trkpt><trkpt lat="43.39482022678615" lon="10.88909655597226"><ele>382.5</ele><time>2026-04-18T10:36:46Z</time></trkpt><trkpt lat="43.3948366671409" lon="10.88919882395228"><ele>383.0</ele><time>2026-04-18T10:36:47Z</time></trkpt><trkpt lat="43.39486816612716" lon="10.889288365012936"><ele>383.5</ele><time>2026-04-18T10:36:48Z</time></trkpt><trkpt lat="43.39492070415745" lon="10.889363466581036"><ele>384.0</ele><time>2026-04-18T10:36:49Z</time></trkpt><trkpt lat="43.39499979368847" lon="10.889399958136547"><ele>384.0</ele><time>2026-04-18T10:36:50Z</time></trkpt><trkpt lat="43.39508587243996" lon="10.889383904941267"><ele>384.0</ele><time>2026-04-18T10:36:51Z</time></trkpt><trkpt lat="43.39516461186073" lon="10.889293952932292"><ele>384.0</ele><time>2026-04-18T10:36:52Z</time></trkpt><trkpt lat="43.395227319896335" lon="10.889140386080497"><ele>384.0</ele><time>2026-04-18T10:36:53Z</time></trkpt><trkpt lat="43.3952996275013" lon="10.888968666373644"><ele>384.0</ele><time>2026-04-18T10:36:54Z</time></trkpt><trkpt lat="43.39538132377021" lon="10.888792763336232"><ele>384.0</ele><time>2026-04-18T10:36:55Z</time></trkpt><trkpt lat="43.395467818389136" lon="10.888588592260827"><ele>384.0</ele><time>2026-04-18T10:36:56Z</time></trkpt><trkpt lat="43.395549040401576" lon="10.888381253136854"><ele>385.75</ele><time>2026-04-18T10:36:57Z</time></trkpt><trkpt lat="43.3956235498507" lon="10.888194306311348"><ele>387.5</ele><time>2026-04-18T10:36:58Z</time></trkpt><trkpt lat="43.39571914751343" lon="10.888047426152966"><ele>389.25</ele><time>2026-04-18T10:36:59Z</time></trkpt><trkpt lat="43.39584745461882" lon="10.887937898181585"><ele>391.0</ele><time>2026-04-18T10:37:00Z</time></trkpt><trkpt lat="43.39596940234438" lon="10.88786995338776"><ele>391.0</ele><time>2026-04-18T10:37:01Z</time></trkpt><trkpt lat="43.39605391973056" lon="10.887785107706181"><ele>391.0</ele><time>2026-04-18T10:37:02Z</time></trkpt><trkpt lat="43.396097096229575" lon="10.887638200316037"><ele>391.0</ele><time>2026-04-18T10:37:03Z</time></trkpt><trkpt lat="43.39608716699283" lon="10.887441626294876"><ele>391.0</ele><time>2026-04-18T10:37:04Z</time></trkpt><trkpt lat="43.39602866018728" lon="10.887225308907922"><ele>393.0</ele><time>2026-04-18T10:37:05Z</time></trkpt><trkpt lat="43.395961459067905" lon="10.88699792639852"><ele>395.0</ele><time>2026-04-18T10:37:06Z</time></trkpt><trkpt lat="43.39592417836884" lon="10.88679408800573"><ele>397.0</ele><time>2026-04-18T10:37:07Z</time></trkpt><trkpt lat="43.39592348103003" lon="10.886599082677952"><ele>398.0</ele><time>2026-04-18T10:37:08Z</time></trkpt><trkpt lat="43.39596458847666" lon="10.886392478149931"><ele>399.0</ele><time>2026-04-18T10:37:09Z</time></trkpt><trkpt lat="43.396036148443535" lon="10.886191455831197"><ele>400.0</ele><time>2026-04-18T10:37:10Z</time></trkpt><trkpt lat="43.39614828905457" lon="10.88599710815392"><ele>399.6666666666667</ele><time>2026-04-18T10:37:11Z</time></trkpt><trkpt lat="43.396273868440375" lon="10.88579985046341"><ele>399.33333333333337</ele><time>2026-04-18T10:37:12Z</time></trkpt><trkpt lat="43.39639981373671" lon="10.885595108473346"><ele>399.0</ele><time>2026-04-18T10:37:13Z</time></trkpt><trkpt lat="43.396530837189914" lon="10.885379941530791"><ele>401.33333333333337</ele><time>2026-04-18T10:37:14Z</time></trkpt><trkpt lat="43.396673084799936" lon="10.885153007189516"><ele>403.6666666666667</ele><time>2026-04-18T10:37:15Z</time></trkpt><trkpt lat="43.396815949694776" lon="10.88492513180043"><ele>406.0</ele><time>2026-04-18T10:37:16Z</time></trkpt><trkpt lat="43.396946433443055" lon="10.88471429593105"><ele>406.0</ele><time>2026-04-18T10:37:17Z</time></trkpt><trkpt lat="43.397059338538995" lon="10.884518920279863"><ele>406.0</ele><time>2026-04-18T10:37:18Z</time></trkpt><trkpt lat="43.39715176054302" lon="10.884350482731554"><ele>406.0</ele><time>2026-04-18T10:37:19Z</time></trkpt><trkpt lat="43.39723214558484" lon="10.884200848003708"><ele>406.75</ele><time>2026-04-18T10:37:20Z</time></trkpt><trkpt lat="43.39727628496263" lon="10.884039505279814"><ele>407.5</ele><time>2026-04-18T10:37:21Z</time></trkpt><trkpt lat="43.397286062470805" lon="10.883866966705126"><ele>408.25</ele><time>2026-04-18T10:37:22Z</time></trkpt><trkpt lat="43.39725084555661" lon="10.883664553976825"><ele>409.0</ele><time>2026-04-18T10:37:23Z</time></trkpt><trkpt lat="43.39720119470233" lon="10.883427169070943"><ele>404.6666666666667</ele><time>2026-04-18T10:37:24Z</time></trkpt><trkpt lat="43.39715925036771" lon="10.883171336947852"><ele>400.33333333333337</ele><time>2026-04-18T10:37:25Z</time></trkpt><trkpt lat="43.39713256382374" lon="10.882896257837276"><ele>396.0</ele><time>2026-04-18T10:37:26Z</time></trkpt><trkpt lat="43.397132610865846" lon="10.88260474586162"><ele>398.0</ele><time>2026-04-18T10:37:27Z</time></trkpt><trkpt lat="43.39713850077563" lon="10.8823162322576"><ele>400.0</ele><time>2026-04-18T10:37:28Z</time></trkpt><trkpt lat="43.39711391716004" lon="10.882038728925824"><ele>402.0</ele><time>2026-04-18T10:37:29Z</time></trkpt><trkpt lat="43.39704638771227" lon="10.881755626469852"><ele>406.0</ele><time>2026-04-18T10:37:30Z</time></trkpt><trkpt lat="43.396979126369985" lon="10.881461295591318"><ele>410.0</ele><time>2026-04-18T10:37:31Z</time></trkpt><trkpt lat="43.3969208292544" lon="10.88116850540478"><ele>414.0</ele><time>2026-04-18T10:37:32Z</time></trkpt><trkpt lat="43.39687387605458" lon="10.88092212720313"><ele>417.33333333333337</ele><time>2026-04-18T10:37:33Z</time></trkpt><trkpt lat="43.39683241414017" lon="10.880684630180397"><ele>420.6666666666667</ele><time>2026-04-18T10:37:34Z</time></trkpt><trkpt lat="43.396799714490705" lon="10.880436129798543"><ele>424.0</ele><time>2026-04-18T10:37:35Z</time></trkpt><trkpt lat="43.39678551377105" lon="10.880163247942827"><ele>427.0</ele><time>2026-04-18T10:37:36Z</time></trkpt><trkpt lat="43.3967575732159" lon="10.879877616221469"><ele>430.0</ele><time>2026-04-18T10:37:37Z</time></trkpt><trkpt lat="43.39671960991258" lon="10.879605125493834"><ele>433.0</ele><time>2026-04-18T10:37:38Z</time></trkpt><trkpt lat="43.39667799717563" lon="10.879378018615022"><ele>435.33333333333337</ele><time>2026-04-18T10:37:39Z</time></trkpt><trkpt lat="43.39665753672441" lon="10.879161018935406"><ele>437.66666666666663</ele><time>2026-04-18T10:37:40Z</time></trkpt><trkpt lat="43.39666762425622" lon="10.878922510504557"><ele>440.0</ele><time>2026-04-18T10:37:41Z</time></trkpt><trkpt lat="43.39670371320701" lon="10.87870991685103"><ele>440.0</ele><time>2026-04-18T10:37:42Z</time></trkpt><trkpt lat="43.396754891864155" lon="10.87853881044264"><ele>440.0</ele><time>2026-04-18T10:37:43Z</time></trkpt><trkpt lat="43.39683107687729" lon="10.878367321991282"><ele>440.0</ele><time>2026-04-18T10:37:44Z</time></trkpt><trkpt lat="43.39690921694537" lon="10.878180288199564"><ele>440.0</ele><time>2026-04-18T10:37:45Z</time></trkpt><trkpt lat="43.39696536271103" lon="10.877980405664543"><ele>439.75</ele><time>2026-04-18T10:37:45.999Z</time></trkpt><trkpt lat="43.39699269605256" lon="10.877783691966547"><ele>439.5</ele><time>2026-04-18T10:37:46.999Z</time></trkpt><trkpt lat="43.397015704102635" lon="10.877606669760395"><ele>439.25</ele><time>2026-04-18T10:37:47.999Z</time></trkpt><trkpt lat="43.397044316241065" lon="10.877423645260649"><ele>439.0</ele><time>2026-04-18T10:37:48.999Z</time></trkpt><trkpt lat="43.39706384188564" lon="10.877200667829491"><ele>439.0</ele><time>2026-04-18T10:37:49.999Z</time></trkpt><trkpt lat="43.39708684833105" lon="10.876928178218673"><ele>439.0</ele><time>2026-04-18T10:37:50.999Z</time></trkpt><trkpt lat="43.397124706445815" lon="10.876656238780692"><ele>439.0</ele><time>2026-04-18T10:37:51.999Z</time></trkpt><trkpt lat="43.39715703036048" lon="10.876455667669598"><ele>448.33333333333337</ele><time>2026-04-18T10:37:52.999Z</time></trkpt><trkpt lat="43.397201012092395" lon="10.876254695445205"><ele>457.66666666666663</ele><time>2026-04-18T10:37:53.999Z</time></trkpt><trkpt lat="43.39726702530118" lon="10.876045071996973"><ele>467.0</ele><time>2026-04-18T10:37:54.999Z</time></trkpt><trkpt lat="43.397344947044836" lon="10.875832495259745"><ele>467.0</ele><time>2026-04-18T10:37:55.999Z</time></trkpt><trkpt lat="43.39742744795928" lon="10.875608505764411"><ele>467.0</ele><time>2026-04-18T10:37:56.999Z</time></trkpt><trkpt lat="43.397515631267794" lon="10.875375806746234"><ele>467.0</ele><time>2026-04-18T10:37:57.999Z</time></trkpt><trkpt lat="43.39759585820123" lon="10.875132669913954"><ele>466.0</ele><time>2026-04-18T10:37:58.999Z</time></trkpt><trkpt lat="43.397658330112975" lon="10.87492192392831"><ele>465.0</ele><time>2026-04-18T10:37:59.999Z</time></trkpt><trkpt lat="43.39771470809026" lon="10.874733479849452"><ele>464.0</ele><time>2026-04-18T10:38:00.999Z</time></trkpt><trkpt lat="43.397785192815" lon="10.874563325883317"><ele>464.0</ele><time>2026-04-18T10:38:01.999Z</time></trkpt><trkpt lat="43.397874371162686" lon="10.874417535017713"><ele>464.0</ele><time>2026-04-18T10:38:02.999Z</time></trkpt><trkpt lat="43.39798231016358" lon="10.874272337758713"><ele>464.0</ele><time>2026-04-18T10:38:03.999Z</time></trkpt><trkpt lat="43.398095977216215" lon="10.874116294262022"><ele>469.66666666666663</ele><time>2026-04-18T10:38:04.999Z</time></trkpt><trkpt lat="43.39820757822162" lon="10.873958871881124"><ele>475.33333333333337</ele><time>2026-04-18T10:38:05.999Z</time></trkpt><trkpt lat="43.39831342021747" lon="10.873804671458982"><ele>481.0</ele><time>2026-04-18T10:38:06.999Z</time></trkpt><trkpt lat="43.39841942360954" lon="10.873620852057337"><ele>480.0</ele><time>2026-04-18T10:38:07.999Z</time></trkpt><trkpt lat="43.39852040747182" lon="10.873408535296502"><ele>479.0</ele><time>2026-04-18T10:38:08.999Z</time></trkpt><trkpt lat="43.398625361642225" lon="10.873180196294351"><ele>478.0</ele><time>2026-04-18T10:38:09.999Z</time></trkpt><trkpt lat="43.398733293460324" lon="10.872955853117713"><ele>482.0</ele><time>2026-04-18T10:38:10.999Z</time></trkpt><trkpt lat="43.39884378393984" lon="10.872739027262277"><ele>486.0</ele><time>2026-04-18T10:38:11.999Z</time></trkpt><trkpt lat="43.398943519021344" lon="10.872540086824747"><ele>490.0</ele><time>2026-04-18T10:38:13Z</time></trkpt><trkpt lat="43.39904198515501" lon="10.872363147066023"><ele>490.0</ele><time>2026-04-18T10:38:14Z</time></trkpt><trkpt lat="43.3991583256734" lon="10.872214375121889"><ele>490.0</ele><time>2026-04-18T10:38:15Z</time></trkpt><trkpt lat="43.399269908761745" lon="10.87208257625772"><ele>490.0</ele><time>2026-04-18T10:38:16Z</time></trkpt><trkpt lat="43.39936780350532" lon="10.871935517577866"><ele>490.5</ele><time>2026-04-18T10:38:17Z</time></trkpt><trkpt lat="43.39945876526705" lon="10.871766494687279"><ele>491.0</ele><time>2026-04-18T10:38:18Z</time></trkpt><trkpt lat="43.399536734003384" lon="10.87160878676401"><ele>491.5</ele><time>2026-04-18T10:38:19Z</time></trkpt><trkpt lat="43.399598108458335" lon="10.871459413098927"><ele>492.0</ele><time>2026-04-18T10:38:20Z</time></trkpt><trkpt lat="43.39965004962638" lon="10.871307682694013"><ele>493.25</ele><time>2026-04-18T10:38:21Z</time></trkpt><trkpt lat="43.39968315003852" lon="10.871128233706681"><ele>494.5</ele><time>2026-04-18T10:38:22Z</time></trkpt><trkpt lat="43.39972130155277" lon="10.870962212468308"><ele>495.75</ele><time>2026-04-18T10:38:23Z</time></trkpt><trkpt lat="43.39975283035063" lon="10.87080332624018"><ele>497.0</ele><time>2026-04-18T10:38:24Z</time></trkpt><trkpt lat="43.39974186015635" lon="10.870622868572598"><ele>497.0</ele><time>2026-04-18T10:38:25Z</time></trkpt><trkpt lat="43.39972458611847" lon="10.870430220934182"><ele>497.0</ele><time>2026-04-18T10:38:26Z</time></trkpt><trkpt lat="43.399706076228426" lon="10.870229302128896"><ele>497.0</ele><time>2026-04-18T10:38:27Z</time></trkpt><trkpt lat="43.39967632696171" lon="10.870029171400558"><ele>497.0</ele><time>2026-04-18T10:38:28Z</time></trkpt><trkpt lat="43.39965359637936" lon="10.869817293754798"><ele>497.75</ele><time>2026-04-18T10:38:29Z</time></trkpt><trkpt lat="43.39963642230225" lon="10.869606249608669"><ele>498.5</ele><time>2026-04-18T10:38:30Z</time></trkpt><trkpt lat="43.399620554367125" lon="10.869411845603874"><ele>499.25</ele><time>2026-04-18T10:38:31Z</time></trkpt><trkpt lat="43.39959170510934" lon="10.869233414680426"><ele>500.0</ele><time>2026-04-18T10:38:32Z</time></trkpt><trkpt lat="43.39954645675385" lon="10.86905233862269"><ele>500.25</ele><time>2026-04-18T10:38:33Z</time></trkpt><trkpt lat="43.39949940627548" lon="10.868863334443912"><ele>500.5</ele><time>2026-04-18T10:38:34Z</time></trkpt><trkpt lat="43.39946330999007" lon="10.868685575811295"><ele>500.75</ele><time>2026-04-18T10:38:35Z</time></trkpt><trkpt lat="43.399429142061074" lon="10.868520895840073"><ele>501.0</ele><time>2026-04-18T10:38:36Z</time></trkpt><trkpt lat="43.399394072385824" lon="10.86835870310279"><ele>501.0</ele><time>2026-04-18T10:38:37Z</time></trkpt><trkpt lat="43.3993641858468" lon="10.868218130065223"><ele>501.0</ele><time>2026-04-18T10:38:38Z</time></trkpt><trkpt lat="43.399340380347674" lon="10.868107185168856"><ele>501.0</ele><time>2026-04-18T10:38:39Z</time></trkpt><trkpt lat="43.399316200663414" lon="10.867979701980174"><ele>501.0</ele><time>2026-04-18T10:38:41Z</time></trkpt><trkpt lat="43.399295113022724" lon="10.86787454789293"><ele>501.0</ele><time>2026-04-18T10:38:43Z</time></trkpt><trkpt lat="43.399262408732866" lon="10.867701613678186"><ele>502.5</ele><time>2026-04-18T10:38:45Z</time></trkpt><trkpt lat="43.39924874885982" lon="10.867578244676949"><ele>504.0</ele><time>2026-04-18T10:38:46Z</time></trkpt><trkpt lat="43.39924251208105" lon="10.867424586378693"><ele>505.5</ele><time>2026-04-18T10:38:47Z</time></trkpt><trkpt lat="43.39924046904493" lon="10.867260066987319"><ele>507.0</ele><time>2026-04-18T10:38:48Z</time></trkpt><trkpt lat="43.3992393385225" lon="10.86708286977894"><ele>507.0</ele><time>2026-04-18T10:38:49Z</time></trkpt><trkpt lat="43.39924251968382" lon="10.866898689461033"><ele>507.0</ele><time>2026-04-18T10:38:50Z</time></trkpt><trkpt lat="43.39924298821712" lon="10.866722566133307"><ele>507.0</ele><time>2026-04-18T10:38:51Z</time></trkpt><trkpt lat="43.39924395466635" lon="10.86655778020964"><ele>507.0</ele><time>2026-04-18T10:38:52Z</time></trkpt><trkpt lat="43.39924565579494" lon="10.866391482339896"><ele>508.40000000000003</ele><time>2026-04-18T10:38:53Z</time></trkpt><trkpt lat="43.399250539353545" lon="10.866223817915378"><ele>509.80000000000007</ele><time>2026-04-18T10:38:54Z</time></trkpt><trkpt lat="43.399256759429086" lon="10.866064641795248"><ele>511.2</ele><time>2026-04-18T10:38:55Z</time></trkpt><trkpt lat="43.39926554173929" lon="10.865924657255821"><ele>512.6</ele><time>2026-04-18T10:38:56Z</time></trkpt><trkpt lat="43.39927000575247" lon="10.8657851589307"><ele>514.0</ele><time>2026-04-18T10:38:57Z</time></trkpt><trkpt lat="43.399269782895814" lon="10.86564868591224"><ele>514.8</ele><time>2026-04-18T10:38:58Z</time></trkpt><trkpt lat="43.399272975903116" lon="10.865522870585538"><ele>515.5999999999999</ele><time>2026-04-18T10:38:59Z</time></trkpt><trkpt lat="43.399287376965404" lon="10.865396843338681"><ele>516.4</ele><time>2026-04-18T10:39:00Z</time></trkpt><trkpt lat="43.39931455934004" lon="10.865282185344807"><ele>517.1999999999999</ele><time>2026-04-18T10:39:01Z</time></trkpt><trkpt lat="43.39933806234806" lon="10.865127772255953"><ele>518.0</ele><time>2026-04-18T10:39:02Z</time></trkpt><trkpt lat="43.399368380957156" lon="10.865213156592572"><ele>517.75</ele><time>2026-04-18T10:39:03Z</time></trkpt><trkpt lat="43.399397228859385" lon="10.865075185557744"><ele>517.5</ele><time>2026-04-18T10:39:04Z</time></trkpt><trkpt lat="43.399424788690474" lon="10.864923175514399"><ele>517.25</ele><time>2026-04-18T10:39:05Z</time></trkpt><trkpt lat="43.39945236899585" lon="10.864768483929154"><ele>517.0</ele><time>2026-04-18T10:39:06Z</time></trkpt><trkpt lat="43.39948397755425" lon="10.864606475180729"><ele>517.0</ele><time>2026-04-18T10:39:07Z</time></trkpt><trkpt lat="43.39952146223464" lon="10.864427073413738"><ele>517.0</ele><time>2026-04-18T10:39:08Z</time></trkpt><trkpt lat="43.39954853835331" lon="10.864238805889771"><ele>517.0</ele><time>2026-04-18T10:39:09Z</time></trkpt><trkpt lat="43.39957915876059" lon="10.864032893503415"><ele>517.0</ele><time>2026-04-18T10:39:10Z</time></trkpt><trkpt lat="43.399609610420114" lon="10.86382389868065"><ele>516.5</ele><time>2026-04-18T10:39:11Z</time></trkpt><trkpt lat="43.399637919132985" lon="10.863626258728965"><ele>516.0</ele><time>2026-04-18T10:39:12Z</time></trkpt><trkpt lat="43.39966388035222" lon="10.863430196013868"><ele>515.5</ele><time>2026-04-18T10:39:13Z</time></trkpt><trkpt lat="43.39968418128311" lon="10.863250066922523"><ele>515.0</ele><time>2026-04-18T10:39:14Z</time></trkpt><trkpt lat="43.39969788011638" lon="10.86307834795367"><ele>521.0</ele><time>2026-04-18T10:39:15Z</time></trkpt><trkpt lat="43.39972068338071" lon="10.862906565802446"><ele>527.0</ele><time>2026-04-18T10:39:16Z</time></trkpt><trkpt lat="43.39973642332964" lon="10.862742484136197"><ele>533.0</ele><time>2026-04-18T10:39:17Z</time></trkpt><trkpt lat="43.39975916085351" lon="10.862586907260505"><ele>539.0</ele><time>2026-04-18T10:39:18Z</time></trkpt><trkpt lat="43.39977188270893" lon="10.862446053441465"><ele>539.0</ele><time>2026-04-18T10:39:19Z</time></trkpt><trkpt lat="43.39977023895576" lon="10.862324762157936"><ele>539.0</ele><time>2026-04-18T10:39:20Z</time></trkpt><trkpt lat="43.399773362752896" lon="10.862203246906608"><ele>539.0</ele><time>2026-04-18T10:39:21Z</time></trkpt><trkpt lat="43.3997861869885" lon="10.862082888258863"><ele>539.0</ele><time>2026-04-18T10:39:22Z</time></trkpt><trkpt lat="43.39980619276332" lon="10.8619447298651"><ele>539.0</ele><time>2026-04-18T10:39:23Z</time></trkpt><trkpt lat="43.39982307022549" lon="10.861797582806316"><ele>538.3333333333333</ele><time>2026-04-18T10:39:24Z</time></trkpt><trkpt lat="43.39984375476791" lon="10.861641637382064"><ele>537.6666666666666</ele><time>2026-04-18T10:39:25Z</time></trkpt><trkpt lat="43.39986699118139" lon="10.861520643421262"><ele>537.0</ele><time>2026-04-18T10:39:26Z</time></trkpt><trkpt lat="43.39988612160828" lon="10.86140821357666"><ele>536.3333333333334</ele><time>2026-04-18T10:39:27.001Z</time></trkpt><trkpt lat="43.39990098472307" lon="10.86129942428383"><ele>535.6666666666667</ele><time>2026-04-18T10:39:28.001Z</time></trkpt><trkpt lat="43.39991395037495" lon="10.861199721861128"><ele>535.0</ele><time>2026-04-18T10:39:29.001Z</time></trkpt><trkpt lat="43.39994223636306" lon="10.861044683424469"><ele>535.0</ele><time>2026-04-18T10:39:31.001Z</time></trkpt><trkpt lat="43.39995152958784" lon="10.860939862210635"><ele>535.0</ele><time>2026-04-18T10:39:33.001Z</time></trkpt><trkpt lat="43.39988659726548" lon="10.860963268154828"><ele>535.0</ele><time>2026-04-18T10:39:41.001Z</time></trkpt><trkpt lat="43.39991712595109" lon="10.861055265989267"><ele>535.0</ele><time>2026-04-18T10:39:44.001Z</time></trkpt><trkpt lat="43.3998899984523" lon="10.861241683694182"><ele>535.0</ele><time>2026-04-18T10:39:46.001Z</time></trkpt><trkpt lat="43.399870796042286" lon="10.861359798289001"><ele>535.0</ele><time>2026-04-18T10:39:47.001Z</time></trkpt><trkpt lat="43.39985702449876" lon="10.86148105231523"><ele>535.0</ele><time>2026-04-18T10:39:48.001Z</time></trkpt><trkpt lat="43.39984655509319" lon="10.861583017444959"><ele>535.0</ele><time>2026-04-18T10:39:49.001Z</time></trkpt><trkpt lat="43.399834703836966" lon="10.861708765639627"><ele>535.0</ele><time>2026-04-18T10:39:50.001Z</time></trkpt><trkpt lat="43.39981751528942" lon="10.861869315344686"><ele>535.0</ele><time>2026-04-18T10:39:51.001Z</time></trkpt><trkpt lat="43.39979332378509" lon="10.862050076220113"><ele>535.0</ele><time>2026-04-18T10:39:51.999Z</time></trkpt><trkpt lat="43.39977286547078" lon="10.86223923790675"><ele>536.0</ele><time>2026-04-18T10:39:52.999Z</time></trkpt><trkpt lat="43.3997577676502" lon="10.862430962815369"><ele>537.0</ele><time>2026-04-18T10:39:53.999Z</time></trkpt><trkpt lat="43.39974413348665" lon="10.862625590424573"><ele>538.0</ele><time>2026-04-18T10:39:54.999Z</time></trkpt><trkpt lat="43.39972729390705" lon="10.86282685145022"><ele>539.0</ele><time>2026-04-18T10:39:55.999Z</time></trkpt><trkpt lat="43.3997036002961" lon="10.863006722128777"><ele>539.75</ele><time>2026-04-18T10:39:56.999Z</time></trkpt><trkpt lat="43.399686922146756" lon="10.863202170054508"><ele>540.5</ele><time>2026-04-18T10:39:57.999Z</time></trkpt><trkpt lat="43.39966674967115" lon="10.863394332611911"><ele>541.25</ele><time>2026-04-18T10:39:58.999Z</time></trkpt><trkpt lat="43.39964247819192" lon="10.86358322868866"><ele>542.0</ele><time>2026-04-18T10:39:59.999Z</time></trkpt><trkpt lat="43.39961659904774" lon="10.863755358258322"><ele>535.75</ele><time>2026-04-18T10:40:00.999Z</time></trkpt><trkpt lat="43.399594274585766" lon="10.86392218830726"><ele>529.5</ele><time>2026-04-18T10:40:01.999Z</time></trkpt><trkpt lat="43.39956944471673" lon="10.864090118644894"><ele>523.25</ele><time>2026-04-18T10:40:02.999Z</time></trkpt><trkpt lat="43.3995424922034" lon="10.86425179552405"><ele>517.0</ele><time>2026-04-18T10:40:03.999Z</time></trkpt><trkpt lat="43.39951635509185" lon="10.864411589720254"><ele>517.0</ele><time>2026-04-18T10:40:04.999Z</time></trkpt><trkpt lat="43.399485823170245" lon="10.864568883789191"><ele>517.0</ele><time>2026-04-18T10:40:05.999Z</time></trkpt><trkpt lat="43.399459084584365" lon="10.86471823966426"><ele>517.0</ele><time>2026-04-18T10:40:06.999Z</time></trkpt><trkpt lat="43.39943387048809" lon="10.864854516712596"><ele>517.0</ele><time>2026-04-18T10:40:07.999Z</time></trkpt><trkpt lat="43.399408657289094" lon="10.864981003589048"><ele>517.0</ele><time>2026-04-18T10:40:08.999Z</time></trkpt><trkpt lat="43.39938490745739" lon="10.865121869466618"><ele>517.2</ele><time>2026-04-18T10:40:09.999Z</time></trkpt><trkpt lat="43.39936150195688" lon="10.865262434056"><ele>517.4000000000001</ele><time>2026-04-18T10:40:10.999Z</time></trkpt><trkpt lat="43.39934271915584" lon="10.865368280021666"><ele>517.5999999999999</ele><time>2026-04-18T10:40:11.999Z</time></trkpt><trkpt lat="43.399279018208006" lon="10.865455530778359"><ele>517.8</ele><time>2026-04-18T10:40:13.999Z</time></trkpt><trkpt lat="43.39919794289818" lon="10.865367903359829"><ele>518.0</ele><time>2026-04-18T10:40:17Z</time></trkpt><trkpt lat="43.39918261303661" lon="10.865268460209045"><ele>518.0</ele><time>2026-04-18T10:40:18Z</time></trkpt><trkpt lat="43.39918696474767" lon="10.865126128810429"><ele>518.0</ele><time>2026-04-18T10:40:19Z</time></trkpt><trkpt lat="43.39919261824908" lon="10.864965979577102"><ele>518.0</ele><time>2026-04-18T10:40:20Z</time></trkpt><trkpt lat="43.399197312810934" lon="10.864784811396186"><ele>518.0</ele><time>2026-04-18T10:40:21Z</time></trkpt><trkpt lat="43.39919638064546" lon="10.864601888776805"><ele>517.8</ele><time>2026-04-18T10:40:22Z</time></trkpt><trkpt lat="43.39921733679921" lon="10.864460990775052"><ele>517.5999999999999</ele><time>2026-04-18T10:40:23Z</time></trkpt><trkpt lat="43.399218675855835" lon="10.864351693676047"><ele>517.4000000000001</ele><time>2026-04-18T10:40:24Z</time></trkpt><trkpt lat="43.399231632006966" lon="10.864181120815221"><ele>517.2</ele><time>2026-04-18T10:40:26Z</time></trkpt><trkpt lat="43.399241300870244" lon="10.864062276288891"><ele>517.0</ele><time>2026-04-18T10:40:27Z</time></trkpt><trkpt lat="43.39925522195413" lon="10.863903873092921"><ele>516.3333333333334</ele><time>2026-04-18T10:40:28Z</time></trkpt><trkpt lat="43.39926941801476" lon="10.863684769435356"><ele>515.6666666666666</ele><time>2026-04-18T10:40:29Z</time></trkpt><trkpt lat="43.399281935722485" lon="10.863413537952235"><ele>515.0</ele><time>2026-04-18T10:40:30Z</time></trkpt><trkpt lat="43.39931320388134" lon="10.863139989921313"><ele>513.3333333333333</ele><time>2026-04-18T10:40:31Z</time></trkpt><trkpt lat="43.39934865577541" lon="10.8628852284857"><ele>511.66666666666663</ele><time>2026-04-18T10:40:32Z</time></trkpt><trkpt lat="43.39936415481368" lon="10.862604870654778"><ele>510.0</ele><time>2026-04-18T10:40:33Z</time></trkpt><trkpt lat="43.399385085836514" lon="10.862334594818515"><ele>507.66666666666663</ele><time>2026-04-18T10:40:34Z</time></trkpt><trkpt lat="43.39940365661333" lon="10.862050880230097"><ele>505.3333333333333</ele><time>2026-04-18T10:40:35Z</time></trkpt><trkpt lat="43.39943179798548" lon="10.861768813509189"><ele>503.0</ele><time>2026-04-18T10:40:36Z</time></trkpt><trkpt lat="43.39944569531784" lon="10.861487349807586"><ele>500.3333333333333</ele><time>2026-04-18T10:40:37Z</time></trkpt><trkpt lat="43.399464607785575" lon="10.861194451257585"><ele>497.66666666666663</ele><time>2026-04-18T10:40:38Z</time></trkpt><trkpt lat="43.39948399804326" lon="10.860934745285633"><ele>495.0</ele><time>2026-04-18T10:40:39Z</time></trkpt><trkpt lat="43.39950254043646" lon="10.860684697768896"><ele>493.33333333333337</ele><time>2026-04-18T10:40:40Z</time></trkpt><trkpt lat="43.39951767708297" lon="10.860438939750717"><ele>491.6666666666667</ele><time>2026-04-18T10:40:41Z</time></trkpt><trkpt lat="43.39953158436147" lon="10.8602056396493"><ele>490.0</ele><time>2026-04-18T10:40:42Z</time></trkpt><trkpt lat="43.399548201562354" lon="10.859981949091138"><ele>489.0</ele><time>2026-04-18T10:40:43Z</time></trkpt><trkpt lat="43.39956097536725" lon="10.85978473220325"><ele>488.0</ele><time>2026-04-18T10:40:44Z</time></trkpt><trkpt lat="43.39957328485673" lon="10.859613144912895"><ele>487.0</ele><time>2026-04-18T10:40:45Z</time></trkpt><trkpt lat="43.399592449836334" lon="10.859446760613551"><ele>486.0</ele><time>2026-04-18T10:40:46Z</time></trkpt><trkpt lat="43.39964997611753" lon="10.85931757343498"><ele>489.25</ele><time>2026-04-18T10:40:47Z</time></trkpt><trkpt lat="43.39974441127477" lon="10.859193996277646"><ele>492.5</ele><time>2026-04-18T10:40:48Z</time></trkpt><trkpt lat="43.399865020700716" lon="10.859064290031526"><ele>495.75</ele><time>2026-04-18T10:40:49Z</time></trkpt><trkpt lat="43.3999795433455" lon="10.858911926561198"><ele>499.0</ele><time>2026-04-18T10:40:50Z</time></trkpt><trkpt lat="43.400101307544986" lon="10.858743566432054"><ele>499.0</ele><time>2026-04-18T10:40:51Z</time></trkpt><trkpt lat="43.400222810678855" lon="10.858578644535184"><ele>499.0</ele><time>2026-04-18T10:40:52Z</time></trkpt><trkpt lat="43.40033156834729" lon="10.858427669965307"><ele>499.0</ele><time>2026-04-18T10:40:53Z</time></trkpt><trkpt lat="43.40041685516892" lon="10.858307147232962"><ele>499.0</ele><time>2026-04-18T10:40:54Z</time></trkpt><trkpt lat="43.400478857832546" lon="10.858215547091218"><ele>501.4</ele><time>2026-04-18T10:40:55Z</time></trkpt><trkpt lat="43.40051674416862" lon="10.858127637346499"><ele>503.79999999999995</ele><time>2026-04-18T10:40:57Z</time></trkpt><trkpt lat="43.40050796303571" lon="10.857990436314294"><ele>506.20000000000005</ele><time>2026-04-18T10:40:59Z</time></trkpt><trkpt lat="43.40044170315222" lon="10.857943753244943"><ele>508.6</ele><time>2026-04-18T10:41:00Z</time></trkpt><trkpt lat="43.40035014362111" lon="10.857950027850666"><ele>511.0</ele><time>2026-04-18T10:41:01Z</time></trkpt><trkpt lat="43.40023911318237" lon="10.85801648861129"><ele>504.75</ele><time>2026-04-18T10:41:02Z</time></trkpt><trkpt lat="43.40012316052999" lon="10.858103611037778"><ele>498.5</ele><time>2026-04-18T10:41:03Z</time></trkpt><trkpt lat="43.399989407698804" lon="10.858198913595318"><ele>492.25</ele><time>2026-04-18T10:41:04Z</time></trkpt><trkpt lat="43.3998598123405" lon="10.858248962641783"><ele>486.0</ele><time>2026-04-18T10:41:05Z</time></trkpt><trkpt lat="43.39976248318421" lon="10.85826473799323"><ele>486.0</ele><time>2026-04-18T10:41:06Z</time></trkpt><trkpt lat="43.399668844041535" lon="10.858299986644449"><ele>486.0</ele><time>2026-04-18T10:41:08Z</time></trkpt><trkpt lat="43.39956430366178" lon="10.858321603929433"><ele>486.0</ele><time>2026-04-18T10:41:11Z</time></trkpt><trkpt lat="43.39950088035645" lon="10.858357051843733"><ele>486.0</ele><time>2026-04-18T10:41:12Z</time></trkpt><trkpt lat="43.399408579295695" lon="10.858405794741724"><ele>486.0</ele><time>2026-04-18T10:41:13Z</time></trkpt><trkpt lat="43.39929492996645" lon="10.858471718262557"><ele>484.5</ele><time>2026-04-18T10:41:14Z</time></trkpt><trkpt lat="43.399179120502446" lon="10.858566690770537"><ele>483.0</ele><time>2026-04-18T10:41:15Z</time></trkpt><trkpt lat="43.3990698639527" lon="10.858695804400831"><ele>481.5</ele><time>2026-04-18T10:41:16Z</time></trkpt><trkpt lat="43.39898209872014" lon="10.85884726134501"><ele>480.0</ele><time>2026-04-18T10:41:17Z</time></trkpt><trkpt lat="43.398908850325554" lon="10.859022554097775"><ele>480.0</ele><time>2026-04-18T10:41:18Z</time></trkpt><trkpt lat="43.398851576059556" lon="10.859180779837027"><ele>480.0</ele><time>2026-04-18T10:41:19Z</time></trkpt><trkpt lat="43.39880793664064" lon="10.859299194513703"><ele>480.0</ele><time>2026-04-18T10:41:20Z</time></trkpt><trkpt lat="43.39876597964505" lon="10.85938478979378"><ele>480.0</ele><time>2026-04-18T10:41:21Z</time></trkpt><trkpt lat="43.39868286323446" lon="10.859407139237442"><ele>480.0</ele><time>2026-04-18T10:41:23Z</time></trkpt><trkpt lat="43.3986278539785" lon="10.859488900831371"><ele>476.8</ele><time>2026-04-18T10:41:25Z</time></trkpt><trkpt lat="43.39859229428455" lon="10.859673244555621"><ele>473.6</ele><time>2026-04-18T10:41:27Z</time></trkpt><trkpt lat="43.39858497125157" lon="10.859797595338087"><ele>470.4</ele><time>2026-04-18T10:41:28Z</time></trkpt><trkpt lat="43.398595636215944" lon="10.859928389293106"><ele>467.2</ele><time>2026-04-18T10:41:29Z</time></trkpt><trkpt lat="43.39862283723058" lon="10.860069954860167"><ele>464.0</ele><time>2026-04-18T10:41:30Z</time></trkpt><trkpt lat="43.3986519316032" lon="10.860226227854156"><ele>464.0</ele><time>2026-04-18T10:41:31Z</time></trkpt><trkpt lat="43.39867727766637" lon="10.860391415035856"><ele>464.0</ele><time>2026-04-18T10:41:32.001Z</time></trkpt><trkpt lat="43.398696968053244" lon="10.86055144615562"><ele>464.0</ele><time>2026-04-18T10:41:33.001Z</time></trkpt><trkpt lat="43.39869684672152" lon="10.860711815029106"><ele>464.0</ele><time>2026-04-18T10:41:34.001Z</time></trkpt><trkpt lat="43.39868164186649" lon="10.8608694629742"><ele>464.8333333333333</ele><time>2026-04-18T10:41:35.001Z</time></trkpt><trkpt lat="43.39866002087119" lon="10.861008592576418"><ele>465.66666666666663</ele><time>2026-04-18T10:41:36.001Z</time></trkpt><trkpt lat="43.39863375926131" lon="10.861109383855208"><ele>466.5</ele><time>2026-04-18T10:41:37.001Z</time></trkpt><trkpt lat="43.39858745938235" lon="10.861176276128543"><ele>467.33333333333337</ele><time>2026-04-18T10:41:38.001Z</time></trkpt><trkpt lat="43.398527676696546" lon="10.861250392628465"><ele>468.1666666666667</ele><time>2026-04-18T10:41:39.001Z</time></trkpt><trkpt lat="43.398439076452966" lon="10.861351656177805"><ele>469.0</ele><time>2026-04-18T10:41:40.001Z</time></trkpt><trkpt lat="43.3983465468032" lon="10.861489477426925"><ele>469.0</ele><time>2026-04-18T10:41:41.001Z</time></trkpt><trkpt lat="43.39824244101702" lon="10.861651858738611"><ele>469.0</ele><time>2026-04-18T10:41:42.001Z</time></trkpt><trkpt lat="43.39814585379628" lon="10.861830425555976"><ele>469.0</ele><time>2026-04-18T10:41:43.001Z</time></trkpt><trkpt lat="43.39806012860699" lon="10.862001660262042"><ele>467.25</ele><time>2026-04-18T10:41:44.001Z</time></trkpt><trkpt lat="43.39798014229668" lon="10.862139776302207"><ele>465.5</ele><time>2026-04-18T10:41:45.001Z</time></trkpt><trkpt lat="43.39788496604942" lon="10.862244211458993"><ele>463.75</ele><time>2026-04-18T10:41:46.001Z</time></trkpt><trkpt lat="43.39777708135446" lon="10.862326620820951"><ele>462.0</ele><time>2026-04-18T10:41:47.001Z</time></trkpt><trkpt lat="43.397675756588406" lon="10.862384812900562"><ele>462.0</ele><time>2026-04-18T10:41:48.001Z</time></trkpt><trkpt lat="43.397574309005705" lon="10.862427959517746"><ele>462.0</ele><time>2026-04-18T10:41:49.001Z</time></trkpt><trkpt lat="43.39746088413678" lon="10.862478999269982"><ele>462.0</ele><time>2026-04-18T10:41:50.001Z</time></trkpt><trkpt lat="43.397346800751734" lon="10.862519995308462"><ele>462.0</ele><time>2026-04-18T10:41:51.001Z</time></trkpt><trkpt lat="43.39722825217518" lon="10.862536629808893"><ele>461.5</ele><time>2026-04-18T10:41:52.001Z</time></trkpt><trkpt lat="43.39709746467575" lon="10.862534311404477"><ele>461.0</ele><time>2026-04-18T10:41:53.001Z</time></trkpt><trkpt lat="43.39696744846681" lon="10.862491543796944"><ele>460.5</ele><time>2026-04-18T10:41:54.001Z</time></trkpt><trkpt lat="43.39685283767183" lon="10.862432219030167"><ele>460.0</ele><time>2026-04-18T10:41:55.001Z</time></trkpt><trkpt lat="43.39676779184581" lon="10.862395740798839"><ele>460.0</ele><time>2026-04-18T10:41:56.001Z</time></trkpt><trkpt lat="43.39669545756045" lon="10.862397358477418"><ele>460.0</ele><time>2026-04-18T10:41:57.001Z</time></trkpt><trkpt lat="43.39660877665078" lon="10.862427070616436"><ele>460.0</ele><time>2026-04-18T10:41:57.999Z</time></trkpt><trkpt lat="43.39650773846116" lon="10.86246589441064"><ele>460.0</ele><time>2026-04-18T10:41:58.999Z</time></trkpt><trkpt lat="43.396387368788545" lon="10.862512973533827"><ele>460.0</ele><time>2026-04-18T10:41:59.999Z</time></trkpt><trkpt lat="43.39625071873516" lon="10.86256818715492"><ele>457.8</ele><time>2026-04-18T10:42:00.999Z</time></trkpt><trkpt lat="43.396113394937196" lon="10.862634380754555"><ele>455.6</ele><time>2026-04-18T10:42:01.999Z</time></trkpt><trkpt lat="43.39600697603568" lon="10.862682132263615"><ele>453.4</ele><time>2026-04-18T10:42:02.999Z</time></trkpt><trkpt lat="43.395920557599254" lon="10.862730409314304"><ele>451.2</ele><time>2026-04-18T10:42:03.999Z</time></trkpt><trkpt lat="43.39583919415201" lon="10.86274830416893"><ele>449.0</ele><time>2026-04-18T10:42:04.999Z</time></trkpt><trkpt lat="43.39574916168864" lon="10.862736832426792"><ele>449.0</ele><time>2026-04-18T10:42:05.999Z</time></trkpt><trkpt lat="43.395642366703676" lon="10.862687562696184"><ele>449.0</ele><time>2026-04-18T10:42:06.999Z</time></trkpt><trkpt lat="43.39550165815836" lon="10.862634640795472"><ele>449.0</ele><time>2026-04-18T10:42:07.999Z</time></trkpt><trkpt lat="43.395343764121655" lon="10.862579447001865"><ele>449.0</ele><time>2026-04-18T10:42:08.999Z</time></trkpt><trkpt lat="43.39521415230034" lon="10.862540329548056"><ele>447.25</ele><time>2026-04-18T10:42:09.999Z</time></trkpt><trkpt lat="43.3951285464799" lon="10.862505071826575"><ele>445.5</ele><time>2026-04-18T10:42:10.999Z</time></trkpt><trkpt lat="43.39499989926671" lon="10.862480661716285"><ele>443.75</ele><time>2026-04-18T10:42:13Z</time></trkpt><trkpt lat="43.39490760961158" lon="10.862529597555664"><ele>442.0</ele><time>2026-04-18T10:42:14Z</time></trkpt><trkpt lat="43.39477717358733" lon="10.86260769965188"><ele>438.75</ele><time>2026-04-18T10:42:15Z</time></trkpt><trkpt lat="43.394630702836146" lon="10.862694555413631"><ele>435.5</ele><time>2026-04-18T10:42:16Z</time></trkpt><trkpt lat="43.39449853059868" lon="10.862782754590457"><ele>432.25</ele><time>2026-04-18T10:42:17Z</time></trkpt><trkpt lat="43.394390127462046" lon="10.862885853498476"><ele>429.0</ele><time>2026-04-18T10:42:18Z</time></trkpt><trkpt lat="43.39425820058404" lon="10.862960297526522"><ele>429.0</ele><time>2026-04-18T10:42:19Z</time></trkpt><trkpt lat="43.394137761143995" lon="10.86302454190034"><ele>429.0</ele><time>2026-04-18T10:42:20Z</time></trkpt><trkpt lat="43.39402907949922" lon="10.863083214478872"><ele>429.0</ele><time>2026-04-18T10:42:21Z</time></trkpt><trkpt lat="43.39393080550689" lon="10.863122645434464"><ele>429.0</ele><time>2026-04-18T10:42:22Z</time></trkpt><trkpt lat="43.393845518936224" lon="10.863134308670665"><ele>429.0</ele><time>2026-04-18T10:42:23Z</time></trkpt><trkpt lat="43.393766036706204" lon="10.863128571349629"><ele>426.3333333333333</ele><time>2026-04-18T10:42:24Z</time></trkpt><trkpt lat="43.39369911036402" lon="10.863096306261884"><ele>423.66666666666663</ele><time>2026-04-18T10:42:25Z</time></trkpt><trkpt lat="43.39365844461782" lon="10.863026120271822"><ele>421.0</ele><time>2026-04-18T10:42:26Z</time></trkpt><trkpt lat="43.39364482728831" lon="10.862927878764676"><ele>418.3333333333333</ele><time>2026-04-18T10:42:27Z</time></trkpt><trkpt lat="43.39364775235373" lon="10.86279258715388"><ele>415.66666666666663</ele><time>2026-04-18T10:42:28Z</time></trkpt><trkpt lat="43.39364546548166" lon="10.8626312719244"><ele>413.0</ele><time>2026-04-18T10:42:29Z</time></trkpt><trkpt lat="43.39363380671975" lon="10.862477009483193"><ele>412.0</ele><time>2026-04-18T10:42:30Z</time></trkpt><trkpt lat="43.393601508384556" lon="10.862348157619762"><ele>411.0</ele><time>2026-04-18T10:42:31Z</time></trkpt><trkpt lat="43.393565744706216" lon="10.862193439105347"><ele>410.0</ele><time>2026-04-18T10:42:32Z</time></trkpt><trkpt lat="43.393517497281145" lon="10.862020959553597"><ele>409.0</ele><time>2026-04-18T10:42:33Z</time></trkpt><trkpt lat="43.39346440415049" lon="10.861821019156851"><ele>409.25</ele><time>2026-04-18T10:42:34Z</time></trkpt><trkpt lat="43.39340396394157" lon="10.861636285509185"><ele>409.5</ele><time>2026-04-18T10:42:35Z</time></trkpt><trkpt lat="43.39334357073557" lon="10.8614727921887"><ele>409.75</ele><time>2026-04-18T10:42:36Z</time></trkpt><trkpt lat="43.3932822685097" lon="10.861312774128034"><ele>410.0</ele><time>2026-04-18T10:42:37Z</time></trkpt><trkpt lat="43.39323005788052" lon="10.861152434384948"><ele>410.0</ele><time>2026-04-18T10:42:38Z</time></trkpt><trkpt lat="43.393187700086365" lon="10.860995680189182"><ele>410.0</ele><time>2026-04-18T10:42:39Z</time></trkpt><trkpt lat="43.393152469771906" lon="10.860852416927111"><ele>410.0</ele><time>2026-04-18T10:42:40Z</time></trkpt><trkpt lat="43.393120839255495" lon="10.860746731530867"><ele>410.0</ele><time>2026-04-18T10:42:41Z</time></trkpt><trkpt lat="43.39300814797123" lon="10.860678354138528"><ele>410.0</ele><time>2026-04-18T10:42:43Z</time></trkpt><trkpt lat="43.39294376711645" lon="10.860727683409717"><ele>405.4</ele><time>2026-04-18T10:42:44Z</time></trkpt><trkpt lat="43.392895740583064" lon="10.860826628220195"><ele>400.8</ele><time>2026-04-18T10:42:45Z</time></trkpt><trkpt lat="43.39286682166374" lon="10.86096490187203"><ele>396.20000000000005</ele><time>2026-04-18T10:42:46Z</time></trkpt><trkpt lat="43.39286497811595" lon="10.861134217008953"><ele>391.6</ele><time>2026-04-18T10:42:47Z</time></trkpt><trkpt lat="43.39287189088128" lon="10.861318572075724"><ele>387.0</ele><time>2026-04-18T10:42:48Z</time></trkpt><trkpt lat="43.3928689012249" lon="10.861481801109711"><ele>387.0</ele><time>2026-04-18T10:42:49Z</time></trkpt><trkpt lat="43.39283564581857" lon="10.861611087767441"><ele>387.0</ele><time>2026-04-18T10:42:50Z</time></trkpt><trkpt lat="43.39277770891015" lon="10.861723375795806"><ele>387.0</ele><time>2026-04-18T10:42:51Z</time></trkpt><trkpt lat="43.39271157855727" lon="10.861815988522816"><ele>387.0</ele><time>2026-04-18T10:42:52Z</time></trkpt><trkpt lat="43.39262160859667" lon="10.861859416689965"><ele>387.0</ele><time>2026-04-18T10:42:53Z</time></trkpt><trkpt lat="43.39255290958538" lon="10.861895272532607"><ele>387.0</ele><time>2026-04-18T10:42:54Z</time></trkpt><trkpt lat="43.39245715156746" lon="10.861846058997273"><ele>387.0</ele><time>2026-04-18T10:42:56Z</time></trkpt><trkpt lat="43.39241757097859" lon="10.861732767477692"><ele>387.0</ele><time>2026-04-18T10:42:57Z</time></trkpt><trkpt lat="43.39238362141143" lon="10.861598822269839"><ele>387.0</ele><time>2026-04-18T10:42:58Z</time></trkpt><trkpt lat="43.39234113933031" lon="10.861441470834412"><ele>387.0</ele><time>2026-04-18T10:42:59Z</time></trkpt><trkpt lat="43.39229347841315" lon="10.861278285250348"><ele>387.0</ele><time>2026-04-18T10:43:00Z</time></trkpt><trkpt lat="43.39224965242731" lon="10.861107974395539"><ele>387.0</ele><time>2026-04-18T10:43:01Z</time></trkpt><trkpt lat="43.392206492093315" lon="10.860986582395538"><ele>387.0</ele><time>2026-04-18T10:43:02Z</time></trkpt><trkpt lat="43.392137488861366" lon="10.8608673382157"><ele>387.0</ele><time>2026-04-18T10:43:03Z</time></trkpt><trkpt lat="43.39203700334226" lon="10.8607648043527"><ele>381.75</ele><time>2026-04-18T10:43:04Z</time></trkpt><trkpt lat="43.39190663024012" lon="10.860694955233829"><ele>376.5</ele><time>2026-04-18T10:43:05Z</time></trkpt><trkpt lat="43.39177399958305" lon="10.860635202859644"><ele>371.25</ele><time>2026-04-18T10:43:06Z</time></trkpt><trkpt lat="43.391627688432386" lon="10.860564412249088"><ele>366.0</ele><time>2026-04-18T10:43:07Z</time></trkpt><trkpt lat="43.39150523536911" lon="10.860501726138951"><ele>366.0</ele><time>2026-04-18T10:43:08Z</time></trkpt><trkpt lat="43.39141205979621" lon="10.860449990937369"><ele>366.0</ele><time>2026-04-18T10:43:09Z</time></trkpt><trkpt lat="43.39134483981951" lon="10.86039393673295"><ele>366.0</ele><time>2026-04-18T10:43:10Z</time></trkpt><trkpt lat="43.391297895181076" lon="10.860302660794822"><ele>366.0</ele><time>2026-04-18T10:43:11Z</time></trkpt><trkpt lat="43.39126136827729" lon="10.860161981954567"><ele>366.0</ele><time>2026-04-18T10:43:12Z</time></trkpt><trkpt lat="43.39122327810901" lon="10.859984784456621"><ele>360.3333333333333</ele><time>2026-04-18T10:43:13Z</time></trkpt><trkpt lat="43.39117479033347" lon="10.859792988166387"><ele>354.66666666666663</ele><time>2026-04-18T10:43:14Z</time></trkpt><trkpt lat="43.391121645545915" lon="10.859596740394606"><ele>349.0</ele><time>2026-04-18T10:43:15Z</time></trkpt><trkpt lat="43.391070130934935" lon="10.859385202133117"><ele>348.0</ele><time>2026-04-18T10:43:16Z</time></trkpt><trkpt lat="43.39102752542908" lon="10.859168520964348"><ele>347.0</ele><time>2026-04-18T10:43:17Z</time></trkpt><trkpt lat="43.390997636923366" lon="10.858961041187488"><ele>346.0</ele><time>2026-04-18T10:43:18Z</time></trkpt><trkpt lat="43.390974233239575" lon="10.858764764723782"><ele>346.0</ele><time>2026-04-18T10:43:19Z</time></trkpt><trkpt lat="43.390952419437795" lon="10.85856782730292"><ele>346.0</ele><time>2026-04-18T10:43:20Z</time></trkpt><trkpt lat="43.39093184571744" lon="10.858377279718992"><ele>346.0</ele><time>2026-04-18T10:43:21.001Z</time></trkpt><trkpt lat="43.39091268585783" lon="10.85820025378794"><ele>346.0</ele><time>2026-04-18T10:43:22.001Z</time></trkpt><trkpt lat="43.390896970696254" lon="10.85805415417603"><ele>344.6</ele><time>2026-04-18T10:43:23.001Z</time></trkpt><trkpt lat="43.39087249395411" lon="10.857946622968456"><ele>343.20000000000005</ele><time>2026-04-18T10:43:24.001Z</time></trkpt><trkpt lat="43.39081287788258" lon="10.85786369036729"><ele>341.79999999999995</ele><time>2026-04-18T10:43:25.001Z</time></trkpt><trkpt lat="43.390708855329194" lon="10.857779849389338"><ele>340.4</ele><time>2026-04-18T10:43:26.001Z</time></trkpt><trkpt lat="43.39057772051538" lon="10.857679718313337"><ele>339.0</ele><time>2026-04-18T10:43:27.001Z</time></trkpt><trkpt lat="43.3904380943057" lon="10.857561697460566"><ele>335.0</ele><time>2026-04-18T10:43:28.001Z</time></trkpt><trkpt lat="43.39028624761335" lon="10.857432409466899"><ele>331.0</ele><time>2026-04-18T10:43:29.001Z</time></trkpt><trkpt lat="43.390141642470525" lon="10.857315419750002"><ele>327.0</ele><time>2026-04-18T10:43:30.001Z</time></trkpt><trkpt lat="43.39001389248158" lon="10.857214777131883"><ele>327.0</ele><time>2026-04-18T10:43:31.001Z</time></trkpt><trkpt lat="43.389897641320395" lon="10.857139741480465"><ele>327.0</ele><time>2026-04-18T10:43:32.001Z</time></trkpt><trkpt lat="43.38979804936327" lon="10.857069754637292"><ele>327.0</ele><time>2026-04-18T10:43:33.001Z</time></trkpt><trkpt lat="43.38971014482713" lon="10.856970834125978"><ele>327.0</ele><time>2026-04-18T10:43:34.001Z</time></trkpt><trkpt lat="43.38964543273938" lon="10.856836764743308"><ele>325.0</ele><time>2026-04-18T10:43:35.001Z</time></trkpt><trkpt lat="43.38956988928874" lon="10.856714799176254"><ele>323.0</ele><time>2026-04-18T10:43:36.001Z</time></trkpt><trkpt lat="43.3894524866722" lon="10.856630305653002"><ele>321.0</ele><time>2026-04-18T10:43:37.001Z</time></trkpt><trkpt lat="43.38931134611301" lon="10.856534048532307"><ele>319.0</ele><time>2026-04-18T10:43:38.001Z</time></trkpt><trkpt lat="43.38918567576023" lon="10.856437331729673"><ele>319.0</ele><time>2026-04-18T10:43:39.001Z</time></trkpt><trkpt lat="43.389068727101495" lon="10.856337966957222"><ele>319.0</ele><time>2026-04-18T10:43:40.001Z</time></trkpt><trkpt lat="43.38896601663512" lon="10.85623485832385"><ele>319.0</ele><time>2026-04-18T10:43:41.001Z</time></trkpt><trkpt lat="43.38886170591977" lon="10.856140129986574"><ele>319.0</ele><time>2026-04-18T10:43:42.001Z</time></trkpt><trkpt lat="43.388772795594754" lon="10.856050346478755"><ele>316.75</ele><time>2026-04-18T10:43:43.001Z</time></trkpt><trkpt lat="43.38869626763964" lon="10.855948700322946"><ele>314.5</ele><time>2026-04-18T10:43:44.001Z</time></trkpt><trkpt lat="43.38862793939585" lon="10.85581679333612"><ele>312.25</ele><time>2026-04-18T10:43:45.001Z</time></trkpt><trkpt lat="43.38855952933869" lon="10.85565272632301"><ele>310.0</ele><time>2026-04-18T10:43:46.001Z</time></trkpt><trkpt lat="43.38849122035767" lon="10.85547325557737"><ele>310.0</ele><time>2026-04-18T10:43:47.001Z</time></trkpt><trkpt lat="43.38841240114226" lon="10.85528748160827"><ele>310.0</ele><time>2026-04-18T10:43:48.001Z</time></trkpt><trkpt lat="43.38833864336704" lon="10.855127699300676"><ele>310.0</ele><time>2026-04-18T10:43:49.001Z</time></trkpt><trkpt lat="43.388267472481715" lon="10.8549737384023"><ele>310.0</ele><time>2026-04-18T10:43:50.001Z</time></trkpt><trkpt lat="43.388206540913885" lon="10.854830125603964"><ele>309.25</ele><time>2026-04-18T10:43:51.001Z</time></trkpt><trkpt lat="43.38815530799335" lon="10.854695699712785"><ele>308.5</ele><time>2026-04-18T10:43:52.001Z</time></trkpt><trkpt lat="43.38810218445915" lon="10.854573540785088"><ele>307.75</ele><time>2026-04-18T10:43:53.001Z</time></trkpt><trkpt lat="43.38803077956345" lon="10.854461325089236"><ele>307.0</ele><time>2026-04-18T10:43:54.001Z</time></trkpt><trkpt lat="43.387931561224676" lon="10.854342166131127"><ele>302.3333333333333</ele><time>2026-04-18T10:43:55.001Z</time></trkpt><trkpt lat="43.38780258765162" lon="10.854216698152493"><ele>297.6666666666667</ele><time>2026-04-18T10:43:56.001Z</time></trkpt><trkpt lat="43.38767207688445" lon="10.854086980071356"><ele>293.0</ele><time>2026-04-18T10:43:57.001Z</time></trkpt><trkpt lat="43.38755774144866" lon="10.853972065053835"><ele>293.0</ele><time>2026-04-18T10:43:58.001Z</time></trkpt><trkpt lat="43.387460706452295" lon="10.853868006301424"><ele>293.0</ele><time>2026-04-18T10:43:59.001Z</time></trkpt><trkpt lat="43.38738225878998" lon="10.85376280205914"><ele>293.0</ele><time>2026-04-18T10:44:00.001Z</time></trkpt><trkpt lat="43.38731814087759" lon="10.85368894334946"><ele>293.0</ele><time>2026-04-18T10:44:01.001Z</time></trkpt><trkpt lat="43.38724721763596" lon="10.853639634251264"><ele>293.0</ele><time>2026-04-18T10:44:02.001Z</time></trkpt><trkpt lat="43.38716314367808" lon="10.853620588809068"><ele>290.75</ele><time>2026-04-18T10:44:03.001Z</time></trkpt><trkpt lat="43.38706651528536" lon="10.853635429696073"><ele>288.5</ele><time>2026-04-18T10:44:04Z</time></trkpt><trkpt lat="43.38694610784558" lon="10.853681243607895"><ele>286.25</ele><time>2026-04-18T10:44:05Z</time></trkpt><trkpt lat="43.38681790686285" lon="10.853733150066898"><ele>284.0</ele><time>2026-04-18T10:44:06Z</time></trkpt><trkpt lat="43.38671403839591" lon="10.853783710744938"><ele>284.0</ele><time>2026-04-18T10:44:07Z</time></trkpt><trkpt lat="43.38665100448337" lon="10.853838613322537"><ele>284.0</ele><time>2026-04-18T10:44:08Z</time></trkpt><trkpt lat="43.38661247103558" lon="10.85392649723943"><ele>284.0</ele><time>2026-04-18T10:44:09Z</time></trkpt><trkpt lat="43.38659829274286" lon="10.85407364972823"><ele>284.0</ele><time>2026-04-18T10:44:10Z</time></trkpt><trkpt lat="43.38659844892394" lon="10.85427933177324"><ele>284.0</ele><time>2026-04-18T10:44:11Z</time></trkpt><trkpt lat="43.3866077572657" lon="10.854464251318985"><ele>283.6666666666667</ele><time>2026-04-18T10:44:12Z</time></trkpt><trkpt lat="43.38660295872825" lon="10.854590443234972"><ele>283.33333333333337</ele><time>2026-04-18T10:44:13Z</time></trkpt><trkpt lat="43.386591985728614" lon="10.854676263499524"><ele>283.0</ele><time>2026-04-18T10:44:14Z</time></trkpt><trkpt lat="43.38650943512651" lon="10.854722737807723"><ele>282.6666666666667</ele><time>2026-04-18T10:44:16Z</time></trkpt><trkpt lat="43.38643324165989" lon="10.854726690941211"><ele>282.3333333333333</ele><time>2026-04-18T10:44:17Z</time></trkpt><trkpt lat="43.386323269474815" lon="10.854739224575091"><ele>282.0</ele><time>2026-04-18T10:44:18Z</time></trkpt><trkpt lat="43.38619828881253" lon="10.854752211185115"><ele>279.2</ele><time>2026-04-18T10:44:19Z</time></trkpt><trkpt lat="43.38609182532293" lon="10.854773675287273"><ele>276.4</ele><time>2026-04-18T10:44:20Z</time></trkpt><trkpt lat="43.38601229292804" lon="10.854834641513618"><ele>273.6</ele><time>2026-04-18T10:44:21Z</time></trkpt><trkpt lat="43.385948606393136" lon="10.854951697407722"><ele>270.8</ele><time>2026-04-18T10:44:22Z</time></trkpt><trkpt lat="43.38589994351522" lon="10.855075439434138"><ele>268.0</ele><time>2026-04-18T10:44:23Z</time></trkpt><trkpt lat="43.38584129185304" lon="10.855140074313733"><ele>268.0</ele><time>2026-04-18T10:44:24Z</time></trkpt><trkpt lat="43.38575287953596" lon="10.855145166833005"><ele>268.0</ele><time>2026-04-18T10:44:25Z</time></trkpt><trkpt lat="43.385655740374276" lon="10.855130836324788"><ele>268.0</ele><time>2026-04-18T10:44:26Z</time></trkpt><trkpt lat="43.38554671693966" lon="10.855086380488837"><ele>268.0</ele><time>2026-04-18T10:44:27Z</time></trkpt><trkpt lat="43.385419036171086" lon="10.855018945308116"><ele>268.0</ele><time>2026-04-18T10:44:28Z</time></trkpt><trkpt lat="43.38530612455938" lon="10.854921304916017"><ele>265.0</ele><time>2026-04-18T10:44:29Z</time></trkpt><trkpt lat="43.385162986296436" lon="10.854840961843587"><ele>262.0</ele><time>2026-04-18T10:44:30Z</time></trkpt><trkpt lat="43.38502850451015" lon="10.854780353707827"><ele>259.0</ele><time>2026-04-18T10:44:31Z</time></trkpt><trkpt lat="43.38490370645714" lon="10.854725198596276"><ele>256.0</ele><time>2026-04-18T10:44:32Z</time></trkpt><trkpt lat="43.38481424518692" lon="10.854651510126141"><ele>255.99999999999997</ele><time>2026-04-18T10:44:33Z</time></trkpt><trkpt lat="43.38474590564359" lon="10.854595982018552"><ele>256.0</ele><time>2026-04-18T10:44:34Z</time></trkpt><trkpt lat="43.38467513389531" lon="10.854548410881389"><ele>256.0</ele><time>2026-04-18T10:44:35Z</time></trkpt><trkpt lat="43.38458997685378" lon="10.854513369735955"><ele>256.0</ele><time>2026-04-18T10:44:36Z</time></trkpt><trkpt lat="43.384497070851815" lon="10.85449176219274"><ele>255.99999999999997</ele><time>2026-04-18T10:44:37Z</time></trkpt><trkpt lat="43.38439531168888" lon="10.854494724353371"><ele>256.0</ele><time>2026-04-18T10:44:38Z</time></trkpt><trkpt lat="43.384297953928225" lon="10.854494167555995"><ele>254.0</ele><time>2026-04-18T10:44:39Z</time></trkpt><trkpt lat="43.38421879382572" lon="10.854494787836906"><ele>252.00000000000003</ele><time>2026-04-18T10:44:40Z</time></trkpt><trkpt lat="43.384155868331796" lon="10.85451666804383"><ele>250.00000000000003</ele><time>2026-04-18T10:44:41Z</time></trkpt><trkpt lat="43.38407024241142" lon="10.85461532431305"><ele>248.0</ele><time>2026-04-18T10:44:43Z</time></trkpt><trkpt lat="43.38398154655878" lon="10.854689917903821"><ele>246.0</ele><time>2026-04-18T10:44:45Z</time></trkpt><trkpt lat="43.383880753770555" lon="10.854666948115536"><ele>244.60000000000002</ele><time>2026-04-18T10:44:47Z</time></trkpt><trkpt lat="43.38382624392482" lon="10.854579821936694"><ele>243.20000000000002</ele><time>2026-04-18T10:44:49Z</time></trkpt><trkpt lat="43.38380303116827" lon="10.854455194738286"><ele>241.79999999999998</ele><time>2026-04-18T10:44:51Z</time></trkpt><trkpt lat="43.3837628938289" lon="10.854320532226257"><ele>240.39999999999998</ele><time>2026-04-18T10:44:53Z</time></trkpt><trkpt lat="43.38370260471292" lon="10.854277201788916"><ele>239.0</ele><time>2026-04-18T10:44:55Z</time></trkpt><trkpt lat="43.38378039859336" lon="10.854173585048946"><ele>239.00000000000003</ele><time>2026-04-18T10:45:20.001Z</time></trkpt><trkpt lat="43.38378503446322" lon="10.854275174346697"><ele>239.0</ele><time>2026-04-18T10:45:47.001Z</time></trkpt><trkpt lat="43.383792354560185" lon="10.85441080263998"><ele>239.0</ele><time>2026-04-18T10:45:48.001Z</time></trkpt><trkpt lat="43.38382252123486" lon="10.854501236298217"><ele>239.0</ele><time>2026-04-18T10:45:49.001Z</time></trkpt><trkpt lat="43.383861552494295" lon="10.854618002628253"><ele>239.00000000000003</ele><time>2026-04-18T10:45:50.001Z</time></trkpt><trkpt lat="43.383822269845844" lon="10.854548398232271"><ele>239.0</ele><time>2026-04-18T10:45:51.001Z</time></trkpt><trkpt lat="43.383830694493064" lon="10.854652275405535"><ele>239.0</ele><time>2026-04-18T10:45:53.001Z</time></trkpt><trkpt lat="43.38378271630863" lon="10.854771836080598"><ele>238.99999999999997</ele><time>2026-04-18T10:45:56.001Z</time></trkpt><trkpt lat="43.38366842153647" lon="10.854831332519545"><ele>238.99999999999997</ele><time>2026-04-18T10:45:58.001Z</time></trkpt><trkpt lat="43.38359818449649" lon="10.854840119801466"><ele>239.0</ele><time>2026-04-18T10:45:59.001Z</time></trkpt><trkpt lat="43.38352991131631" lon="10.854842313281289"><ele>239.0</ele><time>2026-04-18T10:46:00.001Z</time></trkpt><trkpt lat="43.383420969136644" lon="10.854826490789673"><ele>239.00000000000003</ele><time>2026-04-18T10:46:02.001Z</time></trkpt><trkpt lat="43.383320224095065" lon="10.854835042469253"><ele>239.0</ele><time>2026-04-18T10:46:04.001Z</time></trkpt><trkpt lat="43.38325517222435" lon="10.854865209930555"><ele>239.0</ele><time>2026-04-18T10:46:05.001Z</time></trkpt><trkpt lat="43.383178735728876" lon="10.854916734941794"><ele>239.0</ele><time>2026-04-18T10:46:06.001Z</time></trkpt><trkpt lat="43.38311380782824" lon="10.854963358008728"><ele>239.00000000000003</ele><time>2026-04-18T10:46:07.001Z</time></trkpt><trkpt lat="43.3830520596308" lon="10.85501363529894"><ele>239.0</ele><time>2026-04-18T10:46:08.001Z</time></trkpt><trkpt lat="43.382983023086574" lon="10.855067308960233"><ele>237.66666666666669</ele><time>2026-04-18T10:46:09.001Z</time></trkpt><trkpt lat="43.38292070998941" lon="10.855111866132514"><ele>236.33333333333334</ele><time>2026-04-18T10:46:10Z</time></trkpt><trkpt lat="43.38285681454592" lon="10.855132792446192"><ele>235.0</ele><time>2026-04-18T10:46:11Z</time></trkpt><trkpt lat="43.38278343596662" lon="10.855141351979166"><ele>233.66666666666669</ele><time>2026-04-18T10:46:12Z</time></trkpt><trkpt lat="43.3827100881234" lon="10.855115901680932"><ele>232.33333333333334</ele><time>2026-04-18T10:46:13Z</time></trkpt><trkpt lat="43.382626120071016" lon="10.855073820355212"><ele>231.0</ele><time>2026-04-18T10:46:14Z</time></trkpt><trkpt lat="43.382526891734635" lon="10.855014072060987"><ele>231.0</ele><time>2026-04-18T10:46:15Z</time></trkpt><trkpt lat="43.38240619283246" lon="10.854939445376976"><ele>231.0</ele><time>2026-04-18T10:46:16Z</time></trkpt><trkpt lat="43.38230462064854" lon="10.854879566031151"><ele>231.0</ele><time>2026-04-18T10:46:17Z</time></trkpt><trkpt lat="43.38220479487005" lon="10.854827730511069"><ele>231.0</ele><time>2026-04-18T10:46:18Z</time></trkpt><trkpt lat="43.38210465045654" lon="10.854773482640251"><ele>230.33333333333334</ele><time>2026-04-18T10:46:19Z</time></trkpt><trkpt lat="43.38200811557252" lon="10.85472108534831"><ele>229.66666666666669</ele><time>2026-04-18T10:46:20Z</time></trkpt><trkpt lat="43.38192677888064" lon="10.854676397911575"><ele>229.0</ele><time>2026-04-18T10:46:21Z</time></trkpt><trkpt lat="43.38186297848661" lon="10.854637071287577"><ele>228.33333333333334</ele><time>2026-04-18T10:46:22Z</time></trkpt><trkpt lat="43.381802053021524" lon="10.85460701549234"><ele>227.66666666666669</ele><time>2026-04-18T10:46:23Z</time></trkpt><trkpt lat="43.38174348453176" lon="10.854566534737343"><ele>227.0</ele><time>2026-04-18T10:46:24Z</time></trkpt><trkpt lat="43.3816832346875" lon="10.854485651473219"><ele>227.0</ele><time>2026-04-18T10:46:25Z</time></trkpt><trkpt lat="43.381630342316186" lon="10.854386778596195"><ele>227.0</ele><time>2026-04-18T10:46:26Z</time></trkpt><trkpt lat="43.38158493367915" lon="10.854270301797227"><ele>227.0</ele><time>2026-04-18T10:46:27Z</time></trkpt><trkpt lat="43.38153748245402" lon="10.854137471393376"><ele>227.0</ele><time>2026-04-18T10:46:28Z</time></trkpt><trkpt lat="43.381475740092704" lon="10.854012219091915"><ele>227.0</ele><time>2026-04-18T10:46:29Z</time></trkpt><trkpt lat="43.38139389636489" lon="10.853900219045665"><ele>226.0</ele><time>2026-04-18T10:46:30Z</time></trkpt><trkpt lat="43.38127989340182" lon="10.853789930986638"><ele>225.0</ele><time>2026-04-18T10:46:31Z</time></trkpt><trkpt lat="43.381149776216816" lon="10.853668573511612"><ele>224.0</ele><time>2026-04-18T10:46:32Z</time></trkpt><trkpt lat="43.381031175329895" lon="10.853556656202679"><ele>223.0</ele><time>2026-04-18T10:46:33Z</time></trkpt><trkpt lat="43.38093755829985" lon="10.853463382299841"><ele>221.99999999999997</ele><time>2026-04-18T10:46:34Z</time></trkpt><trkpt lat="43.38084734249662" lon="10.853378978814785"><ele>221.0</ele><time>2026-04-18T10:46:35Z</time></trkpt><trkpt lat="43.38076042106766" lon="10.853300230926052"><ele>220.0</ele><time>2026-04-18T10:46:36Z</time></trkpt><trkpt lat="43.38069320110186" lon="10.853242547485157"><ele>219.0</ele><time>2026-04-18T10:46:37Z</time></trkpt><trkpt lat="43.38062937926783" lon="10.853198818090615"><ele>217.99999999999997</ele><time>2026-04-18T10:46:38Z</time></trkpt><trkpt lat="43.3805673700807" lon="10.85316054930679"><ele>217.0</ele><time>2026-04-18T10:46:39Z</time></trkpt><trkpt lat="43.38048240961425" lon="10.853134172542587"><ele>216.66666666666666</ele><time>2026-04-18T10:46:41Z</time></trkpt><trkpt lat="43.38041008042942" lon="10.853114040287403"><ele>216.33333333333331</ele><time>2026-04-18T10:46:45Z</time></trkpt><trkpt lat="43.38034594640391" lon="10.85311891969915"><ele>216.0</ele><time>2026-04-18T10:46:58.001Z</time></trkpt><trkpt lat="43.38024063613352" lon="10.853130590648904"><ele>215.66666666666669</ele><time>2026-04-18T10:47:01.001Z</time></trkpt><trkpt lat="43.38011359560976" lon="10.853120352872159"><ele>215.33333333333334</ele><time>2026-04-18T10:47:03.001Z</time></trkpt><trkpt lat="43.380044982467034" lon="10.853113436633416"><ele>215.0</ele><time>2026-04-18T10:47:04.001Z</time></trkpt><trkpt lat="43.37997520431273" lon="10.853104279769273"><ele>215.00000000000003</ele><time>2026-04-18T10:47:05.001Z</time></trkpt><trkpt lat="43.3799049658142" lon="10.853086842284302"><ele>215.0</ele><time>2026-04-18T10:47:06.001Z</time></trkpt><trkpt lat="43.37983787111574" lon="10.853067585652022"><ele>215.0</ele><time>2026-04-18T10:47:07.001Z</time></trkpt><trkpt lat="43.3797757175986" lon="10.853047126999124"><ele>215.0</ele><time>2026-04-18T10:47:08.001Z</time></trkpt><trkpt lat="43.37968086529079" lon="10.853018244588371"><ele>215.00000000000003</ele><time>2026-04-18T10:47:10.001Z</time></trkpt><trkpt lat="43.379611764457366" lon="10.853024785688644"><ele>215.0</ele><time>2026-04-18T10:47:23.001Z</time></trkpt><trkpt lat="43.37952284923592" lon="10.8530181875103"><ele>213.2</ele><time>2026-04-18T10:47:25.001Z</time></trkpt><trkpt lat="43.379437133870965" lon="10.853008137503908"><ele>211.4</ele><time>2026-04-18T10:47:26.001Z</time></trkpt><trkpt lat="43.379327788634065" lon="10.852999817601148"><ele>209.60000000000002</ele><time>2026-04-18T10:47:27.001Z</time></trkpt><trkpt lat="43.37921817690051" lon="10.852986424931489"><ele>207.8</ele><time>2026-04-18T10:47:28.001Z</time></trkpt><trkpt lat="43.37911946322688" lon="10.85297427695418"><ele>206.0</ele><time>2026-04-18T10:47:29.001Z</time></trkpt><trkpt lat="43.3790269749014" lon="10.852959064238114"><ele>206.0</ele><time>2026-04-18T10:47:30.001Z</time></trkpt><trkpt lat="43.37894277133703" lon="10.852953122363912"><ele>206.0</ele><time>2026-04-18T10:47:31.001Z</time></trkpt><trkpt lat="43.37887272365889" lon="10.852956145494048"><ele>206.0</ele><time>2026-04-18T10:47:32.001Z</time></trkpt><trkpt lat="43.378955827604" lon="10.852980872707109"><ele>206.0</ele><time>2026-04-18T10:47:49.001Z</time></trkpt><trkpt lat="43.37906176574754" lon="10.852972671804665"><ele>206.0</ele><time>2026-04-18T10:47:50.001Z</time></trkpt><trkpt lat="43.379188957892666" lon="10.852991741461123"><ele>206.0</ele><time>2026-04-18T10:47:51.001Z</time></trkpt><trkpt lat="43.37933427609757" lon="10.853015009370578"><ele>206.0</ele><time>2026-04-18T10:47:52.001Z</time></trkpt><trkpt lat="43.37948951089302" lon="10.853031258093202"><ele>206.0</ele><time>2026-04-18T10:47:53.001Z</time></trkpt><trkpt lat="43.37965307789988" lon="10.853043363249899"><ele>207.8</ele><time>2026-04-18T10:47:54.001Z</time></trkpt><trkpt lat="43.3797878757858" lon="10.853051573400881"><ele>209.60000000000002</ele><time>2026-04-18T10:47:55.001Z</time></trkpt><trkpt lat="43.379890015673126" lon="10.853084289453232"><ele>211.4</ele><time>2026-04-18T10:47:56.001Z</time></trkpt><trkpt lat="43.37999525158645" lon="10.8531217122659"><ele>213.2</ele><time>2026-04-18T10:47:57.002Z</time></trkpt><trkpt lat="43.380089997267085" lon="10.853126215248636"><ele>215.0</ele><time>2026-04-18T10:47:58.002Z</time></trkpt><trkpt lat="43.38016741774632" lon="10.85312320978856"><ele>215.00000000000003</ele><time>2026-04-18T10:47:59.002Z</time></trkpt><trkpt lat="43.38024254822715" lon="10.853124329812095"><ele>215.0</ele><time>2026-04-18T10:48:00.002Z</time></trkpt><trkpt lat="43.380338148199804" lon="10.853124071483029"><ele>215.0</ele><time>2026-04-18T10:48:01.002Z</time></trkpt><trkpt lat="43.38043165999074" lon="10.85313139644839"><ele>215.0</ele><time>2026-04-18T10:48:02.002Z</time></trkpt><trkpt lat="43.38051400185873" lon="10.853150468917885"><ele>215.00000000000003</ele><time>2026-04-18T10:48:03.002Z</time></trkpt><trkpt lat="43.38057825345967" lon="10.853176184839873"><ele>215.0</ele><time>2026-04-18T10:48:04.002Z</time></trkpt><trkpt lat="43.38065940940447" lon="10.853233505922944"><ele>215.33333333333334</ele><time>2026-04-18T10:48:06.002Z</time></trkpt><trkpt lat="43.380711824514876" lon="10.853284761328544"><ele>215.66666666666669</ele><time>2026-04-18T10:48:15Z</time></trkpt><trkpt lat="43.38081209232531" lon="10.8533411884175"><ele>216.0</ele><time>2026-04-18T10:48:25Z</time></trkpt><trkpt lat="43.380867106949374" lon="10.853395325873791"><ele>216.33333333333331</ele><time>2026-04-18T10:48:26Z</time></trkpt><trkpt lat="43.38092947726283" lon="10.853452888560174"><ele>216.66666666666666</ele><time>2026-04-18T10:48:27Z</time></trkpt><trkpt lat="43.38098097985538" lon="10.853502791325564"><ele>217.0</ele><time>2026-04-18T10:48:28Z</time></trkpt><trkpt lat="43.38106402290697" lon="10.853558103104069"><ele>217.0</ele><time>2026-04-18T10:48:30Z</time></trkpt><trkpt lat="43.38111601462741" lon="10.853476572636286"><ele>217.0</ele><time>2026-04-18T10:48:32Z</time></trkpt><trkpt lat="43.38113589276011" lon="10.853300709467282"><ele>217.0</ele><time>2026-04-18T10:48:34Z</time></trkpt><trkpt lat="43.381109298546804" lon="10.85314259755196"><ele>217.0</ele><time>2026-04-18T10:48:36Z</time></trkpt><trkpt lat="43.381079296165005" lon="10.852990542487298"><ele>217.0</ele><time>2026-04-18T10:48:38Z</time></trkpt><trkpt lat="43.381058662778784" lon="10.852907557358312"><ele>217.0</ele><time>2026-04-18T10:48:39Z</time></trkpt><trkpt lat="43.38100725756242" lon="10.852787303231114"><ele>217.0</ele><time>2026-04-18T10:48:41Z</time></trkpt><trkpt lat="43.380960549857306" lon="10.852681473811188"><ele>217.0</ele><time>2026-04-18T10:48:43.001Z</time></trkpt><trkpt lat="43.380907575591905" lon="10.852547500312422"><ele>217.0</ele><time>2026-04-18T10:48:45.001Z</time></trkpt><trkpt lat="43.38086970602207" lon="10.852457284020552"><ele>217.0</ele><time>2026-04-18T10:48:46.001Z</time></trkpt><trkpt lat="43.38082817720269" lon="10.852359332930813"><ele>216.2</ele><time>2026-04-18T10:48:47.001Z</time></trkpt><trkpt lat="43.38078600491146" lon="10.852263127161086"><ele>215.39999999999998</ele><time>2026-04-18T10:48:48.001Z</time></trkpt><trkpt lat="43.380739835459245" lon="10.852154166176776"><ele>214.60000000000002</ele><time>2026-04-18T10:48:49.001Z</time></trkpt><trkpt lat="43.3806794228331" lon="10.852024645553826"><ele>213.8</ele><time>2026-04-18T10:48:50.001Z</time></trkpt><trkpt lat="43.380609049128125" lon="10.851875873773055"><ele>213.0</ele><time>2026-04-18T10:48:51.001Z</time></trkpt><trkpt lat="43.38053631813138" lon="10.85172580245447"><ele>211.60000000000002</ele><time>2026-04-18T10:48:52.001Z</time></trkpt><trkpt lat="43.38046980478698" lon="10.851588569268442"><ele>210.20000000000002</ele><time>2026-04-18T10:48:53.001Z</time></trkpt><trkpt lat="43.38042589607699" lon="10.851473877982002"><ele>208.8</ele><time>2026-04-18T10:48:54.001Z</time></trkpt><trkpt lat="43.38038891143134" lon="10.851358980758501"><ele>207.4</ele><time>2026-04-18T10:48:55.001Z</time></trkpt><trkpt lat="43.38036347854925" lon="10.851255267203053"><ele>206.0</ele><time>2026-04-18T10:48:56.001Z</time></trkpt><trkpt lat="43.38034272953463" lon="10.85115597942174"><ele>205.99999999999997</ele><time>2026-04-18T10:48:57.001Z</time></trkpt><trkpt lat="43.38032407809126" lon="10.851057451786133"><ele>206.0</ele><time>2026-04-18T10:48:58.001Z</time></trkpt><trkpt lat="43.380312295873075" lon="10.850970326930481"><ele>206.0</ele><time>2026-04-18T10:48:59.001Z</time></trkpt><trkpt lat="43.38030341342368" lon="10.850883362950363"><ele>206.0</ele><time>2026-04-18T10:49:00.001Z</time></trkpt><trkpt lat="43.38029257301165" lon="10.850786051623766"><ele>206.0</ele><time>2026-04-18T10:49:01.001Z</time></trkpt><trkpt lat="43.38027906509401" lon="10.850679876157448"><ele>205.99999999999997</ele><time>2026-04-18T10:49:02.001Z</time></trkpt><trkpt lat="43.38026561196316" lon="10.850591246670474"><ele>206.0</ele><time>2026-04-18T10:49:03.001Z</time></trkpt><trkpt lat="43.380248986411836" lon="10.850450852544151"><ele>205.33333333333334</ele><time>2026-04-18T10:49:05.001Z</time></trkpt><trkpt lat="43.38020689664988" lon="10.850330883288184"><ele>204.66666666666669</ele><time>2026-04-18T10:49:07.001Z</time></trkpt><trkpt lat="43.380157096592306" lon="10.850250562094912"><ele>204.0</ele><time>2026-04-18T10:49:10.001Z</time></trkpt><trkpt lat="43.380122997750135" lon="10.850171875704692"><ele>203.33333333333331</ele><time>2026-04-18T10:49:12.001Z</time></trkpt><trkpt lat="43.380073809596986" lon="10.850052721091478"><ele>202.66666666666666</ele><time>2026-04-18T10:49:14.001Z</time></trkpt><trkpt lat="43.38004308896886" lon="10.849923417443463"><ele>202.0</ele><time>2026-04-18T10:49:16.001Z</time></trkpt><trkpt lat="43.38002120436826" lon="10.849783653251654"><ele>200.66666666666666</ele><time>2026-04-18T10:49:18.001Z</time></trkpt><trkpt lat="43.380002621544165" lon="10.849646066745585"><ele>199.33333333333331</ele><time>2026-04-18T10:49:20.001Z</time></trkpt><trkpt lat="43.3799852298628" lon="10.849538014009873"><ele>198.0</ele><time>2026-04-18T10:49:22.001Z</time></trkpt><trkpt lat="43.379954663777085" lon="10.849446696190164"><ele>196.66666666666669</ele><time>2026-04-18T10:49:24.001Z</time></trkpt><trkpt lat="43.37991801481272" lon="10.849344160807524"><ele>195.33333333333334</ele><time>2026-04-18T10:49:26.001Z</time></trkpt><trkpt lat="43.379889391878734" lon="10.849259287481607"><ele>194.0</ele><time>2026-04-18T10:49:28.001Z</time></trkpt><trkpt lat="43.37983071003651" lon="10.849139759772221"><ele>192.6</ele><time>2026-04-18T10:49:30.001Z</time></trkpt><trkpt lat="43.379753423974435" lon="10.848985497231444"><ele>191.2</ele><time>2026-04-18T10:49:32.001Z</time></trkpt><trkpt lat="43.37968543468063" lon="10.848882574311352"><ele>189.79999999999998</ele><time>2026-04-18T10:49:33.001Z</time></trkpt><trkpt lat="43.3796079246278" lon="10.848777472587312"><ele>188.39999999999998</ele><time>2026-04-18T10:49:34.001Z</time></trkpt><trkpt lat="43.379536952208056" lon="10.848698870557628"><ele>187.0</ele><time>2026-04-18T10:49:35.001Z</time></trkpt><trkpt lat="43.3794540355568" lon="10.848627416697704"><ele>185.6</ele><time>2026-04-18T10:49:36.001Z</time></trkpt><trkpt lat="43.37936998491624" lon="10.848556018322288"><ele>184.2</ele><time>2026-04-18T10:49:37.001Z</time></trkpt><trkpt lat="43.379299255818005" lon="10.848483825944207"><ele>182.8</ele><time>2026-04-18T10:49:38.001Z</time></trkpt><trkpt lat="43.37922174492258" lon="10.848399425203867"><ele>181.4</ele><time>2026-04-18T10:49:39.001Z</time></trkpt><trkpt lat="43.37914489910391" lon="10.848298306274584"><ele>180.0</ele><time>2026-04-18T10:49:40.001Z</time></trkpt><trkpt lat="43.37909675954035" lon="10.848182936693764"><ele>180.0</ele><time>2026-04-18T10:49:41.001Z</time></trkpt><trkpt lat="43.379062298488996" lon="10.848070473898293"><ele>180.0</ele><time>2026-04-18T10:49:42.001Z</time></trkpt><trkpt lat="43.37904042779469" lon="10.847954089570361"><ele>180.0</ele><time>2026-04-18T10:49:43.001Z</time></trkpt><trkpt lat="43.37903120852229" lon="10.847816896959609"><ele>180.0</ele><time>2026-04-18T10:49:44.001Z</time></trkpt><trkpt lat="43.379016422786506" lon="10.847652463813036"><ele>180.0</ele><time>2026-04-18T10:49:45.001Z</time></trkpt><trkpt lat="43.37898734816709" lon="10.847512947913899"><ele>180.4</ele><time>2026-04-18T10:49:46.001Z</time></trkpt><trkpt lat="43.3789434378751" lon="10.84738174880758"><ele>180.8</ele><time>2026-04-18T10:49:47.001Z</time></trkpt><trkpt lat="43.378907094611506" lon="10.847267294736078"><ele>181.2</ele><time>2026-04-18T10:49:48.001Z</time></trkpt><trkpt lat="43.3788825458438" lon="10.847150317219043"><ele>181.6</ele><time>2026-04-18T10:49:49.001Z</time></trkpt><trkpt lat="43.378862536986595" lon="10.847000837112077"><ele>182.0</ele><time>2026-04-18T10:49:50.001Z</time></trkpt><trkpt lat="43.37884403540875" lon="10.846844139650173"><ele>180.25</ele><time>2026-04-18T10:49:51.001Z</time></trkpt><trkpt lat="43.37881278192235" lon="10.846700813706741"><ele>178.5</ele><time>2026-04-18T10:49:52.001Z</time></trkpt><trkpt lat="43.37876299867378" lon="10.846554186423193"><ele>176.75</ele><time>2026-04-18T10:49:53.001Z</time></trkpt><trkpt lat="43.378697771474805" lon="10.846409047244984"><ele>175.0</ele><time>2026-04-18T10:49:54.002Z</time></trkpt><trkpt lat="43.378623267531516" lon="10.846253152274617"><ele>175.0</ele><time>2026-04-18T10:49:55.002Z</time></trkpt><trkpt lat="43.378554842566956" lon="10.84610068108134"><ele>175.0</ele><time>2026-04-18T10:49:56.002Z</time></trkpt><trkpt lat="43.37850144899888" lon="10.845958246568314"><ele>175.0</ele><time>2026-04-18T10:49:57.002Z</time></trkpt><trkpt lat="43.378462564945494" lon="10.845819348741502"><ele>175.0</ele><time>2026-04-18T10:49:58.002Z</time></trkpt><trkpt lat="43.37842091160045" lon="10.845687862102748"><ele>175.6</ele><time>2026-04-18T10:49:59.002Z</time></trkpt><trkpt lat="43.378379356303" lon="10.845582017318215"><ele>176.2</ele><time>2026-04-18T10:50:00.002Z</time></trkpt><trkpt lat="43.3783407151466" lon="10.84547997534006"><ele>176.8</ele><time>2026-04-18T10:50:01.002Z</time></trkpt><trkpt lat="43.37830787567211" lon="10.845342498522282"><ele>177.4</ele><time>2026-04-18T10:50:02.002Z</time></trkpt><trkpt lat="43.37826800495769" lon="10.845183163758081"><ele>178.0</ele><time>2026-04-18T10:50:03.002Z</time></trkpt><trkpt lat="43.37820302737049" lon="10.845028626697491"><ele>178.25</ele><time>2026-04-18T10:50:04.002Z</time></trkpt><trkpt lat="43.37812463033812" lon="10.844903406269559"><ele>178.5</ele><time>2026-04-18T10:50:05.002Z</time></trkpt><trkpt lat="43.37804207041984" lon="10.84480128424942"><ele>178.75</ele><time>2026-04-18T10:50:06.002Z</time></trkpt><trkpt lat="43.37795455534388" lon="10.844676320020474"><ele>179.0</ele><time>2026-04-18T10:50:07.002Z</time></trkpt><trkpt lat="43.377876796451375" lon="10.844545112450785"><ele>178.6</ele><time>2026-04-18T10:50:08.002Z</time></trkpt><trkpt lat="43.377818635888445" lon="10.844433005780369"><ele>178.2</ele><time>2026-04-18T10:50:09.002Z</time></trkpt><trkpt lat="43.37776593461777" lon="10.84433328572697"><ele>177.79999999999998</ele><time>2026-04-18T10:50:10.002Z</time></trkpt><trkpt lat="43.377726515009094" lon="10.844247833851464"><ele>177.39999999999998</ele><time>2026-04-18T10:50:11.002Z</time></trkpt><trkpt lat="43.377690911532376" lon="10.844087887196432"><ele>177.0</ele><time>2026-04-18T10:50:13.002Z</time></trkpt><trkpt lat="43.37768130896159" lon="10.843975021347795"><ele>177.0</ele><time>2026-04-18T10:50:14.002Z</time></trkpt><trkpt lat="43.377669953098696" lon="10.843826076412284"><ele>177.0</ele><time>2026-04-18T10:50:15.002Z</time></trkpt><trkpt lat="43.37765719940593" lon="10.843695876705306"><ele>177.0</ele><time>2026-04-18T10:50:16.002Z</time></trkpt><trkpt lat="43.377637677963584" lon="10.84357461756911"><ele>177.0</ele><time>2026-04-18T10:50:17.002Z</time></trkpt><trkpt lat="43.37761309860108" lon="10.84345320853437"><ele>177.0</ele><time>2026-04-18T10:50:18.002Z</time></trkpt><trkpt lat="43.37758378024287" lon="10.843335880394545"><ele>177.0</ele><time>2026-04-18T10:50:19.002Z</time></trkpt><trkpt lat="43.37755449253376" lon="10.84323251966841"><ele>177.0</ele><time>2026-04-18T10:50:20.002Z</time></trkpt><trkpt lat="43.37752917659092" lon="10.843138116876935"><ele>177.0</ele><time>2026-04-18T10:50:21Z</time></trkpt><trkpt lat="43.37750126535965" lon="10.843044825182629"><ele>177.0</ele><time>2026-04-18T10:50:22Z</time></trkpt><trkpt lat="43.377473744921794" lon="10.842957370345534"><ele>177.0</ele><time>2026-04-18T10:50:23Z</time></trkpt><trkpt lat="43.37743182649581" lon="10.842842351901787"><ele>177.0</ele><time>2026-04-18T10:50:24Z</time></trkpt><trkpt lat="43.37737552013937" lon="10.842718625140959"><ele>175.39999999999998</ele><time>2026-04-18T10:50:25Z</time></trkpt><trkpt lat="43.37731646994199" lon="10.842615601316421"><ele>173.79999999999998</ele><time>2026-04-18T10:50:26Z</time></trkpt><trkpt lat="43.377255529419045" lon="10.842513901966845"><ele>172.2</ele><time>2026-04-18T10:50:27Z</time></trkpt><trkpt lat="43.37718478930062" lon="10.84240940303521"><ele>170.6</ele><time>2026-04-18T10:50:28Z</time></trkpt><trkpt lat="43.37711630384044" lon="10.842319642389878"><ele>169.0</ele><time>2026-04-18T10:50:29Z</time></trkpt><trkpt lat="43.37705514417985" lon="10.842243173914703"><ele>169.0</ele><time>2026-04-18T10:50:30Z</time></trkpt><trkpt lat="43.37699328240342" lon="10.842156954159908"><ele>169.0</ele><time>2026-04-18T10:50:31Z</time></trkpt><trkpt lat="43.37692901662608" lon="10.84207387273936"><ele>169.0</ele><time>2026-04-18T10:50:32Z</time></trkpt><trkpt lat="43.37686421935653" lon="10.841998979084616"><ele>169.0</ele><time>2026-04-18T10:50:33Z</time></trkpt><trkpt lat="43.376801176629606" lon="10.841931430200207"><ele>169.0</ele><time>2026-04-18T10:50:34Z</time></trkpt><trkpt lat="43.37674010613736" lon="10.841868956630803"><ele>169.0</ele><time>2026-04-18T10:50:35Z</time></trkpt><trkpt lat="43.37668674327374" lon="10.841809834499564"><ele>168.0</ele><time>2026-04-18T10:50:36Z</time></trkpt><trkpt lat="43.37661069805426" lon="10.841666987122005"><ele>167.0</ele><time>2026-04-18T10:50:38Z</time></trkpt><trkpt lat="43.37657693834431" lon="10.841558578088641"><ele>166.0</ele><time>2026-04-18T10:50:39Z</time></trkpt><trkpt lat="43.37652822469344" lon="10.841430037434941"><ele>165.0</ele><time>2026-04-18T10:50:40Z</time></trkpt><trkpt lat="43.37647031587286" lon="10.841301854017614"><ele>164.0</ele><time>2026-04-18T10:50:41Z</time></trkpt><trkpt lat="43.37639433709445" lon="10.841172171929413"><ele>163.0</ele><time>2026-04-18T10:50:42Z</time></trkpt><trkpt lat="43.376315795611895" lon="10.841065403119142"><ele>162.0</ele><time>2026-04-18T10:50:43Z</time></trkpt><trkpt lat="43.37623517541373" lon="10.84096318726112"><ele>161.0</ele><time>2026-04-18T10:50:44Z</time></trkpt><trkpt lat="43.376145708600035" lon="10.840850574974402"><ele>160.0</ele><time>2026-04-18T10:50:45Z</time></trkpt><trkpt lat="43.37605426271561" lon="10.840740463197276"><ele>160.0</ele><time>2026-04-18T10:50:46Z</time></trkpt><trkpt lat="43.375967389150624" lon="10.840635239541916"><ele>160.0</ele><time>2026-04-18T10:50:47Z</time></trkpt><trkpt lat="43.37588797055715" lon="10.84052883197418"><ele>160.0</ele><time>2026-04-18T10:50:48Z</time></trkpt><trkpt lat="43.37581362306564" lon="10.840421062296176"><ele>160.0</ele><time>2026-04-18T10:50:49.001Z</time></trkpt><trkpt lat="43.37574723341006" lon="10.840324194138498"><ele>160.0</ele><time>2026-04-18T10:50:50.001Z</time></trkpt><trkpt lat="43.3756808508628" lon="10.84022208161785"><ele>159.66666666666669</ele><time>2026-04-18T10:50:51.001Z</time></trkpt><trkpt lat="43.37561906446306" lon="10.840121264082473"><ele>159.33333333333334</ele><time>2026-04-18T10:50:52.001Z</time></trkpt><trkpt lat="43.375575442597345" lon="10.840047913803435"><ele>159.0</ele><time>2026-04-18T10:50:53.001Z</time></trkpt><trkpt lat="43.37553951571235" lon="10.839961051703801"><ele>158.66666666666666</ele><time>2026-04-18T10:50:55.001Z</time></trkpt><trkpt lat="43.37556137545098" lon="10.839834716225761"><ele>158.33333333333331</ele><time>2026-04-18T10:50:58.001Z</time></trkpt><trkpt lat="43.37558906750739" lon="10.839694115086873"><ele>158.0</ele><time>2026-04-18T10:51:00.001Z</time></trkpt><trkpt lat="43.37558647415454" lon="10.839599365257492"><ele>158.0</ele><time>2026-04-18T10:51:01.001Z</time></trkpt><trkpt lat="43.37556350873052" lon="10.839497598605817"><ele>158.0</ele><time>2026-04-18T10:51:02.001Z</time></trkpt><trkpt lat="43.375532975139265" lon="10.839377209940634"><ele>158.0</ele><time>2026-04-18T10:51:04.001Z</time></trkpt><trkpt lat="43.37551057541319" lon="10.839267063199168"><ele>158.0</ele><time>2026-04-18T10:51:06.001Z</time></trkpt><trkpt lat="43.3755149076622" lon="10.839177196198111"><ele>158.0</ele><time>2026-04-18T10:51:07.001Z</time></trkpt><trkpt lat="43.37553064398523" lon="10.839073192604802"><ele>158.0</ele><time>2026-04-18T10:51:08.001Z</time></trkpt><trkpt lat="43.37554509444103" lon="10.838953012891617"><ele>157.33333333333331</ele><time>2026-04-18T10:51:09.001Z</time></trkpt><trkpt lat="43.3755420722584" lon="10.838840564091926"><ele>156.66666666666666</ele><time>2026-04-18T10:51:10.001Z</time></trkpt><trkpt lat="43.37552952658673" lon="10.838723405417198"><ele>156.0</ele><time>2026-04-18T10:51:11.001Z</time></trkpt><trkpt lat="43.37552623687614" lon="10.838608885784435"><ele>155.33333333333334</ele><time>2026-04-18T10:51:12.001Z</time></trkpt><trkpt lat="43.37553919137152" lon="10.83851421732185"><ele>154.66666666666669</ele><time>2026-04-18T10:51:13.001Z</time></trkpt><trkpt lat="43.37559884230549" lon="10.83838812102253"><ele>154.0</ele><time>2026-04-18T10:51:15.001Z</time></trkpt><trkpt lat="43.375650250987846" lon="10.838275669766473"><ele>153.83333333333334</ele><time>2026-04-18T10:51:17.001Z</time></trkpt><trkpt lat="43.37571806219069" lon="10.838164251951042"><ele>153.66666666666669</ele><time>2026-04-18T10:51:19.001Z</time></trkpt><trkpt lat="43.37580386198382" lon="10.838084062020467"><ele>153.5</ele><time>2026-04-18T10:51:21.001Z</time></trkpt><trkpt lat="43.37586651051706" lon="10.838062061273083"><ele>153.33333333333334</ele><time>2026-04-18T10:51:22.001Z</time></trkpt><trkpt lat="43.37593437867584" lon="10.838053478001369"><ele>153.16666666666666</ele><time>2026-04-18T10:51:23.001Z</time></trkpt><trkpt lat="43.375999785166705" lon="10.838057231621567"><ele>153.0</ele><time>2026-04-18T10:51:24.001Z</time></trkpt><trkpt lat="43.376071479016595" lon="10.838070647069893"><ele>153.0</ele><time>2026-04-18T10:51:25.001Z</time></trkpt><trkpt lat="43.37614922989961" lon="10.83809320488736"><ele>153.0</ele><time>2026-04-18T10:51:26.001Z</time></trkpt><trkpt lat="43.376248493871095" lon="10.838122482335043"><ele>153.0</ele><time>2026-04-18T10:51:27.001Z</time></trkpt><trkpt lat="43.376347751782426" lon="10.838141883032613"><ele>153.0</ele><time>2026-04-18T10:51:28.001Z</time></trkpt><trkpt lat="43.37643926357525" lon="10.838138720178698"><ele>153.0</ele><time>2026-04-18T10:51:29.001Z</time></trkpt><trkpt lat="43.37652367208928" lon="10.838120276480009"><ele>150.66666666666666</ele><time>2026-04-18T10:51:30.001Z</time></trkpt><trkpt lat="43.37659711344656" lon="10.838092978438091"><ele>148.33333333333334</ele><time>2026-04-18T10:51:31.001Z</time></trkpt><trkpt lat="43.37666157138898" lon="10.838072230377362"><ele>146.0</ele><time>2026-04-18T10:51:32.001Z</time></trkpt><trkpt lat="43.37674108878122" lon="10.83809365051922"><ele>143.66666666666669</ele><time>2026-04-18T10:51:34.001Z</time></trkpt><trkpt lat="43.376875791123936" lon="10.838113053214933"><ele>141.33333333333334</ele><time>2026-04-18T10:51:36.001Z</time></trkpt><trkpt lat="43.376965952868474" lon="10.838114849772232"><ele>139.0</ele><time>2026-04-18T10:51:37.001Z</time></trkpt><trkpt lat="43.37705494697094" lon="10.838118836172288"><ele>139.0</ele><time>2026-04-18T10:51:38.001Z</time></trkpt><trkpt lat="43.3771454384442" lon="10.83812008462396"><ele>139.0</ele><time>2026-04-18T10:51:39.001Z</time></trkpt><trkpt lat="43.37722401095357" lon="10.838113459648033"><ele>139.0</ele><time>2026-04-18T10:51:40.001Z</time></trkpt><trkpt lat="43.3772888321523" lon="10.838098579371948"><ele>139.0</ele><time>2026-04-18T10:51:41.001Z</time></trkpt><trkpt lat="43.377401769356176" lon="10.83803744855305"><ele>139.0</ele><time>2026-04-18T10:51:43.001Z</time></trkpt><trkpt lat="43.37745197382703" lon="10.83796826481427"><ele>139.0</ele><time>2026-04-18T10:51:44.001Z</time></trkpt><trkpt lat="43.37747976473141" lon="10.837873919477868"><ele>137.16666666666669</ele><time>2026-04-18T10:51:45.001Z</time></trkpt><trkpt lat="43.377508016197105" lon="10.83777237592827"><ele>135.33333333333334</ele><time>2026-04-18T10:51:46.001Z</time></trkpt><trkpt lat="43.37753867478905" lon="10.83768364174611"><ele>133.5</ele><time>2026-04-18T10:51:47.001Z</time></trkpt><trkpt lat="43.377572881290874" lon="10.837589386204021"><ele>131.66666666666666</ele><time>2026-04-18T10:51:48.001Z</time></trkpt><trkpt lat="43.377603450501866" lon="10.837504432991249"><ele>129.83333333333331</ele><time>2026-04-18T10:51:49.001Z</time></trkpt><trkpt lat="43.37766577787439" lon="10.837427117908002"><ele>128.0</ele><time>2026-04-18T10:51:51.001Z</time></trkpt><trkpt lat="43.377789613498855" lon="10.83741384747119"><ele>128.0</ele><time>2026-04-18T10:51:53.001Z</time></trkpt><trkpt lat="43.377880091435806" lon="10.837380062905915"><ele>128.0</ele><time>2026-04-18T10:51:54.001Z</time></trkpt><trkpt lat="43.37797419098396" lon="10.83732540351463"><ele>128.0</ele><time>2026-04-18T10:51:55.001Z</time></trkpt><trkpt lat="43.37806466449063" lon="10.837281428759178"><ele>128.0</ele><time>2026-04-18T10:51:56.002Z</time></trkpt><trkpt lat="43.37816050787967" lon="10.837252290532739"><ele>128.0</ele><time>2026-04-18T10:51:57.002Z</time></trkpt><trkpt lat="43.37825560826129" lon="10.83722169080554"><ele>127.49999999999999</ele><time>2026-04-18T10:51:59.002Z</time></trkpt><trkpt lat="43.37829031126859" lon="10.83714738350039"><ele>127.0</ele><time>2026-04-18T10:52:01.002Z</time></trkpt><trkpt lat="43.378286683068424" lon="10.837014494016609"><ele>126.5</ele><time>2026-04-18T10:52:03.001Z</time></trkpt><trkpt lat="43.37828762051267" lon="10.836927385079013"><ele>126.0</ele><time>2026-04-18T10:52:04.001Z</time></trkpt><trkpt lat="43.37828913052715" lon="10.836820879419223"><ele>125.49999999999999</ele><time>2026-04-18T10:52:05.001Z</time></trkpt><trkpt lat="43.378290814814456" lon="10.836696768322543"><ele>125.0</ele><time>2026-04-18T10:52:06.001Z</time></trkpt><trkpt lat="43.378288220254525" lon="10.836559911154225"><ele>125.0</ele><time>2026-04-18T10:52:07.001Z</time></trkpt><trkpt lat="43.37828462954013" lon="10.836418439664453"><ele>125.0</ele><time>2026-04-18T10:52:08.001Z</time></trkpt><trkpt lat="43.37828201246911" lon="10.836268912630299"><ele>125.0</ele><time>2026-04-18T10:52:09.001Z</time></trkpt><trkpt lat="43.378264729995216" lon="10.836103240121824"><ele>125.0</ele><time>2026-04-18T10:52:10.001Z</time></trkpt><trkpt lat="43.37824030164286" lon="10.835928283542048"><ele>125.25</ele><time>2026-04-18T10:52:11.001Z</time></trkpt><trkpt lat="43.37820984120041" lon="10.835760091374555"><ele>125.5</ele><time>2026-04-18T10:52:12.001Z</time></trkpt><trkpt lat="43.37818297239124" lon="10.835602925494486"><ele>125.75</ele><time>2026-04-18T10:52:13.001Z</time></trkpt><trkpt lat="43.37814724973648" lon="10.835426553827627"><ele>126.0</ele><time>2026-04-18T10:52:14.001Z</time></trkpt><trkpt lat="43.37811183349463" lon="10.83524983283481"><ele>126.5</ele><time>2026-04-18T10:52:15.001Z</time></trkpt><trkpt lat="43.378068537397496" lon="10.83508321790113"><ele>127.0</ele><time>2026-04-18T10:52:16.001Z</time></trkpt><trkpt lat="43.37801160103752" lon="10.83489918700725"><ele>127.5</ele><time>2026-04-18T10:52:17.001Z</time></trkpt><trkpt lat="43.37795104860989" lon="10.83472782229414"><ele>128.0</ele><time>2026-04-18T10:52:18.001Z</time></trkpt><trkpt lat="43.37789543618296" lon="10.834576132870607"><ele>126.5</ele><time>2026-04-18T10:52:19.001Z</time></trkpt><trkpt lat="43.377837140604285" lon="10.834436580291596"><ele>125.0</ele><time>2026-04-18T10:52:20.001Z</time></trkpt><trkpt lat="43.37777464909414" lon="10.834290597019342"><ele>123.5</ele><time>2026-04-18T10:52:21.001Z</time></trkpt><trkpt lat="43.37769610740358" lon="10.834141700781661"><ele>122.0</ele><time>2026-04-18T10:52:22.001Z</time></trkpt><trkpt lat="43.37759879462048" lon="10.833984185870465"><ele>122.0</ele><time>2026-04-18T10:52:23.001Z</time></trkpt><trkpt lat="43.377488346683236" lon="10.833825754164517"><ele>122.0</ele><time>2026-04-18T10:52:24.001Z</time></trkpt><trkpt lat="43.377384486748134" lon="10.833675893971643"><ele>122.0</ele><time>2026-04-18T10:52:25.001Z</time></trkpt><trkpt lat="43.37729726792321" lon="10.83354272947129"><ele>122.0</ele><time>2026-04-18T10:52:26.001Z</time></trkpt><trkpt lat="43.37719526947442" lon="10.83341218690733"><ele>120.0</ele><time>2026-04-18T10:52:26.999Z</time></trkpt><trkpt lat="43.37707949634125" lon="10.833281453806046"><ele>118.0</ele><time>2026-04-18T10:52:27.999Z</time></trkpt><trkpt lat="43.37696961498403" lon="10.833165642943175"><ele>116.0</ele><time>2026-04-18T10:52:28.999Z</time></trkpt><trkpt lat="43.376728782069925" lon="10.832939208327224"><ele>116.0</ele><time>2026-04-18T10:52:30.999Z</time></trkpt><trkpt lat="43.37658944807685" lon="10.832830276074086"><ele>116.0</ele><time>2026-04-18T10:52:31.999Z</time></trkpt><trkpt lat="43.376435653640726" lon="10.832712787308072"><ele>116.0</ele><time>2026-04-18T10:52:32.999Z</time></trkpt><trkpt lat="43.376290449581425" lon="10.83260486174682"><ele>116.25</ele><time>2026-04-18T10:52:33.999Z</time></trkpt><trkpt lat="43.37616919266296" lon="10.832509885017734"><ele>116.5</ele><time>2026-04-18T10:52:34.999Z</time></trkpt><trkpt lat="43.376058508694065" lon="10.832419141218661"><ele>116.75</ele><time>2026-04-18T10:52:35.999Z</time></trkpt><trkpt lat="43.37593782952667" lon="10.832326179944005"><ele>117.0</ele><time>2026-04-18T10:52:36.999Z</time></trkpt><trkpt lat="43.37581590145394" lon="10.832236754236558"><ele>117.0</ele><time>2026-04-18T10:52:37.999Z</time></trkpt><trkpt lat="43.375706578245236" lon="10.83216097016599"><ele>117.0</ele><time>2026-04-18T10:52:38.999Z</time></trkpt><trkpt lat="43.37559670553402" lon="10.832094451517392"><ele>117.0</ele><time>2026-04-18T10:52:39.999Z</time></trkpt><trkpt lat="43.375474717459355" lon="10.832036237950335"><ele>117.0</ele><time>2026-04-18T10:52:40.999Z</time></trkpt><trkpt lat="43.37534424272773" lon="10.831981560091103"><ele>115.75</ele><time>2026-04-18T10:52:41.999Z</time></trkpt><trkpt lat="43.375212029087756" lon="10.83193805637888"><ele>114.5</ele><time>2026-04-18T10:52:42.999Z</time></trkpt><trkpt lat="43.375085758026536" lon="10.83190011224582"><ele>113.25</ele><time>2026-04-18T10:52:43.999Z</time></trkpt><trkpt lat="43.37496909769272" lon="10.83186705399201"><ele>112.0</ele><time>2026-04-18T10:52:44.999Z</time></trkpt><trkpt lat="43.37485938596019" lon="10.831843478185181"><ele>112.0</ele><time>2026-04-18T10:52:45.999Z</time></trkpt><trkpt lat="43.374762200517445" lon="10.831832382246843"><ele>112.0</ele><time>2026-04-18T10:52:46.999Z</time></trkpt><trkpt lat="43.37465180122707" lon="10.83182755074619"><ele>112.0</ele><time>2026-04-18T10:52:47.999Z</time></trkpt><trkpt lat="43.3745175077206" lon="10.83183227196596"><ele>112.0</ele><time>2026-04-18T10:52:48.999Z</time></trkpt><trkpt lat="43.3743680950862" lon="10.831842262021327"><ele>111.5</ele><time>2026-04-18T10:52:49.999Z</time></trkpt><trkpt lat="43.374213652725246" lon="10.831863562192021"><ele>111.0</ele><time>2026-04-18T10:52:50.999Z</time></trkpt><trkpt lat="43.374070266413554" lon="10.8318975013782"><ele>110.5</ele><time>2026-04-18T10:52:51.999Z</time></trkpt><trkpt lat="43.373944272240536" lon="10.831938807301226"><ele>110.0</ele><time>2026-04-18T10:52:52.999Z</time></trkpt><trkpt lat="43.373817452684705" lon="10.831975446630617"><ele>109.75</ele><time>2026-04-18T10:52:53.999Z</time></trkpt><trkpt lat="43.37368154009686" lon="10.832013082517388"><ele>109.5</ele><time>2026-04-18T10:52:55Z</time></trkpt><trkpt lat="43.37353944571329" lon="10.832057621809133"><ele>109.25</ele><time>2026-04-18T10:52:56Z</time></trkpt><trkpt lat="43.37340399588484" lon="10.832105837039105"><ele>109.0</ele><time>2026-04-18T10:52:57Z</time></trkpt><trkpt lat="43.373280940174" lon="10.832149033455384"><ele>109.0</ele><time>2026-04-18T10:52:58Z</time></trkpt><trkpt lat="43.373153458105044" lon="10.832197531861036"><ele>109.0</ele><time>2026-04-18T10:52:59Z</time></trkpt><trkpt lat="43.373015642332696" lon="10.832246763087216"><ele>109.0</ele><time>2026-04-18T10:53:00Z</time></trkpt><trkpt lat="43.37287741810362" lon="10.832278049793342"><ele>109.0</ele><time>2026-04-18T10:53:01Z</time></trkpt><trkpt lat="43.37275163359481" lon="10.832308127842378"><ele>109.0</ele><time>2026-04-18T10:53:02Z</time></trkpt><trkpt lat="43.372646848035394" lon="10.832333272149043"><ele>109.0</ele><time>2026-04-18T10:53:03Z</time></trkpt><trkpt lat="43.37254354819128" lon="10.832360159174058"><ele>109.0</ele><time>2026-04-18T10:53:04Z</time></trkpt><trkpt lat="43.37242987320286" lon="10.83239370906652"><ele>109.0</ele><time>2026-04-18T10:53:05Z</time></trkpt><trkpt lat="43.372325975955135" lon="10.832425565125721"><ele>109.0</ele><time>2026-04-18T10:53:06Z</time></trkpt><trkpt lat="43.37222205966745" lon="10.83245216025204"><ele>108.25</ele><time>2026-04-18T10:53:07Z</time></trkpt><trkpt lat="43.37211520833281" lon="10.832466912776782"><ele>107.5</ele><time>2026-04-18T10:53:08Z</time></trkpt><trkpt lat="43.37199479585246" lon="10.832462544189728"><ele>106.75</ele><time>2026-04-18T10:53:09Z</time></trkpt><trkpt lat="43.37187074716969" lon="10.832445925862016"><ele>106.0</ele><time>2026-04-18T10:53:10Z</time></trkpt><trkpt lat="43.37174669164318" lon="10.832427396397572"><ele>106.0</ele><time>2026-04-18T10:53:11Z</time></trkpt><trkpt lat="43.37162747825529" lon="10.83239901332992"><ele>106.0</ele><time>2026-04-18T10:53:12Z</time></trkpt><trkpt lat="43.37150341796341" lon="10.832360450562415"><ele>106.0</ele><time>2026-04-18T10:53:13Z</time></trkpt><trkpt lat="43.37139372706325" lon="10.832310334684145"><ele>106.0</ele><time>2026-04-18T10:53:14Z</time></trkpt><trkpt lat="43.37130227528807" lon="10.832261200119849"><ele>104.8</ele><time>2026-04-18T10:53:15Z</time></trkpt><trkpt lat="43.37120261483863" lon="10.832203912789804"><ele>103.6</ele><time>2026-04-18T10:53:16Z</time></trkpt><trkpt lat="43.37110278627658" lon="10.832131914825005"><ele>102.4</ele><time>2026-04-18T10:53:17Z</time></trkpt><trkpt lat="43.37100092613349" lon="10.832042471421616"><ele>101.2</ele><time>2026-04-18T10:53:18Z</time></trkpt><trkpt lat="43.37091348293266" lon="10.831963961773424"><ele>100.0</ele><time>2026-04-18T10:53:19Z</time></trkpt><trkpt lat="43.37082979147924" lon="10.831868028289959"><ele>98.75</ele><time>2026-04-18T10:53:20Z</time></trkpt><trkpt lat="43.37074674531329" lon="10.831755522902728"><ele>97.5</ele><time>2026-04-18T10:53:21Z</time></trkpt><trkpt lat="43.37066114164901" lon="10.831626833320172"><ele>96.25</ele><time>2026-04-18T10:53:22Z</time></trkpt><trkpt lat="43.3705860922181" lon="10.83149912645122"><ele>95.0</ele><time>2026-04-18T10:53:23Z</time></trkpt><trkpt lat="43.37051596142554" lon="10.831375168597116"><ele>95.0</ele><time>2026-04-18T10:53:24Z</time></trkpt><trkpt lat="43.3704472028103" lon="10.831242126032892"><ele>95.0</ele><time>2026-04-18T10:53:25Z</time></trkpt><trkpt lat="43.370374182029245" lon="10.831084548465656"><ele>95.0</ele><time>2026-04-18T10:53:26Z</time></trkpt><trkpt lat="43.37028727495665" lon="10.830904297574346"><ele>95.0</ele><time>2026-04-18T10:53:27Z</time></trkpt><trkpt lat="43.37021335812986" lon="10.830743502545465"><ele>95.75</ele><time>2026-04-18T10:53:28Z</time></trkpt><trkpt lat="43.37013888832076" lon="10.830591448575843"><ele>96.5</ele><time>2026-04-18T10:53:29Z</time></trkpt><trkpt lat="43.37006585595097" lon="10.830445779729876"><ele>97.25</ele><time>2026-04-18T10:53:30Z</time></trkpt><trkpt lat="43.36999426046375" lon="10.830302882086855"><ele>98.0</ele><time>2026-04-18T10:53:31Z</time></trkpt><trkpt lat="43.369930036070116" lon="10.830156354126439"><ele>99.0</ele><time>2026-04-18T10:53:32Z</time></trkpt><trkpt lat="43.36986674844405" lon="10.830003877719083"><ele>100.0</ele><time>2026-04-18T10:53:33Z</time></trkpt><trkpt lat="43.3698139447714" lon="10.829849663905652"><ele>101.0</ele><time>2026-04-18T10:53:34Z</time></trkpt><trkpt lat="43.36977554069716" lon="10.829688217446009"><ele>102.0</ele><time>2026-04-18T10:53:35Z</time></trkpt><trkpt lat="43.36973141228864" lon="10.829517361766976"><ele>102.0</ele><time>2026-04-18T10:53:36Z</time></trkpt><trkpt lat="43.36969381465357" lon="10.8293451498176"><ele>102.0</ele><time>2026-04-18T10:53:37Z</time></trkpt><trkpt lat="43.36964797067256" lon="10.829159726926322"><ele>102.0</ele><time>2026-04-18T10:53:38Z</time></trkpt><trkpt lat="43.36960497537524" lon="10.828982829693393"><ele>102.0</ele><time>2026-04-18T10:53:39Z</time></trkpt><trkpt lat="43.3695616269338" lon="10.828830929765573"><ele>100.0</ele><time>2026-04-18T10:53:40Z</time></trkpt><trkpt lat="43.36951978594717" lon="10.82865048363111"><ele>98.0</ele><time>2026-04-18T10:53:41Z</time></trkpt><trkpt lat="43.36947664971632" lon="10.828461869072086"><ele>96.0</ele><time>2026-04-18T10:53:42Z</time></trkpt><trkpt lat="43.369439790559255" lon="10.828298263952526"><ele>94.0</ele><time>2026-04-18T10:53:43Z</time></trkpt><trkpt lat="43.36940845691887" lon="10.828143712153144"><ele>94.0</ele><time>2026-04-18T10:53:44Z</time></trkpt><trkpt lat="43.36937678255556" lon="10.827985420941097"><ele>94.0</ele><time>2026-04-18T10:53:45Z</time></trkpt><trkpt lat="43.369351756809145" lon="10.827819907853714"><ele>94.0</ele><time>2026-04-18T10:53:46Z</time></trkpt><trkpt lat="43.3693420083669" lon="10.827666721251875"><ele>94.0</ele><time>2026-04-18T10:53:47Z</time></trkpt><trkpt lat="43.36933975982552" lon="10.82750659363825"><ele>94.25</ele><time>2026-04-18T10:53:48Z</time></trkpt><trkpt lat="43.36934563739018" lon="10.827328994825333"><ele>94.5</ele><time>2026-04-18T10:53:49Z</time></trkpt><trkpt lat="43.36935408060214" lon="10.82712802426684"><ele>94.75</ele><time>2026-04-18T10:53:50Z</time></trkpt><trkpt lat="43.369374166578496" lon="10.82692955444697"><ele>95.0</ele><time>2026-04-18T10:53:51Z</time></trkpt><trkpt lat="43.36939617717807" lon="10.826761949141678"><ele>94.25</ele><time>2026-04-18T10:53:52Z</time></trkpt><trkpt lat="43.36942608296285" lon="10.826609600544245"><ele>93.5</ele><time>2026-04-18T10:53:53Z</time></trkpt><trkpt lat="43.36947119293706" lon="10.826450497483874"><ele>92.75</ele><time>2026-04-18T10:53:54Z</time></trkpt><trkpt lat="43.369528717529185" lon="10.826255569346724"><ele>92.0</ele><time>2026-04-18T10:53:55Z</time></trkpt><trkpt lat="43.36959034123817" lon="10.82604672959018"><ele>91.0</ele><time>2026-04-18T10:53:56Z</time></trkpt><trkpt lat="43.36964398837201" lon="10.825856038625465"><ele>90.0</ele><time>2026-04-18T10:53:57.001Z</time></trkpt><trkpt lat="43.36968723452135" lon="10.825696140119803"><ele>89.0</ele><time>2026-04-18T10:53:58.001Z</time></trkpt><trkpt lat="43.369729881931455" lon="10.825535797484543"><ele>88.0</ele><time>2026-04-18T10:53:59.001Z</time></trkpt><trkpt lat="43.36976777038034" lon="10.82536008992017"><ele>88.5</ele><time>2026-04-18T10:54:00.001Z</time></trkpt><trkpt lat="43.36979307510377" lon="10.825202615946218"><ele>89.0</ele><time>2026-04-18T10:54:01.001Z</time></trkpt><trkpt lat="43.36980781533879" lon="10.825052967822202"><ele>89.5</ele><time>2026-04-18T10:54:02.001Z</time></trkpt><trkpt lat="43.36980981748102" lon="10.82489734654709"><ele>90.0</ele><time>2026-04-18T10:54:03.001Z</time></trkpt><trkpt lat="43.36980534282812" lon="10.824719593136367"><ele>90.0</ele><time>2026-04-18T10:54:04.001Z</time></trkpt><trkpt lat="43.369795250476066" lon="10.824530964584616"><ele>90.0</ele><time>2026-04-18T10:54:05.001Z</time></trkpt><trkpt lat="43.36977872889248" lon="10.824365165077321"><ele>90.0</ele><time>2026-04-18T10:54:06.001Z</time></trkpt><trkpt lat="43.36975298269163" lon="10.824202641012198"><ele>90.0</ele><time>2026-04-18T10:54:07.001Z</time></trkpt><trkpt lat="43.369721468806055" lon="10.824035045944669"><ele>88.75</ele><time>2026-04-18T10:54:08.001Z</time></trkpt><trkpt lat="43.36967748188816" lon="10.823874612300381"><ele>87.5</ele><time>2026-04-18T10:54:09.001Z</time></trkpt><trkpt lat="43.3696198773272" lon="10.823713646496778"><ele>86.25</ele><time>2026-04-18T10:54:10.001Z</time></trkpt><trkpt lat="43.3695474356379" lon="10.823536215439592"><ele>85.0</ele><time>2026-04-18T10:54:11.001Z</time></trkpt><trkpt lat="43.3694735117896" lon="10.823370952228863"><ele>85.0</ele><time>2026-04-18T10:54:12.001Z</time></trkpt><trkpt lat="43.369396866819116" lon="10.823234709965005"><ele>85.0</ele><time>2026-04-18T10:54:13.001Z</time></trkpt><trkpt lat="43.3693196203059" lon="10.823111398069063"><ele>85.0</ele><time>2026-04-18T10:54:14.001Z</time></trkpt><trkpt lat="43.36922808963169" lon="10.823002614882363"><ele>85.0</ele><time>2026-04-18T10:54:15.001Z</time></trkpt><trkpt lat="43.36912484001257" lon="10.822887120244001"><ele>85.0</ele><time>2026-04-18T10:54:16.001Z</time></trkpt><trkpt lat="43.36900744198261" lon="10.822761558542851"><ele>85.0</ele><time>2026-04-18T10:54:17.001Z</time></trkpt><trkpt lat="43.36887886695374" lon="10.82264676844314"><ele>85.0</ele><time>2026-04-18T10:54:18.001Z</time></trkpt><trkpt lat="43.36873235244424" lon="10.822513458834395"><ele>84.75</ele><time>2026-04-18T10:54:19.001Z</time></trkpt><trkpt lat="43.36859517426428" lon="10.82239419633521"><ele>84.5</ele><time>2026-04-18T10:54:20.001Z</time></trkpt><trkpt lat="43.36847748225401" lon="10.822297076335948"><ele>84.25</ele><time>2026-04-18T10:54:21.001Z</time></trkpt><trkpt lat="43.3683717119648" lon="10.822201236398051"><ele>84.0</ele><time>2026-04-18T10:54:22.001Z</time></trkpt><trkpt lat="43.368257691604605" lon="10.822096467207437"><ele>84.0</ele><time>2026-04-18T10:54:23.001Z</time></trkpt><trkpt lat="43.368161233971286" lon="10.8220067847562"><ele>84.0</ele><time>2026-04-18T10:54:24.001Z</time></trkpt><trkpt lat="43.368053088888466" lon="10.821903767379041"><ele>84.0</ele><time>2026-04-18T10:54:25.001Z</time></trkpt><trkpt lat="43.36793853124089" lon="10.821796202023043"><ele>84.0</ele><time>2026-04-18T10:54:26.001Z</time></trkpt><trkpt lat="43.367809669746805" lon="10.821674039255385"><ele>84.25</ele><time>2026-04-18T10:54:27.001Z</time></trkpt><trkpt lat="43.36768029125237" lon="10.821565494913717"><ele>84.5</ele><time>2026-04-18T10:54:28.001Z</time></trkpt><trkpt lat="43.36758196917108" lon="10.821481207048775"><ele>84.75</ele><time>2026-04-18T10:54:29.001Z</time></trkpt><trkpt lat="43.36749492008586" lon="10.821405766341787"><ele>85.0</ele><time>2026-04-18T10:54:30.001Z</time></trkpt><trkpt lat="43.36741247214063" lon="10.821328322808276"><ele>85.0</ele><time>2026-04-18T10:54:31.001Z</time></trkpt><trkpt lat="43.367324453739286" lon="10.821234215673975"><ele>85.0</ele><time>2026-04-18T10:54:32.001Z</time></trkpt><trkpt lat="43.36723335521466" lon="10.821152530892181"><ele>85.0</ele><time>2026-04-18T10:54:32.999Z</time></trkpt><trkpt lat="43.36715369974726" lon="10.821079754673907"><ele>85.0</ele><time>2026-04-18T10:54:33.999Z</time></trkpt><trkpt lat="43.36707791560623" lon="10.821021420234192"><ele>85.0</ele><time>2026-04-18T10:54:34.999Z</time></trkpt><trkpt lat="43.36701366873017" lon="10.820968210846248"><ele>84.0</ele><time>2026-04-18T10:54:35.999Z</time></trkpt><trkpt lat="43.36695457565482" lon="10.820914449268402"><ele>83.0</ele><time>2026-04-18T10:54:36.999Z</time></trkpt><trkpt lat="43.36689650655444" lon="10.820866741446231"><ele>82.0</ele><time>2026-04-18T10:54:37.999Z</time></trkpt><trkpt lat="43.36679275853892" lon="10.82079001316849"><ele>81.0</ele><time>2026-04-18T10:54:39.999Z</time></trkpt><trkpt lat="43.36670757518143" lon="10.82070351394411"><ele>80.0</ele><time>2026-04-18T10:54:41.999Z</time></trkpt><trkpt lat="43.36663578048667" lon="10.82060625371343"><ele>80.0</ele><time>2026-04-18T10:54:42.999Z</time></trkpt><trkpt lat="43.36655647214763" lon="10.820512605082946"><ele>80.0</ele><time>2026-04-18T10:54:43.999Z</time></trkpt><trkpt lat="43.36647099558082" lon="10.82042121125676"><ele>80.0</ele><time>2026-04-18T10:54:44.999Z</time></trkpt><trkpt lat="43.36639405452706" lon="10.82032179221313"><ele>80.0</ele><time>2026-04-18T10:54:45.999Z</time></trkpt><trkpt lat="43.36630610918015" lon="10.820204384653069"><ele>80.0</ele><time>2026-04-18T10:54:46.999Z</time></trkpt><trkpt lat="43.36621835009518" lon="10.82007480387988"><ele>79.75</ele><time>2026-04-18T10:54:47.999Z</time></trkpt><trkpt lat="43.366120616861686" lon="10.819927656563863"><ele>79.5</ele><time>2026-04-18T10:54:48.999Z</time></trkpt><trkpt lat="43.366018415109416" lon="10.819780416046136"><ele>79.25</ele><time>2026-04-18T10:54:49.999Z</time></trkpt><trkpt lat="43.36594425437941" lon="10.81965419003244"><ele>79.0</ele><time>2026-04-18T10:54:50.999Z</time></trkpt><trkpt lat="43.36584411655005" lon="10.819531626274456"><ele>79.0</ele><time>2026-04-18T10:54:52Z</time></trkpt><trkpt lat="43.36574883610293" lon="10.819399188022045"><ele>79.0</ele><time>2026-04-18T10:54:53Z</time></trkpt><trkpt lat="43.36565536031265" lon="10.81926069981282"><ele>79.0</ele><time>2026-04-18T10:54:54Z</time></trkpt><trkpt lat="43.36556324882412" lon="10.819124599762683"><ele>79.0</ele><time>2026-04-18T10:54:55Z</time></trkpt><trkpt lat="43.36547206333872" lon="10.818990557223907"><ele>79.0</ele><time>2026-04-18T10:54:56Z</time></trkpt><trkpt lat="43.36538139533563" lon="10.818856912813597"><ele>79.0</ele><time>2026-04-18T10:54:57Z</time></trkpt><trkpt lat="43.365283759353886" lon="10.818721563209982"><ele>79.0</ele><time>2026-04-18T10:54:58Z</time></trkpt><trkpt lat="43.36519626099461" lon="10.818589100503075"><ele>79.0</ele><time>2026-04-18T10:54:59Z</time></trkpt><trkpt lat="43.36511164994091" lon="10.818456949093024"><ele>78.25</ele><time>2026-04-18T10:55:00Z</time></trkpt><trkpt lat="43.36501736824028" lon="10.818317077966006"><ele>77.5</ele><time>2026-04-18T10:55:01Z</time></trkpt><trkpt lat="43.364920367200945" lon="10.818183910700862"><ele>76.75</ele><time>2026-04-18T10:55:02Z</time></trkpt><trkpt lat="43.36483092175299" lon="10.8180627240318"><ele>76.0</ele><time>2026-04-18T10:55:03Z</time></trkpt><trkpt lat="43.364744436360304" lon="10.817940041986581"><ele>76.0</ele><time>2026-04-18T10:55:04Z</time></trkpt><trkpt lat="43.36466100546002" lon="10.817812037881076"><ele>76.0</ele><time>2026-04-18T10:55:05Z</time></trkpt><trkpt lat="43.36456777768502" lon="10.817673888815024"><ele>76.0</ele><time>2026-04-18T10:55:06Z</time></trkpt><trkpt lat="43.36446942345742" lon="10.81753676842159"><ele>76.0</ele><time>2026-04-18T10:55:07Z</time></trkpt><trkpt lat="43.36437044473105" lon="10.817395571570298"><ele>76.0</ele><time>2026-04-18T10:55:08Z</time></trkpt><trkpt lat="43.36427692871915" lon="10.817262551423026"><ele>76.0</ele><time>2026-04-18T10:55:09Z</time></trkpt><trkpt lat="43.36420128539402" lon="10.817147324954155"><ele>76.0</ele><time>2026-04-18T10:55:10Z</time></trkpt><trkpt lat="43.364133297499905" lon="10.817051776155097"><ele>76.0</ele><time>2026-04-18T10:55:11Z</time></trkpt><trkpt lat="43.36407603028503" lon="10.816977497188772"><ele>76.0</ele><time>2026-04-18T10:55:12Z</time></trkpt><trkpt lat="43.36402777310946" lon="10.816906496633486"><ele>76.0</ele><time>2026-04-18T10:55:13Z</time></trkpt><trkpt lat="43.36398585576177" lon="10.816840086659465"><ele>76.0</ele><time>2026-04-18T10:55:14Z</time></trkpt><trkpt lat="43.36397099730235" lon="10.816698446452115"><ele>76.0</ele><time>2026-04-18T10:55:16Z</time></trkpt><trkpt lat="43.364045936057956" lon="10.816538606036856"><ele>76.0</ele><time>2026-04-18T10:55:18Z</time></trkpt><trkpt lat="43.36412159393952" lon="10.816442298469655"><ele>76.0</ele><time>2026-04-18T10:55:19Z</time></trkpt><trkpt lat="43.36422071887844" lon="10.816330769300869"><ele>75.8</ele><time>2026-04-18T10:55:20Z</time></trkpt><trkpt lat="43.3643097170465" lon="10.816214131109566"><ele>75.6</ele><time>2026-04-18T10:55:21Z</time></trkpt><trkpt lat="43.3643870984034" lon="10.816101533302687"><ele>75.4</ele><time>2026-04-18T10:55:22Z</time></trkpt><trkpt lat="43.36446431208335" lon="10.81600074346339"><ele>75.2</ele><time>2026-04-18T10:55:23Z</time></trkpt><trkpt lat="43.364531513859376" lon="10.815916743958251"><ele>75.0</ele><time>2026-04-18T10:55:24Z</time></trkpt><trkpt lat="43.364591110635494" lon="10.81583752761314"><ele>75.0</ele><time>2026-04-18T10:55:25Z</time></trkpt><trkpt lat="43.36464282452428" lon="10.815774376887324"><ele>75.0</ele><time>2026-04-18T10:55:26Z</time></trkpt><trkpt lat="43.36470606685003" lon="10.815704453861684"><ele>75.0</ele><time>2026-04-18T10:55:27Z</time></trkpt><trkpt lat="43.364796293632615" lon="10.815635169314417"><ele>75.0</ele><time>2026-04-18T10:55:28Z</time></trkpt><trkpt lat="43.364895257982724" lon="10.815558668044275"><ele>75.0</ele><time>2026-04-18T10:55:29Z</time></trkpt><trkpt lat="43.36499352816055" lon="10.815470909026972"><ele>75.4</ele><time>2026-04-18T10:55:30Z</time></trkpt><trkpt lat="43.36507396095119" lon="10.815394132833896"><ele>75.8</ele><time>2026-04-18T10:55:31Z</time></trkpt><trkpt lat="43.365144608894056" lon="10.81532154509205"><ele>76.2</ele><time>2026-04-18T10:55:33Z</time></trkpt><trkpt lat="43.365246992567926" lon="10.815311362555143"><ele>76.6</ele><time>2026-04-18T10:55:35Z</time></trkpt><trkpt lat="43.36534142970826" lon="10.81530075368556"><ele>77.0</ele><time>2026-04-18T10:55:36Z</time></trkpt><trkpt lat="43.365448483967256" lon="10.815273761097213"><ele>78.5</ele><time>2026-04-18T10:55:37Z</time></trkpt><trkpt lat="43.365564235739306" lon="10.815228543653923"><ele>80.0</ele><time>2026-04-18T10:55:38Z</time></trkpt><trkpt lat="43.36568828979528" lon="10.815186369283284"><ele>81.5</ele><time>2026-04-18T10:55:39Z</time></trkpt><trkpt lat="43.365824939358674" lon="10.815164144425427"><ele>83.0</ele><time>2026-04-18T10:55:40Z</time></trkpt><trkpt lat="43.36596030439277" lon="10.815147689824595"><ele>83.0</ele><time>2026-04-18T10:55:41Z</time></trkpt><trkpt lat="43.36609395527821" lon="10.815140323689214"><ele>83.0</ele><time>2026-04-18T10:55:42Z</time></trkpt><trkpt lat="43.36621779110205" lon="10.815140061094306"><ele>83.0</ele><time>2026-04-18T10:55:43Z</time></trkpt><trkpt lat="43.366329866491036" lon="10.815152340043953"><ele>83.0</ele><time>2026-04-18T10:55:44Z</time></trkpt><trkpt lat="43.36644103145433" lon="10.815158719687208"><ele>84.5</ele><time>2026-04-18T10:55:45Z</time></trkpt><trkpt lat="43.36652594767241" lon="10.815173044799415"><ele>86.0</ele><time>2026-04-18T10:55:46Z</time></trkpt><trkpt lat="43.36658848199724" lon="10.815189266522339"><ele>87.5</ele><time>2026-04-18T10:55:47Z</time></trkpt><trkpt lat="43.36664743940647" lon="10.815136368616637"><ele>89.0</ele><time>2026-04-18T10:57:21Z</time></trkpt><trkpt lat="43.36660570963897" lon="10.81503794832858"><ele>90.5</ele><time>2026-04-18T10:57:26Z</time></trkpt><trkpt lat="43.36654039638226" lon="10.81498668518059"><ele>92.0</ele><time>2026-04-18T10:57:27Z</time></trkpt><trkpt lat="43.366450801032165" lon="10.814947246986565"><ele>89.75</ele><time>2026-04-18T10:57:28Z</time></trkpt><trkpt lat="43.36635690686556" lon="10.814903603361861"><ele>87.5</ele><time>2026-04-18T10:57:29Z</time></trkpt><trkpt lat="43.36624702809668" lon="10.814853681786177"><ele>85.25</ele><time>2026-04-18T10:57:30Z</time></trkpt><trkpt lat="43.36612306887619" lon="10.814794375793813"><ele>83.0</ele><time>2026-04-18T10:57:31Z</time></trkpt><trkpt lat="43.365993821599446" lon="10.814725314764486"><ele>83.0</ele><time>2026-04-18T10:57:32Z</time></trkpt><trkpt lat="43.36586129231695" lon="10.814633215843639"><ele>83.0</ele><time>2026-04-18T10:57:33Z</time></trkpt><trkpt lat="43.3657330137073" lon="10.814520934237287"><ele>83.0</ele><time>2026-04-18T10:57:34Z</time></trkpt><trkpt lat="43.365599023406894" lon="10.814399416447834"><ele>81.66666666666667</ele><time>2026-04-18T10:57:35Z</time></trkpt><trkpt lat="43.36545856242427" lon="10.814269169649261"><ele>80.33333333333333</ele><time>2026-04-18T10:57:36Z</time></trkpt><trkpt lat="43.36531302133472" lon="10.814134977790928"><ele>79.0</ele><time>2026-04-18T10:57:37Z</time></trkpt><trkpt lat="43.365168088182976" lon="10.81399700997584"><ele>79.0</ele><time>2026-04-18T10:57:38Z</time></trkpt><trkpt lat="43.36501880165045" lon="10.813856476800026"><ele>79.0</ele><time>2026-04-18T10:57:39Z</time></trkpt><trkpt lat="43.364872510467265" lon="10.813719980867914"><ele>79.0</ele><time>2026-04-18T10:57:40Z</time></trkpt><trkpt lat="43.364734020052204" lon="10.813586804787503"><ele>78.66666666666666</ele><time>2026-04-18T10:57:41Z</time></trkpt><trkpt lat="43.3645859693631" lon="10.813449055902053"><ele>78.33333333333333</ele><time>2026-04-18T10:57:42Z</time></trkpt><trkpt lat="43.3644355606516" lon="10.813311167018284"><ele>78.0</ele><time>2026-04-18T10:57:43Z</time></trkpt><trkpt lat="43.3642949369312" lon="10.813173797732649"><ele>78.0</ele><time>2026-04-18T10:57:44.001Z</time></trkpt><trkpt lat="43.36416809834613" lon="10.813054190610819"><ele>78.0</ele><time>2026-04-18T10:57:45.001Z</time></trkpt><trkpt lat="43.364059008562414" lon="10.812952048218188"><ele>78.0</ele><time>2026-04-18T10:57:46.001Z</time></trkpt><trkpt lat="43.363982205929084" lon="10.812878540612969"><ele>78.0</ele><time>2026-04-18T10:57:47.001Z</time></trkpt><trkpt lat="43.36390917708868" lon="10.812809563733136"><ele>78.2</ele><time>2026-04-18T10:57:48.001Z</time></trkpt><trkpt lat="43.36383917096082" lon="10.812735764146598"><ele>78.4</ele><time>2026-04-18T10:57:49.001Z</time></trkpt><trkpt lat="43.363769393163935" lon="10.812646285452633"><ele>78.60000000000001</ele><time>2026-04-18T10:57:55.001Z</time></trkpt><trkpt lat="43.36368637546007" lon="10.812640919958415"><ele>78.8</ele><time>2026-04-18T10:57:56.001Z</time></trkpt><trkpt lat="43.36358511869452" lon="10.812632190560697"><ele>79.0</ele><time>2026-04-18T10:57:57.001Z</time></trkpt><trkpt lat="43.36346705056983" lon="10.812625818630643"><ele>79.0</ele><time>2026-04-18T10:57:58.001Z</time></trkpt><trkpt lat="43.363334404368416" lon="10.812625455289396"><ele>79.0</ele><time>2026-04-18T10:57:59.001Z</time></trkpt><trkpt lat="43.363229147085214" lon="10.812632917412966"><ele>79.0</ele><time>2026-04-18T10:58:00.001Z</time></trkpt><trkpt lat="43.36308426760693" lon="10.8126189790091"><ele>79.0</ele><time>2026-04-18T10:58:01.001Z</time></trkpt><trkpt lat="43.362939547538225" lon="10.812613940412994"><ele>79.0</ele><time>2026-04-18T10:58:02.001Z</time></trkpt><trkpt lat="43.36279572691582" lon="10.812612890290353"><ele>79.0</ele><time>2026-04-18T10:58:03.001Z</time></trkpt><trkpt lat="43.36265890655358" lon="10.812612293981186"><ele>79.0</ele><time>2026-04-18T10:58:04.001Z</time></trkpt><trkpt lat="43.36251251427152" lon="10.812623952010744"><ele>79.0</ele><time>2026-04-18T10:58:05.001Z</time></trkpt><trkpt lat="43.36236972815766" lon="10.812621454840468"><ele>79.0</ele><time>2026-04-18T10:58:06.001Z</time></trkpt><trkpt lat="43.36223581584747" lon="10.812614935971189"><ele>79.0</ele><time>2026-04-18T10:58:07.001Z</time></trkpt><trkpt lat="43.362109526973065" lon="10.812596807132838"><ele>79.0</ele><time>2026-04-18T10:58:08.001Z</time></trkpt><trkpt lat="43.3619802194193" lon="10.812572659550993"><ele>79.0</ele><time>2026-04-18T10:58:09.001Z</time></trkpt><trkpt lat="43.36185216235485" lon="10.812539583339138"><ele>78.25</ele><time>2026-04-18T10:58:10.001Z</time></trkpt><trkpt lat="43.36172700332712" lon="10.812493301435975"><ele>77.5</ele><time>2026-04-18T10:58:11.001Z</time></trkpt><trkpt lat="43.36160634147539" lon="10.812428320461084"><ele>76.75</ele><time>2026-04-18T10:58:12.001Z</time></trkpt><trkpt lat="43.361496412628924" lon="10.812352787291127"><ele>76.0</ele><time>2026-04-18T10:58:13.001Z</time></trkpt><trkpt lat="43.361389849021535" lon="10.812264308783412"><ele>75.75</ele><time>2026-04-18T10:58:14.001Z</time></trkpt><trkpt lat="43.361288059091684" lon="10.81216231117774"><ele>75.5</ele><time>2026-04-18T10:58:15.001Z</time></trkpt><trkpt lat="43.36118519638405" lon="10.81203776984438"><ele>75.25</ele><time>2026-04-18T10:58:16.001Z</time></trkpt><trkpt lat="43.3610859080353" lon="10.811888559222636"><ele>75.0</ele><time>2026-04-18T10:58:17.001Z</time></trkpt><trkpt lat="43.360996202390304" lon="10.811708900965"><ele>75.0</ele><time>2026-04-18T10:58:18.001Z</time></trkpt><trkpt lat="43.3609049320928" lon="10.811541520368165"><ele>75.0</ele><time>2026-04-18T10:58:19.001Z</time></trkpt><trkpt lat="43.36081082441401" lon="10.811355075566203"><ele>75.0</ele><time>2026-04-18T10:58:20.001Z</time></trkpt><trkpt lat="43.36071450803871" lon="10.81116551072166"><ele>73.66666666666667</ele><time>2026-04-18T10:58:21.001Z</time></trkpt><trkpt lat="43.36062155076119" lon="10.810955724005169"><ele>72.33333333333334</ele><time>2026-04-18T10:58:22.001Z</time></trkpt><trkpt lat="43.360539062697576" lon="10.810739554502469"><ele>71.0</ele><time>2026-04-18T10:58:23.001Z</time></trkpt><trkpt lat="43.360472772781314" lon="10.810506829003414"><ele>71.0</ele><time>2026-04-18T10:58:24.001Z</time></trkpt><trkpt lat="43.36040708232451" lon="10.810269609660562"><ele>71.0</ele><time>2026-04-18T10:58:25.001Z</time></trkpt><trkpt lat="43.360333457258626" lon="10.810041157850376"><ele>71.0</ele><time>2026-04-18T10:58:26.001Z</time></trkpt><trkpt lat="43.360258487496225" lon="10.809808638817675"><ele>71.33333333333334</ele><time>2026-04-18T10:58:27.001Z</time></trkpt><trkpt lat="43.36018637493513" lon="10.809570076546958"><ele>71.66666666666667</ele><time>2026-04-18T10:58:28.001Z</time></trkpt><trkpt lat="43.36011292435295" lon="10.809336810771146"><ele>72.0</ele><time>2026-04-18T10:58:29.001Z</time></trkpt><trkpt lat="43.36003638115624" lon="10.809108552734916"><ele>72.66666666666667</ele><time>2026-04-18T10:58:30.001Z</time></trkpt><trkpt lat="43.35996051829751" lon="10.808890154615902"><ele>73.33333333333334</ele><time>2026-04-18T10:58:31.001Z</time></trkpt><trkpt lat="43.359889484961954" lon="10.808673253199046"><ele>74.0</ele><time>2026-04-18T10:58:32.001Z</time></trkpt><trkpt lat="43.359821817969575" lon="10.808455470594001"><ele>75.33333333333334</ele><time>2026-04-18T10:58:33.001Z</time></trkpt><trkpt lat="43.35975491118317" lon="10.808240679832867"><ele>76.66666666666667</ele><time>2026-04-18T10:58:34.001Z</time></trkpt><trkpt lat="43.35969291224975" lon="10.808023035319883"><ele>78.0</ele><time>2026-04-18T10:58:35.001Z</time></trkpt><trkpt lat="43.35962404482069" lon="10.807790601126372"><ele>75.33333333333333</ele><time>2026-04-18T10:58:36.001Z</time></trkpt><trkpt lat="43.35955339320534" lon="10.807555974331883"><ele>72.66666666666666</ele><time>2026-04-18T10:58:37.001Z</time></trkpt><trkpt lat="43.359476448703816" lon="10.807316327620903"><ele>70.0</ele><time>2026-04-18T10:58:38.001Z</time></trkpt><trkpt lat="43.35939852782771" lon="10.807075175654203"><ele>70.0</ele><time>2026-04-18T10:58:39.001Z</time></trkpt><trkpt lat="43.35933304821984" lon="10.806858059712292"><ele>70.0</ele><time>2026-04-18T10:58:40.001Z</time></trkpt><trkpt lat="43.359274298629195" lon="10.806669295670305"><ele>70.0</ele><time>2026-04-18T10:58:41.001Z</time></trkpt><trkpt lat="43.359223211380915" lon="10.80649319435723"><ele>69.75</ele><time>2026-04-18T10:58:42.001Z</time></trkpt><trkpt lat="43.35919671748809" lon="10.806314726956435"><ele>69.5</ele><time>2026-04-18T10:58:43.001Z</time></trkpt><trkpt lat="43.359208579161375" lon="10.806113015505117"><ele>69.25</ele><time>2026-04-18T10:58:44.001Z</time></trkpt><trkpt lat="43.35924411445597" lon="10.805888007260853"><ele>69.0</ele><time>2026-04-18T10:58:45Z</time></trkpt><trkpt lat="43.35928167789218" lon="10.805645648113485"><ele>69.0</ele><time>2026-04-18T10:58:46Z</time></trkpt><trkpt lat="43.3593136383413" lon="10.805384682766826"><ele>69.0</ele><time>2026-04-18T10:58:47Z</time></trkpt><trkpt lat="43.35934557528605" lon="10.80511528215599"><ele>69.0</ele><time>2026-04-18T10:58:48Z</time></trkpt><trkpt lat="43.35937507430081" lon="10.804838702053603"><ele>68.33333333333333</ele><time>2026-04-18T10:58:49Z</time></trkpt><trkpt lat="43.359406040264865" lon="10.804562539765081"><ele>67.66666666666666</ele><time>2026-04-18T10:58:50Z</time></trkpt><trkpt lat="43.35943771479808" lon="10.804304821171726"><ele>67.0</ele><time>2026-04-18T10:58:51Z</time></trkpt><trkpt lat="43.35946326158142" lon="10.804058683615747"><ele>66.66666666666666</ele><time>2026-04-18T10:58:52Z</time></trkpt><trkpt lat="43.35946943626154" lon="10.803814459118765"><ele>66.33333333333333</ele><time>2026-04-18T10:58:53Z</time></trkpt><trkpt lat="43.35944954000397" lon="10.803564397571986"><ele>66.0</ele><time>2026-04-18T10:58:54Z</time></trkpt><trkpt lat="43.359404326100304" lon="10.803301916158414"><ele>66.0</ele><time>2026-04-18T10:58:55Z</time></trkpt><trkpt lat="43.35935186632908" lon="10.803047896229234"><ele>66.0</ele><time>2026-04-18T10:58:56Z</time></trkpt><trkpt lat="43.35927949322649" lon="10.802799072270409"><ele>66.0</ele><time>2026-04-18T10:58:57Z</time></trkpt><trkpt lat="43.35917922585631" lon="10.80257297910465"><ele>65.66666666666667</ele><time>2026-04-18T10:58:58Z</time></trkpt><trkpt lat="43.35905339132872" lon="10.8023664852728"><ele>65.33333333333334</ele><time>2026-04-18T10:58:59Z</time></trkpt><trkpt lat="43.35892259320817" lon="10.802171343803419"><ele>65.0</ele><time>2026-04-18T10:59:00Z</time></trkpt><trkpt lat="43.358809530992" lon="10.802015456807341"><ele>65.0</ele><time>2026-04-18T10:59:01Z</time></trkpt><trkpt lat="43.35872399617216" lon="10.8018972912246"><ele>65.0</ele><time>2026-04-18T10:59:02Z</time></trkpt><trkpt lat="43.35863699747515" lon="10.80176306229917"><ele>65.0</ele><time>2026-04-18T10:59:03Z</time></trkpt><trkpt lat="43.35853749521726" lon="10.801625577151219"><ele>65.0</ele><time>2026-04-18T10:59:04Z</time></trkpt><trkpt lat="43.35844712168368" lon="10.80144550159391"><ele>65.66666666666667</ele><time>2026-04-18T10:59:05Z</time></trkpt><trkpt lat="43.35833919285425" lon="10.801245101247002"><ele>66.33333333333333</ele><time>2026-04-18T10:59:06Z</time></trkpt><trkpt lat="43.35824531364767" lon="10.801030174560028"><ele>67.0</ele><time>2026-04-18T10:59:07Z</time></trkpt><trkpt lat="43.35816053731801" lon="10.800794057698665"><ele>66.33333333333333</ele><time>2026-04-18T10:59:08Z</time></trkpt><trkpt lat="43.358082575756484" lon="10.800548659935107"><ele>65.66666666666667</ele><time>2026-04-18T10:59:09Z</time></trkpt><trkpt lat="43.3580034250975" lon="10.800290338341863"><ele>65.0</ele><time>2026-04-18T10:59:10Z</time></trkpt><trkpt lat="43.35791822290832" lon="10.800029292260025"><ele>65.0</ele><time>2026-04-18T10:59:11Z</time></trkpt><trkpt lat="43.35783597277694" lon="10.79976402065003"><ele>65.0</ele><time>2026-04-18T10:59:12Z</time></trkpt><trkpt lat="43.357741391571935" lon="10.799490863202573"><ele>65.0</ele><time>2026-04-18T10:59:13Z</time></trkpt><trkpt lat="43.35762556892739" lon="10.799236722140552"><ele>65.66666666666667</ele><time>2026-04-18T10:59:14Z</time></trkpt><trkpt lat="43.35749185411595" lon="10.798998903754486"><ele>66.33333333333333</ele><time>2026-04-18T10:59:15Z</time></trkpt><trkpt lat="43.35733980358173" lon="10.798774765301832"><ele>67.0</ele><time>2026-04-18T10:59:16Z</time></trkpt><trkpt lat="43.35718049745383" lon="10.798554025361884"><ele>66.33333333333333</ele><time>2026-04-18T10:59:17Z</time></trkpt><trkpt lat="43.35703237935823" lon="10.798319824336314"><ele>65.66666666666667</ele><time>2026-04-18T10:59:18Z</time></trkpt><trkpt lat="43.35690222022494" lon="10.798084708246275"><ele>65.0</ele><time>2026-04-18T10:59:19Z</time></trkpt><trkpt lat="43.35678824839446" lon="10.797845538769788"><ele>66.66666666666667</ele><time>2026-04-18T10:59:20Z</time></trkpt><trkpt lat="43.35669252933552" lon="10.797611521022993"><ele>68.33333333333333</ele><time>2026-04-18T10:59:21Z</time></trkpt><trkpt lat="43.3566056178023" lon="10.797370522335678"><ele>70.0</ele><time>2026-04-18T10:59:22Z</time></trkpt><trkpt lat="43.35653074170384" lon="10.797113496650267"><ele>70.0</ele><time>2026-04-18T10:59:23Z</time></trkpt><trkpt lat="43.35646268054927" lon="10.796838589378337"><ele>70.0</ele><time>2026-04-18T10:59:24Z</time></trkpt><trkpt lat="43.35640604348281" lon="10.796543210716695"><ele>70.0</ele><time>2026-04-18T10:59:25Z</time></trkpt><trkpt lat="43.35636238764417" lon="10.796235063969224"><ele>66.0</ele><time>2026-04-18T10:59:26Z</time></trkpt><trkpt lat="43.35633988898581" lon="10.795915858269328"><ele>62.0</ele><time>2026-04-18T10:59:27Z</time></trkpt><trkpt lat="43.356334753132465" lon="10.79559425939742"><ele>62.0</ele><time>2026-04-18T10:59:28Z</time></trkpt><trkpt lat="43.35634593229735" lon="10.795260703593588"><ele>62.0</ele><time>2026-04-18T10:59:29Z</time></trkpt><trkpt lat="43.35637052584665" lon="10.794930169618452"><ele>62.5</ele><time>2026-04-18T10:59:30Z</time></trkpt><trkpt lat="43.35640931877577" lon="10.794600073160613"><ele>63.0</ele><time>2026-04-18T10:59:31Z</time></trkpt><trkpt lat="43.356463327127784" lon="10.794271175003173"><ele>62.0</ele><time>2026-04-18T10:59:32Z</time></trkpt><trkpt lat="43.3565275245038" lon="10.793946066832914"><ele>61.0</ele><time>2026-04-18T10:59:33Z</time></trkpt><trkpt lat="43.35659723952278" lon="10.793621983056461"><ele>60.5</ele><time>2026-04-18T10:59:34Z</time></trkpt><trkpt lat="43.35667050529633" lon="10.793303201026992"><ele>60.0</ele><time>2026-04-18T10:59:35Z</time></trkpt><trkpt lat="43.35674613021089" lon="10.792984015718122"><ele>59.0</ele><time>2026-04-18T10:59:36Z</time></trkpt><trkpt lat="43.35682150995084" lon="10.79266383839864"><ele>58.0</ele><time>2026-04-18T10:59:37Z</time></trkpt><trkpt lat="43.35689327976385" lon="10.792344825422074"><ele>58.0</ele><time>2026-04-18T10:59:38Z</time></trkpt><trkpt lat="43.35696196916784" lon="10.792021572844618"><ele>58.0</ele><time>2026-04-18T10:59:39Z</time></trkpt><trkpt lat="43.35702832250747" lon="10.791699705614198"><ele>59.0</ele><time>2026-04-18T10:59:40Z</time></trkpt><trkpt lat="43.35708418109062" lon="10.791370419809398"><ele>60.0</ele><time>2026-04-18T10:59:41Z</time></trkpt><trkpt lat="43.35713315665616" lon="10.791039666327755"><ele>59.5</ele><time>2026-04-18T10:59:42.001Z</time></trkpt><trkpt lat="43.357180371067095" lon="10.79070668113019"><ele>59.0</ele><time>2026-04-18T10:59:43.001Z</time></trkpt><trkpt lat="43.357221425585955" lon="10.790373880814569"><ele>61.0</ele><time>2026-04-18T10:59:44.001Z</time></trkpt><trkpt lat="43.35725333903453" lon="10.790039166235768"><ele>63.0</ele><time>2026-04-18T10:59:45.001Z</time></trkpt><trkpt lat="43.35727514148744" lon="10.789702645530548"><ele>63.0</ele><time>2026-04-18T10:59:46.001Z</time></trkpt><trkpt lat="43.357287930282475" lon="10.789362385415647"><ele>63.0</ele><time>2026-04-18T10:59:47.001Z</time></trkpt><trkpt lat="43.357290594013826" lon="10.78901907356217"><ele>64.5</ele><time>2026-04-18T10:59:48.001Z</time></trkpt><trkpt lat="43.35728976607489" lon="10.788677089960695"><ele>66.0</ele><time>2026-04-18T10:59:49.001Z</time></trkpt><trkpt lat="43.35727749888029" lon="10.788336153609736"><ele>66.0</ele><time>2026-04-18T10:59:50.001Z</time></trkpt><trkpt lat="43.357259892324194" lon="10.787990453870442"><ele>66.0</ele><time>2026-04-18T10:59:51.001Z</time></trkpt><trkpt lat="43.357234644945635" lon="10.787654301623057"><ele>64.5</ele><time>2026-04-18T10:59:52.001Z</time></trkpt><trkpt lat="43.35720364186718" lon="10.787308447005374"><ele>63.0</ele><time>2026-04-18T10:59:53.001Z</time></trkpt><trkpt lat="43.357163383544865" lon="10.786964441573044"><ele>61.5</ele><time>2026-04-18T10:59:54.001Z</time></trkpt><trkpt lat="43.35711954156263" lon="10.786616165421302"><ele>60.0</ele><time>2026-04-18T10:59:55.001Z</time></trkpt><trkpt lat="43.35707323396527" lon="10.786275686603298"><ele>60.5</ele><time>2026-04-18T10:59:56.001Z</time></trkpt><trkpt lat="43.35702722784672" lon="10.785924850582369"><ele>61.0</ele><time>2026-04-18T10:59:57.001Z</time></trkpt><trkpt lat="43.35697597182594" lon="10.785579396327782"><ele>61.0</ele><time>2026-04-18T10:59:58.001Z</time></trkpt><trkpt lat="43.35692330639218" lon="10.785234018815222"><ele>61.0</ele><time>2026-04-18T10:59:59.001Z</time></trkpt><trkpt lat="43.35686911136995" lon="10.78489092944565"><ele>60.5</ele><time>2026-04-18T11:00:00.001Z</time></trkpt><trkpt lat="43.356813896826665" lon="10.784549649520386"><ele>60.0</ele><time>2026-04-18T11:00:01.001Z</time></trkpt><trkpt lat="43.35675975676252" lon="10.784214512563853"><ele>60.0</ele><time>2026-04-18T11:00:02.001Z</time></trkpt><trkpt lat="43.35670808270045" lon="10.783890900113386"><ele>60.0</ele><time>2026-04-18T11:00:03.001Z</time></trkpt><trkpt lat="43.35665909381582" lon="10.783589221741702"><ele>59.66666666666667</ele><time>2026-04-18T11:00:04.001Z</time></trkpt><trkpt lat="43.35661528867425" lon="10.783313797306382"><ele>59.333333333333336</ele><time>2026-04-18T11:00:05.001Z</time></trkpt><trkpt lat="43.356573582179216" lon="10.783034924247579"><ele>59.0</ele><time>2026-04-18T11:00:06.001Z</time></trkpt><trkpt lat="43.35653694897038" lon="10.782752321533088"><ele>58.66666666666667</ele><time>2026-04-18T11:00:07.001Z</time></trkpt><trkpt lat="43.356505583636824" lon="10.782462354959497"><ele>58.33333333333333</ele><time>2026-04-18T11:00:08.001Z</time></trkpt><trkpt lat="43.35648618344148" lon="10.782159214864766"><ele>58.0</ele><time>2026-04-18T11:00:09.001Z</time></trkpt><trkpt lat="43.35647552744062" lon="10.781857956620415"><ele>58.33333333333333</ele><time>2026-04-18T11:00:10.001Z</time></trkpt><trkpt lat="43.35646947624513" lon="10.78155661702998"><ele>58.66666666666667</ele><time>2026-04-18T11:00:11.001Z</time></trkpt><trkpt lat="43.35646232771035" lon="10.781257804759125"><ele>59.0</ele><time>2026-04-18T11:00:12.001Z</time></trkpt><trkpt lat="43.35645232433134" lon="10.780953585666346"><ele>59.333333333333336</ele><time>2026-04-18T11:00:13.001Z</time></trkpt><trkpt lat="43.35644289813975" lon="10.780643105138884"><ele>59.66666666666667</ele><time>2026-04-18T11:00:14.001Z</time></trkpt><trkpt lat="43.356436501718" lon="10.78034370426074"><ele>60.0</ele><time>2026-04-18T11:00:15.001Z</time></trkpt><trkpt lat="43.356431241530295" lon="10.780054090623254"><ele>60.0</ele><time>2026-04-18T11:00:16.001Z</time></trkpt><trkpt lat="43.3564237232934" lon="10.779760988786755"><ele>60.0</ele><time>2026-04-18T11:00:17.001Z</time></trkpt><trkpt lat="43.3564134836887" lon="10.779476109808238"><ele>60.0</ele><time>2026-04-18T11:00:18.001Z</time></trkpt><trkpt lat="43.35640385798627" lon="10.779209247945372"><ele>59.33333333333333</ele><time>2026-04-18T11:00:19.001Z</time></trkpt><trkpt lat="43.356385257592926" lon="10.778956616247239"><ele>58.666666666666664</ele><time>2026-04-18T11:00:20.001Z</time></trkpt><trkpt lat="43.35635240662382" lon="10.778708642655877"><ele>58.0</ele><time>2026-04-18T11:00:21.001Z</time></trkpt><trkpt lat="43.35630902777136" lon="10.778464413172255"><ele>58.0</ele><time>2026-04-18T11:00:22.001Z</time></trkpt><trkpt lat="43.35624902685952" lon="10.778214248007789"><ele>58.0</ele><time>2026-04-18T11:00:23.001Z</time></trkpt><trkpt lat="43.356169445690895" lon="10.777968718101038"><ele>58.0</ele><time>2026-04-18T11:00:24.001Z</time></trkpt><trkpt lat="43.35607602043189" lon="10.777729644453048"><ele>59.33333333333333</ele><time>2026-04-18T11:00:25.001Z</time></trkpt><trkpt lat="43.355975184936696" lon="10.777507262208418"><ele>60.66666666666667</ele><time>2026-04-18T11:00:26.001Z</time></trkpt><trkpt lat="43.35585733569108" lon="10.77729974008072"><ele>62.0</ele><time>2026-04-18T11:00:27.001Z</time></trkpt><trkpt lat="43.35573169062388" lon="10.777114791359507"><ele>62.0</ele><time>2026-04-18T11:00:28.001Z</time></trkpt><trkpt lat="43.355599907028534" lon="10.776965766904407"><ele>62.0</ele><time>2026-04-18T11:00:29.001Z</time></trkpt><trkpt lat="43.355468779382974" lon="10.776830328207195"><ele>62.0</ele><time>2026-04-18T11:00:30.001Z</time></trkpt><trkpt lat="43.35533519328174" lon="10.776705688055577"><ele>61.0</ele><time>2026-04-18T11:00:31.001Z</time></trkpt><trkpt lat="43.35518999612793" lon="10.77660785117055"><ele>60.0</ele><time>2026-04-18T11:00:32.001Z</time></trkpt><trkpt lat="43.35503534657607" lon="10.776520123874597"><ele>59.0</ele><time>2026-04-18T11:00:33.001Z</time></trkpt><trkpt lat="43.35488130071632" lon="10.776430786913195"><ele>59.0</ele><time>2026-04-18T11:00:34.001Z</time></trkpt><trkpt lat="43.354737092152895" lon="10.776345410971897"><ele>59.0</ele><time>2026-04-18T11:00:35.001Z</time></trkpt><trkpt lat="43.3546114058224" lon="10.776258661164563"><ele>59.0</ele><time>2026-04-18T11:00:36.001Z</time></trkpt><trkpt lat="43.35449750438748" lon="10.776187152839256"><ele>59.0</ele><time>2026-04-18T11:00:37.001Z</time></trkpt><trkpt lat="43.35438566254336" lon="10.776118024200628"><ele>59.25</ele><time>2026-04-18T11:00:38.001Z</time></trkpt><trkpt lat="43.35428112876828" lon="10.776050788823577"><ele>59.5</ele><time>2026-04-18T11:00:39.001Z</time></trkpt><trkpt lat="43.35416399383989" lon="10.77597637285562"><ele>59.75</ele><time>2026-04-18T11:00:40.001Z</time></trkpt><trkpt lat="43.35403442565212" lon="10.775895281847523"><ele>60.0</ele><time>2026-04-18T11:00:41.001Z</time></trkpt><trkpt lat="43.353899080902885" lon="10.775806754689892"><ele>58.66666666666667</ele><time>2026-04-18T11:00:42.001Z</time></trkpt><trkpt lat="43.353755319515514" lon="10.775673682082523"><ele>57.333333333333336</ele><time>2026-04-18T11:00:43.001Z</time></trkpt><trkpt lat="43.35362460887162" lon="10.775523647432816"><ele>56.0</ele><time>2026-04-18T11:00:44.002Z</time></trkpt><trkpt lat="43.353525124428586" lon="10.775363792692525"><ele>56.0</ele><time>2026-04-18T11:00:45.002Z</time></trkpt><trkpt lat="43.35343275052693" lon="10.77520498230364"><ele>56.0</ele><time>2026-04-18T11:00:46.002Z</time></trkpt><trkpt lat="43.35334768230502" lon="10.77504154994966"><ele>56.0</ele><time>2026-04-18T11:00:47.002Z</time></trkpt><trkpt lat="43.35324928818571" lon="10.774876581477969"><ele>56.0</ele><time>2026-04-18T11:00:48.002Z</time></trkpt><trkpt lat="43.35314373375318" lon="10.774697221725589"><ele>56.0</ele><time>2026-04-18T11:00:49.002Z</time></trkpt><trkpt lat="43.35303058201158" lon="10.774505204533671"><ele>56.0</ele><time>2026-04-18T11:00:50.002Z</time></trkpt><trkpt lat="43.352912626970664" lon="10.774307790488193"><ele>56.0</ele><time>2026-04-18T11:00:51Z</time></trkpt><trkpt lat="43.35279351639654" lon="10.774105484085869"><ele>56.0</ele><time>2026-04-18T11:00:52Z</time></trkpt><trkpt lat="43.35267345935456" lon="10.773899629864083"><ele>56.0</ele><time>2026-04-18T11:00:53Z</time></trkpt><trkpt lat="43.35255139827524" lon="10.773690612390139"><ele>56.0</ele><time>2026-04-18T11:00:54Z</time></trkpt><trkpt lat="43.352426492218804" lon="10.773472411640464"><ele>56.333333333333336</ele><time>2026-04-18T11:00:55Z</time></trkpt><trkpt lat="43.35229854002678" lon="10.77324764743696"><ele>56.66666666666667</ele><time>2026-04-18T11:00:56Z</time></trkpt><trkpt lat="43.35216283817174" lon="10.773019947309422"><ele>57.0</ele><time>2026-04-18T11:00:57Z</time></trkpt><trkpt lat="43.352024320345215" lon="10.77278445588782"><ele>56.33333333333333</ele><time>2026-04-18T11:00:58Z</time></trkpt><trkpt lat="43.351892446920836" lon="10.772550424475009"><ele>55.666666666666664</ele><time>2026-04-18T11:00:59Z</time></trkpt><trkpt lat="43.3517525389065" lon="10.772321454591674"><ele>55.0</ele><time>2026-04-18T11:01:00Z</time></trkpt><trkpt lat="43.35159552820049" lon="10.77207155755966"><ele>55.5</ele><time>2026-04-18T11:01:01Z</time></trkpt><trkpt lat="43.35142919079987" lon="10.771794456746358"><ele>56.0</ele><time>2026-04-18T11:01:02Z</time></trkpt><trkpt lat="43.35127078988702" lon="10.771505198148366"><ele>56.5</ele><time>2026-04-18T11:01:03Z</time></trkpt><trkpt lat="43.35112911565014" lon="10.771237503384098"><ele>57.0</ele><time>2026-04-18T11:01:04Z</time></trkpt><trkpt lat="43.350997989166814" lon="10.770993422238282"><ele>57.0</ele><time>2026-04-18T11:01:05Z</time></trkpt><trkpt lat="43.35086778785107" lon="10.770767371243577"><ele>57.0</ele><time>2026-04-18T11:01:06Z</time></trkpt><trkpt lat="43.35073411086032" lon="10.770530039186927"><ele>57.0</ele><time>2026-04-18T11:01:07Z</time></trkpt><trkpt lat="43.35060346304113" lon="10.770272193781162"><ele>56.5</ele><time>2026-04-18T11:01:08Z</time></trkpt><trkpt lat="43.35046966357741" lon="10.770005309748708"><ele>56.0</ele><time>2026-04-18T11:01:09Z</time></trkpt><trkpt lat="43.35033204993887" lon="10.76973672206307"><ele>56.0</ele><time>2026-04-18T11:01:10Z</time></trkpt><trkpt lat="43.35019613782901" lon="10.76946363472061"><ele>56.0</ele><time>2026-04-18T11:01:11Z</time></trkpt><trkpt lat="43.35006440503109" lon="10.769198746355423"><ele>56.0</ele><time>2026-04-18T11:01:12Z</time></trkpt><trkpt lat="43.349943972308516" lon="10.768960264682196"><ele>56.0</ele><time>2026-04-18T11:01:13Z</time></trkpt><trkpt lat="43.34983252511033" lon="10.768734946819448"><ele>56.0</ele><time>2026-04-18T11:01:14Z</time></trkpt><trkpt lat="43.34972977665093" lon="10.768504534442215"><ele>55.66666666666667</ele><time>2026-04-18T11:01:15Z</time></trkpt><trkpt lat="43.349640966238184" lon="10.768254524489922"><ele>55.33333333333333</ele><time>2026-04-18T11:01:16Z</time></trkpt><trkpt lat="43.349574839842845" lon="10.767982767131176"><ele>55.0</ele><time>2026-04-18T11:01:17Z</time></trkpt><trkpt lat="43.349528437321304" lon="10.767693881861344"><ele>55.0</ele><time>2026-04-18T11:01:18Z</time></trkpt><trkpt lat="43.349499696619645" lon="10.767420641682943"><ele>55.0</ele><time>2026-04-18T11:01:19Z</time></trkpt><trkpt lat="43.34948560065839" lon="10.767173335462516"><ele>55.0</ele><time>2026-04-18T11:01:20Z</time></trkpt><trkpt lat="43.349496403407" lon="10.766962491172434"><ele>55.25</ele><time>2026-04-18T11:01:21Z</time></trkpt><trkpt lat="43.34951862253295" lon="10.766782244695865"><ele>55.5</ele><time>2026-04-18T11:01:22Z</time></trkpt><trkpt lat="43.349524572568825" lon="10.766602872299917"><ele>55.75</ele><time>2026-04-18T11:01:23Z</time></trkpt><trkpt lat="43.3494898337547" lon="10.76641089730311"><ele>56.0</ele><time>2026-04-18T11:01:24Z</time></trkpt><trkpt lat="43.34940601189784" lon="10.766209415338036"><ele>57.66666666666667</ele><time>2026-04-18T11:01:25Z</time></trkpt><trkpt lat="43.34928397775259" lon="10.766013948900806"><ele>59.33333333333333</ele><time>2026-04-18T11:01:26Z</time></trkpt><trkpt lat="43.34913374717963" lon="10.765813591376913"><ele>61.0</ele><time>2026-04-18T11:01:27Z</time></trkpt><trkpt lat="43.348986024041366" lon="10.765599219800151"><ele>60.666666666666664</ele><time>2026-04-18T11:01:28Z</time></trkpt><trkpt lat="43.34884391909522" lon="10.765362899451166"><ele>60.33333333333333</ele><time>2026-04-18T11:01:29Z</time></trkpt><trkpt lat="43.34871949947517" lon="10.76513962370222"><ele>60.0</ele><time>2026-04-18T11:01:30Z</time></trkpt><trkpt lat="43.3486121641499" lon="10.764928537110423"><ele>60.0</ele><time>2026-04-18T11:01:31Z</time></trkpt><trkpt lat="43.348520043544006" lon="10.764690912902616"><ele>60.0</ele><time>2026-04-18T11:01:32Z</time></trkpt><trkpt lat="43.34843624308399" lon="10.764429897160044"><ele>60.0</ele><time>2026-04-18T11:01:33Z</time></trkpt><trkpt lat="43.34835868117432" lon="10.764154786332627"><ele>62.5</ele><time>2026-04-18T11:01:34Z</time></trkpt><trkpt lat="43.34827052782492" lon="10.76387472743592"><ele>65.0</ele><time>2026-04-18T11:01:35Z</time></trkpt><trkpt lat="43.34817845989667" lon="10.763586157863276"><ele>66.0</ele><time>2026-04-18T11:01:36Z</time></trkpt><trkpt lat="43.348082540483674" lon="10.763292338345993"><ele>67.0</ele><time>2026-04-18T11:01:37Z</time></trkpt><trkpt lat="43.34798585856581" lon="10.762987988338747"><ele>62.5</ele><time>2026-04-18T11:01:38Z</time></trkpt><trkpt lat="43.34789327891516" lon="10.762673921028437"><ele>58.0</ele><time>2026-04-18T11:01:39.001Z</time></trkpt><trkpt lat="43.34781237706026" lon="10.762353194933528"><ele>58.0</ele><time>2026-04-18T11:01:40.001Z</time></trkpt><trkpt lat="43.347746550506685" lon="10.76202153063993"><ele>58.0</ele><time>2026-04-18T11:01:41.001Z</time></trkpt><trkpt lat="43.34769815727347" lon="10.761686323024767"><ele>58.0</ele><time>2026-04-18T11:01:42.001Z</time></trkpt><trkpt lat="43.347657281068834" lon="10.761345742824943"><ele>58.0</ele><time>2026-04-18T11:01:43.001Z</time></trkpt><trkpt lat="43.347625041189076" lon="10.761008629831004"><ele>58.0</ele><time>2026-04-18T11:01:44.001Z</time></trkpt><trkpt lat="43.347597238161775" lon="10.76069246671836"><ele>58.0</ele><time>2026-04-18T11:01:45.001Z</time></trkpt><trkpt lat="43.34756287492551" lon="10.760379819613597"><ele>57.0</ele><time>2026-04-18T11:01:46.001Z</time></trkpt><trkpt lat="43.347516509635" lon="10.760073086980377"><ele>56.0</ele><time>2026-04-18T11:01:47.001Z</time></trkpt><trkpt lat="43.347450774562674" lon="10.759772408496708"><ele>56.0</ele><time>2026-04-18T11:01:48.001Z</time></trkpt><trkpt lat="43.3473560877332" lon="10.759481697376145"><ele>56.0</ele><time>2026-04-18T11:01:49.001Z</time></trkpt><trkpt lat="43.34722707739248" lon="10.759202259202901"><ele>56.5</ele><time>2026-04-18T11:01:50.001Z</time></trkpt><trkpt lat="43.347092938370665" lon="10.758929245486163"><ele>57.0</ele><time>2026-04-18T11:01:51.001Z</time></trkpt><trkpt lat="43.346950542009296" lon="10.758662774629908"><ele>59.0</ele><time>2026-04-18T11:01:52.001Z</time></trkpt><trkpt lat="43.346807270665494" lon="10.75839590155756"><ele>61.0</ele><time>2026-04-18T11:01:53.001Z</time></trkpt><trkpt lat="43.346663904823835" lon="10.758126220305092"><ele>61.0</ele><time>2026-04-18T11:01:54.001Z</time></trkpt><trkpt lat="43.34651758465786" lon="10.757858383556826"><ele>61.0</ele><time>2026-04-18T11:01:55.001Z</time></trkpt><trkpt lat="43.34636780349061" lon="10.75758834049584"><ele>59.0</ele><time>2026-04-18T11:01:56.001Z</time></trkpt><trkpt lat="43.34622021579584" lon="10.757328514102426"><ele>57.0</ele><time>2026-04-18T11:01:57.001Z</time></trkpt><trkpt lat="43.346080787904526" lon="10.757089251080513"><ele>57.0</ele><time>2026-04-18T11:01:58.001Z</time></trkpt><trkpt lat="43.345946867014725" lon="10.756870752494015"><ele>57.0</ele><time>2026-04-18T11:01:59.001Z</time></trkpt><trkpt lat="43.345812848645046" lon="10.756675816590482"><ele>57.0</ele><time>2026-04-18T11:02:00.001Z</time></trkpt><trkpt lat="43.34568579898432" lon="10.756516997039805"><ele>57.0</ele><time>2026-04-18T11:02:01.001Z</time></trkpt><trkpt lat="43.34556726409879" lon="10.756385516980881"><ele>57.0</ele><time>2026-04-18T11:02:02.001Z</time></trkpt><trkpt lat="43.34545696934054" lon="10.756258121003864"><ele>57.0</ele><time>2026-04-18T11:02:03.001Z</time></trkpt><trkpt lat="43.34535928475139" lon="10.756136881954061"><ele>57.0</ele><time>2026-04-18T11:02:04.001Z</time></trkpt><trkpt lat="43.34528129607207" lon="10.756036055355674"><ele>56.833333333333336</ele><time>2026-04-18T11:02:05.001Z</time></trkpt><trkpt lat="43.34522349229069" lon="10.755945911785773"><ele>56.66666666666667</ele><time>2026-04-18T11:02:06.001Z</time></trkpt><trkpt lat="43.34519136735246" lon="10.755856634070744"><ele>56.5</ele><time>2026-04-18T11:02:07.001Z</time></trkpt><trkpt lat="43.34519016287306" lon="10.755760987621901"><ele>56.333333333333336</ele><time>2026-04-18T11:02:08.001Z</time></trkpt><trkpt lat="43.34521559841279" lon="10.755674443830781"><ele>56.16666666666667</ele><time>2026-04-18T11:02:09.001Z</time></trkpt><trkpt lat="43.34526289243707" lon="10.755596034149146"><ele>56.0</ele><time>2026-04-18T11:02:10.001Z</time></trkpt><trkpt lat="43.34530535387067" lon="10.755504216237652"><ele>56.0</ele><time>2026-04-18T11:02:11.001Z</time></trkpt><trkpt lat="43.345320951900455" lon="10.755386531873372"><ele>55.99999999999999</ele><time>2026-04-18T11:02:12.001Z</time></trkpt><trkpt lat="43.34528610701218" lon="10.755264323600908"><ele>55.99999999999999</ele><time>2026-04-18T11:02:13.001Z</time></trkpt><trkpt lat="43.34521559747848" lon="10.755183470318741"><ele>56.0</ele><time>2026-04-18T11:02:14.001Z</time></trkpt><trkpt lat="43.34510155391013" lon="10.755148406659842"><ele>56.0</ele><time>2026-04-18T11:02:15.001Z</time></trkpt><trkpt lat="43.34500883940193" lon="10.755075971431769"><ele>56.0</ele><time>2026-04-18T11:02:16.001Z</time></trkpt><trkpt lat="43.34493799462065" lon="10.754973556297767"><ele>55.99999999999999</ele><time>2026-04-18T11:02:17.001Z</time></trkpt><trkpt lat="43.344896869555775" lon="10.754853937898059"><ele>55.99999999999999</ele><time>2026-04-18T11:02:18.001Z</time></trkpt><trkpt lat="43.344869248946914" lon="10.754714350348662"><ele>56.0</ele><time>2026-04-18T11:02:19.001Z</time></trkpt><trkpt lat="43.3448349928131" lon="10.754555632899194"><ele>56.0</ele><time>2026-04-18T11:02:20.001Z</time></trkpt><trkpt lat="43.34479936687033" lon="10.754406272705008"><ele>56.199999999999996</ele><time>2026-04-18T11:02:21.001Z</time></trkpt><trkpt lat="43.34476491230968" lon="10.75427181473858"><ele>56.39999999999999</ele><time>2026-04-18T11:02:22.001Z</time></trkpt><trkpt lat="43.34472865078632" lon="10.754139232314294"><ele>56.6</ele><time>2026-04-18T11:02:23.001Z</time></trkpt><trkpt lat="43.344701763927546" lon="10.754040182376475"><ele>56.8</ele><time>2026-04-18T11:02:24.001Z</time></trkpt><trkpt lat="43.34467491879615" lon="10.753933911300415"><ele>57.0</ele><time>2026-04-18T11:02:26.001Z</time></trkpt><trkpt lat="43.34455161735712" lon="10.753664026165763"><ele>57.0</ele><time>2026-04-18T11:02:27.001Z</time></trkpt><trkpt lat="43.34450447010874" lon="10.753537956895434"><ele>57.0</ele><time>2026-04-18T11:02:29.001Z</time></trkpt><trkpt lat="43.34444725273808" lon="10.753462822994841"><ele>57.0</ele><time>2026-04-18T11:02:31.001Z</time></trkpt><trkpt lat="43.344389392425484" lon="10.753390061645382"><ele>57.0</ele><time>2026-04-18T11:02:33.001Z</time></trkpt><trkpt lat="43.34432552770629" lon="10.75329984508045"><ele>57.0</ele><time>2026-04-18T11:02:35.001Z</time></trkpt><trkpt lat="43.34426459394644" lon="10.75321543380263"><ele>57.0</ele><time>2026-04-18T11:02:37.001Z</time></trkpt><trkpt lat="43.34419772686779" lon="10.753165824935833"><ele>57.0</ele><time>2026-04-18T11:02:39.001Z</time></trkpt><trkpt lat="43.34417145180049" lon="10.753273872893256"><ele>57.0</ele><time>2026-04-18T11:02:41.002Z</time></trkpt><trkpt lat="43.344271111669684" lon="10.753392708735154"><ele>57.0</ele><time>2026-04-18T11:02:43.002Z</time></trkpt><trkpt lat="43.34432957217638" lon="10.753450650872217"><ele>57.0</ele><time>2026-04-18T11:02:44.002Z</time></trkpt><trkpt lat="43.344410518068116" lon="10.753550479985362"><ele>57.0</ele><time>2026-04-18T11:02:46.002Z</time></trkpt><trkpt lat="43.34448264366626" lon="10.753592465394266"><ele>57.0</ele><time>2026-04-18T11:02:48.002Z</time></trkpt><trkpt lat="43.34454755513812" lon="10.753514625729332"><ele>57.0</ele><time>2026-04-18T11:02:50.002Z</time></trkpt><trkpt lat="43.34452851880061" lon="10.753408083541999"><ele>57.0</ele><time>2026-04-18T11:02:53.002Z</time></trkpt><trkpt lat="43.34447779101045" lon="10.753329501003472"><ele>57.0</ele><time>2026-04-18T11:02:55.002Z</time></trkpt><trkpt lat="43.34444524643817" lon="10.75324513937758"><ele>57.0</ele><time>2026-04-18T11:02:58Z</time></trkpt><trkpt lat="43.34438751184504" lon="10.753174605935701"><ele>57.0</ele><time>2026-04-18T11:03:01Z</time></trkpt><trkpt lat="43.344321072481044" lon="10.753208385077265"><ele>57.0</ele><time>2026-04-18T11:04:13.001Z</time></trkpt></trkseg><trkseg><trkpt lat="43.344364341873714" lon="10.753135624451351"><ele>57.0</ele><time>2026-04-18T12:31:10Z</time></trkpt><trkpt lat="43.34439558155313" lon="10.753263077987993"><ele>57.0</ele><time>2026-04-18T12:31:12Z</time></trkpt><trkpt lat="43.344452141620216" lon="10.75340692139827"><ele>57.0</ele><time>2026-04-18T12:31:14Z</time></trkpt><trkpt lat="43.34450590525248" lon="10.753464899575848"><ele>57.0</ele><time>2026-04-18T12:31:16Z</time></trkpt><trkpt lat="43.34450219640872" lon="10.75355622500861"><ele>57.0</ele><time>2026-04-18T12:31:19Z</time></trkpt><trkpt lat="43.3444431785475" lon="10.753603046289172"><ele>57.0</ele><time>2026-04-18T12:31:22Z</time></trkpt><trkpt lat="43.344377991365256" lon="10.75355945423728"><ele>57.0</ele><time>2026-04-18T12:31:24Z</time></trkpt><trkpt lat="43.34433995376771" lon="10.753486544886764"><ele>57.0</ele><time>2026-04-18T12:31:25Z</time></trkpt><trkpt lat="43.34427994354063" lon="10.753330644977948"><ele>57.0</ele><time>2026-04-18T12:31:27Z</time></trkpt><trkpt lat="43.34423604729635" lon="10.753253742310847"><ele>57.0</ele><time>2026-04-18T12:31:28Z</time></trkpt><trkpt lat="43.34418589789211" lon="10.753182270410006"><ele>57.0</ele><time>2026-04-18T12:31:29Z</time></trkpt><trkpt lat="43.3441366746222" lon="10.753112573105062"><ele>57.0</ele><time>2026-04-18T12:31:30Z</time></trkpt><trkpt lat="43.34408543686421" lon="10.753045320246548"><ele>57.0</ele><time>2026-04-18T12:31:31Z</time></trkpt><trkpt lat="43.344030898041694" lon="10.752970614285724"><ele>57.0</ele><time>2026-04-18T12:31:32Z</time></trkpt><trkpt lat="43.34397651159862" lon="10.752891294152331"><ele>57.0</ele><time>2026-04-18T12:31:33Z</time></trkpt><trkpt lat="43.34392297270587" lon="10.752817455116027"><ele>57.0</ele><time>2026-04-18T12:31:34Z</time></trkpt><trkpt lat="43.34387102803415" lon="10.752736014148274"><ele>57.0</ele><time>2026-04-18T12:31:35Z</time></trkpt><trkpt lat="43.34382076307901" lon="10.752653912801724"><ele>57.0</ele><time>2026-04-18T12:31:36Z</time></trkpt><trkpt lat="43.343764411548136" lon="10.752572926965607"><ele>56.8</ele><time>2026-04-18T12:31:37Z</time></trkpt><trkpt lat="43.343703410095785" lon="10.752496341945287"><ele>56.6</ele><time>2026-04-18T12:31:38Z</time></trkpt><trkpt lat="43.34364776032724" lon="10.752416036100598"><ele>56.39999999999999</ele><time>2026-04-18T12:31:39Z</time></trkpt><trkpt lat="43.34358842357695" lon="10.752325426831673"><ele>56.199999999999996</ele><time>2026-04-18T12:31:40Z</time></trkpt><trkpt lat="43.34352313722376" lon="10.752226635908372"><ele>56.0</ele><time>2026-04-18T12:31:41Z</time></trkpt><trkpt lat="43.343452630462956" lon="10.752121333197753"><ele>56.0</ele><time>2026-04-18T12:31:42Z</time></trkpt><trkpt lat="43.3433753493673" lon="10.752011737056947"><ele>55.99999999999999</ele><time>2026-04-18T12:31:43Z</time></trkpt><trkpt lat="43.34329459418734" lon="10.751899933968767"><ele>55.99999999999999</ele><time>2026-04-18T12:31:44Z</time></trkpt><trkpt lat="43.34321707919703" lon="10.75178863838742"><ele>56.0</ele><time>2026-04-18T12:31:45Z</time></trkpt><trkpt lat="43.34314402915412" lon="10.751676216174209"><ele>56.0</ele><time>2026-04-18T12:31:46Z</time></trkpt><trkpt lat="43.343072226358295" lon="10.75156804225669"><ele>55.75</ele><time>2026-04-18T12:31:47Z</time></trkpt><trkpt lat="43.34299718267136" lon="10.751457687119236"><ele>55.5</ele><time>2026-04-18T12:31:48Z</time></trkpt><trkpt lat="43.34290687935704" lon="10.751334268698105"><ele>55.25</ele><time>2026-04-18T12:31:49Z</time></trkpt><trkpt lat="43.342807805313235" lon="10.751194192659067"><ele>55.0</ele><time>2026-04-18T12:31:50Z</time></trkpt><trkpt lat="43.342711386111155" lon="10.751046592340934"><ele>55.33333333333333</ele><time>2026-04-18T12:31:51Z</time></trkpt><trkpt lat="43.34261220581395" lon="10.750895926989744"><ele>55.66666666666667</ele><time>2026-04-18T12:31:52Z</time></trkpt><trkpt lat="43.34250546801558" lon="10.750744523936865"><ele>56.0</ele><time>2026-04-18T12:31:53Z</time></trkpt><trkpt lat="43.34239520167339" lon="10.750586540517034"><ele>56.0</ele><time>2026-04-18T12:31:54Z</time></trkpt><trkpt lat="43.34228685787733" lon="10.750427941378287"><ele>56.0</ele><time>2026-04-18T12:31:55Z</time></trkpt><trkpt lat="43.34217854273143" lon="10.750270584105646"><ele>56.0</ele><time>2026-04-18T12:31:56Z</time></trkpt><trkpt lat="43.342073904917065" lon="10.750115519470855"><ele>55.66666666666667</ele><time>2026-04-18T12:31:57Z</time></trkpt><trkpt lat="43.34196949260839" lon="10.749963003636738"><ele>55.33333333333333</ele><time>2026-04-18T12:31:58Z</time></trkpt><trkpt lat="43.341861664154216" lon="10.749806122345252"><ele>55.0</ele><time>2026-04-18T12:31:59Z</time></trkpt><trkpt lat="43.341742182640665" lon="10.7496369103425"><ele>55.0</ele><time>2026-04-18T12:32:00Z</time></trkpt><trkpt lat="43.34162192436618" lon="10.74947050622538"><ele>55.0</ele><time>2026-04-18T12:32:01Z</time></trkpt><trkpt lat="43.34149505777088" lon="10.749305770909366"><ele>55.0</ele><time>2026-04-18T12:32:02Z</time></trkpt><trkpt lat="43.341357542362545" lon="10.749149492204285"><ele>54.666666666666664</ele><time>2026-04-18T12:32:03Z</time></trkpt><trkpt lat="43.34120897886566" lon="10.749008044005915"><ele>54.33333333333333</ele><time>2026-04-18T12:32:04Z</time></trkpt><trkpt lat="43.34104415425355" lon="10.748877232496648"><ele>54.0</ele><time>2026-04-18T12:32:05Z</time></trkpt><trkpt lat="43.34087673865146" lon="10.74874581086209"><ele>54.0</ele><time>2026-04-18T12:32:06Z</time></trkpt><trkpt lat="43.34070691791901" lon="10.74861149012807"><ele>54.0</ele><time>2026-04-18T12:32:07Z</time></trkpt><trkpt lat="43.34052849791839" lon="10.74848200727541"><ele>54.0</ele><time>2026-04-18T12:32:08Z</time></trkpt><trkpt lat="43.340343531589234" lon="10.748368629670905"><ele>54.33333333333333</ele><time>2026-04-18T12:32:09Z</time></trkpt><trkpt lat="43.34015678433941" lon="10.748275700824705"><ele>54.666666666666664</ele><time>2026-04-18T12:32:10Z</time></trkpt><trkpt lat="43.33995952423395" lon="10.748186381937009"><ele>55.0</ele><time>2026-04-18T12:32:11Z</time></trkpt><trkpt lat="43.339756454660304" lon="10.74810068246808"><ele>55.0</ele><time>2026-04-18T12:32:12Z</time></trkpt><trkpt lat="43.33955042817793" lon="10.748017504067601"><ele>55.0</ele><time>2026-04-18T12:32:13Z</time></trkpt><trkpt lat="43.33934278900046" lon="10.747933975586875"><ele>55.0</ele><time>2026-04-18T12:32:14Z</time></trkpt><trkpt lat="43.33914787711043" lon="10.747862604397179"><ele>55.0</ele><time>2026-04-18T12:32:15Z</time></trkpt><trkpt lat="43.33895960802647" lon="10.747801291175575"><ele>55.0</ele><time>2026-04-18T12:32:16Z</time></trkpt><trkpt lat="43.338760627523875" lon="10.747772957319956"><ele>55.0</ele><time>2026-04-18T12:32:17Z</time></trkpt><trkpt lat="43.33856096565252" lon="10.747781702967972"><ele>54.33333333333333</ele><time>2026-04-18T12:32:18Z</time></trkpt><trkpt lat="43.33834802574473" lon="10.747814072144386"><ele>53.66666666666667</ele><time>2026-04-18T12:32:19Z</time></trkpt><trkpt lat="43.33813568981293" lon="10.747838036699891"><ele>53.0</ele><time>2026-04-18T12:32:20Z</time></trkpt><trkpt lat="43.33793036799438" lon="10.74784975706518"><ele>53.0</ele><time>2026-04-18T12:32:21Z</time></trkpt><trkpt lat="43.33773800590439" lon="10.747837787662334"><ele>53.0</ele><time>2026-04-18T12:32:22Z</time></trkpt><trkpt lat="43.33755453015207" lon="10.747805123213949"><ele>53.0</ele><time>2026-04-18T12:32:23Z</time></trkpt><trkpt lat="43.33738853279906" lon="10.747746491228815"><ele>54.0</ele><time>2026-04-18T12:32:24Z</time></trkpt><trkpt lat="43.337238849674556" lon="10.747661738602282"><ele>55.0</ele><time>2026-04-18T12:32:25Z</time></trkpt><trkpt lat="43.33709921602854" lon="10.747546620103622"><ele>56.0</ele><time>2026-04-18T12:32:26Z</time></trkpt><trkpt lat="43.336972813819536" lon="10.747392657139105"><ele>56.0</ele><time>2026-04-18T12:32:26.999Z</time></trkpt><trkpt lat="43.336848610653135" lon="10.747218957794844"><ele>56.0</ele><time>2026-04-18T12:32:27.999Z</time></trkpt><trkpt lat="43.3367120217813" lon="10.747041857047925"><ele>56.0</ele><time>2026-04-18T12:32:28.999Z</time></trkpt><trkpt lat="43.33657250181949" lon="10.746865315232046"><ele>55.333333333333336</ele><time>2026-04-18T12:32:29.999Z</time></trkpt><trkpt lat="43.336435251878406" lon="10.746687977981829"><ele>54.66666666666667</ele><time>2026-04-18T12:32:30.999Z</time></trkpt><trkpt lat="43.33631800020822" lon="10.746509892752712"><ele>54.0</ele><time>2026-04-18T12:32:31.999Z</time></trkpt><trkpt lat="43.33622420823771" lon="10.746311819076741"><ele>54.0</ele><time>2026-04-18T12:32:32.999Z</time></trkpt><trkpt lat="43.33614898956965" lon="10.746078788944377"><ele>54.0</ele><time>2026-04-18T12:32:33.999Z</time></trkpt><trkpt lat="43.33608528029182" lon="10.745842744158505"><ele>54.0</ele><time>2026-04-18T12:32:34.999Z</time></trkpt><trkpt lat="43.33601543346766" lon="10.745591869798458"><ele>54.33333333333333</ele><time>2026-04-18T12:32:35.999Z</time></trkpt><trkpt lat="43.335943950699196" lon="10.745328600601331"><ele>54.666666666666664</ele><time>2026-04-18T12:32:36.999Z</time></trkpt><trkpt lat="43.335864882277214" lon="10.745082788214313"><ele>55.0</ele><time>2026-04-18T12:32:37.999Z</time></trkpt><trkpt lat="43.335793501979204" lon="10.744826135749795"><ele>56.0</ele><time>2026-04-18T12:32:38.999Z</time></trkpt><trkpt lat="43.33572492739661" lon="10.744570584604181"><ele>57.0</ele><time>2026-04-18T12:32:39.999Z</time></trkpt><trkpt lat="43.33566047324494" lon="10.744328023606714"><ele>58.0</ele><time>2026-04-18T12:32:40.999Z</time></trkpt><trkpt lat="43.335597847422065" lon="10.744115085080955"><ele>56.666666666666664</ele><time>2026-04-18T12:32:41.999Z</time></trkpt><trkpt lat="43.33554414436595" lon="10.743916614967878"><ele>55.33333333333333</ele><time>2026-04-18T12:32:42.999Z</time></trkpt><trkpt lat="43.33548499752368" lon="10.743714111777559"><ele>54.0</ele><time>2026-04-18T12:32:43.999Z</time></trkpt><trkpt lat="43.335428470420574" lon="10.743519990327123"><ele>54.0</ele><time>2026-04-18T12:32:44.999Z</time></trkpt><trkpt lat="43.335381916406426" lon="10.743337837434693"><ele>54.0</ele><time>2026-04-18T12:32:45.999Z</time></trkpt><trkpt lat="43.335356513046904" lon="10.743164709260347"><ele>54.0</ele><time>2026-04-18T12:32:46.999Z</time></trkpt><trkpt lat="43.3353648793869" lon="10.74299017427863"><ele>54.0</ele><time>2026-04-18T12:32:47.999Z</time></trkpt><trkpt lat="43.33538883557055" lon="10.742828890968795"><ele>54.0</ele><time>2026-04-18T12:32:48.999Z</time></trkpt><trkpt lat="43.33542138638559" lon="10.74268687992075"><ele>54.00000000000001</ele><time>2026-04-18T12:32:49.999Z</time></trkpt><trkpt lat="43.33545083234782" lon="10.742561786354694"><ele>54.00000000000001</ele><time>2026-04-18T12:32:50.999Z</time></trkpt><trkpt lat="43.33547360863794" lon="10.742457340851182"><ele>54.0</ele><time>2026-04-18T12:32:51.999Z</time></trkpt><trkpt lat="43.335504705487644" lon="10.742298936189956"><ele>54.0</ele><time>2026-04-18T12:32:53.999Z</time></trkpt><trkpt lat="43.33554186180677" lon="10.742121734694946"><ele>54.0</ele><time>2026-04-18T12:32:55.998Z</time></trkpt><trkpt lat="43.335564693168" lon="10.742032009104483"><ele>54.0</ele><time>2026-04-18T12:32:56.998Z</time></trkpt><trkpt lat="43.3355843018168" lon="10.741946908959488"><ele>54.0</ele><time>2026-04-18T12:32:57.998Z</time></trkpt><trkpt lat="43.3356007954072" lon="10.74185754738253"><ele>54.0</ele><time>2026-04-18T12:32:58.998Z</time></trkpt><trkpt lat="43.33561036111162" lon="10.741770099092028"><ele>54.0</ele><time>2026-04-18T12:32:59.998Z</time></trkpt><trkpt lat="43.3355957811077" lon="10.74167984638823"><ele>54.0</ele><time>2026-04-18T12:33:02.998Z</time></trkpt><trkpt lat="43.33551486387204" lon="10.741714746649459"><ele>54.0</ele><time>2026-04-18T12:33:06.999Z</time></trkpt><trkpt lat="43.33551561470275" lon="10.741898319800486"><ele>54.0</ele><time>2026-04-18T12:33:08.999Z</time></trkpt><trkpt lat="43.335501629768956" lon="10.741993783688617"><ele>54.0</ele><time>2026-04-18T12:33:09.999Z</time></trkpt><trkpt lat="43.33549771971807" lon="10.742080843414795"><ele>54.0</ele><time>2026-04-18T12:33:10.999Z</time></trkpt><trkpt lat="43.33548635382455" lon="10.742252548747775"><ele>54.0</ele><time>2026-04-18T12:33:12.999Z</time></trkpt><trkpt lat="43.33546215110737" lon="10.74234461580903"><ele>54.0</ele><time>2026-04-18T12:33:13.999Z</time></trkpt><trkpt lat="43.335440261483726" lon="10.742446186816382"><ele>54.0</ele><time>2026-04-18T12:33:14.999Z</time></trkpt><trkpt lat="43.33535557669456" lon="10.742505612009511"><ele>54.0</ele><time>2026-04-18T12:33:16.999Z</time></trkpt><trkpt lat="43.33526950441536" lon="10.742415740506374"><ele>54.0</ele><time>2026-04-18T12:33:18.999Z</time></trkpt><trkpt lat="43.335200228552544" lon="10.742289217489242"><ele>54.0</ele><time>2026-04-18T12:33:20.999Z</time></trkpt><trkpt lat="43.33515776660591" lon="10.742214466566727"><ele>54.0</ele><time>2026-04-18T12:33:21.999Z</time></trkpt><trkpt lat="43.33510560223838" lon="10.742139336538711"><ele>54.0</ele><time>2026-04-18T12:33:22.999Z</time></trkpt><trkpt lat="43.335059804925194" lon="10.742054473081431"><ele>54.0</ele><time>2026-04-18T12:33:23.999Z</time></trkpt><trkpt lat="43.33501126887836" lon="10.741969051218087"><ele>54.0</ele><time>2026-04-18T12:33:24.999Z</time></trkpt><trkpt lat="43.33495828046727" lon="10.741887362852035"><ele>54.00000000000001</ele><time>2026-04-18T12:33:25.999Z</time></trkpt><trkpt lat="43.33490119948159" lon="10.741790374393103"><ele>54.00000000000001</ele><time>2026-04-18T12:33:26.999Z</time></trkpt><trkpt lat="43.33483382586746" lon="10.741680552261696"><ele>54.0</ele><time>2026-04-18T12:33:27.999Z</time></trkpt><trkpt lat="43.33477566035703" lon="10.741573640447548"><ele>54.0</ele><time>2026-04-18T12:33:28.999Z</time></trkpt><trkpt lat="43.334708241746355" lon="10.741455250663494"><ele>53.5</ele><time>2026-04-18T12:33:29.999Z</time></trkpt><trkpt lat="43.33464005858435" lon="10.741335930528669"><ele>53.0</ele><time>2026-04-18T12:33:30.999Z</time></trkpt><trkpt lat="43.33457425527958" lon="10.741223764163738"><ele>52.5</ele><time>2026-04-18T12:33:31.999Z</time></trkpt><trkpt lat="43.334498810280635" lon="10.74110529689593"><ele>52.0</ele><time>2026-04-18T12:33:32.999Z</time></trkpt><trkpt lat="43.33442153219043" lon="10.74097657372951"><ele>51.75</ele><time>2026-04-18T12:33:33.999Z</time></trkpt><trkpt lat="43.33435018977025" lon="10.740843094177617"><ele>51.5</ele><time>2026-04-18T12:33:34.999Z</time></trkpt><trkpt lat="43.33427033788953" lon="10.74071304595054"><ele>51.25</ele><time>2026-04-18T12:33:35.999Z</time></trkpt><trkpt lat="43.33419245435996" lon="10.740584478411268"><ele>51.0</ele><time>2026-04-18T12:33:36.999Z</time></trkpt><trkpt lat="43.334111585674904" lon="10.740452124767149"><ele>51.0</ele><time>2026-04-18T12:33:37.999Z</time></trkpt><trkpt lat="43.33402976272391" lon="10.74029985849569"><ele>51.0</ele><time>2026-04-18T12:33:38.999Z</time></trkpt><trkpt lat="43.3339494053587" lon="10.740155791851025"><ele>51.0</ele><time>2026-04-18T12:33:39.999Z</time></trkpt><trkpt lat="43.33386868624599" lon="10.740024047443633"><ele>51.0</ele><time>2026-04-18T12:33:40.999Z</time></trkpt><trkpt lat="43.33378329131879" lon="10.739881108913663"><ele>51.25</ele><time>2026-04-18T12:33:41.999Z</time></trkpt><trkpt lat="43.33369735627252" lon="10.73973768535025"><ele>51.5</ele><time>2026-04-18T12:33:42.999Z</time></trkpt><trkpt lat="43.33361281342873" lon="10.739594029075374"><ele>51.75</ele><time>2026-04-18T12:33:43.999Z</time></trkpt><trkpt lat="43.33352794188017" lon="10.739447635470249"><ele>52.0</ele><time>2026-04-18T12:33:44.999Z</time></trkpt><trkpt lat="43.33344096564806" lon="10.739298247587795"><ele>52.0</ele><time>2026-04-18T12:33:45.999Z</time></trkpt><trkpt lat="43.3333521392522" lon="10.739143347374757"><ele>52.0</ele><time>2026-04-18T12:33:46.999Z</time></trkpt><trkpt lat="43.33326378887638" lon="10.73899742674341"><ele>52.0</ele><time>2026-04-18T12:33:47.999Z</time></trkpt><trkpt lat="43.33316277744697" lon="10.738845448234942"><ele>52.0</ele><time>2026-04-18T12:33:48.999Z</time></trkpt><trkpt lat="43.333044776989425" lon="10.73872548092726"><ele>52.33333333333333</ele><time>2026-04-18T12:33:49.999Z</time></trkpt><trkpt lat="43.33291131375268" lon="10.738636604122702"><ele>52.66666666666667</ele><time>2026-04-18T12:33:50.999Z</time></trkpt><trkpt lat="43.33276752073864" lon="10.73856703027288"><ele>53.0</ele><time>2026-04-18T12:33:51.999Z</time></trkpt><trkpt lat="43.332619337869176" lon="10.738488012463659"><ele>53.333333333333336</ele><time>2026-04-18T12:33:52.999Z</time></trkpt><trkpt lat="43.33247499453343" lon="10.738400250351052"><ele>53.66666666666667</ele><time>2026-04-18T12:33:53.999Z</time></trkpt><trkpt lat="43.332326089071664" lon="10.738318314548561"><ele>54.0</ele><time>2026-04-18T12:33:54.999Z</time></trkpt><trkpt lat="43.33217139922291" lon="10.738236852190289"><ele>53.33333333333333</ele><time>2026-04-18T12:33:55.999Z</time></trkpt><trkpt lat="43.33202235378206" lon="10.738154815132264"><ele>52.666666666666664</ele><time>2026-04-18T12:33:56.999Z</time></trkpt><trkpt lat="43.3318756837597" lon="10.73807058452149"><ele>52.0</ele><time>2026-04-18T12:33:57.999Z</time></trkpt><trkpt lat="43.331726727915004" lon="10.737980725886688"><ele>52.0</ele><time>2026-04-18T12:33:58.999Z</time></trkpt><trkpt lat="43.33157926240529" lon="10.737895584632406"><ele>52.0</ele><time>2026-04-18T12:33:59.999Z</time></trkpt><trkpt lat="43.33144153748298" lon="10.737816419774417"><ele>52.0</ele><time>2026-04-18T12:34:00.999Z</time></trkpt><trkpt lat="43.33131110841236" lon="10.737725684393164"><ele>54.5</ele><time>2026-04-18T12:34:01.999Z</time></trkpt><trkpt lat="43.33119319349848" lon="10.737628509171294"><ele>57.0</ele><time>2026-04-18T12:34:02.999Z</time></trkpt><trkpt lat="43.33109788510507" lon="10.737512273475176"><ele>59.5</ele><time>2026-04-18T12:34:03.999Z</time></trkpt><trkpt lat="43.331011495597" lon="10.737377563038246"><ele>62.0</ele><time>2026-04-18T12:34:04.999Z</time></trkpt><trkpt lat="43.330933670925624" lon="10.737223175536913"><ele>62.0</ele><time>2026-04-18T12:34:05.999Z</time></trkpt><trkpt lat="43.33086920149944" lon="10.737047472061539"><ele>62.0</ele><time>2026-04-18T12:34:06.999Z</time></trkpt><trkpt lat="43.330821930555345" lon="10.736857497014999"><ele>62.0</ele><time>2026-04-18T12:34:07.999Z</time></trkpt><trkpt lat="43.33077919685944" lon="10.736663576064585"><ele>62.0</ele><time>2026-04-18T12:34:08.999Z</time></trkpt><trkpt lat="43.33073441670978" lon="10.736478774212204"><ele>62.400000000000006</ele><time>2026-04-18T12:34:09.999Z</time></trkpt><trkpt lat="43.3306879218845" lon="10.736314924402972"><ele>62.800000000000004</ele><time>2026-04-18T12:34:10.999Z</time></trkpt><trkpt lat="43.33059809324198" lon="10.736139454020321"><ele>63.2</ele><time>2026-04-18T12:34:12.999Z</time></trkpt><trkpt lat="43.33053099021723" lon="10.736126714095917"><ele>63.6</ele><time>2026-04-18T12:34:13.999Z</time></trkpt><trkpt lat="43.33046012462384" lon="10.736162927313547"><ele>64.0</ele><time>2026-04-18T12:34:14.999Z</time></trkpt><trkpt lat="43.330380392600816" lon="10.736218113881195"><ele>65.60000000000001</ele><time>2026-04-18T12:34:15.999Z</time></trkpt><trkpt lat="43.33029785424197" lon="10.73627611027552"><ele>67.2</ele><time>2026-04-18T12:34:16.999Z</time></trkpt><trkpt lat="43.330183700561264" lon="10.736317528129636"><ele>68.80000000000001</ele><time>2026-04-18T12:34:17.999Z</time></trkpt><trkpt lat="43.33008228863285" lon="10.736363479669404"><ele>70.4</ele><time>2026-04-18T12:34:18.999Z</time></trkpt><trkpt lat="43.329970026116825" lon="10.736424094963207"><ele>72.0</ele><time>2026-04-18T12:34:19.999Z</time></trkpt><trkpt lat="43.329864476494436" lon="10.736484866305581"><ele>72.0</ele><time>2026-04-18T12:34:20.999Z</time></trkpt><trkpt lat="43.32974064644807" lon="10.736560098704766"><ele>72.0</ele><time>2026-04-18T12:34:21.999Z</time></trkpt><trkpt lat="43.32961879932795" lon="10.736610624335507"><ele>72.0</ele><time>2026-04-18T12:34:22.999Z</time></trkpt><trkpt lat="43.32947469786751" lon="10.736685839541394"><ele>72.0</ele><time>2026-04-18T12:34:23.999Z</time></trkpt><trkpt lat="43.32932786193965" lon="10.736767996283916"><ele>72.33333333333333</ele><time>2026-04-18T12:34:24.999Z</time></trkpt><trkpt lat="43.32915384236001" lon="10.736854112241657"><ele>72.66666666666666</ele><time>2026-04-18T12:34:25.999Z</time></trkpt><trkpt lat="43.32898383085745" lon="10.73695578855649"><ele>73.0</ele><time>2026-04-18T12:34:26.999Z</time></trkpt><trkpt lat="43.32881014946157" lon="10.737063156290883"><ele>74.0</ele><time>2026-04-18T12:34:27.999Z</time></trkpt><trkpt lat="43.32863096631987" lon="10.737156926859008"><ele>75.0</ele><time>2026-04-18T12:34:28.999Z</time></trkpt><trkpt lat="43.32845528131678" lon="10.73725119205859"><ele>76.0</ele><time>2026-04-18T12:34:29.999Z</time></trkpt><trkpt lat="43.32828198783052" lon="10.737347208260774"><ele>76.0</ele><time>2026-04-18T12:34:30.999Z</time></trkpt><trkpt lat="43.32810795866822" lon="10.737442575515091"><ele>76.0</ele><time>2026-04-18T12:34:31.999Z</time></trkpt><trkpt lat="43.32793437706315" lon="10.737542475547123"><ele>76.0</ele><time>2026-04-18T12:34:32.999Z</time></trkpt><trkpt lat="43.327762329176835" lon="10.737639563779634"><ele>76.25</ele><time>2026-04-18T12:34:33.999Z</time></trkpt><trkpt lat="43.32760087579839" lon="10.737721500058669"><ele>76.5</ele><time>2026-04-18T12:34:34.999Z</time></trkpt><trkpt lat="43.32746671394966" lon="10.737796353926685"><ele>76.75</ele><time>2026-04-18T12:34:35.999Z</time></trkpt><trkpt lat="43.32735307798172" lon="10.737874053762306"><ele>77.0</ele><time>2026-04-18T12:34:36.999Z</time></trkpt><trkpt lat="43.32725773922058" lon="10.737958866582167"><ele>77.25</ele><time>2026-04-18T12:34:37.999Z</time></trkpt><trkpt lat="43.32718671624962" lon="10.738070927106968"><ele>77.5</ele><time>2026-04-18T12:34:38.999Z</time></trkpt><trkpt lat="43.327099559913464" lon="10.738181046596102"><ele>77.75</ele><time>2026-04-18T12:34:39.999Z</time></trkpt><trkpt lat="43.3269657937881" lon="10.7382672513371"><ele>78.0</ele><time>2026-04-18T12:34:40.999Z</time></trkpt><trkpt lat="43.326825037771485" lon="10.738333450730108"><ele>78.0</ele><time>2026-04-18T12:34:41.999Z</time></trkpt><trkpt lat="43.3266918564297" lon="10.738421224243318"><ele>78.0</ele><time>2026-04-18T12:34:42.999Z</time></trkpt><trkpt lat="43.32657764035132" lon="10.738534958804571"><ele>78.0</ele><time>2026-04-18T12:34:43.999Z</time></trkpt><trkpt lat="43.32647319087406" lon="10.738689922101052"><ele>78.0</ele><time>2026-04-18T12:34:44.999Z</time></trkpt><trkpt lat="43.3263914863242" lon="10.738845314547074"><ele>78.25</ele><time>2026-04-18T12:34:45.999Z</time></trkpt><trkpt lat="43.32632949925858" lon="10.73897472877341"><ele>78.5</ele><time>2026-04-18T12:34:46.999Z</time></trkpt><trkpt lat="43.32628686496205" lon="10.739111865325734"><ele>78.75</ele><time>2026-04-18T12:34:47.999Z</time></trkpt><trkpt lat="43.32628954027986" lon="10.739301066123515"><ele>79.0</ele><time>2026-04-18T12:34:48.999Z</time></trkpt><trkpt lat="43.32631459746324" lon="10.739508087935937"><ele>76.5</ele><time>2026-04-18T12:34:49.999Z</time></trkpt><trkpt lat="43.32632935208946" lon="10.739718321374761"><ele>74.0</ele><time>2026-04-18T12:34:50.999Z</time></trkpt><trkpt lat="43.32632397138124" lon="10.73989213537972"><ele>71.5</ele><time>2026-04-18T12:34:51.999Z</time></trkpt><trkpt lat="43.32629212609044" lon="10.740019496908115"><ele>69.0</ele><time>2026-04-18T12:34:52.999Z</time></trkpt><trkpt lat="43.32620738465244" lon="10.740116169886395"><ele>69.0</ele><time>2026-04-18T12:34:53.999Z</time></trkpt><trkpt lat="43.326088374159205" lon="10.740182695172313"><ele>69.0</ele><time>2026-04-18T12:34:54.999Z</time></trkpt><trkpt lat="43.32594500901354" lon="10.740253615121613"><ele>69.0</ele><time>2026-04-18T12:34:55.999Z</time></trkpt><trkpt lat="43.32579050142154" lon="10.740346998706444"><ele>67.66666666666667</ele><time>2026-04-18T12:34:56.999Z</time></trkpt><trkpt lat="43.325632006021515" lon="10.740452858662632"><ele>66.33333333333334</ele><time>2026-04-18T12:34:57.999Z</time></trkpt><trkpt lat="43.32545753767511" lon="10.740560566746149"><ele>65.0</ele><time>2026-04-18T12:34:58.999Z</time></trkpt><trkpt lat="43.32528316499589" lon="10.740680701818812"><ele>65.0</ele><time>2026-04-18T12:34:59.999Z</time></trkpt><trkpt lat="43.32511660166287" lon="10.740803516771491"><ele>65.0</ele><time>2026-04-18T12:35:00.998Z</time></trkpt><trkpt lat="43.324967977000696" lon="10.740950374610788"><ele>65.0</ele><time>2026-04-18T12:35:01.998Z</time></trkpt><trkpt lat="43.32482509542956" lon="10.74111780318024"><ele>64.0</ele><time>2026-04-18T12:35:02.998Z</time></trkpt><trkpt lat="43.32469398619289" lon="10.741309670859158"><ele>63.0</ele><time>2026-04-18T12:35:03.998Z</time></trkpt><trkpt lat="43.324563006691385" lon="10.741502326961806"><ele>62.0</ele><time>2026-04-18T12:35:04.998Z</time></trkpt><trkpt lat="43.32443004141818" lon="10.741697613414763"><ele>60.333333333333336</ele><time>2026-04-18T12:35:05.998Z</time></trkpt><trkpt lat="43.32429869399492" lon="10.741901650619145"><ele>58.66666666666667</ele><time>2026-04-18T12:35:06.998Z</time></trkpt><trkpt lat="43.32416220240206" lon="10.742116230241393"><ele>57.0</ele><time>2026-04-18T12:35:07.998Z</time></trkpt><trkpt lat="43.324025331830605" lon="10.742334048678305"><ele>57.33333333333333</ele><time>2026-04-18T12:35:08.998Z</time></trkpt><trkpt lat="43.32389235055589" lon="10.742549746770598"><ele>57.666666666666664</ele><time>2026-04-18T12:35:09.998Z</time></trkpt><trkpt lat="43.32375015214684" lon="10.742770762317056"><ele>58.0</ele><time>2026-04-18T12:35:10.998Z</time></trkpt><trkpt lat="43.32361006134643" lon="10.742991455407854"><ele>58.0</ele><time>2026-04-18T12:35:11.998Z</time></trkpt><trkpt lat="43.3234753414449" lon="10.74322127762161"><ele>58.0</ele><time>2026-04-18T12:35:12.998Z</time></trkpt><trkpt lat="43.32333494566029" lon="10.743451871564636"><ele>58.0</ele><time>2026-04-18T12:35:13.998Z</time></trkpt><trkpt lat="43.323194340276686" lon="10.743680350795042"><ele>57.666666666666664</ele><time>2026-04-18T12:35:14.998Z</time></trkpt><trkpt lat="43.32305039335553" lon="10.74391511845926"><ele>57.33333333333333</ele><time>2026-04-18T12:35:15.998Z</time></trkpt><trkpt lat="43.32291070340034" lon="10.744147033439182"><ele>57.0</ele><time>2026-04-18T12:35:16.998Z</time></trkpt><trkpt lat="43.32277035588365" lon="10.744381062740144"><ele>57.0</ele><time>2026-04-18T12:35:17.998Z</time></trkpt><trkpt lat="43.32262498785298" lon="10.744621505778282"><ele>57.0</ele><time>2026-04-18T12:35:18.998Z</time></trkpt><trkpt lat="43.3224775489661" lon="10.744863445584773"><ele>57.0</ele><time>2026-04-18T12:35:19.999Z</time></trkpt><trkpt lat="43.32233526266342" lon="10.745090288359057"><ele>57.0</ele><time>2026-04-18T12:35:20.999Z</time></trkpt><trkpt lat="43.32220082227004" lon="10.745303011611385"><ele>57.0</ele><time>2026-04-18T12:35:21.999Z</time></trkpt><trkpt lat="43.32206785636505" lon="10.74552053809635"><ele>56.66666666666667</ele><time>2026-04-18T12:35:22.999Z</time></trkpt><trkpt lat="43.321937969758814" lon="10.745754804612153"><ele>56.333333333333336</ele><time>2026-04-18T12:35:23.999Z</time></trkpt><trkpt lat="43.321817665248005" lon="10.745998111061457"><ele>56.0</ele><time>2026-04-18T12:35:24.999Z</time></trkpt><trkpt lat="43.32170855954593" lon="10.746255562420444"><ele>56.0</ele><time>2026-04-18T12:35:25.999Z</time></trkpt><trkpt lat="43.32160211142841" lon="10.7465149866611"><ele>56.0</ele><time>2026-04-18T12:35:26.999Z</time></trkpt><trkpt lat="43.321496408474424" lon="10.746773386765838"><ele>56.0</ele><time>2026-04-18T12:35:27.999Z</time></trkpt><trkpt lat="43.321391650937166" lon="10.747041293399475"><ele>57.66666666666667</ele><time>2026-04-18T12:35:28.999Z</time></trkpt><trkpt lat="43.32128741028646" lon="10.747310292422334"><ele>59.33333333333333</ele><time>2026-04-18T12:35:29.999Z</time></trkpt><trkpt lat="43.32117976711627" lon="10.747583987622022"><ele>61.0</ele><time>2026-04-18T12:35:30.999Z</time></trkpt><trkpt lat="43.321068443785315" lon="10.747853381314304"><ele>61.0</ele><time>2026-04-18T12:35:31.999Z</time></trkpt><trkpt lat="43.32095462064757" lon="10.748132667374362"><ele>61.0</ele><time>2026-04-18T12:35:32.999Z</time></trkpt><trkpt lat="43.320838736420484" lon="10.748415343701813"><ele>59.0</ele><time>2026-04-18T12:35:33.999Z</time></trkpt><trkpt lat="43.32072414981361" lon="10.748697085308526"><ele>57.0</ele><time>2026-04-18T12:35:34.999Z</time></trkpt><trkpt lat="43.320609665952716" lon="10.748981893478442"><ele>59.5</ele><time>2026-04-18T12:35:35.999Z</time></trkpt><trkpt lat="43.320494692571955" lon="10.74926669820176"><ele>62.0</ele><time>2026-04-18T12:35:36.999Z</time></trkpt><trkpt lat="43.32037969784461" lon="10.749552401356842"><ele>62.0</ele><time>2026-04-18T12:35:37.999Z</time></trkpt><trkpt lat="43.32027204458153" lon="10.74981200189392"><ele>62.0</ele><time>2026-04-18T12:35:38.999Z</time></trkpt><trkpt lat="43.32016725252032" lon="10.75004890417451"><ele>62.0</ele><time>2026-04-18T12:35:39.999Z</time></trkpt><trkpt lat="43.32004771573171" lon="10.750254881095998"><ele>63.0</ele><time>2026-04-18T12:35:40.999Z</time></trkpt><trkpt lat="43.319904853042246" lon="10.750430244052879"><ele>64.0</ele><time>2026-04-18T12:35:41.999Z</time></trkpt><trkpt lat="43.31974586925792" lon="10.750587133268397"><ele>65.0</ele><time>2026-04-18T12:35:42.999Z</time></trkpt><trkpt lat="43.31959946562555" lon="10.750741077989208"><ele>65.0</ele><time>2026-04-18T12:35:43.999Z</time></trkpt><trkpt lat="43.31946293624232" lon="10.750886477759781"><ele>65.0</ele><time>2026-04-18T12:35:44.999Z</time></trkpt><trkpt lat="43.3193331723124" lon="10.751032075533018"><ele>65.0</ele><time>2026-04-18T12:35:45.999Z</time></trkpt><trkpt lat="43.31919756970175" lon="10.751189950293215"><ele>64.0</ele><time>2026-04-18T12:35:46.999Z</time></trkpt><trkpt lat="43.31907317597061" lon="10.751351803649943"><ele>63.0</ele><time>2026-04-18T12:35:47.999Z</time></trkpt><trkpt lat="43.318967448355025" lon="10.751533968059967"><ele>62.0</ele><time>2026-04-18T12:35:48.999Z</time></trkpt><trkpt lat="43.3188813629493" lon="10.751753981754119"><ele>65.0</ele><time>2026-04-18T12:35:49.999Z</time></trkpt><trkpt lat="43.318797614237155" lon="10.75200423169823"><ele>68.0</ele><time>2026-04-18T12:35:50.999Z</time></trkpt><trkpt lat="43.31871079532564" lon="10.752259817815883"><ele>71.0</ele><time>2026-04-18T12:35:51.999Z</time></trkpt><trkpt lat="43.31861800880701" lon="10.75252401590288"><ele>70.66666666666667</ele><time>2026-04-18T12:35:52.999Z</time></trkpt><trkpt lat="43.318521273486596" lon="10.752790865114715"><ele>70.33333333333333</ele><time>2026-04-18T12:35:53.999Z</time></trkpt><trkpt lat="43.318417605072504" lon="10.753062529747305"><ele>70.0</ele><time>2026-04-18T12:35:54.999Z</time></trkpt><trkpt lat="43.3183196112302" lon="10.753334810503288"><ele>68.0</ele><time>2026-04-18T12:35:55.999Z</time></trkpt><trkpt lat="43.3182244476675" lon="10.753610659921177"><ele>66.0</ele><time>2026-04-18T12:35:56.999Z</time></trkpt><trkpt lat="43.31812478312999" lon="10.75387739555663"><ele>64.0</ele><time>2026-04-18T12:35:57.999Z</time></trkpt><trkpt lat="43.318024881777895" lon="10.754140165698486"><ele>65.0</ele><time>2026-04-18T12:35:58.999Z</time></trkpt><trkpt lat="43.317926399769306" lon="10.75439494625935"><ele>66.0</ele><time>2026-04-18T12:35:59.999Z</time></trkpt><trkpt lat="43.31783220829406" lon="10.754637671228291"><ele>67.0</ele><time>2026-04-18T12:36:00.999Z</time></trkpt><trkpt lat="43.317744739987745" lon="10.754882961668102"><ele>67.0</ele><time>2026-04-18T12:36:01.999Z</time></trkpt><trkpt lat="43.31766843047286" lon="10.755123605543991"><ele>67.0</ele><time>2026-04-18T12:36:02.999Z</time></trkpt><trkpt lat="43.31759871389355" lon="10.755363107195627"><ele>67.0</ele><time>2026-04-18T12:36:03.999Z</time></trkpt><trkpt lat="43.31753502967925" lon="10.755597039234404"><ele>66.66666666666666</ele><time>2026-04-18T12:36:04.999Z</time></trkpt><trkpt lat="43.31746984820986" lon="10.755833677305674"><ele>66.33333333333333</ele><time>2026-04-18T12:36:05.999Z</time></trkpt><trkpt lat="43.31740132408281" lon="10.756079479593371"><ele>66.0</ele><time>2026-04-18T12:36:06.999Z</time></trkpt><trkpt lat="43.31732254316593" lon="10.756331516469107"><ele>70.33333333333333</ele><time>2026-04-18T12:36:07.999Z</time></trkpt><trkpt lat="43.31723400921625" lon="10.756579480922948"><ele>74.66666666666666</ele><time>2026-04-18T12:36:08.999Z</time></trkpt><trkpt lat="43.317141395724825" lon="10.7568274340941"><ele>79.0</ele><time>2026-04-18T12:36:09.999Z</time></trkpt><trkpt lat="43.31705762676657" lon="10.75707610881005"><ele>80.0</ele><time>2026-04-18T12:36:10.999Z</time></trkpt><trkpt lat="43.31698213116181" lon="10.75733386416143"><ele>81.0</ele><time>2026-04-18T12:36:11.999Z</time></trkpt><trkpt lat="43.3169226932598" lon="10.757599503832385"><ele>82.0</ele><time>2026-04-18T12:36:12.999Z</time></trkpt><trkpt lat="43.316872860001794" lon="10.757870699790281"><ele>79.33333333333333</ele><time>2026-04-18T12:36:13.999Z</time></trkpt><trkpt lat="43.316821544532225" lon="10.758146910864577"><ele>76.66666666666667</ele><time>2026-04-18T12:36:14.999Z</time></trkpt><trkpt lat="43.31676440441864" lon="10.758420121092941"><ele>74.0</ele><time>2026-04-18T12:36:15.999Z</time></trkpt><trkpt lat="43.316710563732926" lon="10.7586882800046"><ele>72.0</ele><time>2026-04-18T12:36:16.999Z</time></trkpt><trkpt lat="43.316655352558804" lon="10.758966216910995"><ele>70.0</ele><time>2026-04-18T12:36:17.999Z</time></trkpt><trkpt lat="43.316599876408915" lon="10.759224830235036"><ele>68.0</ele><time>2026-04-18T12:36:18.999Z</time></trkpt><trkpt lat="43.31654185955267" lon="10.759478628296137"><ele>67.33333333333334</ele><time>2026-04-18T12:36:19.999Z</time></trkpt><trkpt lat="43.31649477303077" lon="10.75973191495521"><ele>66.66666666666667</ele><time>2026-04-18T12:36:20.999Z</time></trkpt><trkpt lat="43.3164403516016" lon="10.759995558559906"><ele>66.0</ele><time>2026-04-18T12:36:21.999Z</time></trkpt><trkpt lat="43.31638964879911" lon="10.76025534039841"><ele>68.33333333333333</ele><time>2026-04-18T12:36:22.999Z</time></trkpt><trkpt lat="43.3163407173775" lon="10.760498393819352"><ele>70.66666666666666</ele><time>2026-04-18T12:36:23.999Z</time></trkpt><trkpt lat="43.316300183319456" lon="10.760700124218218"><ele>73.0</ele><time>2026-04-18T12:36:24.999Z</time></trkpt><trkpt lat="43.31625902162113" lon="10.760851696718582"><ele>73.0</ele><time>2026-04-18T12:36:25.999Z</time></trkpt><trkpt lat="43.31620843097647" lon="10.760950426809563"><ele>73.0</ele><time>2026-04-18T12:36:26.999Z</time></trkpt><trkpt lat="43.31613421658457" lon="10.761013042081396"><ele>73.0</ele><time>2026-04-18T12:36:27.999Z</time></trkpt><trkpt lat="43.3160359047694" lon="10.761042123099712"><ele>73.0</ele><time>2026-04-18T12:36:28.999Z</time></trkpt><trkpt lat="43.31591576951263" lon="10.76106547564733"><ele>73.0</ele><time>2026-04-18T12:36:29.999Z</time></trkpt><trkpt lat="43.315778195675605" lon="10.761121800885974"><ele>71.33333333333333</ele><time>2026-04-18T12:36:30.999Z</time></trkpt><trkpt lat="43.315632192417425" lon="10.761187259311512"><ele>69.66666666666667</ele><time>2026-04-18T12:36:31.999Z</time></trkpt><trkpt lat="43.31547701375127" lon="10.761255607021093"><ele>68.0</ele><time>2026-04-18T12:36:32.999Z</time></trkpt><trkpt lat="43.315332281375085" lon="10.761373299322528"><ele>67.66666666666667</ele><time>2026-04-18T12:36:33.999Z</time></trkpt><trkpt lat="43.31519817480954" lon="10.76152048657579"><ele>67.33333333333333</ele><time>2026-04-18T12:36:34.999Z</time></trkpt><trkpt lat="43.31507451736784" lon="10.761704028640077"><ele>67.0</ele><time>2026-04-18T12:36:35.999Z</time></trkpt><trkpt lat="43.31493930667372" lon="10.761883358674332"><ele>66.66666666666666</ele><time>2026-04-18T12:36:36.999Z</time></trkpt><trkpt lat="43.314832321352505" lon="10.762043336141746"><ele>66.33333333333333</ele><time>2026-04-18T12:36:37.999Z</time></trkpt><trkpt lat="43.31471759075551" lon="10.762156732046002"><ele>66.0</ele><time>2026-04-18T12:36:38.999Z</time></trkpt><trkpt lat="43.314587659717816" lon="10.762274358069929"><ele>67.33333333333333</ele><time>2026-04-18T12:36:39.999Z</time></trkpt><trkpt lat="43.31444158008129" lon="10.762387159255796"><ele>68.66666666666666</ele><time>2026-04-18T12:36:40.999Z</time></trkpt><trkpt lat="43.31429880067602" lon="10.762500611466725"><ele>70.0</ele><time>2026-04-18T12:36:41.999Z</time></trkpt><trkpt lat="43.314154280484786" lon="10.762661200023198"><ele>69.66666666666666</ele><time>2026-04-18T12:36:42.999Z</time></trkpt><trkpt lat="43.31401841099011" lon="10.762850189306516"><ele>69.33333333333333</ele><time>2026-04-18T12:36:43.999Z</time></trkpt><trkpt lat="43.31389172715109" lon="10.763065139998238"><ele>69.0</ele><time>2026-04-18T12:36:44.999Z</time></trkpt><trkpt lat="43.31377248769373" lon="10.763274952897495"><ele>71.0</ele><time>2026-04-18T12:36:45.999Z</time></trkpt><trkpt lat="43.31364965504751" lon="10.763485668165954"><ele>73.0</ele><time>2026-04-18T12:36:46.999Z</time></trkpt><trkpt lat="43.3135252426643" lon="10.763680880326273"><ele>75.0</ele><time>2026-04-18T12:36:47.999Z</time></trkpt><trkpt lat="43.31342031864601" lon="10.763838170021424"><ele>75.0</ele><time>2026-04-18T12:36:48.999Z</time></trkpt><trkpt lat="43.31332336379993" lon="10.763953413201422"><ele>75.0</ele><time>2026-04-18T12:36:49.999Z</time></trkpt><trkpt lat="43.31320330123079" lon="10.764034851843048"><ele>75.0</ele><time>2026-04-18T12:36:50.999Z</time></trkpt><trkpt lat="43.31305467682202" lon="10.764129719763318"><ele>75.0</ele><time>2026-04-18T12:36:51.999Z</time></trkpt><trkpt lat="43.31290591212662" lon="10.764222072473652"><ele>79.0</ele><time>2026-04-18T12:36:52.999Z</time></trkpt><trkpt lat="43.31275700137756" lon="10.76432776931424"><ele>83.0</ele><time>2026-04-18T12:36:53.999Z</time></trkpt><trkpt lat="43.312613255813446" lon="10.764441845773579"><ele>87.0</ele><time>2026-04-18T12:36:54.999Z</time></trkpt><trkpt lat="43.31245916126146" lon="10.76457862136226"><ele>87.0</ele><time>2026-04-18T12:36:55.999Z</time></trkpt><trkpt lat="43.312316918105275" lon="10.764713298943994"><ele>87.0</ele><time>2026-04-18T12:36:56.999Z</time></trkpt><trkpt lat="43.3121768505339" lon="10.764849475000712"><ele>87.0</ele><time>2026-04-18T12:36:57.999Z</time></trkpt><trkpt lat="43.312048199301" lon="10.76497868488342"><ele>90.5</ele><time>2026-04-18T12:36:58.999Z</time></trkpt><trkpt lat="43.31194931873253" lon="10.765106885226198"><ele>94.0</ele><time>2026-04-18T12:37:00Z</time></trkpt><trkpt lat="43.31186629795941" lon="10.765254744032845"><ele>97.5</ele><time>2026-04-18T12:37:01Z</time></trkpt><trkpt lat="43.311788516995335" lon="10.76542965301692"><ele>101.0</ele><time>2026-04-18T12:37:02Z</time></trkpt><trkpt lat="43.31171088334701" lon="10.7656233472338"><ele>101.75</ele><time>2026-04-18T12:37:03Z</time></trkpt><trkpt lat="43.311631637800104" lon="10.765818741549788"><ele>102.5</ele><time>2026-04-18T12:37:04Z</time></trkpt><trkpt lat="43.31155743569444" lon="10.765971864618969"><ele>103.25</ele><time>2026-04-18T12:37:05Z</time></trkpt><trkpt lat="43.3114776899183" lon="10.766084956424447"><ele>104.0</ele><time>2026-04-18T12:37:06Z</time></trkpt><trkpt lat="43.31138110421498" lon="10.766150037680621"><ele>106.25</ele><time>2026-04-18T12:37:06.998Z</time></trkpt><trkpt lat="43.31126392050017" lon="10.76615635533853"><ele>108.5</ele><time>2026-04-18T12:37:07.998Z</time></trkpt><trkpt lat="43.31114758138762" lon="10.766114776612522"><ele>110.75</ele><time>2026-04-18T12:37:08.998Z</time></trkpt><trkpt lat="43.311009997638024" lon="10.766057428601975"><ele>113.0</ele><time>2026-04-18T12:37:09.998Z</time></trkpt><trkpt lat="43.3108509408655" lon="10.766007414051222"><ele>113.0</ele><time>2026-04-18T12:37:10.998Z</time></trkpt><trkpt lat="43.31067819942596" lon="10.765960765891055"><ele>113.0</ele><time>2026-04-18T12:37:11.998Z</time></trkpt><trkpt lat="43.31051245387283" lon="10.765903264910381"><ele>113.0</ele><time>2026-04-18T12:37:12.998Z</time></trkpt><trkpt lat="43.3103590543576" lon="10.765799119122931"><ele>117.33333333333333</ele><time>2026-04-18T12:37:13.998Z</time></trkpt><trkpt lat="43.31022771292933" lon="10.765657870799863"><ele>121.66666666666666</ele><time>2026-04-18T12:37:14.998Z</time></trkpt><trkpt lat="43.31010487065868" lon="10.765504277315381"><ele>126.0</ele><time>2026-04-18T12:37:15.998Z</time></trkpt><trkpt lat="43.30999862573359" lon="10.765344743509184"><ele>126.33333333333334</ele><time>2026-04-18T12:37:16.998Z</time></trkpt><trkpt lat="43.30991053276646" lon="10.765152974709414"><ele>126.66666666666667</ele><time>2026-04-18T12:37:17.998Z</time></trkpt><trkpt lat="43.309846136832924" lon="10.764940802363359"><ele>127.0</ele><time>2026-04-18T12:37:18.998Z</time></trkpt><trkpt lat="43.30979719941023" lon="10.764726842303931"><ele>127.0</ele><time>2026-04-18T12:37:19.998Z</time></trkpt><trkpt lat="43.30975548531854" lon="10.76454031847463"><ele>127.0</ele><time>2026-04-18T12:37:20.998Z</time></trkpt><trkpt lat="43.30970811359321" lon="10.764378848384975"><ele>127.0</ele><time>2026-04-18T12:37:21.998Z</time></trkpt><trkpt lat="43.309646124907104" lon="10.764229278073785"><ele>127.0</ele><time>2026-04-18T12:37:22.998Z</time></trkpt><trkpt lat="43.309578530773756" lon="10.764122673414189"><ele>128.6</ele><time>2026-04-18T12:37:23.998Z</time></trkpt><trkpt lat="43.30950432546848" lon="10.764062337762816"><ele>130.2</ele><time>2026-04-18T12:37:24.998Z</time></trkpt><trkpt lat="43.30942732111215" lon="10.764063694908712"><ele>131.8</ele><time>2026-04-18T12:37:25.998Z</time></trkpt><trkpt lat="43.309366114908144" lon="10.764124610814413"><ele>133.4</ele><time>2026-04-18T12:37:26.999Z</time></trkpt><trkpt lat="43.30929413886208" lon="10.764248146813923"><ele>135.0</ele><time>2026-04-18T12:37:27.999Z</time></trkpt><trkpt lat="43.3092136140947" lon="10.764402740479266"><ele>136.75</ele><time>2026-04-18T12:37:28.999Z</time></trkpt><trkpt lat="43.309120083424915" lon="10.764520427900477"><ele>138.5</ele><time>2026-04-18T12:37:29.999Z</time></trkpt><trkpt lat="43.30902829719722" lon="10.764617555174754"><ele>140.25</ele><time>2026-04-18T12:37:30.999Z</time></trkpt><trkpt lat="43.30892638202113" lon="10.764704013936162"><ele>142.0</ele><time>2026-04-18T12:37:31.999Z</time></trkpt><trkpt lat="43.30880957025201" lon="10.764779091758381"><ele>142.0</ele><time>2026-04-18T12:37:32.999Z</time></trkpt><trkpt lat="43.30868412609984" lon="10.764856526201507"><ele>142.0</ele><time>2026-04-18T12:37:33.999Z</time></trkpt><trkpt lat="43.308555037217" lon="10.764945128921935"><ele>142.0</ele><time>2026-04-18T12:37:34.999Z</time></trkpt><trkpt lat="43.3084139623477" lon="10.765053541340267"><ele>142.0</ele><time>2026-04-18T12:37:35.999Z</time></trkpt><trkpt lat="43.30827673470692" lon="10.765168459533404"><ele>143.0</ele><time>2026-04-18T12:37:36.999Z</time></trkpt><trkpt lat="43.30813087728753" lon="10.765285117142836"><ele>144.0</ele><time>2026-04-18T12:37:37.999Z</time></trkpt><trkpt lat="43.30797848870719" lon="10.765394592850422"><ele>145.0</ele><time>2026-04-18T12:37:38.999Z</time></trkpt><trkpt lat="43.30783052839367" lon="10.765505571874872"><ele>145.0</ele><time>2026-04-18T12:37:39.999Z</time></trkpt><trkpt lat="43.30770552305356" lon="10.765599993015003"><ele>145.0</ele><time>2026-04-18T12:37:40.999Z</time></trkpt><trkpt lat="43.30759694789122" lon="10.765692503656469"><ele>145.0</ele><time>2026-04-18T12:37:41.999Z</time></trkpt><trkpt lat="43.307494220072186" lon="10.76580127299161"><ele>145.0</ele><time>2026-04-18T12:37:42.999Z</time></trkpt><trkpt lat="43.30740358153047" lon="10.76593528927696"><ele>144.0</ele><time>2026-04-18T12:37:43.999Z</time></trkpt><trkpt lat="43.307313207633534" lon="10.766070027521229"><ele>143.0</ele><time>2026-04-18T12:37:44.999Z</time></trkpt><trkpt lat="43.30721562041528" lon="10.766227692699147"><ele>142.0</ele><time>2026-04-18T12:37:45.999Z</time></trkpt><trkpt lat="43.30712762527352" lon="10.766411488964193"><ele>141.0</ele><time>2026-04-18T12:37:46.999Z</time></trkpt><trkpt lat="43.30704923654629" lon="10.766600875939536"><ele>141.0</ele><time>2026-04-18T12:37:47.999Z</time></trkpt><trkpt lat="43.3069760139717" lon="10.766766413809272"><ele>141.0</ele><time>2026-04-18T12:37:48.999Z</time></trkpt><trkpt lat="43.30686360952866" lon="10.76688415837363"><ele>141.0</ele><time>2026-04-18T12:37:49.999Z</time></trkpt><trkpt lat="43.30672736462124" lon="10.766958982185749"><ele>141.0</ele><time>2026-04-18T12:37:50.999Z</time></trkpt><trkpt lat="43.306579240472914" lon="10.766997392820947"><ele>140.66666666666666</ele><time>2026-04-18T12:37:51.999Z</time></trkpt><trkpt lat="43.30642024051356" lon="10.767051895515381"><ele>140.33333333333331</ele><time>2026-04-18T12:37:52.999Z</time></trkpt><trkpt lat="43.30626279068439" lon="10.767139008074329"><ele>140.0</ele><time>2026-04-18T12:37:53.999Z</time></trkpt><trkpt lat="43.306109104032764" lon="10.76725374990848"><ele>141.33333333333331</ele><time>2026-04-18T12:37:54.999Z</time></trkpt><trkpt lat="43.30596329083455" lon="10.767353513429928"><ele>142.66666666666666</ele><time>2026-04-18T12:37:55.999Z</time></trkpt><trkpt lat="43.30581177796347" lon="10.767402060223858"><ele>144.0</ele><time>2026-04-18T12:37:56.999Z</time></trkpt><trkpt lat="43.30565841644217" lon="10.767413569016615"><ele>145.33333333333334</ele><time>2026-04-18T12:37:57.999Z</time></trkpt><trkpt lat="43.30549667180102" lon="10.767413929350592"><ele>146.66666666666669</ele><time>2026-04-18T12:37:58.999Z</time></trkpt><trkpt lat="43.30532408730384" lon="10.767395665277308"><ele>148.0</ele><time>2026-04-18T12:37:59.999Z</time></trkpt><trkpt lat="43.30516505886855" lon="10.767396919411212"><ele>148.0</ele><time>2026-04-18T12:38:00.999Z</time></trkpt><trkpt lat="43.305021268958505" lon="10.767400879789339"><ele>148.0</ele><time>2026-04-18T12:38:01.999Z</time></trkpt><trkpt lat="43.304895096218864" lon="10.767402038476927"><ele>148.0</ele><time>2026-04-18T12:38:02.999Z</time></trkpt><trkpt lat="43.3047622662411" lon="10.767371096749038"><ele>148.0</ele><time>2026-04-18T12:38:03.999Z</time></trkpt><trkpt lat="43.30462256265827" lon="10.767322763468908"><ele>149.0</ele><time>2026-04-18T12:38:04.999Z</time></trkpt><trkpt lat="43.304478384915846" lon="10.767256818111633"><ele>150.0</ele><time>2026-04-18T12:38:05.999Z</time></trkpt><trkpt lat="43.30432597512272" lon="10.767188828295629"><ele>151.0</ele><time>2026-04-18T12:38:06.999Z</time></trkpt><trkpt lat="43.30417572911086" lon="10.767129736578326"><ele>151.0</ele><time>2026-04-18T12:38:07.999Z</time></trkpt><trkpt lat="43.30402195886545" lon="10.767085011672775"><ele>151.0</ele><time>2026-04-18T12:38:08.999Z</time></trkpt><trkpt lat="43.30386230209222" lon="10.767071925474347"><ele>151.0</ele><time>2026-04-18T12:38:09.999Z</time></trkpt><trkpt lat="43.303693786693685" lon="10.767094493725203"><ele>152.0</ele><time>2026-04-18T12:38:10.999Z</time></trkpt><trkpt lat="43.30352625627873" lon="10.767149758079078"><ele>153.0</ele><time>2026-04-18T12:38:11.999Z</time></trkpt><trkpt lat="43.30335349232495" lon="10.767213215640558"><ele>154.0</ele><time>2026-04-18T12:38:12.999Z</time></trkpt><trkpt lat="43.30317603523446" lon="10.767276079205388"><ele>154.33333333333334</ele><time>2026-04-18T12:38:13.999Z</time></trkpt><trkpt lat="43.30299708367688" lon="10.767334991244942"><ele>154.66666666666666</ele><time>2026-04-18T12:38:14.999Z</time></trkpt><trkpt lat="43.302817129802385" lon="10.767396603626485"><ele>155.0</ele><time>2026-04-18T12:38:15.999Z</time></trkpt><trkpt lat="43.302637056845434" lon="10.767462626019954"><ele>155.0</ele><time>2026-04-18T12:38:16.999Z</time></trkpt><trkpt lat="43.30245522198865" lon="10.767526734049673"><ele>155.0</ele><time>2026-04-18T12:38:17.999Z</time></trkpt><trkpt lat="43.302269443587534" lon="10.767595901312633"><ele>155.0</ele><time>2026-04-18T12:38:18.999Z</time></trkpt><trkpt lat="43.30208342675239" lon="10.767667972964384"><ele>154.66666666666666</ele><time>2026-04-18T12:38:19.999Z</time></trkpt><trkpt lat="43.30189221187802" lon="10.76774635763453"><ele>154.33333333333334</ele><time>2026-04-18T12:38:20.999Z</time></trkpt><trkpt lat="43.30169793280355" lon="10.767820884913768"><ele>154.0</ele><time>2026-04-18T12:38:21.999Z</time></trkpt><trkpt lat="43.30150405744513" lon="10.767893295216192"><ele>155.0</ele><time>2026-04-18T12:38:22.999Z</time></trkpt><trkpt lat="43.30131341201255" lon="10.767965369190666"><ele>156.0</ele><time>2026-04-18T12:38:23.999Z</time></trkpt><trkpt lat="43.30112099622607" lon="10.768037154919456"><ele>157.0</ele><time>2026-04-18T12:38:24.999Z</time></trkpt><trkpt lat="43.300931082490706" lon="10.768107701662611"><ele>157.0</ele><time>2026-04-18T12:38:25.999Z</time></trkpt><trkpt lat="43.30075292415196" lon="10.768171047739484"><ele>157.0</ele><time>2026-04-18T12:38:26.999Z</time></trkpt><trkpt lat="43.300579923114164" lon="10.768215610372494"><ele>157.0</ele><time>2026-04-18T12:38:27.999Z</time></trkpt><trkpt lat="43.30040945293237" lon="10.76824349093685"><ele>159.33333333333334</ele><time>2026-04-18T12:38:28.999Z</time></trkpt><trkpt lat="43.30023741310985" lon="10.76826314524216"><ele>161.66666666666666</ele><time>2026-04-18T12:38:29.999Z</time></trkpt><trkpt lat="43.30006608393281" lon="10.768276612739859"><ele>164.0</ele><time>2026-04-18T12:38:30.999Z</time></trkpt><trkpt lat="43.29989181204935" lon="10.768279941793965"><ele>166.0</ele><time>2026-04-18T12:38:32Z</time></trkpt><trkpt lat="43.29971042148938" lon="10.76825448027612"><ele>168.0</ele><time>2026-04-18T12:38:33Z</time></trkpt><trkpt lat="43.299527228421624" lon="10.768230419743775"><ele>170.0</ele><time>2026-04-18T12:38:34Z</time></trkpt><trkpt lat="43.29939898713914" lon="10.768183013315497"><ele>170.0</ele><time>2026-04-18T12:38:35Z</time></trkpt><trkpt lat="43.29923799746474" lon="10.768116003565769"><ele>170.0</ele><time>2026-04-18T12:38:36Z</time></trkpt><trkpt lat="43.29906931033831" lon="10.768055025594771"><ele>170.0</ele><time>2026-04-18T12:38:37Z</time></trkpt><trkpt lat="43.29890476967589" lon="10.767990047116696"><ele>173.33333333333331</ele><time>2026-04-18T12:38:38Z</time></trkpt><trkpt lat="43.2987386984222" lon="10.76792486319828"><ele>176.66666666666666</ele><time>2026-04-18T12:38:39Z</time></trkpt><trkpt lat="43.298571526608804" lon="10.76785089494538"><ele>180.0</ele><time>2026-04-18T12:38:40Z</time></trkpt><trkpt lat="43.2984079728342" lon="10.767764650510317"><ele>181.0</ele><time>2026-04-18T12:38:41Z</time></trkpt><trkpt lat="43.298243625783144" lon="10.767674458703954"><ele>182.0</ele><time>2026-04-18T12:38:42Z</time></trkpt><trkpt lat="43.29808706511862" lon="10.767614012685028"><ele>183.0</ele><time>2026-04-18T12:38:43Z</time></trkpt><trkpt lat="43.29795909232791" lon="10.767600964185466"><ele>184.25</ele><time>2026-04-18T12:38:44Z</time></trkpt><trkpt lat="43.29783092436496" lon="10.767642608420738"><ele>185.5</ele><time>2026-04-18T12:38:45Z</time></trkpt><trkpt lat="43.297695647788274" lon="10.76770683466398"><ele>186.75</ele><time>2026-04-18T12:38:46Z</time></trkpt><trkpt lat="43.2975566619486" lon="10.767757887156842"><ele>188.0</ele><time>2026-04-18T12:38:47Z</time></trkpt><trkpt lat="43.29741890527112" lon="10.767821951619338"><ele>188.0</ele><time>2026-04-18T12:38:48Z</time></trkpt><trkpt lat="43.29728135627017" lon="10.767919787788918"><ele>188.0</ele><time>2026-04-18T12:38:49Z</time></trkpt><trkpt lat="43.29715219424346" lon="10.768060574352676"><ele>188.0</ele><time>2026-04-18T12:38:50Z</time></trkpt><trkpt lat="43.297036645167715" lon="10.768186451178549"><ele>191.0</ele><time>2026-04-18T12:38:51Z</time></trkpt><trkpt lat="43.29692726380576" lon="10.768292134340031"><ele>194.0</ele><time>2026-04-18T12:38:52Z</time></trkpt><trkpt lat="43.29682963838037" lon="10.768376565139674"><ele>197.0</ele><time>2026-04-18T12:38:53Z</time></trkpt><trkpt lat="43.29670580666054" lon="10.768443162911327"><ele>200.0</ele><time>2026-04-18T12:38:54Z</time></trkpt><trkpt lat="43.2965588266644" lon="10.768491910088079"><ele>200.0</ele><time>2026-04-18T12:38:55Z</time></trkpt><trkpt lat="43.29642102371061" lon="10.768509060204012"><ele>200.0</ele><time>2026-04-18T12:38:56Z</time></trkpt><trkpt lat="43.2962657858664" lon="10.768497284381786"><ele>200.0</ele><time>2026-04-18T12:38:57Z</time></trkpt><trkpt lat="43.29611126321473" lon="10.76845384228652"><ele>201.0</ele><time>2026-04-18T12:38:58Z</time></trkpt><trkpt lat="43.29596110030788" lon="10.768432696538868"><ele>202.0</ele><time>2026-04-18T12:38:59Z</time></trkpt><trkpt lat="43.29580804213794" lon="10.768411484779698"><ele>203.0</ele><time>2026-04-18T12:39:00Z</time></trkpt><trkpt lat="43.295677835387686" lon="10.768393595358264"><ele>204.0</ele><time>2026-04-18T12:39:01Z</time></trkpt><trkpt lat="43.295545095637976" lon="10.768389845636213"><ele>205.66666666666669</ele><time>2026-04-18T12:39:02Z</time></trkpt><trkpt lat="43.29540686337641" lon="10.76841281275428"><ele>207.33333333333334</ele><time>2026-04-18T12:39:03Z</time></trkpt><trkpt lat="43.295256124403046" lon="10.768461599493818"><ele>209.0</ele><time>2026-04-18T12:39:04Z</time></trkpt><trkpt lat="43.29510021667198" lon="10.768512659633574"><ele>210.25</ele><time>2026-04-18T12:39:05Z</time></trkpt><trkpt lat="43.29494289086865" lon="10.768537201026053"><ele>211.5</ele><time>2026-04-18T12:39:06Z</time></trkpt><trkpt lat="43.29480296838575" lon="10.768543440899483"><ele>212.75</ele><time>2026-04-18T12:39:07Z</time></trkpt><trkpt lat="43.29466541457088" lon="10.768541633047215"><ele>214.0</ele><time>2026-04-18T12:39:08Z</time></trkpt><trkpt lat="43.294527454397375" lon="10.768505242297675"><ele>214.0</ele><time>2026-04-18T12:39:09Z</time></trkpt><trkpt lat="43.29439319672542" lon="10.768474844702585"><ele>214.0</ele><time>2026-04-18T12:39:10Z</time></trkpt><trkpt lat="43.2942477741782" lon="10.768476544755218"><ele>214.0</ele><time>2026-04-18T12:39:11Z</time></trkpt><trkpt lat="43.29409041654606" lon="10.768517841598296"><ele>214.0</ele><time>2026-04-18T12:39:12Z</time></trkpt><trkpt lat="43.293921207212904" lon="10.768571717809738"><ele>208.0</ele><time>2026-04-18T12:39:12.998Z</time></trkpt><trkpt lat="43.29374657560682" lon="10.768611938039976"><ele>202.0</ele><time>2026-04-18T12:39:13.998Z</time></trkpt><trkpt lat="43.293570609495355" lon="10.768631923992976"><ele>196.0</ele><time>2026-04-18T12:39:14.998Z</time></trkpt><trkpt lat="43.29341144728402" lon="10.768649108960044"><ele>196.0</ele><time>2026-04-18T12:39:15.998Z</time></trkpt><trkpt lat="43.29326671413229" lon="10.768670798099087"><ele>196.0</ele><time>2026-04-18T12:39:16.998Z</time></trkpt><trkpt lat="43.29312381158868" lon="10.768672872482083"><ele>196.0</ele><time>2026-04-18T12:39:17.999Z</time></trkpt><trkpt lat="43.29297389380878" lon="10.76863951703832"><ele>196.0</ele><time>2026-04-18T12:39:18.999Z</time></trkpt><trkpt lat="43.292818900273495" lon="10.768574571605246"><ele>199.66666666666666</ele><time>2026-04-18T12:39:19.999Z</time></trkpt><trkpt lat="43.292652087782905" lon="10.768509130235259"><ele>203.33333333333331</ele><time>2026-04-18T12:39:20.999Z</time></trkpt><trkpt lat="43.292485586872495" lon="10.768447728591807"><ele>207.0</ele><time>2026-04-18T12:39:21.999Z</time></trkpt><trkpt lat="43.292335272230694" lon="10.768385378816932"><ele>207.0</ele><time>2026-04-18T12:39:22.999Z</time></trkpt><trkpt lat="43.292201835559034" lon="10.768340157728383"><ele>207.0</ele><time>2026-04-18T12:39:23.999Z</time></trkpt><trkpt lat="43.29207947410977" lon="10.768293131742213"><ele>207.0</ele><time>2026-04-18T12:39:24.999Z</time></trkpt><trkpt lat="43.29196445569665" lon="10.768244501900611"><ele>207.0</ele><time>2026-04-18T12:39:25.999Z</time></trkpt><trkpt lat="43.2918362228371" lon="10.768191352712726"><ele>207.0</ele><time>2026-04-18T12:39:26.999Z</time></trkpt><trkpt lat="43.29168159636369" lon="10.768153027208802"><ele>207.0</ele><time>2026-04-18T12:39:27.999Z</time></trkpt><trkpt lat="43.29151602326098" lon="10.7681466215883"><ele>207.0</ele><time>2026-04-18T12:39:28.999Z</time></trkpt><trkpt lat="43.29134802137724" lon="10.768145863210266"><ele>208.33333333333331</ele><time>2026-04-18T12:39:29.999Z</time></trkpt><trkpt lat="43.291175407754636" lon="10.768141272162215"><ele>209.66666666666666</ele><time>2026-04-18T12:39:30.999Z</time></trkpt><trkpt lat="43.290999314757904" lon="10.768135284042575"><ele>211.0</ele><time>2026-04-18T12:39:31.999Z</time></trkpt><trkpt lat="43.29082009797559" lon="10.768126569178056"><ele>211.0</ele><time>2026-04-18T12:39:32.999Z</time></trkpt><trkpt lat="43.290635042316964" lon="10.76812146188462"><ele>211.0</ele><time>2026-04-18T12:39:33.999Z</time></trkpt><trkpt lat="43.290451318253346" lon="10.76811469248496"><ele>211.0</ele><time>2026-04-18T12:39:34.999Z</time></trkpt><trkpt lat="43.2902684569675" lon="10.768109871702132"><ele>214.33333333333331</ele><time>2026-04-18T12:39:35.999Z</time></trkpt><trkpt lat="43.29009009577305" lon="10.768105601854437"><ele>217.66666666666669</ele><time>2026-04-18T12:39:36.999Z</time></trkpt><trkpt lat="43.28992153281555" lon="10.76810111901352"><ele>221.0</ele><time>2026-04-18T12:39:37.999Z</time></trkpt><trkpt lat="43.28974945145352" lon="10.768088805857527"><ele>224.33333333333334</ele><time>2026-04-18T12:39:38.999Z</time></trkpt><trkpt lat="43.28958215259156" lon="10.768085356041125"><ele>227.66666666666669</ele><time>2026-04-18T12:39:39.999Z</time></trkpt><trkpt lat="43.28941677651905" lon="10.76808379279467"><ele>231.0</ele><time>2026-04-18T12:39:40.999Z</time></trkpt><trkpt lat="43.28924998454047" lon="10.768082000799462"><ele>231.0</ele><time>2026-04-18T12:39:41.999Z</time></trkpt><trkpt lat="43.28909269474702" lon="10.768081133009568"><ele>231.0</ele><time>2026-04-18T12:39:42.999Z</time></trkpt><trkpt lat="43.28893636897609" lon="10.768085570152081"><ele>231.0</ele><time>2026-04-18T12:39:43.999Z</time></trkpt><trkpt lat="43.28879532312496" lon="10.768092016476132"><ele>232.5</ele><time>2026-04-18T12:39:44.999Z</time></trkpt><trkpt lat="43.28867200828665" lon="10.768071883577505"><ele>234.0</ele><time>2026-04-18T12:39:45.999Z</time></trkpt><trkpt lat="43.288547886875634" lon="10.767996329824891"><ele>235.5</ele><time>2026-04-18T12:39:46.999Z</time></trkpt><trkpt lat="43.28843116984529" lon="10.76787604373008"><ele>237.0</ele><time>2026-04-18T12:39:47.999Z</time></trkpt><trkpt lat="43.2883226205154" lon="10.767728556148713"><ele>241.33333333333331</ele><time>2026-04-18T12:39:48.999Z</time></trkpt><trkpt lat="43.28821895481459" lon="10.767564616652027"><ele>245.66666666666666</ele><time>2026-04-18T12:39:49.999Z</time></trkpt><trkpt lat="43.28813063866683" lon="10.767386324570102"><ele>250.0</ele><time>2026-04-18T12:39:50.999Z</time></trkpt><trkpt lat="43.28806728613029" lon="10.767196004482622"><ele>250.0</ele><time>2026-04-18T12:39:51.999Z</time></trkpt><trkpt lat="43.28802906489962" lon="10.766994141402838"><ele>250.0</ele><time>2026-04-18T12:39:52.999Z</time></trkpt><trkpt lat="43.28800058528604" lon="10.766781226237939"><ele>250.0</ele><time>2026-04-18T12:39:53.999Z</time></trkpt><trkpt lat="43.28793467914411" lon="10.766578720577916"><ele>255.0</ele><time>2026-04-18T12:39:54.999Z</time></trkpt><trkpt lat="43.28783081777329" lon="10.766399223490236"><ele>260.0</ele><time>2026-04-18T12:39:55.999Z</time></trkpt><trkpt lat="43.287700345727075" lon="10.766237886289774"><ele>265.0</ele><time>2026-04-18T12:39:57Z</time></trkpt><trkpt lat="43.287550510978306" lon="10.76610509562835"><ele>268.0</ele><time>2026-04-18T12:39:58Z</time></trkpt><trkpt lat="43.287387239739395" lon="10.765986072088923"><ele>271.0</ele><time>2026-04-18T12:39:59Z</time></trkpt><trkpt lat="43.287228729407204" lon="10.76587123683846"><ele>274.0</ele><time>2026-04-18T12:40:00Z</time></trkpt><trkpt lat="43.2870935514751" lon="10.765780279588878"><ele>275.25</ele><time>2026-04-18T12:40:01Z</time></trkpt><trkpt lat="43.286971331950355" lon="10.765704210155523"><ele>276.5</ele><time>2026-04-18T12:40:02Z</time></trkpt><trkpt lat="43.28683771935613" lon="10.765655930268407"><ele>277.75</ele><time>2026-04-18T12:40:03Z</time></trkpt><trkpt lat="43.28668826135389" lon="10.765628015895476"><ele>279.0</ele><time>2026-04-18T12:40:04Z</time></trkpt><trkpt lat="43.28652413108616" lon="10.76560046509384"><ele>280.0</ele><time>2026-04-18T12:40:05Z</time></trkpt><trkpt lat="43.28636184675139" lon="10.765567410492892"><ele>281.0</ele><time>2026-04-18T12:40:06Z</time></trkpt><trkpt lat="43.28618256320949" lon="10.765554631742688"><ele>282.0</ele><time>2026-04-18T12:40:07Z</time></trkpt><trkpt lat="43.286010585598625" lon="10.76557199979269"><ele>282.0</ele><time>2026-04-18T12:40:08Z</time></trkpt><trkpt lat="43.28585179283341" lon="10.765599132700649"><ele>282.0</ele><time>2026-04-18T12:40:09Z</time></trkpt><trkpt lat="43.28568393509607" lon="10.765603597425669"><ele>282.0</ele><time>2026-04-18T12:40:10Z</time></trkpt><trkpt lat="43.28550765535894" lon="10.76556611938495"><ele>282.3333333333333</ele><time>2026-04-18T12:40:11Z</time></trkpt><trkpt lat="43.28533138531419" lon="10.765515733595755"><ele>282.66666666666663</ele><time>2026-04-18T12:40:12Z</time></trkpt><trkpt lat="43.28515402519899" lon="10.765461304643766"><ele>283.0</ele><time>2026-04-18T12:40:13Z</time></trkpt><trkpt lat="43.284971955371745" lon="10.765404557559638"><ele>283.0</ele><time>2026-04-18T12:40:14Z</time></trkpt><trkpt lat="43.28478740065494" lon="10.765347491145324"><ele>283.0</ele><time>2026-04-18T12:40:15Z</time></trkpt><trkpt lat="43.284618057580275" lon="10.765294641102198"><ele>283.0</ele><time>2026-04-18T12:40:16Z</time></trkpt><trkpt lat="43.28445176887793" lon="10.765233881394368"><ele>290.3333333333333</ele><time>2026-04-18T12:40:17Z</time></trkpt><trkpt lat="43.28430042638707" lon="10.765181116638596"><ele>297.6666666666667</ele><time>2026-04-18T12:40:18Z</time></trkpt><trkpt lat="43.284151445914304" lon="10.765120898092635"><ele>305.0</ele><time>2026-04-18T12:40:19Z</time></trkpt><trkpt lat="43.28399834296977" lon="10.765088861939788"><ele>306.6666666666667</ele><time>2026-04-18T12:40:20Z</time></trkpt><trkpt lat="43.283835518379334" lon="10.765098170605189"><ele>308.3333333333333</ele><time>2026-04-18T12:40:21Z</time></trkpt><trkpt lat="43.28367813801038" lon="10.765133630595573"><ele>310.0</ele><time>2026-04-18T12:40:22Z</time></trkpt><trkpt lat="43.283548408471944" lon="10.765151676296862"><ele>310.0</ele><time>2026-04-18T12:40:23Z</time></trkpt><trkpt lat="43.283449929131855" lon="10.765166444470568"><ele>310.0</ele><time>2026-04-18T12:40:24Z</time></trkpt><trkpt lat="43.28336192879708" lon="10.765172942281959"><ele>310.0</ele><time>2026-04-18T12:40:25Z</time></trkpt><trkpt lat="43.28328856841254" lon="10.765228863167595"><ele>310.0</ele><time>2026-04-18T12:40:26Z</time></trkpt><trkpt lat="43.28323312570347" lon="10.765331789590281"><ele>310.0</ele><time>2026-04-18T12:40:27Z</time></trkpt><trkpt lat="43.2832070660839" lon="10.765471872250599"><ele>309.5</ele><time>2026-04-18T12:40:28Z</time></trkpt><trkpt lat="43.283209861675644" lon="10.765640569402649"><ele>309.0</ele><time>2026-04-18T12:40:29Z</time></trkpt><trkpt lat="43.28323637327398" lon="10.765828921344998"><ele>308.5</ele><time>2026-04-18T12:40:30Z</time></trkpt><trkpt lat="43.28325194937688" lon="10.766018389118907"><ele>308.0</ele><time>2026-04-18T12:40:31Z</time></trkpt><trkpt lat="43.28327142368819" lon="10.766198960548264"><ele>310.25</ele><time>2026-04-18T12:40:32Z</time></trkpt><trkpt lat="43.28333170437834" lon="10.76637783908438"><ele>312.5</ele><time>2026-04-18T12:40:33Z</time></trkpt><trkpt lat="43.283407929338885" lon="10.766553369601708"><ele>314.75</ele><time>2026-04-18T12:40:34Z</time></trkpt><trkpt lat="43.28348023756546" lon="10.766716587181783"><ele>317.0</ele><time>2026-04-18T12:40:35Z</time></trkpt><trkpt lat="43.28353083056038" lon="10.766859761798226"><ele>317.0</ele><time>2026-04-18T12:40:36Z</time></trkpt><trkpt lat="43.28354157255526" lon="10.76700310978497"><ele>317.0</ele><time>2026-04-18T12:40:37Z</time></trkpt><trkpt lat="43.2835244893858" lon="10.767158020343052"><ele>317.0</ele><time>2026-04-18T12:40:38Z</time></trkpt><trkpt lat="43.28349580964754" lon="10.767337434653738"><ele>317.0</ele><time>2026-04-18T12:40:39Z</time></trkpt><trkpt lat="43.28347128339401" lon="10.76753363527087"><ele>316.0</ele><time>2026-04-18T12:40:40Z</time></trkpt><trkpt lat="43.28345095949357" lon="10.767752409873742"><ele>315.0</ele><time>2026-04-18T12:40:41Z</time></trkpt><trkpt lat="43.28343499741385" lon="10.767960414743065"><ele>314.0</ele><time>2026-04-18T12:40:42Z</time></trkpt><trkpt lat="43.283398067002864" lon="10.76814029454277"><ele>313.0</ele><time>2026-04-18T12:40:43Z</time></trkpt><trkpt lat="43.28332606134594" lon="10.768268002786655"><ele>313.0</ele><time>2026-04-18T12:40:44Z</time></trkpt><trkpt lat="43.28321940638018" lon="10.768385554603169"><ele>313.0</ele><time>2026-04-18T12:40:45Z</time></trkpt><trkpt lat="43.28310127325464" lon="10.768487189315922"><ele>313.0</ele><time>2026-04-18T12:40:46Z</time></trkpt><trkpt lat="43.2829618312631" lon="10.768550916621155"><ele>313.0</ele><time>2026-04-18T12:40:47Z</time></trkpt><trkpt lat="43.28281576118832" lon="10.768585095350259"><ele>314.3333333333333</ele><time>2026-04-18T12:40:48Z</time></trkpt><trkpt lat="43.28266717657045" lon="10.768602021666746"><ele>315.6666666666667</ele><time>2026-04-18T12:40:49Z</time></trkpt><trkpt lat="43.282514259466076" lon="10.768640759492138"><ele>317.0</ele><time>2026-04-18T12:40:50Z</time></trkpt><trkpt lat="43.28236370583212" lon="10.7687069612153"><ele>323.0</ele><time>2026-04-18T12:40:51Z</time></trkpt><trkpt lat="43.282230490849315" lon="10.768801836868906"><ele>329.0</ele><time>2026-04-18T12:40:52Z</time></trkpt><trkpt lat="43.28211741002983" lon="10.768941472494511"><ele>335.0</ele><time>2026-04-18T12:40:53Z</time></trkpt><trkpt lat="43.2820171631608" lon="10.769114644567068"><ele>335.0</ele><time>2026-04-18T12:40:54Z</time></trkpt><trkpt lat="43.281905208423694" lon="10.769271608378167"><ele>335.0</ele><time>2026-04-18T12:40:55Z</time></trkpt><trkpt lat="43.281795348538935" lon="10.769398066907314"><ele>335.0</ele><time>2026-04-18T12:40:56Z</time></trkpt><trkpt lat="43.28168814955865" lon="10.769486328599966"><ele>335.0</ele><time>2026-04-18T12:40:57Z</time></trkpt><trkpt lat="43.281560612028315" lon="10.769537777507919"><ele>335.5</ele><time>2026-04-18T12:40:58Z</time></trkpt><trkpt lat="43.28143403264342" lon="10.769554364988295"><ele>336.0</ele><time>2026-04-18T12:40:59Z</time></trkpt><trkpt lat="43.281296753471835" lon="10.76956839625883"><ele>336.5</ele><time>2026-04-18T12:41:00Z</time></trkpt><trkpt lat="43.28115215857682" lon="10.769613682134587"><ele>337.0</ele><time>2026-04-18T12:41:01Z</time></trkpt><trkpt lat="43.28100331486618" lon="10.769674119262946"><ele>337.0</ele><time>2026-04-18T12:41:02Z</time></trkpt><trkpt lat="43.280869948763296" lon="10.769767159757283"><ele>337.0</ele><time>2026-04-18T12:41:03Z</time></trkpt><trkpt lat="43.28076729906772" lon="10.769896477496145"><ele>337.0</ele><time>2026-04-18T12:41:04Z</time></trkpt><trkpt lat="43.28070132724096" lon="10.770057902565771"><ele>337.0</ele><time>2026-04-18T12:41:05Z</time></trkpt><trkpt lat="43.28066141880851" lon="10.770228860297468"><ele>335.75</ele><time>2026-04-18T12:41:06Z</time></trkpt><trkpt lat="43.28064809822817" lon="10.770412927942564"><ele>334.5</ele><time>2026-04-18T12:41:07Z</time></trkpt><trkpt lat="43.28065698975101" lon="10.770589615141782"><ele>333.25</ele><time>2026-04-18T12:41:08Z</time></trkpt><trkpt lat="43.28069206570038" lon="10.770773168123725"><ele>332.0</ele><time>2026-04-18T12:41:09Z</time></trkpt><trkpt lat="43.280716111228344" lon="10.770974254217924"><ele>332.5</ele><time>2026-04-18T12:41:10Z</time></trkpt><trkpt lat="43.28072227203922" lon="10.771187255615533"><ele>333.0</ele><time>2026-04-18T12:41:11Z</time></trkpt><trkpt lat="43.280719901728524" lon="10.771382042991362"><ele>333.5</ele><time>2026-04-18T12:41:12Z</time></trkpt><trkpt lat="43.28072880821076" lon="10.77155889645187"><ele>334.0</ele><time>2026-04-18T12:41:13Z</time></trkpt><trkpt lat="43.28076601061493" lon="10.77171299071943"><ele>337.75</ele><time>2026-04-18T12:41:14Z</time></trkpt><trkpt lat="43.28084955487124" lon="10.771861449237543"><ele>341.5</ele><time>2026-04-18T12:41:15Z</time></trkpt><trkpt lat="43.28097087504244" lon="10.771997531869461"><ele>345.25</ele><time>2026-04-18T12:41:16Z</time></trkpt><trkpt lat="43.28110124719397" lon="10.772113883279967"><ele>349.0</ele><time>2026-04-18T12:41:17Z</time></trkpt><trkpt lat="43.28121854548584" lon="10.77222947435723"><ele>349.0</ele><time>2026-04-18T12:41:18Z</time></trkpt><trkpt lat="43.28129857151952" lon="10.77234726665505"><ele>349.0</ele><time>2026-04-18T12:41:18.999Z</time></trkpt><trkpt lat="43.281362786090725" lon="10.772512801591846"><ele>349.0</ele><time>2026-04-18T12:41:19.999Z</time></trkpt><trkpt lat="43.28140256982031" lon="10.772685281140928"><ele>349.0</ele><time>2026-04-18T12:41:20.999Z</time></trkpt><trkpt lat="43.28142341735206" lon="10.772847664324434"><ele>352.75</ele><time>2026-04-18T12:41:21.999Z</time></trkpt><trkpt lat="43.28143006891306" lon="10.773001073020488"><ele>356.5</ele><time>2026-04-18T12:41:22.999Z</time></trkpt><trkpt lat="43.281402748971075" lon="10.77315071948308"><ele>360.25</ele><time>2026-04-18T12:41:23.999Z</time></trkpt><trkpt lat="43.281357096983655" lon="10.77329514000599"><ele>364.0</ele><time>2026-04-18T12:41:24.999Z</time></trkpt><trkpt lat="43.28133834066262" lon="10.773450677096507"><ele>366.5</ele><time>2026-04-18T12:41:25.999Z</time></trkpt><trkpt lat="43.28136724718036" lon="10.773615100012716"><ele>369.0</ele><time>2026-04-18T12:41:26.999Z</time></trkpt><trkpt lat="43.28144239708307" lon="10.773786573582917"><ele>371.5</ele><time>2026-04-18T12:41:27.999Z</time></trkpt><trkpt lat="43.281508177399544" lon="10.773949696755402"><ele>374.0</ele><time>2026-04-18T12:41:28.999Z</time></trkpt><trkpt lat="43.28152742243074" lon="10.774092682044294"><ele>373.0</ele><time>2026-04-18T12:41:29.999Z</time></trkpt><trkpt lat="43.28150219095996" lon="10.774256672269495"><ele>372.0</ele><time>2026-04-18T12:41:30.999Z</time></trkpt><trkpt lat="43.28145005609127" lon="10.774431468114377"><ele>371.0</ele><time>2026-04-18T12:41:31.999Z</time></trkpt><trkpt lat="43.2813883688787" lon="10.774625801983097"><ele>370.0</ele><time>2026-04-18T12:41:32.999Z</time></trkpt><trkpt lat="43.281341416389154" lon="10.774837274104245"><ele>370.0</ele><time>2026-04-18T12:41:33.999Z</time></trkpt><trkpt lat="43.28128117140819" lon="10.775045078417529"><ele>370.0</ele><time>2026-04-18T12:41:34.999Z</time></trkpt><trkpt lat="43.28123662464699" lon="10.775231609181139"><ele>370.0</ele><time>2026-04-18T12:41:35.999Z</time></trkpt><trkpt lat="43.28119840118343" lon="10.775415449593229"><ele>370.0</ele><time>2026-04-18T12:41:36.999Z</time></trkpt><trkpt lat="43.28115411584405" lon="10.775591335784874"><ele>370.0</ele><time>2026-04-18T12:41:37.999Z</time></trkpt><trkpt lat="43.281105457061926" lon="10.775764084791854"><ele>370.0</ele><time>2026-04-18T12:41:38.999Z</time></trkpt><trkpt lat="43.28107263721301" lon="10.775879177248072"><ele>370.0</ele><time>2026-04-18T12:41:39.999Z</time></trkpt><trkpt lat="43.28108513206904" lon="10.776028794940077"><ele>370.0</ele><time>2026-04-18T12:41:41.999Z</time></trkpt><trkpt lat="43.281084945380115" lon="10.776153646734468"><ele>370.0</ele><time>2026-04-18T12:41:42.999Z</time></trkpt><trkpt lat="43.28107484963373" lon="10.776301298675188"><ele>371.25</ele><time>2026-04-18T12:41:43.999Z</time></trkpt><trkpt lat="43.28105768963795" lon="10.776464103006694"><ele>372.5</ele><time>2026-04-18T12:41:44.999Z</time></trkpt><trkpt lat="43.28104640231526" lon="10.776630182218312"><ele>373.75</ele><time>2026-04-18T12:41:45.999Z</time></trkpt><trkpt lat="43.28103690894507" lon="10.776801789632009"><ele>375.0</ele><time>2026-04-18T12:41:46.999Z</time></trkpt><trkpt lat="43.281016187710215" lon="10.776961618594418"><ele>377.25</ele><time>2026-04-18T12:41:47.999Z</time></trkpt><trkpt lat="43.28101620823617" lon="10.777121804497817"><ele>379.5</ele><time>2026-04-18T12:41:48.999Z</time></trkpt><trkpt lat="43.28101335693716" lon="10.777289863675513"><ele>381.75</ele><time>2026-04-18T12:41:49.999Z</time></trkpt><trkpt lat="43.281022466522785" lon="10.7774500080505"><ele>384.0</ele><time>2026-04-18T12:41:50.999Z</time></trkpt><trkpt lat="43.28104321047315" lon="10.777607397503969"><ele>386.25</ele><time>2026-04-18T12:41:51.999Z</time></trkpt><trkpt lat="43.281071353554935" lon="10.777764579742326"><ele>388.5</ele><time>2026-04-18T12:41:52.999Z</time></trkpt><trkpt lat="43.281098784673226" lon="10.777912558750314"><ele>390.75</ele><time>2026-04-18T12:41:53.999Z</time></trkpt><trkpt lat="43.28112962690397" lon="10.778072412818727"><ele>393.0</ele><time>2026-04-18T12:41:54.999Z</time></trkpt><trkpt lat="43.281153769204344" lon="10.778237284345112"><ele>393.0</ele><time>2026-04-18T12:41:55.999Z</time></trkpt><trkpt lat="43.281184577224" lon="10.778409821352707"><ele>393.0</ele><time>2026-04-18T12:41:56.999Z</time></trkpt><trkpt lat="43.28121216496982" lon="10.778582605995576"><ele>393.0</ele><time>2026-04-18T12:41:57.999Z</time></trkpt><trkpt lat="43.28124152929179" lon="10.778757812497844"><ele>393.0</ele><time>2026-04-18T12:41:58.999Z</time></trkpt><trkpt lat="43.28126478840952" lon="10.77893369233538"><ele>392.5</ele><time>2026-04-18T12:41:59.999Z</time></trkpt><trkpt lat="43.281269971480675" lon="10.779113188497163"><ele>392.0</ele><time>2026-04-18T12:42:00.999Z</time></trkpt><trkpt lat="43.28127641839203" lon="10.779292626726408"><ele>391.5</ele><time>2026-04-18T12:42:01.999Z</time></trkpt><trkpt lat="43.28129384130223" lon="10.77946852390887"><ele>391.0</ele><time>2026-04-18T12:42:02.999Z</time></trkpt><trkpt lat="43.28131811970194" lon="10.77965130792906"><ele>391.0</ele><time>2026-04-18T12:42:03.999Z</time></trkpt><trkpt lat="43.28135501009267" lon="10.779818338416469"><ele>391.0</ele><time>2026-04-18T12:42:04.999Z</time></trkpt><trkpt lat="43.28139698175966" lon="10.780002493315381"><ele>391.0</ele><time>2026-04-18T12:42:05.999Z</time></trkpt><trkpt lat="43.2814618686891" lon="10.780151559160236"><ele>391.0</ele><time>2026-04-18T12:42:06.999Z</time></trkpt><trkpt lat="43.281526782302784" lon="10.780283068432338"><ele>391.8</ele><time>2026-04-18T12:42:07.999Z</time></trkpt><trkpt lat="43.28159828495861" lon="10.780391215023323"><ele>392.6</ele><time>2026-04-18T12:42:08.999Z</time></trkpt><trkpt lat="43.2816544512274" lon="10.78050283488566"><ele>393.4</ele><time>2026-04-18T12:42:09.999Z</time></trkpt><trkpt lat="43.281707082881475" lon="10.780641263732141"><ele>394.2</ele><time>2026-04-18T12:42:10.999Z</time></trkpt><trkpt lat="43.28174388606327" lon="10.780804920343737"><ele>395.0</ele><time>2026-04-18T12:42:11.999Z</time></trkpt><trkpt lat="43.28177652792302" lon="10.780974231607848"><ele>394.5</ele><time>2026-04-18T12:42:12.999Z</time></trkpt><trkpt lat="43.281824789944004" lon="10.781151072462073"><ele>394.0</ele><time>2026-04-18T12:42:13.999Z</time></trkpt><trkpt lat="43.28189014858126" lon="10.781312991511971"><ele>393.5</ele><time>2026-04-18T12:42:14.999Z</time></trkpt><trkpt lat="43.28192181111815" lon="10.781441607803773"><ele>393.0</ele><time>2026-04-18T12:42:15.999Z</time></trkpt><trkpt lat="43.28196215968636" lon="10.78160092266257"><ele>393.0</ele><time>2026-04-18T12:42:16.999Z</time></trkpt><trkpt lat="43.28203086538949" lon="10.781748130480068"><ele>393.0</ele><time>2026-04-18T12:42:17.999Z</time></trkpt><trkpt lat="43.28207943964765" lon="10.781898311411982"><ele>393.0</ele><time>2026-04-18T12:42:18.999Z</time></trkpt><trkpt lat="43.28215146146231" lon="10.782005365077364"><ele>393.0</ele><time>2026-04-18T12:42:19.999Z</time></trkpt><trkpt lat="43.28221411519347" lon="10.782101897977695"><ele>393.0</ele><time>2026-04-18T12:42:20.999Z</time></trkpt><trkpt lat="43.282270431602804" lon="10.782182514683655"><ele>393.0</ele><time>2026-04-18T12:42:21.999Z</time></trkpt><trkpt lat="43.28232674439343" lon="10.782269202517647"><ele>393.0</ele><time>2026-04-18T12:42:22.999Z</time></trkpt><trkpt lat="43.282378165208854" lon="10.78236017592075"><ele>393.0</ele><time>2026-04-18T12:42:23.999Z</time></trkpt><trkpt lat="43.2824196638659" lon="10.782446977791704"><ele>393.0</ele><time>2026-04-18T12:42:24.999Z</time></trkpt><trkpt lat="43.28247397121805" lon="10.782544034178134"><ele>393.0</ele><time>2026-04-18T12:42:28Z</time></trkpt><trkpt lat="43.28254670568748" lon="10.782647410244664"><ele>393.0</ele><time>2026-04-18T12:42:30Z</time></trkpt><trkpt lat="43.28259646440993" lon="10.782714199193956"><ele>395.4</ele><time>2026-04-18T12:42:32Z</time></trkpt><trkpt lat="43.28256207750047" lon="10.782635164151685"><ele>397.79999999999995</ele><time>2026-04-18T12:42:39Z</time></trkpt><trkpt lat="43.28244807353749" lon="10.782559519040253"><ele>400.2</ele><time>2026-04-18T12:42:41Z</time></trkpt><trkpt lat="43.282374224124325" lon="10.782580070829857"><ele>402.6</ele><time>2026-04-18T12:42:42Z</time></trkpt><trkpt lat="43.28237337861257" lon="10.782394625149879"><ele>405.0</ele><time>2026-04-18T12:42:43Z</time></trkpt><trkpt lat="43.282375406844885" lon="10.782308010791251"><ele>405.0</ele><time>2026-04-18T12:42:45Z</time></trkpt><trkpt lat="43.2824567927103" lon="10.78229842148574"><ele>405.0</ele><time>2026-04-18T12:42:48Z</time></trkpt><trkpt lat="43.282445464758986" lon="10.782476145698629"><ele>405.0</ele><time>2026-04-18T12:42:51Z</time></trkpt><trkpt lat="43.28253133898923" lon="10.782615624378732"><ele>405.0</ele><time>2026-04-18T12:42:53Z</time></trkpt><trkpt lat="43.28259517419594" lon="10.782678397027908"><ele>405.0</ele><time>2026-04-18T12:42:54Z</time></trkpt><trkpt lat="43.28267932776695" lon="10.78272300646217"><ele>405.0</ele><time>2026-04-18T12:42:55Z</time></trkpt><trkpt lat="43.28274507809702" lon="10.782743176742606"><ele>405.0</ele><time>2026-04-18T12:42:56Z</time></trkpt><trkpt lat="43.28280840182687" lon="10.782754466126129"><ele>405.0</ele><time>2026-04-18T12:42:57Z</time></trkpt><trkpt lat="43.28272319888321" lon="10.782738127700608"><ele>405.0</ele><time>2026-04-18T12:43:18Z</time></trkpt><trkpt lat="43.28261210563477" lon="10.782699552118725"><ele>405.0</ele><time>2026-04-18T12:43:20Z</time></trkpt><trkpt lat="43.282544584020975" lon="10.782671892755799"><ele>405.0</ele><time>2026-04-18T12:43:21Z</time></trkpt><trkpt lat="43.28253445418486" lon="10.782450544711862"><ele>405.0</ele><time>2026-04-18T12:43:22Z</time></trkpt><trkpt lat="43.28248821402351" lon="10.782367835756451"><ele>405.0</ele><time>2026-04-18T12:43:24Z</time></trkpt><trkpt lat="43.28244453153884" lon="10.782296869078136"><ele>405.0</ele><time>2026-04-18T12:43:26.999Z</time></trkpt><trkpt lat="43.28237991888623" lon="10.782265588018205"><ele>405.0</ele><time>2026-04-18T12:43:46Z</time></trkpt><trkpt lat="43.282311015836584" lon="10.782144301313554"><ele>405.0</ele><time>2026-04-18T12:43:48Z</time></trkpt><trkpt lat="43.28226336597677" lon="10.782068174984712"><ele>405.0</ele><time>2026-04-18T12:43:49Z</time></trkpt><trkpt lat="43.28220927155442" lon="10.781980609471184"><ele>402.6</ele><time>2026-04-18T12:43:50Z</time></trkpt><trkpt lat="43.28215761877612" lon="10.781892152456852"><ele>400.2</ele><time>2026-04-18T12:43:51Z</time></trkpt><trkpt lat="43.28211674224763" lon="10.781814947033165"><ele>397.79999999999995</ele><time>2026-04-18T12:43:52Z</time></trkpt><trkpt lat="43.28205208581283" lon="10.781655289166455"><ele>395.4</ele><time>2026-04-18T12:43:54Z</time></trkpt><trkpt lat="43.28199302299274" lon="10.781471388513648"><ele>393.0</ele><time>2026-04-18T12:43:56Z</time></trkpt><trkpt lat="43.28196643732335" lon="10.78138673081905"><ele>393.0</ele><time>2026-04-18T12:43:57Z</time></trkpt><trkpt lat="43.281924770027864" lon="10.781248609998048"><ele>393.0</ele><time>2026-04-18T12:43:59Z</time></trkpt><trkpt lat="43.28189929083021" lon="10.781164150285212"><ele>393.0</ele><time>2026-04-18T12:44:01Z</time></trkpt><trkpt lat="43.28197746932394" lon="10.781200178773986"><ele>393.0</ele><time>2026-04-18T12:44:06Z</time></trkpt><trkpt lat="43.28202833251042" lon="10.7813268806139"><ele>393.0</ele><time>2026-04-18T12:44:08Z</time></trkpt><trkpt lat="43.28213256863436" lon="10.781426314403193"><ele>393.0</ele><time>2026-04-18T12:44:10Z</time></trkpt><trkpt lat="43.282193386751594" lon="10.781486082573394"><ele>393.0</ele><time>2026-04-18T12:44:11Z</time></trkpt><trkpt lat="43.28228839411701" lon="10.78147431369454"><ele>393.0</ele><time>2026-04-18T12:44:13Z</time></trkpt><trkpt lat="43.282356138539235" lon="10.78140298681254"><ele>393.0</ele><time>2026-04-18T12:44:15Z</time></trkpt><trkpt lat="43.282388066855276" lon="10.781317120490861"><ele>393.0</ele><time>2026-04-18T12:44:16Z</time></trkpt><trkpt lat="43.28241541547663" lon="10.781225506667012"><ele>393.0</ele><time>2026-04-18T12:44:17Z</time></trkpt><trkpt lat="43.28243802763291" lon="10.78113668213197"><ele>394.0</ele><time>2026-04-18T12:44:18Z</time></trkpt><trkpt lat="43.282463574471414" lon="10.781050114264358"><ele>395.0</ele><time>2026-04-18T12:44:19Z</time></trkpt><trkpt lat="43.28251055937601" lon="10.780946004515812"><ele>396.0</ele><time>2026-04-18T12:44:21Z</time></trkpt><trkpt lat="43.282577453641956" lon="10.7808280051888"><ele>397.0</ele><time>2026-04-18T12:44:23Z</time></trkpt><trkpt lat="43.28270064438796" lon="10.780768917194882"><ele>398.0</ele><time>2026-04-18T12:44:25Z</time></trkpt><trkpt lat="43.282769800002974" lon="10.780747185177953"><ele>396.0</ele><time>2026-04-18T12:44:26Z</time></trkpt><trkpt lat="43.2828552135105" lon="10.780738384756791"><ele>394.0</ele><time>2026-04-18T12:44:27Z</time></trkpt><trkpt lat="43.28294279257841" lon="10.780724171674127"><ele>392.0</ele><time>2026-04-18T12:44:28Z</time></trkpt><trkpt lat="43.28303445945434" lon="10.780752190948098"><ele>390.0</ele><time>2026-04-18T12:44:29Z</time></trkpt><trkpt lat="43.283127805639836" lon="10.780773647967143"><ele>388.0</ele><time>2026-04-18T12:44:30Z</time></trkpt><trkpt lat="43.28324281450368" lon="10.780775981587473"><ele>386.00000000000006</ele><time>2026-04-18T12:44:31Z</time></trkpt><trkpt lat="43.2833464213584" lon="10.78076589069879"><ele>384.0</ele><time>2026-04-18T12:44:32Z</time></trkpt><trkpt lat="43.283437042844156" lon="10.780725719377259"><ele>382.0</ele><time>2026-04-18T12:44:33Z</time></trkpt><trkpt lat="43.2835198488766" lon="10.780719936739425"><ele>380.0</ele><time>2026-04-18T12:44:34.001Z</time></trkpt><trkpt lat="43.28359888107582" lon="10.780734038499642"><ele>378.0</ele><time>2026-04-18T12:44:35.001Z</time></trkpt><trkpt lat="43.28366996163919" lon="10.78073319709757"><ele>376.0</ele><time>2026-04-18T12:44:36.001Z</time></trkpt><trkpt lat="43.283756691582134" lon="10.78076040437006"><ele>376.0</ele><time>2026-04-18T12:44:37.001Z</time></trkpt><trkpt lat="43.28384800111931" lon="10.780814971057046"><ele>376.0</ele><time>2026-04-18T12:44:38.001Z</time></trkpt><trkpt lat="43.28392979559295" lon="10.780844323463356"><ele>376.0</ele><time>2026-04-18T12:44:39.001Z</time></trkpt><trkpt lat="43.284021969922335" lon="10.780851445620248"><ele>376.0</ele><time>2026-04-18T12:44:40.001Z</time></trkpt><trkpt lat="43.28412554357898" lon="10.780805453268309"><ele>376.0</ele><time>2026-04-18T12:44:41.001Z</time></trkpt><trkpt lat="43.28422298810199" lon="10.780695253803515"><ele>374.20000000000005</ele><time>2026-04-18T12:44:42.001Z</time></trkpt><trkpt lat="43.284285765425054" lon="10.780611446159721"><ele>372.40000000000003</ele><time>2026-04-18T12:44:43.001Z</time></trkpt><trkpt lat="43.28436067244053" lon="10.780536761741327"><ele>370.6</ele><time>2026-04-18T12:44:44.001Z</time></trkpt><trkpt lat="43.284423954527014" lon="10.780484013825916"><ele>368.8</ele><time>2026-04-18T12:44:45.001Z</time></trkpt><trkpt lat="43.28453739599693" lon="10.780454974791223"><ele>367.0</ele><time>2026-04-18T12:44:47.001Z</time></trkpt><trkpt lat="43.284639149219586" lon="10.780497437474216"><ele>367.0</ele><time>2026-04-18T12:44:49.001Z</time></trkpt><trkpt lat="43.284702832744834" lon="10.780564478777537"><ele>367.0</ele><time>2026-04-18T12:44:50.001Z</time></trkpt><trkpt lat="43.28474204989294" lon="10.780650861697834"><ele>367.0</ele><time>2026-04-18T12:44:51.001Z</time></trkpt><trkpt lat="43.28479620767015" lon="10.78076639196364"><ele>367.0</ele><time>2026-04-18T12:44:52.001Z</time></trkpt><trkpt lat="43.284840305421554" lon="10.780876324356313"><ele>367.0</ele><time>2026-04-18T12:44:53.001Z</time></trkpt><trkpt lat="43.28486271684268" lon="10.78099253747602"><ele>367.0</ele><time>2026-04-18T12:44:54.001Z</time></trkpt><trkpt lat="43.28490351117334" lon="10.781107147060672"><ele>367.16666666666663</ele><time>2026-04-18T12:44:55.001Z</time></trkpt><trkpt lat="43.284945099699854" lon="10.78121908542881"><ele>367.3333333333333</ele><time>2026-04-18T12:44:56.001Z</time></trkpt><trkpt lat="43.284997583357786" lon="10.781303918748653"><ele>367.5</ele><time>2026-04-18T12:44:57.001Z</time></trkpt><trkpt lat="43.285019127810216" lon="10.781387884831172"><ele>367.6666666666667</ele><time>2026-04-18T12:44:58.001Z</time></trkpt><trkpt lat="43.28506986464412" lon="10.781451577913527"><ele>367.83333333333337</ele><time>2026-04-18T12:44:59.001Z</time></trkpt><trkpt lat="43.28515267582185" lon="10.781479626784058"><ele>368.0</ele><time>2026-04-18T12:45:00.001Z</time></trkpt><trkpt lat="43.28525505404131" lon="10.781406470415424"><ele>368.0</ele><time>2026-04-18T12:45:01.001Z</time></trkpt><trkpt lat="43.285322569417744" lon="10.781291857973857"><ele>368.0</ele><time>2026-04-18T12:45:02.001Z</time></trkpt><trkpt lat="43.28540224205841" lon="10.781205511185968"><ele>368.0</ele><time>2026-04-18T12:45:03.001Z</time></trkpt><trkpt lat="43.285505359371044" lon="10.781092615225615"><ele>368.0</ele><time>2026-04-18T12:45:04.001Z</time></trkpt><trkpt lat="43.285593892231766" lon="10.780984383669617"><ele>365.0</ele><time>2026-04-18T12:45:05.001Z</time></trkpt><trkpt lat="43.28568239304213" lon="10.78085268396454"><ele>362.0</ele><time>2026-04-18T12:45:06.001Z</time></trkpt><trkpt lat="43.285798282426875" lon="10.780772599638992"><ele>359.0</ele><time>2026-04-18T12:45:07.001Z</time></trkpt><trkpt lat="43.285889909801" lon="10.780706104731136"><ele>356.0</ele><time>2026-04-18T12:45:08.001Z</time></trkpt><trkpt lat="43.28599979453765" lon="10.78062268538307"><ele>356.0</ele><time>2026-04-18T12:45:09.001Z</time></trkpt><trkpt lat="43.286102422617326" lon="10.780575669873125"><ele>356.0</ele><time>2026-04-18T12:45:10.001Z</time></trkpt><trkpt lat="43.286189413016515" lon="10.780517546462683"><ele>356.0</ele><time>2026-04-18T12:45:11.001Z</time></trkpt><trkpt lat="43.2862675769522" lon="10.78045416578528"><ele>356.0</ele><time>2026-04-18T12:45:12.001Z</time></trkpt><trkpt lat="43.286341314789965" lon="10.780395584307891"><ele>356.0</ele><time>2026-04-18T12:45:13.001Z</time></trkpt><trkpt lat="43.2864290923882" lon="10.780339142338864"><ele>356.5</ele><time>2026-04-18T12:45:14.001Z</time></trkpt><trkpt lat="43.2864985865401" lon="10.780255169398481"><ele>357.0</ele><time>2026-04-18T12:45:15.001Z</time></trkpt><trkpt lat="43.28655691066656" lon="10.780111702381246"><ele>357.5</ele><time>2026-04-18T12:45:16.001Z</time></trkpt><trkpt lat="43.28661423758755" lon="10.779966849998752"><ele>358.0</ele><time>2026-04-18T12:45:17.001Z</time></trkpt><trkpt lat="43.28666781126606" lon="10.779823031787373"><ele>354.2</ele><time>2026-04-18T12:45:18.001Z</time></trkpt><trkpt lat="43.2867161435865" lon="10.77969328405712"><ele>350.4</ele><time>2026-04-18T12:45:19.001Z</time></trkpt><trkpt lat="43.28676373402499" lon="10.779574837692563"><ele>346.59999999999997</ele><time>2026-04-18T12:45:20.001Z</time></trkpt><trkpt lat="43.28680688364277" lon="10.779479381215248"><ele>342.79999999999995</ele><time>2026-04-18T12:45:21.001Z</time></trkpt><trkpt lat="43.28685063638567" lon="10.779384461667222"><ele>339.0</ele><time>2026-04-18T12:45:22.001Z</time></trkpt><trkpt lat="43.28689499771215" lon="10.77928822651256"><ele>337.3333333333333</ele><time>2026-04-18T12:45:23.001Z</time></trkpt><trkpt lat="43.28693400033422" lon="10.779202445641651"><ele>335.6666666666667</ele><time>2026-04-18T12:45:24.001Z</time></trkpt><trkpt lat="43.286976055429" lon="10.779105619590919"><ele>334.0</ele><time>2026-04-18T12:45:25.001Z</time></trkpt><trkpt lat="43.287016757718376" lon="10.779007497731383"><ele>332.33333333333337</ele><time>2026-04-18T12:45:26.001Z</time></trkpt><trkpt lat="43.28705308032682" lon="10.778918112082039"><ele>330.6666666666667</ele><time>2026-04-18T12:45:27.001Z</time></trkpt><trkpt lat="43.28707584149682" lon="10.778811305778682"><ele>329.0</ele><time>2026-04-18T12:45:28.001Z</time></trkpt><trkpt lat="43.28711122343418" lon="10.778720102118818"><ele>329.0</ele><time>2026-04-18T12:45:29.001Z</time></trkpt><trkpt lat="43.28713854981701" lon="10.778621604579158"><ele>329.0</ele><time>2026-04-18T12:45:30.001Z</time></trkpt><trkpt lat="43.28717224376303" lon="10.77851427492106"><ele>329.0</ele><time>2026-04-18T12:45:30.999Z</time></trkpt><trkpt lat="43.28719593132736" lon="10.778397912523019"><ele>329.0</ele><time>2026-04-18T12:45:31.999Z</time></trkpt><trkpt lat="43.287216558981214" lon="10.778278776111618"><ele>329.0</ele><time>2026-04-18T12:45:32.999Z</time></trkpt><trkpt lat="43.287230233581916" lon="10.778177234590864"><ele>329.0</ele><time>2026-04-18T12:45:33.999Z</time></trkpt><trkpt lat="43.28723979655298" lon="10.778062085797742"><ele>327.1666666666667</ele><time>2026-04-18T12:45:34.999Z</time></trkpt><trkpt lat="43.287247790099116" lon="10.777957835107236"><ele>325.33333333333337</ele><time>2026-04-18T12:45:35.999Z</time></trkpt><trkpt lat="43.287241842626216" lon="10.77785760904481"><ele>323.5</ele><time>2026-04-18T12:45:36.999Z</time></trkpt><trkpt lat="43.287254022520834" lon="10.777768828861548"><ele>321.6666666666667</ele><time>2026-04-18T12:45:37.999Z</time></trkpt><trkpt lat="43.2872881138008" lon="10.777695304046576"><ele>319.8333333333333</ele><time>2026-04-18T12:45:38.999Z</time></trkpt><trkpt lat="43.287335695172175" lon="10.777573390810991"><ele>318.0</ele><time>2026-04-18T12:45:40.999Z</time></trkpt><trkpt lat="43.28743472040498" lon="10.777513129387016"><ele>317.4</ele><time>2026-04-18T12:45:42.999Z</time></trkpt><trkpt lat="43.287548026533564" lon="10.77749622161195"><ele>316.8</ele><time>2026-04-18T12:45:44.999Z</time></trkpt><trkpt lat="43.287663107122164" lon="10.777536817847823"><ele>316.2</ele><time>2026-04-18T12:45:47Z</time></trkpt><trkpt lat="43.28771515542415" lon="10.777586662833096"><ele>315.6</ele><time>2026-04-18T12:45:48Z</time></trkpt><trkpt lat="43.287781293059254" lon="10.777650448668195"><ele>315.0</ele><time>2026-04-18T12:45:49Z</time></trkpt><trkpt lat="43.287855470307754" lon="10.777723033636914"><ele>315.0</ele><time>2026-04-18T12:45:50Z</time></trkpt><trkpt lat="43.28792060545546" lon="10.777788988888041"><ele>315.0</ele><time>2026-04-18T12:45:51Z</time></trkpt><trkpt lat="43.28797920044834" lon="10.777850349710855"><ele>315.0</ele><time>2026-04-18T12:45:52Z</time></trkpt><trkpt lat="43.288070449894434" lon="10.7779123976133"><ele>315.0</ele><time>2026-04-18T12:45:54Z</time></trkpt><trkpt lat="43.28820030225002" lon="10.777912785793827"><ele>315.0</ele><time>2026-04-18T12:45:56Z</time></trkpt><trkpt lat="43.28826633536973" lon="10.777915615407325"><ele>313.0</ele><time>2026-04-18T12:45:57Z</time></trkpt><trkpt lat="43.288332572897055" lon="10.777940158792225"><ele>311.0</ele><time>2026-04-18T12:45:58Z</time></trkpt><trkpt lat="43.28840116470281" lon="10.777987866545196"><ele>309.0</ele><time>2026-04-18T12:45:59Z</time></trkpt><trkpt lat="43.28850360506434" lon="10.77805669554832"><ele>307.0</ele><time>2026-04-18T12:46:00Z</time></trkpt><trkpt lat="43.28864514606392" lon="10.7781274978532"><ele>305.0</ele><time>2026-04-18T12:46:01Z</time></trkpt><trkpt lat="43.288799914412856" lon="10.7782154133163"><ele>302.4</ele><time>2026-04-18T12:46:02Z</time></trkpt><trkpt lat="43.28894195731169" lon="10.778275722186159"><ele>299.8</ele><time>2026-04-18T12:46:03Z</time></trkpt><trkpt lat="43.289033023290834" lon="10.778334766442367"><ele>297.2</ele><time>2026-04-18T12:46:04Z</time></trkpt><trkpt lat="43.28911672610784" lon="10.77837085757224"><ele>294.6</ele><time>2026-04-18T12:46:05Z</time></trkpt><trkpt lat="43.28917703469074" lon="10.778417318845236"><ele>292.0</ele><time>2026-04-18T12:46:06Z</time></trkpt><trkpt lat="43.289247111135076" lon="10.778475533747578"><ele>296.0</ele><time>2026-04-18T12:46:07Z</time></trkpt><trkpt lat="43.28931401667911" lon="10.778568817743638"><ele>300.0</ele><time>2026-04-18T12:46:08Z</time></trkpt><trkpt lat="43.28938712820665" lon="10.778676922049968"><ele>304.0</ele><time>2026-04-18T12:46:09Z</time></trkpt><trkpt lat="43.289453686705485" lon="10.778773254337999"><ele>308.0</ele><time>2026-04-18T12:46:10Z</time></trkpt><trkpt lat="43.289579715150516" lon="10.778829482915938"><ele>312.0</ele><time>2026-04-18T12:46:12Z</time></trkpt><trkpt lat="43.28968313168393" lon="10.778858170134587"><ele>311.2</ele><time>2026-04-18T12:46:13Z</time></trkpt><trkpt lat="43.2898031310587" lon="10.778841630541097"><ele>310.4</ele><time>2026-04-18T12:46:14Z</time></trkpt><trkpt lat="43.28990165999418" lon="10.778825123106829"><ele>309.6</ele><time>2026-04-18T12:46:15Z</time></trkpt><trkpt lat="43.28999543010102" lon="10.778819679131358"><ele>308.8</ele><time>2026-04-18T12:46:16Z</time></trkpt><trkpt lat="43.29008046341734" lon="10.7788364142954"><ele>308.0</ele><time>2026-04-18T12:46:17Z</time></trkpt><trkpt lat="43.29015470961945" lon="10.778889680276993"><ele>308.0</ele><time>2026-04-18T12:46:18Z</time></trkpt><trkpt lat="43.29021967635025" lon="10.778959133788842"><ele>308.0</ele><time>2026-04-18T12:46:19Z</time></trkpt><trkpt lat="43.29026403058586" lon="10.779044240208103"><ele>308.0</ele><time>2026-04-18T12:46:20Z</time></trkpt><trkpt lat="43.29033904117871" lon="10.779154948162128"><ele>308.0</ele><time>2026-04-18T12:46:21Z</time></trkpt><trkpt lat="43.29042338230321" lon="10.779270789615753"><ele>308.0</ele><time>2026-04-18T12:46:22Z</time></trkpt><trkpt lat="43.290495225333686" lon="10.779406738915425"><ele>307.75</ele><time>2026-04-18T12:46:23Z</time></trkpt><trkpt lat="43.29059607425691" lon="10.779529374094025"><ele>307.5</ele><time>2026-04-18T12:46:24Z</time></trkpt><trkpt lat="43.290694693029046" lon="10.779616028090901"><ele>307.25</ele><time>2026-04-18T12:46:25Z</time></trkpt><trkpt lat="43.290774261186236" lon="10.779723594586516"><ele>307.0</ele><time>2026-04-18T12:46:26Z</time></trkpt><trkpt lat="43.290855544239946" lon="10.779837264006783"><ele>307.0</ele><time>2026-04-18T12:46:27Z</time></trkpt><trkpt lat="43.290918451637886" lon="10.77992747692833"><ele>307.0</ele><time>2026-04-18T12:46:28Z</time></trkpt><trkpt lat="43.29101897941102" lon="10.780006406571784"><ele>307.0</ele><time>2026-04-18T12:46:29Z</time></trkpt><trkpt lat="43.29108089449867" lon="10.780088480570178"><ele>307.0</ele><time>2026-04-18T12:46:30Z</time></trkpt><trkpt lat="43.291142497884664" lon="10.78013189928319"><ele>307.0</ele><time>2026-04-18T12:46:31Z</time></trkpt><trkpt lat="43.29118529388664" lon="10.780204914378608"><ele>307.0</ele><time>2026-04-18T12:46:32Z</time></trkpt><trkpt lat="43.29124506086969" lon="10.780239778647385"><ele>304.8333333333333</ele><time>2026-04-18T12:46:33.001Z</time></trkpt><trkpt lat="43.2913027278893" lon="10.780280849824665"><ele>302.66666666666663</ele><time>2026-04-18T12:46:34.001Z</time></trkpt><trkpt lat="43.29137598207061" lon="10.780295628029558"><ele>300.5</ele><time>2026-04-18T12:46:35.001Z</time></trkpt><trkpt lat="43.291447245025815" lon="10.780317240141192"><ele>298.3333333333333</ele><time>2026-04-18T12:46:36.001Z</time></trkpt><trkpt lat="43.291514088333614" lon="10.78028848964003"><ele>296.1666666666667</ele><time>2026-04-18T12:46:37.001Z</time></trkpt><trkpt lat="43.29162173150985" lon="10.780291034571503"><ele>294.0</ele><time>2026-04-18T12:46:39.001Z</time></trkpt><trkpt lat="43.29171264486307" lon="10.780297497641534"><ele>294.0</ele><time>2026-04-18T12:46:41.001Z</time></trkpt><trkpt lat="43.29177070399392" lon="10.780346268173258"><ele>294.0</ele><time>2026-04-18T12:46:42.001Z</time></trkpt><trkpt lat="43.29183067468681" lon="10.780432749789396"><ele>294.0</ele><time>2026-04-18T12:46:43.001Z</time></trkpt><trkpt lat="43.29187673889803" lon="10.78053567239014"><ele>294.0</ele><time>2026-04-18T12:46:44.001Z</time></trkpt><trkpt lat="43.2918999075947" lon="10.78064061634232"><ele>294.0</ele><time>2026-04-18T12:46:45.001Z</time></trkpt><trkpt lat="43.29192825961648" lon="10.780773297082883"><ele>294.0</ele><time>2026-04-18T12:46:46.001Z</time></trkpt><trkpt lat="43.29193618615999" lon="10.780927807452198"><ele>294.8</ele><time>2026-04-18T12:46:47.001Z</time></trkpt><trkpt lat="43.29194845563449" lon="10.781111027120668"><ele>295.59999999999997</ele><time>2026-04-18T12:46:48.001Z</time></trkpt><trkpt lat="43.29195791759469" lon="10.781273173122216"><ele>296.4</ele><time>2026-04-18T12:46:49.001Z</time></trkpt><trkpt lat="43.2919865139046" lon="10.781399147189067"><ele>297.2</ele><time>2026-04-18T12:46:50.001Z</time></trkpt><trkpt lat="43.29197059990383" lon="10.78153194267935"><ele>298.0</ele><time>2026-04-18T12:46:51.001Z</time></trkpt><trkpt lat="43.292015486001794" lon="10.781664793774603"><ele>298.0</ele><time>2026-04-18T12:46:52.001Z</time></trkpt><trkpt lat="43.29207800483303" lon="10.781793040747448"><ele>298.0</ele><time>2026-04-18T12:46:53.001Z</time></trkpt><trkpt lat="43.29212826057351" lon="10.781918532438615"><ele>298.0</ele><time>2026-04-18T12:46:54.001Z</time></trkpt><trkpt lat="43.29216182329882" lon="10.78202966471529"><ele>298.0</ele><time>2026-04-18T12:46:55.001Z</time></trkpt><trkpt lat="43.29217423148593" lon="10.782140074332748"><ele>298.0</ele><time>2026-04-18T12:46:56.001Z</time></trkpt><trkpt lat="43.2921667656027" lon="10.782226996959949"><ele>298.0</ele><time>2026-04-18T12:46:57.001Z</time></trkpt><trkpt lat="43.29216942744611" lon="10.782341849091988"><ele>298.75</ele><time>2026-04-18T12:46:58.001Z</time></trkpt><trkpt lat="43.29212215323321" lon="10.782473078704186"><ele>299.5</ele><time>2026-04-18T12:46:59.001Z</time></trkpt><trkpt lat="43.29206839331057" lon="10.782631463904261"><ele>300.25</ele><time>2026-04-18T12:47:00.001Z</time></trkpt><trkpt lat="43.29200623683331" lon="10.782793362511434"><ele>301.0</ele><time>2026-04-18T12:47:01.001Z</time></trkpt><trkpt lat="43.29193189294257" lon="10.782918771650364"><ele>300.8</ele><time>2026-04-18T12:47:02.001Z</time></trkpt><trkpt lat="43.29189286315656" lon="10.783018602431474"><ele>300.6</ele><time>2026-04-18T12:47:03.001Z</time></trkpt><trkpt lat="43.29188082491893" lon="10.783126052624477"><ele>300.4</ele><time>2026-04-18T12:47:04.001Z</time></trkpt><trkpt lat="43.29192411675171" lon="10.783261061100754"><ele>300.2</ele><time>2026-04-18T12:47:05.001Z</time></trkpt><trkpt lat="43.29195197343169" lon="10.783407614796417"><ele>300.0</ele><time>2026-04-18T12:47:06.001Z</time></trkpt><trkpt lat="43.29198635410077" lon="10.783578521383989"><ele>300.0</ele><time>2026-04-18T12:47:07.001Z</time></trkpt><trkpt lat="43.29199966532505" lon="10.78371270030836"><ele>300.0</ele><time>2026-04-18T12:47:08.001Z</time></trkpt><trkpt lat="43.29201590412954" lon="10.78381785049099"><ele>300.0</ele><time>2026-04-18T12:47:09.001Z</time></trkpt><trkpt lat="43.29201214111117" lon="10.7839174985646"><ele>300.0</ele><time>2026-04-18T12:47:10.001Z</time></trkpt><trkpt lat="43.2919833963803" lon="10.784014534220468"><ele>300.0</ele><time>2026-04-18T12:47:11.001Z</time></trkpt><trkpt lat="43.29193885960237" lon="10.784114298541693"><ele>300.0</ele><time>2026-04-18T12:47:12.001Z</time></trkpt><trkpt lat="43.291901740845745" lon="10.784212869262635"><ele>300.0</ele><time>2026-04-18T12:47:13.001Z</time></trkpt><trkpt lat="43.29186596418668" lon="10.784296819172916"><ele>300.0</ele><time>2026-04-18T12:47:14.001Z</time></trkpt><trkpt lat="43.291876795892016" lon="10.784458402951868"><ele>300.0</ele><time>2026-04-18T12:47:16.001Z</time></trkpt><trkpt lat="43.29192765714629" lon="10.784560799042158"><ele>300.0</ele><time>2026-04-18T12:47:17.001Z</time></trkpt><trkpt lat="43.29202730936884" lon="10.784611296298278"><ele>300.0</ele><time>2026-04-18T12:47:18.001Z</time></trkpt><trkpt lat="43.29213214644773" lon="10.784684931390203"><ele>298.1666666666667</ele><time>2026-04-18T12:47:19.001Z</time></trkpt><trkpt lat="43.29223822641561" lon="10.784750432483934"><ele>296.3333333333333</ele><time>2026-04-18T12:47:20.001Z</time></trkpt><trkpt lat="43.292321445190254" lon="10.784798348758077"><ele>294.5</ele><time>2026-04-18T12:47:21.001Z</time></trkpt><trkpt lat="43.292389296704144" lon="10.78482246096116"><ele>292.66666666666663</ele><time>2026-04-18T12:47:22.001Z</time></trkpt><trkpt lat="43.29246602737708" lon="10.784837995059203"><ele>290.8333333333333</ele><time>2026-04-18T12:47:23.001Z</time></trkpt><trkpt lat="43.292549963077036" lon="10.784847628218634"><ele>289.0</ele><time>2026-04-18T12:47:24.001Z</time></trkpt><trkpt lat="43.29262029178821" lon="10.784857141022147"><ele>287.4</ele><time>2026-04-18T12:47:25.001Z</time></trkpt><trkpt lat="43.292682082559466" lon="10.784876679441515"><ele>285.79999999999995</ele><time>2026-04-18T12:47:26.001Z</time></trkpt><trkpt lat="43.29279155067805" lon="10.784915841822782"><ele>284.20000000000005</ele><time>2026-04-18T12:47:28.001Z</time></trkpt><trkpt lat="43.292897896156894" lon="10.784987219054987"><ele>282.6</ele><time>2026-04-18T12:47:30.001Z</time></trkpt><trkpt lat="43.292974826236716" lon="10.785078642678563"><ele>281.0</ele><time>2026-04-18T12:47:32.001Z</time></trkpt><trkpt lat="43.293026989405995" lon="10.785266537720608"><ele>279.75</ele><time>2026-04-18T12:47:34.001Z</time></trkpt><trkpt lat="43.29303294268421" lon="10.785432250401055"><ele>278.5</ele><time>2026-04-18T12:47:35.001Z</time></trkpt><trkpt lat="43.29304244491868" lon="10.785611275221783"><ele>277.25</ele><time>2026-04-18T12:47:36.001Z</time></trkpt><trkpt lat="43.29306215390613" lon="10.78576479533267"><ele>276.0</ele><time>2026-04-18T12:47:37Z</time></trkpt><trkpt lat="43.293071821435426" lon="10.785893587720654"><ele>276.0</ele><time>2026-04-18T12:47:38Z</time></trkpt><trkpt lat="43.293083607399694" lon="10.78600382179647"><ele>276.0</ele><time>2026-04-18T12:47:39Z</time></trkpt><trkpt lat="43.293098637901075" lon="10.786096067963571"><ele>276.0</ele><time>2026-04-18T12:47:40Z</time></trkpt><trkpt lat="43.29313472106508" lon="10.786186743090871"><ele>276.0</ele><time>2026-04-18T12:47:41Z</time></trkpt><trkpt lat="43.29317478434376" lon="10.78629012540307"><ele>276.0</ele><time>2026-04-18T12:47:42Z</time></trkpt><trkpt lat="43.29322795674948" lon="10.786384567128216"><ele>276.0</ele><time>2026-04-18T12:47:43Z</time></trkpt><trkpt lat="43.293287935578434" lon="10.78647036411098"><ele>272.2</ele><time>2026-04-18T12:47:44Z</time></trkpt><trkpt lat="43.29336563326121" lon="10.786539578835436"><ele>268.40000000000003</ele><time>2026-04-18T12:47:45Z</time></trkpt><trkpt lat="43.29342373390789" lon="10.786630529042547"><ele>264.6</ele><time>2026-04-18T12:47:46Z</time></trkpt><trkpt lat="43.29351546608344" lon="10.786726541055977"><ele>260.8</ele><time>2026-04-18T12:47:47Z</time></trkpt><trkpt lat="43.293623680133855" lon="10.786822039384898"><ele>257.0</ele><time>2026-04-18T12:47:48Z</time></trkpt><trkpt lat="43.293730958746764" lon="10.786912354421663"><ele>256.1666666666667</ele><time>2026-04-18T12:47:49Z</time></trkpt><trkpt lat="43.293820526568894" lon="10.786999289485994"><ele>255.33333333333334</ele><time>2026-04-18T12:47:50Z</time></trkpt><trkpt lat="43.29389719322389" lon="10.787072892282108"><ele>254.5</ele><time>2026-04-18T12:47:51Z</time></trkpt><trkpt lat="43.293962711180725" lon="10.787137826336345"><ele>253.66666666666669</ele><time>2026-04-18T12:47:52Z</time></trkpt><trkpt lat="43.294013098252684" lon="10.78719261428753"><ele>252.83333333333334</ele><time>2026-04-18T12:47:53Z</time></trkpt><trkpt lat="43.29404971958795" lon="10.787295626268403"><ele>252.0</ele><time>2026-04-18T12:47:55Z</time></trkpt><trkpt lat="43.293989638529226" lon="10.787411114837095"><ele>252.0</ele><time>2026-04-18T12:47:57Z</time></trkpt><trkpt lat="43.293884495619885" lon="10.787535782457585"><ele>252.0</ele><time>2026-04-18T12:47:59Z</time></trkpt><trkpt lat="43.293802288332536" lon="10.78761021579891"><ele>252.0</ele><time>2026-04-18T12:48:00Z</time></trkpt><trkpt lat="43.293712365306156" lon="10.787748611326675"><ele>252.0</ele><time>2026-04-18T12:48:01Z</time></trkpt><trkpt lat="43.293619298550674" lon="10.787853094790337"><ele>251.25</ele><time>2026-04-18T12:48:02Z</time></trkpt><trkpt lat="43.2935362346051" lon="10.787958900039483"><ele>250.5</ele><time>2026-04-18T12:48:03Z</time></trkpt><trkpt lat="43.293461896443596" lon="10.788084137579744"><ele>249.75</ele><time>2026-04-18T12:48:04Z</time></trkpt><trkpt lat="43.29339814038688" lon="10.788231418199397"><ele>249.0</ele><time>2026-04-18T12:48:05Z</time></trkpt><trkpt lat="43.2933454647792" lon="10.788396373142886"><ele>248.25</ele><time>2026-04-18T12:48:06Z</time></trkpt><trkpt lat="43.293281578779926" lon="10.78856937711339"><ele>247.5</ele><time>2026-04-18T12:48:07Z</time></trkpt><trkpt lat="43.29321173799661" lon="10.788727815741268"><ele>246.75</ele><time>2026-04-18T12:48:08Z</time></trkpt><trkpt lat="43.29315675527351" lon="10.788849128640924"><ele>246.0</ele><time>2026-04-18T12:48:09Z</time></trkpt><trkpt lat="43.293125266626625" lon="10.788990226993587"><ele>250.25</ele><time>2026-04-18T12:48:10Z</time></trkpt><trkpt lat="43.29308459131245" lon="10.789150886823029"><ele>254.5</ele><time>2026-04-18T12:48:11Z</time></trkpt><trkpt lat="43.29303570934878" lon="10.789317578587317"><ele>258.75</ele><time>2026-04-18T12:48:12Z</time></trkpt><trkpt lat="43.29299219612639" lon="10.789487481029484"><ele>263.0</ele><time>2026-04-18T12:48:13Z</time></trkpt><trkpt lat="43.29295077671375" lon="10.789638216086276"><ele>263.0</ele><time>2026-04-18T12:48:14Z</time></trkpt><trkpt lat="43.29291700391269" lon="10.78975002159761"><ele>263.0</ele><time>2026-04-18T12:48:15Z</time></trkpt><trkpt lat="43.292865151263086" lon="10.789836407930032"><ele>263.0</ele><time>2026-04-18T12:48:16Z</time></trkpt><trkpt lat="43.29278893698313" lon="10.789904343859815"><ele>263.0</ele><time>2026-04-18T12:48:17Z</time></trkpt><trkpt lat="43.292700874745876" lon="10.789969451437564"><ele>263.0</ele><time>2026-04-18T12:48:18Z</time></trkpt><trkpt lat="43.29261052399342" lon="10.790055287161772"><ele>263.0</ele><time>2026-04-18T12:48:19Z</time></trkpt><trkpt lat="43.2925290097774" lon="10.79016697235089"><ele>263.0</ele><time>2026-04-18T12:48:20Z</time></trkpt><trkpt lat="43.29244430406759" lon="10.790292798575665"><ele>263.0</ele><time>2026-04-18T12:48:21Z</time></trkpt><trkpt lat="43.29235342560865" lon="10.790416178241761"><ele>263.0</ele><time>2026-04-18T12:48:22Z</time></trkpt><trkpt lat="43.29227859639667" lon="10.790509741510775"><ele>265.5</ele><time>2026-04-18T12:48:23Z</time></trkpt><trkpt lat="43.29222564997087" lon="10.790582602680084"><ele>268.0</ele><time>2026-04-18T12:48:24Z</time></trkpt><trkpt lat="43.29219620246838" lon="10.790663445604547"><ele>270.5</ele><time>2026-04-18T12:48:25Z</time></trkpt><trkpt lat="43.292185035431764" lon="10.790755696077316"><ele>273.0</ele><time>2026-04-18T12:48:26.001Z</time></trkpt><trkpt lat="43.292185731070056" lon="10.790879850825023"><ele>275.5</ele><time>2026-04-18T12:48:27.001Z</time></trkpt><trkpt lat="43.29220755411841" lon="10.791022383742034"><ele>278.0</ele><time>2026-04-18T12:48:28.001Z</time></trkpt><trkpt lat="43.29223855378286" lon="10.791167805590307"><ele>278.0</ele><time>2026-04-18T12:48:29.001Z</time></trkpt><trkpt lat="43.292267781676884" lon="10.791300861961302"><ele>278.0</ele><time>2026-04-18T12:48:30.001Z</time></trkpt><trkpt lat="43.292284733169886" lon="10.791410916364878"><ele>278.0</ele><time>2026-04-18T12:48:31.001Z</time></trkpt><trkpt lat="43.292290343906444" lon="10.791509463260267"><ele>278.0</ele><time>2026-04-18T12:48:32.001Z</time></trkpt><trkpt lat="43.292285596652476" lon="10.791622902893401"><ele>278.0</ele><time>2026-04-18T12:48:33.001Z</time></trkpt><trkpt lat="43.29227197800278" lon="10.791724923735607"><ele>278.0</ele><time>2026-04-18T12:48:34.001Z</time></trkpt><trkpt lat="43.29224854513537" lon="10.791825443890302"><ele>273.5</ele><time>2026-04-18T12:48:35.001Z</time></trkpt><trkpt lat="43.292192016619026" lon="10.791946300612175"><ele>269.0</ele><time>2026-04-18T12:48:36.001Z</time></trkpt><trkpt lat="43.29211906799341" lon="10.792110685305179"><ele>264.5</ele><time>2026-04-18T12:48:37.001Z</time></trkpt><trkpt lat="43.29204965993076" lon="10.792269760534333"><ele>260.0</ele><time>2026-04-18T12:48:38.001Z</time></trkpt><trkpt lat="43.291993021493326" lon="10.7924065714139"><ele>260.0</ele><time>2026-04-18T12:48:39.001Z</time></trkpt><trkpt lat="43.291975436520424" lon="10.79252191163107"><ele>260.0</ele><time>2026-04-18T12:48:40.001Z</time></trkpt><trkpt lat="43.29196072789326" lon="10.792611195747503"><ele>260.0</ele><time>2026-04-18T12:48:41.001Z</time></trkpt><trkpt lat="43.29194831907152" lon="10.792715046286968"><ele>260.0</ele><time>2026-04-18T12:48:43.001Z</time></trkpt><trkpt lat="43.29198892047338" lon="10.79280369341676"><ele>260.0</ele><time>2026-04-18T12:49:50Z</time></trkpt><trkpt lat="43.29203907805254" lon="10.792902190662916"><ele>260.0</ele><time>2026-04-18T12:49:51Z</time></trkpt><trkpt lat="43.292128162400985" lon="10.79302133901128"><ele>256.75</ele><time>2026-04-18T12:49:52Z</time></trkpt><trkpt lat="43.2922145309554" lon="10.793147887938618"><ele>253.5</ele><time>2026-04-18T12:49:53Z</time></trkpt><trkpt lat="43.29230520788535" lon="10.793300131209277"><ele>250.25</ele><time>2026-04-18T12:49:54Z</time></trkpt><trkpt lat="43.29239109803563" lon="10.793466039722265"><ele>247.0</ele><time>2026-04-18T12:49:55Z</time></trkpt><trkpt lat="43.292460145159616" lon="10.793611949187042"><ele>246.16666666666666</ele><time>2026-04-18T12:49:56Z</time></trkpt><trkpt lat="43.29251129326347" lon="10.793740670441284"><ele>245.33333333333331</ele><time>2026-04-18T12:49:57Z</time></trkpt><trkpt lat="43.29255170104985" lon="10.793853072989371"><ele>244.5</ele><time>2026-04-18T12:49:58Z</time></trkpt><trkpt lat="43.29261405878314" lon="10.793905160335148"><ele>243.66666666666669</ele><time>2026-04-18T12:49:59Z</time></trkpt><trkpt lat="43.292688112720136" lon="10.793941517125472"><ele>242.83333333333334</ele><time>2026-04-18T12:50:00Z</time></trkpt><trkpt lat="43.29274224801569" lon="10.793996659754873"><ele>242.0</ele><time>2026-04-18T12:50:01Z</time></trkpt><trkpt lat="43.2927026933855" lon="10.794125889798345"><ele>242.0</ele><time>2026-04-18T12:50:03Z</time></trkpt><trkpt lat="43.292631457220324" lon="10.794162430308122"><ele>242.0</ele><time>2026-04-18T12:50:04Z</time></trkpt><trkpt lat="43.292532498872134" lon="10.79414764564362"><ele>242.0</ele><time>2026-04-18T12:50:05Z</time></trkpt><trkpt lat="43.29241748904193" lon="10.794137032148289"><ele>242.0</ele><time>2026-04-18T12:50:06Z</time></trkpt><trkpt lat="43.29228943457201" lon="10.79411742743932"><ele>242.0</ele><time>2026-04-18T12:50:07Z</time></trkpt><trkpt lat="43.292169564850354" lon="10.794077790749158"><ele>240.25</ele><time>2026-04-18T12:50:08Z</time></trkpt><trkpt lat="43.292043983714436" lon="10.794009415878241"><ele>238.5</ele><time>2026-04-18T12:50:09Z</time></trkpt><trkpt lat="43.291918415362616" lon="10.79391507067204"><ele>236.75</ele><time>2026-04-18T12:50:10Z</time></trkpt><trkpt lat="43.29176415951624" lon="10.793855184281664"><ele>235.0</ele><time>2026-04-18T12:50:11Z</time></trkpt><trkpt lat="43.291678064951356" lon="10.793812111470727"><ele>235.0</ele><time>2026-04-18T12:50:12Z</time></trkpt><trkpt lat="43.291551143816385" lon="10.793792701467348"><ele>235.0</ele><time>2026-04-18T12:50:13Z</time></trkpt><trkpt lat="43.291461512219385" lon="10.793785377962868"><ele>235.0</ele><time>2026-04-18T12:50:14Z</time></trkpt><trkpt lat="43.291395063984496" lon="10.793880739865966"><ele>235.0</ele><time>2026-04-18T12:50:16Z</time></trkpt><trkpt lat="43.29142503403547" lon="10.793974963408948"><ele>235.0</ele><time>2026-04-18T12:50:17Z</time></trkpt><trkpt lat="43.2914882169797" lon="10.7940636795842"><ele>235.0</ele><time>2026-04-18T12:50:18Z</time></trkpt><trkpt lat="43.29158182954642" lon="10.79413447621982"><ele>235.0</ele><time>2026-04-18T12:50:19Z</time></trkpt><trkpt lat="43.291683847648414" lon="10.794217180681127"><ele>235.0</ele><time>2026-04-18T12:50:20Z</time></trkpt><trkpt lat="43.291752215732345" lon="10.794335015599659"><ele>235.0</ele><time>2026-04-18T12:50:21Z</time></trkpt><trkpt lat="43.29180558775731" lon="10.79447537447405"><ele>231.5</ele><time>2026-04-18T12:50:22Z</time></trkpt><trkpt lat="43.29186584861806" lon="10.794624289096156"><ele>228.0</ele><time>2026-04-18T12:50:23Z</time></trkpt><trkpt lat="43.29192787139619" lon="10.79474930429171"><ele>224.5</ele><time>2026-04-18T12:50:24.001Z</time></trkpt><trkpt lat="43.29199911610501" lon="10.794864052929407"><ele>221.0</ele><time>2026-04-18T12:50:25.001Z</time></trkpt><trkpt lat="43.292095928059396" lon="10.794958594866298"><ele>221.0</ele><time>2026-04-18T12:50:26.001Z</time></trkpt><trkpt lat="43.29222493973123" lon="10.795052391406827"><ele>221.0</ele><time>2026-04-18T12:50:27.001Z</time></trkpt><trkpt lat="43.29237671275003" lon="10.795144086842086"><ele>221.0</ele><time>2026-04-18T12:50:28.001Z</time></trkpt><trkpt lat="43.292526248453875" lon="10.795241720444785"><ele>218.25</ele><time>2026-04-18T12:50:29.001Z</time></trkpt><trkpt lat="43.29265076890755" lon="10.795336018504956"><ele>215.5</ele><time>2026-04-18T12:50:30.001Z</time></trkpt><trkpt lat="43.29274647755519" lon="10.7954512960501"><ele>212.75</ele><time>2026-04-18T12:50:31.001Z</time></trkpt><trkpt lat="43.29282357660155" lon="10.795610798141386"><ele>210.0</ele><time>2026-04-18T12:50:32.001Z</time></trkpt><trkpt lat="43.292899962580684" lon="10.795773277900151"><ele>210.0</ele><time>2026-04-18T12:50:33.001Z</time></trkpt><trkpt lat="43.2929688488472" lon="10.79589712318871"><ele>210.0</ele><time>2026-04-18T12:50:34.001Z</time></trkpt><trkpt lat="43.29303730267445" lon="10.795993022833288"><ele>210.0</ele><time>2026-04-18T12:50:35.001Z</time></trkpt><trkpt lat="43.29310852997421" lon="10.796052413624293"><ele>210.0</ele><time>2026-04-18T12:50:36.001Z</time></trkpt><trkpt lat="43.29319517799957" lon="10.796082311144515"><ele>210.0</ele><time>2026-04-18T12:50:37.001Z</time></trkpt><trkpt lat="43.29329973964224" lon="10.796064854906795"><ele>210.5</ele><time>2026-04-18T12:50:38.001Z</time></trkpt><trkpt lat="43.293413874884195" lon="10.796026315078185"><ele>211.0</ele><time>2026-04-18T12:50:39.001Z</time></trkpt><trkpt lat="43.29354147825733" lon="10.795931164237931"><ele>211.5</ele><time>2026-04-18T12:50:40.001Z</time></trkpt><trkpt lat="43.293645226411904" lon="10.795823966960759"><ele>212.0</ele><time>2026-04-18T12:50:41.001Z</time></trkpt><trkpt lat="43.293727226146714" lon="10.79577296067658"><ele>212.0</ele><time>2026-04-18T12:50:42.001Z</time></trkpt><trkpt lat="43.29381073674901" lon="10.795763725745136"><ele>212.0</ele><time>2026-04-18T12:50:43.001Z</time></trkpt><trkpt lat="43.29386910322382" lon="10.795851433124788"><ele>212.0</ele><time>2026-04-18T12:50:44.001Z</time></trkpt><trkpt lat="43.29390041213707" lon="10.795988325283735"><ele>212.0</ele><time>2026-04-18T12:50:45.001Z</time></trkpt><trkpt lat="43.293973588667924" lon="10.796142398600022"><ele>212.0</ele><time>2026-04-18T12:50:46.001Z</time></trkpt><trkpt lat="43.29406304830806" lon="10.796296915425643"><ele>209.0</ele><time>2026-04-18T12:50:47.001Z</time></trkpt><trkpt lat="43.29412899392124" lon="10.796426135462497"><ele>206.0</ele><time>2026-04-18T12:50:48.001Z</time></trkpt><trkpt lat="43.2942146241647" lon="10.796542222642264"><ele>203.0</ele><time>2026-04-18T12:50:49.001Z</time></trkpt><trkpt lat="43.294319392306576" lon="10.796633505416366"><ele>200.0</ele><time>2026-04-18T12:50:50.001Z</time></trkpt><trkpt lat="43.29444747149407" lon="10.796691269913733"><ele>200.0</ele><time>2026-04-18T12:50:51.001Z</time></trkpt><trkpt lat="43.2946020167459" lon="10.796705386609345"><ele>200.0</ele><time>2026-04-18T12:50:52.001Z</time></trkpt><trkpt lat="43.29491106038106" lon="10.7966699955532"><ele>198.6</ele><time>2026-04-18T12:50:54.001Z</time></trkpt><trkpt lat="43.295035561105955" lon="10.796743067794045"><ele>197.2</ele><time>2026-04-18T12:50:55.001Z</time></trkpt><trkpt lat="43.29514783491923" lon="10.796759914437308"><ele>195.8</ele><time>2026-04-18T12:50:56.001Z</time></trkpt><trkpt lat="43.295239147816694" lon="10.796753908261358"><ele>194.4</ele><time>2026-04-18T12:50:57.001Z</time></trkpt><trkpt lat="43.29530351388591" lon="10.79670315802542"><ele>193.0</ele><time>2026-04-18T12:50:58.001Z</time></trkpt><trkpt lat="43.2953698970156" lon="10.796622815026977"><ele>193.0</ele><time>2026-04-18T12:50:59.001Z</time></trkpt><trkpt lat="43.29542844201239" lon="10.796528566619216"><ele>193.0</ele><time>2026-04-18T12:51:00.001Z</time></trkpt><trkpt lat="43.29548675281469" lon="10.796426429954668"><ele>193.0</ele><time>2026-04-18T12:51:01.001Z</time></trkpt><trkpt lat="43.29554006657815" lon="10.796304849141798"><ele>193.0</ele><time>2026-04-18T12:51:02.001Z</time></trkpt><trkpt lat="43.29557294923943" lon="10.79616098056751"><ele>193.0</ele><time>2026-04-18T12:51:03.001Z</time></trkpt><trkpt lat="43.29559826983191" lon="10.796026225602343"><ele>191.0</ele><time>2026-04-18T12:51:04.001Z</time></trkpt><trkpt lat="43.29567548067745" lon="10.795990449040563"><ele>189.0</ele><time>2026-04-18T12:51:05.001Z</time></trkpt><trkpt lat="43.295787183628576" lon="10.796091893975523"><ele>187.0</ele><time>2026-04-18T12:51:06.001Z</time></trkpt><trkpt lat="43.29590660492433" lon="10.79607987320212"><ele>185.0</ele><time>2026-04-18T12:51:07.001Z</time></trkpt><trkpt lat="43.296052683562465" lon="10.79601084455304"><ele>185.0</ele><time>2026-04-18T12:51:08.001Z</time></trkpt><trkpt lat="43.29620324212258" lon="10.795928027103667"><ele>185.0</ele><time>2026-04-18T12:51:09.001Z</time></trkpt><trkpt lat="43.296359142307516" lon="10.795879764343537"><ele>185.0</ele><time>2026-04-18T12:51:10.001Z</time></trkpt><trkpt lat="43.29649934820167" lon="10.795893442959205"><ele>181.75</ele><time>2026-04-18T12:51:11.001Z</time></trkpt><trkpt lat="43.296599683764285" lon="10.795860095328868"><ele>178.5</ele><time>2026-04-18T12:51:12.001Z</time></trkpt><trkpt lat="43.296684626410475" lon="10.795810582339536"><ele>175.25</ele><time>2026-04-18T12:51:13.001Z</time></trkpt><trkpt lat="43.29676023713696" lon="10.795692668108813"><ele>172.0</ele><time>2026-04-18T12:51:14.001Z</time></trkpt><trkpt lat="43.29684873990488" lon="10.79549976298305"><ele>172.0</ele><time>2026-04-18T12:51:15.001Z</time></trkpt><trkpt lat="43.29688986183058" lon="10.795325300205812"><ele>172.0</ele><time>2026-04-18T12:51:16.001Z</time></trkpt><trkpt lat="43.29695805258663" lon="10.795234318226436"><ele>172.0</ele><time>2026-04-18T12:51:17.001Z</time></trkpt><trkpt lat="43.297049797225014" lon="10.795207822394348"><ele>172.0</ele><time>2026-04-18T12:51:18.002Z</time></trkpt><trkpt lat="43.29716229632016" lon="10.79524538711892"><ele>172.0</ele><time>2026-04-18T12:51:19.002Z</time></trkpt><trkpt lat="43.297293982573024" lon="10.795286949879552"><ele>168.0</ele><time>2026-04-18T12:51:20.002Z</time></trkpt><trkpt lat="43.297476186294034" lon="10.795305759015008"><ele>164.0</ele><time>2026-04-18T12:51:21.002Z</time></trkpt><trkpt lat="43.29766911795649" lon="10.795300845079243"><ele>160.0</ele><time>2026-04-18T12:51:22.002Z</time></trkpt><trkpt lat="43.29784954962566" lon="10.79528585705431"><ele>160.0</ele><time>2026-04-18T12:51:23.002Z</time></trkpt><trkpt lat="43.29799320417841" lon="10.79525636394892"><ele>160.0</ele><time>2026-04-18T12:51:24.002Z</time></trkpt><trkpt lat="43.298098200667305" lon="10.79530935820511"><ele>160.0</ele><time>2026-04-18T12:51:25.002Z</time></trkpt><trkpt lat="43.298193655150385" lon="10.795391502136457"><ele>160.0</ele><time>2026-04-18T12:51:26.002Z</time></trkpt><trkpt lat="43.29826592052276" lon="10.795532430894822"><ele>160.4</ele><time>2026-04-18T12:51:27.002Z</time></trkpt><trkpt lat="43.29834674046557" lon="10.795685466134211"><ele>160.8</ele><time>2026-04-18T12:51:28.002Z</time></trkpt><trkpt lat="43.2983945529624" lon="10.795806089985815"><ele>161.2</ele><time>2026-04-18T12:51:29.002Z</time></trkpt><trkpt lat="43.298433147853316" lon="10.795916587551517"><ele>161.6</ele><time>2026-04-18T12:51:30.002Z</time></trkpt><trkpt lat="43.29842622506134" lon="10.7960520097093"><ele>162.0</ele><time>2026-04-18T12:51:31.002Z</time></trkpt><trkpt lat="43.29841544540217" lon="10.796204378239059"><ele>160.5</ele><time>2026-04-18T12:51:32.002Z</time></trkpt><trkpt lat="43.29839842916066" lon="10.796386419085444"><ele>159.0</ele><time>2026-04-18T12:51:33.002Z</time></trkpt><trkpt lat="43.29838930336945" lon="10.79654690867497"><ele>157.5</ele><time>2026-04-18T12:51:34.002Z</time></trkpt><trkpt lat="43.298381983184285" lon="10.796698888763865"><ele>156.0</ele><time>2026-04-18T12:51:35.002Z</time></trkpt><trkpt lat="43.29840089097741" lon="10.796817638156684"><ele>154.0</ele><time>2026-04-18T12:51:36.002Z</time></trkpt><trkpt lat="43.2984026597024" lon="10.796954610315025"><ele>152.0</ele><time>2026-04-18T12:51:37.002Z</time></trkpt><trkpt lat="43.298444161799374" lon="10.797077612400559"><ele>150.0</ele><time>2026-04-18T12:51:38.002Z</time></trkpt><trkpt lat="43.29850833411707" lon="10.797186906035154"><ele>148.0</ele><time>2026-04-18T12:51:39.002Z</time></trkpt><trkpt lat="43.298582704938646" lon="10.797297604694297"><ele>146.0</ele><time>2026-04-18T12:51:40.002Z</time></trkpt><trkpt lat="43.29866888800395" lon="10.797424033578876"><ele>146.0</ele><time>2026-04-18T12:51:41.002Z</time></trkpt><trkpt lat="43.29875991979427" lon="10.797566228326245"><ele>146.0</ele><time>2026-04-18T12:51:42.002Z</time></trkpt><trkpt lat="43.298845051472306" lon="10.797716204233389"><ele>146.0</ele><time>2026-04-18T12:51:43.002Z</time></trkpt><trkpt lat="43.298881621054846" lon="10.797886428024436"><ele>146.0</ele><time>2026-04-18T12:51:44.002Z</time></trkpt><trkpt lat="43.29889545796129" lon="10.798063610673399"><ele>146.0</ele><time>2026-04-18T12:51:45.002Z</time></trkpt><trkpt lat="43.29891998304756" lon="10.798230807812212"><ele>146.0</ele><time>2026-04-18T12:51:46.002Z</time></trkpt><trkpt lat="43.298981112475055" lon="10.798385002026064"><ele>146.0</ele><time>2026-04-18T12:51:47.002Z</time></trkpt><trkpt lat="43.29909112602917" lon="10.798564073846391"><ele>146.0</ele><time>2026-04-18T12:51:48.002Z</time></trkpt><trkpt lat="43.29919882026934" lon="10.798745417839557"><ele>146.0</ele><time>2026-04-18T12:51:49Z</time></trkpt><trkpt lat="43.29928253151279" lon="10.79892777374795"><ele>146.0</ele><time>2026-04-18T12:51:50Z</time></trkpt><trkpt lat="43.299350378998604" lon="10.799097013011442"><ele>146.0</ele><time>2026-04-18T12:51:51Z</time></trkpt><trkpt lat="43.29939581200662" lon="10.799259399952856"><ele>146.0</ele><time>2026-04-18T12:51:52Z</time></trkpt><trkpt lat="43.29942430054927" lon="10.799446280870935"><ele>144.0</ele><time>2026-04-18T12:51:53Z</time></trkpt><trkpt lat="43.299423677232745" lon="10.799663223401254"><ele>142.0</ele><time>2026-04-18T12:51:54Z</time></trkpt><trkpt lat="43.299422114902896" lon="10.79988436613302"><ele>140.0</ele><time>2026-04-18T12:51:55Z</time></trkpt><trkpt lat="43.299429494645075" lon="10.800066932975202"><ele>139.6</ele><time>2026-04-18T12:51:56Z</time></trkpt><trkpt lat="43.299452722950434" lon="10.800225332440265"><ele>139.2</ele><time>2026-04-18T12:51:57Z</time></trkpt><trkpt lat="43.29942713046336" lon="10.800367046408539"><ele>138.8</ele><time>2026-04-18T12:51:58Z</time></trkpt><trkpt lat="43.29935149071559" lon="10.800475003426168"><ele>138.4</ele><time>2026-04-18T12:51:59Z</time></trkpt><trkpt lat="43.299301661730446" lon="10.800598079551497"><ele>138.0</ele><time>2026-04-18T12:52:00Z</time></trkpt><trkpt lat="43.29926595045802" lon="10.800726499425107"><ele>138.0</ele><time>2026-04-18T12:52:01Z</time></trkpt><trkpt lat="43.2992868055778" lon="10.800868807088236"><ele>138.0</ele><time>2026-04-18T12:52:02Z</time></trkpt><trkpt lat="43.29935693883262" lon="10.801015038053148"><ele>138.0</ele><time>2026-04-18T12:52:03Z</time></trkpt><trkpt lat="43.299460686300144" lon="10.801126510690814"><ele>138.0</ele><time>2026-04-18T12:52:04Z</time></trkpt><trkpt lat="43.29958938357783" lon="10.801199639827605"><ele>137.33333333333334</ele><time>2026-04-18T12:52:05Z</time></trkpt><trkpt lat="43.29973790680146" lon="10.80125291926492"><ele>136.66666666666669</ele><time>2026-04-18T12:52:06Z</time></trkpt><trkpt lat="43.29989428503936" lon="10.801302850369591"><ele>136.0</ele><time>2026-04-18T12:52:07Z</time></trkpt><trkpt lat="43.30004980415946" lon="10.801348202727546"><ele>137.75</ele><time>2026-04-18T12:52:08Z</time></trkpt><trkpt lat="43.300205846467115" lon="10.80136485382521"><ele>139.5</ele><time>2026-04-18T12:52:09Z</time></trkpt><trkpt lat="43.30034451694708" lon="10.801353850284562"><ele>141.25</ele><time>2026-04-18T12:52:10Z</time></trkpt><trkpt lat="43.3004897167435" lon="10.801318926363889"><ele>143.0</ele><time>2026-04-18T12:52:11Z</time></trkpt><trkpt lat="43.300631120388026" lon="10.801325314349127"><ele>143.0</ele><time>2026-04-18T12:52:12Z</time></trkpt><trkpt lat="43.30075553469107" lon="10.8014015826698"><ele>143.0</ele><time>2026-04-18T12:52:13Z</time></trkpt><trkpt lat="43.30087208841227" lon="10.801517891633926"><ele>143.0</ele><time>2026-04-18T12:52:14Z</time></trkpt><trkpt lat="43.301002058723874" lon="10.801662666490945"><ele>143.0</ele><time>2026-04-18T12:52:15Z</time></trkpt><trkpt lat="43.30114109476273" lon="10.801802070237716"><ele>142.33333333333331</ele><time>2026-04-18T12:52:16Z</time></trkpt><trkpt lat="43.30128428822686" lon="10.801958149712059"><ele>141.66666666666666</ele><time>2026-04-18T12:52:17Z</time></trkpt><trkpt lat="43.301433582856745" lon="10.802102421608513"><ele>141.0</ele><time>2026-04-18T12:52:18Z</time></trkpt><trkpt lat="43.3015828445217" lon="10.802253536680247"><ele>140.66666666666666</ele><time>2026-04-18T12:52:19.001Z</time></trkpt><trkpt lat="43.30173593672399" lon="10.802395514874648"><ele>140.33333333333331</ele><time>2026-04-18T12:52:20.001Z</time></trkpt><trkpt lat="43.30189467964362" lon="10.802540328808913"><ele>140.0</ele><time>2026-04-18T12:52:21.001Z</time></trkpt><trkpt lat="43.30203791770695" lon="10.802657501653126"><ele>138.5</ele><time>2026-04-18T12:52:22.001Z</time></trkpt><trkpt lat="43.30217048512666" lon="10.802782801570137"><ele>137.0</ele><time>2026-04-18T12:52:23.001Z</time></trkpt><trkpt lat="43.30229171840609" lon="10.802878406363707"><ele>135.5</ele><time>2026-04-18T12:52:24.001Z</time></trkpt><trkpt lat="43.30240869508632" lon="10.802966025114438"><ele>134.0</ele><time>2026-04-18T12:52:25.001Z</time></trkpt><trkpt lat="43.30253916492997" lon="10.803003172347362"><ele>134.0</ele><time>2026-04-18T12:52:26.001Z</time></trkpt><trkpt lat="43.30268039106532" lon="10.80299154899886"><ele>134.0</ele><time>2026-04-18T12:52:27.001Z</time></trkpt><trkpt lat="43.30281488533674" lon="10.802945172726421"><ele>134.0</ele><time>2026-04-18T12:52:28Z</time></trkpt><trkpt lat="43.30294764999552" lon="10.802832081547646"><ele>134.0</ele><time>2026-04-18T12:52:29Z</time></trkpt><trkpt lat="43.30306397255004" lon="10.802717859864003"><ele>133.5</ele><time>2026-04-18T12:52:30Z</time></trkpt><trkpt lat="43.30317946431522" lon="10.80264580708522"><ele>133.0</ele><time>2026-04-18T12:52:31Z</time></trkpt><trkpt lat="43.30330704354622" lon="10.80265972834944"><ele>132.5</ele><time>2026-04-18T12:52:32Z</time></trkpt><trkpt lat="43.30343505330316" lon="10.802661606557022"><ele>132.0</ele><time>2026-04-18T12:52:33Z</time></trkpt><trkpt lat="43.30354491413023" lon="10.802723415670041"><ele>131.5</ele><time>2026-04-18T12:52:34Z</time></trkpt><trkpt lat="43.30361635242436" lon="10.802842889433279"><ele>131.0</ele><time>2026-04-18T12:52:35Z</time></trkpt><trkpt lat="43.30366426884879" lon="10.802975031751116"><ele>130.5</ele><time>2026-04-18T12:52:36Z</time></trkpt><trkpt lat="43.30371736931517" lon="10.803162870539047"><ele>130.0</ele><time>2026-04-18T12:52:37Z</time></trkpt><trkpt lat="43.30374597879749" lon="10.803387922466115"><ele>127.66666666666667</ele><time>2026-04-18T12:52:38Z</time></trkpt><trkpt lat="43.303778080599784" lon="10.803635112663763"><ele>125.33333333333334</ele><time>2026-04-18T12:52:39Z</time></trkpt><trkpt lat="43.303830373581356" lon="10.803888204623842"><ele>123.0</ele><time>2026-04-18T12:52:40Z</time></trkpt><trkpt lat="43.30387920074853" lon="10.80415603045325"><ele>136.0</ele><time>2026-04-18T12:52:41Z</time></trkpt><trkpt lat="43.299460686300144" lon="10.801126510690814"><ele>136.0</ele><time>2026-04-18T12:52:04Z</time></trkpt><trkpt lat="43.29958938357783" lon="10.801199639827605"><ele>136.0</ele><time>2026-04-18T12:52:05Z</time></trkpt><trkpt lat="43.29973790680146" lon="10.80125291926492"><ele>136.0</ele><time>2026-04-18T12:52:06Z</time></trkpt><trkpt lat="43.29989428503936" lon="10.801302850369591"><ele>138.66666666666669</ele><time>2026-04-18T12:52:07Z</time></trkpt><trkpt lat="43.30004980415946" lon="10.801348202727546"><ele>141.33333333333334</ele><time>2026-04-18T12:52:08Z</time></trkpt><trkpt lat="43.300205846467115" lon="10.80136485382521"><ele>144.0</ele><time>2026-04-18T12:52:09Z</time></trkpt><trkpt lat="43.30034451694708" lon="10.801353850284562"><ele>144.0</ele><time>2026-04-18T12:52:10Z</time></trkpt><trkpt lat="43.3004897167435" lon="10.801318926363889"><ele>144.0</ele><time>2026-04-18T12:52:11Z</time></trkpt><trkpt lat="43.300631120388026" lon="10.801325314349127"><ele>144.0</ele><time>2026-04-18T12:52:12Z</time></trkpt><trkpt lat="43.30075553469107" lon="10.8014015826698"><ele>144.0</ele><time>2026-04-18T12:52:13Z</time></trkpt><trkpt lat="43.30087208841227" lon="10.801517891633926"><ele>143.66666666666666</ele><time>2026-04-18T12:52:14Z</time></trkpt><trkpt lat="43.301002058723874" lon="10.801662666490945"><ele>143.33333333333331</ele><time>2026-04-18T12:52:15Z</time></trkpt><trkpt lat="43.30114109476273" lon="10.801802070237716"><ele>143.0</ele><time>2026-04-18T12:52:16Z</time></trkpt><trkpt lat="43.30128428822686" lon="10.801958149712059"><ele>142.0</ele><time>2026-04-18T12:52:17Z</time></trkpt><trkpt lat="43.301433582856745" lon="10.802102421608513"><ele>141.0</ele><time>2026-04-18T12:52:18Z</time></trkpt><trkpt lat="43.3015828445217" lon="10.802253536680247"><ele>140.0</ele><time>2026-04-18T12:52:19.001Z</time></trkpt><trkpt lat="43.30173593672399" lon="10.802395514874648"><ele>140.0</ele><time>2026-04-18T12:52:20.001Z</time></trkpt><trkpt lat="43.30189467964362" lon="10.802540328808913"><ele>140.0</ele><time>2026-04-18T12:52:21.001Z</time></trkpt><trkpt lat="43.30203791770695" lon="10.802657501653126"><ele>140.0</ele><time>2026-04-18T12:52:22.001Z</time></trkpt><trkpt lat="43.30217048512666" lon="10.802782801570137"><ele>138.5</ele><time>2026-04-18T12:52:23.001Z</time></trkpt><trkpt lat="43.30229171840609" lon="10.802878406363707"><ele>137.0</ele><time>2026-04-18T12:52:24.001Z</time></trkpt><trkpt lat="43.30240869508632" lon="10.802966025114438"><ele>135.5</ele><time>2026-04-18T12:52:25.001Z</time></trkpt><trkpt lat="43.30253916492997" lon="10.803003172347362"><ele>134.0</ele><time>2026-04-18T12:52:26.001Z</time></trkpt><trkpt lat="43.30268039106532" lon="10.80299154899886"><ele>134.0</ele><time>2026-04-18T12:52:27.001Z</time></trkpt><trkpt lat="43.30281488533674" lon="10.802945172726421"><ele>134.0</ele><time>2026-04-18T12:52:28Z</time></trkpt><trkpt lat="43.30294764999552" lon="10.802832081547646"><ele>134.0</ele><time>2026-04-18T12:52:29Z</time></trkpt><trkpt lat="43.30306397255004" lon="10.802717859864003"><ele>134.0</ele><time>2026-04-18T12:52:30Z</time></trkpt><trkpt lat="43.30317946431522" lon="10.80264580708522"><ele>133.5</ele><time>2026-04-18T12:52:31Z</time></trkpt><trkpt lat="43.30330704354622" lon="10.80265972834944"><ele>133.0</ele><time>2026-04-18T12:52:32Z</time></trkpt><trkpt lat="43.30343505330316" lon="10.802661606557022"><ele>132.5</ele><time>2026-04-18T12:52:33Z</time></trkpt><trkpt lat="43.30354491413023" lon="10.802723415670041"><ele>132.0</ele><time>2026-04-18T12:52:34Z</time></trkpt><trkpt lat="43.30361635242436" lon="10.802842889433279"><ele>131.5</ele><time>2026-04-18T12:52:35Z</time></trkpt><trkpt lat="43.30366426884879" lon="10.802975031751116"><ele>131.0</ele><time>2026-04-18T12:52:36Z</time></trkpt><trkpt lat="43.30371736931517" lon="10.803162870539047"><ele>130.5</ele><time>2026-04-18T12:52:37Z</time></trkpt><trkpt lat="43.30374597879749" lon="10.803387922466115"><ele>130.0</ele><time>2026-04-18T12:52:38Z</time></trkpt><trkpt lat="43.303778080599784" lon="10.803635112663763"><ele>127.66666666666667</ele><time>2026-04-18T12:52:39Z</time></trkpt><trkpt lat="43.303830373581356" lon="10.803888204623842"><ele>125.33333333333334</ele><time>2026-04-18T12:52:40Z</time></trkpt><trkpt lat="43.30387920074853" lon="10.80415603045325"><ele>123.0</ele><time>2026-04-18T12:52:41Z</time></trkpt><trkpt lat="43.30393392847877" lon="10.80442925389498"><ele>116.33333333333334</ele><time>2026-04-18T12:52:42Z</time></trkpt><trkpt lat="43.30397421463246" lon="10.804685562714905"><ele>109.66666666666667</ele><time>2026-04-18T12:52:43Z</time></trkpt><trkpt lat="43.30402675651042" lon="10.804923749907275"><ele>103.0</ele><time>2026-04-18T12:52:44Z</time></trkpt><trkpt lat="43.30407549330132" lon="10.805144989336583"><ele>102.0</ele><time>2026-04-18T12:52:45Z</time></trkpt><trkpt lat="43.304083079798055" lon="10.805372831154541"><ele>101.0</ele><time>2026-04-18T12:52:46Z</time></trkpt><trkpt lat="43.304085459933" lon="10.805586877154731"><ele>100.0</ele><time>2026-04-18T12:52:47Z</time></trkpt><trkpt lat="43.304069201060344" lon="10.805792113954864"><ele>100.0</ele><time>2026-04-18T12:52:48Z</time></trkpt><trkpt lat="43.30402407315732" lon="10.80598008225647"><ele>100.0</ele><time>2026-04-18T12:52:49Z</time></trkpt><trkpt lat="43.30393806549908" lon="10.806139680675157"><ele>100.0</ele><time>2026-04-18T12:52:50Z</time></trkpt><trkpt lat="43.303819202419476" lon="10.806307248165657"><ele>100.0</ele><time>2026-04-18T12:52:51Z</time></trkpt><trkpt lat="43.30369288981977" lon="10.80650677012692"><ele>100.0</ele><time>2026-04-18T12:52:52Z</time></trkpt><trkpt lat="43.303546920529286" lon="10.806696701884775"><ele>100.0</ele><time>2026-04-18T12:52:53Z</time></trkpt><trkpt lat="43.30340976945891" lon="10.806889540879824"><ele>99.66666666666667</ele><time>2026-04-18T12:52:54Z</time></trkpt><trkpt lat="43.303282647018484" lon="10.807071019439473"><ele>99.33333333333334</ele><time>2026-04-18T12:52:55Z</time></trkpt><trkpt lat="43.30315331473468" lon="10.807245183946076"><ele>99.0</ele><time>2026-04-18T12:52:56Z</time></trkpt><trkpt lat="43.303029429086415" lon="10.807416153794787"><ele>99.75</ele><time>2026-04-18T12:52:57Z</time></trkpt><trkpt lat="43.302917035327745" lon="10.80757368360385"><ele>100.5</ele><time>2026-04-18T12:52:58Z</time></trkpt><trkpt lat="43.3028228387232" lon="10.807727491068045"><ele>101.25</ele><time>2026-04-18T12:52:59Z</time></trkpt><trkpt lat="43.302743327791504" lon="10.807889758454536"><ele>102.0</ele><time>2026-04-18T12:53:00Z</time></trkpt><trkpt lat="43.30268210529541" lon="10.808064855621124"><ele>102.0</ele><time>2026-04-18T12:53:01Z</time></trkpt><trkpt lat="43.30262857494306" lon="10.808227603484475"><ele>102.0</ele><time>2026-04-18T12:53:02Z</time></trkpt><trkpt lat="43.3025849831624" lon="10.808370290626234"><ele>102.0</ele><time>2026-04-18T12:53:03Z</time></trkpt><trkpt lat="43.302532286956215" lon="10.808528440767168"><ele>102.0</ele><time>2026-04-18T12:53:04Z</time></trkpt><trkpt lat="43.302476386997476" lon="10.808688861981107"><ele>102.0</ele><time>2026-04-18T12:53:05Z</time></trkpt><trkpt lat="43.30242001129693" lon="10.808857009089737"><ele>102.0</ele><time>2026-04-18T12:53:06Z</time></trkpt><trkpt lat="43.30236423225113" lon="10.80901408662671"><ele>102.0</ele><time>2026-04-18T12:53:07Z</time></trkpt><trkpt lat="43.30231746865394" lon="10.809136449826923"><ele>102.0</ele><time>2026-04-18T12:53:08.001Z</time></trkpt><trkpt lat="43.30227888256666" lon="10.809217856710388"><ele>102.0</ele><time>2026-04-18T12:53:09.001Z</time></trkpt><trkpt lat="43.30223645257942" lon="10.80930849304901"><ele>103.16666666666667</ele><time>2026-04-18T12:53:11.001Z</time></trkpt><trkpt lat="43.302128087739646" lon="10.809240964461743"><ele>104.33333333333334</ele><time>2026-04-18T12:53:12.001Z</time></trkpt><trkpt lat="43.30206669532041" lon="10.809190349594983"><ele>105.5</ele><time>2026-04-18T12:53:13.001Z</time></trkpt><trkpt lat="43.30201870862366" lon="10.809124929978015"><ele>106.66666666666667</ele><time>2026-04-18T12:53:14.001Z</time></trkpt><trkpt lat="43.30197604587079" lon="10.809042630730145"><ele>107.83333333333334</ele><time>2026-04-18T12:53:15.001Z</time></trkpt><trkpt lat="43.30192722075847" lon="10.808966542447807"><ele>109.0</ele><time>2026-04-18T12:53:16.001Z</time></trkpt><trkpt lat="43.30187127244172" lon="10.808896261993416"><ele>109.00000000000001</ele><time>2026-04-18T12:53:17.001Z</time></trkpt><trkpt lat="43.30181561711226" lon="10.808831411959218"><ele>109.0</ele><time>2026-04-18T12:53:18.001Z</time></trkpt><trkpt lat="43.30176281459727" lon="10.80877501703361"><ele>109.0</ele><time>2026-04-18T12:53:19.001Z</time></trkpt><trkpt lat="43.30171299861293" lon="10.808713301999598"><ele>109.0</ele><time>2026-04-18T12:53:20.001Z</time></trkpt><trkpt lat="43.301649250700585" lon="10.808646771213086"><ele>109.00000000000001</ele><time>2026-04-18T12:53:21.001Z</time></trkpt><trkpt lat="43.30158714761587" lon="10.808584265674005"><ele>109.0</ele><time>2026-04-18T12:53:22.001Z</time></trkpt><trkpt lat="43.30152092778482" lon="10.808508235057182"><ele>108.2</ele><time>2026-04-18T12:53:23.001Z</time></trkpt><trkpt lat="43.30145682431036" lon="10.808434262740358"><ele>107.4</ele><time>2026-04-18T12:53:24.001Z</time></trkpt><trkpt lat="43.30138397045994" lon="10.808361124051029"><ele>106.6</ele><time>2026-04-18T12:53:25.001Z</time></trkpt><trkpt lat="43.30131468462757" lon="10.808294261878421"><ele>105.8</ele><time>2026-04-18T12:53:26.001Z</time></trkpt><trkpt lat="43.30124661384771" lon="10.808265393112885"><ele>105.0</ele><time>2026-04-18T12:53:27.001Z</time></trkpt><trkpt lat="43.30113640381583" lon="10.80834945020197"><ele>106.6</ele><time>2026-04-18T12:53:29.001Z</time></trkpt><trkpt lat="43.301136060233944" lon="10.80845571042928"><ele>108.2</ele><time>2026-04-18T12:53:30.001Z</time></trkpt><trkpt lat="43.30117117152626" lon="10.808576903114318"><ele>109.80000000000001</ele><time>2026-04-18T12:53:31.001Z</time></trkpt><trkpt lat="43.301217173858525" lon="10.80870236928724"><ele>111.4</ele><time>2026-04-18T12:53:32.001Z</time></trkpt><trkpt lat="43.30124085706944" lon="10.808825075274765"><ele>113.0</ele><time>2026-04-18T12:53:33.001Z</time></trkpt><trkpt lat="43.30122919547038" lon="10.80894246845831"><ele>113.80000000000001</ele><time>2026-04-18T12:53:34.001Z</time></trkpt><trkpt lat="43.30118924666885" lon="10.809039426022702"><ele>114.60000000000001</ele><time>2026-04-18T12:53:35.001Z</time></trkpt><trkpt lat="43.30112371074585" lon="10.809120282247648"><ele>115.39999999999999</ele><time>2026-04-18T12:53:36.001Z</time></trkpt><trkpt lat="43.30102357110924" lon="10.80920686065452"><ele>116.19999999999999</ele><time>2026-04-18T12:53:37.001Z</time></trkpt><trkpt lat="43.30095168174808" lon="10.80929604169563"><ele>117.0</ele><time>2026-04-18T12:53:38.001Z</time></trkpt><trkpt lat="43.30085662898706" lon="10.809399269869674"><ele>117.0</ele><time>2026-04-18T12:53:39.001Z</time></trkpt><trkpt lat="43.30072322864244" lon="10.80952558372253"><ele>117.0</ele><time>2026-04-18T12:53:40.001Z</time></trkpt><trkpt lat="43.30062900361429" lon="10.80966192126373"><ele>117.0</ele><time>2026-04-18T12:53:41.001Z</time></trkpt><trkpt lat="43.30054869845308" lon="10.809795101713455"><ele>117.0</ele><time>2026-04-18T12:53:42.001Z</time></trkpt><trkpt lat="43.300493148673475" lon="10.809922952904785"><ele>121.0</ele><time>2026-04-18T12:53:43.001Z</time></trkpt><trkpt lat="43.30045879403948" lon="10.810067532636044"><ele>125.0</ele><time>2026-04-18T12:53:44.001Z</time></trkpt><trkpt lat="43.30043958210648" lon="10.810242560261038"><ele>129.0</ele><time>2026-04-18T12:53:45.001Z</time></trkpt><trkpt lat="43.300439742715334" lon="10.810423415940576"><ele>133.0</ele><time>2026-04-18T12:53:46.001Z</time></trkpt><trkpt lat="43.30044916877367" lon="10.810598454567383"><ele>133.4</ele><time>2026-04-18T12:53:47.001Z</time></trkpt><trkpt lat="43.30044154093095" lon="10.810720498035634"><ele>133.8</ele><time>2026-04-18T12:53:48.001Z</time></trkpt><trkpt lat="43.30037252639229" lon="10.810791957342353"><ele>134.2</ele><time>2026-04-18T12:53:49.001Z</time></trkpt><trkpt lat="43.30028560256444" lon="10.810784022230527"><ele>134.6</ele><time>2026-04-18T12:53:50.001Z</time></trkpt><trkpt lat="43.300215725051345" lon="10.810697712989747"><ele>135.0</ele><time>2026-04-18T12:53:51.001Z</time></trkpt><trkpt lat="43.30015151955341" lon="10.810577859208323"><ele>135.0</ele><time>2026-04-18T12:53:52.001Z</time></trkpt><trkpt lat="43.30007478161305" lon="10.810423828537642"><ele>135.0</ele><time>2026-04-18T12:53:53.001Z</time></trkpt><trkpt lat="43.300003234687395" lon="10.810237535955054"><ele>135.0</ele><time>2026-04-18T12:53:54.001Z</time></trkpt><trkpt lat="43.2999231816012" lon="10.810045002285802"><ele>134.5</ele><time>2026-04-18T12:53:54.999Z</time></trkpt><trkpt lat="43.299842894013885" lon="10.809865051272842"><ele>134.0</ele><time>2026-04-18T12:53:55.999Z</time></trkpt><trkpt lat="43.29975040250292" lon="10.809696823039987"><ele>133.5</ele><time>2026-04-18T12:53:56.999Z</time></trkpt><trkpt lat="43.299702842344374" lon="10.809559018042355"><ele>133.0</ele><time>2026-04-18T12:53:57.999Z</time></trkpt><trkpt lat="43.29967609307245" lon="10.809435144310275"><ele>133.75</ele><time>2026-04-18T12:53:58.999Z</time></trkpt><trkpt lat="43.299627294265875" lon="10.809360154751625"><ele>134.5</ele><time>2026-04-18T12:53:59.999Z</time></trkpt><trkpt lat="43.29954974683981" lon="10.809310912705358"><ele>135.25</ele><time>2026-04-18T12:54:00.999Z</time></trkpt><trkpt lat="43.299356190299996" lon="10.80928673580574"><ele>136.0</ele><time>2026-04-18T12:54:02.999Z</time></trkpt><trkpt lat="43.299240530344576" lon="10.80933163645922"><ele>137.5</ele><time>2026-04-18T12:54:03.999Z</time></trkpt><trkpt lat="43.29911831383553" lon="10.809384976194812"><ele>139.0</ele><time>2026-04-18T12:54:04.999Z</time></trkpt><trkpt lat="43.29899270220707" lon="10.809445115170716"><ele>140.5</ele><time>2026-04-18T12:54:05.999Z</time></trkpt><trkpt lat="43.298862768738985" lon="10.809515921430314"><ele>142.0</ele><time>2026-04-18T12:54:06.999Z</time></trkpt><trkpt lat="43.29871943769152" lon="10.809538533400339"><ele>142.25</ele><time>2026-04-18T12:54:07.999Z</time></trkpt><trkpt lat="43.29855556676011" lon="10.809590116257427"><ele>142.5</ele><time>2026-04-18T12:54:08.999Z</time></trkpt><trkpt lat="43.29842771297371" lon="10.809654615220978"><ele>142.75</ele><time>2026-04-18T12:54:09.999Z</time></trkpt><trkpt lat="43.298290127558005" lon="10.809713816921153"><ele>143.0</ele><time>2026-04-18T12:54:10.999Z</time></trkpt><trkpt lat="43.29814694380672" lon="10.80978834514644"><ele>142.66666666666666</ele><time>2026-04-18T12:54:11.999Z</time></trkpt><trkpt lat="43.29799693770049" lon="10.809873592322912"><ele>142.33333333333334</ele><time>2026-04-18T12:54:12.999Z</time></trkpt><trkpt lat="43.297844571859535" lon="10.80995861374384"><ele>142.0</ele><time>2026-04-18T12:54:13.999Z</time></trkpt><trkpt lat="43.29768608556555" lon="10.810044895571652"><ele>142.0</ele><time>2026-04-18T12:54:14.999Z</time></trkpt><trkpt lat="43.29752674191383" lon="10.810130820223735"><ele>142.0</ele><time>2026-04-18T12:54:15.999Z</time></trkpt><trkpt lat="43.297365283087075" lon="10.810215609034877"><ele>142.0</ele><time>2026-04-18T12:54:16.999Z</time></trkpt><trkpt lat="43.29720112597402" lon="10.810298922207604"><ele>144.33333333333334</ele><time>2026-04-18T12:54:17.999Z</time></trkpt><trkpt lat="43.297032921792244" lon="10.810379997285416"><ele>146.66666666666666</ele><time>2026-04-18T12:54:18.999Z</time></trkpt><trkpt lat="43.29687073503848" lon="10.810460603018942"><ele>149.0</ele><time>2026-04-18T12:54:19.999Z</time></trkpt><trkpt lat="43.296712606080504" lon="10.810553514280969"><ele>149.0</ele><time>2026-04-18T12:54:20.999Z</time></trkpt><trkpt lat="43.29655219067723" lon="10.810644552903469"><ele>149.0</ele><time>2026-04-18T12:54:21.999Z</time></trkpt><trkpt lat="43.29639356153696" lon="10.81073474724652"><ele>149.0</ele><time>2026-04-18T12:54:23Z</time></trkpt><trkpt lat="43.29623268205196" lon="10.81081991525526"><ele>149.0</ele><time>2026-04-18T12:54:24Z</time></trkpt><trkpt lat="43.29607586766472" lon="10.810896407371928"><ele>149.0</ele><time>2026-04-18T12:54:25Z</time></trkpt><trkpt lat="43.29591273584544" lon="10.81096487718649"><ele>149.0</ele><time>2026-04-18T12:54:26Z</time></trkpt><trkpt lat="43.295738832265116" lon="10.811014130179228"><ele>149.33333333333331</ele><time>2026-04-18T12:54:27Z</time></trkpt><trkpt lat="43.2955610923304" lon="10.811020993047109"><ele>149.66666666666666</ele><time>2026-04-18T12:54:28Z</time></trkpt><trkpt lat="43.295381925046186" lon="10.811000513971864"><ele>150.0</ele><time>2026-04-18T12:54:29Z</time></trkpt><trkpt lat="43.29520305740778" lon="10.810978404237456"><ele>150.33333333333334</ele><time>2026-04-18T12:54:30Z</time></trkpt><trkpt lat="43.295024665837644" lon="10.810962736730824"><ele>150.66666666666669</ele><time>2026-04-18T12:54:31Z</time></trkpt><trkpt lat="43.29484635187363" lon="10.810949964242344"><ele>151.0</ele><time>2026-04-18T12:54:32Z</time></trkpt><trkpt lat="43.29467324239776" lon="10.810933433966985"><ele>151.0</ele><time>2026-04-18T12:54:33Z</time></trkpt><trkpt lat="43.29450713349744" lon="10.810912310255185"><ele>151.0</ele><time>2026-04-18T12:54:34Z</time></trkpt><trkpt lat="43.294363142585865" lon="10.810900118968918"><ele>151.0</ele><time>2026-04-18T12:54:35Z</time></trkpt><trkpt lat="43.2942319180069" lon="10.810930252230031"><ele>151.0</ele><time>2026-04-18T12:54:36Z</time></trkpt><trkpt lat="43.29408640418738" lon="10.811004680204379"><ele>150.25</ele><time>2026-04-18T12:54:37Z</time></trkpt><trkpt lat="43.29395380033728" lon="10.811123189027036"><ele>149.5</ele><time>2026-04-18T12:54:38Z</time></trkpt><trkpt lat="43.293856733660476" lon="10.811250777612157"><ele>148.75</ele><time>2026-04-18T12:54:39Z</time></trkpt><trkpt lat="43.29375397890228" lon="10.811326201990276"><ele>148.0</ele><time>2026-04-18T12:54:40Z</time></trkpt><trkpt lat="43.293632200378475" lon="10.811306658261234"><ele>150.75</ele><time>2026-04-18T12:54:41Z</time></trkpt><trkpt lat="43.29350808563141" lon="10.811236611950065"><ele>153.5</ele><time>2026-04-18T12:54:42Z</time></trkpt><trkpt lat="43.293378718606164" lon="10.811137635866423"><ele>156.25</ele><time>2026-04-18T12:54:43Z</time></trkpt><trkpt lat="43.29322831101115" lon="10.811042706394431"><ele>159.0</ele><time>2026-04-18T12:54:44Z</time></trkpt><trkpt lat="43.29305304929464" lon="10.810974584355133"><ele>161.75</ele><time>2026-04-18T12:54:45Z</time></trkpt><trkpt lat="43.292923878261526" lon="10.81092128797637"><ele>164.5</ele><time>2026-04-18T12:54:46Z</time></trkpt><trkpt lat="43.292791643244136" lon="10.810869102732852"><ele>167.25</ele><time>2026-04-18T12:54:47Z</time></trkpt><trkpt lat="43.29266912568585" lon="10.810822561839188"><ele>170.0</ele><time>2026-04-18T12:54:48Z</time></trkpt><trkpt lat="43.29255098605012" lon="10.810778891987445"><ele>170.0</ele><time>2026-04-18T12:54:49Z</time></trkpt><trkpt lat="43.2924133582802" lon="10.81075279370032"><ele>170.0</ele><time>2026-04-18T12:54:50Z</time></trkpt><trkpt lat="43.2922559774156" lon="10.810744173420192"><ele>170.0</ele><time>2026-04-18T12:54:51Z</time></trkpt><trkpt lat="43.29209666306646" lon="10.810745382432584"><ele>172.0</ele><time>2026-04-18T12:54:52Z</time></trkpt><trkpt lat="43.29196682094466" lon="10.810753957078877"><ele>174.0</ele><time>2026-04-18T12:54:53Z</time></trkpt><trkpt lat="43.29185820731426" lon="10.810756513223565"><ele>176.0</ele><time>2026-04-18T12:54:54Z</time></trkpt><trkpt lat="43.29176990998354" lon="10.810737444924326"><ele>178.0</ele><time>2026-04-18T12:54:55Z</time></trkpt><trkpt lat="43.29170304801431" lon="10.810660870573521"><ele>180.0</ele><time>2026-04-18T12:54:56Z</time></trkpt><trkpt lat="43.29162591155496" lon="10.810595042849425"><ele>180.0</ele><time>2026-04-18T12:54:57Z</time></trkpt><trkpt lat="43.29155495717082" lon="10.810495245610115"><ele>180.0</ele><time>2026-04-18T12:54:58Z</time></trkpt><trkpt lat="43.29148712941762" lon="10.81036297769794"><ele>180.0</ele><time>2026-04-18T12:54:59Z</time></trkpt><trkpt lat="43.29140359168212" lon="10.81019086416477"><ele>180.0</ele><time>2026-04-18T12:55:00Z</time></trkpt><trkpt lat="43.291307379201115" lon="10.80999917728234"><ele>182.5</ele><time>2026-04-18T12:55:01Z</time></trkpt><trkpt lat="43.2911800714582" lon="10.80984581927158"><ele>185.0</ele><time>2026-04-18T12:55:02Z</time></trkpt><trkpt lat="43.291134933377634" lon="10.80973367980006"><ele>187.5</ele><time>2026-04-18T12:55:03Z</time></trkpt><trkpt lat="43.29110771458088" lon="10.80953777421201"><ele>190.0</ele><time>2026-04-18T12:55:05Z</time></trkpt><trkpt lat="43.29108192747337" lon="10.809358846123992"><ele>190.2</ele><time>2026-04-18T12:55:06Z</time></trkpt><trkpt lat="43.29106285166686" lon="10.809190630475593"><ele>190.4</ele><time>2026-04-18T12:55:07Z</time></trkpt><trkpt lat="43.29106724763641" lon="10.809057339878175"><ele>190.60000000000002</ele><time>2026-04-18T12:55:08Z</time></trkpt><trkpt lat="43.29110996355216" lon="10.808932646232387"><ele>190.8</ele><time>2026-04-18T12:55:09Z</time></trkpt><trkpt lat="43.291146395443185" lon="10.808787311134934"><ele>191.0</ele><time>2026-04-18T12:55:10Z</time></trkpt><trkpt lat="43.2911868277954" lon="10.808616656819954"><ele>191.0</ele><time>2026-04-18T12:55:11.001Z</time></trkpt><trkpt lat="43.29128289675315" lon="10.808504879562891"><ele>191.0</ele><time>2026-04-18T12:55:12.001Z</time></trkpt><trkpt lat="43.291343327710536" lon="10.80840238428692"><ele>191.0</ele><time>2026-04-18T12:55:13.001Z</time></trkpt><trkpt lat="43.2913696172454" lon="10.808283904182973"><ele>191.0</ele><time>2026-04-18T12:55:14.001Z</time></trkpt><trkpt lat="43.2913684205479" lon="10.808130816419244"><ele>191.0</ele><time>2026-04-18T12:55:15.001Z</time></trkpt><trkpt lat="43.29129423468054" lon="10.807964503476091"><ele>192.25</ele><time>2026-04-18T12:55:16.001Z</time></trkpt><trkpt lat="43.29123559436993" lon="10.807764159103696"><ele>193.5</ele><time>2026-04-18T12:55:17.001Z</time></trkpt><trkpt lat="43.29122114753569" lon="10.807566876925028"><ele>194.75</ele><time>2026-04-18T12:55:18.001Z</time></trkpt><trkpt lat="43.29119333677977" lon="10.807379319593172"><ele>196.0</ele><time>2026-04-18T12:55:19.001Z</time></trkpt><trkpt lat="43.29116170681258" lon="10.807182301466577"><ele>196.5</ele><time>2026-04-18T12:55:20.001Z</time></trkpt><trkpt lat="43.29112456485462" lon="10.806972144585849"><ele>197.0</ele><time>2026-04-18T12:55:21.001Z</time></trkpt><trkpt lat="43.291072899392525" lon="10.806810669019686"><ele>197.5</ele><time>2026-04-18T12:55:22.001Z</time></trkpt><trkpt lat="43.29101534787928" lon="10.806675900945775"><ele>198.0</ele><time>2026-04-18T12:55:23.001Z</time></trkpt><trkpt lat="43.290929954305895" lon="10.806559569546264"><ele>198.0</ele><time>2026-04-18T12:55:24.001Z</time></trkpt><trkpt lat="43.29083556158447" lon="10.806458898541464"><ele>198.0</ele><time>2026-04-18T12:55:25.001Z</time></trkpt><trkpt lat="43.29076947247811" lon="10.806426085834413"><ele>198.0</ele><time>2026-04-18T12:55:26.001Z</time></trkpt><trkpt lat="43.29069976382951" lon="10.806451371055076"><ele>198.0</ele><time>2026-04-18T12:55:27.001Z</time></trkpt><trkpt lat="43.290638583713005" lon="10.806525332843972"><ele>198.0</ele><time>2026-04-18T12:55:28.001Z</time></trkpt><trkpt lat="43.29062325589089" lon="10.806649640323412"><ele>198.0</ele><time>2026-04-18T12:55:29.001Z</time></trkpt><trkpt lat="43.29064526755991" lon="10.80677325131995"><ele>198.5</ele><time>2026-04-18T12:55:30.001Z</time></trkpt><trkpt lat="43.290671847734906" lon="10.806915746287684"><ele>199.0</ele><time>2026-04-18T12:55:31.001Z</time></trkpt><trkpt lat="43.290676061753715" lon="10.807076438209556"><ele>199.5</ele><time>2026-04-18T12:55:32.001Z</time></trkpt><trkpt lat="43.29065577849757" lon="10.807260763240802"><ele>200.0</ele><time>2026-04-18T12:55:33.001Z</time></trkpt><trkpt lat="43.2906393477791" lon="10.80743894877068"><ele>200.0</ele><time>2026-04-18T12:55:34.001Z</time></trkpt><trkpt lat="43.29060311394673" lon="10.807639438998601"><ele>200.0</ele><time>2026-04-18T12:55:35.001Z</time></trkpt><trkpt lat="43.29055701934737" lon="10.807832380170796"><ele>200.0</ele><time>2026-04-18T12:55:36.001Z</time></trkpt><trkpt lat="43.29050193888919" lon="10.80801789330824"><ele>200.0</ele><time>2026-04-18T12:55:37.001Z</time></trkpt><trkpt lat="43.29042192776113" lon="10.808163432205694"><ele>203.25</ele><time>2026-04-18T12:55:38.001Z</time></trkpt><trkpt lat="43.29032334592319" lon="10.808283890115646"><ele>206.5</ele><time>2026-04-18T12:55:39.001Z</time></trkpt><trkpt lat="43.29022217834699" lon="10.808416745738874"><ele>209.75</ele><time>2026-04-18T12:55:40.001Z</time></trkpt><trkpt lat="43.29012629870069" lon="10.808578421972012"><ele>213.0</ele><time>2026-04-18T12:55:41.001Z</time></trkpt><trkpt lat="43.29005668822835" lon="10.808743635523106"><ele>213.0</ele><time>2026-04-18T12:55:42.001Z</time></trkpt><trkpt lat="43.29001475335837" lon="10.808943749101116"><ele>213.0</ele><time>2026-04-18T12:55:43.001Z</time></trkpt><trkpt lat="43.28998802541691" lon="10.809162471562777"><ele>213.0</ele><time>2026-04-18T12:55:44.001Z</time></trkpt><trkpt lat="43.289965468567146" lon="10.80933831384833"><ele>213.0</ele><time>2026-04-18T12:55:45.001Z</time></trkpt><trkpt lat="43.289921621068686" lon="10.809454732028605"><ele>212.2</ele><time>2026-04-18T12:55:46.001Z</time></trkpt><trkpt lat="43.28984793240554" lon="10.80953442418296"><ele>211.4</ele><time>2026-04-18T12:55:47.001Z</time></trkpt><trkpt lat="43.28974182461348" lon="10.809565894486763"><ele>210.6</ele><time>2026-04-18T12:55:48.001Z</time></trkpt><trkpt lat="43.289635703722034" lon="10.80964940000971"><ele>209.79999999999998</ele><time>2026-04-18T12:55:49.001Z</time></trkpt><trkpt lat="43.289536906797245" lon="10.809738556105064"><ele>209.0</ele><time>2026-04-18T12:55:50.001Z</time></trkpt><trkpt lat="43.28945573547135" lon="10.809898942066523"><ele>213.5</ele><time>2026-04-18T12:55:51.001Z</time></trkpt><trkpt lat="43.2893748433952" lon="10.810068288211395"><ele>218.0</ele><time>2026-04-18T12:55:52.001Z</time></trkpt><trkpt lat="43.289307555251476" lon="10.810203666114589"><ele>222.5</ele><time>2026-04-18T12:55:53.001Z</time></trkpt><trkpt lat="43.28928362083486" lon="10.810331579292589"><ele>227.0</ele><time>2026-04-18T12:55:54.001Z</time></trkpt><trkpt lat="43.289319302899166" lon="10.8104900699868"><ele>227.0</ele><time>2026-04-18T12:55:55.001Z</time></trkpt><trkpt lat="43.289368860631576" lon="10.810644744932269"><ele>227.0</ele><time>2026-04-18T12:55:56.001Z</time></trkpt><trkpt lat="43.289374923829776" lon="10.810787408172889"><ele>227.0</ele><time>2026-04-18T12:55:57.001Z</time></trkpt><trkpt lat="43.28933182433291" lon="10.810907494779412"><ele>227.0</ele><time>2026-04-18T12:55:58.001Z</time></trkpt><trkpt lat="43.28927516930398" lon="10.8110985121437"><ele>226.66666666666669</ele><time>2026-04-18T12:55:59.001Z</time></trkpt><trkpt lat="43.28918811473906" lon="10.811289963522794"><ele>226.33333333333331</ele><time>2026-04-18T12:56:00.001Z</time></trkpt><trkpt lat="43.28911767806042" lon="10.811517091424884"><ele>226.0</ele><time>2026-04-18T12:56:00.999Z</time></trkpt><trkpt lat="43.28905581737361" lon="10.811674174750593"><ele>226.0</ele><time>2026-04-18T12:56:01.999Z</time></trkpt><trkpt lat="43.28900582497306" lon="10.811773863427934"><ele>226.0</ele><time>2026-04-18T12:56:02.999Z</time></trkpt><trkpt lat="43.288902288931375" lon="10.811787903069776"><ele>226.0</ele><time>2026-04-18T12:56:04.999Z</time></trkpt><trkpt lat="43.288875451293734" lon="10.811579804428717"><ele>226.0</ele><time>2026-04-18T12:56:06.999Z</time></trkpt><trkpt lat="43.28890675195007" lon="10.811438177825773"><ele>226.0</ele><time>2026-04-18T12:56:07.999Z</time></trkpt><trkpt lat="43.28892296928903" lon="10.811259770359614"><ele>226.0</ele><time>2026-04-18T12:56:09Z</time></trkpt><trkpt lat="43.288928099292136" lon="10.811084684224166"><ele>226.0</ele><time>2026-04-18T12:56:10Z</time></trkpt><trkpt lat="43.28890037274107" lon="10.810899859824179"><ele>226.0</ele><time>2026-04-18T12:56:11Z</time></trkpt><trkpt lat="43.288836412398645" lon="10.810692910028038"><ele>230.0</ele><time>2026-04-18T12:56:12Z</time></trkpt><trkpt lat="43.28879251921609" lon="10.810498465333776"><ele>234.0</ele><time>2026-04-18T12:56:13Z</time></trkpt><trkpt lat="43.28874977307066" lon="10.810335953207113"><ele>238.0</ele><time>2026-04-18T12:56:14Z</time></trkpt><trkpt lat="43.288730646875464" lon="10.810194462481173"><ele>242.0</ele><time>2026-04-18T12:56:15Z</time></trkpt><trkpt lat="43.28871527007739" lon="10.810045393721389"><ele>243.25</ele><time>2026-04-18T12:56:16Z</time></trkpt><trkpt lat="43.28873441785518" lon="10.809887437274789"><ele>244.5</ele><time>2026-04-18T12:56:17Z</time></trkpt><trkpt lat="43.288763566722125" lon="10.80970573690681"><ele>245.75</ele><time>2026-04-18T12:56:18Z</time></trkpt><trkpt lat="43.28879135970378" lon="10.809499834665003"><ele>247.0</ele><time>2026-04-18T12:56:19Z</time></trkpt><trkpt lat="43.288788887343856" lon="10.809306437246008"><ele>247.83333333333331</ele><time>2026-04-18T12:56:20Z</time></trkpt><trkpt lat="43.288782120925305" lon="10.809165661408793"><ele>248.66666666666666</ele><time>2026-04-18T12:56:21Z</time></trkpt><trkpt lat="43.28875875273897" lon="10.80905323867025"><ele>249.5</ele><time>2026-04-18T12:56:22Z</time></trkpt><trkpt lat="43.28871083580273" lon="10.808973036567624"><ele>250.33333333333331</ele><time>2026-04-18T12:56:23Z</time></trkpt><trkpt lat="43.288660536407455" lon="10.808917314640688"><ele>251.16666666666666</ele><time>2026-04-18T12:56:24Z</time></trkpt><trkpt lat="43.28858121750164" lon="10.808979515434801"><ele>252.0</ele><time>2026-04-18T12:56:25Z</time></trkpt><trkpt lat="43.28852279843705" lon="10.809076590702738"><ele>252.0</ele><time>2026-04-18T12:56:26Z</time></trkpt><trkpt lat="43.288481806700375" lon="10.809221036512128"><ele>252.0</ele><time>2026-04-18T12:56:27Z</time></trkpt><trkpt lat="43.2884652128354" lon="10.80938845685342"><ele>252.0</ele><time>2026-04-18T12:56:28Z</time></trkpt><trkpt lat="43.28842486144444" lon="10.809564083983435"><ele>252.0</ele><time>2026-04-18T12:56:29Z</time></trkpt><trkpt lat="43.28837798160398" lon="10.80975168593117"><ele>250.75</ele><time>2026-04-18T12:56:30Z</time></trkpt><trkpt lat="43.2883343957818" lon="10.809950698801037"><ele>249.5</ele><time>2026-04-18T12:56:31Z</time></trkpt><trkpt lat="43.28829971435983" lon="10.810147942352838"><ele>248.25</ele><time>2026-04-18T12:56:32Z</time></trkpt><trkpt lat="43.28828652824951" lon="10.810336467144824"><ele>247.0</ele><time>2026-04-18T12:56:33Z</time></trkpt><trkpt lat="43.28826990503027" lon="10.810528825037316"><ele>245.75</ele><time>2026-04-18T12:56:34Z</time></trkpt><trkpt lat="43.28825850302707" lon="10.810719143680906"><ele>244.5</ele><time>2026-04-18T12:56:35Z</time></trkpt><trkpt lat="43.28825668705464" lon="10.810885935390711"><ele>243.25</ele><time>2026-04-18T12:56:36Z</time></trkpt><trkpt lat="43.28822196285188" lon="10.81104152476901"><ele>242.0</ele><time>2026-04-18T12:56:37Z</time></trkpt><trkpt lat="43.288155342437854" lon="10.811204135045518"><ele>244.0</ele><time>2026-04-18T12:56:38Z</time></trkpt><trkpt lat="43.28805407736668" lon="10.811320974901024"><ele>246.0</ele><time>2026-04-18T12:56:39Z</time></trkpt><trkpt lat="43.28794136302725" lon="10.811430689264185"><ele>248.0</ele><time>2026-04-18T12:56:40Z</time></trkpt><trkpt lat="43.28781531444257" lon="10.811563287740697"><ele>250.0</ele><time>2026-04-18T12:56:41Z</time></trkpt><trkpt lat="43.2876842499998" lon="10.811664825176642"><ele>250.0</ele><time>2026-04-18T12:56:42Z</time></trkpt><trkpt lat="43.287562266103805" lon="10.811713157570479"><ele>250.0</ele><time>2026-04-18T12:56:43Z</time></trkpt><trkpt lat="43.28743324129169" lon="10.811737323919543"><ele>250.0</ele><time>2026-04-18T12:56:44Z</time></trkpt><trkpt lat="43.28729809980251" lon="10.811810864512422"><ele>250.0</ele><time>2026-04-18T12:56:45Z</time></trkpt><trkpt lat="43.287154577209606" lon="10.811866289372405"><ele>253.5</ele><time>2026-04-18T12:56:46Z</time></trkpt><trkpt lat="43.28703637402122" lon="10.811992520702317"><ele>257.0</ele><time>2026-04-18T12:56:47Z</time></trkpt><trkpt lat="43.28694231920077" lon="10.812111860549768"><ele>260.5</ele><time>2026-04-18T12:56:48Z</time></trkpt><trkpt lat="43.286870727143224" lon="10.812239325669768"><ele>264.0</ele><time>2026-04-18T12:56:49Z</time></trkpt><trkpt lat="43.286845201002436" lon="10.81237695646695"><ele>264.0</ele><time>2026-04-18T12:56:50Z</time></trkpt><trkpt lat="43.2868414588287" lon="10.812523333317008"><ele>264.0</ele><time>2026-04-18T12:56:51Z</time></trkpt><trkpt lat="43.28687534949211" lon="10.812696538082518"><ele>264.0</ele><time>2026-04-18T12:56:52Z</time></trkpt><trkpt lat="43.28694416150453" lon="10.812894496442018"><ele>264.0</ele><time>2026-04-18T12:56:53Z</time></trkpt><trkpt lat="43.286979753133586" lon="10.81305855608069"><ele>263.4</ele><time>2026-04-18T12:56:54Z</time></trkpt><trkpt lat="43.287010089640624" lon="10.813192711999383"><ele>262.79999999999995</ele><time>2026-04-18T12:56:55Z</time></trkpt><trkpt lat="43.28698853262012" lon="10.813288533744883"><ele>262.20000000000005</ele><time>2026-04-18T12:56:56Z</time></trkpt><trkpt lat="43.286937231372285" lon="10.813431706721131"><ele>261.6</ele><time>2026-04-18T12:56:57Z</time></trkpt><trkpt lat="43.28684964334748" lon="10.813543832527717"><ele>261.0</ele><time>2026-04-18T12:56:58Z</time></trkpt><trkpt lat="43.2867388403607" lon="10.813676680392012"><ele>259.0</ele><time>2026-04-18T12:56:59Z</time></trkpt><trkpt lat="43.28660694963786" lon="10.813810617655376"><ele>257.0</ele><time>2026-04-18T12:57:00Z</time></trkpt><trkpt lat="43.28647630642157" lon="10.813931941950651"><ele>255.0</ele><time>2026-04-18T12:57:01Z</time></trkpt><trkpt lat="43.28636799431777" lon="10.814025970983154"><ele>257.75</ele><time>2026-04-18T12:57:02.001Z</time></trkpt><trkpt lat="43.28628589639293" lon="10.814164041058588"><ele>260.5</ele><time>2026-04-18T12:57:03.001Z</time></trkpt><trkpt lat="43.28622634258934" lon="10.814342426610157"><ele>263.25</ele><time>2026-04-18T12:57:04.001Z</time></trkpt><trkpt lat="43.28618103129768" lon="10.814517251103393"><ele>266.0</ele><time>2026-04-18T12:57:05.001Z</time></trkpt><trkpt lat="43.286129032377" lon="10.814648816742643"><ele>266.0</ele><time>2026-04-18T12:57:06.001Z</time></trkpt><trkpt lat="43.28605187384405" lon="10.814712978749288"><ele>266.0</ele><time>2026-04-18T12:57:07.001Z</time></trkpt><trkpt lat="43.285944258088364" lon="10.814745950048804"><ele>266.0</ele><time>2026-04-18T12:57:08.001Z</time></trkpt><trkpt lat="43.285812915601376" lon="10.814807122195374"><ele>266.0</ele><time>2026-04-18T12:57:09.001Z</time></trkpt><trkpt lat="43.28565685841567" lon="10.8148311873649"><ele>267.5</ele><time>2026-04-18T12:57:10.001Z</time></trkpt><trkpt lat="43.28552540980569" lon="10.81489966760055"><ele>269.0</ele><time>2026-04-18T12:57:11.001Z</time></trkpt><trkpt lat="43.2853982623997" lon="10.814964716489348"><ele>270.5</ele><time>2026-04-18T12:57:12.001Z</time></trkpt><trkpt lat="43.2852724864817" lon="10.815078809370323"><ele>272.0</ele><time>2026-04-18T12:57:13.001Z</time></trkpt><trkpt lat="43.28514606623646" lon="10.815230864261007"><ele>272.0</ele><time>2026-04-18T12:57:14.001Z</time></trkpt><trkpt lat="43.28500327837619" lon="10.81541629161699"><ele>272.0</ele><time>2026-04-18T12:57:15.001Z</time></trkpt><trkpt lat="43.284867287259054" lon="10.815575076313138"><ele>272.0</ele><time>2026-04-18T12:57:16.001Z</time></trkpt><trkpt lat="43.28475268755926" lon="10.81570133035587"><ele>273.8</ele><time>2026-04-18T12:57:17.001Z</time></trkpt><trkpt lat="43.28466044113325" lon="10.815800276189712"><ele>275.6</ele><time>2026-04-18T12:57:18.001Z</time></trkpt><trkpt lat="43.28457918953933" lon="10.815873569746513"><ele>277.40000000000003</ele><time>2026-04-18T12:57:19.001Z</time></trkpt><trkpt lat="43.28448394094839" lon="10.81592916763504"><ele>279.2</ele><time>2026-04-18T12:57:21.001Z</time></trkpt><trkpt lat="43.28437056512797" lon="10.815921985719998"><ele>281.0</ele><time>2026-04-18T12:57:23.001Z</time></trkpt><trkpt lat="43.284328644204706" lon="10.815810591363507"><ele>281.0</ele><time>2026-04-18T12:57:24.001Z</time></trkpt><trkpt lat="43.28426954001322" lon="10.815724752447418"><ele>281.0</ele><time>2026-04-18T12:57:25.001Z</time></trkpt><trkpt lat="43.28419354474628" lon="10.815609413217016"><ele>281.0</ele><time>2026-04-18T12:57:26.001Z</time></trkpt><trkpt lat="43.284103216004766" lon="10.815511715664705"><ele>281.0</ele><time>2026-04-18T12:57:27.001Z</time></trkpt><trkpt lat="43.28400893498745" lon="10.815380210233032"><ele>281.0</ele><time>2026-04-18T12:57:28.001Z</time></trkpt><trkpt lat="43.28393054238252" lon="10.815240455834218"><ele>280.33333333333337</ele><time>2026-04-18T12:57:29.001Z</time></trkpt><trkpt lat="43.28380603111726" lon="10.815169288566395"><ele>279.6666666666667</ele><time>2026-04-18T12:57:30.001Z</time></trkpt><trkpt lat="43.283674560390764" lon="10.815137524902996"><ele>279.0</ele><time>2026-04-18T12:57:31.001Z</time></trkpt><trkpt lat="43.28338330850701" lon="10.815255075531024"><ele>279.0</ele><time>2026-04-18T12:57:33.001Z</time></trkpt><trkpt lat="43.283285478765634" lon="10.815318324564187"><ele>279.0</ele><time>2026-04-18T12:57:34.001Z</time></trkpt><trkpt lat="43.283200020000024" lon="10.815320054774572"><ele>279.0</ele><time>2026-04-18T12:57:35.001Z</time></trkpt><trkpt lat="43.2831423191433" lon="10.815267272788844"><ele>279.0</ele><time>2026-04-18T12:57:36.001Z</time></trkpt><trkpt lat="43.28312525308627" lon="10.815179182005366"><ele>279.0</ele><time>2026-04-18T12:57:37.001Z</time></trkpt><trkpt lat="43.28315836865851" lon="10.81507961122542"><ele>279.0</ele><time>2026-04-18T12:57:38.001Z</time></trkpt><trkpt lat="43.28324972275036" lon="10.815031853110794"><ele>282.25</ele><time>2026-04-18T12:57:39.001Z</time></trkpt><trkpt lat="43.28334068699428" lon="10.814949769280789"><ele>285.5</ele><time>2026-04-18T12:57:40.001Z</time></trkpt><trkpt lat="43.28343956878591" lon="10.81482421916687"><ele>288.75</ele><time>2026-04-18T12:57:41.001Z</time></trkpt><trkpt lat="43.283548478337785" lon="10.814710926174255"><ele>292.0</ele><time>2026-04-18T12:57:42.001Z</time></trkpt><trkpt lat="43.283676317667314" lon="10.814576803715367"><ele>292.0</ele><time>2026-04-18T12:57:43.001Z</time></trkpt><trkpt lat="43.28380110935665" lon="10.814458129061853"><ele>292.0</ele><time>2026-04-18T12:57:44.001Z</time></trkpt><trkpt lat="43.2839265250809" lon="10.814405963212161"><ele>292.0</ele><time>2026-04-18T12:57:45.001Z</time></trkpt><trkpt lat="43.28402469398441" lon="10.814317076515374"><ele>292.0</ele><time>2026-04-18T12:57:46.001Z</time></trkpt><trkpt lat="43.28412151415578" lon="10.814247271458584"><ele>293.25</ele><time>2026-04-18T12:57:47.001Z</time></trkpt><trkpt lat="43.28420479734835" lon="10.814147363031768"><ele>294.5</ele><time>2026-04-18T12:57:48.001Z</time></trkpt><trkpt lat="43.28428267758301" lon="10.81398709947614"><ele>295.75</ele><time>2026-04-18T12:57:49.001Z</time></trkpt><trkpt lat="43.28435093270205" lon="10.813805026673956"><ele>297.0</ele><time>2026-04-18T12:57:50.001Z</time></trkpt><trkpt lat="43.28440172790764" lon="10.813637611025735"><ele>299.5</ele><time>2026-04-18T12:57:51.001Z</time></trkpt><trkpt lat="43.284418598009815" lon="10.81346464164606"><ele>302.0</ele><time>2026-04-18T12:57:52.001Z</time></trkpt><trkpt lat="43.28441617006664" lon="10.813265002699374"><ele>304.5</ele><time>2026-04-18T12:57:53.002Z</time></trkpt><trkpt lat="43.28441191809932" lon="10.813042823762776"><ele>307.0</ele><time>2026-04-18T12:57:54.002Z</time></trkpt><trkpt lat="43.284405252981806" lon="10.812837234776014"><ele>307.0</ele><time>2026-04-18T12:57:55.002Z</time></trkpt><trkpt lat="43.28442383683708" lon="10.812681979371764"><ele>307.0</ele><time>2026-04-18T12:57:56.002Z</time></trkpt><trkpt lat="43.2844700526706" lon="10.812552331787632"><ele>307.0</ele><time>2026-04-18T12:57:57.002Z</time></trkpt><trkpt lat="43.28452807980187" lon="10.812400150809523"><ele>307.0</ele><time>2026-04-18T12:57:58.002Z</time></trkpt><trkpt lat="43.28459441771938" lon="10.81224099228114"><ele>311.5</ele><time>2026-04-18T12:57:59.002Z</time></trkpt><trkpt lat="43.28460398202463" lon="10.812066489204105"><ele>316.0</ele><time>2026-04-18T12:58:00.002Z</time></trkpt><trkpt lat="43.28463225285245" lon="10.811866801751686"><ele>320.5</ele><time>2026-04-18T12:58:01.002Z</time></trkpt><trkpt lat="43.2846491740822" lon="10.811647885291158"><ele>325.0</ele><time>2026-04-18T12:58:02.002Z</time></trkpt><trkpt lat="43.28470519977888" lon="10.81144602771135"><ele>322.3333333333333</ele><time>2026-04-18T12:58:03.002Z</time></trkpt><trkpt lat="43.284759193771286" lon="10.81121792998196"><ele>319.6666666666667</ele><time>2026-04-18T12:58:04.002Z</time></trkpt><trkpt lat="43.28481185695859" lon="10.810998334983791"><ele>317.0</ele><time>2026-04-18T12:58:05.002Z</time></trkpt><trkpt lat="43.28485993399173" lon="10.810817269143916"><ele>317.0</ele><time>2026-04-18T12:58:06.002Z</time></trkpt><trkpt lat="43.284926201753066" lon="10.810675459919066"><ele>317.0</ele><time>2026-04-18T12:58:07Z</time></trkpt><trkpt lat="43.28500615297209" lon="10.810526473828823"><ele>317.0</ele><time>2026-04-18T12:58:08Z</time></trkpt><trkpt lat="43.28506179086172" lon="10.810395609753712"><ele>317.0</ele><time>2026-04-18T12:58:09Z</time></trkpt><trkpt lat="43.28512472024105" lon="10.810261682706415"><ele>321.0</ele><time>2026-04-18T12:58:10Z</time></trkpt><trkpt lat="43.285157724354285" lon="10.810078132164453"><ele>325.0</ele><time>2026-04-18T12:58:11Z</time></trkpt><trkpt lat="43.285183768541906" lon="10.80987059960211"><ele>329.0</ele><time>2026-04-18T12:58:12Z</time></trkpt><trkpt lat="43.285202451090484" lon="10.809673787612933"><ele>333.0</ele><time>2026-04-18T12:58:13Z</time></trkpt><trkpt lat="43.28516252264941" lon="10.809480309734717"><ele>332.6666666666667</ele><time>2026-04-18T12:58:14Z</time></trkpt><trkpt lat="43.28511967113627" lon="10.80928882205656"><ele>332.33333333333337</ele><time>2026-04-18T12:58:15Z</time></trkpt><trkpt lat="43.28505974046355" lon="10.809085901443682"><ele>332.0</ele><time>2026-04-18T12:58:16Z</time></trkpt><trkpt lat="43.28499684577667" lon="10.80889781183136"><ele>332.0</ele><time>2026-04-18T12:58:17Z</time></trkpt><trkpt lat="43.284952036678916" lon="10.808722823841274"><ele>332.0</ele><time>2026-04-18T12:58:18Z</time></trkpt><trkpt lat="43.284866202230894" lon="10.808551584298861"><ele>332.0</ele><time>2026-04-18T12:58:19Z</time></trkpt><trkpt lat="43.28477236161635" lon="10.808391332698868"><ele>332.0</ele><time>2026-04-18T12:58:20Z</time></trkpt><trkpt lat="43.28472254784662" lon="10.808266331309982"><ele>330.5</ele><time>2026-04-18T12:58:21Z</time></trkpt><trkpt lat="43.28470739042498" lon="10.808146829979169"><ele>329.0</ele><time>2026-04-18T12:58:22Z</time></trkpt><trkpt lat="43.28477527041765" lon="10.808023347289005"><ele>327.5</ele><time>2026-04-18T12:58:23Z</time></trkpt><trkpt lat="43.28482250600531" lon="10.807847215429689"><ele>326.0</ele><time>2026-04-18T12:58:24Z</time></trkpt><trkpt lat="43.28485864266929" lon="10.807658988963553"><ele>326.0</ele><time>2026-04-18T12:58:25Z</time></trkpt><trkpt lat="43.284885302697155" lon="10.807475894329608"><ele>326.0</ele><time>2026-04-18T12:58:26Z</time></trkpt><trkpt lat="43.2849002275803" lon="10.807325415032844"><ele>326.0</ele><time>2026-04-18T12:58:27Z</time></trkpt><trkpt lat="43.28485977150353" lon="10.807141076396018"><ele>326.0</ele><time>2026-04-18T12:58:28Z</time></trkpt><trkpt lat="43.28481304832186" lon="10.806932975190058"><ele>326.0</ele><time>2026-04-18T12:58:29Z</time></trkpt><trkpt lat="43.28475583914285" lon="10.806720470825162"><ele>326.0</ele><time>2026-04-18T12:58:30Z</time></trkpt><trkpt lat="43.28474550210567" lon="10.806552505420576"><ele>326.0</ele><time>2026-04-18T12:58:31Z</time></trkpt><trkpt lat="43.284753267487055" lon="10.806434469808487"><ele>326.0</ele><time>2026-04-18T12:58:32Z</time></trkpt><trkpt lat="43.284778050733074" lon="10.806309980691275"><ele>326.0</ele><time>2026-04-18T12:58:33Z</time></trkpt><trkpt lat="43.28482260312316" lon="10.806123613707866"><ele>326.0</ele><time>2026-04-18T12:58:34Z</time></trkpt><trkpt lat="43.2848738381245" lon="10.80590048535428"><ele>326.0</ele><time>2026-04-18T12:58:35Z</time></trkpt><trkpt lat="43.2849052885419" lon="10.805695276069581"><ele>327.5</ele><time>2026-04-18T12:58:36Z</time></trkpt><trkpt lat="43.28487138366889" lon="10.805526117351814"><ele>329.0</ele><time>2026-04-18T12:58:37Z</time></trkpt><trkpt lat="43.28485473189002" lon="10.805339860486665"><ele>330.5</ele><time>2026-04-18T12:58:38Z</time></trkpt><trkpt lat="43.284838888213564" lon="10.80514668344503"><ele>332.0</ele><time>2026-04-18T12:58:39Z</time></trkpt><trkpt lat="43.28485002570358" lon="10.80494572860479"><ele>333.5</ele><time>2026-04-18T12:58:40Z</time></trkpt><trkpt lat="43.28487260418504" lon="10.80475003558851"><ele>335.0</ele><time>2026-04-18T12:58:41Z</time></trkpt><trkpt lat="43.28488755862225" lon="10.804536579919516"><ele>336.5</ele><time>2026-04-18T12:58:42Z</time></trkpt><trkpt lat="43.28493413312962" lon="10.804373062811663"><ele>338.0</ele><time>2026-04-18T12:58:43Z</time></trkpt><trkpt lat="43.28501625237707" lon="10.80424383574153"><ele>339.2</ele><time>2026-04-18T12:58:44Z</time></trkpt><trkpt lat="43.285075461648965" lon="10.804092556565816"><ele>340.4</ele><time>2026-04-18T12:58:45Z</time></trkpt><trkpt lat="43.28509579706369" lon="10.803950718710764"><ele>341.59999999999997</ele><time>2026-04-18T12:58:46Z</time></trkpt><trkpt lat="43.28511391831856" lon="10.803838171280413"><ele>342.79999999999995</ele><time>2026-04-18T12:58:47Z</time></trkpt><trkpt lat="43.285073953341346" lon="10.803696633743893"><ele>344.0</ele><time>2026-04-18T12:58:48Z</time></trkpt><trkpt lat="43.28493949009567" lon="10.803569277142614"><ele>342.75</ele><time>2026-04-18T12:58:49Z</time></trkpt><trkpt lat="43.284828195532" lon="10.803436700546161"><ele>341.5</ele><time>2026-04-18T12:58:50Z</time></trkpt><trkpt lat="43.28475659680938" lon="10.803315588370872"><ele>340.25</ele><time>2026-04-18T12:58:51.001Z</time></trkpt><trkpt lat="43.284657070067865" lon="10.803231889774432"><ele>339.0</ele><time>2026-04-18T12:58:52.001Z</time></trkpt><trkpt lat="43.28456941566577" lon="10.803268887581957"><ele>343.0</ele><time>2026-04-18T12:58:53.001Z</time></trkpt><trkpt lat="43.28451427073577" lon="10.803357358726096"><ele>347.0</ele><time>2026-04-18T12:58:54.001Z</time></trkpt><trkpt lat="43.28453047597468" lon="10.803471944496598"><ele>351.0</ele><time>2026-04-18T12:58:55.001Z</time></trkpt><trkpt lat="43.284568932258196" lon="10.803567444879503"><ele>355.0</ele><time>2026-04-18T12:58:56.001Z</time></trkpt><trkpt lat="43.28467894207364" lon="10.803614811881838"><ele>359.0</ele><time>2026-04-18T12:58:57.001Z</time></trkpt><trkpt lat="43.28476125209857" lon="10.803695977573087"><ele>360.6666666666667</ele><time>2026-04-18T12:58:58.001Z</time></trkpt><trkpt lat="43.28478354663478" lon="10.803804956574616"><ele>362.33333333333337</ele><time>2026-04-18T12:58:59.001Z</time></trkpt><trkpt lat="43.28476247366203" lon="10.803910729505606"><ele>364.0</ele><time>2026-04-18T12:59:00.001Z</time></trkpt><trkpt lat="43.284720951852236" lon="10.803999750423435"><ele>365.6666666666667</ele><time>2026-04-18T12:59:01.001Z</time></trkpt><trkpt lat="43.28466965087678" lon="10.804090778641335"><ele>367.3333333333333</ele><time>2026-04-18T12:59:02.001Z</time></trkpt><trkpt lat="43.28462197589234" lon="10.804203806951712"><ele>369.0</ele><time>2026-04-18T12:59:03.001Z</time></trkpt><trkpt lat="43.28457529835341" lon="10.80433844257021"><ele>369.0</ele><time>2026-04-18T12:59:04.001Z</time></trkpt><trkpt lat="43.28453407274042" lon="10.80447988616741"><ele>369.0</ele><time>2026-04-18T12:59:05.001Z</time></trkpt><trkpt lat="43.28450447281994" lon="10.804634389557934"><ele>369.0</ele><time>2026-04-18T12:59:06.001Z</time></trkpt><trkpt lat="43.284447388429044" lon="10.804768116190411"><ele>369.0</ele><time>2026-04-18T12:59:07.001Z</time></trkpt><trkpt lat="43.28433761815662" lon="10.804857180852807"><ele>369.0</ele><time>2026-04-18T12:59:08.001Z</time></trkpt><trkpt lat="43.28421040675813" lon="10.804941862014752"><ele>369.0</ele><time>2026-04-18T12:59:09.001Z</time></trkpt><trkpt lat="43.28411892433734" lon="10.805054857005949"><ele>369.0</ele><time>2026-04-18T12:59:10.001Z</time></trkpt><trkpt lat="43.28404439310866" lon="10.805206623327559"><ele>369.0</ele><time>2026-04-18T12:59:11.001Z</time></trkpt><trkpt lat="43.28400242872379" lon="10.805371487219315"><ele>367.5</ele><time>2026-04-18T12:59:12.001Z</time></trkpt><trkpt lat="43.283969247461414" lon="10.805527791366332"><ele>366.0</ele><time>2026-04-18T12:59:13.001Z</time></trkpt><trkpt lat="43.28387005743862" lon="10.805590715067341"><ele>364.5</ele><time>2026-04-18T12:59:14.001Z</time></trkpt><trkpt lat="43.28375742511493" lon="10.805710013519983"><ele>363.0</ele><time>2026-04-18T12:59:15.001Z</time></trkpt><trkpt lat="43.28366675158431" lon="10.805849408636655"><ele>367.4</ele><time>2026-04-18T12:59:16.001Z</time></trkpt><trkpt lat="43.28358308911757" lon="10.80599380660004"><ele>371.79999999999995</ele><time>2026-04-18T12:59:17.001Z</time></trkpt><trkpt lat="43.283547452388596" lon="10.806120805164694"><ele>376.2</ele><time>2026-04-18T12:59:18.001Z</time></trkpt><trkpt lat="43.283542480222906" lon="10.806257557095288"><ele>380.6</ele><time>2026-04-18T12:59:19.001Z</time></trkpt><trkpt lat="43.28357578657573" lon="10.806406152270764"><ele>385.0</ele><time>2026-04-18T12:59:20.001Z</time></trkpt><trkpt lat="43.283646566509994" lon="10.806534415311093"><ele>387.0</ele><time>2026-04-18T12:59:21.001Z</time></trkpt><trkpt lat="43.283758210495456" lon="10.806665802905146"><ele>389.0</ele><time>2026-04-18T12:59:22.001Z</time></trkpt><trkpt lat="43.283839766917296" lon="10.806825090950928"><ele>391.0</ele><time>2026-04-18T12:59:23.001Z</time></trkpt><trkpt lat="43.283916980162275" lon="10.806973961821345"><ele>393.0</ele><time>2026-04-18T12:59:24.001Z</time></trkpt><trkpt lat="43.28397535224577" lon="10.807102717742065"><ele>393.8333333333333</ele><time>2026-04-18T12:59:25.001Z</time></trkpt><trkpt lat="43.28400043598157" lon="10.807225419359243"><ele>394.66666666666663</ele><time>2026-04-18T12:59:26.001Z</time></trkpt><trkpt lat="43.28400076959379" lon="10.80733648404226"><ele>395.5</ele><time>2026-04-18T12:59:27.001Z</time></trkpt><trkpt lat="43.28397908730238" lon="10.807442448023146"><ele>396.3333333333333</ele><time>2026-04-18T12:59:28.001Z</time></trkpt><trkpt lat="43.28392641108082" lon="10.807551875066478"><ele>397.16666666666663</ele><time>2026-04-18T12:59:30.001Z</time></trkpt><trkpt lat="43.28384425015534" lon="10.807545787453723"><ele>398.0</ele><time>2026-04-18T12:59:31.001Z</time></trkpt><trkpt lat="43.283681817860526" lon="10.807423856865986"><ele>398.0</ele><time>2026-04-18T12:59:33.001Z</time></trkpt><trkpt lat="43.283539807057394" lon="10.807409060124266"><ele>398.0</ele><time>2026-04-18T12:59:34.001Z</time></trkpt><trkpt lat="43.28340923657507" lon="10.80746217370413"><ele>398.0</ele><time>2026-04-18T12:59:35.001Z</time></trkpt><trkpt lat="43.28333873296198" lon="10.807527025166111"><ele>398.0</ele><time>2026-04-18T12:59:36.001Z</time></trkpt><trkpt lat="43.28330621833998" lon="10.807603280989287"><ele>398.0</ele><time>2026-04-18T12:59:37.001Z</time></trkpt><trkpt lat="43.28340086706039" lon="10.807734143370434"><ele>400.5</ele><time>2026-04-18T12:59:38.001Z</time></trkpt><trkpt lat="43.283465443266635" lon="10.807889343490162"><ele>403.0</ele><time>2026-04-18T12:59:39.001Z</time></trkpt><trkpt lat="43.28355195792432" lon="10.808049378992864"><ele>405.5</ele><time>2026-04-18T12:59:40.001Z</time></trkpt><trkpt lat="43.28364970982095" lon="10.808224933168121"><ele>408.0</ele><time>2026-04-18T12:59:41.001Z</time></trkpt><trkpt lat="43.28371505595255" lon="10.80838530989825"><ele>409.4</ele><time>2026-04-18T12:59:42.001Z</time></trkpt><trkpt lat="43.28376610827436" lon="10.808524303772648"><ele>410.79999999999995</ele><time>2026-04-18T12:59:43.002Z</time></trkpt><trkpt lat="43.283761275918074" lon="10.808649869005972"><ele>412.2</ele><time>2026-04-18T12:59:44.002Z</time></trkpt><trkpt lat="43.28374440205837" lon="10.808758791172774"><ele>413.6</ele><time>2026-04-18T12:59:45.002Z</time></trkpt><trkpt lat="43.28372268234465" lon="10.808868609874702"><ele>415.0</ele><time>2026-04-18T12:59:46.002Z</time></trkpt><trkpt lat="43.2837000637767" lon="10.809004383565718"><ele>415.0</ele><time>2026-04-18T12:59:47.002Z</time></trkpt><trkpt lat="43.283690849104374" lon="10.809155915127521"><ele>415.0</ele><time>2026-04-18T12:59:48.002Z</time></trkpt><trkpt lat="43.283725277184324" lon="10.809326627329195"><ele>415.0</ele><time>2026-04-18T12:59:49.002Z</time></trkpt><trkpt lat="43.28378800565956" lon="10.809449598965994"><ele>415.0</ele><time>2026-04-18T12:59:50.002Z</time></trkpt><trkpt lat="43.28386218482055" lon="10.809592559192351"><ele>411.4</ele><time>2026-04-18T12:59:51.002Z</time></trkpt><trkpt lat="43.283965944022434" lon="10.809736191421582"><ele>407.8</ele><time>2026-04-18T12:59:52.002Z</time></trkpt><trkpt lat="43.28397842339532" lon="10.809847948701293"><ele>404.20000000000005</ele><time>2026-04-18T12:59:53.002Z</time></trkpt><trkpt lat="43.283972616121694" lon="10.809971396355191"><ele>400.6</ele><time>2026-04-18T12:59:54.002Z</time></trkpt><trkpt lat="43.283930298851004" lon="10.810085848307994"><ele>397.0</ele><time>2026-04-18T12:59:55.002Z</time></trkpt><trkpt lat="43.28386008681124" lon="10.810171233918053"><ele>397.0</ele><time>2026-04-18T12:59:56.002Z</time></trkpt><trkpt lat="43.283777693745726" lon="10.810224127024537"><ele>397.0</ele><time>2026-04-18T12:59:57.002Z</time></trkpt><trkpt lat="43.283695316982" lon="10.810270815152625"><ele>397.0</ele><time>2026-04-18T12:59:58.002Z</time></trkpt><trkpt lat="43.283558517618545" lon="10.810313839520317"><ele>397.0</ele><time>2026-04-18T12:59:59.002Z</time></trkpt><trkpt lat="43.283418122304475" lon="10.81034498978343"><ele>397.0</ele><time>2026-04-18T13:00:00.002Z</time></trkpt><trkpt lat="43.28329446116843" lon="10.81035084161285"><ele>397.0</ele><time>2026-04-18T13:00:01.002Z</time></trkpt><trkpt lat="43.28320137906391" lon="10.810336246572392"><ele>397.0</ele><time>2026-04-18T13:00:02.002Z</time></trkpt><trkpt lat="43.28313963473107" lon="10.810290453610513"><ele>397.0</ele><time>2026-04-18T13:00:03.002Z</time></trkpt><trkpt lat="43.28306284206875" lon="10.8101895592662"><ele>397.0</ele><time>2026-04-18T13:00:04.002Z</time></trkpt><trkpt lat="43.28298298057878" lon="10.810072039608546"><ele>400.0</ele><time>2026-04-18T13:00:05.002Z</time></trkpt><trkpt lat="43.282889383892375" lon="10.809929812879254"><ele>403.0</ele><time>2026-04-18T13:00:06.002Z</time></trkpt><trkpt lat="43.282816338118145" lon="10.809799780318"><ele>406.0</ele><time>2026-04-18T13:00:07.002Z</time></trkpt><trkpt lat="43.2827176453194" lon="10.809673378240511"><ele>409.0</ele><time>2026-04-18T13:00:08.002Z</time></trkpt><trkpt lat="43.2826066257632" lon="10.809595055981323"><ele>409.0</ele><time>2026-04-18T13:00:09.002Z</time></trkpt><trkpt lat="43.28247981773395" lon="10.809599593502094"><ele>409.0</ele><time>2026-04-18T13:00:10.002Z</time></trkpt><trkpt lat="43.282359762332945" lon="10.8096206328409"><ele>409.0</ele><time>2026-04-18T13:00:11.002Z</time></trkpt><trkpt lat="43.28224718427496" lon="10.809684978075044"><ele>409.0</ele><time>2026-04-18T13:00:12.002Z</time></trkpt><trkpt lat="43.28216247644855" lon="10.809727255858597"><ele>409.0</ele><time>2026-04-18T13:00:13.001Z</time></trkpt><trkpt lat="43.282140107205635" lon="10.809632092940818"><ele>409.0</ele><time>2026-04-18T13:00:15.001Z</time></trkpt><trkpt lat="43.28221821573449" lon="10.809570828909294"><ele>409.0</ele><time>2026-04-18T13:00:18.001Z</time></trkpt><trkpt lat="43.282307540809775" lon="10.80953968426846"><ele>409.0</ele><time>2026-04-18T13:00:19.001Z</time></trkpt><trkpt lat="43.28241287587453" lon="10.809466860914764"><ele>409.0</ele><time>2026-04-18T13:00:20.001Z</time></trkpt><trkpt lat="43.28252035340994" lon="10.809469657683394"><ele>409.0</ele><time>2026-04-18T13:00:21.001Z</time></trkpt><trkpt lat="43.28263064933258" lon="10.809485175189119"><ele>409.0</ele><time>2026-04-18T13:00:22.001Z</time></trkpt><trkpt lat="43.28273406936679" lon="10.809508222819662"><ele>409.0</ele><time>2026-04-18T13:00:23.001Z</time></trkpt><trkpt lat="43.28292480592063" lon="10.80957049908943"><ele>409.0</ele><time>2026-04-18T13:00:24.001Z</time></trkpt><trkpt lat="43.283046732356475" lon="10.80960830588539"><ele>409.4</ele><time>2026-04-18T13:00:25.001Z</time></trkpt><trkpt lat="43.28316461292351" lon="10.809619645118646"><ele>409.79999999999995</ele><time>2026-04-18T13:00:26.001Z</time></trkpt><trkpt lat="43.28322533266937" lon="10.809579830645257"><ele>410.20000000000005</ele><time>2026-04-18T13:00:27.001Z</time></trkpt><trkpt lat="43.283190568698274" lon="10.809383909859344"><ele>410.6</ele><time>2026-04-18T13:00:29.001Z</time></trkpt><trkpt lat="43.283168627004066" lon="10.809260745259726"><ele>411.0</ele><time>2026-04-18T13:00:30.001Z</time></trkpt><trkpt lat="43.28311923439962" lon="10.809119416621051"><ele>414.6</ele><time>2026-04-18T13:00:31.001Z</time></trkpt><trkpt lat="43.28305338226287" lon="10.808999828481426"><ele>418.20000000000005</ele><time>2026-04-18T13:00:32.001Z</time></trkpt><trkpt lat="43.28300318619677" lon="10.808857976562464"><ele>421.79999999999995</ele><time>2026-04-18T13:00:33.001Z</time></trkpt><trkpt lat="43.2829235824643" lon="10.808740252851322"><ele>425.4</ele><time>2026-04-18T13:00:34.001Z</time></trkpt><trkpt lat="43.2828380958107" lon="10.808675674537735"><ele>429.0</ele><time>2026-04-18T13:00:35.001Z</time></trkpt><trkpt lat="43.28276913212668" lon="10.808649305614818"><ele>429.0</ele><time>2026-04-18T13:00:36.001Z</time></trkpt><trkpt lat="43.282653778019984" lon="10.808761302863795"><ele>429.0</ele><time>2026-04-18T13:00:37.001Z</time></trkpt><trkpt lat="43.28255005585295" lon="10.808814553977088"><ele>429.0</ele><time>2026-04-18T13:00:38.001Z</time></trkpt><trkpt lat="43.28241359910217" lon="10.808816608822129"><ele>429.0</ele><time>2026-04-18T13:00:39.001Z</time></trkpt><trkpt lat="43.28228146331927" lon="10.808809242501592"><ele>428.79999999999995</ele><time>2026-04-18T13:00:40.001Z</time></trkpt><trkpt lat="43.28216458316091" lon="10.808789272982846"><ele>428.59999999999997</ele><time>2026-04-18T13:00:41.001Z</time></trkpt><trkpt lat="43.28204307714971" lon="10.808765654477495"><ele>428.4</ele><time>2026-04-18T13:00:42.001Z</time></trkpt><trkpt lat="43.281937980137094" lon="10.808742232222123"><ele>428.2</ele><time>2026-04-18T13:00:43.001Z</time></trkpt><trkpt lat="43.281858909582354" lon="10.808740151195178"><ele>428.0</ele><time>2026-04-18T13:00:44.001Z</time></trkpt><trkpt lat="43.281793148877924" lon="10.808705043138735"><ele>427.99999999999994</ele><time>2026-04-18T13:00:45.001Z</time></trkpt><trkpt lat="43.28171918842196" lon="10.808663440357568"><ele>428.0</ele><time>2026-04-18T13:00:46.001Z</time></trkpt><trkpt lat="43.28166337998263" lon="10.808596764732101"><ele>428.0</ele><time>2026-04-18T13:00:47.001Z</time></trkpt><trkpt lat="43.28161578643487" lon="10.808539298468169"><ele>428.0</ele><time>2026-04-18T13:00:48.001Z</time></trkpt><trkpt lat="43.28163027722399" lon="10.808436911979156"><ele>427.99999999999994</ele><time>2026-04-18T13:00:49.001Z</time></trkpt><trkpt lat="43.28170851242709" lon="10.808320526528577"><ele>428.0</ele><time>2026-04-18T13:00:51.001Z</time></trkpt><trkpt lat="43.28177129994887" lon="10.808279006456615"><ele>430.99999999999994</ele><time>2026-04-18T13:00:54.001Z</time></trkpt><trkpt lat="43.281790571962695" lon="10.808160179191695"><ele>434.0</ele><time>2026-04-18T13:02:07.002Z</time></trkpt><trkpt lat="43.28178681912598" lon="10.808005302698406"><ele>437.0</ele><time>2026-04-18T13:02:09.002Z</time></trkpt><trkpt lat="43.28178447363539" lon="10.80790850583644"><ele>440.0</ele><time>2026-04-18T13:02:11.002Z</time></trkpt><trkpt lat="43.28181425953405" lon="10.807813363035569"><ele>442.99999999999994</ele><time>2026-04-18T13:02:14.002Z</time></trkpt><trkpt lat="43.28179442086385" lon="10.80789772710792"><ele>446.0</ele><time>2026-04-18T13:02:43.001Z</time></trkpt><trkpt lat="43.28178972110429" lon="10.808001348150649"><ele>446.0</ele><time>2026-04-18T13:02:50.001Z</time></trkpt><trkpt lat="43.28178415897319" lon="10.808252521997339"><ele>446.0</ele><time>2026-04-18T13:02:55.001Z</time></trkpt><trkpt lat="43.28172097611747" lon="10.808273897781389"><ele>446.0</ele><time>2026-04-18T13:03:03.001Z</time></trkpt><trkpt lat="43.281660640768955" lon="10.80822084275808"><ele>446.0</ele><time>2026-04-18T13:03:05.001Z</time></trkpt><trkpt lat="43.28161191674017" lon="10.80813790966808"><ele>446.0</ele><time>2026-04-18T13:03:07.001Z</time></trkpt><trkpt lat="43.28154208808485" lon="10.808085105971628"><ele>445.99999999999994</ele><time>2026-04-18T13:03:10.001Z</time></trkpt><trkpt lat="43.28148031775529" lon="10.808036334103738"><ele>446.0</ele><time>2026-04-18T13:03:12.001Z</time></trkpt><trkpt lat="43.28140640951251" lon="10.807961075350017"><ele>446.0</ele><time>2026-04-18T13:03:14.001Z</time></trkpt><trkpt lat="43.281340496389454" lon="10.807891280015417"><ele>446.0</ele><time>2026-04-18T13:03:17.001Z</time></trkpt><trkpt lat="43.2812587387498" lon="10.80793644967842"><ele>445.99999999999994</ele><time>2026-04-18T13:03:33.002Z</time></trkpt><trkpt lat="43.28117415626211" lon="10.807926236664573"><ele>446.0</ele><time>2026-04-18T13:03:35.002Z</time></trkpt><trkpt lat="43.2810943917599" lon="10.807956900073211"><ele>443.8</ele><time>2026-04-18T13:03:37.002Z</time></trkpt><trkpt lat="43.28101753666911" lon="10.807952680423378"><ele>441.6</ele><time>2026-04-18T13:03:40.002Z</time></trkpt><trkpt lat="43.28095154778604" lon="10.80796629899263"><ele>439.4</ele><time>2026-04-18T13:03:43.002Z</time></trkpt><trkpt lat="43.28104314341388" lon="10.807958558574063"><ele>437.2</ele><time>2026-04-18T13:04:17.002Z</time></trkpt><trkpt lat="43.28114871506054" lon="10.80792893579142"><ele>435.0</ele><time>2026-04-18T13:04:19.002Z</time></trkpt><trkpt lat="43.281256372345034" lon="10.807947535015659"><ele>435.0</ele><time>2026-04-18T13:04:20.002Z</time></trkpt><trkpt lat="43.2813623904933" lon="10.807955313334906"><ele>435.0</ele><time>2026-04-18T13:04:22.002Z</time></trkpt><trkpt lat="43.281431645798804" lon="10.807954067196073"><ele>435.0</ele><time>2026-04-18T13:04:27.001Z</time></trkpt><trkpt lat="43.28149583846604" lon="10.807952881498865"><ele>435.0</ele><time>2026-04-18T13:04:28.001Z</time></trkpt><trkpt lat="43.28156502806205" lon="10.807953544088573"><ele>435.0</ele><time>2026-04-18T13:04:29.001Z</time></trkpt><trkpt lat="43.28167121694436" lon="10.807954560999143"><ele>435.0</ele><time>2026-04-18T13:04:31.001Z</time></trkpt><trkpt lat="43.281759988850965" lon="10.808273120614789"><ele>433.6</ele><time>2026-04-18T13:04:33.001Z</time></trkpt><trkpt lat="43.28176293961741" lon="10.808394897906638"><ele>432.2</ele><time>2026-04-18T13:04:35.001Z</time></trkpt><trkpt lat="43.281628416930594" lon="10.808461647154076"><ele>430.79999999999995</ele><time>2026-04-18T13:04:36.001Z</time></trkpt><trkpt lat="43.281637970359654" lon="10.808579288663575"><ele>429.4</ele><time>2026-04-18T13:04:38.001Z</time></trkpt><trkpt lat="43.28168437124655" lon="10.808644455927405"><ele>428.0</ele><time>2026-04-18T13:04:39.001Z</time></trkpt><trkpt lat="43.281741258434124" lon="10.808756898871481"><ele>428.0</ele><time>2026-04-18T13:04:41.001Z</time></trkpt><trkpt lat="43.28166944546256" lon="10.80861463731496"><ele>427.99999999999994</ele><time>2026-04-18T13:04:48.001Z</time></trkpt><trkpt lat="43.28158182204694" lon="10.80853522362515"><ele>427.99999999999994</ele><time>2026-04-18T13:04:50.001Z</time></trkpt><trkpt lat="43.28151147663759" lon="10.808468047691854"><ele>428.0</ele><time>2026-04-18T13:04:52.001Z</time></trkpt><trkpt lat="43.28145229291412" lon="10.808410646596577"><ele>428.0</ele><time>2026-04-18T13:05:06.001Z</time></trkpt><trkpt lat="43.281361060966624" lon="10.808332483735159"><ele>429.16666666666663</ele><time>2026-04-18T13:05:08.001Z</time></trkpt><trkpt lat="43.28129086397164" lon="10.8082849507298"><ele>430.3333333333333</ele><time>2026-04-18T13:05:09.001Z</time></trkpt><trkpt lat="43.28121286379777" lon="10.808246534186923"><ele>431.5</ele><time>2026-04-18T13:05:10.001Z</time></trkpt><trkpt lat="43.28112118946518" lon="10.808233129222304"><ele>432.66666666666663</ele><time>2026-04-18T13:05:12.001Z</time></trkpt><trkpt lat="43.281033224053836" lon="10.80822320801338"><ele>433.8333333333333</ele><time>2026-04-18T13:05:13.001Z</time></trkpt><trkpt lat="43.28094490071073" lon="10.808214190155867"><ele>435.0</ele><time>2026-04-18T13:05:14.001Z</time></trkpt><trkpt lat="43.28085128062631" lon="10.808211708843404"><ele>435.0</ele><time>2026-04-18T13:05:15.001Z</time></trkpt><trkpt lat="43.280765934503066" lon="10.808213672863843"><ele>435.0</ele><time>2026-04-18T13:05:16.001Z</time></trkpt><trkpt lat="43.280668579640796" lon="10.808224540941655"><ele>435.0</ele><time>2026-04-18T13:05:17.001Z</time></trkpt><trkpt lat="43.28057712269504" lon="10.808266863738043"><ele>435.0</ele><time>2026-04-18T13:05:18.001Z</time></trkpt><trkpt lat="43.28049092655961" lon="10.808276549572131"><ele>435.0</ele><time>2026-04-18T13:05:19.001Z</time></trkpt><trkpt lat="43.28041474274497" lon="10.808312057720071"><ele>435.0</ele><time>2026-04-18T13:05:20.001Z</time></trkpt><trkpt lat="43.28035006851435" lon="10.808367908595093"><ele>435.5</ele><time>2026-04-18T13:05:21.001Z</time></trkpt><trkpt lat="43.280291103811635" lon="10.808440642996148"><ele>436.0</ele><time>2026-04-18T13:05:22.001Z</time></trkpt><trkpt lat="43.28022044921758" lon="10.808493051550164"><ele>436.5</ele><time>2026-04-18T13:05:23.001Z</time></trkpt><trkpt lat="43.28012894056538" lon="10.808467270140383"><ele>437.0</ele><time>2026-04-18T13:05:24.001Z</time></trkpt><trkpt lat="43.28004049722527" lon="10.808498400359003"><ele>437.5</ele><time>2026-04-18T13:05:25.001Z</time></trkpt><trkpt lat="43.2799410792182" lon="10.80849605407649"><ele>438.0</ele><time>2026-04-18T13:05:26.001Z</time></trkpt><trkpt lat="43.27984894267516" lon="10.8085607777747"><ele>440.5</ele><time>2026-04-18T13:05:27.001Z</time></trkpt><trkpt lat="43.27975174368842" lon="10.808643225033466"><ele>443.0</ele><time>2026-04-18T13:05:28.001Z</time></trkpt><trkpt lat="43.27964389725956" lon="10.808725894559421"><ele>445.5</ele><time>2026-04-18T13:05:29.001Z</time></trkpt><trkpt lat="43.27955018219306" lon="10.808843075172256"><ele>448.0</ele><time>2026-04-18T13:05:30.001Z</time></trkpt><trkpt lat="43.27947547367821" lon="10.808934275244367"><ele>448.00000000000006</ele><time>2026-04-18T13:05:31.001Z</time></trkpt><trkpt lat="43.279407383554" lon="10.809005656028749"><ele>448.0</ele><time>2026-04-18T13:05:32.001Z</time></trkpt><trkpt lat="43.27935199993628" lon="10.809070008157182"><ele>448.0</ele><time>2026-04-18T13:05:33.001Z</time></trkpt><trkpt lat="43.27925880295252" lon="10.809076443612275"><ele>448.0</ele><time>2026-04-18T13:05:35.001Z</time></trkpt><trkpt lat="43.27918281032926" lon="10.808966407521858"><ele>448.00000000000006</ele><time>2026-04-18T13:05:37.001Z</time></trkpt><trkpt lat="43.27913993575359" lon="10.808897297905453"><ele>448.0</ele><time>2026-04-18T13:05:38.001Z</time></trkpt><trkpt lat="43.279096436217344" lon="10.808813223630963"><ele>448.0</ele><time>2026-04-18T13:05:39.001Z</time></trkpt><trkpt lat="43.27908894232446" lon="10.808636373851003"><ele>447.99999999999994</ele><time>2026-04-18T13:05:41.001Z</time></trkpt><trkpt lat="43.279092646270904" lon="10.808534639366396"><ele>447.99999999999994</ele><time>2026-04-18T13:05:42.001Z</time></trkpt><trkpt lat="43.27908502914533" lon="10.80841347404319"><ele>448.0</ele><time>2026-04-18T13:05:43.001Z</time></trkpt><trkpt lat="43.27905084075338" lon="10.80827270712247"><ele>448.0</ele><time>2026-04-18T13:05:44.001Z</time></trkpt><trkpt lat="43.27903368375448" lon="10.808150730522536"><ele>448.0</ele><time>2026-04-18T13:05:45.001Z</time></trkpt><trkpt lat="43.27901799247596" lon="10.808006643918752"><ele>448.0</ele><time>2026-04-18T13:05:46.001Z</time></trkpt><trkpt lat="43.278969149696856" lon="10.807864139067666"><ele>448.0</ele><time>2026-04-18T13:05:47.001Z</time></trkpt><trkpt lat="43.278871367068774" lon="10.807744063919687"><ele>448.0</ele><time>2026-04-18T13:05:48.001Z</time></trkpt><trkpt lat="43.278740233069335" lon="10.807692795542419"><ele>450.79999999999995</ele><time>2026-04-18T13:05:49.001Z</time></trkpt><trkpt lat="43.278631603487824" lon="10.807650136676752"><ele>453.59999999999997</ele><time>2026-04-18T13:05:50.001Z</time></trkpt><trkpt lat="43.2785383821415" lon="10.807591668328255"><ele>456.40000000000003</ele><time>2026-04-18T13:05:51.002Z</time></trkpt><trkpt lat="43.278480062753026" lon="10.807513118839294"><ele>459.20000000000005</ele><time>2026-04-18T13:05:52.002Z</time></trkpt><trkpt lat="43.27844050557958" lon="10.807427062981729"><ele>462.0</ele><time>2026-04-18T13:05:53.002Z</time></trkpt><trkpt lat="43.27839306263925" lon="10.807313404199942"><ele>462.0</ele><time>2026-04-18T13:05:54.002Z</time></trkpt><trkpt lat="43.27834361363032" lon="10.80717947936487"><ele>462.00000000000006</ele><time>2026-04-18T13:05:55.002Z</time></trkpt><trkpt lat="43.278305654120025" lon="10.80703321524358"><ele>462.00000000000006</ele><time>2026-04-18T13:05:56.002Z</time></trkpt><trkpt lat="43.27825217598544" lon="10.80688958189138"><ele>462.0</ele><time>2026-04-18T13:05:57.002Z</time></trkpt><trkpt lat="43.2781825758375" lon="10.80679131293621"><ele>462.0</ele><time>2026-04-18T13:05:58.002Z</time></trkpt><trkpt lat="43.27810878461651" lon="10.806735905018568"><ele>463.0</ele><time>2026-04-18T13:05:59.002Z</time></trkpt><trkpt lat="43.27799953571922" lon="10.806751325071282"><ele>464.00000000000006</ele><time>2026-04-18T13:06:00.002Z</time></trkpt><trkpt lat="43.27791087174925" lon="10.806759795360287"><ele>465.00000000000006</ele><time>2026-04-18T13:06:01.002Z</time></trkpt><trkpt lat="43.27781924968865" lon="10.806756163113805"><ele>466.0</ele><time>2026-04-18T13:06:02.002Z</time></trkpt><trkpt lat="43.27772961282591" lon="10.806737438690117"><ele>467.0</ele><time>2026-04-18T13:06:03.002Z</time></trkpt><trkpt lat="43.27766365757628" lon="10.806704024034511"><ele>467.0</ele><time>2026-04-18T13:06:04.002Z</time></trkpt><trkpt lat="43.27757473010879" lon="10.806616776673987"><ele>467.00000000000006</ele><time>2026-04-18T13:06:06.002Z</time></trkpt><trkpt lat="43.27753041058017" lon="10.806554559568523"><ele>467.00000000000006</ele><time>2026-04-18T13:06:07.002Z</time></trkpt><trkpt lat="43.277448458462636" lon="10.806459492203638"><ele>467.0</ele><time>2026-04-18T13:06:08.002Z</time></trkpt><trkpt lat="43.277391181981734" lon="10.806317024097108"><ele>467.0</ele><time>2026-04-18T13:06:09.002Z</time></trkpt><trkpt lat="43.27733253854876" lon="10.806201355337356"><ele>467.0</ele><time>2026-04-18T13:06:10.002Z</time></trkpt><trkpt lat="43.27727686514416" lon="10.806067457556"><ele>467.0</ele><time>2026-04-18T13:06:11.002Z</time></trkpt><trkpt lat="43.2772061732538" lon="10.805892094480223"><ele>467.0</ele><time>2026-04-18T13:06:12.002Z</time></trkpt><trkpt lat="43.27713440324965" lon="10.805737079928804"><ele>467.0</ele><time>2026-04-18T13:06:13.002Z</time></trkpt><trkpt lat="43.27707631655062" lon="10.805615874991116"><ele>467.49999999999994</ele><time>2026-04-18T13:06:14.002Z</time></trkpt><trkpt lat="43.27702622446896" lon="10.805521957023306"><ele>468.0</ele><time>2026-04-18T13:06:15.002Z</time></trkpt><trkpt lat="43.276971216756685" lon="10.805453942975221"><ele>468.5</ele><time>2026-04-18T13:06:16.002Z</time></trkpt><trkpt lat="43.27691272356805" lon="10.805408417943658"><ele>469.0</ele><time>2026-04-18T13:06:17.002Z</time></trkpt><trkpt lat="43.27681913002146" lon="10.805396897206807"><ele>469.49999999999994</ele><time>2026-04-18T13:06:18.002Z</time></trkpt><trkpt lat="43.27673203316009" lon="10.805474351125012"><ele>470.0</ele><time>2026-04-18T13:06:19.002Z</time></trkpt><trkpt lat="43.27663536816167" lon="10.805552168747843"><ele>470.0</ele><time>2026-04-18T13:06:20.002Z</time></trkpt><trkpt lat="43.27653466573961" lon="10.805590092198251"><ele>470.0</ele><time>2026-04-18T13:06:21.002Z</time></trkpt><trkpt lat="43.27645186940169" lon="10.8055848140573"><ele>470.0</ele><time>2026-04-18T13:06:22.002Z</time></trkpt><trkpt lat="43.276348098504855" lon="10.805587590068379"><ele>470.0</ele><time>2026-04-18T13:06:23.002Z</time></trkpt><trkpt lat="43.276262363647" lon="10.805582900857255"><ele>470.0</ele><time>2026-04-18T13:06:24.002Z</time></trkpt><trkpt lat="43.2761838818573" lon="10.805581008470021"><ele>469.0</ele><time>2026-04-18T13:06:25.002Z</time></trkpt><trkpt lat="43.27607940837912" lon="10.80550862542802"><ele>468.0</ele><time>2026-04-18T13:06:27.002Z</time></trkpt><trkpt lat="43.27603543033173" lon="10.80544264107805"><ele>467.0</ele><time>2026-04-18T13:06:28.002Z</time></trkpt><trkpt lat="43.275995141686025" lon="10.805371836128588"><ele>466.0</ele><time>2026-04-18T13:06:29.002Z</time></trkpt><trkpt lat="43.27590961152581" lon="10.80524463188878"><ele>465.0</ele><time>2026-04-18T13:06:31Z</time></trkpt><trkpt lat="43.27585607665014" lon="10.805117344014347"><ele>465.0</ele><time>2026-04-18T13:06:33Z</time></trkpt><trkpt lat="43.27575567630184" lon="10.804968281950684"><ele>465.0</ele><time>2026-04-18T13:06:35Z</time></trkpt><trkpt lat="43.27564913493926" lon="10.804900204172176"><ele>465.0</ele><time>2026-04-18T13:06:36Z</time></trkpt><trkpt lat="43.275551199380054" lon="10.804852518771266"><ele>465.0</ele><time>2026-04-18T13:06:37Z</time></trkpt><trkpt lat="43.275457411589095" lon="10.804827230979056"><ele>465.0</ele><time>2026-04-18T13:06:38Z</time></trkpt><trkpt lat="43.27536202435358" lon="10.804821425851602"><ele>465.0</ele><time>2026-04-18T13:06:39Z</time></trkpt><trkpt lat="43.275257352859114" lon="10.804858945812615"><ele>465.0</ele><time>2026-04-18T13:06:40Z</time></trkpt><trkpt lat="43.27514174205842" lon="10.804883472657039"><ele>465.0</ele><time>2026-04-18T13:06:41Z</time></trkpt><trkpt lat="43.275001850230396" lon="10.804936545971302"><ele>465.0</ele><time>2026-04-18T13:06:42Z</time></trkpt><trkpt lat="43.274888995501996" lon="10.804964974662253"><ele>465.0</ele><time>2026-04-18T13:06:43Z</time></trkpt><trkpt lat="43.2748006276695" lon="10.805003982266701"><ele>465.0</ele><time>2026-04-18T13:06:44Z</time></trkpt><trkpt lat="43.27470907403476" lon="10.805029417748448"><ele>465.0</ele><time>2026-04-18T13:06:45Z</time></trkpt><trkpt lat="43.27460672043842" lon="10.805067801652484"><ele>465.0</ele><time>2026-04-18T13:06:46Z</time></trkpt><trkpt lat="43.27449271582141" lon="10.805105916799052"><ele>463.0</ele><time>2026-04-18T13:06:47Z</time></trkpt><trkpt lat="43.27437623810659" lon="10.80514684826992"><ele>461.0</ele><time>2026-04-18T13:06:48Z</time></trkpt><trkpt lat="43.27425464336144" lon="10.805179292547674"><ele>459.0</ele><time>2026-04-18T13:06:49Z</time></trkpt><trkpt lat="43.27411274547317" lon="10.805206805819363"><ele>457.0</ele><time>2026-04-18T13:06:50Z</time></trkpt><trkpt lat="43.273952862395504" lon="10.805230052872659"><ele>455.0</ele><time>2026-04-18T13:06:51Z</time></trkpt><trkpt lat="43.27377755451498" lon="10.805253413078258"><ele>453.0</ele><time>2026-04-18T13:06:52Z</time></trkpt><trkpt lat="43.27362368938693" lon="10.805266956244726"><ele>451.0</ele><time>2026-04-18T13:06:53Z</time></trkpt><trkpt lat="43.27349032859525" lon="10.80528200952114"><ele>451.0</ele><time>2026-04-18T13:06:54.001Z</time></trkpt><trkpt lat="43.273356430406466" lon="10.805297597637232"><ele>451.0</ele><time>2026-04-18T13:06:55.001Z</time></trkpt><trkpt lat="43.27322040743425" lon="10.80531250806351"><ele>451.0</ele><time>2026-04-18T13:06:56.001Z</time></trkpt><trkpt lat="43.27308247002629" lon="10.80531785413299"><ele>451.0</ele><time>2026-04-18T13:06:57.001Z</time></trkpt><trkpt lat="43.27295690453793" lon="10.805327750855932"><ele>450.75</ele><time>2026-04-18T13:06:58.001Z</time></trkpt><trkpt lat="43.272836692707266" lon="10.805337429403734"><ele>450.5</ele><time>2026-04-18T13:06:59.001Z</time></trkpt><trkpt lat="43.27270750153555" lon="10.805358610689359"><ele>450.25</ele><time>2026-04-18T13:07:00.001Z</time></trkpt><trkpt lat="43.2725684004341" lon="10.80539539120393"><ele>450.0</ele><time>2026-04-18T13:07:01.001Z</time></trkpt><trkpt lat="43.272432004020565" lon="10.805436527768103"><ele>450.0</ele><time>2026-04-18T13:07:02.001Z</time></trkpt><trkpt lat="43.27233074468548" lon="10.805475454121096"><ele>450.0</ele><time>2026-04-18T13:07:03.001Z</time></trkpt><trkpt lat="43.27221535872994" lon="10.80552384388101"><ele>450.0</ele><time>2026-04-18T13:07:04.001Z</time></trkpt><trkpt lat="43.27209040978685" lon="10.805592522398488"><ele>450.0</ele><time>2026-04-18T13:07:05.001Z</time></trkpt><trkpt lat="43.27196975303808" lon="10.805657704922458"><ele>450.0</ele><time>2026-04-18T13:07:06.001Z</time></trkpt><trkpt lat="43.27186627171767" lon="10.805711268953138"><ele>450.0</ele><time>2026-04-18T13:07:07.001Z</time></trkpt><trkpt lat="43.27175733179315" lon="10.80574106307182"><ele>450.0</ele><time>2026-04-18T13:07:08.001Z</time></trkpt><trkpt lat="43.27164448928375" lon="10.805765488170577"><ele>450.0</ele><time>2026-04-18T13:07:09.001Z</time></trkpt><trkpt lat="43.27151554318883" lon="10.805775957275273"><ele>450.25</ele><time>2026-04-18T13:07:10.001Z</time></trkpt><trkpt lat="43.271376462239466" lon="10.805776718639487"><ele>450.5</ele><time>2026-04-18T13:07:11.001Z</time></trkpt><trkpt lat="43.27123749498091" lon="10.805795884723999"><ele>450.75</ele><time>2026-04-18T13:07:12.001Z</time></trkpt><trkpt lat="43.27110597497415" lon="10.80580121220982"><ele>451.0</ele><time>2026-04-18T13:07:13.001Z</time></trkpt><trkpt lat="43.27096539249715" lon="10.805809255716468"><ele>451.0</ele><time>2026-04-18T13:07:14.001Z</time></trkpt><trkpt lat="43.270815581120715" lon="10.805838085834282"><ele>451.0</ele><time>2026-04-18T13:07:15.001Z</time></trkpt><trkpt lat="43.270646333001956" lon="10.805863939789802"><ele>451.0</ele><time>2026-04-18T13:07:16.001Z</time></trkpt><trkpt lat="43.27047227227925" lon="10.805879121061952"><ele>451.33333333333337</ele><time>2026-04-18T13:07:17.001Z</time></trkpt><trkpt lat="43.270301852658406" lon="10.805884505929278"><ele>451.66666666666663</ele><time>2026-04-18T13:07:18.001Z</time></trkpt><trkpt lat="43.27015719101816" lon="10.805908966998935"><ele>452.0</ele><time>2026-04-18T13:07:19.001Z</time></trkpt><trkpt lat="43.270006676553734" lon="10.80593377523878"><ele>452.0</ele><time>2026-04-18T13:07:20.001Z</time></trkpt><trkpt lat="43.26985779770884" lon="10.805931648050228"><ele>452.0</ele><time>2026-04-18T13:07:21.001Z</time></trkpt><trkpt lat="43.26971975019281" lon="10.805960168654979"><ele>452.0</ele><time>2026-04-18T13:07:22.001Z</time></trkpt><trkpt lat="43.2696149405477" lon="10.805951531608429"><ele>452.0</ele><time>2026-04-18T13:07:23.001Z</time></trkpt><trkpt lat="43.269509605937415" lon="10.805941205185615"><ele>453.25</ele><time>2026-04-18T13:07:24.001Z</time></trkpt><trkpt lat="43.26941918612398" lon="10.80587486169573"><ele>454.5</ele><time>2026-04-18T13:07:25.001Z</time></trkpt><trkpt lat="43.26932168963787" lon="10.805805395970507"><ele>455.75</ele><time>2026-04-18T13:07:26.001Z</time></trkpt><trkpt lat="43.26919910844776" lon="10.805729246600494"><ele>457.0</ele><time>2026-04-18T13:07:27.001Z</time></trkpt><trkpt lat="43.269088177199954" lon="10.805640140608396"><ele>457.0</ele><time>2026-04-18T13:07:28.001Z</time></trkpt><trkpt lat="43.268989422698986" lon="10.805590673654788"><ele>457.00000000000006</ele><time>2026-04-18T13:07:29.001Z</time></trkpt><trkpt lat="43.26888774669193" lon="10.805580488901688"><ele>457.00000000000006</ele><time>2026-04-18T13:07:30.001Z</time></trkpt><trkpt lat="43.26878200049335" lon="10.805592243877506"><ele>457.0</ele><time>2026-04-18T13:07:31.001Z</time></trkpt><trkpt lat="43.268659126308684" lon="10.805619699817436"><ele>457.0</ele><time>2026-04-18T13:07:32.001Z</time></trkpt><trkpt lat="43.26850698959703" lon="10.805652309781818"><ele>457.0</ele><time>2026-04-18T13:07:33.001Z</time></trkpt><trkpt lat="43.26835914654493" lon="10.805648835902026"><ele>457.0</ele><time>2026-04-18T13:07:34.001Z</time></trkpt><trkpt lat="43.268238499000795" lon="10.805652613102712"><ele>457.0</ele><time>2026-04-18T13:07:35.001Z</time></trkpt><trkpt lat="43.26811934103922" lon="10.805665647751889"><ele>457.0</ele><time>2026-04-18T13:07:36.001Z</time></trkpt><trkpt lat="43.26799101029951" lon="10.805617994590307"><ele>457.25</ele><time>2026-04-18T13:07:37.001Z</time></trkpt><trkpt lat="43.267850757758076" lon="10.805569038581357"><ele>457.5</ele><time>2026-04-18T13:07:38.001Z</time></trkpt><trkpt lat="43.267711746224634" lon="10.80550786254988"><ele>457.75</ele><time>2026-04-18T13:07:39.001Z</time></trkpt><trkpt lat="43.26759200533839" lon="10.805477577306569"><ele>458.0</ele><time>2026-04-18T13:07:40.001Z</time></trkpt><trkpt lat="43.267497987035036" lon="10.805415937834534"><ele>458.0</ele><time>2026-04-18T13:07:41.001Z</time></trkpt><trkpt lat="43.26741076461266" lon="10.805365530003096"><ele>457.99999999999994</ele><time>2026-04-18T13:07:42.001Z</time></trkpt><trkpt lat="43.267324442837165" lon="10.80532387645935"><ele>457.99999999999994</ele><time>2026-04-18T13:07:43.001Z</time></trkpt><trkpt lat="43.2672074231109" lon="10.80528210469176"><ele>458.0</ele><time>2026-04-18T13:07:44.001Z</time></trkpt><trkpt lat="43.267091883109494" lon="10.805254736167063"><ele>458.0</ele><time>2026-04-18T13:07:45.001Z</time></trkpt><trkpt lat="43.26697052270091" lon="10.80522762183743"><ele>457.25</ele><time>2026-04-18T13:07:46.001Z</time></trkpt><trkpt lat="43.266851670073876" lon="10.805189577671381"><ele>456.5</ele><time>2026-04-18T13:07:47.001Z</time></trkpt><trkpt lat="43.26672628863445" lon="10.805122695936195"><ele>455.75</ele><time>2026-04-18T13:07:48.001Z</time></trkpt><trkpt lat="43.26660665448042" lon="10.805003483401578"><ele>455.0</ele><time>2026-04-18T13:07:49.001Z</time></trkpt><trkpt lat="43.26645249265907" lon="10.804879365798817"><ele>460.0</ele><time>2026-04-18T13:07:50.001Z</time></trkpt><trkpt lat="43.26630382356266" lon="10.804746549599018"><ele>465.0</ele><time>2026-04-18T13:07:51.001Z</time></trkpt><trkpt lat="43.266182677293216" lon="10.804628664097045"><ele>470.0</ele><time>2026-04-18T13:07:52.001Z</time></trkpt><trkpt lat="43.26604648391411" lon="10.804519849666548"><ele>470.0</ele><time>2026-04-18T13:07:53.001Z</time></trkpt><trkpt lat="43.26593512111361" lon="10.804398492418287"><ele>470.0</ele><time>2026-04-18T13:07:54.001Z</time></trkpt><trkpt lat="43.26584418433431" lon="10.804308057627008"><ele>470.0</ele><time>2026-04-18T13:07:55.001Z</time></trkpt><trkpt lat="43.26574832809294" lon="10.804234252968323"><ele>470.0</ele><time>2026-04-18T13:07:56.001Z</time></trkpt><trkpt lat="43.26564406373128" lon="10.8041687470533"><ele>470.6</ele><time>2026-04-18T13:07:57.001Z</time></trkpt><trkpt lat="43.26556435680181" lon="10.804066632922694"><ele>471.2</ele><time>2026-04-18T13:07:58.001Z</time></trkpt><trkpt lat="43.26550610877382" lon="10.803976047519859"><ele>471.79999999999995</ele><time>2026-04-18T13:07:59.001Z</time></trkpt><trkpt lat="43.26545691477959" lon="10.803875644975976"><ele>472.4</ele><time>2026-04-18T13:08:00.001Z</time></trkpt><trkpt lat="43.265420327355876" lon="10.803764594832444"><ele>473.0</ele><time>2026-04-18T13:08:01.001Z</time></trkpt><trkpt lat="43.26539470158359" lon="10.80364257181116"><ele>473.0</ele><time>2026-04-18T13:08:02.001Z</time></trkpt><trkpt lat="43.26535562249448" lon="10.80354871470303"><ele>472.99999999999994</ele><time>2026-04-18T13:08:03.002Z</time></trkpt><trkpt lat="43.265274889975615" lon="10.803522716064057"><ele>472.99999999999994</ele><time>2026-04-18T13:08:04.002Z</time></trkpt><trkpt lat="43.26519353232542" lon="10.803502002101036"><ele>473.0</ele><time>2026-04-18T13:08:05.002Z</time></trkpt><trkpt lat="43.2650890002976" lon="10.803493298929435"><ele>473.0</ele><time>2026-04-18T13:08:06.002Z</time></trkpt><trkpt lat="43.264982919511894" lon="10.803485702063861"><ele>474.66666666666663</ele><time>2026-04-18T13:08:07.002Z</time></trkpt><trkpt lat="43.264843103108596" lon="10.803477126199189"><ele>476.33333333333337</ele><time>2026-04-18T13:08:08.002Z</time></trkpt><trkpt lat="43.26467322715579" lon="10.80349832838362"><ele>478.0</ele><time>2026-04-18T13:08:09.002Z</time></trkpt><trkpt lat="43.26452352192211" lon="10.803510624766533"><ele>478.0</ele><time>2026-04-18T13:08:10.002Z</time></trkpt><trkpt lat="43.264403335564126" lon="10.803528575939836"><ele>477.99999999999994</ele><time>2026-04-18T13:08:11.002Z</time></trkpt><trkpt lat="43.26430231417982" lon="10.803532709998565"><ele>477.99999999999994</ele><time>2026-04-18T13:08:12.002Z</time></trkpt><trkpt lat="43.264218180045056" lon="10.803530868915544"><ele>478.0</ele><time>2026-04-18T13:08:13.002Z</time></trkpt><trkpt lat="43.264149625478076" lon="10.803517307006775"><ele>478.0</ele><time>2026-04-18T13:08:14.002Z</time></trkpt><trkpt lat="43.26406900058752" lon="10.803453700632055"><ele>474.75</ele><time>2026-04-18T13:08:15.002Z</time></trkpt><trkpt lat="43.263991141249775" lon="10.803363121303885"><ele>471.5</ele><time>2026-04-18T13:08:16.002Z</time></trkpt><trkpt lat="43.26389464937017" lon="10.803252113565552"><ele>468.25</ele><time>2026-04-18T13:08:17.002Z</time></trkpt><trkpt lat="43.26380158837688" lon="10.803127073720377"><ele>465.0</ele><time>2026-04-18T13:08:18.002Z</time></trkpt><trkpt lat="43.263723901956" lon="10.803010660148848"><ele>465.0</ele><time>2026-04-18T13:08:19.002Z</time></trkpt><trkpt lat="43.26367118142974" lon="10.802912053854548"><ele>465.0</ele><time>2026-04-18T13:08:20.002Z</time></trkpt><trkpt lat="43.263625960177926" lon="10.802785822591938"><ele>465.0</ele><time>2026-04-18T13:08:21.002Z</time></trkpt><trkpt lat="43.26359166980184" lon="10.802636993095977"><ele>465.0</ele><time>2026-04-18T13:08:22.002Z</time></trkpt><trkpt lat="43.26358840428465" lon="10.80249964192604"><ele>465.0</ele><time>2026-04-18T13:08:23.002Z</time></trkpt><trkpt lat="43.26359495969376" lon="10.8023724996595"><ele>465.25</ele><time>2026-04-18T13:08:24.002Z</time></trkpt><trkpt lat="43.263595820131705" lon="10.802206562417267"><ele>465.5</ele><time>2026-04-18T13:08:25.002Z</time></trkpt><trkpt lat="43.263644079599274" lon="10.802006623144523"><ele>465.75</ele><time>2026-04-18T13:08:26.002Z</time></trkpt><trkpt lat="43.26367795530039" lon="10.801791577506986"><ele>466.0</ele><time>2026-04-18T13:08:27.002Z</time></trkpt><trkpt lat="43.263722928693966" lon="10.801663750629102"><ele>466.0</ele><time>2026-04-18T13:08:28.002Z</time></trkpt><trkpt lat="43.2637624402987" lon="10.801545826832827"><ele>466.0</ele><time>2026-04-18T13:08:29.002Z</time></trkpt><trkpt lat="43.263817746225385" lon="10.801415447888012"><ele>466.0</ele><time>2026-04-18T13:08:30.002Z</time></trkpt><trkpt lat="43.26387532372283" lon="10.801274032184317"><ele>466.0</ele><time>2026-04-18T13:08:31.002Z</time></trkpt><trkpt lat="43.26390922471443" lon="10.801171307878228"><ele>466.0</ele><time>2026-04-18T13:08:32.002Z</time></trkpt><trkpt lat="43.263929878753586" lon="10.801066728959155"><ele>465.4</ele><time>2026-04-18T13:08:33.002Z</time></trkpt><trkpt lat="43.263927350745185" lon="10.800937850359352"><ele>464.8</ele><time>2026-04-18T13:08:34.002Z</time></trkpt><trkpt lat="43.263889269455376" lon="10.800817903700196"><ele>464.19999999999993</ele><time>2026-04-18T13:08:35.002Z</time></trkpt><trkpt lat="43.26381545117306" lon="10.80071561792313"><ele>463.59999999999997</ele><time>2026-04-18T13:08:36Z</time></trkpt><trkpt lat="43.26372417367248" lon="10.800631929032003"><ele>463.0</ele><time>2026-04-18T13:08:37Z</time></trkpt><trkpt lat="43.26361959557623" lon="10.800539145505516"><ele>463.0</ele><time>2026-04-18T13:08:38Z</time></trkpt><trkpt lat="43.263521754189995" lon="10.800418225765867"><ele>463.0</ele><time>2026-04-18T13:08:39Z</time></trkpt><trkpt lat="43.263398567085716" lon="10.800288991754341"><ele>463.0</ele><time>2026-04-18T13:08:40Z</time></trkpt><trkpt lat="43.26327318703133" lon="10.800163166214455"><ele>463.0</ele><time>2026-04-18T13:08:41Z</time></trkpt><trkpt lat="43.26312400747266" lon="10.80002208388122"><ele>465.0</ele><time>2026-04-18T13:08:42Z</time></trkpt><trkpt lat="43.26298312981962" lon="10.799894503944447"><ele>467.0</ele><time>2026-04-18T13:08:43Z</time></trkpt><trkpt lat="43.26283954723958" lon="10.799782392682543"><ele>469.0</ele><time>2026-04-18T13:08:44Z</time></trkpt><trkpt lat="43.262730608347" lon="10.799668754038949"><ele>469.0</ele><time>2026-04-18T13:08:45Z</time></trkpt><trkpt lat="43.262639908981235" lon="10.799579707110567"><ele>469.0</ele><time>2026-04-18T13:08:46Z</time></trkpt><trkpt lat="43.262561425083454" lon="10.799472841089768"><ele>469.0</ele><time>2026-04-18T13:08:47Z</time></trkpt><trkpt lat="43.26248089529339" lon="10.799386436672727"><ele>469.0</ele><time>2026-04-18T13:08:48Z</time></trkpt><trkpt lat="43.262427460599135" lon="10.799313215761257"><ele>469.0</ele><time>2026-04-18T13:08:49Z</time></trkpt><trkpt lat="43.262382889611935" lon="10.799217596938256"><ele>470.5</ele><time>2026-04-18T13:08:50Z</time></trkpt><trkpt lat="43.26234481918899" lon="10.799090680549696"><ele>472.0</ele><time>2026-04-18T13:08:51Z</time></trkpt><trkpt lat="43.262299322186436" lon="10.798916471364612"><ele>473.5</ele><time>2026-04-18T13:08:52Z</time></trkpt><trkpt lat="43.26224756943621" lon="10.798713508390293"><ele>475.0</ele><time>2026-04-18T13:08:53Z</time></trkpt><trkpt lat="43.26219930504946" lon="10.798507735097768"><ele>479.6666666666667</ele><time>2026-04-18T13:08:54Z</time></trkpt><trkpt lat="43.26214794089122" lon="10.798284238353002"><ele>484.33333333333337</ele><time>2026-04-18T13:08:55Z</time></trkpt><trkpt lat="43.26209507217872" lon="10.798057105662823"><ele>489.0</ele><time>2026-04-18T13:08:56Z</time></trkpt><trkpt lat="43.262051607573326" lon="10.797874407970108"><ele>489.0</ele><time>2026-04-18T13:08:57Z</time></trkpt><trkpt lat="43.262017464389466" lon="10.797732504249813"><ele>489.0</ele><time>2026-04-18T13:08:58Z</time></trkpt><trkpt lat="43.26198131286107" lon="10.79758571770231"><ele>489.0</ele><time>2026-04-18T13:08:59Z</time></trkpt><trkpt lat="43.26193879806142" lon="10.79742357024036"><ele>489.0</ele><time>2026-04-18T13:09:00Z</time></trkpt><trkpt lat="43.261884886036064" lon="10.797232800058962"><ele>488.6</ele><time>2026-04-18T13:09:01Z</time></trkpt><trkpt lat="43.26183003447694" lon="10.79705122247838"><ele>488.2</ele><time>2026-04-18T13:09:02Z</time></trkpt><trkpt lat="43.26177704958036" lon="10.796928786326848"><ele>487.80000000000007</ele><time>2026-04-18T13:09:03Z</time></trkpt><trkpt lat="43.26174605854088" lon="10.796797261880455"><ele>487.40000000000003</ele><time>2026-04-18T13:09:04Z</time></trkpt><trkpt lat="43.261705162938945" lon="10.796672926239378"><ele>487.0</ele><time>2026-04-18T13:09:05Z</time></trkpt><trkpt lat="43.261646791629225" lon="10.796526656798077"><ele>485.25</ele><time>2026-04-18T13:09:06.001Z</time></trkpt><trkpt lat="43.26160032520033" lon="10.796327067767532"><ele>483.5</ele><time>2026-04-18T13:09:07.001Z</time></trkpt><trkpt lat="43.261540498453904" lon="10.796138786221592"><ele>481.75</ele><time>2026-04-18T13:09:08.001Z</time></trkpt><trkpt lat="43.26148860801929" lon="10.795984421763533"><ele>480.0</ele><time>2026-04-18T13:09:09.001Z</time></trkpt><trkpt lat="43.26142572642967" lon="10.795843683529059"><ele>479.25</ele><time>2026-04-18T13:09:10.001Z</time></trkpt><trkpt lat="43.261380670517234" lon="10.795704351078818"><ele>478.5</ele><time>2026-04-18T13:09:11.001Z</time></trkpt><trkpt lat="43.261329587436144" lon="10.795550364158766"><ele>477.75</ele><time>2026-04-18T13:09:12.001Z</time></trkpt><trkpt lat="43.26125884094925" lon="10.795387669251014"><ele>477.0</ele><time>2026-04-18T13:09:13.001Z</time></trkpt><trkpt lat="43.26117045213858" lon="10.795217455764536"><ele>474.33333333333337</ele><time>2026-04-18T13:09:14.001Z</time></trkpt><trkpt lat="43.26107973130283" lon="10.795038712496607"><ele>471.6666666666667</ele><time>2026-04-18T13:09:15.001Z</time></trkpt><trkpt lat="43.26097285262449" lon="10.794854249159343"><ele>469.0</ele><time>2026-04-18T13:09:16.001Z</time></trkpt><trkpt lat="43.26088263882645" lon="10.79464440535649"><ele>469.0</ele><time>2026-04-18T13:09:17.001Z</time></trkpt><trkpt lat="43.260801768918576" lon="10.794469686741303"><ele>469.0</ele><time>2026-04-18T13:09:18.001Z</time></trkpt><trkpt lat="43.260728912522964" lon="10.794307377613832"><ele>469.0</ele><time>2026-04-18T13:09:19.001Z</time></trkpt><trkpt lat="43.26065880918074" lon="10.794146233234725"><ele>469.0</ele><time>2026-04-18T13:09:20.001Z</time></trkpt><trkpt lat="43.260601661100615" lon="10.794009370046364"><ele>466.5</ele><time>2026-04-18T13:09:21.001Z</time></trkpt><trkpt lat="43.26055021361853" lon="10.793877386391342"><ele>464.0</ele><time>2026-04-18T13:09:22.001Z</time></trkpt><trkpt lat="43.26049622848742" lon="10.793721930670825"><ele>461.5</ele><time>2026-04-18T13:09:23.001Z</time></trkpt><trkpt lat="43.26043656319132" lon="10.79354107434182"><ele>459.0</ele><time>2026-04-18T13:09:24.001Z</time></trkpt><trkpt lat="43.26038122051419" lon="10.79336939081591"><ele>459.0</ele><time>2026-04-18T13:09:25.001Z</time></trkpt><trkpt lat="43.26032352612171" lon="10.793193501045437"><ele>459.0</ele><time>2026-04-18T13:09:26.001Z</time></trkpt><trkpt lat="43.26025423377681" lon="10.793018470839387"><ele>459.0</ele><time>2026-04-18T13:09:27.001Z</time></trkpt><trkpt lat="43.26017657808674" lon="10.792856425470418"><ele>459.0</ele><time>2026-04-18T13:09:28.001Z</time></trkpt><trkpt lat="43.2601025040262" lon="10.792698485786527"><ele>460.0</ele><time>2026-04-18T13:09:29.001Z</time></trkpt><trkpt lat="43.26002388494199" lon="10.792538878658732"><ele>461.0</ele><time>2026-04-18T13:09:30.001Z</time></trkpt><trkpt lat="43.259933690528335" lon="10.792368834828254"><ele>462.0</ele><time>2026-04-18T13:09:31.001Z</time></trkpt><trkpt lat="43.25983322454386" lon="10.792197846826207"><ele>460.66666666666663</ele><time>2026-04-18T13:09:32.001Z</time></trkpt><trkpt lat="43.25972964014264" lon="10.792017123805335"><ele>459.3333333333333</ele><time>2026-04-18T13:09:33.001Z</time></trkpt><trkpt lat="43.25962797579518" lon="10.791855688606564"><ele>458.0</ele><time>2026-04-18T13:09:34.001Z</time></trkpt><trkpt lat="43.25952072701946" lon="10.7917012370959"><ele>458.0</ele><time>2026-04-18T13:09:35.001Z</time></trkpt><trkpt lat="43.259404031859276" lon="10.791531111112956"><ele>458.0</ele><time>2026-04-18T13:09:36.001Z</time></trkpt><trkpt lat="43.25929265887449" lon="10.791339185528113"><ele>458.0</ele><time>2026-04-18T13:09:37.001Z</time></trkpt><trkpt lat="43.25921117938736" lon="10.791136613067675"><ele>458.0</ele><time>2026-04-18T13:09:38.001Z</time></trkpt><trkpt lat="43.2591313097286" lon="10.790965213112106"><ele>458.0</ele><time>2026-04-18T13:09:39.001Z</time></trkpt><trkpt lat="43.259054977683334" lon="10.790799109737627"><ele>458.0</ele><time>2026-04-18T13:09:40.001Z</time></trkpt><trkpt lat="43.25898993218609" lon="10.790638877633004"><ele>458.0</ele><time>2026-04-18T13:09:41.001Z</time></trkpt><trkpt lat="43.25892560689213" lon="10.790480687306918"><ele>457.75</ele><time>2026-04-18T13:09:42.001Z</time></trkpt><trkpt lat="43.25885732702781" lon="10.790310521220192"><ele>457.5</ele><time>2026-04-18T13:09:43.001Z</time></trkpt><trkpt lat="43.258793329088306" lon="10.790143092652922"><ele>457.25</ele><time>2026-04-18T13:09:44.001Z</time></trkpt><trkpt lat="43.25873666284699" lon="10.789980595434693"><ele>457.0</ele><time>2026-04-18T13:09:45.001Z</time></trkpt><trkpt lat="43.25868717990197" lon="10.789831047468677"><ele>457.0</ele><time>2026-04-18T13:09:46.001Z</time></trkpt><trkpt lat="43.25863652104107" lon="10.789661626164223"><ele>457.0</ele><time>2026-04-18T13:09:47.001Z</time></trkpt><trkpt lat="43.25858638200429" lon="10.789476662155062"><ele>457.0</ele><time>2026-04-18T13:09:48.001Z</time></trkpt><trkpt lat="43.25854397556698" lon="10.789300440278142"><ele>457.0</ele><time>2026-04-18T13:09:49.001Z</time></trkpt><trkpt lat="43.25850703619344" lon="10.789118169075557"><ele>456.5</ele><time>2026-04-18T13:09:50.001Z</time></trkpt><trkpt lat="43.25847705062804" lon="10.788929395741588"><ele>456.0</ele><time>2026-04-18T13:09:51.001Z</time></trkpt><trkpt lat="43.25845766715887" lon="10.788734918437301"><ele>455.5</ele><time>2026-04-18T13:09:52.001Z</time></trkpt><trkpt lat="43.2584496252079" lon="10.788548157641095"><ele>455.0</ele><time>2026-04-18T13:09:53.001Z</time></trkpt><trkpt lat="43.25844235288475" lon="10.788367950088729"><ele>455.0</ele><time>2026-04-18T13:09:54.001Z</time></trkpt><trkpt lat="43.25843434760009" lon="10.788169579735346"><ele>455.0</ele><time>2026-04-18T13:09:55.001Z</time></trkpt><trkpt lat="43.258427177303986" lon="10.787991900324286"><ele>455.0</ele><time>2026-04-18T13:09:56.001Z</time></trkpt><trkpt lat="43.258397980522126" lon="10.787838718722602"><ele>455.0</ele><time>2026-04-18T13:09:57.001Z</time></trkpt><trkpt lat="43.258398941729396" lon="10.787708658132228"><ele>455.4</ele><time>2026-04-18T13:09:58.001Z</time></trkpt><trkpt lat="43.258394125207765" lon="10.787582988194755"><ele>455.8</ele><time>2026-04-18T13:09:59.001Z</time></trkpt><trkpt lat="43.2583758013278" lon="10.787460559329558"><ele>456.20000000000005</ele><time>2026-04-18T13:10:00.001Z</time></trkpt><trkpt lat="43.258337887117186" lon="10.787346089892575"><ele>456.6</ele><time>2026-04-18T13:10:01.001Z</time></trkpt><trkpt lat="43.25828082343128" lon="10.787254540079841"><ele>457.0</ele><time>2026-04-18T13:10:02.001Z</time></trkpt><trkpt lat="43.25819663840347" lon="10.78715551014314"><ele>454.75</ele><time>2026-04-18T13:10:03.001Z</time></trkpt><trkpt lat="43.25808704154233" lon="10.787091994381829"><ele>452.5</ele><time>2026-04-18T13:10:04.001Z</time></trkpt><trkpt lat="43.25798707718704" lon="10.787020955759859"><ele>450.25</ele><time>2026-04-18T13:10:05.001Z</time></trkpt><trkpt lat="43.257879971824714" lon="10.786928525660498"><ele>448.0</ele><time>2026-04-18T13:10:06.001Z</time></trkpt><trkpt lat="43.257753172384575" lon="10.7868055843245"><ele>448.0</ele><time>2026-04-18T13:10:07.001Z</time></trkpt><trkpt lat="43.25764275744312" lon="10.786690976489282"><ele>448.0</ele><time>2026-04-18T13:10:08.001Z</time></trkpt><trkpt lat="43.257537444888776" lon="10.78656547794094"><ele>448.0</ele><time>2026-04-18T13:10:09.001Z</time></trkpt><trkpt lat="43.25744578528118" lon="10.786447716244453"><ele>448.0</ele><time>2026-04-18T13:10:10.001Z</time></trkpt><trkpt lat="43.257390499703135" lon="10.786290393455147"><ele>448.00000000000006</ele><time>2026-04-18T13:10:11.001Z</time></trkpt><trkpt lat="43.2573146107137" lon="10.786185350133879"><ele>448.0</ele><time>2026-04-18T13:10:12.001Z</time></trkpt><trkpt lat="43.257254508863895" lon="10.786098934860455"><ele>448.0</ele><time>2026-04-18T13:10:13.001Z</time></trkpt><trkpt lat="43.25720917900483" lon="10.786015740065958"><ele>448.0</ele><time>2026-04-18T13:10:14.001Z</time></trkpt><trkpt lat="43.25717949947122" lon="10.785918094683765"><ele>448.00000000000006</ele><time>2026-04-18T13:10:15.001Z</time></trkpt><trkpt lat="43.257188832362615" lon="10.78582576804254"><ele>448.0</ele><time>2026-04-18T13:10:16.001Z</time></trkpt><trkpt lat="43.257194618312894" lon="10.785687736482064"><ele>446.4</ele><time>2026-04-18T13:10:17.001Z</time></trkpt><trkpt lat="43.257211109613735" lon="10.785553163158587"><ele>444.79999999999995</ele><time>2026-04-18T13:10:18.001Z</time></trkpt><trkpt lat="43.2572185578098" lon="10.785410135384128"><ele>443.2</ele><time>2026-04-18T13:10:19.001Z</time></trkpt><trkpt lat="43.25721367768979" lon="10.785275397128006"><ele>441.6</ele><time>2026-04-18T13:10:20.002Z</time></trkpt><trkpt lat="43.257180994632456" lon="10.78512122021861"><ele>440.0</ele><time>2026-04-18T13:10:21.002Z</time></trkpt><trkpt lat="43.25708079836448" lon="10.784983065345783"><ele>440.0</ele><time>2026-04-18T13:10:22.002Z</time></trkpt><trkpt lat="43.25700349811626" lon="10.784832508922388"><ele>440.0</ele><time>2026-04-18T13:10:23.002Z</time></trkpt><trkpt lat="43.25694808446701" lon="10.784702023345632"><ele>440.0</ele><time>2026-04-18T13:10:24.002Z</time></trkpt><trkpt lat="43.25691127036964" lon="10.784588041620388"><ele>440.0</ele><time>2026-04-18T13:10:25.002Z</time></trkpt><trkpt lat="43.25687273061663" lon="10.784447321514586"><ele>440.0</ele><time>2026-04-18T13:10:26.002Z</time></trkpt><trkpt lat="43.256816379099476" lon="10.78424573125484"><ele>441.0</ele><time>2026-04-18T13:10:27.002Z</time></trkpt><trkpt lat="43.25678082598472" lon="10.784026561214239"><ele>442.0</ele><time>2026-04-18T13:10:28.002Z</time></trkpt><trkpt lat="43.25677837981086" lon="10.783854119027094"><ele>443.0</ele><time>2026-04-18T13:10:29.002Z</time></trkpt><trkpt lat="43.2567631513018" lon="10.783703254373817"><ele>444.0</ele><time>2026-04-18T13:10:30.002Z</time></trkpt><trkpt lat="43.25674803069092" lon="10.783553457360465"><ele>445.0</ele><time>2026-04-18T13:10:31.002Z</time></trkpt><trkpt lat="43.256733759284096" lon="10.783423442784988"><ele>446.0</ele><time>2026-04-18T13:10:32.002Z</time></trkpt><trkpt lat="43.25671376986249" lon="10.783308403876337"><ele>447.0</ele><time>2026-04-18T13:10:33.002Z</time></trkpt><trkpt lat="43.2566803900353" lon="10.783190572508815"><ele>448.0</ele><time>2026-04-18T13:10:34.002Z</time></trkpt><trkpt lat="43.256623307862164" lon="10.783091199673029"><ele>449.0</ele><time>2026-04-18T13:10:35.002Z</time></trkpt><trkpt lat="43.2565470217698" lon="10.783022280684532"><ele>449.5</ele><time>2026-04-18T13:10:36.002Z</time></trkpt><trkpt lat="43.256428465628446" lon="10.783040096338823"><ele>450.0</ele><time>2026-04-18T13:10:37.002Z</time></trkpt><trkpt lat="43.25632637463706" lon="10.783037518552312"><ele>450.5</ele><time>2026-04-18T13:10:38.002Z</time></trkpt><trkpt lat="43.25620919760513" lon="10.783036333827203"><ele>451.0</ele><time>2026-04-18T13:10:39.002Z</time></trkpt><trkpt lat="43.25607440260218" lon="10.783030059077861"><ele>451.0</ele><time>2026-04-18T13:10:40.002Z</time></trkpt><trkpt lat="43.25595123743155" lon="10.783017911332724"><ele>451.0</ele><time>2026-04-18T13:10:41.002Z</time></trkpt><trkpt lat="43.25587575640378" lon="10.782990090714945"><ele>451.0</ele><time>2026-04-18T13:10:42Z</time></trkpt><trkpt lat="43.25580213311858" lon="10.782940640307272"><ele>451.0</ele><time>2026-04-18T13:10:43Z</time></trkpt><trkpt lat="43.25574647999437" lon="10.782871119896503"><ele>451.0</ele><time>2026-04-18T13:10:44Z</time></trkpt><trkpt lat="43.255674284419925" lon="10.782776102975166"><ele>451.0</ele><time>2026-04-18T13:10:45Z</time></trkpt><trkpt lat="43.25558016475763" lon="10.782662655985538"><ele>451.0</ele><time>2026-04-18T13:10:46Z</time></trkpt><trkpt lat="43.25548644503129" lon="10.78253781430014"><ele>451.0</ele><time>2026-04-18T13:10:47Z</time></trkpt><trkpt lat="43.255415930985016" lon="10.782429074688173"><ele>451.0</ele><time>2026-04-18T13:10:48Z</time></trkpt><trkpt lat="43.25537565617227" lon="10.782353807806848"><ele>451.0</ele><time>2026-04-18T13:10:49Z</time></trkpt><trkpt lat="43.25535609938345" lon="10.782249678695793"><ele>451.0</ele><time>2026-04-18T13:10:50Z</time></trkpt><trkpt lat="43.2553439755113" lon="10.782123903634576"><ele>451.0</ele><time>2026-04-18T13:10:51Z</time></trkpt><trkpt lat="43.25532925793534" lon="10.781985963748765"><ele>451.0</ele><time>2026-04-18T13:10:52Z</time></trkpt><trkpt lat="43.255310055390495" lon="10.781849166091622"><ele>451.0</ele><time>2026-04-18T13:10:53Z</time></trkpt><trkpt lat="43.25525039221199" lon="10.781700864061008"><ele>451.0</ele><time>2026-04-18T13:10:54Z</time></trkpt><trkpt lat="43.25518701613759" lon="10.78157229277004"><ele>454.0</ele><time>2026-04-18T13:10:55Z</time></trkpt><trkpt lat="43.25513323871867" lon="10.781438863868015"><ele>457.0</ele><time>2026-04-18T13:10:56Z</time></trkpt><trkpt lat="43.25507743115965" lon="10.781308232546465"><ele>460.0</ele><time>2026-04-18T13:10:57Z</time></trkpt><trkpt lat="43.25494017095632" lon="10.781231384110159"><ele>463.0</ele><time>2026-04-18T13:10:58Z</time></trkpt><trkpt lat="43.25484754550821" lon="10.781145409648575"><ele>462.0</ele><time>2026-04-18T13:10:59.001Z</time></trkpt><trkpt lat="43.25475701517543" lon="10.781090195802529"><ele>460.99999999999994</ele><time>2026-04-18T13:11:00.001Z</time></trkpt><trkpt lat="43.25465682667546" lon="10.781086697519697"><ele>459.99999999999994</ele><time>2026-04-18T13:11:01.001Z</time></trkpt><trkpt lat="43.254560252911666" lon="10.78112579964924"><ele>459.0</ele><time>2026-04-18T13:11:02.001Z</time></trkpt><trkpt lat="43.254453322055866" lon="10.781169388828898"><ele>458.0</ele><time>2026-04-18T13:11:03.001Z</time></trkpt><trkpt lat="43.25434774850208" lon="10.78122051540054"><ele>458.0</ele><time>2026-04-18T13:11:04.001Z</time></trkpt><trkpt lat="43.25424839413372" lon="10.781249820906815"><ele>457.99999999999994</ele><time>2026-04-18T13:11:05.001Z</time></trkpt><trkpt lat="43.254167712192704" lon="10.781242501282586"><ele>457.99999999999994</ele><time>2026-04-18T13:11:06.001Z</time></trkpt><trkpt lat="43.25408532445446" lon="10.781190955479087"><ele>458.0</ele><time>2026-04-18T13:11:07.001Z</time></trkpt><trkpt lat="43.253981349737764" lon="10.781124340137335"><ele>458.0</ele><time>2026-04-18T13:11:08.001Z</time></trkpt><trkpt lat="43.25386050889757" lon="10.781010581140851"><ele>459.0</ele><time>2026-04-18T13:11:09.001Z</time></trkpt><trkpt lat="43.25375219172581" lon="10.780861724111492"><ele>460.0</ele><time>2026-04-18T13:11:10.001Z</time></trkpt><trkpt lat="43.25367533923032" lon="10.78075484720019"><ele>461.0</ele><time>2026-04-18T13:11:11.001Z</time></trkpt><trkpt lat="43.25362643630299" lon="10.780663278856373"><ele>462.0</ele><time>2026-04-18T13:11:12.001Z</time></trkpt><trkpt lat="43.25358604353297" lon="10.780529248941937"><ele>462.0</ele><time>2026-04-18T13:11:13.001Z</time></trkpt><trkpt lat="43.253533783689015" lon="10.780348673771453"><ele>462.0</ele><time>2026-04-18T13:11:14.001Z</time></trkpt><trkpt lat="43.25344702007392" lon="10.780183736279596"><ele>462.0</ele><time>2026-04-18T13:11:15.001Z</time></trkpt><trkpt lat="43.25335020960848" lon="10.780020308440113"><ele>462.0</ele><time>2026-04-18T13:11:16.001Z</time></trkpt><trkpt lat="43.25323751055888" lon="10.779872680510088"><ele>461.33333333333337</ele><time>2026-04-18T13:11:17.001Z</time></trkpt><trkpt lat="43.25310953618783" lon="10.779725286052143"><ele>460.6666666666667</ele><time>2026-04-18T13:11:18.001Z</time></trkpt><trkpt lat="43.252971596360545" lon="10.779573170419921"><ele>460.0</ele><time>2026-04-18T13:11:19.001Z</time></trkpt><trkpt lat="43.2528336407424" lon="10.779425661136765"><ele>463.75</ele><time>2026-04-18T13:11:20.001Z</time></trkpt><trkpt lat="43.25270277153548" lon="10.77930498994318"><ele>467.5</ele><time>2026-04-18T13:11:21.001Z</time></trkpt><trkpt lat="43.25257889175852" lon="10.779211970423095"><ele>471.25</ele><time>2026-04-18T13:11:22.001Z</time></trkpt><trkpt lat="43.25246089134967" lon="10.779118598383953"><ele>475.0</ele><time>2026-04-18T13:11:23.001Z</time></trkpt><trkpt lat="43.252336929529136" lon="10.779011408526907"><ele>472.0</ele><time>2026-04-18T13:11:24.001Z</time></trkpt><trkpt lat="43.25220961860605" lon="10.778896786338496"><ele>469.0</ele><time>2026-04-18T13:11:25.001Z</time></trkpt><trkpt lat="43.252067166278295" lon="10.7787820233053"><ele>466.0</ele><time>2026-04-18T13:11:26.001Z</time></trkpt><trkpt lat="43.25177019551586" lon="10.778520849638204"><ele>467.33333333333337</ele><time>2026-04-18T13:11:28.001Z</time></trkpt><trkpt lat="43.251622574234254" lon="10.778412918749693"><ele>468.66666666666663</ele><time>2026-04-18T13:11:29.001Z</time></trkpt><trkpt lat="43.25147793797762" lon="10.778336427281184"><ele>470.0</ele><time>2026-04-18T13:11:30.001Z</time></trkpt><trkpt lat="43.251349860193855" lon="10.778225594465923"><ele>470.5</ele><time>2026-04-18T13:11:31.001Z</time></trkpt><trkpt lat="43.25122302294115" lon="10.778139771738621"><ele>471.0</ele><time>2026-04-18T13:11:32.001Z</time></trkpt><trkpt lat="43.25111292154956" lon="10.778068447264287"><ele>471.5</ele><time>2026-04-18T13:11:33.001Z</time></trkpt><trkpt lat="43.25101692777718" lon="10.778008949092039"><ele>472.0</ele><time>2026-04-18T13:11:34.001Z</time></trkpt><trkpt lat="43.25093344459246" lon="10.777966269957162"><ele>472.0</ele><time>2026-04-18T13:11:35.001Z</time></trkpt><trkpt lat="43.25086141434002" lon="10.777934188060035"><ele>472.00000000000006</ele><time>2026-04-18T13:11:36.001Z</time></trkpt><trkpt lat="43.25077857285924" lon="10.777933925910963"><ele>472.00000000000006</ele><time>2026-04-18T13:11:37.001Z</time></trkpt><trkpt lat="43.25066692757819" lon="10.778005269099113"><ele>472.0</ele><time>2026-04-18T13:11:38.001Z</time></trkpt><trkpt lat="43.25054781199642" lon="10.778058955180635"><ele>472.0</ele><time>2026-04-18T13:11:39.001Z</time></trkpt><trkpt lat="43.250428081246305" lon="10.778108592189456"><ele>472.8</ele><time>2026-04-18T13:11:40.001Z</time></trkpt><trkpt lat="43.25032993206683" lon="10.778122891871606"><ele>473.6</ele><time>2026-04-18T13:11:41.001Z</time></trkpt><trkpt lat="43.250237442929745" lon="10.77810952338256"><ele>474.40000000000003</ele><time>2026-04-18T13:11:42.001Z</time></trkpt><trkpt lat="43.250122830686244" lon="10.77810353865869"><ele>475.20000000000005</ele><time>2026-04-18T13:11:43.001Z</time></trkpt><trkpt lat="43.25000339300128" lon="10.778073482886915"><ele>476.0</ele><time>2026-04-18T13:11:44.001Z</time></trkpt><trkpt lat="43.2499154146786" lon="10.778027956276768"><ele>475.99999999999994</ele><time>2026-04-18T13:11:45.001Z</time></trkpt><trkpt lat="43.249850912283144" lon="10.777994459415606"><ele>476.0</ele><time>2026-04-18T13:11:46.001Z</time></trkpt><trkpt lat="43.249799991423735" lon="10.777942464475219"><ele>476.0</ele><time>2026-04-18T13:11:47.001Z</time></trkpt><trkpt lat="43.24974063895044" lon="10.77788683860535"><ele>476.0</ele><time>2026-04-18T13:11:48.001Z</time></trkpt><trkpt lat="43.24967198899901" lon="10.777804113446631"><ele>475.99999999999994</ele><time>2026-04-18T13:11:49.001Z</time></trkpt><trkpt lat="43.24957903468128" lon="10.777685628188271"><ele>476.0</ele><time>2026-04-18T13:11:50.001Z</time></trkpt><trkpt lat="43.249477860018644" lon="10.777555353757426"><ele>481.5</ele><time>2026-04-18T13:11:51.001Z</time></trkpt><trkpt lat="43.249371770119296" lon="10.777424763575977"><ele>487.0</ele><time>2026-04-18T13:11:52.001Z</time></trkpt><trkpt lat="43.24928837950643" lon="10.777299687619506"><ele>492.5</ele><time>2026-04-18T13:11:53.001Z</time></trkpt><trkpt lat="43.24924078539867" lon="10.777171425780242"><ele>498.0</ele><time>2026-04-18T13:11:54.001Z</time></trkpt><trkpt lat="43.24920896941039" lon="10.77703806564526"><ele>498.0</ele><time>2026-04-18T13:11:55.001Z</time></trkpt><trkpt lat="43.24916806213856" lon="10.77688296720649"><ele>497.99999999999994</ele><time>2026-04-18T13:11:56.001Z</time></trkpt><trkpt lat="43.24910728070006" lon="10.776754902795279"><ele>497.99999999999994</ele><time>2026-04-18T13:11:57.001Z</time></trkpt><trkpt lat="43.24908381106567" lon="10.776631135090975"><ele>498.0</ele><time>2026-04-18T13:11:58.001Z</time></trkpt><trkpt lat="43.24903564493425" lon="10.77653136848369"><ele>498.0</ele><time>2026-04-18T13:11:59.001Z</time></trkpt><trkpt lat="43.248966167796326" lon="10.776448855918098"><ele>499.0</ele><time>2026-04-18T13:12:00.001Z</time></trkpt><trkpt lat="43.24888558405934" lon="10.776339399952668"><ele>499.99999999999994</ele><time>2026-04-18T13:12:01.002Z</time></trkpt><trkpt lat="43.24878807477414" lon="10.776233296393219"><ele>500.99999999999994</ele><time>2026-04-18T13:12:02.002Z</time></trkpt><trkpt lat="43.248724888410855" lon="10.776123842222818"><ele>502.0</ele><time>2026-04-18T13:12:03.002Z</time></trkpt><trkpt lat="43.248668290128045" lon="10.776022394435333"><ele>503.0</ele><time>2026-04-18T13:12:04.002Z</time></trkpt><trkpt lat="43.24860183897881" lon="10.775907299772166"><ele>502.99999999999994</ele><time>2026-04-18T13:12:05.002Z</time></trkpt><trkpt lat="43.248553712295795" lon="10.775813886805063"><ele>503.0</ele><time>2026-04-18T13:12:06.002Z</time></trkpt><trkpt lat="43.2485013456072" lon="10.775764928361687"><ele>503.0</ele><time>2026-04-18T13:12:07.002Z</time></trkpt><trkpt lat="43.24842286804625" lon="10.775743309568416"><ele>503.0</ele><time>2026-04-18T13:12:08.002Z</time></trkpt><trkpt lat="43.248339161295895" lon="10.775750846670123"><ele>502.99999999999994</ele><time>2026-04-18T13:12:09.002Z</time></trkpt><trkpt lat="43.248262425240796" lon="10.775809575246827"><ele>503.0</ele><time>2026-04-18T13:12:10.002Z</time></trkpt><trkpt lat="43.24817810683403" lon="10.775861562811691"><ele>503.3333333333333</ele><time>2026-04-18T13:12:11.002Z</time></trkpt><trkpt lat="43.24809807967723" lon="10.775912165965183"><ele>503.66666666666663</ele><time>2026-04-18T13:12:12.002Z</time></trkpt><trkpt lat="43.248018575307206" lon="10.775956140782306"><ele>504.0</ele><time>2026-04-18T13:12:13.002Z</time></trkpt><trkpt lat="43.24794439931558" lon="10.77597942945476"><ele>504.33333333333337</ele><time>2026-04-18T13:12:14.002Z</time></trkpt><trkpt lat="43.24786130752937" lon="10.77598125620236"><ele>504.6666666666667</ele><time>2026-04-18T13:12:15.002Z</time></trkpt><trkpt lat="43.247793850334084" lon="10.775943462345557"><ele>505.0</ele><time>2026-04-18T13:12:16.002Z</time></trkpt><trkpt lat="43.24767234739601" lon="10.775879997463937"><ele>505.0</ele><time>2026-04-18T13:12:17.002Z</time></trkpt><trkpt lat="43.247550200585636" lon="10.775858727672903"><ele>505.0</ele><time>2026-04-18T13:12:18.002Z</time></trkpt><trkpt lat="43.247420921937454" lon="10.775908331382107"><ele>505.0</ele><time>2026-04-18T13:12:19.002Z</time></trkpt><trkpt lat="43.24730176520017" lon="10.776011127143379"><ele>505.0</ele><time>2026-04-18T13:12:20.002Z</time></trkpt><trkpt lat="43.247182323953304" lon="10.776116441697907"><ele>505.83333333333337</ele><time>2026-04-18T13:12:21.002Z</time></trkpt><trkpt lat="43.24705671516734" lon="10.776144886597391"><ele>506.6666666666667</ele><time>2026-04-18T13:12:22.002Z</time></trkpt><trkpt lat="43.24698590170291" lon="10.776156316440224"><ele>507.5</ele><time>2026-04-18T13:12:23.002Z</time></trkpt><trkpt lat="43.246919598679334" lon="10.776150824298364"><ele>508.33333333333337</ele><time>2026-04-18T13:12:24.002Z</time></trkpt><trkpt lat="43.24685067904035" lon="10.776117147368758"><ele>509.1666666666667</ele><time>2026-04-18T13:12:25.001Z</time></trkpt><trkpt lat="43.24678134788607" lon="10.77606524614605"><ele>510.0</ele><time>2026-04-18T13:12:26.001Z</time></trkpt><trkpt lat="43.246702336842" lon="10.775966385630696"><ele>510.0</ele><time>2026-04-18T13:12:27.001Z</time></trkpt><trkpt lat="43.24660456808275" lon="10.775822015182783"><ele>510.0</ele><time>2026-04-18T13:12:28.001Z</time></trkpt><trkpt lat="43.24648612926442" lon="10.775690826180805"><ele>510.0</ele><time>2026-04-18T13:12:29.001Z</time></trkpt><trkpt lat="43.24636008049583" lon="10.775575225485653"><ele>510.0</ele><time>2026-04-18T13:12:30.001Z</time></trkpt><trkpt lat="43.24627078499436" lon="10.775460770002296"><ele>511.0</ele><time>2026-04-18T13:12:31.001Z</time></trkpt><trkpt lat="43.24620349337628" lon="10.775303114091734"><ele>512.0</ele><time>2026-04-18T13:12:32.001Z</time></trkpt><trkpt lat="43.246128488869765" lon="10.775167904209265"><ele>513.0</ele><time>2026-04-18T13:12:33.001Z</time></trkpt><trkpt lat="43.24608103146799" lon="10.775041295839022"><ele>514.0</ele><time>2026-04-18T13:12:34.001Z</time></trkpt><trkpt lat="43.24599695642011" lon="10.77496320599285"><ele>512.2</ele><time>2026-04-18T13:12:35.001Z</time></trkpt><trkpt lat="43.24586807343344" lon="10.774951146204526"><ele>510.4</ele><time>2026-04-18T13:12:37.001Z</time></trkpt><trkpt lat="43.245813361384194" lon="10.775021876025054"><ele>508.6</ele><time>2026-04-18T13:12:38.001Z</time></trkpt><trkpt lat="43.24572913310039" lon="10.775060591408433"><ele>506.8</ele><time>2026-04-18T13:12:39.001Z</time></trkpt><trkpt lat="43.24561769319384" lon="10.77505843112107"><ele>505.0</ele><time>2026-04-18T13:12:40.001Z</time></trkpt><trkpt lat="43.245540417604175" lon="10.775105322771534"><ele>504.6666666666667</ele><time>2026-04-18T13:12:41.001Z</time></trkpt><trkpt lat="43.24544342070633" lon="10.775100686032316"><ele>504.33333333333337</ele><time>2026-04-18T13:12:45.001Z</time></trkpt><trkpt lat="43.24536345149262" lon="10.775059777413055"><ele>504.0</ele><time>2026-04-18T13:12:46.001Z</time></trkpt><trkpt lat="43.245303195445835" lon="10.77498738702969"><ele>503.66666666666663</ele><time>2026-04-18T13:12:47.001Z</time></trkpt><trkpt lat="43.245251126916855" lon="10.774933188344669"><ele>503.3333333333333</ele><time>2026-04-18T13:12:48Z</time></trkpt><trkpt lat="43.24514439088243" lon="10.774852985156802"><ele>503.0</ele><time>2026-04-18T13:14:16.001Z</time></trkpt><trkpt lat="43.24507784974536" lon="10.774811163073117"><ele>503.0</ele><time>2026-04-18T13:14:17.001Z</time></trkpt><trkpt lat="43.245001411198494" lon="10.77476312028078"><ele>503.0</ele><time>2026-04-18T13:14:18.001Z</time></trkpt><trkpt lat="43.244902652052986" lon="10.774701048686563"><ele>503.0</ele><time>2026-04-18T13:14:19.001Z</time></trkpt><trkpt lat="43.24471677426142" lon="10.774579411461632"><ele>503.0</ele><time>2026-04-18T13:14:21.001Z</time></trkpt><trkpt lat="43.244570045842906" lon="10.77447914489791"><ele>502.5</ele><time>2026-04-18T13:14:22.001Z</time></trkpt><trkpt lat="43.24445063478848" lon="10.774411632189022"><ele>502.0</ele><time>2026-04-18T13:14:23.001Z</time></trkpt><trkpt lat="43.24434478515843" lon="10.774338746176793"><ele>501.5</ele><time>2026-04-18T13:14:24.001Z</time></trkpt><trkpt lat="43.24425438388292" lon="10.774278822513836"><ele>501.0</ele><time>2026-04-18T13:14:25.001Z</time></trkpt><trkpt lat="43.24415729740293" lon="10.774199678986914"><ele>501.0</ele><time>2026-04-18T13:14:26.001Z</time></trkpt><trkpt lat="43.24407121737674" lon="10.774087540311"><ele>501.0</ele><time>2026-04-18T13:14:27.001Z</time></trkpt><trkpt lat="43.244049999944416" lon="10.773955748518937"><ele>501.0</ele><time>2026-04-18T13:14:28.001Z</time></trkpt><trkpt lat="43.244018840704435" lon="10.773824856344728"><ele>501.0</ele><time>2026-04-18T13:14:29.001Z</time></trkpt><trkpt lat="43.24401241811183" lon="10.773679649351909"><ele>501.0</ele><time>2026-04-18T13:14:30.001Z</time></trkpt><trkpt lat="43.243985893280666" lon="10.77352074608374"><ele>501.4</ele><time>2026-04-18T13:14:31.001Z</time></trkpt><trkpt lat="43.243949750921935" lon="10.77339367926609"><ele>501.8</ele><time>2026-04-18T13:14:32.001Z</time></trkpt><trkpt lat="43.24390267226144" lon="10.773279781891913"><ele>502.19999999999993</ele><time>2026-04-18T13:14:33.001Z</time></trkpt><trkpt lat="43.24382655222045" lon="10.773161820430426"><ele>502.59999999999997</ele><time>2026-04-18T13:14:34.001Z</time></trkpt><trkpt lat="43.243718739026015" lon="10.773061604231211"><ele>503.0</ele><time>2026-04-18T13:14:35.001Z</time></trkpt><trkpt lat="43.243658177500095" lon="10.772945143861934"><ele>503.0</ele><time>2026-04-18T13:14:36.001Z</time></trkpt><trkpt lat="43.24363764803828" lon="10.7728308199144"><ele>503.0</ele><time>2026-04-18T13:14:37.001Z</time></trkpt><trkpt lat="43.243629824493894" lon="10.77270144892833"><ele>503.0</ele><time>2026-04-18T13:14:38.001Z</time></trkpt><trkpt lat="43.24362702500358" lon="10.772527552813026"><ele>503.0</ele><time>2026-04-18T13:14:39.001Z</time></trkpt><trkpt lat="43.243628708594336" lon="10.772319224869136"><ele>503.0</ele><time>2026-04-18T13:14:40.001Z</time></trkpt><trkpt lat="43.243643726123494" lon="10.772086531618886"><ele>503.0</ele><time>2026-04-18T13:14:41.001Z</time></trkpt><trkpt lat="43.24365430710107" lon="10.771922178465417"><ele>503.0</ele><time>2026-04-18T13:14:42.001Z</time></trkpt><trkpt lat="43.24365612887247" lon="10.771755183741243"><ele>503.0</ele><time>2026-04-18T13:14:43.001Z</time></trkpt><trkpt lat="43.24362659362686" lon="10.771654439377878"><ele>503.0</ele><time>2026-04-18T13:14:44.001Z</time></trkpt><trkpt lat="43.24362669446841" lon="10.771557508212297"><ele>502.99999999999994</ele><time>2026-04-18T13:14:45.001Z</time></trkpt><trkpt lat="43.24354288730573" lon="10.771445275428007"><ele>502.99999999999994</ele><time>2026-04-18T13:14:47.001Z</time></trkpt><trkpt lat="43.2434554893463" lon="10.77141452894176"><ele>503.0</ele><time>2026-04-18T13:14:48.001Z</time></trkpt><trkpt lat="43.24334490158204" lon="10.771419822851799"><ele>503.0</ele><time>2026-04-18T13:14:49.001Z</time></trkpt><trkpt lat="43.24321900668282" lon="10.771440900579842"><ele>503.59999999999997</ele><time>2026-04-18T13:14:50.001Z</time></trkpt><trkpt lat="43.24312803923493" lon="10.771390614558479"><ele>504.19999999999993</ele><time>2026-04-18T13:14:51.001Z</time></trkpt><trkpt lat="43.243078758732125" lon="10.771254363620125"><ele>504.8</ele><time>2026-04-18T13:14:53.001Z</time></trkpt><trkpt lat="43.24307329512183" lon="10.771148174922608"><ele>505.4</ele><time>2026-04-18T13:14:54Z</time></trkpt><trkpt lat="43.243043993446975" lon="10.771004812119894"><ele>506.0</ele><time>2026-04-18T13:14:55Z</time></trkpt><trkpt lat="43.24301414251742" lon="10.770830291227227"><ele>506.0</ele><time>2026-04-18T13:14:56Z</time></trkpt><trkpt lat="43.242985313747205" lon="10.770644284885966"><ele>506.0</ele><time>2026-04-18T13:14:57Z</time></trkpt><trkpt lat="43.24295957872052" lon="10.77049266292717"><ele>506.0</ele><time>2026-04-18T13:14:58Z</time></trkpt><trkpt lat="43.24289228651904" lon="10.770331848183156"><ele>506.0</ele><time>2026-04-18T13:14:59Z</time></trkpt><trkpt lat="43.24279698496909" lon="10.770178694832863"><ele>502.5</ele><time>2026-04-18T13:15:00Z</time></trkpt><trkpt lat="43.24271514340144" lon="10.769992411504008"><ele>499.0</ele><time>2026-04-18T13:15:01Z</time></trkpt><trkpt lat="43.242666222625566" lon="10.769830243161023"><ele>495.5</ele><time>2026-04-18T13:15:02Z</time></trkpt><trkpt lat="43.24264651571985" lon="10.769681883939555"><ele>492.0</ele><time>2026-04-18T13:15:03Z</time></trkpt><trkpt lat="43.24263273397683" lon="10.769507117095324"><ele>492.0</ele><time>2026-04-18T13:15:04Z</time></trkpt><trkpt lat="43.24262591407965" lon="10.769380177342573"><ele>492.00000000000006</ele><time>2026-04-18T13:15:05Z</time></trkpt><trkpt lat="43.24260829460897" lon="10.76926537682261"><ele>492.00000000000006</ele><time>2026-04-18T13:15:06Z</time></trkpt><trkpt lat="43.24257745277595" lon="10.769161276327026"><ele>492.0</ele><time>2026-04-18T13:15:07Z</time></trkpt><trkpt lat="43.24250220356445" lon="10.769055584350804"><ele>492.0</ele><time>2026-04-18T13:15:09Z</time></trkpt><trkpt lat="43.24241786113401" lon="10.769036560537954"><ele>489.25</ele><time>2026-04-18T13:15:10Z</time></trkpt><trkpt lat="43.24232718826291" lon="10.769002999883053"><ele>486.5</ele><time>2026-04-18T13:15:11Z</time></trkpt><trkpt lat="43.24221280621752" lon="10.768971886533311"><ele>483.75</ele><time>2026-04-18T13:15:12Z</time></trkpt><trkpt lat="43.24210910350939" lon="10.768925145148156"><ele>481.0</ele><time>2026-04-18T13:15:13Z</time></trkpt><trkpt lat="43.24196174579758" lon="10.768890049609832"><ele>481.0</ele><time>2026-04-18T13:15:14Z</time></trkpt><trkpt lat="43.241840690134794" lon="10.768817466672772"><ele>481.0</ele><time>2026-04-18T13:15:15Z</time></trkpt><trkpt lat="43.241737500570345" lon="10.76877068842318"><ele>481.0</ele><time>2026-04-18T13:15:16Z</time></trkpt><trkpt lat="43.241651915754034" lon="10.768735602510793"><ele>481.0</ele><time>2026-04-18T13:15:17Z</time></trkpt><trkpt lat="43.241566080746765" lon="10.768753210613086"><ele>481.0</ele><time>2026-04-18T13:15:18Z</time></trkpt><trkpt lat="43.241470991782776" lon="10.768780089756397"><ele>479.20000000000005</ele><time>2026-04-18T13:15:19Z</time></trkpt><trkpt lat="43.241372281124264" lon="10.768805715843715"><ele>477.40000000000003</ele><time>2026-04-18T13:15:20Z</time></trkpt><trkpt lat="43.24128499233746" lon="10.768761174669317"><ele>475.6</ele><time>2026-04-18T13:15:21Z</time></trkpt><trkpt lat="43.24119186682608" lon="10.768728865013417"><ele>473.8</ele><time>2026-04-18T13:15:22Z</time></trkpt><trkpt lat="43.24107809752172" lon="10.768662856922333"><ele>472.0</ele><time>2026-04-18T13:15:23Z</time></trkpt><trkpt lat="43.24096795836889" lon="10.768621052891067"><ele>472.0</ele><time>2026-04-18T13:15:24Z</time></trkpt><trkpt lat="43.24087571562513" lon="10.768564342717195"><ele>472.00000000000006</ele><time>2026-04-18T13:15:25Z</time></trkpt><trkpt lat="43.24079510600385" lon="10.768512358900288"><ele>472.00000000000006</ele><time>2026-04-18T13:15:26Z</time></trkpt><trkpt lat="43.24072477058649" lon="10.768486100718654"><ele>472.0</ele><time>2026-04-18T13:15:27Z</time></trkpt><trkpt lat="43.240636460843646" lon="10.768434950451741"><ele>472.0</ele><time>2026-04-18T13:15:29Z</time></trkpt><trkpt lat="43.24068839136062" lon="10.768185799039006"><ele>470.0</ele><time>2026-04-18T13:15:41Z</time></trkpt><trkpt lat="43.24069282372802" lon="10.768064770312757"><ele>468.00000000000006</ele><time>2026-04-18T13:15:42Z</time></trkpt><trkpt lat="43.240692547077025" lon="10.767942819126308"><ele>466.00000000000006</ele><time>2026-04-18T13:15:43Z</time></trkpt><trkpt lat="43.240703476159574" lon="10.76778831908531"><ele>464.0</ele><time>2026-04-18T13:15:44Z</time></trkpt><trkpt lat="43.24072493177672" lon="10.767626786886815"><ele>462.0</ele><time>2026-04-18T13:15:45Z</time></trkpt><trkpt lat="43.240746955503425" lon="10.767477471511157"><ele>461.75</ele><time>2026-04-18T13:15:46Z</time></trkpt><trkpt lat="43.24076937960756" lon="10.767329181486987"><ele>461.5</ele><time>2026-04-18T13:15:47Z</time></trkpt><trkpt lat="43.24079263458252" lon="10.767175301995572"><ele>461.25</ele><time>2026-04-18T13:15:48Z</time></trkpt><trkpt lat="43.240809593145144" lon="10.766993237647261"><ele>461.0</ele><time>2026-04-18T13:15:49Z</time></trkpt><trkpt lat="43.24080917129755" lon="10.766799980725699"><ele>461.0</ele><time>2026-04-18T13:15:50Z</time></trkpt><trkpt lat="43.24082548271166" lon="10.76662888419782"><ele>461.0</ele><time>2026-04-18T13:15:51.001Z</time></trkpt><trkpt lat="43.24085426456497" lon="10.766482063660447"><ele>461.0</ele><time>2026-04-18T13:15:52.001Z</time></trkpt><trkpt lat="43.240894588580474" lon="10.766357024959797"><ele>461.0</ele><time>2026-04-18T13:15:53.001Z</time></trkpt><trkpt lat="43.24093218605047" lon="10.766217020104506"><ele>461.0</ele><time>2026-04-18T13:15:54.001Z</time></trkpt><trkpt lat="43.24097152442983" lon="10.766099286563955"><ele>461.66666666666663</ele><time>2026-04-18T13:15:55.001Z</time></trkpt><trkpt lat="43.24099901629663" lon="10.766009549544588"><ele>462.3333333333333</ele><time>2026-04-18T13:15:56.001Z</time></trkpt><trkpt lat="43.2410109969044" lon="10.765920352295977"><ele>463.0</ele><time>2026-04-18T13:15:57.001Z</time></trkpt><trkpt lat="43.24103637824814" lon="10.765824940145764"><ele>463.66666666666663</ele><time>2026-04-18T13:15:58.001Z</time></trkpt><trkpt lat="43.24103574710749" lon="10.765706704870615"><ele>464.3333333333333</ele><time>2026-04-18T13:15:59.001Z</time></trkpt><trkpt lat="43.24102004194166" lon="10.765575950722859"><ele>465.0</ele><time>2026-04-18T13:16:00.001Z</time></trkpt><trkpt lat="43.24096825409443" lon="10.765418174890412"><ele>465.0</ele><time>2026-04-18T13:16:01.001Z</time></trkpt><trkpt lat="43.24092493892158" lon="10.765263651574648"><ele>465.0</ele><time>2026-04-18T13:16:02.001Z</time></trkpt><trkpt lat="43.24090814001269" lon="10.765111503889413"><ele>465.0</ele><time>2026-04-18T13:16:03.001Z</time></trkpt><trkpt lat="43.24091924887988" lon="10.76498267031998"><ele>465.0</ele><time>2026-04-18T13:16:04.001Z</time></trkpt><trkpt lat="43.24090963353312" lon="10.76487623645452"><ele>465.0</ele><time>2026-04-18T13:16:05.001Z</time></trkpt><trkpt lat="43.240870048569036" lon="10.764755315697112"><ele>463.25</ele><time>2026-04-18T13:16:06.001Z</time></trkpt><trkpt lat="43.24082401814478" lon="10.764624105913166"><ele>461.5</ele><time>2026-04-18T13:16:07.001Z</time></trkpt><trkpt lat="43.24073816041652" lon="10.764505621164778"><ele>459.75</ele><time>2026-04-18T13:16:08.001Z</time></trkpt><trkpt lat="43.240665099667076" lon="10.764373576834934"><ele>458.0</ele><time>2026-04-18T13:16:09.001Z</time></trkpt><trkpt lat="43.24062159758" lon="10.764229828354132"><ele>461.0</ele><time>2026-04-18T13:16:10.001Z</time></trkpt><trkpt lat="43.24057724962369" lon="10.764089024636954"><ele>463.99999999999994</ele><time>2026-04-18T13:16:11.001Z</time></trkpt><trkpt lat="43.24052046691718" lon="10.763999056201417"><ele>466.99999999999994</ele><time>2026-04-18T13:16:12.001Z</time></trkpt><trkpt lat="43.24044932250539" lon="10.763942817590264"><ele>470.0</ele><time>2026-04-18T13:16:13.001Z</time></trkpt><trkpt lat="43.24034829685003" lon="10.763913759130295"><ele>473.0</ele><time>2026-04-18T13:16:14.001Z</time></trkpt><trkpt lat="43.24025096125478" lon="10.763855110300238"><ele>473.0</ele><time>2026-04-18T13:16:15.001Z</time></trkpt><trkpt lat="43.240166360507075" lon="10.76377482655811"><ele>472.99999999999994</ele><time>2026-04-18T13:16:16.001Z</time></trkpt><trkpt lat="43.24010857982734" lon="10.763678044828929"><ele>472.99999999999994</ele><time>2026-04-18T13:16:18.001Z</time></trkpt><trkpt lat="43.24013451239916" lon="10.763576877415783"><ele>473.0</ele><time>2026-04-18T13:16:20.001Z</time></trkpt><trkpt lat="43.24021609397026" lon="10.763483566738518"><ele>473.0</ele><time>2026-04-18T13:16:22.001Z</time></trkpt><trkpt lat="43.24029723677675" lon="10.763456598385051"><ele>472.2</ele><time>2026-04-18T13:16:23.001Z</time></trkpt><trkpt lat="43.240386005281316" lon="10.763435352246818"><ele>471.4</ele><time>2026-04-18T13:16:24.001Z</time></trkpt><trkpt lat="43.24047599091031" lon="10.76335470893504"><ele>470.59999999999997</ele><time>2026-04-18T13:16:25.001Z</time></trkpt><trkpt lat="43.24057611298361" lon="10.763274458090711"><ele>469.79999999999995</ele><time>2026-04-18T13:16:26.001Z</time></trkpt><trkpt lat="43.240675764911806" lon="10.763190302922933"><ele>469.0</ele><time>2026-04-18T13:16:27.001Z</time></trkpt><trkpt lat="43.240780602455594" lon="10.763149025109103"><ele>468.0</ele><time>2026-04-18T13:16:28.001Z</time></trkpt><trkpt lat="43.240854369023964" lon="10.76308335995597"><ele>467.0</ele><time>2026-04-18T13:16:29.001Z</time></trkpt><trkpt lat="43.240923735466644" lon="10.762940200793304"><ele>466.0</ele><time>2026-04-18T13:16:30.001Z</time></trkpt><trkpt lat="43.241007111780036" lon="10.762794758954415"><ele>465.0</ele><time>2026-04-18T13:16:31.001Z</time></trkpt><trkpt lat="43.24109578909568" lon="10.762694150058518"><ele>465.0</ele><time>2026-04-18T13:16:32.001Z</time></trkpt><trkpt lat="43.24114753837129" lon="10.762616227213636"><ele>465.0</ele><time>2026-04-18T13:16:33.001Z</time></trkpt><trkpt lat="43.24116026486719" lon="10.762508639903832"><ele>465.0</ele><time>2026-04-18T13:16:35.001Z</time></trkpt><trkpt lat="43.24115303607041" lon="10.762383210370086"><ele>465.0</ele><time>2026-04-18T13:16:36.001Z</time></trkpt><trkpt lat="43.241142482899136" lon="10.762222745043733"><ele>465.0</ele><time>2026-04-18T13:16:37.001Z</time></trkpt><trkpt lat="43.241142453181624" lon="10.762070066613607"><ele>465.0</ele><time>2026-04-18T13:16:38.001Z</time></trkpt><trkpt lat="43.24116800389071" lon="10.761975370855497"><ele>465.0</ele><time>2026-04-18T13:16:39.001Z</time></trkpt><trkpt lat="43.24121321118575" lon="10.761870251134862"><ele>465.0</ele><time>2026-04-18T13:16:40.001Z</time></trkpt><trkpt lat="43.24128243123497" lon="10.761721895463955"><ele>465.0</ele><time>2026-04-18T13:16:41.001Z</time></trkpt><trkpt lat="43.24132827127419" lon="10.761594194186019"><ele>465.0</ele><time>2026-04-18T13:16:42.001Z</time></trkpt><trkpt lat="43.24138999136528" lon="10.761535885710876"><ele>465.5</ele><time>2026-04-18T13:16:43.001Z</time></trkpt><trkpt lat="43.241451345816756" lon="10.761505482736302"><ele>466.0</ele><time>2026-04-18T13:16:44.001Z</time></trkpt><trkpt lat="43.241503255869866" lon="10.761455644502579"><ele>466.5</ele><time>2026-04-18T13:16:45.001Z</time></trkpt><trkpt lat="43.24155584004194" lon="10.761357866241186"><ele>467.0</ele><time>2026-04-18T13:16:47.001Z</time></trkpt><trkpt lat="43.241526886495706" lon="10.761200095391672"><ele>467.5</ele><time>2026-04-18T13:16:49.001Z</time></trkpt><trkpt lat="43.241457992562374" lon="10.761146313451048"><ele>468.0</ele><time>2026-04-18T13:16:50.001Z</time></trkpt><trkpt lat="43.2414109051338" lon="10.761015275329445"><ele>468.0</ele><time>2026-04-18T13:16:51.001Z</time></trkpt><trkpt lat="43.241341039746864" lon="10.760866731720757"><ele>467.99999999999994</ele><time>2026-04-18T13:16:52.001Z</time></trkpt><trkpt lat="43.24127465150682" lon="10.760751731327534"><ele>467.99999999999994</ele><time>2026-04-18T13:16:53.001Z</time></trkpt><trkpt lat="43.241229969141216" lon="10.760642301193542"><ele>468.0</ele><time>2026-04-18T13:16:54.001Z</time></trkpt><trkpt lat="43.241208990803315" lon="10.760491874130693"><ele>468.0</ele><time>2026-04-18T13:16:55.001Z</time></trkpt><trkpt lat="43.241171991383546" lon="10.76034739472308"><ele>465.2</ele><time>2026-04-18T13:16:56.001Z</time></trkpt><trkpt lat="43.2412007681919" lon="10.760184452892323"><ele>462.4</ele><time>2026-04-18T13:16:57.001Z</time></trkpt><trkpt lat="43.24120921484729" lon="10.760013055059723"><ele>459.59999999999997</ele><time>2026-04-18T13:16:58.001Z</time></trkpt><trkpt lat="43.24118783274281" lon="10.759876423454196"><ele>456.79999999999995</ele><time>2026-04-18T13:16:59.001Z</time></trkpt><trkpt lat="43.2412048029988" lon="10.759761705083683"><ele>454.0</ele><time>2026-04-18T13:17:00Z</time></trkpt><trkpt lat="43.24122936022388" lon="10.75964420588669"><ele>454.00000000000006</ele><time>2026-04-18T13:17:01Z</time></trkpt><trkpt lat="43.241251341355934" lon="10.759516722285621"><ele>454.0</ele><time>2026-04-18T13:17:02Z</time></trkpt><trkpt lat="43.24124422215865" lon="10.759392056745355"><ele>454.0</ele><time>2026-04-18T13:17:03Z</time></trkpt><trkpt lat="43.24120499956438" lon="10.759279529008364"><ele>454.0</ele><time>2026-04-18T13:17:04Z</time></trkpt><trkpt lat="43.24118737228547" lon="10.759164067114492"><ele>454.00000000000006</ele><time>2026-04-18T13:17:05Z</time></trkpt><trkpt lat="43.24114592274485" lon="10.759080826714507"><ele>454.0</ele><time>2026-04-18T13:17:06Z</time></trkpt><trkpt lat="43.241137432436176" lon="10.758975420699517"><ele>454.0</ele><time>2026-04-18T13:17:08Z</time></trkpt><trkpt lat="43.24121391163866" lon="10.758961990539287"><ele>454.0</ele><time>2026-04-18T13:17:11Z</time></trkpt><trkpt lat="43.241296615009574" lon="10.759038569342524"><ele>454.0</ele><time>2026-04-18T13:17:13Z</time></trkpt><trkpt lat="43.241302161123244" lon="10.759151910851791"><ele>454.0</ele><time>2026-04-18T13:17:14Z</time></trkpt><trkpt lat="43.24133079056089" lon="10.759282522003975"><ele>454.0</ele><time>2026-04-18T13:17:15Z</time></trkpt><trkpt lat="43.24138576892728" lon="10.759444688436115"><ele>454.0</ele><time>2026-04-18T13:17:16Z</time></trkpt><trkpt lat="43.24141835247437" lon="10.759598561147437"><ele>454.0</ele><time>2026-04-18T13:17:17Z</time></trkpt><trkpt lat="43.24147253362285" lon="10.759782474946084"><ele>454.0</ele><time>2026-04-18T13:17:18Z</time></trkpt><trkpt lat="43.24153098508862" lon="10.75992462905999"><ele>454.0</ele><time>2026-04-18T13:17:19Z</time></trkpt><trkpt lat="43.241567089938286" lon="10.760038921431908"><ele>452.83333333333337</ele><time>2026-04-18T13:17:20Z</time></trkpt><trkpt lat="43.24161351106218" lon="10.760181029563794"><ele>451.6666666666667</ele><time>2026-04-18T13:17:22Z</time></trkpt><trkpt lat="43.24165896048148" lon="10.760253314337485"><ele>450.5</ele><time>2026-04-18T13:17:23Z</time></trkpt><trkpt lat="43.24172649792065" lon="10.760277957778067"><ele>449.33333333333337</ele><time>2026-04-18T13:17:24Z</time></trkpt><trkpt lat="43.24180190652846" lon="10.760213234064292"><ele>448.1666666666667</ele><time>2026-04-18T13:17:25Z</time></trkpt><trkpt lat="43.24188013831496" lon="10.760192597863929"><ele>447.0</ele><time>2026-04-18T13:17:26Z</time></trkpt><trkpt lat="43.2419954523334" lon="10.760176519878822"><ele>445.6</ele><time>2026-04-18T13:17:27Z</time></trkpt><trkpt lat="43.242077539631076" lon="10.760094429972089"><ele>444.20000000000005</ele><time>2026-04-18T13:17:28Z</time></trkpt><trkpt lat="43.24213166124851" lon="10.760017841459641"><ele>442.8</ele><time>2026-04-18T13:17:29Z</time></trkpt><trkpt lat="43.242198607610035" lon="10.759924332431227"><ele>441.4</ele><time>2026-04-18T13:17:30Z</time></trkpt><trkpt lat="43.242265113386686" lon="10.759838880850191"><ele>440.0</ele><time>2026-04-18T13:17:31Z</time></trkpt><trkpt lat="43.242341731222716" lon="10.759760559302386"><ele>439.99999999999994</ele><time>2026-04-18T13:17:32Z</time></trkpt><trkpt lat="43.24240898340244" lon="10.75969295238718"><ele>440.0</ele><time>2026-04-18T13:17:33Z</time></trkpt><trkpt lat="43.24248128698794" lon="10.759630480754698"><ele>440.0</ele><time>2026-04-18T13:17:34Z</time></trkpt><trkpt lat="43.242565086605445" lon="10.759589272175079"><ele>440.0</ele><time>2026-04-18T13:17:35Z</time></trkpt><trkpt lat="43.242634252965125" lon="10.75958407874519"><ele>439.99999999999994</ele><time>2026-04-18T13:17:36Z</time></trkpt><trkpt lat="43.24272254196574" lon="10.759584784925297"><ele>440.0</ele><time>2026-04-18T13:17:37Z</time></trkpt><trkpt lat="43.242822261862806" lon="10.759597540877438"><ele>440.0</ele><time>2026-04-18T13:17:38Z</time></trkpt><trkpt lat="43.24291674456714" lon="10.759620451790363"><ele>440.0</ele><time>2026-04-18T13:17:39Z</time></trkpt><trkpt lat="43.2430129796373" lon="10.759729409034199"><ele>440.0</ele><time>2026-04-18T13:17:40Z</time></trkpt><trkpt lat="43.24313142502197" lon="10.759816506096213"><ele>440.0</ele><time>2026-04-18T13:17:41Z</time></trkpt><trkpt lat="43.243248869496135" lon="10.759906826171523"><ele>437.25</ele><time>2026-04-18T13:17:42Z</time></trkpt><trkpt lat="43.243360725418725" lon="10.759954959638964"><ele>434.5</ele><time>2026-04-18T13:17:43Z</time></trkpt><trkpt lat="43.24348462016612" lon="10.760006849889267"><ele>431.75</ele><time>2026-04-18T13:17:44Z</time></trkpt><trkpt lat="43.243609869979444" lon="10.760069935714132"><ele>429.0</ele><time>2026-04-18T13:17:45Z</time></trkpt><trkpt lat="43.24372224466607" lon="10.760147900752782"><ele>429.75</ele><time>2026-04-18T13:17:46Z</time></trkpt><trkpt lat="43.243852472550124" lon="10.76024899132737"><ele>430.5</ele><time>2026-04-18T13:17:47Z</time></trkpt><trkpt lat="43.24398267699915" lon="10.760337513792848"><ele>431.25</ele><time>2026-04-18T13:17:48Z</time></trkpt><trkpt lat="43.24408034634047" lon="10.760425017327366"><ele>432.0</ele><time>2026-04-18T13:17:49Z</time></trkpt><trkpt lat="43.24417193684833" lon="10.760472973537533"><ele>429.20000000000005</ele><time>2026-04-18T13:17:50Z</time></trkpt><trkpt lat="43.24426828960819" lon="10.760465664366857"><ele>426.40000000000003</ele><time>2026-04-18T13:17:51Z</time></trkpt><trkpt lat="43.24436063234937" lon="10.760478009717072"><ele>423.6</ele><time>2026-04-18T13:17:52Z</time></trkpt><trkpt lat="43.24445438145899" lon="10.760459469270971"><ele>420.79999999999995</ele><time>2026-04-18T13:17:53Z</time></trkpt><trkpt lat="43.244550241310606" lon="10.76041180811274"><ele>418.0</ele><time>2026-04-18T13:17:54Z</time></trkpt><trkpt lat="43.24463715827332" lon="10.760386428769658"><ele>418.0</ele><time>2026-04-18T13:17:55Z</time></trkpt><trkpt lat="43.24470922609036" lon="10.760368410132077"><ele>418.0</ele><time>2026-04-18T13:17:56Z</time></trkpt><trkpt lat="43.24481634129332" lon="10.760272306775676"><ele>418.0</ele><time>2026-04-18T13:17:58Z</time></trkpt><trkpt lat="43.24486211017651" lon="10.760174934241935"><ele>418.0</ele><time>2026-04-18T13:17:59Z</time></trkpt><trkpt lat="43.244896118385526" lon="10.760051522876635"><ele>418.0</ele><time>2026-04-18T13:18:00Z</time></trkpt><trkpt lat="43.24492688950992" lon="10.759900206218248"><ele>421.75</ele><time>2026-04-18T13:18:01Z</time></trkpt><trkpt lat="43.244948120021" lon="10.759730632559249"><ele>425.5</ele><time>2026-04-18T13:18:02Z</time></trkpt><trkpt lat="43.24498406515015" lon="10.759548465312442"><ele>429.25</ele><time>2026-04-18T13:18:03Z</time></trkpt><trkpt lat="43.24501370364115" lon="10.759341098842272"><ele>433.0</ele><time>2026-04-18T13:18:04Z</time></trkpt><trkpt lat="43.24504229070583" lon="10.759194468854485"><ele>433.59999999999997</ele><time>2026-04-18T13:18:05Z</time></trkpt><trkpt lat="43.2450810324029" lon="10.759099900763209"><ele>434.19999999999993</ele><time>2026-04-18T13:18:06Z</time></trkpt><trkpt lat="43.24513731422509" lon="10.7590122457207"><ele>434.8</ele><time>2026-04-18T13:18:07.001Z</time></trkpt><trkpt lat="43.24522279416639" lon="10.758901997298711"><ele>435.4</ele><time>2026-04-18T13:18:08.001Z</time></trkpt><trkpt lat="43.24533181698632" lon="10.758779009181143"><ele>436.0</ele><time>2026-04-18T13:18:09.001Z</time></trkpt><trkpt lat="43.2454529223381" lon="10.758646702651244"><ele>436.0</ele><time>2026-04-18T13:18:10.001Z</time></trkpt><trkpt lat="43.24553887557188" lon="10.758551146075217"><ele>436.0</ele><time>2026-04-18T13:18:11.001Z</time></trkpt><trkpt lat="43.24559408877217" lon="10.758483777469177"><ele>436.0</ele><time>2026-04-18T13:18:12.001Z</time></trkpt><trkpt lat="43.24564684533399" lon="10.758317590785682"><ele>436.0</ele><time>2026-04-18T13:18:14.001Z</time></trkpt><trkpt lat="43.24563104937604" lon="10.75821805473181"><ele>436.0</ele><time>2026-04-18T13:18:15.001Z</time></trkpt><trkpt lat="43.245641136891585" lon="10.758116572654648"><ele>438.8</ele><time>2026-04-18T13:18:16.001Z</time></trkpt><trkpt lat="43.245666427233886" lon="10.758007752859882"><ele>441.6</ele><time>2026-04-18T13:18:17.001Z</time></trkpt><trkpt lat="43.245689607123445" lon="10.757907853157011"><ele>444.4</ele><time>2026-04-18T13:18:18.001Z</time></trkpt><trkpt lat="43.24571985134105" lon="10.75779832093921"><ele>447.2</ele><time>2026-04-18T13:18:19.001Z</time></trkpt><trkpt lat="43.24576722924638" lon="10.757675723488541"><ele>450.0</ele><time>2026-04-18T13:18:20.001Z</time></trkpt><trkpt lat="43.245830136577304" lon="10.757540261478438"><ele>451.25</ele><time>2026-04-18T13:18:21.001Z</time></trkpt><trkpt lat="43.24589687534952" lon="10.757415208362172"><ele>452.5</ele><time>2026-04-18T13:18:22.001Z</time></trkpt><trkpt lat="43.24596890314686" lon="10.75729207543201"><ele>453.75</ele><time>2026-04-18T13:18:23.001Z</time></trkpt><trkpt lat="43.24604218473501" lon="10.75717683082044"><ele>455.0</ele><time>2026-04-18T13:18:24.001Z</time></trkpt><trkpt lat="43.246127571659315" lon="10.757073756350344"><ele>455.0</ele><time>2026-04-18T13:18:25.001Z</time></trkpt><trkpt lat="43.24619641101304" lon="10.756984835411515"><ele>455.0</ele><time>2026-04-18T13:18:26.001Z</time></trkpt><trkpt lat="43.246269936293906" lon="10.756961345872043"><ele>455.0</ele><time>2026-04-18T13:18:27.001Z</time></trkpt><trkpt lat="43.246362580646974" lon="10.756923481354997"><ele>455.0</ele><time>2026-04-18T13:18:28.001Z</time></trkpt><trkpt lat="43.24647992442955" lon="10.756870274322903"><ele>455.0</ele><time>2026-04-18T13:18:29.001Z</time></trkpt><trkpt lat="43.24662827487403" lon="10.756835156927862"><ele>457.3333333333333</ele><time>2026-04-18T13:18:30.001Z</time></trkpt><trkpt lat="43.24679436226852" lon="10.756808006248473"><ele>459.66666666666663</ele><time>2026-04-18T13:18:31.001Z</time></trkpt><trkpt lat="43.246955340075814" lon="10.756760363583071"><ele>462.0</ele><time>2026-04-18T13:18:32.001Z</time></trkpt><trkpt lat="43.24708037811818" lon="10.756690549555136"><ele>462.0</ele><time>2026-04-18T13:18:33.001Z</time></trkpt><trkpt lat="43.24717334469864" lon="10.756675916048499"><ele>462.00000000000006</ele><time>2026-04-18T13:18:34.001Z</time></trkpt><trkpt lat="43.24727216527492" lon="10.756588363930339"><ele>462.00000000000006</ele><time>2026-04-18T13:18:36.001Z</time></trkpt><trkpt lat="43.24731868076488" lon="10.756444021104784"><ele>462.0</ele><time>2026-04-18T13:18:38.001Z</time></trkpt><trkpt lat="43.2472768818163" lon="10.75634066612294"><ele>462.0</ele><time>2026-04-18T13:18:39.001Z</time></trkpt><trkpt lat="43.247219761112056" lon="10.756261805936319"><ele>462.0</ele><time>2026-04-18T13:18:40.001Z</time></trkpt><trkpt lat="43.24716779052393" lon="10.756168602641557"><ele>462.00000000000006</ele><time>2026-04-18T13:18:41.001Z</time></trkpt><trkpt lat="43.24711803600105" lon="10.756068446147564"><ele>462.00000000000006</ele><time>2026-04-18T13:18:42.001Z</time></trkpt><trkpt lat="43.24709683609244" lon="10.755926408644658"><ele>462.0</ele><time>2026-04-18T13:18:44.001Z</time></trkpt><trkpt lat="43.24718208125543" lon="10.755801606213723"><ele>462.0</ele><time>2026-04-18T13:18:46.001Z</time></trkpt><trkpt lat="43.247252233379605" lon="10.755725355745566"><ele>466.25</ele><time>2026-04-18T13:18:47.001Z</time></trkpt><trkpt lat="43.2473454034486" lon="10.75562277426956"><ele>470.5</ele><time>2026-04-18T13:18:48.001Z</time></trkpt><trkpt lat="43.24746353978747" lon="10.75549081432432"><ele>474.75</ele><time>2026-04-18T13:18:49.001Z</time></trkpt><trkpt lat="43.24756786272604" lon="10.755373109256974"><ele>479.0</ele><time>2026-04-18T13:18:50.001Z</time></trkpt><trkpt lat="43.24767096241542" lon="10.755312164903684"><ele>479.0</ele><time>2026-04-18T13:18:51.001Z</time></trkpt><trkpt lat="43.247746578813434" lon="10.75523851984629"><ele>479.0</ele><time>2026-04-18T13:18:52.001Z</time></trkpt><trkpt lat="43.2478021330942" lon="10.755152167475504"><ele>479.0</ele><time>2026-04-18T13:18:53.001Z</time></trkpt><trkpt lat="43.247869680895285" lon="10.755039245149963"><ele>479.0</ele><time>2026-04-18T13:18:54.001Z</time></trkpt><trkpt lat="43.247944684486825" lon="10.754906274675935"><ele>479.0</ele><time>2026-04-18T13:18:55.001Z</time></trkpt><trkpt lat="43.24803088903712" lon="10.754753755445007"><ele>478.0</ele><time>2026-04-18T13:18:56.001Z</time></trkpt><trkpt lat="43.24809737039847" lon="10.754631692286681"><ele>477.0</ele><time>2026-04-18T13:18:57.001Z</time></trkpt><trkpt lat="43.248142801395446" lon="10.754495693513528"><ele>476.0</ele><time>2026-04-18T13:18:58.001Z</time></trkpt><trkpt lat="43.24818826273878" lon="10.754360090986854"><ele>475.0</ele><time>2026-04-18T13:18:59.001Z</time></trkpt><trkpt lat="43.24824687011955" lon="10.75421376299021"><ele>473.75</ele><time>2026-04-18T13:19:00.001Z</time></trkpt><trkpt lat="43.24827459949301" lon="10.75403292119529"><ele>472.5</ele><time>2026-04-18T13:19:01.001Z</time></trkpt><trkpt lat="43.248302572841006" lon="10.753819151132612"><ele>471.25</ele><time>2026-04-18T13:19:02.001Z</time></trkpt><trkpt lat="43.24835063456183" lon="10.753624411925145"><ele>470.0</ele><time>2026-04-18T13:19:03.001Z</time></trkpt><trkpt lat="43.24838884391677" lon="10.753480106183686"><ele>472.2</ele><time>2026-04-18T13:19:04.001Z</time></trkpt><trkpt lat="43.24842772475387" lon="10.753337104107478"><ele>474.4</ele><time>2026-04-18T13:19:05.001Z</time></trkpt><trkpt lat="43.24847319847937" lon="10.753196374327626"><ele>476.6</ele><time>2026-04-18T13:19:06Z</time></trkpt><trkpt lat="43.2485000989633" lon="10.753059056772804"><ele>478.8</ele><time>2026-04-18T13:19:07Z</time></trkpt><trkpt lat="43.248528251878675" lon="10.752949291287475"><ele>481.0</ele><time>2026-04-18T13:19:08Z</time></trkpt><trkpt lat="43.24852696651669" lon="10.752846494925633"><ele>483.0</ele><time>2026-04-18T13:19:09Z</time></trkpt><trkpt lat="43.24855877126636" lon="10.752703496501692"><ele>485.0</ele><time>2026-04-18T13:19:10Z</time></trkpt><trkpt lat="43.248571241373014" lon="10.752539628409702"><ele>487.0</ele><time>2026-04-18T13:19:11Z</time></trkpt><trkpt lat="43.248578021546145" lon="10.752368890017223"><ele>489.0</ele><time>2026-04-18T13:19:12Z</time></trkpt><trkpt lat="43.24856781552944" lon="10.752219713743585"><ele>489.0</ele><time>2026-04-18T13:19:13Z</time></trkpt><trkpt lat="43.248571292122776" lon="10.752097103538983"><ele>489.0</ele><time>2026-04-18T13:19:14Z</time></trkpt><trkpt lat="43.24856431279219" lon="10.751978000160982"><ele>489.0</ele><time>2026-04-18T13:19:15Z</time></trkpt><trkpt lat="43.24855227453733" lon="10.751837240966317"><ele>489.0</ele><time>2026-04-18T13:19:16Z</time></trkpt><trkpt lat="43.24852372227256" lon="10.75168380756616"><ele>489.0</ele><time>2026-04-18T13:19:17Z</time></trkpt><trkpt lat="43.248507273141676" lon="10.751545962498424"><ele>488.0</ele><time>2026-04-18T13:19:18Z</time></trkpt><trkpt lat="43.24850388303446" lon="10.75140890974261"><ele>487.0</ele><time>2026-04-18T13:19:19Z</time></trkpt><trkpt lat="43.24855142780659" lon="10.75125046006298"><ele>486.0</ele><time>2026-04-18T13:19:20Z</time></trkpt><trkpt lat="43.24858668434175" lon="10.751052609340594"><ele>485.0</ele><time>2026-04-18T13:19:21Z</time></trkpt><trkpt lat="43.24863219651556" lon="10.750828382678305"><ele>485.0</ele><time>2026-04-18T13:19:22Z</time></trkpt><trkpt lat="43.248657155392706" lon="10.750636312010673"><ele>485.0</ele><time>2026-04-18T13:19:23Z</time></trkpt><trkpt lat="43.24867209523741" lon="10.750462894555813"><ele>485.0</ele><time>2026-04-18T13:19:24Z</time></trkpt><trkpt lat="43.24868398558586" lon="10.750280477114167"><ele>485.0</ele><time>2026-04-18T13:19:25Z</time></trkpt><trkpt lat="43.24867985427872" lon="10.750095037195951"><ele>485.0</ele><time>2026-04-18T13:19:26Z</time></trkpt><trkpt lat="43.248675435100125" lon="10.749917088887784"><ele>485.0</ele><time>2026-04-18T13:19:27Z</time></trkpt><trkpt lat="43.248675141215436" lon="10.7497292347589"><ele>485.0</ele><time>2026-04-18T13:19:28Z</time></trkpt><trkpt lat="43.24867458748875" lon="10.749580897653056"><ele>485.0</ele><time>2026-04-18T13:19:29Z</time></trkpt><trkpt lat="43.248664545431076" lon="10.749444324478763"><ele>485.25</ele><time>2026-04-18T13:19:30Z</time></trkpt><trkpt lat="43.248640312912286" lon="10.749271289967249"><ele>485.5</ele><time>2026-04-18T13:19:31Z</time></trkpt><trkpt lat="43.24861245482607" lon="10.749056444037734"><ele>485.75</ele><time>2026-04-18T13:19:32Z</time></trkpt><trkpt lat="43.24857047258479" lon="10.74885023235881"><ele>486.0</ele><time>2026-04-18T13:19:33Z</time></trkpt><trkpt lat="43.24852777799431" lon="10.748685718383134"><ele>486.0</ele><time>2026-04-18T13:19:34Z</time></trkpt><trkpt lat="43.24847941271968" lon="10.748544288273948"><ele>486.0</ele><time>2026-04-18T13:19:35Z</time></trkpt><trkpt lat="43.24842585851205" lon="10.748424579621489"><ele>486.0</ele><time>2026-04-18T13:19:36Z</time></trkpt><trkpt lat="43.248400752094966" lon="10.748332047379952"><ele>486.0</ele><time>2026-04-18T13:19:37Z</time></trkpt><trkpt lat="43.248419290247384" lon="10.74819339388947"><ele>486.0</ele><time>2026-04-18T13:19:39Z</time></trkpt><trkpt lat="43.248489874381654" lon="10.748185934783008"><ele>486.8</ele><time>2026-04-18T13:19:41Z</time></trkpt><trkpt lat="43.24861054087416" lon="10.748204744233218"><ele>487.6</ele><time>2026-04-18T13:19:44Z</time></trkpt><trkpt lat="43.24868522122242" lon="10.748252850886221"><ele>488.4</ele><time>2026-04-18T13:19:45Z</time></trkpt><trkpt lat="43.24877238164501" lon="10.748311366882724"><ele>489.2</ele><time>2026-04-18T13:19:46Z</time></trkpt><trkpt lat="43.24887322203246" lon="10.748389111656454"><ele>490.0</ele><time>2026-04-18T13:19:47Z</time></trkpt><trkpt lat="43.24897606437915" lon="10.748482607409118"><ele>491.0</ele><time>2026-04-18T13:19:48Z</time></trkpt><trkpt lat="43.24905047545446" lon="10.74859126033306"><ele>492.0</ele><time>2026-04-18T13:19:49Z</time></trkpt><trkpt lat="43.24913373968867" lon="10.748667816685083"><ele>493.0</ele><time>2026-04-18T13:19:50Z</time></trkpt><trkpt lat="43.249226912858845" lon="10.748714083101572"><ele>494.0</ele><time>2026-04-18T13:19:51Z</time></trkpt><trkpt lat="43.249314225597026" lon="10.748752215371967"><ele>495.0</ele><time>2026-04-18T13:19:52Z</time></trkpt><trkpt lat="43.24941356121236" lon="10.74878817127097"><ele>495.0</ele><time>2026-04-18T13:19:53Z</time></trkpt><trkpt lat="43.2495085977911" lon="10.748808115620973"><ele>495.0</ele><time>2026-04-18T13:19:54Z</time></trkpt><trkpt lat="43.24960856333107" lon="10.748838165071556"><ele>495.0</ele><time>2026-04-18T13:19:55Z</time></trkpt><trkpt lat="43.249722573090786" lon="10.74881581930484"><ele>495.0</ele><time>2026-04-18T13:19:56Z</time></trkpt><trkpt lat="43.24982154084389" lon="10.748780428873054"><ele>495.0</ele><time>2026-04-18T13:19:57Z</time></trkpt><trkpt lat="43.24991609993567" lon="10.74874304077062"><ele>494.4</ele><time>2026-04-18T13:19:58Z</time></trkpt><trkpt lat="43.25001836263492" lon="10.748705096150488"><ele>493.8</ele><time>2026-04-18T13:19:59Z</time></trkpt><trkpt lat="43.25011552457563" lon="10.748659590208142"><ele>493.20000000000005</ele><time>2026-04-18T13:20:00Z</time></trkpt><trkpt lat="43.25022302990406" lon="10.74861253160674"><ele>492.6</ele><time>2026-04-18T13:20:01Z</time></trkpt><trkpt lat="43.25030645906937" lon="10.748492497726263"><ele>492.0</ele><time>2026-04-18T13:20:02.001Z</time></trkpt><trkpt lat="43.25039540963112" lon="10.748409120465995"><ele>492.0</ele><time>2026-04-18T13:20:03.001Z</time></trkpt><trkpt lat="43.25048798801498" lon="10.748381228269645"><ele>492.0</ele><time>2026-04-18T13:20:04.001Z</time></trkpt><trkpt lat="43.250576046891574" lon="10.748310348857885"><ele>492.0</ele><time>2026-04-18T13:20:05.001Z</time></trkpt><trkpt lat="43.250653633558876" lon="10.748249841996477"><ele>492.0</ele><time>2026-04-18T13:20:06.001Z</time></trkpt><trkpt lat="43.25070676599986" lon="10.748171253365527"><ele>492.0</ele><time>2026-04-18T13:20:07.001Z</time></trkpt><trkpt lat="43.25074788431445" lon="10.748084136549275"><ele>492.0</ele><time>2026-04-18T13:20:08.001Z</time></trkpt><trkpt lat="43.250800112370825" lon="10.747986946312206"><ele>492.0</ele><time>2026-04-18T13:20:09.001Z</time></trkpt><trkpt lat="43.2508176990552" lon="10.747824716572989"><ele>492.0</ele><time>2026-04-18T13:20:10.001Z</time></trkpt><trkpt lat="43.250864799019425" lon="10.747645931356065"><ele>492.0</ele><time>2026-04-18T13:20:11.001Z</time></trkpt><trkpt lat="43.25093564514287" lon="10.74747274541146"><ele>492.0</ele><time>2026-04-18T13:20:12.001Z</time></trkpt><trkpt lat="43.2510122801208" lon="10.747334969589403"><ele>492.0</ele><time>2026-04-18T13:20:13.001Z</time></trkpt><trkpt lat="43.25107985284522" lon="10.747240601159158"><ele>492.00000000000006</ele><time>2026-04-18T13:20:14.001Z</time></trkpt><trkpt lat="43.25117030639661" lon="10.74709702152111"><ele>492.00000000000006</ele><time>2026-04-18T13:20:16.001Z</time></trkpt><trkpt lat="43.2512449693657" lon="10.74699456717183"><ele>492.0</ele><time>2026-04-18T13:20:17.001Z</time></trkpt><trkpt lat="43.251299886349464" lon="10.746900335225186"><ele>492.0</ele><time>2026-04-18T13:20:18.001Z</time></trkpt><trkpt lat="43.251358999818216" lon="10.746800190490218"><ele>492.40000000000003</ele><time>2026-04-18T13:20:19.001Z</time></trkpt><trkpt lat="43.251411633494016" lon="10.746708962662105"><ele>492.80000000000007</ele><time>2026-04-18T13:20:20.001Z</time></trkpt><trkpt lat="43.25144970115532" lon="10.746590420030492"><ele>493.2</ele><time>2026-04-18T13:20:21.001Z</time></trkpt><trkpt lat="43.25151556144364" lon="10.746504140940463"><ele>493.6</ele><time>2026-04-18T13:20:22.001Z</time></trkpt><trkpt lat="43.251550951450746" lon="10.746395746628544"><ele>494.0</ele><time>2026-04-18T13:20:23.001Z</time></trkpt><trkpt lat="43.251648912454485" lon="10.746307452452022"><ele>494.0</ele><time>2026-04-18T13:20:25.001Z</time></trkpt><trkpt lat="43.251769397799" lon="10.746365396506457"><ele>494.0</ele><time>2026-04-18T13:20:27.001Z</time></trkpt><trkpt lat="43.25182469895522" lon="10.746461291847714"><ele>494.0</ele><time>2026-04-18T13:20:28.001Z</time></trkpt><trkpt lat="43.25187655302575" lon="10.746579504953697"><ele>494.0</ele><time>2026-04-18T13:20:29.001Z</time></trkpt><trkpt lat="43.251930161379704" lon="10.746707643322209"><ele>494.0</ele><time>2026-04-18T13:20:30.001Z</time></trkpt><trkpt lat="43.25198557832452" lon="10.74683948912656"><ele>494.79999999999995</ele><time>2026-04-18T13:20:31.001Z</time></trkpt><trkpt lat="43.25203054154867" lon="10.746922020519653"><ele>495.59999999999997</ele><time>2026-04-18T13:20:32.001Z</time></trkpt><trkpt lat="43.25209377259883" lon="10.746995428449464"><ele>496.4</ele><time>2026-04-18T13:20:33.001Z</time></trkpt><trkpt lat="43.252183596444546" lon="10.747074056936324"><ele>497.2</ele><time>2026-04-18T13:20:34.001Z</time></trkpt><trkpt lat="43.252271954653814" lon="10.747168734559104"><ele>498.0</ele><time>2026-04-18T13:20:35.001Z</time></trkpt><trkpt lat="43.252371201850956" lon="10.747229088262241"><ele>498.0</ele><time>2026-04-18T13:20:36.001Z</time></trkpt><trkpt lat="43.25248072547355" lon="10.747257876327712"><ele>497.99999999999994</ele><time>2026-04-18T13:20:37.001Z</time></trkpt><trkpt lat="43.252591570680195" lon="10.74725271717744"><ele>497.99999999999994</ele><time>2026-04-18T13:20:38.001Z</time></trkpt><trkpt lat="43.252704100270044" lon="10.74719897480403"><ele>498.0</ele><time>2026-04-18T13:20:39.001Z</time></trkpt><trkpt lat="43.25280912708756" lon="10.747199826535653"><ele>498.0</ele><time>2026-04-18T13:20:40.001Z</time></trkpt><trkpt lat="43.252875737584255" lon="10.747193379401812"><ele>498.0</ele><time>2026-04-18T13:20:42.001Z</time></trkpt><trkpt lat="43.252951910153584" lon="10.74730754435191"><ele>497.99999999999994</ele><time>2026-04-18T13:20:44.001Z</time></trkpt><trkpt lat="43.25298737371475" lon="10.747426096307658"><ele>497.99999999999994</ele><time>2026-04-18T13:20:45.001Z</time></trkpt><trkpt lat="43.253015552472185" lon="10.747563861156092"><ele>498.0</ele><time>2026-04-18T13:20:46.001Z</time></trkpt><trkpt lat="43.253063021908034" lon="10.747725081895572"><ele>498.0</ele><time>2026-04-18T13:20:47.001Z</time></trkpt><trkpt lat="43.253091259577026" lon="10.74786336169732"><ele>495.2</ele><time>2026-04-18T13:20:48.001Z</time></trkpt><trkpt lat="43.25313196570757" lon="10.747964679951442"><ele>492.4</ele><time>2026-04-18T13:20:49.001Z</time></trkpt><trkpt lat="43.253166733070415" lon="10.748065021966141"><ele>489.59999999999997</ele><time>2026-04-18T13:20:50.001Z</time></trkpt><trkpt lat="43.25323494006636" lon="10.748149314873064"><ele>486.79999999999995</ele><time>2026-04-18T13:20:51.001Z</time></trkpt><trkpt lat="43.25334229090772" lon="10.748225538941426"><ele>484.0</ele><time>2026-04-18T13:20:52.001Z</time></trkpt><trkpt lat="43.25347841872318" lon="10.748249171714786"><ele>484.0</ele><time>2026-04-18T13:20:53.001Z</time></trkpt><trkpt lat="43.25359403225207" lon="10.748328344651657"><ele>484.0</ele><time>2026-04-18T13:20:54.001Z</time></trkpt><trkpt lat="43.25369383179006" lon="10.748434688379241"><ele>484.0</ele><time>2026-04-18T13:20:56.001Z</time></trkpt><trkpt lat="43.25373028869735" lon="10.748509398744908"><ele>484.0</ele><time>2026-04-18T13:20:57.001Z</time></trkpt><trkpt lat="43.253743257402554" lon="10.748650357931728"><ele>484.0</ele><time>2026-04-18T13:20:58.001Z</time></trkpt><trkpt lat="43.25374872193598" lon="10.74883063222612"><ele>484.2</ele><time>2026-04-18T13:20:59.001Z</time></trkpt><trkpt lat="43.253770889659954" lon="10.748987987669611"><ele>484.4</ele><time>2026-04-18T13:21:00.001Z</time></trkpt><trkpt lat="43.25380215592287" lon="10.749123274021242"><ele>484.6</ele><time>2026-04-18T13:21:01.001Z</time></trkpt><trkpt lat="43.253815641414654" lon="10.749237603785712"><ele>484.8</ele><time>2026-04-18T13:21:02.001Z</time></trkpt><trkpt lat="43.25387067781867" lon="10.749340113568126"><ele>485.0</ele><time>2026-04-18T13:21:03.001Z</time></trkpt><trkpt lat="43.25393718300025" lon="10.74947018663035"><ele>485.2</ele><time>2026-04-18T13:21:04.001Z</time></trkpt><trkpt lat="43.2540211846716" lon="10.749594402590764"><ele>485.4</ele><time>2026-04-18T13:21:05.001Z</time></trkpt><trkpt lat="43.254112385216025" lon="10.749695345287403"><ele>485.6</ele><time>2026-04-18T13:21:06.001Z</time></trkpt><trkpt lat="43.2541861918543" lon="10.749763075738572"><ele>485.8</ele><time>2026-04-18T13:21:07.001Z</time></trkpt><trkpt lat="43.25425870829861" lon="10.749827264920954"><ele>486.0</ele><time>2026-04-18T13:21:08.001Z</time></trkpt><trkpt lat="43.2543260337107" lon="10.749882395681974"><ele>486.0</ele><time>2026-04-18T13:21:09.001Z</time></trkpt><trkpt lat="43.25440258538711" lon="10.74992925063119"><ele>486.0</ele><time>2026-04-18T13:21:10.001Z</time></trkpt><trkpt lat="43.25450317528085" lon="10.749971349906653"><ele>486.0</ele><time>2026-04-18T13:21:11.001Z</time></trkpt><trkpt lat="43.254640780313736" lon="10.749973963168767"><ele>486.0</ele><time>2026-04-18T13:21:12Z</time></trkpt><trkpt lat="43.25476848624868" lon="10.749945270077665"><ele>483.8</ele><time>2026-04-18T13:21:13Z</time></trkpt><trkpt lat="43.25486797273138" lon="10.749982017360438"><ele>481.6</ele><time>2026-04-18T13:21:14Z</time></trkpt><trkpt lat="43.25496469491822" lon="10.750004338337808"><ele>479.4</ele><time>2026-04-18T13:21:15Z</time></trkpt><trkpt lat="43.25503391265598" lon="10.750025818273386"><ele>477.2</ele><time>2026-04-18T13:21:16Z</time></trkpt><trkpt lat="43.25511597442332" lon="10.750009803186408"><ele>475.0</ele><time>2026-04-18T13:21:17Z</time></trkpt><trkpt lat="43.255225955719276" lon="10.749999016507282"><ele>475.0</ele><time>2026-04-18T13:21:18Z</time></trkpt><trkpt lat="43.25536907027946" lon="10.749960626479236"><ele>475.0</ele><time>2026-04-18T13:21:19Z</time></trkpt><trkpt lat="43.25547445790395" lon="10.74989061098661"><ele>475.0</ele><time>2026-04-18T13:21:20Z</time></trkpt><trkpt lat="43.25559102813868" lon="10.749894420519988"><ele>475.0</ele><time>2026-04-18T13:21:22Z</time></trkpt><trkpt lat="43.255660881200626" lon="10.750007658627853"><ele>474.2</ele><time>2026-04-18T13:21:24Z</time></trkpt><trkpt lat="43.255717063583546" lon="10.750100137561684"><ele>473.4</ele><time>2026-04-18T13:21:25Z</time></trkpt><trkpt lat="43.2557923928585" lon="10.75024133020775"><ele>472.6</ele><time>2026-04-18T13:21:26Z</time></trkpt><trkpt lat="43.255870559968926" lon="10.750369435681725"><ele>471.8</ele><time>2026-04-18T13:21:27Z</time></trkpt><trkpt lat="43.25595189971105" lon="10.750466140324523"><ele>471.0</ele><time>2026-04-18T13:21:28Z</time></trkpt><trkpt lat="43.25605229961571" lon="10.750533278888398"><ele>471.0</ele><time>2026-04-18T13:21:29Z</time></trkpt><trkpt lat="43.25615583291644" lon="10.75046531927121"><ele>471.0</ele><time>2026-04-18T13:21:30Z</time></trkpt><trkpt lat="43.25623345973021" lon="10.750524208367274"><ele>471.0</ele><time>2026-04-18T13:21:31Z</time></trkpt><trkpt lat="43.25628714985963" lon="10.750601170471262"><ele>471.0</ele><time>2026-04-18T13:21:32Z</time></trkpt><trkpt lat="43.25632236060595" lon="10.750685208110966"><ele>471.0</ele><time>2026-04-18T13:21:33Z</time></trkpt><trkpt lat="43.25637704837226" lon="10.750814927670843"><ele>472.33333333333337</ele><time>2026-04-18T13:21:34Z</time></trkpt><trkpt lat="43.25647598236947" lon="10.750989460931573"><ele>473.6666666666667</ele><time>2026-04-18T13:21:35Z</time></trkpt><trkpt lat="43.25655686310627" lon="10.75116629027792"><ele>475.0</ele><time>2026-04-18T13:21:36Z</time></trkpt><trkpt lat="43.25664784529094" lon="10.75131719975771"><ele>472.0</ele><time>2026-04-18T13:21:37Z</time></trkpt><trkpt lat="43.256718705011394" lon="10.751454959451245"><ele>469.0</ele><time>2026-04-18T13:21:38Z</time></trkpt><trkpt lat="43.25678635839765" lon="10.751571900624043"><ele>466.0</ele><time>2026-04-18T13:21:39Z</time></trkpt><trkpt lat="43.256843948570335" lon="10.751692286772135"><ele>463.0</ele><time>2026-04-18T13:21:40Z</time></trkpt><trkpt lat="43.25692840319658" lon="10.751815758875932"><ele>462.5</ele><time>2026-04-18T13:21:41Z</time></trkpt><trkpt lat="43.257026223123376" lon="10.751912959161784"><ele>462.0</ele><time>2026-04-18T13:21:42Z</time></trkpt><trkpt lat="43.25712480342305" lon="10.751998340981967"><ele>461.5</ele><time>2026-04-18T13:21:43Z</time></trkpt><trkpt lat="43.25723985858272" lon="10.752066766227282"><ele>461.0</ele><time>2026-04-18T13:21:44Z</time></trkpt><trkpt lat="43.257353324544944" lon="10.752183570931033"><ele>461.0</ele><time>2026-04-18T13:21:45Z</time></trkpt><trkpt lat="43.257474373075254" lon="10.752273433814358"><ele>461.0</ele><time>2026-04-18T13:21:46Z</time></trkpt><trkpt lat="43.25757064651486" lon="10.75232421008762"><ele>461.0</ele><time>2026-04-18T13:21:47Z</time></trkpt><trkpt lat="43.257651073848216" lon="10.752388698090297"><ele>461.0</ele><time>2026-04-18T13:21:48Z</time></trkpt><trkpt lat="43.25771976131165" lon="10.752432737305986"><ele>461.0</ele><time>2026-04-18T13:21:49Z</time></trkpt><trkpt lat="43.25779483180782" lon="10.752456177278853"><ele>461.0</ele><time>2026-04-18T13:21:50Z</time></trkpt><trkpt lat="43.257860681857885" lon="10.752446164907559"><ele>461.0</ele><time>2026-04-18T13:21:51Z</time></trkpt><trkpt lat="43.2579435808609" lon="10.75244410007396"><ele>461.0</ele><time>2026-04-18T13:21:52Z</time></trkpt><trkpt lat="43.25804020441469" lon="10.752450547235235"><ele>461.0</ele><time>2026-04-18T13:21:53Z</time></trkpt><trkpt lat="43.25814418894724" lon="10.752441220271061"><ele>461.0</ele><time>2026-04-18T13:21:54Z</time></trkpt><trkpt lat="43.258255469794335" lon="10.75242100691629"><ele>462.0</ele><time>2026-04-18T13:21:55Z</time></trkpt><trkpt lat="43.258354331285595" lon="10.752389618170643"><ele>463.0</ele><time>2026-04-18T13:21:56Z</time></trkpt><trkpt lat="43.258443173243414" lon="10.752326296350665"><ele>464.0</ele><time>2026-04-18T13:21:57Z</time></trkpt><trkpt lat="43.258542641190964" lon="10.752291967275893"><ele>465.0</ele><time>2026-04-18T13:21:58Z</time></trkpt><trkpt lat="43.25866625617203" lon="10.752216690252741"><ele>466.0</ele><time>2026-04-18T13:21:59.001Z</time></trkpt><trkpt lat="43.25878645535493" lon="10.75212531419438"><ele>466.0</ele><time>2026-04-18T13:22:00.001Z</time></trkpt><trkpt lat="43.25890078768297" lon="10.75206031419772"><ele>466.0</ele><time>2026-04-18T13:22:01.001Z</time></trkpt><trkpt lat="43.258987803342755" lon="10.752002280263378"><ele>466.0</ele><time>2026-04-18T13:22:02.001Z</time></trkpt><trkpt lat="43.25908534222608" lon="10.751971170635574"><ele>466.0</ele><time>2026-04-18T13:22:03.001Z</time></trkpt><trkpt lat="43.259178283749115" lon="10.751965330201344"><ele>466.0</ele><time>2026-04-18T13:22:04.001Z</time></trkpt><trkpt lat="43.25929662195512" lon="10.751996848980028"><ele>465.83333333333337</ele><time>2026-04-18T13:22:05.001Z</time></trkpt><trkpt lat="43.259398994945926" lon="10.752028943832636"><ele>465.6666666666667</ele><time>2026-04-18T13:22:06.001Z</time></trkpt><trkpt lat="43.25947626464188" lon="10.75204573110991"><ele>465.5</ele><time>2026-04-18T13:22:07.001Z</time></trkpt><trkpt lat="43.25955054522105" lon="10.752075086466967"><ele>465.33333333333337</ele><time>2026-04-18T13:22:08.001Z</time></trkpt><trkpt lat="43.25962075878225" lon="10.752110856221575"><ele>465.1666666666667</ele><time>2026-04-18T13:22:09.001Z</time></trkpt><trkpt lat="43.25966925256941" lon="10.752168577022475"><ele>465.0</ele><time>2026-04-18T13:22:10.001Z</time></trkpt><trkpt lat="43.25969076697267" lon="10.752349670400884"><ele>465.0</ele><time>2026-04-18T13:22:12.001Z</time></trkpt><trkpt lat="43.25966774265439" lon="10.752466449783057"><ele>465.0</ele><time>2026-04-18T13:22:13.001Z</time></trkpt><trkpt lat="43.2596274298905" lon="10.752618958483763"><ele>465.0</ele><time>2026-04-18T13:22:14.001Z</time></trkpt><trkpt lat="43.259562892919384" lon="10.75274921031526"><ele>465.0</ele><time>2026-04-18T13:22:15.001Z</time></trkpt><trkpt lat="43.259498882112915" lon="10.752886019576025"><ele>465.0</ele><time>2026-04-18T13:22:16.001Z</time></trkpt><trkpt lat="43.259471052184" lon="10.753021339584704"><ele>463.3333333333333</ele><time>2026-04-18T13:22:17.001Z</time></trkpt><trkpt lat="43.259474109021404" lon="10.753124429732448"><ele>461.66666666666663</ele><time>2026-04-18T13:22:18.001Z</time></trkpt><trkpt lat="43.25946681286991" lon="10.75321208562162"><ele>460.0</ele><time>2026-04-18T13:22:19.001Z</time></trkpt><trkpt lat="43.25947826078703" lon="10.753327342942866"><ele>458.3333333333333</ele><time>2026-04-18T13:22:20.001Z</time></trkpt><trkpt lat="43.25949802373639" lon="10.753426737644242"><ele>456.66666666666663</ele><time>2026-04-18T13:22:21.001Z</time></trkpt><trkpt lat="43.25953999401468" lon="10.753517947263056"><ele>455.0</ele><time>2026-04-18T13:22:22.001Z</time></trkpt><trkpt lat="43.25961446173522" lon="10.753612041869488"><ele>455.75</ele><time>2026-04-18T13:22:23.001Z</time></trkpt><trkpt lat="43.25969514583784" lon="10.753730503491019"><ele>456.5</ele><time>2026-04-18T13:22:24.001Z</time></trkpt><trkpt lat="43.25978880617406" lon="10.753848229878031"><ele>457.25</ele><time>2026-04-18T13:22:25.001Z</time></trkpt><trkpt lat="43.25987230533962" lon="10.753960179511278"><ele>458.0</ele><time>2026-04-18T13:22:26.001Z</time></trkpt><trkpt lat="43.25995035684488" lon="10.754023787513423"><ele>458.0</ele><time>2026-04-18T13:22:27.001Z</time></trkpt><trkpt lat="43.26004675391578" lon="10.754080266027264"><ele>457.99999999999994</ele><time>2026-04-18T13:22:28.001Z</time></trkpt><trkpt lat="43.26016011332288" lon="10.754123751324805"><ele>457.99999999999994</ele><time>2026-04-18T13:22:29.001Z</time></trkpt><trkpt lat="43.26027742536467" lon="10.754165744555078"><ele>458.0</ele><time>2026-04-18T13:22:30.001Z</time></trkpt><trkpt lat="43.26037872375946" lon="10.754194922192179"><ele>458.0</ele><time>2026-04-18T13:22:31.001Z</time></trkpt><trkpt lat="43.26047667712305" lon="10.7542021613497"><ele>458.0</ele><time>2026-04-18T13:22:32.001Z</time></trkpt><trkpt lat="43.26057223883308" lon="10.7541803024418"><ele>457.99999999999994</ele><time>2026-04-18T13:22:33.001Z</time></trkpt><trkpt lat="43.26068998635159" lon="10.75414215711808"><ele>457.99999999999994</ele><time>2026-04-18T13:22:34.001Z</time></trkpt><trkpt lat="43.26080246721983" lon="10.754089290961083"><ele>458.0</ele><time>2026-04-18T13:22:35.001Z</time></trkpt><trkpt lat="43.26087815790578" lon="10.754038028050534"><ele>458.0</ele><time>2026-04-18T13:22:36.001Z</time></trkpt><trkpt lat="43.26092646268539" lon="10.753968237141503"><ele>457.99999999999994</ele><time>2026-04-18T13:22:37.001Z</time></trkpt><trkpt lat="43.260976909776275" lon="10.75391574062078"><ele>458.0</ele><time>2026-04-18T13:22:38.001Z</time></trkpt><trkpt lat="43.26101136297733" lon="10.75381094861706"><ele>458.0</ele><time>2026-04-18T13:22:39.001Z</time></trkpt><trkpt lat="43.261032489992736" lon="10.753696974519372"><ele>458.0</ele><time>2026-04-18T13:22:40.001Z</time></trkpt><trkpt lat="43.26106795825671" lon="10.753615354332979"><ele>457.99999999999994</ele><time>2026-04-18T13:22:41.001Z</time></trkpt><trkpt lat="43.261134469700686" lon="10.753579645019068"><ele>458.0</ele><time>2026-04-18T13:22:42.001Z</time></trkpt><trkpt lat="43.26121783375385" lon="10.753599890396544"><ele>458.0</ele><time>2026-04-18T13:22:43.001Z</time></trkpt><trkpt lat="43.26130832313395" lon="10.753593893553832"><ele>457.99999999999994</ele><time>2026-04-18T13:22:44.001Z</time></trkpt><trkpt lat="43.26139188621728" lon="10.753601055016166"><ele>457.99999999999994</ele><time>2026-04-18T13:22:45.001Z</time></trkpt><trkpt lat="43.261471413221734" lon="10.75347190770272"><ele>458.0</ele><time>2026-04-18T13:22:46.001Z</time></trkpt><trkpt lat="43.26156357950812" lon="10.753351514168333"><ele>458.0</ele><time>2026-04-18T13:22:47.001Z</time></trkpt><trkpt lat="43.261653865483304" lon="10.753215708612046"><ele>459.3333333333333</ele><time>2026-04-18T13:22:48.001Z</time></trkpt><trkpt lat="43.26172686658578" lon="10.753127848782318"><ele>460.66666666666663</ele><time>2026-04-18T13:22:49.001Z</time></trkpt><trkpt lat="43.26177835460779" lon="10.753063248308708"><ele>462.0</ele><time>2026-04-18T13:22:50.001Z</time></trkpt><trkpt lat="43.2618555224203" lon="10.753042813411845"><ele>463.33333333333337</ele><time>2026-04-18T13:22:51.001Z</time></trkpt><trkpt lat="43.261927575252464" lon="10.753053223960277"><ele>464.6666666666667</ele><time>2026-04-18T13:22:52.001Z</time></trkpt><trkpt lat="43.262004063254" lon="10.753105043502579"><ele>466.0</ele><time>2026-04-18T13:22:53.001Z</time></trkpt><trkpt lat="43.262099238403074" lon="10.753196829056058"><ele>466.00000000000006</ele><time>2026-04-18T13:22:54.001Z</time></trkpt><trkpt lat="43.26218724627773" lon="10.753286563491809"><ele>466.0</ele><time>2026-04-18T13:22:55.001Z</time></trkpt><trkpt lat="43.26225774690948" lon="10.75334430432218"><ele>466.0</ele><time>2026-04-18T13:22:56.001Z</time></trkpt><trkpt lat="43.262327522123634" lon="10.753345498145958"><ele>466.0</ele><time>2026-04-18T13:22:57.001Z</time></trkpt><trkpt lat="43.26241010189037" lon="10.753324304388206"><ele>466.00000000000006</ele><time>2026-04-18T13:22:58.001Z</time></trkpt><trkpt lat="43.26250008315514" lon="10.753262855484948"><ele>466.0</ele><time>2026-04-18T13:22:59.001Z</time></trkpt><trkpt lat="43.2625774026357" lon="10.753209415525935"><ele>464.8</ele><time>2026-04-18T13:23:00.001Z</time></trkpt><trkpt lat="43.262649038059784" lon="10.753222603406758"><ele>463.6</ele><time>2026-04-18T13:23:01.001Z</time></trkpt><trkpt lat="43.26271808236641" lon="10.753277037601858"><ele>462.4</ele><time>2026-04-18T13:23:02.001Z</time></trkpt><trkpt lat="43.2628042357474" lon="10.753369607559152"><ele>461.2</ele><time>2026-04-18T13:23:03.001Z</time></trkpt><trkpt lat="43.262892864180934" lon="10.75347025020663"><ele>460.0</ele><time>2026-04-18T13:23:04.001Z</time></trkpt><trkpt lat="43.2630100750688" lon="10.753531765069475"><ele>456.5</ele><time>2026-04-18T13:23:05.001Z</time></trkpt><trkpt lat="43.26314860419475" lon="10.753550043731845"><ele>453.0</ele><time>2026-04-18T13:23:06.001Z</time></trkpt><trkpt lat="43.26328069095532" lon="10.75356738981029"><ele>449.5</ele><time>2026-04-18T13:23:07.001Z</time></trkpt><trkpt lat="43.26339211995329" lon="10.753583559012482"><ele>446.0</ele><time>2026-04-18T13:23:08.001Z</time></trkpt><trkpt lat="43.26347272618967" lon="10.75361323615929"><ele>445.99999999999994</ele><time>2026-04-18T13:23:09.001Z</time></trkpt><trkpt lat="43.26352919134202" lon="10.753662967772993"><ele>446.0</ele><time>2026-04-18T13:23:10.001Z</time></trkpt><trkpt lat="43.26360329239103" lon="10.753741558092122"><ele>446.0</ele><time>2026-04-18T13:23:12.002Z</time></trkpt><trkpt lat="43.26364284614366" lon="10.75384353799545"><ele>446.0</ele><time>2026-04-18T13:23:14.002Z</time></trkpt><trkpt lat="43.26367642174528" lon="10.753919771588532"><ele>445.99999999999994</ele><time>2026-04-18T13:23:15.002Z</time></trkpt><trkpt lat="43.26371610953631" lon="10.754023661264428"><ele>446.0</ele><time>2026-04-18T13:23:16.002Z</time></trkpt><trkpt lat="43.26375584056445" lon="10.754160978398911"><ele>446.0</ele><time>2026-04-18T13:23:17.002Z</time></trkpt><trkpt lat="43.263790057867446" lon="10.75432560079435"><ele>446.0</ele><time>2026-04-18T13:23:18Z</time></trkpt><trkpt lat="43.26382839065731" lon="10.754483565297054"><ele>446.0</ele><time>2026-04-18T13:23:19Z</time></trkpt><trkpt lat="43.26389820853022" lon="10.754634403037121"><ele>446.0</ele><time>2026-04-18T13:23:20Z</time></trkpt><trkpt lat="43.26396391641098" lon="10.75473890682826"><ele>447.6</ele><time>2026-04-18T13:23:21Z</time></trkpt><trkpt lat="43.26402976753919" lon="10.754793430426883"><ele>449.20000000000005</ele><time>2026-04-18T13:23:22Z</time></trkpt><trkpt lat="43.26410390010124" lon="10.754833021373798"><ele>450.79999999999995</ele><time>2026-04-18T13:23:23Z</time></trkpt><trkpt lat="43.264196239272835" lon="10.754857737758586"><ele>452.4</ele><time>2026-04-18T13:23:24Z</time></trkpt><trkpt lat="43.2643175163088" lon="10.754888405852144"><ele>454.0</ele><time>2026-04-18T13:23:25Z</time></trkpt><trkpt lat="43.264462232399055" lon="10.75491128478879"><ele>454.0</ele><time>2026-04-18T13:23:26Z</time></trkpt><trkpt lat="43.26458968540995" lon="10.754920815440837"><ele>454.0</ele><time>2026-04-18T13:23:27Z</time></trkpt><trkpt lat="43.264688906188205" lon="10.754968855125682"><ele>454.0</ele><time>2026-04-18T13:23:28Z</time></trkpt><trkpt lat="43.26477867879948" lon="10.75503988633678"><ele>454.0</ele><time>2026-04-18T13:23:29Z</time></trkpt><trkpt lat="43.26487348057234" lon="10.755101806737418"><ele>454.0</ele><time>2026-04-18T13:23:30Z</time></trkpt><trkpt lat="43.264974415215335" lon="10.755128516136427"><ele>455.79999999999995</ele><time>2026-04-18T13:23:31Z</time></trkpt><trkpt lat="43.265083473731025" lon="10.755142644847322"><ele>457.59999999999997</ele><time>2026-04-18T13:23:32Z</time></trkpt><trkpt lat="43.2651820357766" lon="10.755127003503924"><ele>459.4</ele><time>2026-04-18T13:23:33Z</time></trkpt><trkpt lat="43.265266358015516" lon="10.755101259116717"><ele>461.2</ele><time>2026-04-18T13:23:34Z</time></trkpt><trkpt lat="43.26537614631536" lon="10.755066918750542"><ele>463.0</ele><time>2026-04-18T13:23:35Z</time></trkpt><trkpt lat="43.2654683007089" lon="10.755013949549648"><ele>463.0</ele><time>2026-04-18T13:23:36Z</time></trkpt><trkpt lat="43.265575347110875" lon="10.754968320334292"><ele>462.99999999999994</ele><time>2026-04-18T13:23:37Z</time></trkpt><trkpt lat="43.26567124095496" lon="10.754961540429884"><ele>462.99999999999994</ele><time>2026-04-18T13:23:38Z</time></trkpt><trkpt lat="43.26577753380776" lon="10.754976350594012"><ele>463.0</ele><time>2026-04-18T13:23:39Z</time></trkpt><trkpt lat="43.26590474224534" lon="10.754965088772684"><ele>463.0</ele><time>2026-04-18T13:23:40Z</time></trkpt><trkpt lat="43.26601888135582" lon="10.754917740846949"><ele>460.0</ele><time>2026-04-18T13:23:41Z</time></trkpt><trkpt lat="43.26614004945149" lon="10.754865823346474"><ele>457.0</ele><time>2026-04-18T13:23:42Z</time></trkpt><trkpt lat="43.26625574458706" lon="10.754853002343248"><ele>454.0</ele><time>2026-04-18T13:23:43Z</time></trkpt><trkpt lat="43.266355048284886" lon="10.7548696562817"><ele>451.0</ele><time>2026-04-18T13:23:44Z</time></trkpt><trkpt lat="43.266456085760105" lon="10.754938904053711"><ele>448.75</ele><time>2026-04-18T13:23:45Z</time></trkpt><trkpt lat="43.26657424435229" lon="10.755033390898378"><ele>446.5</ele><time>2026-04-18T13:23:46Z</time></trkpt><trkpt lat="43.266699611944354" lon="10.755143074932256"><ele>444.25</ele><time>2026-04-18T13:23:47Z</time></trkpt><trkpt lat="43.266828573943215" lon="10.75524248410962"><ele>442.0</ele><time>2026-04-18T13:23:48Z</time></trkpt><trkpt lat="43.26695530026025" lon="10.755323657043514"><ele>442.0</ele><time>2026-04-18T13:23:49Z</time></trkpt><trkpt lat="43.26706898169993" lon="10.755387230240869"><ele>442.0</ele><time>2026-04-18T13:23:50Z</time></trkpt><trkpt lat="43.26717336120889" lon="10.755436679351693"><ele>442.0</ele><time>2026-04-18T13:23:51Z</time></trkpt><trkpt lat="43.26728619823957" lon="10.75546449254549"><ele>442.0</ele><time>2026-04-18T13:23:52Z</time></trkpt><trkpt lat="43.26739123533707" lon="10.755465051113672"><ele>442.0</ele><time>2026-04-18T13:23:53Z</time></trkpt><trkpt lat="43.26749536195617" lon="10.755438272279829"><ele>442.0</ele><time>2026-04-18T13:23:54Z</time></trkpt><trkpt lat="43.26759896335073" lon="10.755383920230061"><ele>442.0</ele><time>2026-04-18T13:23:55Z</time></trkpt><trkpt lat="43.26769834639925" lon="10.755299244792772"><ele>442.0</ele><time>2026-04-18T13:23:56Z</time></trkpt><trkpt lat="43.26779139628185" lon="10.755194626911672"><ele>442.1666666666667</ele><time>2026-04-18T13:23:57Z</time></trkpt><trkpt lat="43.26787561516499" lon="10.755078730119406"><ele>442.33333333333337</ele><time>2026-04-18T13:23:58Z</time></trkpt><trkpt lat="43.26793982677781" lon="10.755003631901282"><ele>442.5</ele><time>2026-04-18T13:23:59Z</time></trkpt><trkpt lat="43.26803174870894" lon="10.755001543568161"><ele>442.66666666666663</ele><time>2026-04-18T13:24:01Z</time></trkpt><trkpt lat="43.26809322119498" lon="10.755043330384204"><ele>442.8333333333333</ele><time>2026-04-18T13:24:02Z</time></trkpt><trkpt lat="43.2681371831207" lon="10.75511022951274"><ele>443.0</ele><time>2026-04-18T13:24:03Z</time></trkpt><trkpt lat="43.268222657208966" lon="10.755237266561924"><ele>443.0</ele><time>2026-04-18T13:24:05.001Z</time></trkpt><trkpt lat="43.26825635484916" lon="10.755324550841936"><ele>442.99999999999994</ele><time>2026-04-18T13:24:06.001Z</time></trkpt><trkpt lat="43.26829757736909" lon="10.755424336528927"><ele>442.99999999999994</ele><time>2026-04-18T13:24:07.001Z</time></trkpt><trkpt lat="43.26835761170585" lon="10.75555170462158"><ele>443.0</ele><time>2026-04-18T13:24:08.001Z</time></trkpt><trkpt lat="43.26844338947688" lon="10.755668430559805"><ele>443.0</ele><time>2026-04-18T13:24:09.001Z</time></trkpt><trkpt lat="43.26855286994351" lon="10.755777260305976"><ele>443.0</ele><time>2026-04-18T13:24:10.001Z</time></trkpt><trkpt lat="43.26867067219805" lon="10.755905732086942"><ele>443.0</ele><time>2026-04-18T13:24:11.001Z</time></trkpt><trkpt lat="43.268792752127275" lon="10.756042489960537"><ele>443.0</ele><time>2026-04-18T13:24:12.001Z</time></trkpt><trkpt lat="43.26890818282887" lon="10.756174040952219"><ele>442.25</ele><time>2026-04-18T13:24:13.001Z</time></trkpt><trkpt lat="43.26902003618066" lon="10.756296988145142"><ele>441.5</ele><time>2026-04-18T13:24:14.001Z</time></trkpt><trkpt lat="43.26914412393579" lon="10.756407290863402"><ele>440.75</ele><time>2026-04-18T13:24:15.001Z</time></trkpt><trkpt lat="43.26927907516178" lon="10.756520603991715"><ele>440.0</ele><time>2026-04-18T13:24:16.001Z</time></trkpt><trkpt lat="43.26941984195463" lon="10.756626563869093"><ele>440.0</ele><time>2026-04-18T13:24:17.001Z</time></trkpt><trkpt lat="43.26954295470902" lon="10.756723894055126"><ele>440.0</ele><time>2026-04-18T13:24:18.001Z</time></trkpt><trkpt lat="43.26965256835606" lon="10.756790114212384"><ele>440.0</ele><time>2026-04-18T13:24:19.001Z</time></trkpt><trkpt lat="43.26975439993028" lon="10.756828141630047"><ele>440.0</ele><time>2026-04-18T13:24:20.001Z</time></trkpt><trkpt lat="43.26986523761954" lon="10.756848755925212"><ele>440.25</ele><time>2026-04-18T13:24:21.001Z</time></trkpt><trkpt lat="43.27000019968063" lon="10.756850299239929"><ele>440.5</ele><time>2026-04-18T13:24:22.001Z</time></trkpt><trkpt lat="43.27015231027519" lon="10.756850968490442"><ele>440.75</ele><time>2026-04-18T13:24:23.001Z</time></trkpt><trkpt lat="43.27028421385702" lon="10.756871956625377"><ele>441.0</ele><time>2026-04-18T13:24:24.001Z</time></trkpt><trkpt lat="43.27039988846446" lon="10.756907215731927"><ele>441.0</ele><time>2026-04-18T13:24:25.001Z</time></trkpt><trkpt lat="43.270528563021095" lon="10.756982336510836"><ele>441.0</ele><time>2026-04-18T13:24:26.001Z</time></trkpt><trkpt lat="43.27063796643285" lon="10.75707058655594"><ele>441.0</ele><time>2026-04-18T13:24:27.001Z</time></trkpt><trkpt lat="43.27071888105274" lon="10.757148161717176"><ele>441.0</ele><time>2026-04-18T13:24:28.001Z</time></trkpt><trkpt lat="43.2707735188585" lon="10.757237109984587"><ele>443.0</ele><time>2026-04-18T13:24:29.001Z</time></trkpt><trkpt lat="43.27079584154684" lon="10.757337891019825"><ele>445.0</ele><time>2026-04-18T13:24:30.001Z</time></trkpt><trkpt lat="43.27078817454711" lon="10.757440200600264"><ele>447.0</ele><time>2026-04-18T13:24:31.001Z</time></trkpt><trkpt lat="43.270769974561105" lon="10.757585272569356"><ele>449.0</ele><time>2026-04-18T13:24:32.001Z</time></trkpt><trkpt lat="43.27074856384206" lon="10.75772237970553"><ele>451.0</ele><time>2026-04-18T13:24:33.001Z</time></trkpt><trkpt lat="43.27075374269135" lon="10.757828613605625"><ele>453.0</ele><time>2026-04-18T13:24:34.001Z</time></trkpt><trkpt lat="43.270779713148116" lon="10.75794503585261"><ele>453.59999999999997</ele><time>2026-04-18T13:24:35.001Z</time></trkpt><trkpt lat="43.2708317193844" lon="10.758067047174475"><ele>454.19999999999993</ele><time>2026-04-18T13:24:36.001Z</time></trkpt><trkpt lat="43.270905319923386" lon="10.758214532492536"><ele>454.8</ele><time>2026-04-18T13:24:37.001Z</time></trkpt><trkpt lat="43.270956607765534" lon="10.7583433346773"><ele>455.4</ele><time>2026-04-18T13:24:38.001Z</time></trkpt><trkpt lat="43.2709635779973" lon="10.758445637455804"><ele>456.0</ele><time>2026-04-18T13:24:39.001Z</time></trkpt><trkpt lat="43.27093986392781" lon="10.758563332559532"><ele>457.0</ele><time>2026-04-18T13:24:40.001Z</time></trkpt><trkpt lat="43.27090506575049" lon="10.758711878274829"><ele>458.0</ele><time>2026-04-18T13:24:41.001Z</time></trkpt><trkpt lat="43.270865924347596" lon="10.758899051835986"><ele>459.0</ele><time>2026-04-18T13:24:42.001Z</time></trkpt><trkpt lat="43.27083401325382" lon="10.759069305890709"><ele>460.0</ele><time>2026-04-18T13:24:43.001Z</time></trkpt><trkpt lat="43.270793964976896" lon="10.759194375465713"><ele>460.00000000000006</ele><time>2026-04-18T13:24:44.001Z</time></trkpt><trkpt lat="43.270751187275685" lon="10.759285588961893"><ele>460.0</ele><time>2026-04-18T13:24:45.001Z</time></trkpt><trkpt lat="43.270734775620646" lon="10.759383488979621"><ele>460.0</ele><time>2026-04-18T13:24:46.001Z</time></trkpt><trkpt lat="43.27074920806918" lon="10.75947665007888"><ele>460.0</ele><time>2026-04-18T13:24:47.001Z</time></trkpt><trkpt lat="43.27078649567428" lon="10.759568252716077"><ele>460.00000000000006</ele><time>2026-04-18T13:24:48.001Z</time></trkpt><trkpt lat="43.27083192729203" lon="10.759672472526313"><ele>460.0</ele><time>2026-04-18T13:24:49.001Z</time></trkpt><trkpt lat="43.27083167443589" lon="10.759799081995604"><ele>460.2</ele><time>2026-04-18T13:24:50.001Z</time></trkpt><trkpt lat="43.27082696579162" lon="10.759899244587912"><ele>460.4</ele><time>2026-04-18T13:24:51.001Z</time></trkpt><trkpt lat="43.270811176876926" lon="10.760038395187818"><ele>460.6</ele><time>2026-04-18T13:24:52.001Z</time></trkpt><trkpt lat="43.27080545920852" lon="10.760200843423693"><ele>460.8</ele><time>2026-04-18T13:24:53.001Z</time></trkpt><trkpt lat="43.27077416544336" lon="10.76038443446441"><ele>461.0</ele><time>2026-04-18T13:24:54.001Z</time></trkpt><trkpt lat="43.27078067133456" lon="10.760581862950884"><ele>461.0</ele><time>2026-04-18T13:24:55.001Z</time></trkpt><trkpt lat="43.27077458432131" lon="10.760779071913428"><ele>461.0</ele><time>2026-04-18T13:24:56.001Z</time></trkpt><trkpt lat="43.27076224146272" lon="10.760918671129504"><ele>461.0</ele><time>2026-04-18T13:24:57.001Z</time></trkpt><trkpt lat="43.27075221813575" lon="10.76102295004051"><ele>461.0</ele><time>2026-04-18T13:24:58.001Z</time></trkpt><trkpt lat="43.27075568915778" lon="10.76111313794942"><ele>461.0</ele><time>2026-04-18T13:24:59.001Z</time></trkpt><trkpt lat="43.27083909092871" lon="10.76121728987991"><ele>461.0</ele><time>2026-04-18T13:25:01.001Z</time></trkpt><trkpt lat="43.27090214685726" lon="10.761262668387749"><ele>461.0</ele><time>2026-04-18T13:25:02.001Z</time></trkpt><trkpt lat="43.27101579746959" lon="10.76131819918336"><ele>461.0</ele><time>2026-04-18T13:25:04.001Z</time></trkpt><trkpt lat="43.27109361010809" lon="10.761322728255518"><ele>461.0</ele><time>2026-04-18T13:25:05.001Z</time></trkpt><trkpt lat="43.2711813766847" lon="10.76131226028801"><ele>461.0</ele><time>2026-04-18T13:25:06.001Z</time></trkpt><trkpt lat="43.27127355119916" lon="10.761332277483936"><ele>460.99999999999994</ele><time>2026-04-18T13:25:07.001Z</time></trkpt><trkpt lat="43.271367127173924" lon="10.761305785535786"><ele>461.0</ele><time>2026-04-18T13:25:08.001Z</time></trkpt><trkpt lat="43.27144487713574" lon="10.761292975249248"><ele>461.0</ele><time>2026-04-18T13:25:09.001Z</time></trkpt><trkpt lat="43.27151193142399" lon="10.761270844729475"><ele>461.0</ele><time>2026-04-18T13:25:10.001Z</time></trkpt><trkpt lat="43.27157984107705" lon="10.761232512534477"><ele>460.99999999999994</ele><time>2026-04-18T13:25:11.001Z</time></trkpt><trkpt lat="43.271654644211914" lon="10.761120652281738"><ele>461.0</ele><time>2026-04-18T13:25:13.001Z</time></trkpt><trkpt lat="43.271713679895136" lon="10.760976075250946"><ele>463.8</ele><time>2026-04-18T13:25:15.001Z</time></trkpt><trkpt lat="43.27172599134947" lon="10.760878246162711"><ele>466.6</ele><time>2026-04-18T13:25:16.001Z</time></trkpt><trkpt lat="43.271741782931485" lon="10.760782941310497"><ele>469.4</ele><time>2026-04-18T13:25:17.001Z</time></trkpt><trkpt lat="43.2717706932336" lon="10.76066564386966"><ele>472.2</ele><time>2026-04-18T13:25:18.002Z</time></trkpt><trkpt lat="43.271801781985104" lon="10.760508820972317"><ele>475.0</ele><time>2026-04-18T13:25:19.002Z</time></trkpt><trkpt lat="43.27184173186764" lon="10.760354559899213"><ele>475.00000000000006</ele><time>2026-04-18T13:25:20.002Z</time></trkpt><trkpt lat="43.271919379319804" lon="10.760279332734521"><ele>475.0</ele><time>2026-04-18T13:25:21.002Z</time></trkpt><trkpt lat="43.27196858402847" lon="10.76019874543392"><ele>475.0</ele><time>2026-04-18T13:25:22.002Z</time></trkpt><trkpt lat="43.27203043501855" lon="10.760140323149836"><ele>475.0</ele><time>2026-04-18T13:25:23.002Z</time></trkpt><trkpt lat="43.272106959848536" lon="10.760097982218788"><ele>475.00000000000006</ele><time>2026-04-18T13:25:24Z</time></trkpt><trkpt lat="43.27218763424318" lon="10.76007510831679"><ele>475.0</ele><time>2026-04-18T13:25:25Z</time></trkpt><trkpt lat="43.272275687652815" lon="10.76007358669063"><ele>476.6</ele><time>2026-04-18T13:25:26Z</time></trkpt><trkpt lat="43.27236817501301" lon="10.760101592832031"><ele>478.2</ele><time>2026-04-18T13:25:27Z</time></trkpt><trkpt lat="43.27247836370267" lon="10.76015277907785"><ele>479.79999999999995</ele><time>2026-04-18T13:25:28Z</time></trkpt><trkpt lat="43.27260944941992" lon="10.760190034414506"><ele>481.4</ele><time>2026-04-18T13:25:29Z</time></trkpt><trkpt lat="43.27270276273107" lon="10.760175676543346"><ele>483.0</ele><time>2026-04-18T13:25:30Z</time></trkpt><trkpt lat="43.27278475305071" lon="10.76016640995351"><ele>483.0</ele><time>2026-04-18T13:25:31Z</time></trkpt><trkpt lat="43.272880791026566" lon="10.760139701994923"><ele>482.99999999999994</ele><time>2026-04-18T13:25:32Z</time></trkpt><trkpt lat="43.27296487702575" lon="10.760062412090843"><ele>482.99999999999994</ele><time>2026-04-18T13:25:33Z</time></trkpt><trkpt lat="43.27304210881159" lon="10.759968272302523"><ele>483.0</ele><time>2026-04-18T13:25:34Z</time></trkpt><trkpt lat="43.27313677453838" lon="10.759849244595452"><ele>483.0</ele><time>2026-04-18T13:25:35Z</time></trkpt><trkpt lat="43.273219271846294" lon="10.759709649542343"><ele>483.2</ele><time>2026-04-18T13:25:36Z</time></trkpt><trkpt lat="43.2733090437575" lon="10.759581747119585"><ele>483.4</ele><time>2026-04-18T13:25:37Z</time></trkpt><trkpt lat="43.27338667998635" lon="10.759504599776731"><ele>483.59999999999997</ele><time>2026-04-18T13:25:38Z</time></trkpt><trkpt lat="43.27344376664858" lon="10.759446551911518"><ele>483.79999999999995</ele><time>2026-04-18T13:25:39Z</time></trkpt><trkpt lat="43.27350947371422" lon="10.75938487601129"><ele>484.0</ele><time>2026-04-18T13:25:40Z</time></trkpt><trkpt lat="43.27358459315443" lon="10.759325598988157"><ele>484.0</ele><time>2026-04-18T13:25:41Z</time></trkpt><trkpt lat="43.27365313908064" lon="10.759281043191514"><ele>484.0</ele><time>2026-04-18T13:25:42Z</time></trkpt><trkpt lat="43.27373793102389" lon="10.759225708226028"><ele>484.0</ele><time>2026-04-18T13:25:44Z</time></trkpt><trkpt lat="43.27383999644847" lon="10.759164970224864"><ele>484.0</ele><time>2026-04-18T13:29:20.002Z</time></trkpt><trkpt lat="43.2739339462661" lon="10.759139189969066"><ele>484.0</ele><time>2026-04-18T13:29:21.002Z</time></trkpt><trkpt lat="43.274052764050644" lon="10.7591052463633"><ele>486.2</ele><time>2026-04-18T13:29:22.002Z</time></trkpt><trkpt lat="43.27417196572298" lon="10.759071656906865"><ele>488.4</ele><time>2026-04-18T13:29:23.002Z</time></trkpt><trkpt lat="43.274271491725294" lon="10.759003922112635"><ele>490.6</ele><time>2026-04-18T13:29:24.002Z</time></trkpt><trkpt lat="43.27435165777233" lon="10.758962730955373"><ele>492.8</ele><time>2026-04-18T13:29:25.002Z</time></trkpt><trkpt lat="43.27442213464555" lon="10.758928698884706"><ele>495.0</ele><time>2026-04-18T13:29:26.002Z</time></trkpt><trkpt lat="43.2745248487488" lon="10.75889431156074"><ele>495.0</ele><time>2026-04-18T13:29:28.002Z</time></trkpt><trkpt lat="43.27461628039841" lon="10.758929102265261"><ele>495.0</ele><time>2026-04-18T13:29:30.002Z</time></trkpt><trkpt lat="43.274694067526106" lon="10.758962466435458"><ele>495.0</ele><time>2026-04-18T13:29:31.002Z</time></trkpt><trkpt lat="43.27478556213955" lon="10.75899993319335"><ele>495.0</ele><time>2026-04-18T13:29:32.002Z</time></trkpt><trkpt lat="43.27486240451521" lon="10.759004198131331"><ele>495.0</ele><time>2026-04-18T13:29:33.002Z</time></trkpt><trkpt lat="43.27492307675927" lon="10.758966588963457"><ele>495.0</ele><time>2026-04-18T13:29:34.002Z</time></trkpt><trkpt lat="43.27498472192594" lon="10.758897847419925"><ele>494.6</ele><time>2026-04-18T13:29:35.002Z</time></trkpt><trkpt lat="43.275046228857725" lon="10.758788096403444"><ele>494.2</ele><time>2026-04-18T13:29:36.001Z</time></trkpt><trkpt lat="43.27511818676992" lon="10.758664462132652"><ele>493.79999999999995</ele><time>2026-04-18T13:29:37.001Z</time></trkpt><trkpt lat="43.275176379067574" lon="10.758611407191367"><ele>493.4</ele><time>2026-04-18T13:29:38.001Z</time></trkpt><trkpt lat="43.275295908278224" lon="10.758613401507676"><ele>493.0</ele><time>2026-04-18T13:29:40.001Z</time></trkpt><trkpt lat="43.27536737615911" lon="10.758672864326202"><ele>493.00000000000006</ele><time>2026-04-18T13:29:41.001Z</time></trkpt><trkpt lat="43.275450108603" lon="10.758723072650191"><ele>493.0</ele><time>2026-04-18T13:29:42.001Z</time></trkpt><trkpt lat="43.275532001392854" lon="10.758786907811293"><ele>493.0</ele><time>2026-04-18T13:29:43.001Z</time></trkpt><trkpt lat="43.27561057647563" lon="10.758824904866943"><ele>493.0</ele><time>2026-04-18T13:29:44.001Z</time></trkpt><trkpt lat="43.27567809866014" lon="10.75884770907514"><ele>493.00000000000006</ele><time>2026-04-18T13:29:45.001Z</time></trkpt><trkpt lat="43.27574936246131" lon="10.758874538510451"><ele>493.0</ele><time>2026-04-18T13:29:46.001Z</time></trkpt><trkpt lat="43.27581383278236" lon="10.758876815216373"><ele>492.33333333333337</ele><time>2026-04-18T13:29:47.001Z</time></trkpt><trkpt lat="43.2758770857809" lon="10.758850398193804"><ele>491.6666666666667</ele><time>2026-04-18T13:29:48.001Z</time></trkpt><trkpt lat="43.2759337109626" lon="10.758806779546772"><ele>491.0</ele><time>2026-04-18T13:29:49.001Z</time></trkpt><trkpt lat="43.27597811180331" lon="10.75874341845234"><ele>490.33333333333337</ele><time>2026-04-18T13:29:50.001Z</time></trkpt><trkpt lat="43.27601473845837" lon="10.758653065779432"><ele>489.6666666666667</ele><time>2026-04-18T13:29:51.001Z</time></trkpt><trkpt lat="43.27602987021851" lon="10.758531485004927"><ele>489.0</ele><time>2026-04-18T13:29:52.001Z</time></trkpt><trkpt lat="43.27603863288281" lon="10.758380887586847"><ele>489.0</ele><time>2026-04-18T13:29:53.001Z</time></trkpt><trkpt lat="43.27604138670961" lon="10.75823159843818"><ele>489.0</ele><time>2026-04-18T13:29:54.001Z</time></trkpt><trkpt lat="43.27604790392463" lon="10.758104098301667"><ele>489.0</ele><time>2026-04-18T13:29:55.001Z</time></trkpt><trkpt lat="43.2760549581345" lon="10.757980037586416"><ele>489.0</ele><time>2026-04-18T13:29:56.001Z</time></trkpt><trkpt lat="43.2760773157817" lon="10.757856486636236"><ele>489.0</ele><time>2026-04-18T13:29:57.001Z</time></trkpt><trkpt lat="43.27609162633908" lon="10.757745577221435"><ele>489.0</ele><time>2026-04-18T13:29:58.001Z</time></trkpt><trkpt lat="43.27610587318455" lon="10.75764584938922"><ele>489.0</ele><time>2026-04-18T13:29:59.001Z</time></trkpt><trkpt lat="43.276143829502466" lon="10.757546699513004"><ele>489.0</ele><time>2026-04-18T13:30:00.001Z</time></trkpt><trkpt lat="43.27619554828438" lon="10.75741404132782"><ele>489.0</ele><time>2026-04-18T13:30:01.001Z</time></trkpt><trkpt lat="43.27626449919639" lon="10.757267374844172"><ele>489.0</ele><time>2026-04-18T13:30:02.001Z</time></trkpt><trkpt lat="43.276330204170925" lon="10.757158767281982"><ele>489.0</ele><time>2026-04-18T13:30:03.001Z</time></trkpt><trkpt lat="43.2763720768132" lon="10.757080777530408"><ele>489.0</ele><time>2026-04-18T13:30:04.001Z</time></trkpt><trkpt lat="43.276493453943544" lon="10.756974043263252"><ele>489.0</ele><time>2026-04-18T13:30:06.001Z</time></trkpt><trkpt lat="43.27659095235717" lon="10.756982547084991"><ele>489.0</ele><time>2026-04-18T13:30:07.001Z</time></trkpt><trkpt lat="43.276707905731996" lon="10.756967190861687"><ele>489.0</ele><time>2026-04-18T13:30:08.001Z</time></trkpt><trkpt lat="43.27682503035306" lon="10.75696642752754"><ele>487.75</ele><time>2026-04-18T13:30:09.001Z</time></trkpt><trkpt lat="43.2769477773617" lon="10.75692029780282"><ele>486.5</ele><time>2026-04-18T13:30:10.001Z</time></trkpt><trkpt lat="43.27708027196925" lon="10.75687006644783"><ele>485.25</ele><time>2026-04-18T13:30:11.001Z</time></trkpt><trkpt lat="43.277210200206866" lon="10.756830036935652"><ele>484.0</ele><time>2026-04-18T13:30:12.001Z</time></trkpt><trkpt lat="43.27733153293745" lon="10.756784207830798"><ele>482.2</ele><time>2026-04-18T13:30:13.001Z</time></trkpt><trkpt lat="43.27743796228704" lon="10.756741737815602"><ele>480.4</ele><time>2026-04-18T13:30:14.001Z</time></trkpt><trkpt lat="43.277518798848895" lon="10.756702228592266"><ele>478.6</ele><time>2026-04-18T13:30:15.001Z</time></trkpt><trkpt lat="43.27761010115257" lon="10.756627520316544"><ele>476.8</ele><time>2026-04-18T13:30:16.001Z</time></trkpt><trkpt lat="43.27768699825142" lon="10.756538466228063"><ele>475.0</ele><time>2026-04-18T13:30:17.001Z</time></trkpt><trkpt lat="43.277742958806726" lon="10.756442753214856"><ele>475.00000000000006</ele><time>2026-04-18T13:30:18.001Z</time></trkpt><trkpt lat="43.27778736799287" lon="10.756356172663521"><ele>475.0</ele><time>2026-04-18T13:30:19.001Z</time></trkpt><trkpt lat="43.27784275600984" lon="10.756237853277224"><ele>475.0</ele><time>2026-04-18T13:30:21.001Z</time></trkpt><trkpt lat="43.27788289312455" lon="10.756145483920687"><ele>475.0</ele><time>2026-04-18T13:30:23.001Z</time></trkpt><trkpt lat="43.27792329362007" lon="10.756025925719289"><ele>475.00000000000006</ele><time>2026-04-18T13:30:26.001Z</time></trkpt><trkpt lat="43.277958566490554" lon="10.755909700201912"><ele>475.0</ele><time>2026-04-18T13:30:27.001Z</time></trkpt><trkpt lat="43.2780123738825" lon="10.755805599619167"><ele>475.33333333333337</ele><time>2026-04-18T13:30:28.001Z</time></trkpt><trkpt lat="43.278053642532306" lon="10.755728052064002"><ele>475.6666666666667</ele><time>2026-04-18T13:30:29.001Z</time></trkpt><trkpt lat="43.278101579802204" lon="10.75565674742968"><ele>476.0</ele><time>2026-04-18T13:30:30.001Z</time></trkpt><trkpt lat="43.27817239230525" lon="10.755617248779776"><ele>476.33333333333337</ele><time>2026-04-18T13:30:31.001Z</time></trkpt><trkpt lat="43.278240310169345" lon="10.75564525166154"><ele>476.6666666666667</ele><time>2026-04-18T13:30:32.001Z</time></trkpt><trkpt lat="43.278303245568715" lon="10.755678149170587"><ele>477.0</ele><time>2026-04-18T13:30:33.001Z</time></trkpt><trkpt lat="43.27842000198769" lon="10.755786242806511"><ele>475.0</ele><time>2026-04-18T13:30:35.001Z</time></trkpt><trkpt lat="43.27847908285522" lon="10.755906601300161"><ele>473.00000000000006</ele><time>2026-04-18T13:30:36.001Z</time></trkpt><trkpt lat="43.27852997968861" lon="10.756050773111303"><ele>471.00000000000006</ele><time>2026-04-18T13:30:37.001Z</time></trkpt><trkpt lat="43.2785741265386" lon="10.756182619121128"><ele>469.0</ele><time>2026-04-18T13:30:38.001Z</time></trkpt><trkpt lat="43.27861670695321" lon="10.75627767259372"><ele>467.0</ele><time>2026-04-18T13:30:39.001Z</time></trkpt><trkpt lat="43.27866619649029" lon="10.756375865239981"><ele>466.6</ele><time>2026-04-18T13:30:40.001Z</time></trkpt><trkpt lat="43.27870216900685" lon="10.756458095308181"><ele>466.20000000000005</ele><time>2026-04-18T13:30:41.001Z</time></trkpt><trkpt lat="43.27879156491435" lon="10.756537136088664"><ele>465.8</ele><time>2026-04-18T13:30:43.001Z</time></trkpt><trkpt lat="43.27889353322423" lon="10.756528193147245"><ele>465.4</ele><time>2026-04-18T13:30:45.001Z</time></trkpt><trkpt lat="43.27898078457555" lon="10.756460983170335"><ele>465.0</ele><time>2026-04-18T13:30:47.001Z</time></trkpt><trkpt lat="43.27902470843085" lon="10.75636687636765"><ele>464.2</ele><time>2026-04-18T13:30:48.001Z</time></trkpt><trkpt lat="43.27907082530113" lon="10.756241318439654"><ele>463.4</ele><time>2026-04-18T13:30:49.001Z</time></trkpt><trkpt lat="43.27909576046204" lon="10.756094651295093"><ele>462.6</ele><time>2026-04-18T13:30:50.001Z</time></trkpt><trkpt lat="43.279140577564725" lon="10.75597344126426"><ele>461.8</ele><time>2026-04-18T13:30:51.001Z</time></trkpt><trkpt lat="43.279183146685" lon="10.755892124439054"><ele>461.0</ele><time>2026-04-18T13:30:52.001Z</time></trkpt><trkpt lat="43.27917965530079" lon="10.755781228388589"><ele>461.0</ele><time>2026-04-18T13:30:53.001Z</time></trkpt><trkpt lat="43.279191817468615" lon="10.755659761603999"><ele>461.0</ele><time>2026-04-18T13:30:54.001Z</time></trkpt><trkpt lat="43.279167955237604" lon="10.755508214247119"><ele>461.0</ele><time>2026-04-18T13:30:55.001Z</time></trkpt><trkpt lat="43.27914566269757" lon="10.75535271340013"><ele>461.0</ele><time>2026-04-18T13:30:56.001Z</time></trkpt><trkpt lat="43.279132264279454" lon="10.75522997165284"><ele>461.0</ele><time>2026-04-18T13:30:57.001Z</time></trkpt><trkpt lat="43.27912663128243" lon="10.755130224675884"><ele>460.4</ele><time>2026-04-18T13:30:58.002Z</time></trkpt><trkpt lat="43.279132082575785" lon="10.7549791397447"><ele>459.8</ele><time>2026-04-18T13:31:00.002Z</time></trkpt><trkpt lat="43.27922399431836" lon="10.754870514552673"><ele>459.19999999999993</ele><time>2026-04-18T13:31:02.002Z</time></trkpt><trkpt lat="43.27929321708944" lon="10.75479952531734"><ele>458.59999999999997</ele><time>2026-04-18T13:31:03.002Z</time></trkpt><trkpt lat="43.27938471855285" lon="10.754694620835151"><ele>458.0</ele><time>2026-04-18T13:31:04.002Z</time></trkpt><trkpt lat="43.27944329028181" lon="10.754601805447036"><ele>457.99999999999994</ele><time>2026-04-18T13:31:05.002Z</time></trkpt><trkpt lat="43.27949085682989" lon="10.754526039484103"><ele>458.0</ele><time>2026-04-18T13:31:06.002Z</time></trkpt><trkpt lat="43.27953194456552" lon="10.75442504252841"><ele>458.0</ele><time>2026-04-18T13:31:07.002Z</time></trkpt><trkpt lat="43.27957314206092" lon="10.75431770321243"><ele>458.0</ele><time>2026-04-18T13:31:08.002Z</time></trkpt><trkpt lat="43.27956710852307" lon="10.754212612358538"><ele>457.99999999999994</ele><time>2026-04-18T13:31:09.002Z</time></trkpt><trkpt lat="43.27959235034955" lon="10.754113945466795"><ele>458.0</ele><time>2026-04-18T13:31:10.002Z</time></trkpt><trkpt lat="43.27958993387452" lon="10.753975080587837"><ele>457.25</ele><time>2026-04-18T13:31:11.002Z</time></trkpt><trkpt lat="43.27963709941516" lon="10.753816023678437"><ele>456.5</ele><time>2026-04-18T13:31:12.002Z</time></trkpt><trkpt lat="43.27967890255893" lon="10.753651246291575"><ele>455.75</ele><time>2026-04-18T13:31:13.002Z</time></trkpt><trkpt lat="43.279724338459054" lon="10.753500475693247"><ele>455.0</ele><time>2026-04-18T13:31:14.002Z</time></trkpt><trkpt lat="43.279752026924456" lon="10.75337894244283"><ele>455.66666666666663</ele><time>2026-04-18T13:31:15.002Z</time></trkpt><trkpt lat="43.27978148369087" lon="10.753271311149929"><ele>456.3333333333333</ele><time>2026-04-18T13:31:16.002Z</time></trkpt><trkpt lat="43.27981658604196" lon="10.753154915682996"><ele>457.0</ele><time>2026-04-18T13:31:17.002Z</time></trkpt><trkpt lat="43.279825363007944" lon="10.75304124437501"><ele>457.66666666666663</ele><time>2026-04-18T13:31:18.002Z</time></trkpt><trkpt lat="43.279852362028315" lon="10.752922482514794"><ele>458.3333333333333</ele><time>2026-04-18T13:31:19.002Z</time></trkpt><trkpt lat="43.2798629249536" lon="10.752809827678325"><ele>459.0</ele><time>2026-04-18T13:31:20.002Z</time></trkpt><trkpt lat="43.27987667086168" lon="10.75271458678531"><ele>457.6</ele><time>2026-04-18T13:31:21.002Z</time></trkpt><trkpt lat="43.27990231412289" lon="10.752625597134962"><ele>456.2</ele><time>2026-04-18T13:31:22.002Z</time></trkpt><trkpt lat="43.279966693678844" lon="10.752504507584323"><ele>454.80000000000007</ele><time>2026-04-18T13:31:24.002Z</time></trkpt><trkpt lat="43.28003860563835" lon="10.752437153646396"><ele>453.40000000000003</ele><time>2026-04-18T13:31:25.002Z</time></trkpt><trkpt lat="43.28013303644385" lon="10.752429391539078"><ele>452.0</ele><time>2026-04-18T13:31:26.002Z</time></trkpt><trkpt lat="43.28023374823077" lon="10.752400658518106"><ele>452.0</ele><time>2026-04-18T13:31:27.002Z</time></trkpt><trkpt lat="43.28033341591967" lon="10.752370476269062"><ele>452.00000000000006</ele><time>2026-04-18T13:31:28.002Z</time></trkpt><trkpt lat="43.280433389221976" lon="10.752339892489799"><ele>452.00000000000006</ele><time>2026-04-18T13:31:29.002Z</time></trkpt><trkpt lat="43.28054282331158" lon="10.752284700209836"><ele>452.0</ele><time>2026-04-18T13:31:30.002Z</time></trkpt><trkpt lat="43.280650518010326" lon="10.7522303017182"><ele>452.0</ele><time>2026-04-18T13:31:31.002Z</time></trkpt><trkpt lat="43.2807673663249" lon="10.752214462901831"><ele>451.75</ele><time>2026-04-18T13:31:32.002Z</time></trkpt><trkpt lat="43.28090038065268" lon="10.752180721459819"><ele>451.5</ele><time>2026-04-18T13:31:33.002Z</time></trkpt><trkpt lat="43.281023480000584" lon="10.752171562997825"><ele>451.25</ele><time>2026-04-18T13:31:34.002Z</time></trkpt><trkpt lat="43.28113456963623" lon="10.75216766100215"><ele>451.0</ele><time>2026-04-18T13:31:35.002Z</time></trkpt><trkpt lat="43.28123099191494" lon="10.75215410874036"><ele>451.00000000000006</ele><time>2026-04-18T13:31:36.002Z</time></trkpt><trkpt lat="43.28131686637969" lon="10.752141059127029"><ele>451.0</ele><time>2026-04-18T13:31:37.002Z</time></trkpt><trkpt lat="43.28139604939501" lon="10.752124735077103"><ele>451.0</ele><time>2026-04-18T13:31:38.002Z</time></trkpt><trkpt lat="43.28152296887754" lon="10.752068923041644"><ele>451.0</ele><time>2026-04-18T13:31:40.002Z</time></trkpt><trkpt lat="43.281578364361835" lon="10.752013890393089"><ele>451.00000000000006</ele><time>2026-04-18T13:31:41.002Z</time></trkpt><trkpt lat="43.28162248911137" lon="10.751949631144136"><ele>451.0</ele><time>2026-04-18T13:31:42.001Z</time></trkpt><trkpt lat="43.28167307036536" lon="10.751883946002774"><ele>449.20000000000005</ele><time>2026-04-18T13:31:43.001Z</time></trkpt><trkpt lat="43.281714043662966" lon="10.751719844075804"><ele>447.40000000000003</ele><time>2026-04-18T13:31:45.001Z</time></trkpt><trkpt lat="43.28173216392618" lon="10.751623634474214"><ele>445.6</ele><time>2026-04-18T13:31:46.001Z</time></trkpt><trkpt lat="43.28176521013928" lon="10.751517615236002"><ele>443.8</ele><time>2026-04-18T13:31:47.001Z</time></trkpt><trkpt lat="43.28177645486663" lon="10.751386453521947"><ele>442.0</ele><time>2026-04-18T13:31:48.001Z</time></trkpt><trkpt lat="43.281783341354426" lon="10.75128339046932"><ele>442.00000000000006</ele><time>2026-04-18T13:31:49.001Z</time></trkpt><trkpt lat="43.28179040718639" lon="10.751172417679498"><ele>442.0</ele><time>2026-04-18T13:31:50.001Z</time></trkpt><trkpt lat="43.28179594018568" lon="10.75107049675263"><ele>442.0</ele><time>2026-04-18T13:31:51.001Z</time></trkpt><trkpt lat="43.28180143478849" lon="10.750969283590335"><ele>442.0</ele><time>2026-04-18T13:31:52.001Z</time></trkpt><trkpt lat="43.28180337287865" lon="10.750874242661355"><ele>442.00000000000006</ele><time>2026-04-18T13:31:53.001Z</time></trkpt><trkpt lat="43.281807815256194" lon="10.7506884364915"><ele>442.0</ele><time>2026-04-18T13:31:55.001Z</time></trkpt><trkpt lat="43.28177460724943" lon="10.75059160612299"><ele>441.28571428571433</ele><time>2026-04-18T13:31:56.001Z</time></trkpt><trkpt lat="43.28173144160647" lon="10.75049218083777"><ele>440.57142857142856</ele><time>2026-04-18T13:31:57.001Z</time></trkpt><trkpt lat="43.2816814697519" lon="10.750398654356804"><ele>439.8571428571429</ele><time>2026-04-18T13:31:58.001Z</time></trkpt><trkpt lat="43.28164009829919" lon="10.750320843735478"><ele>439.14285714285717</ele><time>2026-04-18T13:31:59.001Z</time></trkpt><trkpt lat="43.2816115459252" lon="10.750241711407687"><ele>438.42857142857144</ele><time>2026-04-18T13:32:00.001Z</time></trkpt><trkpt lat="43.28159383478017" lon="10.750154975047925"><ele>437.7142857142857</ele><time>2026-04-18T13:32:01.001Z</time></trkpt><trkpt lat="43.28159265079582" lon="10.75006517974092"><ele>437.0</ele><time>2026-04-18T13:32:02.001Z</time></trkpt><trkpt lat="43.28160973364966" lon="10.749972932588744"><ele>436.0</ele><time>2026-04-18T13:32:03.001Z</time></trkpt><trkpt lat="43.28163021607749" lon="10.749846858853005"><ele>435.00000000000006</ele><time>2026-04-18T13:32:04.001Z</time></trkpt><trkpt lat="43.281672415568636" lon="10.749716165359146"><ele>434.00000000000006</ele><time>2026-04-18T13:32:05.001Z</time></trkpt><trkpt lat="43.28172285795427" lon="10.749590583640666"><ele>433.0</ele><time>2026-04-18T13:32:06.001Z</time></trkpt><trkpt lat="43.281773675224635" lon="10.749478240311216"><ele>432.0</ele><time>2026-04-18T13:32:07.001Z</time></trkpt><trkpt lat="43.28182150784728" lon="10.749377044546808"><ele>429.6</ele><time>2026-04-18T13:32:08.001Z</time></trkpt><trkpt lat="43.28186006721108" lon="10.74927595690734"><ele>427.20000000000005</ele><time>2026-04-18T13:32:09.001Z</time></trkpt><trkpt lat="43.281926993128785" lon="10.749195206635"><ele>424.8</ele><time>2026-04-18T13:32:11.001Z</time></trkpt><trkpt lat="43.28204341690121" lon="10.749167285977832"><ele>422.4</ele><time>2026-04-18T13:32:13.001Z</time></trkpt><trkpt lat="43.28213638008488" lon="10.749149719799986"><ele>420.0</ele><time>2026-04-18T13:32:14.001Z</time></trkpt><trkpt lat="43.28222397294045" lon="10.749111603290917"><ele>421.8333333333333</ele><time>2026-04-18T13:32:15.001Z</time></trkpt><trkpt lat="43.28228689011193" lon="10.749096493466993"><ele>423.66666666666663</ele><time>2026-04-18T13:32:16.001Z</time></trkpt><trkpt lat="43.28234973878942" lon="10.749047471290547"><ele>425.5</ele><time>2026-04-18T13:32:17.001Z</time></trkpt><trkpt lat="43.28240085072449" lon="10.74899375089108"><ele>427.3333333333333</ele><time>2026-04-18T13:32:18.001Z</time></trkpt><trkpt lat="43.28240795082861" lon="10.748829543992416"><ele>429.16666666666663</ele><time>2026-04-18T13:32:20.001Z</time></trkpt><trkpt lat="43.28238784692462" lon="10.748740011209378"><ele>431.0</ele><time>2026-04-18T13:32:22.001Z</time></trkpt><trkpt lat="43.282356794532" lon="10.748627307977621"><ele>428.66666666666663</ele><time>2026-04-18T13:32:25.001Z</time></trkpt><trkpt lat="43.28233549636427" lon="10.748537144140254"><ele>426.3333333333333</ele><time>2026-04-18T13:33:24.001Z</time></trkpt><trkpt lat="43.28233228183196" lon="10.748418071193454"><ele>424.0</ele><time>2026-04-18T13:33:26.001Z</time></trkpt><trkpt lat="43.28239776442165" lon="10.748298083403622"><ele>421.66666666666663</ele><time>2026-04-18T13:33:28.001Z</time></trkpt><trkpt lat="43.282439991232344" lon="10.748197176917543"><ele>419.3333333333333</ele><time>2026-04-18T13:33:29.001Z</time></trkpt><trkpt lat="43.282501740085934" lon="10.748110907045815"><ele>417.0</ele><time>2026-04-18T13:33:30.001Z</time></trkpt><trkpt lat="43.28256368744206" lon="10.747988563545116"><ele>417.0</ele><time>2026-04-18T13:33:32.001Z</time></trkpt><trkpt lat="43.28265388696851" lon="10.747954503065689"><ele>417.0</ele><time>2026-04-18T13:33:33.001Z</time></trkpt><trkpt lat="43.28272126082934" lon="10.747894738871345"><ele>417.0</ele><time>2026-04-18T13:33:34.001Z</time></trkpt><trkpt lat="43.2827765758597" lon="10.747835423158243"><ele>417.0</ele><time>2026-04-18T13:33:35.001Z</time></trkpt><trkpt lat="43.28282916372658" lon="10.74775904617173"><ele>417.0</ele><time>2026-04-18T13:33:36.001Z</time></trkpt><trkpt lat="43.28287711417093" lon="10.74769131862535"><ele>417.0</ele><time>2026-04-18T13:33:38.001Z</time></trkpt><trkpt lat="43.28299995677039" lon="10.747657112312627"><ele>416.40000000000003</ele><time>2026-04-18T13:33:40.001Z</time></trkpt><trkpt lat="43.28309824139122" lon="10.747550323276483"><ele>415.8</ele><time>2026-04-18T13:33:42.001Z</time></trkpt><trkpt lat="43.2831266000384" lon="10.747425337186998"><ele>415.2</ele><time>2026-04-18T13:33:43.001Z</time></trkpt><trkpt lat="43.28315131353517" lon="10.747324355545388"><ele>414.6</ele><time>2026-04-18T13:33:44.001Z</time></trkpt><trkpt lat="43.28317908274266" lon="10.747238223620023"><ele>414.0</ele><time>2026-04-18T13:33:45.001Z</time></trkpt><trkpt lat="43.283278796341904" lon="10.747129222611544"><ele>414.0</ele><time>2026-04-18T13:33:47.001Z</time></trkpt><trkpt lat="43.28336067996746" lon="10.747126587060585"><ele>414.0</ele><time>2026-04-18T13:33:48Z</time></trkpt><trkpt lat="43.28343619943673" lon="10.747118583780175"><ele>414.0</ele><time>2026-04-18T13:33:49Z</time></trkpt><trkpt lat="43.28352361844283" lon="10.747121694444276"><ele>414.0</ele><time>2026-04-18T13:33:50Z</time></trkpt><trkpt lat="43.283604094350224" lon="10.74712851073078"><ele>414.0</ele><time>2026-04-18T13:33:51Z</time></trkpt><trkpt lat="43.28370022532122" lon="10.747104439099719"><ele>414.0</ele><time>2026-04-18T13:33:53Z</time></trkpt><trkpt lat="43.28377519443598" lon="10.746999433039724"><ele>411.6</ele><time>2026-04-18T13:33:55Z</time></trkpt><trkpt lat="43.28377545185715" lon="10.746859692656075"><ele>409.2</ele><time>2026-04-18T13:33:57Z</time></trkpt><trkpt lat="43.28368127462736" lon="10.7467517111773"><ele>406.8</ele><time>2026-04-18T13:33:59Z</time></trkpt><trkpt lat="43.28360629440783" lon="10.74670862423605"><ele>404.40000000000003</ele><time>2026-04-18T13:34:00Z</time></trkpt><trkpt lat="43.283522557401426" lon="10.746632635960943"><ele>402.0</ele><time>2026-04-18T13:34:01Z</time></trkpt><trkpt lat="43.2834628891397" lon="10.746561570738628"><ele>402.0</ele><time>2026-04-18T13:34:02Z</time></trkpt><trkpt lat="43.2834036626783" lon="10.7464602726356"><ele>402.0</ele><time>2026-04-18T13:34:04Z</time></trkpt><trkpt lat="43.28337212826287" lon="10.746305366929494"><ele>402.0</ele><time>2026-04-18T13:34:06Z</time></trkpt><trkpt lat="43.2834040596686" lon="10.746145115480703"><ele>402.0</ele><time>2026-04-18T13:34:07Z</time></trkpt><trkpt lat="43.283463498908816" lon="10.745997268717234"><ele>400.20000000000005</ele><time>2026-04-18T13:34:08Z</time></trkpt><trkpt lat="43.28352729856587" lon="10.745852616102283"><ele>398.4</ele><time>2026-04-18T13:34:09Z</time></trkpt><trkpt lat="43.28359957726174" lon="10.745709547062207"><ele>396.6</ele><time>2026-04-18T13:34:10Z</time></trkpt><trkpt lat="43.28365507321199" lon="10.74560588468881"><ele>394.79999999999995</ele><time>2026-04-18T13:34:11Z</time></trkpt><trkpt lat="43.28369912171244" lon="10.745524724960056"><ele>393.0</ele><time>2026-04-18T13:34:12Z</time></trkpt><trkpt lat="43.283716988107656" lon="10.745431064250123"><ele>393.0</ele><time>2026-04-18T13:34:13Z</time></trkpt><trkpt lat="43.283761291929544" lon="10.745332826983752"><ele>393.0</ele><time>2026-04-18T13:34:14Z</time></trkpt><trkpt lat="43.28375545092069" lon="10.745227424748377"><ele>393.0</ele><time>2026-04-18T13:34:15Z</time></trkpt><trkpt lat="43.28373959290057" lon="10.745137121064957"><ele>393.0</ele><time>2026-04-18T13:34:16Z</time></trkpt><trkpt lat="43.28371268450258" lon="10.745009031273048"><ele>393.0</ele><time>2026-04-18T13:34:17Z</time></trkpt><trkpt lat="43.28367226656759" lon="10.744873181179072"><ele>393.0</ele><time>2026-04-18T13:34:18Z</time></trkpt><trkpt lat="43.283620110066614" lon="10.74473963406814"><ele>392.2</ele><time>2026-04-18T13:34:19Z</time></trkpt><trkpt lat="43.2835503209054" lon="10.744613129066167"><ele>391.4</ele><time>2026-04-18T13:34:20Z</time></trkpt><trkpt lat="43.28351227596017" lon="10.744485077513911"><ele>390.59999999999997</ele><time>2026-04-18T13:34:21Z</time></trkpt><trkpt lat="43.283465104324115" lon="10.744374690750458"><ele>389.79999999999995</ele><time>2026-04-18T13:34:22Z</time></trkpt><trkpt lat="43.28340642008374" lon="10.744261099324602"><ele>389.0</ele><time>2026-04-18T13:34:23Z</time></trkpt><trkpt lat="43.28333359897037" lon="10.744126832757795"><ele>388.4</ele><time>2026-04-18T13:34:24Z</time></trkpt><trkpt lat="43.283267236498496" lon="10.74400478820578"><ele>387.79999999999995</ele><time>2026-04-18T13:34:25Z</time></trkpt><trkpt lat="43.283220044116625" lon="10.743891385232155"><ele>387.20000000000005</ele><time>2026-04-18T13:34:26Z</time></trkpt><trkpt lat="43.28316145520384" lon="10.743784974647406"><ele>386.6</ele><time>2026-04-18T13:34:27Z</time></trkpt><trkpt lat="43.28309877939095" lon="10.743675576669016"><ele>386.0</ele><time>2026-04-18T13:34:28Z</time></trkpt><trkpt lat="43.28304520394342" lon="10.743571503651658"><ele>383.49999999999994</ele><time>2026-04-18T13:34:29Z</time></trkpt><trkpt lat="43.28299143576247" lon="10.743486659852811"><ele>381.0</ele><time>2026-04-18T13:34:30Z</time></trkpt><trkpt lat="43.28299048249872" lon="10.743374728037782"><ele>378.5</ele><time>2026-04-18T13:34:31Z</time></trkpt><trkpt lat="43.28298247990683" lon="10.743261620531301"><ele>376.0</ele><time>2026-04-18T13:34:32Z</time></trkpt><trkpt lat="43.2829754485187" lon="10.743141755135557"><ele>373.5</ele><time>2026-04-18T13:34:33Z</time></trkpt><trkpt lat="43.28296589361891" lon="10.743029804808065"><ele>371.0</ele><time>2026-04-18T13:34:34Z</time></trkpt><trkpt lat="43.282968640643055" lon="10.74289885103554"><ele>371.0</ele><time>2026-04-18T13:34:36Z</time></trkpt><trkpt lat="43.28301681693444" lon="10.742835811920532"><ele>371.0</ele><time>2026-04-18T13:34:38Z</time></trkpt><trkpt lat="43.283096068631004" lon="10.742862658258474"><ele>371.0</ele><time>2026-04-18T13:34:40Z</time></trkpt><trkpt lat="43.28316090188353" lon="10.74284310606397"><ele>371.0</ele><time>2026-04-18T13:34:42Z</time></trkpt><trkpt lat="43.28322765748673" lon="10.742787286265937"><ele>371.0</ele><time>2026-04-18T13:34:44Z</time></trkpt><trkpt lat="43.283275015521184" lon="10.74272400613972"><ele>371.0</ele><time>2026-04-18T13:34:46Z</time></trkpt><trkpt lat="43.283321923166625" lon="10.7426594063368"><ele>371.0</ele><time>2026-04-18T13:34:49Z</time></trkpt><trkpt lat="43.28338126816692" lon="10.742594309141758"><ele>370.8</ele><time>2026-04-18T13:34:52Z</time></trkpt><trkpt lat="43.28345555167491" lon="10.742572666174853"><ele>370.6</ele><time>2026-04-18T13:35:41.001Z</time></trkpt><trkpt lat="43.28353877717359" lon="10.742592197222539"><ele>370.4</ele><time>2026-04-18T13:35:43.001Z</time></trkpt><trkpt lat="43.28362822906635" lon="10.74264775363449"><ele>370.2</ele><time>2026-04-18T13:35:45.001Z</time></trkpt><trkpt lat="43.28371796774895" lon="10.742772310823046"><ele>370.0</ele><time>2026-04-18T13:35:47.001Z</time></trkpt><trkpt lat="43.28377993660624" lon="10.74284594680128"><ele>370.66666666666663</ele><time>2026-04-18T13:35:48.001Z</time></trkpt><trkpt lat="43.28384044209051" lon="10.742906146234903"><ele>371.3333333333333</ele><time>2026-04-18T13:35:49.001Z</time></trkpt><trkpt lat="43.28390472559042" lon="10.742942266082736"><ele>372.0</ele><time>2026-04-18T13:35:50.001Z</time></trkpt><trkpt lat="43.28398759265438" lon="10.742928297799493"><ele>372.6666666666667</ele><time>2026-04-18T13:35:51.001Z</time></trkpt><trkpt lat="43.28408863730475" lon="10.742937650108814"><ele>373.33333333333337</ele><time>2026-04-18T13:35:52.001Z</time></trkpt><trkpt lat="43.28417942312669" lon="10.742954932501261"><ele>374.0</ele><time>2026-04-18T13:35:53.001Z</time></trkpt><trkpt lat="43.28425621818222" lon="10.742988771191332"><ele>374.0</ele><time>2026-04-18T13:35:54Z</time></trkpt><trkpt lat="43.28431656342849" lon="10.74304050272305"><ele>374.0</ele><time>2026-04-18T13:35:55Z</time></trkpt><trkpt lat="43.284378619038975" lon="10.74308840259944"><ele>374.0</ele><time>2026-04-18T13:35:56Z</time></trkpt><trkpt lat="43.28448567476471" lon="10.743110465981806"><ele>374.0</ele><time>2026-04-18T13:35:58Z</time></trkpt><trkpt lat="43.284552323840316" lon="10.743081519886555"><ele>374.0</ele><time>2026-04-18T13:35:59Z</time></trkpt><trkpt lat="43.28463310688549" lon="10.743041056951565"><ele>374.0</ele><time>2026-04-18T13:36:00Z</time></trkpt><trkpt lat="43.28471701545661" lon="10.743039367110566"><ele>372.6666666666667</ele><time>2026-04-18T13:36:01Z</time></trkpt><trkpt lat="43.28478206292155" lon="10.7430221263315"><ele>371.33333333333337</ele><time>2026-04-18T13:36:02Z</time></trkpt><trkpt lat="43.284890640163816" lon="10.742981546940468"><ele>370.0</ele><time>2026-04-18T13:36:04Z</time></trkpt><trkpt lat="43.28496176049492" lon="10.743015782974481"><ele>368.6666666666667</ele><time>2026-04-18T13:36:05Z</time></trkpt><trkpt lat="43.28501975610216" lon="10.743108536700944"><ele>367.3333333333333</ele><time>2026-04-18T13:36:06Z</time></trkpt><trkpt lat="43.28510074868436" lon="10.743201549681334"><ele>366.0</ele><time>2026-04-18T13:36:07Z</time></trkpt><trkpt lat="43.28518728896784" lon="10.74327412507395"><ele>366.0</ele><time>2026-04-18T13:36:08Z</time></trkpt><trkpt lat="43.28525232026058" lon="10.743339016865278"><ele>366.0</ele><time>2026-04-18T13:36:09Z</time></trkpt><trkpt lat="43.28531903707466" lon="10.743391739233637"><ele>366.0</ele><time>2026-04-18T13:36:10Z</time></trkpt><trkpt lat="43.28538827586188" lon="10.743410752687728"><ele>366.0</ele><time>2026-04-18T13:36:11Z</time></trkpt><trkpt lat="43.285467110745" lon="10.743411375045731"><ele>366.0</ele><time>2026-04-18T13:36:12Z</time></trkpt><trkpt lat="43.28555543532851" lon="10.743411860138165"><ele>366.0</ele><time>2026-04-18T13:36:13Z</time></trkpt><trkpt lat="43.285612956550814" lon="10.74346075216908"><ele>366.1666666666667</ele><time>2026-04-18T13:36:14Z</time></trkpt><trkpt lat="43.285655739991086" lon="10.743534024979503"><ele>366.3333333333333</ele><time>2026-04-18T13:36:15Z</time></trkpt><trkpt lat="43.28566785207579" lon="10.743664317853854"><ele>366.5</ele><time>2026-04-18T13:36:16Z</time></trkpt><trkpt lat="43.28571106002155" lon="10.743767218347578"><ele>366.66666666666663</ele><time>2026-04-18T13:36:17Z</time></trkpt><trkpt lat="43.28572405209222" lon="10.743863302570617"><ele>366.8333333333333</ele><time>2026-04-18T13:36:18Z</time></trkpt><trkpt lat="43.285759215348186" lon="10.743944821613066"><ele>367.0</ele><time>2026-04-18T13:36:19Z</time></trkpt><trkpt lat="43.285856241590345" lon="10.743985602895227"><ele>367.0</ele><time>2026-04-18T13:36:21Z</time></trkpt><trkpt lat="43.28592464619348" lon="10.743888714510504"><ele>367.0</ele><time>2026-04-18T13:36:23Z</time></trkpt><trkpt lat="43.285913072240305" lon="10.743798014313217"><ele>367.0</ele><time>2026-04-18T13:36:24Z</time></trkpt><trkpt lat="43.2859047565491" lon="10.743694838127135"><ele>367.0</ele><time>2026-04-18T13:36:25Z</time></trkpt><trkpt lat="43.28591806637368" lon="10.743547212683042"><ele>367.0</ele><time>2026-04-18T13:36:26Z</time></trkpt><trkpt lat="43.28591805099632" lon="10.743397351405308"><ele>365.40000000000003</ele><time>2026-04-18T13:36:27Z</time></trkpt><trkpt lat="43.28591805099722" lon="10.743294749942333"><ele>363.8</ele><time>2026-04-18T13:36:28Z</time></trkpt><trkpt lat="43.28592957182743" lon="10.743176225020703"><ele>362.2</ele><time>2026-04-18T13:36:30Z</time></trkpt><trkpt lat="43.286009364491136" lon="10.743117214732543"><ele>360.6</ele><time>2026-04-18T13:36:31Z</time></trkpt><trkpt lat="43.2860876438575" lon="10.74302387030589"><ele>359.0</ele><time>2026-04-18T13:36:32Z</time></trkpt><trkpt lat="43.28616606667082" lon="10.742897138436179"><ele>359.0</ele><time>2026-04-18T13:36:33Z</time></trkpt><trkpt lat="43.28621042172304" lon="10.742772156210595"><ele>359.0</ele><time>2026-04-18T13:36:34Z</time></trkpt><trkpt lat="43.286242983602015" lon="10.742639615642279"><ele>359.0</ele><time>2026-04-18T13:36:35Z</time></trkpt><trkpt lat="43.28627895779441" lon="10.742498766735874"><ele>359.0</ele><time>2026-04-18T13:36:36Z</time></trkpt><trkpt lat="43.286316701333305" lon="10.742372451756662"><ele>359.0</ele><time>2026-04-18T13:36:37Z</time></trkpt><trkpt lat="43.28633075537058" lon="10.742269191104217"><ele>357.0</ele><time>2026-04-18T13:36:38Z</time></trkpt><trkpt lat="43.286331514591495" lon="10.74216499192678"><ele>355.0</ele><time>2026-04-18T13:36:39Z</time></trkpt><trkpt lat="43.28637851545778" lon="10.742075961817134"><ele>353.0</ele><time>2026-04-18T13:36:40Z</time></trkpt><trkpt lat="43.286415566163605" lon="10.741952563628816"><ele>351.0</ele><time>2026-04-18T13:36:41Z</time></trkpt><trkpt lat="43.28647753075249" lon="10.741797189940584"><ele>349.0</ele><time>2026-04-18T13:36:42Z</time></trkpt><trkpt lat="43.286537622781836" lon="10.741626330011053"><ele>349.0</ele><time>2026-04-18T13:36:43Z</time></trkpt><trkpt lat="43.286589587176564" lon="10.741486196121771"><ele>349.0</ele><time>2026-04-18T13:36:44Z</time></trkpt><trkpt lat="43.28663220161286" lon="10.741368137991222"><ele>349.0</ele><time>2026-04-18T13:36:45Z</time></trkpt><trkpt lat="43.28670336788658" lon="10.74125348829754"><ele>349.0</ele><time>2026-04-18T13:36:46Z</time></trkpt><trkpt lat="43.28673931163369" lon="10.74108636807672"><ele>349.0</ele><time>2026-04-18T13:36:47Z</time></trkpt><trkpt lat="43.28677659169297" lon="10.740914757157405"><ele>345.2</ele><time>2026-04-18T13:36:48Z</time></trkpt><trkpt lat="43.28683788995834" lon="10.740772520775431"><ele>341.4</ele><time>2026-04-18T13:36:49Z</time></trkpt><trkpt lat="43.286884550604185" lon="10.740629012242723"><ele>337.6</ele><time>2026-04-18T13:36:50Z</time></trkpt><trkpt lat="43.28692187272073" lon="10.740494151878528"><ele>333.8</ele><time>2026-04-18T13:36:51Z</time></trkpt><trkpt lat="43.28695732717628" lon="10.740381414617344"><ele>330.0</ele><time>2026-04-18T13:36:52Z</time></trkpt><trkpt lat="43.28699847773333" lon="10.740278257762723"><ele>331.3333333333333</ele><time>2026-04-18T13:36:53Z</time></trkpt><trkpt lat="43.287051056911686" lon="10.740209708947908"><ele>332.6666666666667</ele><time>2026-04-18T13:36:54Z</time></trkpt><trkpt lat="43.2871010324576" lon="10.7401321136569"><ele>334.0</ele><time>2026-04-18T13:36:55Z</time></trkpt><trkpt lat="43.28716421820931" lon="10.740069888362916"><ele>335.33333333333337</ele><time>2026-04-18T13:36:56Z</time></trkpt><trkpt lat="43.28722264536357" lon="10.740005579236817"><ele>336.6666666666667</ele><time>2026-04-18T13:36:57Z</time></trkpt><trkpt lat="43.28728651392116" lon="10.73991789416651"><ele>338.0</ele><time>2026-04-18T13:36:58Z</time></trkpt><trkpt lat="43.287368680312234" lon="10.739756466696493"><ele>338.0</ele><time>2026-04-18T13:37:00Z</time></trkpt><trkpt lat="43.287408704568534" lon="10.739619634432545"><ele>338.0</ele><time>2026-04-18T13:37:01Z</time></trkpt><trkpt lat="43.28745458233174" lon="10.739534862670116"><ele>338.0</ele><time>2026-04-18T13:37:02Z</time></trkpt><trkpt lat="43.28748550315103" lon="10.739439555564827"><ele>338.0</ele><time>2026-04-18T13:37:03Z</time></trkpt><trkpt lat="43.287584296747845" lon="10.739366273788345"><ele>338.0</ele><time>2026-04-18T13:37:05Z</time></trkpt><trkpt lat="43.28765937321517" lon="10.73934623347719"><ele>338.0</ele><time>2026-04-18T13:37:06Z</time></trkpt><trkpt lat="43.287776497672176" lon="10.739403503916442"><ele>338.0</ele><time>2026-04-18T13:37:08Z</time></trkpt><trkpt lat="43.28783335867456" lon="10.73946632597259"><ele>338.0</ele><time>2026-04-18T13:37:09Z</time></trkpt><trkpt lat="43.28786629029501" lon="10.739554259359142"><ele>338.0</ele><time>2026-04-18T13:37:10Z</time></trkpt><trkpt lat="43.287916434286686" lon="10.739637849778914"><ele>338.0</ele><time>2026-04-18T13:37:11Z</time></trkpt><trkpt lat="43.28800471295269" lon="10.739714294781164"><ele>338.0</ele><time>2026-04-18T13:37:13Z</time></trkpt><trkpt lat="43.28809291356889" lon="10.739719831415965"><ele>338.0</ele><time>2026-04-18T13:37:15Z</time></trkpt><trkpt lat="43.28814715595589" lon="10.739565375312395"><ele>336.6666666666667</ele><time>2026-04-18T13:37:17Z</time></trkpt><trkpt lat="43.28815224377135" lon="10.739473169730557"><ele>335.33333333333337</ele><time>2026-04-18T13:37:21Z</time></trkpt><trkpt lat="43.28817225588414" lon="10.739357810637259"><ele>334.0</ele><time>2026-04-18T13:37:41.001Z</time></trkpt><trkpt lat="43.288220893915664" lon="10.739203860624094"><ele>332.6666666666667</ele><time>2026-04-18T13:37:43.001Z</time></trkpt><trkpt lat="43.28825870331914" lon="10.739115456312964"><ele>331.3333333333333</ele><time>2026-04-18T13:37:44.001Z</time></trkpt><trkpt lat="43.28830185426556" lon="10.739026286689981"><ele>330.0</ele><time>2026-04-18T13:37:45.001Z</time></trkpt><trkpt lat="43.28834384478561" lon="10.738946009307734"><ele>330.0</ele><time>2026-04-18T13:37:46.001Z</time></trkpt><trkpt lat="43.28839034664797" lon="10.738868478196865"><ele>330.0</ele><time>2026-04-18T13:37:47.001Z</time></trkpt><trkpt lat="43.28844514636967" lon="10.738819698633622"><ele>330.0</ele><time>2026-04-18T13:37:48.001Z</time></trkpt><trkpt lat="43.28851377279306" lon="10.738698652710033"><ele>330.0</ele><time>2026-04-18T13:37:50.001Z</time></trkpt><trkpt lat="43.28855536157738" lon="10.738627830918023"><ele>330.0</ele><time>2026-04-18T13:37:51.001Z</time></trkpt><trkpt lat="43.28862577417305" lon="10.738563313106463"><ele>330.0</ele><time>2026-04-18T13:37:52.001Z</time></trkpt><trkpt lat="43.28873234703123" lon="10.738501194828299"><ele>329.4</ele><time>2026-04-18T13:37:53.001Z</time></trkpt><trkpt lat="43.28879317814164" lon="10.738468149185767"><ele>328.8</ele><time>2026-04-18T13:37:54.001Z</time></trkpt><trkpt lat="43.28888391496712" lon="10.738417598003954"><ele>328.20000000000005</ele><time>2026-04-18T13:37:55.001Z</time></trkpt><trkpt lat="43.28900671380029" lon="10.738358817772754"><ele>327.6</ele><time>2026-04-18T13:37:56.001Z</time></trkpt><trkpt lat="43.28908203072795" lon="10.738305839336828"><ele>327.0</ele><time>2026-04-18T13:37:57.001Z</time></trkpt><trkpt lat="43.289203095637745" lon="10.738162192702356"><ele>327.0</ele><time>2026-04-18T13:37:58.001Z</time></trkpt><trkpt lat="43.28931687869829" lon="10.738097697094894"><ele>327.0</ele><time>2026-04-18T13:37:59.001Z</time></trkpt><trkpt lat="43.289431737619395" lon="10.738020145440043"><ele>327.0</ele><time>2026-04-18T13:37:59.999Z</time></trkpt><trkpt lat="43.28955477066241" lon="10.737966936789629"><ele>327.0</ele><time>2026-04-18T13:38:00.999Z</time></trkpt><trkpt lat="43.28962091563709" lon="10.737887521358733"><ele>327.0</ele><time>2026-04-18T13:38:01.999Z</time></trkpt><trkpt lat="43.28969820638835" lon="10.737769048820233"><ele>327.0</ele><time>2026-04-18T13:38:02.999Z</time></trkpt><trkpt lat="43.289807136757915" lon="10.737637021995086"><ele>327.0</ele><time>2026-04-18T13:38:03.999Z</time></trkpt><trkpt lat="43.2899165979906" lon="10.737514211827978"><ele>327.0</ele><time>2026-04-18T13:38:04.999Z</time></trkpt><trkpt lat="43.29000494472546" lon="10.737396232445635"><ele>325.0</ele><time>2026-04-18T13:38:05.999Z</time></trkpt><trkpt lat="43.290069371906235" lon="10.737316681015766"><ele>323.0</ele><time>2026-04-18T13:38:06.999Z</time></trkpt><trkpt lat="43.29011687370254" lon="10.737259365465842"><ele>321.0</ele><time>2026-04-18T13:38:07.999Z</time></trkpt><trkpt lat="43.29017666903749" lon="10.737158252923622"><ele>319.0</ele><time>2026-04-18T13:38:08.999Z</time></trkpt><trkpt lat="43.29024913204825" lon="10.737057923096732"><ele>317.0</ele><time>2026-04-18T13:38:09.999Z</time></trkpt><trkpt lat="43.290314310056715" lon="10.736939588829058"><ele>314.6666666666667</ele><time>2026-04-18T13:38:10.999Z</time></trkpt><trkpt lat="43.29036465391093" lon="10.736876561493796"><ele>312.33333333333337</ele><time>2026-04-18T13:38:11.999Z</time></trkpt><trkpt lat="43.290402809552624" lon="10.73679438681782"><ele>310.0</ele><time>2026-04-18T13:38:12.999Z</time></trkpt><trkpt lat="43.290413509565134" lon="10.736679668077665"><ele>307.6666666666667</ele><time>2026-04-18T13:38:14Z</time></trkpt><trkpt lat="43.2904370275353" lon="10.736576696567543"><ele>305.3333333333333</ele><time>2026-04-18T13:38:15Z</time></trkpt><trkpt lat="43.29038623295688" lon="10.736450984512777"><ele>303.0</ele><time>2026-04-18T13:38:16Z</time></trkpt><trkpt lat="43.29036795305103" lon="10.73631080151639"><ele>303.0</ele><time>2026-04-18T13:38:17Z</time></trkpt><trkpt lat="43.29032652729222" lon="10.736182875615649"><ele>303.0</ele><time>2026-04-18T13:38:18Z</time></trkpt><trkpt lat="43.29027928166811" lon="10.736073740038774"><ele>303.0</ele><time>2026-04-18T13:38:19Z</time></trkpt><trkpt lat="43.290242847871326" lon="10.736002771909849"><ele>303.0</ele><time>2026-04-18T13:38:20Z</time></trkpt><trkpt lat="43.29019128659878" lon="10.73593954061818"><ele>303.0</ele><time>2026-04-18T13:38:21Z</time></trkpt><trkpt lat="43.290121253673014" lon="10.735893886916344"><ele>303.0</ele><time>2026-04-18T13:38:22Z</time></trkpt><trkpt lat="43.290030696135936" lon="10.73586107092443"><ele>303.0</ele><time>2026-04-18T13:38:23Z</time></trkpt><trkpt lat="43.28990255257548" lon="10.73584747398185"><ele>303.0</ele><time>2026-04-18T13:38:24Z</time></trkpt><trkpt lat="43.28979429584504" lon="10.735822790051484"><ele>303.0</ele><time>2026-04-18T13:38:25Z</time></trkpt><trkpt lat="43.28963661966491" lon="10.73577483800194"><ele>303.0</ele><time>2026-04-18T13:38:26Z</time></trkpt><trkpt lat="43.28952081646084" lon="10.735759211598536"><ele>300.3333333333333</ele><time>2026-04-18T13:38:27Z</time></trkpt><trkpt lat="43.289422641474" lon="10.735717183574485"><ele>297.6666666666667</ele><time>2026-04-18T13:38:28Z</time></trkpt><trkpt lat="43.28933951524241" lon="10.735651584758651"><ele>295.0</ele><time>2026-04-18T13:38:29Z</time></trkpt><trkpt lat="43.289282508841" lon="10.735582693150606"><ele>292.33333333333337</ele><time>2026-04-18T13:38:30Z</time></trkpt><trkpt lat="43.28923491946753" lon="10.735494140601782"><ele>289.6666666666667</ele><time>2026-04-18T13:38:31Z</time></trkpt><trkpt lat="43.28920797005043" lon="10.735392677739071"><ele>287.0</ele><time>2026-04-18T13:38:32Z</time></trkpt><trkpt lat="43.289205954079904" lon="10.735267052253203"><ele>287.8</ele><time>2026-04-18T13:38:33Z</time></trkpt><trkpt lat="43.28921067327311" lon="10.735141642158265"><ele>288.6</ele><time>2026-04-18T13:38:34Z</time></trkpt><trkpt lat="43.28923276917237" lon="10.734996115644462"><ele>289.40000000000003</ele><time>2026-04-18T13:38:35Z</time></trkpt><trkpt lat="43.28923951537036" lon="10.734861149795378"><ele>290.2</ele><time>2026-04-18T13:38:36Z</time></trkpt><trkpt lat="43.28922486580977" lon="10.734739487906195"><ele>291.0</ele><time>2026-04-18T13:38:37Z</time></trkpt><trkpt lat="43.28919232872682" lon="10.734620431682952"><ele>291.0</ele><time>2026-04-18T13:38:38Z</time></trkpt><trkpt lat="43.289144026153934" lon="10.734511224771541"><ele>291.0</ele><time>2026-04-18T13:38:39Z</time></trkpt><trkpt lat="43.28910371806726" lon="10.734431475865277"><ele>291.0</ele><time>2026-04-18T13:38:40Z</time></trkpt><trkpt lat="43.2891205050599" lon="10.734307975514648"><ele>291.0</ele><time>2026-04-18T13:38:42Z</time></trkpt><trkpt lat="43.28922895562461" lon="10.734174597134501"><ele>291.0</ele><time>2026-04-18T13:38:44Z</time></trkpt><trkpt lat="43.28932427398337" lon="10.734068329137852"><ele>288.5</ele><time>2026-04-18T13:38:45Z</time></trkpt><trkpt lat="43.28943560432117" lon="10.733937626808842"><ele>286.0</ele><time>2026-04-18T13:38:46Z</time></trkpt><trkpt lat="43.289538998275425" lon="10.733831002657745"><ele>283.5</ele><time>2026-04-18T13:38:47Z</time></trkpt><trkpt lat="43.28961565607911" lon="10.733727418585755"><ele>281.0</ele><time>2026-04-18T13:38:48Z</time></trkpt><trkpt lat="43.28968703250793" lon="10.733600187707285"><ele>281.2</ele><time>2026-04-18T13:38:49Z</time></trkpt><trkpt lat="43.28973686488726" lon="10.733473920714953"><ele>281.40000000000003</ele><time>2026-04-18T13:38:50Z</time></trkpt><trkpt lat="43.28978028509863" lon="10.733404353907263"><ele>281.6</ele><time>2026-04-18T13:38:51Z</time></trkpt><trkpt lat="43.28989668718655" lon="10.733330091077162"><ele>281.8</ele><time>2026-04-18T13:38:53Z</time></trkpt><trkpt lat="43.289979541492094" lon="10.733340426592733"><ele>282.0</ele><time>2026-04-18T13:38:54Z</time></trkpt><trkpt lat="43.290063253775955" lon="10.733347579480697"><ele>282.0</ele><time>2026-04-18T13:38:55Z</time></trkpt><trkpt lat="43.290166430875104" lon="10.733356350918168"><ele>282.0</ele><time>2026-04-18T13:38:56Z</time></trkpt><trkpt lat="43.2902724912826" lon="10.733378056020234"><ele>282.0</ele><time>2026-04-18T13:38:57Z</time></trkpt><trkpt lat="43.290361378193154" lon="10.733405388445572"><ele>282.0</ele><time>2026-04-18T13:38:58Z</time></trkpt><trkpt lat="43.2904589149521" lon="10.733442600472424"><ele>282.0</ele><time>2026-04-18T13:38:59Z</time></trkpt><trkpt lat="43.29053920732629" lon="10.733510536273915"><ele>283.0</ele><time>2026-04-18T13:39:00Z</time></trkpt><trkpt lat="43.2905955489967" lon="10.73357485394501"><ele>284.0</ele><time>2026-04-18T13:39:01Z</time></trkpt><trkpt lat="43.29063094322956" lon="10.733651420397731"><ele>285.0</ele><time>2026-04-18T13:39:02Z</time></trkpt><trkpt lat="43.29063203456872" lon="10.733838979281929"><ele>286.0</ele><time>2026-04-18T13:39:04Z</time></trkpt><trkpt lat="43.29066896788004" lon="10.733939170332693"><ele>287.0</ele><time>2026-04-18T13:39:05Z</time></trkpt><trkpt lat="43.29069730281112" lon="10.734020597052075"><ele>288.0</ele><time>2026-04-18T13:39:06Z</time></trkpt><trkpt lat="43.290784741703135" lon="10.734074916280285"><ele>288.0</ele><time>2026-04-18T13:39:07Z</time></trkpt><trkpt lat="43.290882909327486" lon="10.734100044497502"><ele>288.0</ele><time>2026-04-18T13:39:08Z</time></trkpt><trkpt lat="43.2909993622691" lon="10.734089737967631"><ele>288.0</ele><time>2026-04-18T13:39:09Z</time></trkpt><trkpt lat="43.29111816721613" lon="10.734098720771774"><ele>288.0</ele><time>2026-04-18T13:39:10Z</time></trkpt><trkpt lat="43.29121715557601" lon="10.734142239113682"><ele>288.0</ele><time>2026-04-18T13:39:11Z</time></trkpt><trkpt lat="43.291295458930556" lon="10.734183214526237"><ele>288.0</ele><time>2026-04-18T13:39:12Z</time></trkpt><trkpt lat="43.291351185617486" lon="10.734239402359147"><ele>288.0</ele><time>2026-04-18T13:39:13Z</time></trkpt><trkpt lat="43.29139979517088" lon="10.734320184637168"><ele>288.0</ele><time>2026-04-18T13:39:14Z</time></trkpt><trkpt lat="43.29145204786538" lon="10.734411015319306"><ele>288.0</ele><time>2026-04-18T13:39:15Z</time></trkpt><trkpt lat="43.29151199466349" lon="10.734532892656382"><ele>288.0</ele><time>2026-04-18T13:39:16Z</time></trkpt><trkpt lat="43.2915600674643" lon="10.734650035397957"><ele>288.0</ele><time>2026-04-18T13:39:17Z</time></trkpt><trkpt lat="43.29157395054942" lon="10.734748415668081"><ele>287.6</ele><time>2026-04-18T13:39:18Z</time></trkpt><trkpt lat="43.291597121848014" lon="10.73493876446891"><ele>287.20000000000005</ele><time>2026-04-18T13:39:20Z</time></trkpt><trkpt lat="43.29163962331411" lon="10.735016096393633"><ele>286.8</ele><time>2026-04-18T13:39:21Z</time></trkpt><trkpt lat="43.29176528747408" lon="10.735041148842287"><ele>286.40000000000003</ele><time>2026-04-18T13:39:23Z</time></trkpt><trkpt lat="43.29185636636531" lon="10.734984662475805"><ele>286.0</ele><time>2026-04-18T13:39:24Z</time></trkpt><trkpt lat="43.29191494123827" lon="10.734804053860117"><ele>286.0</ele><time>2026-04-18T13:39:25Z</time></trkpt><trkpt lat="43.29203598410047" lon="10.73472468862556"><ele>286.0</ele><time>2026-04-18T13:39:26Z</time></trkpt><trkpt lat="43.29210986577442" lon="10.734592931513335"><ele>286.0</ele><time>2026-04-18T13:39:27Z</time></trkpt><trkpt lat="43.292139304745525" lon="10.734477326279338"><ele>286.0</ele><time>2026-04-18T13:39:28Z</time></trkpt><trkpt lat="43.29217625680741" lon="10.73431207574802"><ele>286.0</ele><time>2026-04-18T13:39:29Z</time></trkpt><trkpt lat="43.29220757757082" lon="10.734171516441055"><ele>286.0</ele><time>2026-04-18T13:39:30Z</time></trkpt><trkpt lat="43.29223468508305" lon="10.73408886141646"><ele>286.0</ele><time>2026-04-18T13:39:31Z</time></trkpt><trkpt lat="43.29226064953024" lon="10.734009691142582"><ele>286.0</ele><time>2026-04-18T13:39:32Z</time></trkpt><trkpt lat="43.29229944590963" lon="10.733820242306136"><ele>286.0</ele><time>2026-04-18T13:39:33Z</time></trkpt><trkpt lat="43.29232299253266" lon="10.733647942711116"><ele>282.8</ele><time>2026-04-18T13:39:34Z</time></trkpt><trkpt lat="43.292325249412784" lon="10.733467583358797"><ele>279.6</ele><time>2026-04-18T13:39:35Z</time></trkpt><trkpt lat="43.29233545350794" lon="10.733329554045948"><ele>276.4</ele><time>2026-04-18T13:39:36Z</time></trkpt><trkpt lat="43.29235652713571" lon="10.733196736094607"><ele>273.2</ele><time>2026-04-18T13:39:37Z</time></trkpt><trkpt lat="43.29237739514124" lon="10.733105372102195"><ele>270.0</ele><time>2026-04-18T13:39:38Z</time></trkpt><trkpt lat="43.292458192361146" lon="10.732966850585202"><ele>270.0</ele><time>2026-04-18T13:39:40Z</time></trkpt><trkpt lat="43.292541944008214" lon="10.732900275751144"><ele>270.0</ele><time>2026-04-18T13:39:41Z</time></trkpt><trkpt lat="43.29265928421941" lon="10.733007885892615"><ele>270.0</ele><time>2026-04-18T13:39:42Z</time></trkpt><trkpt lat="43.29273999941656" lon="10.73301134820729"><ele>270.0</ele><time>2026-04-18T13:39:43Z</time></trkpt><trkpt lat="43.29283843429632" lon="10.733013494679346"><ele>270.0</ele><time>2026-04-18T13:39:44.001Z</time></trkpt><trkpt lat="43.292916423422206" lon="10.733019739711233"><ele>270.0</ele><time>2026-04-18T13:39:45.001Z</time></trkpt><trkpt lat="43.29302003783335" lon="10.733026756855496"><ele>270.0</ele><time>2026-04-18T13:39:47.001Z</time></trkpt><trkpt lat="43.293099068551946" lon="10.733022672268953"><ele>270.0</ele><time>2026-04-18T13:39:48.001Z</time></trkpt><trkpt lat="43.293199826706285" lon="10.732868874546567"><ele>270.0</ele><time>2026-04-18T13:39:50.001Z</time></trkpt><trkpt lat="43.29315076380018" lon="10.732724254036713"><ele>269.4</ele><time>2026-04-18T13:39:51.001Z</time></trkpt><trkpt lat="43.29313171684723" lon="10.732617048324247"><ele>268.8</ele><time>2026-04-18T13:39:53.001Z</time></trkpt><trkpt lat="43.29311374183101" lon="10.732519330702159"><ele>268.2</ele><time>2026-04-18T13:40:28.998Z</time></trkpt><trkpt lat="43.29312396923696" lon="10.732356328046572"><ele>267.6</ele><time>2026-04-18T13:40:30.998Z</time></trkpt><trkpt lat="43.293157215354704" lon="10.732240942481647"><ele>267.0</ele><time>2026-04-18T13:40:31.998Z</time></trkpt><trkpt lat="43.293170058148824" lon="10.732122618691"><ele>267.0</ele><time>2026-04-18T13:40:32.998Z</time></trkpt><trkpt lat="43.29318604099134" lon="10.73203855124451"><ele>267.0</ele><time>2026-04-18T13:40:33.998Z</time></trkpt><trkpt lat="43.29317349955648" lon="10.731896551036666"><ele>267.0</ele><time>2026-04-18T13:40:35.998Z</time></trkpt><trkpt lat="43.29313569215817" lon="10.731792639506576"><ele>267.0</ele><time>2026-04-18T13:40:36.998Z</time></trkpt><trkpt lat="43.29301367273936" lon="10.731579045236598"><ele>265.3333333333333</ele><time>2026-04-18T13:40:38.998Z</time></trkpt><trkpt lat="43.29297732882285" lon="10.731472552992633"><ele>263.6666666666667</ele><time>2026-04-18T13:40:39.998Z</time></trkpt><trkpt lat="43.29294861535918" lon="10.731384851914854"><ele>262.0</ele><time>2026-04-18T13:40:40.998Z</time></trkpt><trkpt lat="43.292960167440775" lon="10.731298102983896"><ele>260.33333333333337</ele><time>2026-04-18T13:40:41.998Z</time></trkpt><trkpt lat="43.29299891330105" lon="10.73122232271211"><ele>258.6666666666667</ele><time>2026-04-18T13:40:42.998Z</time></trkpt><trkpt lat="43.29306129508172" lon="10.731135640725167"><ele>257.0</ele><time>2026-04-18T13:40:43.997Z</time></trkpt><trkpt lat="43.29313776669578" lon="10.73100898784122"><ele>257.0</ele><time>2026-04-18T13:40:44.997Z</time></trkpt><trkpt lat="43.29319816023057" lon="10.730854875056774"><ele>257.0</ele><time>2026-04-18T13:40:45.997Z</time></trkpt><trkpt lat="43.293261634075755" lon="10.730661059562529"><ele>257.0</ele><time>2026-04-18T13:40:46.997Z</time></trkpt><trkpt lat="43.293299332598515" lon="10.73050427242761"><ele>257.0</ele><time>2026-04-18T13:40:47.997Z</time></trkpt><trkpt lat="43.293332766888966" lon="10.730367300860664"><ele>257.0</ele><time>2026-04-18T13:40:48.997Z</time></trkpt><trkpt lat="43.29336615611458" lon="10.73027253510079"><ele>257.0</ele><time>2026-04-18T13:40:49.997Z</time></trkpt><trkpt lat="43.29340375901661" lon="10.730184535621442"><ele>257.0</ele><time>2026-04-18T13:40:50.997Z</time></trkpt><trkpt lat="43.2934508408114" lon="10.7301072376126"><ele>257.0</ele><time>2026-04-18T13:40:51.997Z</time></trkpt><trkpt lat="43.29352190347633" lon="10.730039741377833"><ele>257.0</ele><time>2026-04-18T13:40:52.997Z</time></trkpt><trkpt lat="43.293598596058395" lon="10.729993557857629"><ele>257.0</ele><time>2026-04-18T13:40:53.997Z</time></trkpt><trkpt lat="43.293668108058455" lon="10.72996576808261"><ele>256.4</ele><time>2026-04-18T13:40:54.997Z</time></trkpt><trkpt lat="43.29375059219244" lon="10.729934386032257"><ele>255.79999999999998</ele><time>2026-04-18T13:40:55.997Z</time></trkpt><trkpt lat="43.29385646660506" lon="10.72988838166469"><ele>255.2</ele><time>2026-04-18T13:40:56.997Z</time></trkpt><trkpt lat="43.29397625830211" lon="10.72985396223857"><ele>254.6</ele><time>2026-04-18T13:40:57.997Z</time></trkpt><trkpt lat="43.29404917898623" lon="10.729812702101468"><ele>254.0</ele><time>2026-04-18T13:40:58.997Z</time></trkpt><trkpt lat="43.29416949953421" lon="10.72974200721986"><ele>254.0</ele><time>2026-04-18T13:41:00.997Z</time></trkpt><trkpt lat="43.29423427473553" lon="10.729709949439991"><ele>253.99999999999997</ele><time>2026-04-18T13:41:01.997Z</time></trkpt><trkpt lat="43.29433277549583" lon="10.729669676371287"><ele>253.99999999999997</ele><time>2026-04-18T13:41:03.997Z</time></trkpt><trkpt lat="43.294408473556025" lon="10.729621706429667"><ele>254.0</ele><time>2026-04-18T13:41:05.997Z</time></trkpt><trkpt lat="43.294486072076886" lon="10.72959744531699"><ele>254.0</ele><time>2026-04-18T13:41:08.997Z</time></trkpt><trkpt lat="43.29451314633836" lon="10.729442788775678"><ele>254.0</ele><time>2026-04-18T13:41:12.997Z</time></trkpt><trkpt lat="43.29450147709471" lon="10.729313332348886"><ele>254.0</ele><time>2026-04-18T13:41:14.997Z</time></trkpt><trkpt lat="43.294481663239" lon="10.72919432057846"><ele>254.0</ele><time>2026-04-18T13:41:16.997Z</time></trkpt><trkpt lat="43.29449955906104" lon="10.729435458433777"><ele>254.0</ele><time>2026-04-18T13:41:46.998Z</time></trkpt><trkpt lat="43.294518505823625" lon="10.72957000359533"><ele>254.0</ele><time>2026-04-18T13:41:48.998Z</time></trkpt><trkpt lat="43.29454340191901" lon="10.729684318343045"><ele>253.99999999999997</ele><time>2026-04-18T13:41:50.998Z</time></trkpt><trkpt lat="43.29459107943726" lon="10.729793358614097"><ele>253.99999999999997</ele><time>2026-04-18T13:41:52.998Z</time></trkpt><trkpt lat="43.294669851627525" lon="10.729812631584714"><ele>254.0</ele><time>2026-04-18T13:41:54.998Z</time></trkpt><trkpt lat="43.294749895862005" lon="10.729736329829075"><ele>254.0</ele><time>2026-04-18T13:41:56.998Z</time></trkpt><trkpt lat="43.29475179741947" lon="10.729522800463368"><ele>251.5</ele><time>2026-04-18T13:41:58.998Z</time></trkpt><trkpt lat="43.294804493079766" lon="10.729358986695058"><ele>249.0</ele><time>2026-04-18T13:42:00.998Z</time></trkpt><trkpt lat="43.29490201257674" lon="10.729276722889683"><ele>246.5</ele><time>2026-04-18T13:42:01.998Z</time></trkpt><trkpt lat="43.29502793499774" lon="10.729181105153046"><ele>244.0</ele><time>2026-04-18T13:42:02.998Z</time></trkpt><trkpt lat="43.295107454170655" lon="10.729102063151785"><ele>244.0</ele><time>2026-04-18T13:42:03.998Z</time></trkpt><trkpt lat="43.295190662478966" lon="10.72903551948275"><ele>243.99999999999997</ele><time>2026-04-18T13:42:04.998Z</time></trkpt><trkpt lat="43.295267596730056" lon="10.728981686177347"><ele>243.99999999999997</ele><time>2026-04-18T13:42:05.998Z</time></trkpt><trkpt lat="43.29534606530593" lon="10.728913040575286"><ele>244.0</ele><time>2026-04-18T13:42:06.998Z</time></trkpt><trkpt lat="43.29541785936137" lon="10.728821487714697"><ele>244.0</ele><time>2026-04-18T13:42:07.998Z</time></trkpt><trkpt lat="43.29549647904949" lon="10.728715344377271"><ele>244.0</ele><time>2026-04-18T13:42:08.998Z</time></trkpt><trkpt lat="43.29556233034368" lon="10.728584535255024"><ele>243.99999999999997</ele><time>2026-04-18T13:42:09.998Z</time></trkpt><trkpt lat="43.29564739265673" lon="10.728449348309008"><ele>243.99999999999997</ele><time>2026-04-18T13:42:10.998Z</time></trkpt><trkpt lat="43.2957026722026" lon="10.728331469179151"><ele>244.0</ele><time>2026-04-18T13:42:11.997Z</time></trkpt><trkpt lat="43.29575773245195" lon="10.728234382796263"><ele>244.0</ele><time>2026-04-18T13:42:12.997Z</time></trkpt><trkpt lat="43.295803365304764" lon="10.728127260871013"><ele>240.16666666666666</ele><time>2026-04-18T13:42:13.997Z</time></trkpt><trkpt lat="43.29584469048667" lon="10.728023407966536"><ele>236.33333333333331</ele><time>2026-04-18T13:42:14.997Z</time></trkpt><trkpt lat="43.29587594087673" lon="10.727924758510902"><ele>232.5</ele><time>2026-04-18T13:42:15.997Z</time></trkpt><trkpt lat="43.295901079490356" lon="10.727823005373274"><ele>228.66666666666669</ele><time>2026-04-18T13:42:16.997Z</time></trkpt><trkpt lat="43.29588315731954" lon="10.727706253292295"><ele>224.83333333333334</ele><time>2026-04-18T13:42:17.997Z</time></trkpt><trkpt lat="43.295821598546745" lon="10.727580748345318"><ele>221.0</ele><time>2026-04-18T13:42:18.997Z</time></trkpt><trkpt lat="43.29572431909052" lon="10.727477648428096"><ele>220.0</ele><time>2026-04-18T13:42:19.998Z</time></trkpt><trkpt lat="43.29562271133418" lon="10.727377960221414"><ele>219.00000000000003</ele><time>2026-04-18T13:42:20.998Z</time></trkpt><trkpt lat="43.2955410812335" lon="10.727283525529916"><ele>218.00000000000003</ele><time>2026-04-18T13:42:21.998Z</time></trkpt><trkpt lat="43.2954648525295" lon="10.727202625771989"><ele>217.0</ele><time>2026-04-18T13:42:22.998Z</time></trkpt><trkpt lat="43.295396327444" lon="10.727136462866492"><ele>216.0</ele><time>2026-04-18T13:42:23.998Z</time></trkpt><trkpt lat="43.29534760119669" lon="10.727078802943353"><ele>215.25</ele><time>2026-04-18T13:42:24.998Z</time></trkpt><trkpt lat="43.29533819804983" lon="10.726902846349061"><ele>214.5</ele><time>2026-04-18T13:42:26.998Z</time></trkpt><trkpt lat="43.295463624242345" lon="10.726835504623628"><ele>213.75</ele><time>2026-04-18T13:42:27.999Z</time></trkpt><trkpt lat="43.29555151078581" lon="10.726721244391056"><ele>213.0</ele><time>2026-04-18T13:42:28.999Z</time></trkpt><trkpt lat="43.29565160584206" lon="10.726695401765125"><ele>213.60000000000002</ele><time>2026-04-18T13:42:29.999Z</time></trkpt><trkpt lat="43.295729489249155" lon="10.726696291580955"><ele>214.20000000000002</ele><time>2026-04-18T13:42:30.999Z</time></trkpt><trkpt lat="43.295806897782356" lon="10.726786170574885"><ele>214.8</ele><time>2026-04-18T13:42:31.999Z</time></trkpt><trkpt lat="43.29592681109754" lon="10.726864465660471"><ele>215.4</ele><time>2026-04-18T13:42:32.999Z</time></trkpt><trkpt lat="43.296023053739795" lon="10.726976115760847"><ele>216.0</ele><time>2026-04-18T13:42:33.999Z</time></trkpt><trkpt lat="43.29610624808247" lon="10.727064387748484"><ele>216.0</ele><time>2026-04-18T13:42:34.999Z</time></trkpt><trkpt lat="43.29619290841885" lon="10.727152001686841"><ele>216.00000000000003</ele><time>2026-04-18T13:42:35.999Z</time></trkpt><trkpt lat="43.29626673121445" lon="10.727190440184305"><ele>216.00000000000003</ele><time>2026-04-18T13:42:36.999Z</time></trkpt><trkpt lat="43.296372082359674" lon="10.727217861467823"><ele>216.0</ele><time>2026-04-18T13:42:38.999Z</time></trkpt><trkpt lat="43.29644015066979" lon="10.72713900652032"><ele>216.0</ele><time>2026-04-18T13:42:41Z</time></trkpt><trkpt lat="43.296394607087414" lon="10.72698323967484"><ele>213.25</ele><time>2026-04-18T13:42:42Z</time></trkpt><trkpt lat="43.296382266730625" lon="10.726827814710514"><ele>210.5</ele><time>2026-04-18T13:42:44Z</time></trkpt><trkpt lat="43.29639799623025" lon="10.726704535024252"><ele>207.75</ele><time>2026-04-18T13:42:45Z</time></trkpt><trkpt lat="43.296445725959515" lon="10.72654571593835"><ele>205.0</ele><time>2026-04-18T13:42:46Z</time></trkpt><trkpt lat="43.2964992658561" lon="10.726385546800941"><ele>203.4</ele><time>2026-04-18T13:42:47Z</time></trkpt><trkpt lat="43.296549991766945" lon="10.72624795142745"><ele>201.8</ele><time>2026-04-18T13:42:48Z</time></trkpt><trkpt lat="43.29656357139259" lon="10.726149598272858"><ele>200.2</ele><time>2026-04-18T13:42:49Z</time></trkpt><trkpt lat="43.29653553213898" lon="10.72605287584158"><ele>198.6</ele><time>2026-04-18T13:42:50Z</time></trkpt><trkpt lat="43.29646453521934" lon="10.72594803833715"><ele>197.0</ele><time>2026-04-18T13:42:51Z</time></trkpt><trkpt lat="43.29639145675471" lon="10.72583021449217"><ele>197.0</ele><time>2026-04-18T13:42:52Z</time></trkpt><trkpt lat="43.29636436317314" lon="10.72569520247351"><ele>197.0</ele><time>2026-04-18T13:42:53Z</time></trkpt><trkpt lat="43.29638508019436" lon="10.725559018435295"><ele>197.0</ele><time>2026-04-18T13:42:54Z</time></trkpt><trkpt lat="43.29645767550397" lon="10.72545129587727"><ele>197.0</ele><time>2026-04-18T13:42:55Z</time></trkpt><trkpt lat="43.296502490871795" lon="10.725312909973312"><ele>197.0</ele><time>2026-04-18T13:42:56Z</time></trkpt><trkpt lat="43.29657548307008" lon="10.725190967518559"><ele>194.6</ele><time>2026-04-18T13:42:57Z</time></trkpt><trkpt lat="43.296647412473206" lon="10.725103108616386"><ele>192.2</ele><time>2026-04-18T13:42:58Z</time></trkpt><trkpt lat="43.29674926039983" lon="10.725061561547347"><ele>189.8</ele><time>2026-04-18T13:42:59Z</time></trkpt><trkpt lat="43.296853893202716" lon="10.725009980385755"><ele>187.4</ele><time>2026-04-18T13:43:00Z</time></trkpt><trkpt lat="43.29695146003553" lon="10.724944983460595"><ele>185.0</ele><time>2026-04-18T13:43:01Z</time></trkpt><trkpt lat="43.297043376632175" lon="10.724909922090593"><ele>185.0</ele><time>2026-04-18T13:43:02Z</time></trkpt><trkpt lat="43.2971366790404" lon="10.724890889394667"><ele>185.0</ele><time>2026-04-18T13:43:03Z</time></trkpt><trkpt lat="43.2972172335271" lon="10.72483496106037"><ele>185.0</ele><time>2026-04-18T13:43:04Z</time></trkpt><trkpt lat="43.29730624912227" lon="10.724800419208862"><ele>185.0</ele><time>2026-04-18T13:43:05Z</time></trkpt><trkpt lat="43.29740835893745" lon="10.724768460224725"><ele>185.0</ele><time>2026-04-18T13:43:06Z</time></trkpt><trkpt lat="43.29749474089891" lon="10.72473194442878"><ele>185.0</ele><time>2026-04-18T13:43:07Z</time></trkpt><trkpt lat="43.297585440239736" lon="10.724695867590526"><ele>185.0</ele><time>2026-04-18T13:43:08Z</time></trkpt><trkpt lat="43.2976667835159" lon="10.724663428534033"><ele>185.0</ele><time>2026-04-18T13:43:09Z</time></trkpt><trkpt lat="43.297744225608206" lon="10.724634566236718"><ele>185.0</ele><time>2026-04-18T13:43:10Z</time></trkpt><trkpt lat="43.29786278736781" lon="10.724601010792917"><ele>185.0</ele><time>2026-04-18T13:43:12Z</time></trkpt><trkpt lat="43.29793576907046" lon="10.7245951740262"><ele>185.0</ele><time>2026-04-18T13:43:13Z</time></trkpt><trkpt lat="43.29799898803645" lon="10.724591576194248"><ele>185.0</ele><time>2026-04-18T13:43:14Z</time></trkpt><trkpt lat="43.2981078303797" lon="10.72454467226579"><ele>185.0</ele><time>2026-04-18T13:43:16Z</time></trkpt><trkpt lat="43.29821018993079" lon="10.724496654114818"><ele>185.0</ele><time>2026-04-18T13:43:18.001Z</time></trkpt><trkpt lat="43.298341338980244" lon="10.724502190630904"><ele>185.0</ele><time>2026-04-18T13:43:20.001Z</time></trkpt><trkpt lat="43.29842701480932" lon="10.724538519796988"><ele>185.0</ele><time>2026-04-18T13:43:21.001Z</time></trkpt><trkpt lat="43.298504340079774" lon="10.724587913846383"><ele>185.0</ele><time>2026-04-18T13:43:22.001Z</time></trkpt><trkpt lat="43.29858145706489" lon="10.724660273399902"><ele>185.0</ele><time>2026-04-18T13:43:23.001Z</time></trkpt><trkpt lat="43.29865779209463" lon="10.724710985689736"><ele>185.0</ele><time>2026-04-18T13:43:24.001Z</time></trkpt><trkpt lat="43.298722057219535" lon="10.724756667674308"><ele>185.0</ele><time>2026-04-18T13:43:25.001Z</time></trkpt><trkpt lat="43.29881054930609" lon="10.724800159760413"><ele>185.0</ele><time>2026-04-18T13:43:26.001Z</time></trkpt><trkpt lat="43.2988881976964" lon="10.724899855751643"><ele>183.0</ele><time>2026-04-18T13:43:27.001Z</time></trkpt><trkpt lat="43.29897684871451" lon="10.724967973255959"><ele>181.0</ele><time>2026-04-18T13:43:28.001Z</time></trkpt><trkpt lat="43.29904589300009" lon="10.725040043842368"><ele>179.0</ele><time>2026-04-18T13:43:29.001Z</time></trkpt><trkpt lat="43.29909829840324" lon="10.725090540484636"><ele>177.0</ele><time>2026-04-18T13:43:30.001Z</time></trkpt><trkpt lat="43.29921597607181" lon="10.725164503665242"><ele>175.0</ele><time>2026-04-18T13:43:32.001Z</time></trkpt><trkpt lat="43.29930185437691" lon="10.725152494568585"><ele>175.0</ele><time>2026-04-18T13:43:33.001Z</time></trkpt><trkpt lat="43.299392543548635" lon="10.725090360068315"><ele>175.0</ele><time>2026-04-18T13:43:34.001Z</time></trkpt><trkpt lat="43.299477930505056" lon="10.725056018835085"><ele>175.0</ele><time>2026-04-18T13:43:35.001Z</time></trkpt><trkpt lat="43.29955114083126" lon="10.725026781564624"><ele>175.0</ele><time>2026-04-18T13:43:36.001Z</time></trkpt><trkpt lat="43.29961905453226" lon="10.725018131027888"><ele>175.0</ele><time>2026-04-18T13:43:37.001Z</time></trkpt><trkpt lat="43.299685040292225" lon="10.725042455627325"><ele>175.0</ele><time>2026-04-18T13:43:38.001Z</time></trkpt><trkpt lat="43.29975553902385" lon="10.725079001001554"><ele>174.0</ele><time>2026-04-18T13:43:39.001Z</time></trkpt><trkpt lat="43.29980752853653" lon="10.725146796394503"><ele>173.0</ele><time>2026-04-18T13:43:40.001Z</time></trkpt><trkpt lat="43.299865435888435" lon="10.725245745017915"><ele>172.0</ele><time>2026-04-18T13:43:41.001Z</time></trkpt><trkpt lat="43.29993293570104" lon="10.72536726719664"><ele>171.0</ele><time>2026-04-18T13:43:42.001Z</time></trkpt><trkpt lat="43.30000064732466" lon="10.725491144275917"><ele>170.0</ele><time>2026-04-18T13:43:43.001Z</time></trkpt><trkpt lat="43.300041578301844" lon="10.725599599096709"><ele>170.0</ele><time>2026-04-18T13:43:44.001Z</time></trkpt><trkpt lat="43.30014565132386" lon="10.725704297873557"><ele>170.0</ele><time>2026-04-18T13:43:46.001Z</time></trkpt><trkpt lat="43.30022561445133" lon="10.725751023504827"><ele>170.0</ele><time>2026-04-18T13:43:47.001Z</time></trkpt><trkpt lat="43.300309729233966" lon="10.725809340168778"><ele>170.0</ele><time>2026-04-18T13:43:48.001Z</time></trkpt><trkpt lat="43.3003911957904" lon="10.725836829629625"><ele>170.0</ele><time>2026-04-18T13:43:49.001Z</time></trkpt><trkpt lat="43.300493775448295" lon="10.725805745116404"><ele>170.0</ele><time>2026-04-18T13:43:51.001Z</time></trkpt><trkpt lat="43.300560176085526" lon="10.725717439263821"><ele>170.0</ele><time>2026-04-18T13:43:53.001Z</time></trkpt><trkpt lat="43.30056937491882" lon="10.725631700737654"><ele>170.0</ele><time>2026-04-18T13:43:54.001Z</time></trkpt><trkpt lat="43.300553849239606" lon="10.725535124701974"><ele>170.0</ele><time>2026-04-18T13:43:55.001Z</time></trkpt><trkpt lat="43.30051558483249" lon="10.725412421122693"><ele>170.0</ele><time>2026-04-18T13:43:56.001Z</time></trkpt><trkpt lat="43.30051109166226" lon="10.725294873757381"><ele>170.0</ele><time>2026-04-18T13:43:57.001Z</time></trkpt><trkpt lat="43.30052824187938" lon="10.725120538080452"><ele>169.2</ele><time>2026-04-18T13:43:59.001Z</time></trkpt><trkpt lat="43.30057932932279" lon="10.72502101039546"><ele>168.4</ele><time>2026-04-18T13:44:00.001Z</time></trkpt><trkpt lat="43.30065401453161" lon="10.72490620284731"><ele>167.60000000000002</ele><time>2026-04-18T13:44:01.001Z</time></trkpt><trkpt lat="43.30071806326631" lon="10.72476266601973"><ele>166.8</ele><time>2026-04-18T13:44:02.001Z</time></trkpt><trkpt lat="43.300766526853536" lon="10.724635921366769"><ele>166.0</ele><time>2026-04-18T13:44:03.001Z</time></trkpt><trkpt lat="43.30080240650015" lon="10.724528485566914"><ele>166.0</ele><time>2026-04-18T13:44:04.001Z</time></trkpt><trkpt lat="43.3008249793259" lon="10.724414239726327"><ele>166.0</ele><time>2026-04-18T13:44:05.001Z</time></trkpt><trkpt lat="43.300810024575654" lon="10.72427442070397"><ele>166.0</ele><time>2026-04-18T13:44:06.001Z</time></trkpt><trkpt lat="43.300804507753995" lon="10.72412276511165"><ele>166.0</ele><time>2026-04-18T13:44:07.001Z</time></trkpt><trkpt lat="43.300804108292354" lon="10.723983179760088"><ele>166.0</ele><time>2026-04-18T13:44:08.001Z</time></trkpt><trkpt lat="43.300817822652476" lon="10.723863566793453"><ele>164.5</ele><time>2026-04-18T13:44:09.001Z</time></trkpt><trkpt lat="43.300838548460675" lon="10.72377763309114"><ele>163.0</ele><time>2026-04-18T13:44:10.001Z</time></trkpt><trkpt lat="43.30087586253625" lon="10.723692747049652"><ele>161.5</ele><time>2026-04-18T13:44:11.001Z</time></trkpt><trkpt lat="43.30091903260053" lon="10.72361039143795"><ele>160.0</ele><time>2026-04-18T13:44:12.001Z</time></trkpt><trkpt lat="43.30099012899504" lon="10.723588164445268"><ele>158.5</ele><time>2026-04-18T13:44:13.001Z</time></trkpt><trkpt lat="43.301060071984566" lon="10.723523592423115"><ele>157.0</ele><time>2026-04-18T13:44:14.001Z</time></trkpt><trkpt lat="43.30114725317345" lon="10.72350777595022"><ele>156.4</ele><time>2026-04-18T13:44:15.001Z</time></trkpt><trkpt lat="43.301242575848136" lon="10.723497174104985"><ele>155.79999999999998</ele><time>2026-04-18T13:44:16.001Z</time></trkpt><trkpt lat="43.30134886982606" lon="10.72350856356923"><ele>155.2</ele><time>2026-04-18T13:44:17.001Z</time></trkpt><trkpt lat="43.30143572075339" lon="10.723503977404658"><ele>154.6</ele><time>2026-04-18T13:44:17.999Z</time></trkpt><trkpt lat="43.30151968360698" lon="10.723493989819776"><ele>154.0</ele><time>2026-04-18T13:44:18.999Z</time></trkpt><trkpt lat="43.301582974923775" lon="10.7234200500293"><ele>154.0</ele><time>2026-04-18T13:44:19.999Z</time></trkpt><trkpt lat="43.30163239237345" lon="10.723360567600052"><ele>154.0</ele><time>2026-04-18T13:44:20.999Z</time></trkpt><trkpt lat="43.30170731243003" lon="10.723222484914084"><ele>154.0</ele><time>2026-04-18T13:44:22.999Z</time></trkpt><trkpt lat="43.30174281576773" lon="10.723122931377588"><ele>154.0</ele><time>2026-04-18T13:44:23.999Z</time></trkpt><trkpt lat="43.301759567335274" lon="10.722997034998794"><ele>154.0</ele><time>2026-04-18T13:44:24.999Z</time></trkpt><trkpt lat="43.301802225948826" lon="10.722866425545103"><ele>154.0</ele><time>2026-04-18T13:44:25.999Z</time></trkpt><trkpt lat="43.30185469039283" lon="10.722765111278033"><ele>154.0</ele><time>2026-04-18T13:44:26.999Z</time></trkpt><trkpt lat="43.301889755949546" lon="10.722680238797471"><ele>154.0</ele><time>2026-04-18T13:44:27.999Z</time></trkpt><trkpt lat="43.301924943780804" lon="10.722601805240654"><ele>154.0</ele><time>2026-04-18T13:44:29Z</time></trkpt><trkpt lat="43.30197993322629" lon="10.722499507566905"><ele>154.0</ele><time>2026-04-18T13:44:30Z</time></trkpt><trkpt lat="43.30206153073886" lon="10.72239416385123"><ele>154.0</ele><time>2026-04-18T13:44:31Z</time></trkpt><trkpt lat="43.3021306716588" lon="10.72232980140581"><ele>152.66666666666669</ele><time>2026-04-18T13:44:32Z</time></trkpt><trkpt lat="43.30218844966943" lon="10.722290151640143"><ele>151.33333333333334</ele><time>2026-04-18T13:44:33Z</time></trkpt><trkpt lat="43.30226579200903" lon="10.7222667914272"><ele>150.0</ele><time>2026-04-18T13:44:34Z</time></trkpt><trkpt lat="43.30234802496629" lon="10.722265621163842"><ele>148.66666666666666</ele><time>2026-04-18T13:44:35Z</time></trkpt><trkpt lat="43.302433740606546" lon="10.722275561623514"><ele>147.33333333333331</ele><time>2026-04-18T13:44:36Z</time></trkpt><trkpt lat="43.30251474794204" lon="10.722287929756462"><ele>146.0</ele><time>2026-04-18T13:44:37Z</time></trkpt><trkpt lat="43.30259402899146" lon="10.722303061686082"><ele>146.0</ele><time>2026-04-18T13:44:39Z</time></trkpt><trkpt lat="43.30269907504609" lon="10.722330073012145"><ele>146.0</ele><time>2026-04-18T13:44:42Z</time></trkpt><trkpt lat="43.30277652946808" lon="10.722357439831548"><ele>146.0</ele><time>2026-04-18T13:44:43Z</time></trkpt><trkpt lat="43.3028587721968" lon="10.7223965688365"><ele>146.0</ele><time>2026-04-18T13:44:44Z</time></trkpt><trkpt lat="43.30292516183061" lon="10.722436334061179"><ele>146.0</ele><time>2026-04-18T13:44:45Z</time></trkpt><trkpt lat="43.3030206746509" lon="10.7225185632346"><ele>144.0</ele><time>2026-04-18T13:44:47Z</time></trkpt><trkpt lat="43.30312112021033" lon="10.722590534309555"><ele>142.0</ele><time>2026-04-18T13:44:49Z</time></trkpt><trkpt lat="43.303218374759645" lon="10.72270395839199"><ele>140.0</ele><time>2026-04-18T13:44:51Z</time></trkpt><trkpt lat="43.30326626717949" lon="10.722777426207166"><ele>138.0</ele><time>2026-04-18T13:44:52Z</time></trkpt><trkpt lat="43.30332397925267" lon="10.722908698015537"><ele>136.0</ele><time>2026-04-18T13:44:54Z</time></trkpt><trkpt lat="43.30334798372183" lon="10.723005724592118"><ele>136.0</ele><time>2026-04-18T13:44:55Z</time></trkpt><trkpt lat="43.30336415525868" lon="10.723101885308798"><ele>136.0</ele><time>2026-04-18T13:44:56Z</time></trkpt><trkpt lat="43.30336382505756" lon="10.723265220817579"><ele>136.0</ele><time>2026-04-18T13:44:58Z</time></trkpt><trkpt lat="43.30336824570494" lon="10.723398854045131"><ele>136.0</ele><time>2026-04-18T13:44:59Z</time></trkpt><trkpt lat="43.30338768312238" lon="10.72352180128237"><ele>136.0</ele><time>2026-04-18T13:45:00Z</time></trkpt><trkpt lat="43.3034102408977" lon="10.723628476159213"><ele>136.0</ele><time>2026-04-18T13:45:01Z</time></trkpt><trkpt lat="43.30343369426626" lon="10.723711896869144"><ele>136.0</ele><time>2026-04-18T13:45:02Z</time></trkpt><trkpt lat="43.30347025310735" lon="10.723809241379056"><ele>136.0</ele><time>2026-04-18T13:45:04Z</time></trkpt><trkpt lat="43.30343699765315" lon="10.723721355509701"><ele>136.0</ele><time>2026-04-18T13:45:25Z</time></trkpt><trkpt lat="43.30341256065238" lon="10.723639175989188"><ele>136.0</ele><time>2026-04-18T13:45:28Z</time></trkpt><trkpt lat="43.303389806244226" lon="10.723533593484817"><ele>136.0</ele><time>2026-04-18T13:45:31.001Z</time></trkpt><trkpt lat="43.303568619537714" lon="10.723451209294014"><ele>136.0</ele><time>2026-04-18T13:49:07.001Z</time></trkpt><trkpt lat="43.303585370158686" lon="10.723310861069308"><ele>136.0</ele><time>2026-04-18T13:49:52.001Z</time></trkpt><trkpt lat="43.30358678586054" lon="10.723152163047292"><ele>136.0</ele><time>2026-04-18T13:49:54.002Z</time></trkpt><trkpt lat="43.30358058474907" lon="10.723065886149698"><ele>136.0</ele><time>2026-04-18T13:49:55.002Z</time></trkpt><trkpt lat="43.30355279551514" lon="10.72292908501453"><ele>136.0</ele><time>2026-04-18T13:49:57.002Z</time></trkpt><trkpt lat="43.303544591404226" lon="10.722840191433212"><ele>136.0</ele><time>2026-04-18T13:49:58.002Z</time></trkpt><trkpt lat="43.303577010204236" lon="10.722760425333599"><ele>136.0</ele><time>2026-04-18T13:50:01.002Z</time></trkpt><trkpt lat="43.3035965024495" lon="10.72265015034773"><ele>136.0</ele><time>2026-04-18T13:50:04.002Z</time></trkpt><trkpt lat="43.30364375167381" lon="10.722495242667637"><ele>136.0</ele><time>2026-04-18T13:50:38.001Z</time></trkpt><trkpt lat="43.30366779351479" lon="10.722397359688664"><ele>136.0</ele><time>2026-04-18T13:50:39.001Z</time></trkpt><trkpt lat="43.30368933390896" lon="10.722309339085799"><ele>136.0</ele><time>2026-04-18T13:50:40.001Z</time></trkpt><trkpt lat="43.30374691262083" lon="10.722177522474714"><ele>135.4</ele><time>2026-04-18T13:50:42.001Z</time></trkpt><trkpt lat="43.303803726125224" lon="10.722041468426903"><ele>134.8</ele><time>2026-04-18T13:50:44.001Z</time></trkpt><trkpt lat="43.30385063804303" lon="10.72192378616338"><ele>134.20000000000002</ele><time>2026-04-18T13:50:46.001Z</time></trkpt><trkpt lat="43.3039040076081" lon="10.721810483886793"><ele>133.6</ele><time>2026-04-18T13:50:48.001Z</time></trkpt><trkpt lat="43.30397197301205" lon="10.72167094804872"><ele>133.0</ele><time>2026-04-18T13:50:50.001Z</time></trkpt><trkpt lat="43.30401685800019" lon="10.721579417068027"><ele>129.6</ele><time>2026-04-18T13:50:51.001Z</time></trkpt><trkpt lat="43.30408174296989" lon="10.72147077710184"><ele>126.20000000000002</ele><time>2026-04-18T13:50:52.001Z</time></trkpt><trkpt lat="43.304132116189976" lon="10.721376513821692"><ele>122.8</ele><time>2026-04-18T13:50:53.001Z</time></trkpt><trkpt lat="43.30419122431208" lon="10.721278635787673"><ele>119.4</ele><time>2026-04-18T13:50:54.001Z</time></trkpt><trkpt lat="43.304249836046566" lon="10.72117584753982"><ele>116.0</ele><time>2026-04-18T13:50:55.001Z</time></trkpt><trkpt lat="43.30430128513672" lon="10.721078665227923"><ele>117.16666666666666</ele><time>2026-04-18T13:50:56.001Z</time></trkpt><trkpt lat="43.30434373154894" lon="10.720994777375799"><ele>118.33333333333333</ele><time>2026-04-18T13:50:57.001Z</time></trkpt><trkpt lat="43.304407632437375" lon="10.720881561852066"><ele>119.5</ele><time>2026-04-18T13:50:59.001Z</time></trkpt><trkpt lat="43.30446254635393" lon="10.720819132073025"><ele>120.66666666666666</ele><time>2026-04-18T13:51:00.001Z</time></trkpt><trkpt lat="43.30454438790511" lon="10.720759811728021"><ele>121.83333333333333</ele><time>2026-04-18T13:51:01.001Z</time></trkpt><trkpt lat="43.304621226602336" lon="10.720724613851722"><ele>123.0</ele><time>2026-04-18T13:51:02.001Z</time></trkpt><trkpt lat="43.304708809938916" lon="10.720719254006289"><ele>120.2</ele><time>2026-04-18T13:51:03.001Z</time></trkpt><trkpt lat="43.30482567846321" lon="10.720720482525072"><ele>117.4</ele><time>2026-04-18T13:51:04.001Z</time></trkpt><trkpt lat="43.30493486488109" lon="10.720705374928967"><ele>114.60000000000001</ele><time>2026-04-18T13:51:05.001Z</time></trkpt><trkpt lat="43.305022523126254" lon="10.720690284445366"><ele>111.80000000000001</ele><time>2026-04-18T13:51:06.001Z</time></trkpt><trkpt lat="43.30513573372309" lon="10.720656140427137"><ele>109.0</ele><time>2026-04-18T13:51:08.001Z</time></trkpt><trkpt lat="43.30524963639371" lon="10.720568498844871"><ele>109.00000000000001</ele><time>2026-04-18T13:51:10.001Z</time></trkpt><trkpt lat="43.305297295926856" lon="10.720500427064419"><ele>109.0</ele><time>2026-04-18T13:51:11.001Z</time></trkpt><trkpt lat="43.30534280348802" lon="10.72042170508769"><ele>109.0</ele><time>2026-04-18T13:51:12.001Z</time></trkpt><trkpt lat="43.30537297315274" lon="10.720335498750625"><ele>109.0</ele><time>2026-04-18T13:51:13.001Z</time></trkpt><trkpt lat="43.30539428008843" lon="10.720246958546042"><ele>109.00000000000001</ele><time>2026-04-18T13:51:14.001Z</time></trkpt><trkpt lat="43.30541561613357" lon="10.72013670403466"><ele>109.0</ele><time>2026-04-18T13:51:15.001Z</time></trkpt><trkpt lat="43.30543090694923" lon="10.720013438045298"><ele>110.2</ele><time>2026-04-18T13:51:16.001Z</time></trkpt><trkpt lat="43.30544423845251" lon="10.71987557290717"><ele>111.4</ele><time>2026-04-18T13:51:17.001Z</time></trkpt><trkpt lat="43.305458037578816" lon="10.719738024396673"><ele>112.6</ele><time>2026-04-18T13:51:18.001Z</time></trkpt><trkpt lat="43.30547525428049" lon="10.719630067836864"><ele>113.8</ele><time>2026-04-18T13:51:19.001Z</time></trkpt><trkpt lat="43.30550073754402" lon="10.719486890663175"><ele>115.0</ele><time>2026-04-18T13:51:21.001Z</time></trkpt><trkpt lat="43.30545371930941" lon="10.71933173091159"><ele>115.0</ele><time>2026-04-18T13:51:23.001Z</time></trkpt><trkpt lat="43.305412639557176" lon="10.719251781154945"><ele>115.0</ele><time>2026-04-18T13:51:24.001Z</time></trkpt><trkpt lat="43.30537325635795" lon="10.71910802170407"><ele>115.0</ele><time>2026-04-18T13:51:26.001Z</time></trkpt><trkpt lat="43.305376428415784" lon="10.718959918169123"><ele>115.0</ele><time>2026-04-18T13:51:27.001Z</time></trkpt><trkpt lat="43.30537856420954" lon="10.718777384251748"><ele>115.0</ele><time>2026-04-18T13:51:28.001Z</time></trkpt><trkpt lat="43.30538889424684" lon="10.718647659665775"><ele>115.00000000000001</ele><time>2026-04-18T13:51:29.001Z</time></trkpt><trkpt lat="43.305406970555524" lon="10.718561489272135"><ele>115.0</ele><time>2026-04-18T13:51:30.001Z</time></trkpt><trkpt lat="43.3054502234401" lon="10.718488939455005"><ele>115.0</ele><time>2026-04-18T13:51:31.001Z</time></trkpt><trkpt lat="43.30550872731448" lon="10.718432908541418"><ele>115.0</ele><time>2026-04-18T13:51:32.001Z</time></trkpt><trkpt lat="43.305585594658574" lon="10.718386377602192"><ele>115.00000000000001</ele><time>2026-04-18T13:51:33.001Z</time></trkpt><trkpt lat="43.305685020789774" lon="10.71837174889304"><ele>115.0</ele><time>2026-04-18T13:51:34.001Z</time></trkpt><trkpt lat="43.305783271299916" lon="10.718366790335908"><ele>112.50000000000001</ele><time>2026-04-18T13:51:35.001Z</time></trkpt><trkpt lat="43.30585920153058" lon="10.718348189231932"><ele>110.0</ele><time>2026-04-18T13:51:36.001Z</time></trkpt><trkpt lat="43.30592307603569" lon="10.718318288789575"><ele>107.5</ele><time>2026-04-18T13:51:37.001Z</time></trkpt><trkpt lat="43.306027547281694" lon="10.718198537960307"><ele>105.0</ele><time>2026-04-18T13:51:39.002Z</time></trkpt><trkpt lat="43.306078674701816" lon="10.718114128315866"><ele>102.50000000000001</ele><time>2026-04-18T13:51:40.002Z</time></trkpt><trkpt lat="43.306109635440215" lon="10.718036067460966"><ele>100.0</ele><time>2026-04-18T13:51:41.002Z</time></trkpt><trkpt lat="43.30613929227062" lon="10.717959566133782"><ele>100.00000000000001</ele><time>2026-04-18T13:51:42.002Z</time></trkpt><trkpt lat="43.30615420925425" lon="10.717867966064274"><ele>100.0</ele><time>2026-04-18T13:51:43.002Z</time></trkpt><trkpt lat="43.306162680389875" lon="10.717746765027346"><ele>100.0</ele><time>2026-04-18T13:51:44.002Z</time></trkpt><trkpt lat="43.30618704637541" lon="10.71763165561026"><ele>100.0</ele><time>2026-04-18T13:51:45.002Z</time></trkpt><trkpt lat="43.30623353851248" lon="10.717518884507806"><ele>100.00000000000001</ele><time>2026-04-18T13:51:46.002Z</time></trkpt><trkpt lat="43.30627753103312" lon="10.717455017756905"><ele>100.0</ele><time>2026-04-18T13:51:47.002Z</time></trkpt><trkpt lat="43.306355340862126" lon="10.717414819021164"><ele>97.8</ele><time>2026-04-18T13:51:49.002Z</time></trkpt><trkpt lat="43.306461147281745" lon="10.71735578664195"><ele>95.6</ele><time>2026-04-18T13:51:51.002Z</time></trkpt><trkpt lat="43.306523190199634" lon="10.717316490106557"><ele>93.4</ele><time>2026-04-18T13:51:52.002Z</time></trkpt><trkpt lat="43.30659612349748" lon="10.717271946313438"><ele>91.2</ele><time>2026-04-18T13:51:53.002Z</time></trkpt><trkpt lat="43.30667027973903" lon="10.717229104570743"><ele>89.0</ele><time>2026-04-18T13:51:54.002Z</time></trkpt><trkpt lat="43.306745822163975" lon="10.717122619525767"><ele>89.0</ele><time>2026-04-18T13:51:56.002Z</time></trkpt><trkpt lat="43.30678182658565" lon="10.717030048950186"><ele>89.0</ele><time>2026-04-18T13:51:57.002Z</time></trkpt><trkpt lat="43.30680576390089" lon="10.716944710506608"><ele>89.0</ele><time>2026-04-18T13:51:58.002Z</time></trkpt><trkpt lat="43.306813950944814" lon="10.716827448202528"><ele>89.0</ele><time>2026-04-18T13:52:00.002Z</time></trkpt><trkpt lat="43.30682009440147" lon="10.716725613674207"><ele>89.0</ele><time>2026-04-18T13:52:02.002Z</time></trkpt><trkpt lat="43.30682360167266" lon="10.7166377385203"><ele>89.0</ele><time>2026-04-18T13:52:04.002Z</time></trkpt><trkpt lat="43.30681261344845" lon="10.716517816618277"><ele>89.16666666666667</ele><time>2026-04-18T13:52:32.002Z</time></trkpt><trkpt lat="43.3068030631233" lon="10.716414359748256"><ele>89.33333333333334</ele><time>2026-04-18T13:52:33.002Z</time></trkpt><trkpt lat="43.30680025693387" lon="10.716305476382551"><ele>89.5</ele><time>2026-04-18T13:52:34.002Z</time></trkpt><trkpt lat="43.306787917244776" lon="10.716207472955977"><ele>89.66666666666667</ele><time>2026-04-18T13:52:35.002Z</time></trkpt><trkpt lat="43.30686123766642" lon="10.71618023602199"><ele>89.83333333333333</ele><time>2026-04-18T13:52:40.002Z</time></trkpt><trkpt lat="43.30692077924356" lon="10.716304540284604"><ele>90.0</ele><time>2026-04-18T13:52:44.001Z</time></trkpt><trkpt lat="43.306977187311276" lon="10.716513732387549"><ele>90.0</ele><time>2026-04-18T13:52:46.001Z</time></trkpt><trkpt lat="43.307029443807906" lon="10.716639397384537"><ele>90.0</ele><time>2026-04-18T13:52:47.001Z</time></trkpt><trkpt lat="43.307083685435416" lon="10.716775821769906"><ele>90.0</ele><time>2026-04-18T13:52:48.001Z</time></trkpt><trkpt lat="43.30711990824063" lon="10.716900612499945"><ele>90.0</ele><time>2026-04-18T13:52:49.001Z</time></trkpt><trkpt lat="43.307139271780905" lon="10.717033015904127"><ele>90.0</ele><time>2026-04-18T13:52:50.001Z</time></trkpt><trkpt lat="43.307161867398236" lon="10.717175728831098"><ele>89.83333333333333</ele><time>2026-04-18T13:52:51.001Z</time></trkpt><trkpt lat="43.30718348799301" lon="10.717299779038905"><ele>89.66666666666667</ele><time>2026-04-18T13:52:52.001Z</time></trkpt><trkpt lat="43.307199166299014" lon="10.71741389890281"><ele>89.5</ele><time>2026-04-18T13:52:53.001Z</time></trkpt><trkpt lat="43.30719681633327" lon="10.717525429775007"><ele>89.33333333333334</ele><time>2026-04-18T13:52:54.001Z</time></trkpt><trkpt lat="43.30719313849476" lon="10.71762918959587"><ele>89.16666666666667</ele><time>2026-04-18T13:52:55.001Z</time></trkpt><trkpt lat="43.30716360116921" lon="10.717720170901426"><ele>89.0</ele><time>2026-04-18T13:52:56.001Z</time></trkpt><trkpt lat="43.30706829596709" lon="10.717830040554414"><ele>88.16666666666667</ele><time>2026-04-18T13:52:58.001Z</time></trkpt><trkpt lat="43.307005703054735" lon="10.717871347590892"><ele>87.33333333333334</ele><time>2026-04-18T13:52:59.001Z</time></trkpt><trkpt lat="43.3069304243311" lon="10.717896061967757"><ele>86.5</ele><time>2026-04-18T13:53:00.001Z</time></trkpt><trkpt lat="43.306883146540365" lon="10.717997592859074"><ele>85.66666666666667</ele><time>2026-04-18T13:53:02.001Z</time></trkpt><trkpt lat="43.30692961743688" lon="10.71812990692118"><ele>84.83333333333333</ele><time>2026-04-18T13:53:04.001Z</time></trkpt><trkpt lat="43.30697759221043" lon="10.718229347409492"><ele>84.0</ele><time>2026-04-18T13:53:05.001Z</time></trkpt><trkpt lat="43.30701808197049" lon="10.718346850609988"><ele>84.0</ele><time>2026-04-18T13:53:06.001Z</time></trkpt><trkpt lat="43.30704585181102" lon="10.718442867854526"><ele>84.0</ele><time>2026-04-18T13:53:07.001Z</time></trkpt><trkpt lat="43.30703181534152" lon="10.718534242572119"><ele>84.0</ele><time>2026-04-18T13:53:08.001Z</time></trkpt><trkpt lat="43.30702509888972" lon="10.718641332969888"><ele>84.0</ele><time>2026-04-18T13:53:09.001Z</time></trkpt><trkpt lat="43.30699442974444" lon="10.71879791719075"><ele>84.0</ele><time>2026-04-18T13:53:10.001Z</time></trkpt><trkpt lat="43.30696330210507" lon="10.718954212714534"><ele>83.5</ele><time>2026-04-18T13:53:11.001Z</time></trkpt><trkpt lat="43.30695443413476" lon="10.719075228056512"><ele>83.0</ele><time>2026-04-18T13:53:12.001Z</time></trkpt><trkpt lat="43.30695632205942" lon="10.71916774936438"><ele>82.5</ele><time>2026-04-18T13:53:13.001Z</time></trkpt><trkpt lat="43.306962984569076" lon="10.719258339525714"><ele>82.0</ele><time>2026-04-18T13:53:14.001Z</time></trkpt><trkpt lat="43.30697215068986" lon="10.719429849311485"><ele>81.5</ele><time>2026-04-18T13:53:16.001Z</time></trkpt><trkpt lat="43.30701356385836" lon="10.719522905134179"><ele>81.0</ele><time>2026-04-18T13:53:18.001Z</time></trkpt><trkpt lat="43.30709134637642" lon="10.719494938605228"><ele>81.0</ele><time>2026-04-18T13:53:20.001Z</time></trkpt><trkpt lat="43.307151835924486" lon="10.719372912159345"><ele>81.0</ele><time>2026-04-18T13:53:22.001Z</time></trkpt><trkpt lat="43.307188833505045" lon="10.719226367376404"><ele>81.0</ele><time>2026-04-18T13:53:24.001Z</time></trkpt><trkpt lat="43.30722813116779" lon="10.719107731214518"><ele>81.0</ele><time>2026-04-18T13:53:25.001Z</time></trkpt><trkpt lat="43.30726211296492" lon="10.718968114588142"><ele>81.0</ele><time>2026-04-18T13:53:26.001Z</time></trkpt><trkpt lat="43.30730127605364" lon="10.718806410314455"><ele>79.0</ele><time>2026-04-18T13:53:27.001Z</time></trkpt><trkpt lat="43.30734351225559" lon="10.71864375116136"><ele>77.0</ele><time>2026-04-18T13:53:28.001Z</time></trkpt><trkpt lat="43.30738440232487" lon="10.718499500673907"><ele>75.0</ele><time>2026-04-18T13:53:29.001Z</time></trkpt><trkpt lat="43.30743315159051" lon="10.718330922415817"><ele>73.0</ele><time>2026-04-18T13:53:30.001Z</time></trkpt><trkpt lat="43.30747357480732" lon="10.718166552961279"><ele>73.0</ele><time>2026-04-18T13:53:31.001Z</time></trkpt><trkpt lat="43.307511455010015" lon="10.718025681638156"><ele>73.0</ele><time>2026-04-18T13:53:32Z</time></trkpt><trkpt lat="43.3075493038226" lon="10.71789416239867"><ele>73.0</ele><time>2026-04-18T13:53:33Z</time></trkpt><trkpt lat="43.307587259248216" lon="10.717756024673179"><ele>73.0</ele><time>2026-04-18T13:53:34Z</time></trkpt><trkpt lat="43.30762618064437" lon="10.717615694663985"><ele>73.0</ele><time>2026-04-18T13:53:35Z</time></trkpt><trkpt lat="43.307657858130376" lon="10.717476258406784"><ele>73.2</ele><time>2026-04-18T13:53:36Z</time></trkpt><trkpt lat="43.307688103342684" lon="10.71732060051852"><ele>73.4</ele><time>2026-04-18T13:53:37Z</time></trkpt><trkpt lat="43.30772067450804" lon="10.7171725374968"><ele>73.60000000000001</ele><time>2026-04-18T13:53:38Z</time></trkpt><trkpt lat="43.30774641003714" lon="10.717048989096616"><ele>73.8</ele><time>2026-04-18T13:53:39Z</time></trkpt><trkpt lat="43.30776776413624" lon="10.71692628831171"><ele>74.0</ele><time>2026-04-18T13:53:40Z</time></trkpt><trkpt lat="43.30778534112587" lon="10.716822177281527"><ele>74.4</ele><time>2026-04-18T13:53:41Z</time></trkpt><trkpt lat="43.30781452023796" lon="10.716720240829293"><ele>74.80000000000001</ele><time>2026-04-18T13:53:42Z</time></trkpt><trkpt lat="43.30785659029667" lon="10.716612268318746"><ele>75.19999999999999</ele><time>2026-04-18T13:53:43Z</time></trkpt><trkpt lat="43.30790234917322" lon="10.716510702271668"><ele>75.6</ele><time>2026-04-18T13:53:44Z</time></trkpt><trkpt lat="43.30795786639793" lon="10.716414372738404"><ele>76.0</ele><time>2026-04-18T13:53:45Z</time></trkpt><trkpt lat="43.30803884653291" lon="10.716323760545146"><ele>75.39999999999999</ele><time>2026-04-18T13:53:46Z</time></trkpt><trkpt lat="43.30812217047128" lon="10.716259777765273"><ele>74.8</ele><time>2026-04-18T13:53:47Z</time></trkpt><trkpt lat="43.308207469825625" lon="10.716199328172536"><ele>74.19999999999999</ele><time>2026-04-18T13:53:48Z</time></trkpt><trkpt lat="43.308288987063975" lon="10.716129014269773"><ele>73.6</ele><time>2026-04-18T13:53:49Z</time></trkpt><trkpt lat="43.30836752006271" lon="10.71606264012005"><ele>73.0</ele><time>2026-04-18T13:53:50Z</time></trkpt><trkpt lat="43.308437793552045" lon="10.715990809646593"><ele>73.0</ele><time>2026-04-18T13:53:51Z</time></trkpt><trkpt lat="43.308498857719336" lon="10.715918191890129"><ele>73.0</ele><time>2026-04-18T13:53:52Z</time></trkpt><trkpt lat="43.30854466817455" lon="10.715847905558483"><ele>73.0</ele><time>2026-04-18T13:53:53Z</time></trkpt><trkpt lat="43.308583315941256" lon="10.715677864177767"><ele>73.0</ele><time>2026-04-18T13:53:55Z</time></trkpt><trkpt lat="43.30859483316666" lon="10.71556705175019"><ele>73.0</ele><time>2026-04-18T13:53:56Z</time></trkpt><trkpt lat="43.308597913539316" lon="10.71545821602727"><ele>73.0</ele><time>2026-04-18T13:53:57Z</time></trkpt><trkpt lat="43.308664528256166" lon="10.715284603734158"><ele>73.8</ele><time>2026-04-18T13:53:59Z</time></trkpt><trkpt lat="43.30874098722005" lon="10.715204826594016"><ele>74.6</ele><time>2026-04-18T13:54:00Z</time></trkpt><trkpt lat="43.308821591688336" lon="10.715128396338145"><ele>75.4</ele><time>2026-04-18T13:54:01Z</time></trkpt><trkpt lat="43.308892366537904" lon="10.715078147516742"><ele>76.2</ele><time>2026-04-18T13:54:02Z</time></trkpt><trkpt lat="43.30899709144204" lon="10.71495250182297"><ele>77.0</ele><time>2026-04-18T13:54:04Z</time></trkpt><trkpt lat="43.30907249141372" lon="10.714828398439474"><ele>75.2</ele><time>2026-04-18T13:54:05Z</time></trkpt><trkpt lat="43.3091386308175" lon="10.714712383931376"><ele>73.4</ele><time>2026-04-18T13:54:06.001Z</time></trkpt><trkpt lat="43.30918648515911" lon="10.714603811577064"><ele>71.6</ele><time>2026-04-18T13:54:07.001Z</time></trkpt><trkpt lat="43.309216787178926" lon="10.714521083222802"><ele>69.8</ele><time>2026-04-18T13:54:08.001Z</time></trkpt><trkpt lat="43.30925051593623" lon="10.714362701816789"><ele>68.0</ele><time>2026-04-18T13:54:10.001Z</time></trkpt><trkpt lat="43.309303881886606" lon="10.71427602481529"><ele>68.0</ele><time>2026-04-18T13:54:12.001Z</time></trkpt><trkpt lat="43.30933943169426" lon="10.714169709885311"><ele>68.0</ele><time>2026-04-18T13:54:26.001Z</time></trkpt><trkpt lat="43.30942188664039" lon="10.714061155903464"><ele>68.0</ele><time>2026-04-18T13:54:28.001Z</time></trkpt><trkpt lat="43.309546980756146" lon="10.713984377084948"><ele>68.0</ele><time>2026-04-18T13:54:30.001Z</time></trkpt><trkpt lat="43.3096229860662" lon="10.713964424513419"><ele>68.0</ele><time>2026-04-18T13:54:31.001Z</time></trkpt><trkpt lat="43.309715503841865" lon="10.713952538097237"><ele>68.0</ele><time>2026-04-18T13:54:32.001Z</time></trkpt><trkpt lat="43.30981569175508" lon="10.713939016698564"><ele>68.0</ele><time>2026-04-18T13:54:33.001Z</time></trkpt><trkpt lat="43.309882424224156" lon="10.713888790931776"><ele>68.0</ele><time>2026-04-18T13:54:34.001Z</time></trkpt><trkpt lat="43.30994577384054" lon="10.713828492974079"><ele>68.0</ele><time>2026-04-18T13:54:35.001Z</time></trkpt><trkpt lat="43.31000809295961" lon="10.713732553894836"><ele>68.0</ele><time>2026-04-18T13:54:36.001Z</time></trkpt><trkpt lat="43.310085791643374" lon="10.713605451894944"><ele>67.4</ele><time>2026-04-18T13:54:37.001Z</time></trkpt><trkpt lat="43.3101989727687" lon="10.713479934258343"><ele>66.8</ele><time>2026-04-18T13:54:38.001Z</time></trkpt><trkpt lat="43.31028971617561" lon="10.713388400025746"><ele>66.2</ele><time>2026-04-18T13:54:39.001Z</time></trkpt><trkpt lat="43.31035699216983" lon="10.713324249098255"><ele>65.6</ele><time>2026-04-18T13:54:40.001Z</time></trkpt><trkpt lat="43.31041012445167" lon="10.7132664749216"><ele>65.0</ele><time>2026-04-18T13:54:42.001Z</time></trkpt><trkpt lat="43.31049017477503" lon="10.713172277754964"><ele>65.0</ele><time>2026-04-18T13:54:45.001Z</time></trkpt><trkpt lat="43.310548352922446" lon="10.713073106617891"><ele>65.0</ele><time>2026-04-18T13:54:46.001Z</time></trkpt><trkpt lat="43.31063206034445" lon="10.712977461800048"><ele>65.0</ele><time>2026-04-18T13:54:47.001Z</time></trkpt><trkpt lat="43.310725412420275" lon="10.71286541475807"><ele>65.0</ele><time>2026-04-18T13:54:47.999Z</time></trkpt><trkpt lat="43.31082791646182" lon="10.712737959336547"><ele>64.83333333333334</ele><time>2026-04-18T13:54:48.999Z</time></trkpt><trkpt lat="43.310918411197385" lon="10.712622630151753"><ele>64.66666666666667</ele><time>2026-04-18T13:54:49.999Z</time></trkpt><trkpt lat="43.31097678670187" lon="10.712551793873947"><ele>64.5</ele><time>2026-04-18T13:54:50.999Z</time></trkpt><trkpt lat="43.31103156826368" lon="10.712487859703085"><ele>64.33333333333333</ele><time>2026-04-18T13:54:52.999Z</time></trkpt><trkpt lat="43.31109193272936" lon="10.712437028743384"><ele>64.16666666666666</ele><time>2026-04-18T13:55:00.999Z</time></trkpt><trkpt lat="43.31104223707467" lon="10.712501958565168"><ele>64.0</ele><time>2026-04-18T13:55:28Z</time></trkpt><trkpt lat="43.3109439513194" lon="10.712603959331933"><ele>64.0</ele><time>2026-04-18T13:55:29Z</time></trkpt><trkpt lat="43.31085289381485" lon="10.712708489155684"><ele>64.0</ele><time>2026-04-18T13:55:30Z</time></trkpt><trkpt lat="43.31076823959594" lon="10.712810571286788"><ele>64.0</ele><time>2026-04-18T13:55:31Z</time></trkpt><trkpt lat="43.310691327115414" lon="10.712902239912692"><ele>64.0</ele><time>2026-04-18T13:55:32Z</time></trkpt><trkpt lat="43.310631924945575" lon="10.712969203622587"><ele>64.0</ele><time>2026-04-18T13:55:33Z</time></trkpt><trkpt lat="43.310549370641546" lon="10.71305848106765"><ele>64.0</ele><time>2026-04-18T13:55:35Z</time></trkpt><trkpt lat="43.31047100084354" lon="10.712917321322653"><ele>64.0</ele><time>2026-04-18T13:55:40Z</time></trkpt><trkpt lat="43.3104822736781" lon="10.712802544551026"><ele>64.0</ele><time>2026-04-18T13:55:41Z</time></trkpt><trkpt lat="43.310500454241414" lon="10.712659247775754"><ele>64.0</ele><time>2026-04-18T13:55:42Z</time></trkpt><trkpt lat="43.31054342830504" lon="10.712513477001558"><ele>64.0</ele><time>2026-04-18T13:55:43Z</time></trkpt><trkpt lat="43.31059964772899" lon="10.712352230282166"><ele>64.0</ele><time>2026-04-18T13:55:44Z</time></trkpt><trkpt lat="43.31066092814224" lon="10.712172534466948"><ele>64.0</ele><time>2026-04-18T13:55:45Z</time></trkpt><trkpt lat="43.31073000675028" lon="10.711981121598543"><ele>64.0</ele><time>2026-04-18T13:55:46Z</time></trkpt><trkpt lat="43.310800941221984" lon="10.71178163699537"><ele>63.666666666666664</ele><time>2026-04-18T13:55:47Z</time></trkpt><trkpt lat="43.3108708299754" lon="10.711586376376623"><ele>63.33333333333333</ele><time>2026-04-18T13:55:48Z</time></trkpt><trkpt lat="43.31094110950657" lon="10.711402330132934"><ele>63.0</ele><time>2026-04-18T13:55:49Z</time></trkpt><trkpt lat="43.31101925786303" lon="10.71120469820363"><ele>62.66666666666667</ele><time>2026-04-18T13:55:50Z</time></trkpt><trkpt lat="43.311096261492416" lon="10.7110113493325"><ele>62.333333333333336</ele><time>2026-04-18T13:55:51Z</time></trkpt><trkpt lat="43.3111714107156" lon="10.71080710289078"><ele>62.0</ele><time>2026-04-18T13:55:52Z</time></trkpt><trkpt lat="43.311252954618745" lon="10.710579844195044"><ele>62.0</ele><time>2026-04-18T13:55:53Z</time></trkpt><trkpt lat="43.311331818719374" lon="10.710355436935597"><ele>62.0</ele><time>2026-04-18T13:55:54Z</time></trkpt><trkpt lat="43.311409765730154" lon="10.710143343854144"><ele>62.0</ele><time>2026-04-18T13:55:55Z</time></trkpt><trkpt lat="43.31148887628163" lon="10.709925169769944"><ele>61.66666666666667</ele><time>2026-04-18T13:55:56Z</time></trkpt><trkpt lat="43.311569236119794" lon="10.709697877217977"><ele>61.33333333333333</ele><time>2026-04-18T13:55:57Z</time></trkpt><trkpt lat="43.31164993059732" lon="10.709462140787732"><ele>61.0</ele><time>2026-04-18T13:55:58Z</time></trkpt><trkpt lat="43.311732172577294" lon="10.709241122104302"><ele>61.0</ele><time>2026-04-18T13:55:59Z</time></trkpt><trkpt lat="43.311808174863934" lon="10.709040907097782"><ele>61.0</ele><time>2026-04-18T13:56:00Z</time></trkpt><trkpt lat="43.31188644149268" lon="10.708833987009102"><ele>61.0</ele><time>2026-04-18T13:56:01Z</time></trkpt><trkpt lat="43.31196957658009" lon="10.708608661571652"><ele>60.666666666666664</ele><time>2026-04-18T13:56:02Z</time></trkpt><trkpt lat="43.312055437872516" lon="10.708373604448854"><ele>60.33333333333333</ele><time>2026-04-18T13:56:03Z</time></trkpt><trkpt lat="43.31213602550995" lon="10.708150414728266"><ele>60.0</ele><time>2026-04-18T13:56:04Z</time></trkpt><trkpt lat="43.31221242413278" lon="10.707936787598106"><ele>60.66666666666667</ele><time>2026-04-18T13:56:05Z</time></trkpt><trkpt lat="43.3122850864279" lon="10.707722381489594"><ele>61.333333333333336</ele><time>2026-04-18T13:56:06Z</time></trkpt><trkpt lat="43.31236107967765" lon="10.707515277416675"><ele>62.0</ele><time>2026-04-18T13:56:07Z</time></trkpt><trkpt lat="43.31244302690301" lon="10.70730751140742"><ele>62.0</ele><time>2026-04-18T13:56:08Z</time></trkpt><trkpt lat="43.312522078913624" lon="10.707094443309508"><ele>62.0</ele><time>2026-04-18T13:56:09Z</time></trkpt><trkpt lat="43.312602760924875" lon="10.70687564553947"><ele>62.0</ele><time>2026-04-18T13:56:10Z</time></trkpt><trkpt lat="43.31268554879653" lon="10.706647278912351"><ele>62.66666666666667</ele><time>2026-04-18T13:56:11Z</time></trkpt><trkpt lat="43.312767574551934" lon="10.70640500903156"><ele>63.33333333333333</ele><time>2026-04-18T13:56:12Z</time></trkpt><trkpt lat="43.31284133569087" lon="10.706157864789168"><ele>64.0</ele><time>2026-04-18T13:56:13Z</time></trkpt><trkpt lat="43.31290976943551" lon="10.70590509885232"><ele>66.0</ele><time>2026-04-18T13:56:14Z</time></trkpt><trkpt lat="43.31297377070176" lon="10.705656585063304"><ele>68.0</ele><time>2026-04-18T13:56:15Z</time></trkpt><trkpt lat="43.313026329717175" lon="10.705426099357382"><ele>70.0</ele><time>2026-04-18T13:56:16Z</time></trkpt><trkpt lat="43.313069100354625" lon="10.70521492581596"><ele>70.33333333333333</ele><time>2026-04-18T13:56:17Z</time></trkpt><trkpt lat="43.313104881385094" lon="10.705007586477187"><ele>70.66666666666667</ele><time>2026-04-18T13:56:18Z</time></trkpt><trkpt lat="43.31313805919774" lon="10.704783511476453"><ele>71.0</ele><time>2026-04-18T13:56:19Z</time></trkpt><trkpt lat="43.31321013319856" lon="10.704565327156914"><ele>72.66666666666667</ele><time>2026-04-18T13:56:20Z</time></trkpt><trkpt lat="43.313293076459445" lon="10.70433091584075"><ele>74.33333333333333</ele><time>2026-04-18T13:56:21Z</time></trkpt><trkpt lat="43.31337082006126" lon="10.70409891037868"><ele>76.0</ele><time>2026-04-18T13:56:22Z</time></trkpt><trkpt lat="43.313458320463" lon="10.703907181647986"><ele>76.0</ele><time>2026-04-18T13:56:23Z</time></trkpt><trkpt lat="43.31354992568023" lon="10.70372220781956"><ele>76.0</ele><time>2026-04-18T13:56:24Z</time></trkpt><trkpt lat="43.31363914005164" lon="10.703526281650458"><ele>76.0</ele><time>2026-04-18T13:56:25Z</time></trkpt><trkpt lat="43.313723893100686" lon="10.703308009941694"><ele>77.0</ele><time>2026-04-18T13:56:26Z</time></trkpt><trkpt lat="43.31379431704106" lon="10.7030849939154"><ele>78.0</ele><time>2026-04-18T13:56:27Z</time></trkpt><trkpt lat="43.31385720839406" lon="10.70287608497499"><ele>79.0</ele><time>2026-04-18T13:56:28Z</time></trkpt><trkpt lat="43.31392764364466" lon="10.702666211705047"><ele>79.0</ele><time>2026-04-18T13:56:29Z</time></trkpt><trkpt lat="43.31400260112958" lon="10.70245781333306"><ele>79.0</ele><time>2026-04-18T13:56:30Z</time></trkpt><trkpt lat="43.31406834583544" lon="10.702266044069017"><ele>79.0</ele><time>2026-04-18T13:56:31Z</time></trkpt><trkpt lat="43.314125301185086" lon="10.702084746218885"><ele>80.25</ele><time>2026-04-18T13:56:32Z</time></trkpt><trkpt lat="43.314164778099226" lon="10.70190967596387"><ele>81.5</ele><time>2026-04-18T13:56:33Z</time></trkpt><trkpt lat="43.31417085305437" lon="10.701759699669104"><ele>82.75</ele><time>2026-04-18T13:56:34Z</time></trkpt><trkpt lat="43.31413475384631" lon="10.70161959128423"><ele>84.0</ele><time>2026-04-18T13:56:35.001Z</time></trkpt><trkpt lat="43.31404699300018" lon="10.701497692381668"><ele>84.0</ele><time>2026-04-18T13:56:36.001Z</time></trkpt><trkpt lat="43.313926967402196" lon="10.701392062007514"><ele>84.0</ele><time>2026-04-18T13:56:37.001Z</time></trkpt><trkpt lat="43.31380669631063" lon="10.701295947081936"><ele>84.0</ele><time>2026-04-18T13:56:38.001Z</time></trkpt><trkpt lat="43.31373888343745" lon="10.701155323346189"><ele>84.0</ele><time>2026-04-18T13:56:39.001Z</time></trkpt><trkpt lat="43.31372760181077" lon="10.700950026999072"><ele>87.66666666666667</ele><time>2026-04-18T13:56:40.001Z</time></trkpt><trkpt lat="43.31371603250604" lon="10.700739431487941"><ele>91.33333333333334</ele><time>2026-04-18T13:56:41.001Z</time></trkpt><trkpt lat="43.313721709590766" lon="10.700517940047815"><ele>95.0</ele><time>2026-04-18T13:56:42.001Z</time></trkpt><trkpt lat="43.31371863169511" lon="10.700285552265134"><ele>95.66666666666667</ele><time>2026-04-18T13:56:43.001Z</time></trkpt><trkpt lat="43.31374524339228" lon="10.700064548386525"><ele>96.33333333333334</ele><time>2026-04-18T13:56:44.001Z</time></trkpt><trkpt lat="43.31381182975041" lon="10.699847477485264"><ele>97.0</ele><time>2026-04-18T13:56:45.001Z</time></trkpt><trkpt lat="43.31385726904132" lon="10.699625586887326"><ele>97.0</ele><time>2026-04-18T13:56:46.001Z</time></trkpt><trkpt lat="43.31390310498456" lon="10.699446024233843"><ele>97.0</ele><time>2026-04-18T13:56:47.001Z</time></trkpt><trkpt lat="43.313960506576976" lon="10.699243883173963"><ele>97.0</ele><time>2026-04-18T13:56:48.001Z</time></trkpt><trkpt lat="43.31401305868506" lon="10.699047802880377"><ele>97.0</ele><time>2026-04-18T13:56:49.001Z</time></trkpt><trkpt lat="43.31405673276637" lon="10.698841657454713"><ele>95.33333333333334</ele><time>2026-04-18T13:56:50.001Z</time></trkpt><trkpt lat="43.314062529975295" lon="10.69860522541874"><ele>93.66666666666667</ele><time>2026-04-18T13:56:51.001Z</time></trkpt><trkpt lat="43.31406101372038" lon="10.698358861176565"><ele>92.0</ele><time>2026-04-18T13:56:52.001Z</time></trkpt><trkpt lat="43.31405790518093" lon="10.698119904248442"><ele>90.5</ele><time>2026-04-18T13:56:53.001Z</time></trkpt><trkpt lat="43.31405903334672" lon="10.69790366304795"><ele>89.0</ele><time>2026-04-18T13:56:53.999Z</time></trkpt><trkpt lat="43.314060231242316" lon="10.697711956117507"><ele>87.5</ele><time>2026-04-18T13:56:54.999Z</time></trkpt><trkpt lat="43.31406159115929" lon="10.697523012466865"><ele>86.0</ele><time>2026-04-18T13:56:55.999Z</time></trkpt><trkpt lat="43.31406336744191" lon="10.697353917572151"><ele>86.4</ele><time>2026-04-18T13:56:56.999Z</time></trkpt><trkpt lat="43.314051765669376" lon="10.697218851690229"><ele>86.8</ele><time>2026-04-18T13:56:57.999Z</time></trkpt><trkpt lat="43.3140150035056" lon="10.6971108357914"><ele>87.2</ele><time>2026-04-18T13:56:58.999Z</time></trkpt><trkpt lat="43.31394509295867" lon="10.697034150724347"><ele>87.60000000000001</ele><time>2026-04-18T13:56:59.999Z</time></trkpt><trkpt lat="43.31384005174676" lon="10.696980518416142"><ele>88.0</ele><time>2026-04-18T13:57:00.999Z</time></trkpt><trkpt lat="43.313706720137404" lon="10.696991970642259"><ele>88.0</ele><time>2026-04-18T13:57:01.999Z</time></trkpt><trkpt lat="43.31356247887631" lon="10.697071363344731"><ele>88.0</ele><time>2026-04-18T13:57:02.999Z</time></trkpt><trkpt lat="43.31342816196961" lon="10.697158617985789"><ele>88.0</ele><time>2026-04-18T13:57:03.999Z</time></trkpt><trkpt lat="43.31332138265941" lon="10.69721129394002"><ele>88.0</ele><time>2026-04-18T13:57:04.999Z</time></trkpt><trkpt lat="43.31323791252531" lon="10.69726042595301"><ele>88.0</ele><time>2026-04-18T13:57:05.999Z</time></trkpt><trkpt lat="43.31313976834753" lon="10.69721858228692"><ele>88.0</ele><time>2026-04-18T13:57:06.999Z</time></trkpt><trkpt lat="43.31308286925209" lon="10.697114176908203"><ele>88.0</ele><time>2026-04-18T13:57:07.999Z</time></trkpt><trkpt lat="43.31306726488628" lon="10.696981356287086"><ele>88.0</ele><time>2026-04-18T13:57:08.999Z</time></trkpt><trkpt lat="43.31309463025136" lon="10.69681685490275"><ele>88.0</ele><time>2026-04-18T13:57:09.999Z</time></trkpt><trkpt lat="43.31317713556565" lon="10.696657175621676"><ele>88.0</ele><time>2026-04-18T13:57:10.999Z</time></trkpt><trkpt lat="43.31327018134445" lon="10.696489613695144"><ele>88.0</ele><time>2026-04-18T13:57:11.999Z</time></trkpt><trkpt lat="43.31335929723653" lon="10.696319376045267"><ele>88.0</ele><time>2026-04-18T13:57:12.999Z</time></trkpt><trkpt lat="43.313454733254765" lon="10.69617331930484"><ele>88.0</ele><time>2026-04-18T13:57:13.999Z</time></trkpt><trkpt lat="43.31354643572445" lon="10.695992305876784"><ele>88.0</ele><time>2026-04-18T13:57:14.999Z</time></trkpt><trkpt lat="43.313622741670414" lon="10.695845363412039"><ele>88.0</ele><time>2026-04-18T13:57:15.999Z</time></trkpt><trkpt lat="43.313701311763644" lon="10.695707630526156"><ele>88.0</ele><time>2026-04-18T13:57:16.999Z</time></trkpt><trkpt lat="43.31378354643993" lon="10.695569306532066"><ele>88.0</ele><time>2026-04-18T13:57:17.999Z</time></trkpt><trkpt lat="43.3138522250042" lon="10.695457116335715"><ele>85.25</ele><time>2026-04-18T13:57:18.999Z</time></trkpt><trkpt lat="43.31391011430693" lon="10.695342619981687"><ele>82.5</ele><time>2026-04-18T13:57:19.999Z</time></trkpt><trkpt lat="43.31395645363287" lon="10.695207119877237"><ele>79.75</ele><time>2026-04-18T13:57:20.999Z</time></trkpt><trkpt lat="43.313965445621335" lon="10.695045489612797"><ele>77.0</ele><time>2026-04-18T13:57:21.999Z</time></trkpt><trkpt lat="43.3139415195669" lon="10.694876707314668"><ele>78.5</ele><time>2026-04-18T13:57:22.999Z</time></trkpt><trkpt lat="43.313862347820724" lon="10.694727730307584"><ele>80.0</ele><time>2026-04-18T13:57:23.999Z</time></trkpt><trkpt lat="43.31374595195724" lon="10.694613415632805"><ele>81.5</ele><time>2026-04-18T13:57:25Z</time></trkpt><trkpt lat="43.31362223837932" lon="10.694526627014199"><ele>83.0</ele><time>2026-04-18T13:57:26Z</time></trkpt><trkpt lat="43.313538780652685" lon="10.694395706842366"><ele>83.0</ele><time>2026-04-18T13:57:27Z</time></trkpt><trkpt lat="43.313484288981584" lon="10.694237458646379"><ele>83.0</ele><time>2026-04-18T13:57:28Z</time></trkpt><trkpt lat="43.31346926430665" lon="10.694082507034956"><ele>83.0</ele><time>2026-04-18T13:57:29Z</time></trkpt><trkpt lat="43.3135264432945" lon="10.69393917048254"><ele>83.0</ele><time>2026-04-18T13:57:30Z</time></trkpt><trkpt lat="43.313593415150564" lon="10.693784554265472"><ele>83.0</ele><time>2026-04-18T13:57:31Z</time></trkpt><trkpt lat="43.313654544104125" lon="10.693593088120931"><ele>83.0</ele><time>2026-04-18T13:57:32Z</time></trkpt><trkpt lat="43.31374901181355" lon="10.693382371415217"><ele>83.0</ele><time>2026-04-18T13:57:33Z</time></trkpt><trkpt lat="43.31383842928626" lon="10.693164417475861"><ele>79.0</ele><time>2026-04-18T13:57:34Z</time></trkpt><trkpt lat="43.31391463583985" lon="10.692990149324745"><ele>75.0</ele><time>2026-04-18T13:57:35Z</time></trkpt><trkpt lat="43.31399638063637" lon="10.692811106551439"><ele>71.0</ele><time>2026-04-18T13:57:36Z</time></trkpt><trkpt lat="43.31406349652872" lon="10.692584621713177"><ele>70.66666666666667</ele><time>2026-04-18T13:57:37Z</time></trkpt><trkpt lat="43.31411053254682" lon="10.692351816026683"><ele>70.33333333333333</ele><time>2026-04-18T13:57:38Z</time></trkpt><trkpt lat="43.31413857224843" lon="10.692134299106392"><ele>70.0</ele><time>2026-04-18T13:57:39Z</time></trkpt><trkpt lat="43.314174009552076" lon="10.691934082712637"><ele>70.0</ele><time>2026-04-18T13:57:40Z</time></trkpt><trkpt lat="43.31422341790799" lon="10.69174122021565"><ele>70.0</ele><time>2026-04-18T13:57:41Z</time></trkpt><trkpt lat="43.31429969299036" lon="10.69153420839246"><ele>70.0</ele><time>2026-04-18T13:57:42Z</time></trkpt><trkpt lat="43.31437803938993" lon="10.691322527169953"><ele>70.0</ele><time>2026-04-18T13:57:43Z</time></trkpt><trkpt lat="43.314440026200934" lon="10.691097681275375"><ele>70.0</ele><time>2026-04-18T13:57:44Z</time></trkpt><trkpt lat="43.314489269468226" lon="10.690875919715193"><ele>70.0</ele><time>2026-04-18T13:57:45Z</time></trkpt><trkpt lat="43.31452290800166" lon="10.69066145894521"><ele>70.33333333333333</ele><time>2026-04-18T13:57:46Z</time></trkpt><trkpt lat="43.314552011890335" lon="10.690429406230074"><ele>70.66666666666667</ele><time>2026-04-18T13:57:47Z</time></trkpt><trkpt lat="43.314556212359605" lon="10.690182541310987"><ele>71.0</ele><time>2026-04-18T13:57:48Z</time></trkpt><trkpt lat="43.31455627013601" lon="10.689965057619773"><ele>71.0</ele><time>2026-04-18T13:57:49Z</time></trkpt><trkpt lat="43.31455874172751" lon="10.689766294559272"><ele>71.0</ele><time>2026-04-18T13:57:50Z</time></trkpt><trkpt lat="43.31454712607679" lon="10.689569227280662"><ele>71.0</ele><time>2026-04-18T13:57:51Z</time></trkpt><trkpt lat="43.314523480168134" lon="10.689378150568372"><ele>71.0</ele><time>2026-04-18T13:57:52Z</time></trkpt><trkpt lat="43.314483613551275" lon="10.689186108797653"><ele>69.0</ele><time>2026-04-18T13:57:53Z</time></trkpt><trkpt lat="43.31442625138469" lon="10.688988217793321"><ele>67.0</ele><time>2026-04-18T13:57:54Z</time></trkpt><trkpt lat="43.3143543741676" lon="10.688802136434708"><ele>65.0</ele><time>2026-04-18T13:57:55Z</time></trkpt><trkpt lat="43.314254023292804" lon="10.688634771051683"><ele>64.25</ele><time>2026-04-18T13:57:56Z</time></trkpt><trkpt lat="43.314155688802074" lon="10.688490103879067"><ele>63.5</ele><time>2026-04-18T13:57:57Z</time></trkpt><trkpt lat="43.31409459412921" lon="10.688322275631974"><ele>62.75</ele><time>2026-04-18T13:57:58Z</time></trkpt><trkpt lat="43.31404534763085" lon="10.688128119967613"><ele>62.0</ele><time>2026-04-18T13:57:59Z</time></trkpt><trkpt lat="43.31401504538973" lon="10.687908364038341"><ele>61.75</ele><time>2026-04-18T13:58:00Z</time></trkpt><trkpt lat="43.313987029233665" lon="10.6877002446686"><ele>61.5</ele><time>2026-04-18T13:58:01Z</time></trkpt><trkpt lat="43.31401489819429" lon="10.687510623377326"><ele>61.25</ele><time>2026-04-18T13:58:02Z</time></trkpt><trkpt lat="43.31405760496536" lon="10.68732481100811"><ele>61.0</ele><time>2026-04-18T13:58:03Z</time></trkpt><trkpt lat="43.314132506840814" lon="10.687144988375309"><ele>61.0</ele><time>2026-04-18T13:58:04Z</time></trkpt><trkpt lat="43.314201287420666" lon="10.686931076441336"><ele>61.0</ele><time>2026-04-18T13:58:05Z</time></trkpt><trkpt lat="43.31427463563579" lon="10.68669775043598"><ele>61.0</ele><time>2026-04-18T13:58:06Z</time></trkpt><trkpt lat="43.314328721173936" lon="10.6864348180415"><ele>59.0</ele><time>2026-04-18T13:58:07Z</time></trkpt><trkpt lat="43.31437421908029" lon="10.686185324008852"><ele>57.0</ele><time>2026-04-18T13:58:08Z</time></trkpt><trkpt lat="43.31441412866173" lon="10.685960987262265"><ele>55.0</ele><time>2026-04-18T13:58:09Z</time></trkpt><trkpt lat="43.31444836270764" lon="10.68576235547982"><ele>54.0</ele><time>2026-04-18T13:58:10Z</time></trkpt><trkpt lat="43.314465244475485" lon="10.6855716600918"><ele>53.0</ele><time>2026-04-18T13:58:11Z</time></trkpt><trkpt lat="43.31447837890192" lon="10.685353336979588"><ele>52.0</ele><time>2026-04-18T13:58:12Z</time></trkpt><trkpt lat="43.31442342564386" lon="10.685111890282478"><ele>50.666666666666664</ele><time>2026-04-18T13:58:13Z</time></trkpt><trkpt lat="43.31434882821316" lon="10.684863701181575"><ele>49.33333333333333</ele><time>2026-04-18T13:58:14Z</time></trkpt><trkpt lat="43.31426430178598" lon="10.684627306179388"><ele>48.0</ele><time>2026-04-18T13:58:15Z</time></trkpt><trkpt lat="43.31419503903025" lon="10.684418686390796"><ele>47.666666666666664</ele><time>2026-04-18T13:58:16Z</time></trkpt><trkpt lat="43.314132679238725" lon="10.684227878406734"><ele>47.33333333333333</ele><time>2026-04-18T13:58:17Z</time></trkpt><trkpt lat="43.31407231920753" lon="10.684023903915147"><ele>47.0</ele><time>2026-04-18T13:58:18Z</time></trkpt><trkpt lat="43.31401434923541" lon="10.683812397469291"><ele>46.0</ele><time>2026-04-18T13:58:19Z</time></trkpt><trkpt lat="43.313990479171046" lon="10.683582521198774"><ele>45.0</ele><time>2026-04-18T13:58:20Z</time></trkpt><trkpt lat="43.31398695171274" lon="10.683348807031873"><ele>44.0</ele><time>2026-04-18T13:58:21Z</time></trkpt><trkpt lat="43.314014973578935" lon="10.68310559859082"><ele>44.0</ele><time>2026-04-18T13:58:22Z</time></trkpt><trkpt lat="43.31404150894233" lon="10.682839326640963"><ele>44.0</ele><time>2026-04-18T13:58:23Z</time></trkpt><trkpt lat="43.31408648641333" lon="10.68257318773386"><ele>44.0</ele><time>2026-04-18T13:58:24Z</time></trkpt><trkpt lat="43.314120001267064" lon="10.682296315423347"><ele>43.666666666666664</ele><time>2026-04-18T13:58:25Z</time></trkpt><trkpt lat="43.31415769807119" lon="10.682013806212657"><ele>43.333333333333336</ele><time>2026-04-18T13:58:26Z</time></trkpt><trkpt lat="43.31419907531916" lon="10.681723049483702"><ele>43.0</ele><time>2026-04-18T13:58:27Z</time></trkpt><trkpt lat="43.31423644129477" lon="10.681431671160988"><ele>42.66666666666667</ele><time>2026-04-18T13:58:28Z</time></trkpt><trkpt lat="43.31427921499666" lon="10.681152225189944"><ele>42.333333333333336</ele><time>2026-04-18T13:58:29Z</time></trkpt><trkpt lat="43.3143165368089" lon="10.680890558272768"><ele>42.0</ele><time>2026-04-18T13:58:30Z</time></trkpt><trkpt lat="43.31435359623509" lon="10.680652116071002"><ele>42.0</ele><time>2026-04-18T13:58:31Z</time></trkpt><trkpt lat="43.31438785238506" lon="10.680421219897607"><ele>42.0</ele><time>2026-04-18T13:58:32Z</time></trkpt><trkpt lat="43.31442085604346" lon="10.680181625575097"><ele>42.0</ele><time>2026-04-18T13:58:33Z</time></trkpt><trkpt lat="43.31444880333277" lon="10.679961647441623"><ele>41.666666666666664</ele><time>2026-04-18T13:58:34Z</time></trkpt><trkpt lat="43.314456963923824" lon="10.679734249552878"><ele>41.33333333333333</ele><time>2026-04-18T13:58:35Z</time></trkpt><trkpt lat="43.31442950360734" lon="10.679491630148839"><ele>41.0</ele><time>2026-04-18T13:58:36Z</time></trkpt><trkpt lat="43.31437039874188" lon="10.679241179889916"><ele>40.33333333333333</ele><time>2026-04-18T13:58:37Z</time></trkpt><trkpt lat="43.31429257709759" lon="10.678987450391638"><ele>39.666666666666664</ele><time>2026-04-18T13:58:38Z</time></trkpt><trkpt lat="43.31421537295135" lon="10.678725592408423"><ele>39.0</ele><time>2026-04-18T13:58:39.001Z</time></trkpt><trkpt lat="43.31413965092836" lon="10.67845882254263"><ele>39.0</ele><time>2026-04-18T13:58:40.001Z</time></trkpt><trkpt lat="43.31406818942081" lon="10.678208572709405"><ele>39.0</ele><time>2026-04-18T13:58:41.001Z</time></trkpt><trkpt lat="43.314005774769676" lon="10.677981026401683"><ele>39.0</ele><time>2026-04-18T13:58:42.001Z</time></trkpt><trkpt lat="43.31394403101664" lon="10.677756400936286"><ele>39.333333333333336</ele><time>2026-04-18T13:58:43.001Z</time></trkpt><trkpt lat="43.31388092693516" lon="10.677524623492612"><ele>39.66666666666667</ele><time>2026-04-18T13:58:44.001Z</time></trkpt><trkpt lat="43.31381775912918" lon="10.677291482157738"><ele>40.0</ele><time>2026-04-18T13:58:45.001Z</time></trkpt><trkpt lat="43.31376247450889" lon="10.677068192405505"><ele>40.25</ele><time>2026-04-18T13:58:46.001Z</time></trkpt><trkpt lat="43.31370845498978" lon="10.676876375161612"><ele>40.5</ele><time>2026-04-18T13:58:47.001Z</time></trkpt><trkpt lat="43.31364921751587" lon="10.676709225156431"><ele>40.75</ele><time>2026-04-18T13:58:48.001Z</time></trkpt><trkpt lat="43.313577099139906" lon="10.676561128751276"><ele>41.0</ele><time>2026-04-18T13:58:49.001Z</time></trkpt><trkpt lat="43.313475872292685" lon="10.676447256626934"><ele>41.0</ele><time>2026-04-18T13:58:50.001Z</time></trkpt><trkpt lat="43.31334712135752" lon="10.676331651373195"><ele>41.0</ele><time>2026-04-18T13:58:51.001Z</time></trkpt><trkpt lat="43.31321856019101" lon="10.676233972198721"><ele>41.0</ele><time>2026-04-18T13:58:52.001Z</time></trkpt><trkpt lat="43.313095641603525" lon="10.676146180228539"><ele>41.0</ele><time>2026-04-18T13:58:53.001Z</time></trkpt><trkpt lat="43.31301033928375" lon="10.676076702817166"><ele>40.666666666666664</ele><time>2026-04-18T13:58:54.001Z</time></trkpt><trkpt lat="43.31294588634071" lon="10.676016384872389"><ele>40.33333333333333</ele><time>2026-04-18T13:58:55.001Z</time></trkpt><trkpt lat="43.31289997261975" lon="10.675949186413762"><ele>40.0</ele><time>2026-04-18T13:58:56.001Z</time></trkpt><trkpt lat="43.312849831143886" lon="10.675890091329443"><ele>39.666666666666664</ele><time>2026-04-18T13:58:58.001Z</time></trkpt><trkpt lat="43.31292288695743" lon="10.675713077550427"><ele>39.333333333333336</ele><time>2026-04-18T13:58:59.001Z</time></trkpt><trkpt lat="43.312978097068395" lon="10.675642935977836"><ele>39.0</ele><time>2026-04-18T13:58:59.999Z</time></trkpt><trkpt lat="43.31306204310372" lon="10.675555035560217"><ele>39.25</ele><time>2026-04-18T13:59:00.999Z</time></trkpt><trkpt lat="43.31316069327191" lon="10.675450721565547"><ele>39.5</ele><time>2026-04-18T13:59:01.999Z</time></trkpt><trkpt lat="43.31327128657983" lon="10.675317326112076"><ele>39.75</ele><time>2026-04-18T13:59:02.999Z</time></trkpt><trkpt lat="43.31338979928651" lon="10.675171407571499"><ele>40.0</ele><time>2026-04-18T13:59:03.999Z</time></trkpt><trkpt lat="43.313512450877134" lon="10.675021366942008"><ele>40.333333333333336</ele><time>2026-04-18T13:59:04.999Z</time></trkpt><trkpt lat="43.3136307582282" lon="10.67487547952725"><ele>40.666666666666664</ele><time>2026-04-18T13:59:05.999Z</time></trkpt><trkpt lat="43.31376916015987" lon="10.674710285359113"><ele>41.0</ele><time>2026-04-18T13:59:06.999Z</time></trkpt><trkpt lat="43.3139100312124" lon="10.674543705799666"><ele>40.0</ele><time>2026-04-18T13:59:07.999Z</time></trkpt><trkpt lat="43.31406236409867" lon="10.674358927195653"><ele>39.0</ele><time>2026-04-18T13:59:08.999Z</time></trkpt><trkpt lat="43.31422796581269" lon="10.674169338665035"><ele>38.0</ele><time>2026-04-18T13:59:09.999Z</time></trkpt><trkpt lat="43.31440200928623" lon="10.67398059176402"><ele>38.0</ele><time>2026-04-18T13:59:10.999Z</time></trkpt><trkpt lat="43.314585188256466" lon="10.67380046720155"><ele>38.0</ele><time>2026-04-18T13:59:11.999Z</time></trkpt><trkpt lat="43.31477101506687" lon="10.673614014262553"><ele>39.5</ele><time>2026-04-18T13:59:12.999Z</time></trkpt><trkpt lat="43.31495622686045" lon="10.673437030772904"><ele>41.0</ele><time>2026-04-18T13:59:13.999Z</time></trkpt><trkpt lat="43.31515039185318" lon="10.673260704276956"><ele>41.0</ele><time>2026-04-18T13:59:14.999Z</time></trkpt><trkpt lat="43.31534740696382" lon="10.673086994931813"><ele>41.0</ele><time>2026-04-18T13:59:15.999Z</time></trkpt><trkpt lat="43.31554633830884" lon="10.672914719624927"><ele>40.0</ele><time>2026-04-18T13:59:16.999Z</time></trkpt><trkpt lat="43.31574662761676" lon="10.67274353356398"><ele>39.0</ele><time>2026-04-18T13:59:17.999Z</time></trkpt><trkpt lat="43.315938987365804" lon="10.672575499461752"><ele>39.0</ele><time>2026-04-18T13:59:18.999Z</time></trkpt><trkpt lat="43.3161281220648" lon="10.672408336244025"><ele>39.0</ele><time>2026-04-18T13:59:20Z</time></trkpt><trkpt lat="43.31631398641667" lon="10.67224333652232"><ele>39.0</ele><time>2026-04-18T13:59:21Z</time></trkpt><trkpt lat="43.31649976487198" lon="10.672079057390157"><ele>39.0</ele><time>2026-04-18T13:59:22Z</time></trkpt><trkpt lat="43.31668464923766" lon="10.671917121521924"><ele>39.0</ele><time>2026-04-18T13:59:23Z</time></trkpt><trkpt lat="43.31686851293998" lon="10.671756838253463"><ele>39.0</ele><time>2026-04-18T13:59:24Z</time></trkpt><trkpt lat="43.31704859957495" lon="10.671603188220816"><ele>39.0</ele><time>2026-04-18T13:59:25Z</time></trkpt><trkpt lat="43.3172296256826" lon="10.67145033167081"><ele>39.0</ele><time>2026-04-18T13:59:26Z</time></trkpt><trkpt lat="43.31741725309875" lon="10.671299051096977"><ele>39.0</ele><time>2026-04-18T13:59:27Z</time></trkpt><trkpt lat="43.31760325429717" lon="10.671161356222099"><ele>38.333333333333336</ele><time>2026-04-18T13:59:28Z</time></trkpt><trkpt lat="43.31779286817238" lon="10.671025976653777"><ele>37.66666666666667</ele><time>2026-04-18T13:59:29Z</time></trkpt><trkpt lat="43.317981568130705" lon="10.670892769580629"><ele>37.0</ele><time>2026-04-18T13:59:30Z</time></trkpt><trkpt lat="43.31817652716758" lon="10.670773855984054"><ele>36.66666666666667</ele><time>2026-04-18T13:59:31Z</time></trkpt><trkpt lat="43.318372716056096" lon="10.670664553266555"><ele>36.333333333333336</ele><time>2026-04-18T13:59:32Z</time></trkpt><trkpt lat="43.31857484086065" lon="10.670555506883689"><ele>36.0</ele><time>2026-04-18T13:59:33Z</time></trkpt><trkpt lat="43.31877674852221" lon="10.670459595537332"><ele>36.0</ele><time>2026-04-18T13:59:34Z</time></trkpt><trkpt lat="43.31897744840492" lon="10.670370604814028"><ele>36.0</ele><time>2026-04-18T13:59:35Z</time></trkpt><trkpt lat="43.31917926943431" lon="10.670296239824417"><ele>36.0</ele><time>2026-04-18T13:59:36Z</time></trkpt><trkpt lat="43.31938293636523" lon="10.670228560821789"><ele>35.666666666666664</ele><time>2026-04-18T13:59:37Z</time></trkpt><trkpt lat="43.31958790907749" lon="10.6701581849687"><ele>35.33333333333333</ele><time>2026-04-18T13:59:38Z</time></trkpt><trkpt lat="43.31977885308246" lon="10.670099201647147"><ele>35.0</ele><time>2026-04-18T13:59:39Z</time></trkpt><trkpt lat="43.31996646029533" lon="10.670055021198696"><ele>35.666666666666664</ele><time>2026-04-18T13:59:40Z</time></trkpt><trkpt lat="43.32015557435415" lon="10.670018757762298"><ele>36.333333333333336</ele><time>2026-04-18T13:59:41Z</time></trkpt><trkpt lat="43.32034818016872" lon="10.669985783580142"><ele>37.0</ele><time>2026-04-18T13:59:42Z</time></trkpt><trkpt lat="43.320541537392494" lon="10.669952601064256"><ele>37.0</ele><time>2026-04-18T13:59:43Z</time></trkpt><trkpt lat="43.32074160434626" lon="10.669918509342565"><ele>37.0</ele><time>2026-04-18T13:59:44Z</time></trkpt><trkpt lat="43.32094415566999" lon="10.669899712248503"><ele>37.0</ele><time>2026-04-18T13:59:45Z</time></trkpt><trkpt lat="43.32114927349975" lon="10.66988875923973"><ele>37.0</ele><time>2026-04-18T13:59:46Z</time></trkpt><trkpt lat="43.32135381257268" lon="10.669886210417474"><ele>37.0</ele><time>2026-04-18T13:59:47Z</time></trkpt><trkpt lat="43.32155870667232" lon="10.669886905078787"><ele>37.0</ele><time>2026-04-18T13:59:48Z</time></trkpt><trkpt lat="43.32176099510552" lon="10.669882556842115"><ele>37.0</ele><time>2026-04-18T13:59:49Z</time></trkpt><trkpt lat="43.32195528498595" lon="10.669877288369616"><ele>37.0</ele><time>2026-04-18T13:59:50Z</time></trkpt><trkpt lat="43.322142862264485" lon="10.669877448449839"><ele>37.0</ele><time>2026-04-18T13:59:51Z</time></trkpt><trkpt lat="43.32231347930462" lon="10.669878232344749"><ele>37.333333333333336</ele><time>2026-04-18T13:59:52Z</time></trkpt><trkpt lat="43.32248085358305" lon="10.669877862492221"><ele>37.666666666666664</ele><time>2026-04-18T13:59:53Z</time></trkpt><trkpt lat="43.32264461439767" lon="10.66987647484861"><ele>38.0</ele><time>2026-04-18T13:59:54Z</time></trkpt><trkpt lat="43.32280756672961" lon="10.669878312102133"><ele>38.0</ele><time>2026-04-18T13:59:55Z</time></trkpt><trkpt lat="43.32297419803902" lon="10.669879124401506"><ele>38.0</ele><time>2026-04-18T13:59:56Z</time></trkpt><trkpt lat="43.323142554484775" lon="10.669874167808016"><ele>38.0</ele><time>2026-04-18T13:59:57Z</time></trkpt><trkpt lat="43.323314325214916" lon="10.669872062342566"><ele>36.666666666666664</ele><time>2026-04-18T13:59:58Z</time></trkpt><trkpt lat="43.32348855930316" lon="10.669869323969431"><ele>35.333333333333336</ele><time>2026-04-18T13:59:59Z</time></trkpt><trkpt lat="43.32364931309701" lon="10.66986438576773"><ele>34.0</ele><time>2026-04-18T14:00:00Z</time></trkpt><trkpt lat="43.323795058015925" lon="10.66986373364535"><ele>34.5</ele><time>2026-04-18T14:00:01Z</time></trkpt><trkpt lat="43.323935362357844" lon="10.669864113148998"><ele>35.0</ele><time>2026-04-18T14:00:02Z</time></trkpt><trkpt lat="43.324080648600955" lon="10.669864603431094"><ele>35.5</ele><time>2026-04-18T14:00:03Z</time></trkpt><trkpt lat="43.32423134166597" lon="10.669866009812694"><ele>36.0</ele><time>2026-04-18T14:00:04Z</time></trkpt><trkpt lat="43.32439413861507" lon="10.669871845851782"><ele>36.0</ele><time>2026-04-18T14:00:05Z</time></trkpt><trkpt lat="43.32456121538559" lon="10.669893362323297"><ele>36.0</ele><time>2026-04-18T14:00:06Z</time></trkpt><trkpt lat="43.324720507737226" lon="10.669912889619674"><ele>36.0</ele><time>2026-04-18T14:00:07Z</time></trkpt><trkpt lat="43.32487383776848" lon="10.669931526963026"><ele>36.0</ele><time>2026-04-18T14:00:08Z</time></trkpt><trkpt lat="43.32502900647231" lon="10.669960210246277"><ele>36.0</ele><time>2026-04-18T14:00:09Z</time></trkpt><trkpt lat="43.3251929880112" lon="10.669992539298134"><ele>36.0</ele><time>2026-04-18T14:00:10Z</time></trkpt><trkpt lat="43.32535976812477" lon="10.670023548745249"><ele>36.0</ele><time>2026-04-18T14:00:11Z</time></trkpt><trkpt lat="43.32552910087727" lon="10.670054446389369"><ele>36.0</ele><time>2026-04-18T14:00:12Z</time></trkpt><trkpt lat="43.32570276741065" lon="10.67009097030349"><ele>36.0</ele><time>2026-04-18T14:00:13Z</time></trkpt><trkpt lat="43.32588128469545" lon="10.67012884586179"><ele>36.0</ele><time>2026-04-18T14:00:14Z</time></trkpt><trkpt lat="43.326058209304485" lon="10.670166009266863"><ele>36.0</ele><time>2026-04-18T14:00:15Z</time></trkpt><trkpt lat="43.32622886867536" lon="10.670198653890958"><ele>36.0</ele><time>2026-04-18T14:00:16Z</time></trkpt><trkpt lat="43.326390874769835" lon="10.6702319189134"><ele>35.666666666666664</ele><time>2026-04-18T14:00:17Z</time></trkpt><trkpt lat="43.326547935139445" lon="10.670264456025409"><ele>35.33333333333333</ele><time>2026-04-18T14:00:18Z</time></trkpt><trkpt lat="43.32670352875621" lon="10.670293331131022"><ele>35.0</ele><time>2026-04-18T14:00:19Z</time></trkpt><trkpt lat="43.32685643365839" lon="10.67032165728137"><ele>35.666666666666664</ele><time>2026-04-18T14:00:20Z</time></trkpt><trkpt lat="43.32701485275483" lon="10.670351234946938"><ele>36.333333333333336</ele><time>2026-04-18T14:00:21Z</time></trkpt><trkpt lat="43.32717921738632" lon="10.670380381385362"><ele>37.0</ele><time>2026-04-18T14:00:22Z</time></trkpt><trkpt lat="43.327338944307876" lon="10.670407560751174"><ele>37.0</ele><time>2026-04-18T14:00:23Z</time></trkpt><trkpt lat="43.32749050164035" lon="10.670436176179424"><ele>37.0</ele><time>2026-04-18T14:00:24Z</time></trkpt><trkpt lat="43.32761604647643" lon="10.67046264784198"><ele>37.0</ele><time>2026-04-18T14:00:25Z</time></trkpt><trkpt lat="43.327736431888326" lon="10.670490771406332"><ele>37.0</ele><time>2026-04-18T14:00:26Z</time></trkpt><trkpt lat="43.32785225959025" lon="10.670516878732434"><ele>37.0</ele><time>2026-04-18T14:00:27.001Z</time></trkpt><trkpt lat="43.32796853473232" lon="10.670540843903844"><ele>37.0</ele><time>2026-04-18T14:00:28.001Z</time></trkpt><trkpt lat="43.32809782006807" lon="10.670561508017055"><ele>37.0</ele><time>2026-04-18T14:00:29.001Z</time></trkpt><trkpt lat="43.328217901338725" lon="10.670584179004019"><ele>37.0</ele><time>2026-04-18T14:00:30.001Z</time></trkpt><trkpt lat="43.32832940859048" lon="10.670607943298478"><ele>36.800000000000004</ele><time>2026-04-18T14:00:31.001Z</time></trkpt><trkpt lat="43.32843446413054" lon="10.670633991264976"><ele>36.6</ele><time>2026-04-18T14:00:32.001Z</time></trkpt><trkpt lat="43.32853757381619" lon="10.670647183113493"><ele>36.400000000000006</ele><time>2026-04-18T14:00:33.001Z</time></trkpt><trkpt lat="43.328645377791965" lon="10.670630828671461"><ele>36.2</ele><time>2026-04-18T14:00:34.001Z</time></trkpt><trkpt lat="43.32874512590799" lon="10.67058647326886"><ele>36.0</ele><time>2026-04-18T14:00:35.001Z</time></trkpt><trkpt lat="43.32883176979468" lon="10.670538773948987"><ele>36.166666666666664</ele><time>2026-04-18T14:00:36.001Z</time></trkpt><trkpt lat="43.32891690866192" lon="10.67050490431953"><ele>36.333333333333336</ele><time>2026-04-18T14:00:37.001Z</time></trkpt><trkpt lat="43.328995843381364" lon="10.670512016883297"><ele>36.5</ele><time>2026-04-18T14:00:38.001Z</time></trkpt><trkpt lat="43.329074859012316" lon="10.670553649579269"><ele>36.66666666666667</ele><time>2026-04-18T14:00:39.001Z</time></trkpt><trkpt lat="43.32914907077728" lon="10.670611638683749"><ele>36.833333333333336</ele><time>2026-04-18T14:00:40.001Z</time></trkpt><trkpt lat="43.329222817321174" lon="10.670632595401335"><ele>37.0</ele><time>2026-04-18T14:00:41.001Z</time></trkpt><trkpt lat="43.32928861332304" lon="10.670595911105854"><ele>37.0</ele><time>2026-04-18T14:00:42.001Z</time></trkpt><trkpt lat="43.32934432910165" lon="10.670507026313082"><ele>37.0</ele><time>2026-04-18T14:00:43.001Z</time></trkpt><trkpt lat="43.329352461369346" lon="10.670391983107304"><ele>37.0</ele><time>2026-04-18T14:00:44.001Z</time></trkpt><trkpt lat="43.32932309353134" lon="10.67028130387992"><ele>37.0</ele><time>2026-04-18T14:00:45.001Z</time></trkpt><trkpt lat="43.32926766721949" lon="10.670162519910377"><ele>37.0</ele><time>2026-04-18T14:00:46.001Z</time></trkpt><trkpt lat="43.32920924247437" lon="10.670021863019226"><ele>36.333333333333336</ele><time>2026-04-18T14:00:47.001Z</time></trkpt><trkpt lat="43.32916509736999" lon="10.669847494433395"><ele>35.666666666666664</ele><time>2026-04-18T14:00:48.001Z</time></trkpt><trkpt lat="43.32915243337898" lon="10.669633268892024"><ele>35.0</ele><time>2026-04-18T14:00:49.001Z</time></trkpt><trkpt lat="43.3291172610636" lon="10.669407914599912"><ele>34.666666666666664</ele><time>2026-04-18T14:00:50.001Z</time></trkpt><trkpt lat="43.32908105917388" lon="10.669173916228623"><ele>34.333333333333336</ele><time>2026-04-18T14:00:51.001Z</time></trkpt><trkpt lat="43.32904635685593" lon="10.668949610842787"><ele>34.0</ele><time>2026-04-18T14:00:52.001Z</time></trkpt><trkpt lat="43.32899806505455" lon="10.668734621155886"><ele>34.5</ele><time>2026-04-18T14:00:53.001Z</time></trkpt><trkpt lat="43.328971912497344" lon="10.668512427239044"><ele>35.0</ele><time>2026-04-18T14:00:54.001Z</time></trkpt><trkpt lat="43.32894120453254" lon="10.668320965260586"><ele>35.5</ele><time>2026-04-18T14:00:55.001Z</time></trkpt><trkpt lat="43.32891159224363" lon="10.668142461382095"><ele>36.0</ele><time>2026-04-18T14:00:56.001Z</time></trkpt><trkpt lat="43.32888192894073" lon="10.667959153307997"><ele>36.0</ele><time>2026-04-18T14:00:57.001Z</time></trkpt><trkpt lat="43.32885449395736" lon="10.667776904809463"><ele>36.0</ele><time>2026-04-18T14:00:58.001Z</time></trkpt><trkpt lat="43.32882769958236" lon="10.667591325499833"><ele>36.0</ele><time>2026-04-18T14:00:59.001Z</time></trkpt><trkpt lat="43.328797233069785" lon="10.667391341378154"><ele>36.0</ele><time>2026-04-18T14:01:00.001Z</time></trkpt><trkpt lat="43.32876405363356" lon="10.66718072511209"><ele>36.333333333333336</ele><time>2026-04-18T14:01:01.001Z</time></trkpt><trkpt lat="43.32873223433506" lon="10.66696389034105"><ele>36.66666666666667</ele><time>2026-04-18T14:01:02.001Z</time></trkpt><trkpt lat="43.32870079727629" lon="10.666736024897013"><ele>37.0</ele><time>2026-04-18T14:01:03.001Z</time></trkpt><trkpt lat="43.32866372067059" lon="10.666508669941527"><ele>37.0</ele><time>2026-04-18T14:01:04.001Z</time></trkpt><trkpt lat="43.32862799887415" lon="10.666273656300925"><ele>37.0</ele><time>2026-04-18T14:01:05.001Z</time></trkpt><trkpt lat="43.32859834168863" lon="10.666031530666277"><ele>37.0</ele><time>2026-04-18T14:01:05.999Z</time></trkpt><trkpt lat="43.32857521117072" lon="10.665779554278364"><ele>37.333333333333336</ele><time>2026-04-18T14:01:06.999Z</time></trkpt><trkpt lat="43.328556600048096" lon="10.665531879764334"><ele>37.666666666666664</ele><time>2026-04-18T14:01:07.999Z</time></trkpt><trkpt lat="43.328538977502724" lon="10.66528058262791"><ele>38.0</ele><time>2026-04-18T14:01:08.999Z</time></trkpt><trkpt lat="43.328518525432635" lon="10.66501163408636"><ele>38.0</ele><time>2026-04-18T14:01:09.999Z</time></trkpt><trkpt lat="43.328505903857206" lon="10.664767750295239"><ele>38.0</ele><time>2026-04-18T14:01:11Z</time></trkpt><trkpt lat="43.32849299017095" lon="10.664511792609781"><ele>38.0</ele><time>2026-04-18T14:01:12Z</time></trkpt><trkpt lat="43.32848432982013" lon="10.664251845353725"><ele>37.0</ele><time>2026-04-18T14:01:13Z</time></trkpt><trkpt lat="43.32848886178137" lon="10.663995385664169"><ele>36.0</ele><time>2026-04-18T14:01:14Z</time></trkpt><trkpt lat="43.3285186037257" lon="10.66374013348511"><ele>35.0</ele><time>2026-04-18T14:01:15Z</time></trkpt><trkpt lat="43.328577854126124" lon="10.663489871269297"><ele>35.0</ele><time>2026-04-18T14:01:16Z</time></trkpt><trkpt lat="43.32866337542915" lon="10.663245489919104"><ele>35.0</ele><time>2026-04-18T14:01:17Z</time></trkpt><trkpt lat="43.328774876780834" lon="10.663020607629209"><ele>35.0</ele><time>2026-04-18T14:01:18Z</time></trkpt><trkpt lat="43.32891068439178" lon="10.662831883933427"><ele>35.0</ele><time>2026-04-18T14:01:19Z</time></trkpt><trkpt lat="43.32905909611807" lon="10.662669106701701"><ele>35.0</ele><time>2026-04-18T14:01:20Z</time></trkpt><trkpt lat="43.32922377600096" lon="10.662538361575189"><ele>35.0</ele><time>2026-04-18T14:01:21Z</time></trkpt><trkpt lat="43.32939725676407" lon="10.662426684069823"><ele>35.0</ele><time>2026-04-18T14:01:22Z</time></trkpt><trkpt lat="43.329577745256564" lon="10.662332329538232"><ele>35.0</ele><time>2026-04-18T14:01:23Z</time></trkpt><trkpt lat="43.32975926729106" lon="10.662249481751799"><ele>35.0</ele><time>2026-04-18T14:01:24Z</time></trkpt><trkpt lat="43.32994515185323" lon="10.662165001096056"><ele>35.33333333333333</ele><time>2026-04-18T14:01:25Z</time></trkpt><trkpt lat="43.33013468780349" lon="10.662076674654932"><ele>35.666666666666664</ele><time>2026-04-18T14:01:26Z</time></trkpt><trkpt lat="43.330325239461565" lon="10.66198349545509"><ele>36.0</ele><time>2026-04-18T14:01:27Z</time></trkpt><trkpt lat="43.3305202853504" lon="10.66188487662779"><ele>37.333333333333336</ele><time>2026-04-18T14:01:28Z</time></trkpt><trkpt lat="43.3307173934949" lon="10.661774154605828"><ele>38.66666666666667</ele><time>2026-04-18T14:01:29Z</time></trkpt><trkpt lat="43.330912433133946" lon="10.661646224691266"><ele>40.0</ele><time>2026-04-18T14:01:30Z</time></trkpt><trkpt lat="43.33110634653251" lon="10.661498747249846"><ele>40.0</ele><time>2026-04-18T14:01:31Z</time></trkpt><trkpt lat="43.33129787594505" lon="10.66133080982751"><ele>40.0</ele><time>2026-04-18T14:01:32Z</time></trkpt><trkpt lat="43.331485613428505" lon="10.661149990582969"><ele>38.0</ele><time>2026-04-18T14:01:33Z</time></trkpt><trkpt lat="43.33166858091284" lon="10.66095964398719"><ele>36.0</ele><time>2026-04-18T14:01:34Z</time></trkpt><trkpt lat="43.331847271682136" lon="10.660754552077279"><ele>36.0</ele><time>2026-04-18T14:01:35Z</time></trkpt><trkpt lat="43.33201837164632" lon="10.660534021514025"><ele>36.0</ele><time>2026-04-18T14:01:36Z</time></trkpt><trkpt lat="43.332181608584314" lon="10.660296212887669"><ele>37.5</ele><time>2026-04-18T14:01:37Z</time></trkpt><trkpt lat="43.3323337682989" lon="10.660048831466884"><ele>39.0</ele><time>2026-04-18T14:01:38Z</time></trkpt><trkpt lat="43.33248053279358" lon="10.659793522253558"><ele>39.0</ele><time>2026-04-18T14:01:39Z</time></trkpt><trkpt lat="43.332626621280546" lon="10.659532348445358"><ele>39.0</ele><time>2026-04-18T14:01:40Z</time></trkpt><trkpt lat="43.33277004112393" lon="10.659271094188805"><ele>37.5</ele><time>2026-04-18T14:01:41Z</time></trkpt><trkpt lat="43.33291396176224" lon="10.659008961327824"><ele>36.0</ele><time>2026-04-18T14:01:42Z</time></trkpt><trkpt lat="43.33305696164675" lon="10.658747449955683"><ele>34.0</ele><time>2026-04-18T14:01:43Z</time></trkpt><trkpt lat="43.33320154805963" lon="10.658480429131718"><ele>32.0</ele><time>2026-04-18T14:01:44Z</time></trkpt><trkpt lat="43.33334693054675" lon="10.658212187127798"><ele>32.0</ele><time>2026-04-18T14:01:45Z</time></trkpt><trkpt lat="43.333490978323844" lon="10.657948147498889"><ele>32.0</ele><time>2026-04-18T14:01:46Z</time></trkpt><trkpt lat="43.33363109802127" lon="10.657688405014937"><ele>32.0</ele><time>2026-04-18T14:01:47Z</time></trkpt><trkpt lat="43.333767290168595" lon="10.657435691184283"><ele>32.0</ele><time>2026-04-18T14:01:48Z</time></trkpt><trkpt lat="43.33390205486929" lon="10.65719167143766"><ele>32.33333333333333</ele><time>2026-04-18T14:01:49Z</time></trkpt><trkpt lat="43.33403561428644" lon="10.65695044811067"><ele>32.666666666666664</ele><time>2026-04-18T14:01:50Z</time></trkpt><trkpt lat="43.33416575765939" lon="10.656708064363126"><ele>33.0</ele><time>2026-04-18T14:01:51Z</time></trkpt><trkpt lat="43.334296173662466" lon="10.656468701840934"><ele>33.0</ele><time>2026-04-18T14:01:52Z</time></trkpt><trkpt lat="43.33442864357046" lon="10.656236274483387"><ele>33.0</ele><time>2026-04-18T14:01:53Z</time></trkpt><trkpt lat="43.33455992438683" lon="10.656004640502582"><ele>33.0</ele><time>2026-04-18T14:01:54Z</time></trkpt><trkpt lat="43.33468585666298" lon="10.655771928780167"><ele>33.0</ele><time>2026-04-18T14:01:55Z</time></trkpt><trkpt lat="43.33481100667574" lon="10.65553456137468"><ele>33.0</ele><time>2026-04-18T14:01:56Z</time></trkpt><trkpt lat="43.33493353239346" lon="10.655303048516776"><ele>33.0</ele><time>2026-04-18T14:01:57Z</time></trkpt><trkpt lat="43.33506250758264" lon="10.655071990208839"><ele>33.0</ele><time>2026-04-18T14:01:58Z</time></trkpt><trkpt lat="43.335191698495535" lon="10.65484191387009"><ele>33.0</ele><time>2026-04-18T14:01:59Z</time></trkpt><trkpt lat="43.33531846121519" lon="10.654612660652326"><ele>33.0</ele><time>2026-04-18T14:02:00Z</time></trkpt><trkpt lat="43.335443301378625" lon="10.654379097204673"><ele>34.666666666666664</ele><time>2026-04-18T14:02:01Z</time></trkpt><trkpt lat="43.33556808487963" lon="10.654157057483923"><ele>36.33333333333333</ele><time>2026-04-18T14:02:02Z</time></trkpt><trkpt lat="43.33569266232791" lon="10.653945534727791"><ele>38.0</ele><time>2026-04-18T14:02:03Z</time></trkpt><trkpt lat="43.33580689798179" lon="10.653751619859198"><ele>36.33333333333333</ele><time>2026-04-18T14:02:04Z</time></trkpt><trkpt lat="43.33591141231754" lon="10.653571308271305"><ele>34.666666666666664</ele><time>2026-04-18T14:02:05Z</time></trkpt><trkpt lat="43.33600745921301" lon="10.653411642902133"><ele>33.0</ele><time>2026-04-18T14:02:06Z</time></trkpt><trkpt lat="43.33609701693427" lon="10.653262308980132"><ele>33.0</ele><time>2026-04-18T14:02:07Z</time></trkpt><trkpt lat="43.33617902548307" lon="10.653133222693619"><ele>33.0</ele><time>2026-04-18T14:02:08Z</time></trkpt><trkpt lat="43.336254742462096" lon="10.65304177966719"><ele>33.0</ele><time>2026-04-18T14:02:09Z</time></trkpt><trkpt lat="43.33633076173406" lon="10.652989166091357"><ele>33.0</ele><time>2026-04-18T14:02:10Z</time></trkpt><trkpt lat="43.33642022099094" lon="10.652972400067545"><ele>33.0</ele><time>2026-04-18T14:02:11Z</time></trkpt><trkpt lat="43.3365083260321" lon="10.652958618901906"><ele>33.0</ele><time>2026-04-18T14:02:12Z</time></trkpt><trkpt lat="43.33658413322282" lon="10.652887595036926"><ele>33.0</ele><time>2026-04-18T14:02:13.001Z</time></trkpt><trkpt lat="43.336619091052484" lon="10.652763069556059"><ele>33.0</ele><time>2026-04-18T14:02:14.001Z</time></trkpt><trkpt lat="43.336633287154655" lon="10.65260108265725"><ele>33.0</ele><time>2026-04-18T14:02:15.001Z</time></trkpt><trkpt lat="43.33659932649193" lon="10.652439642391808"><ele>33.0</ele><time>2026-04-18T14:02:16.001Z</time></trkpt><trkpt lat="43.336729942917266" lon="10.652261743916307"><ele>33.0</ele><time>2026-04-18T14:02:17.001Z</time></trkpt><trkpt lat="43.33684770529905" lon="10.652094843576883"><ele>33.0</ele><time>2026-04-18T14:02:18.001Z</time></trkpt><trkpt lat="43.33698256664617" lon="10.651918868860406"><ele>33.0</ele><time>2026-04-18T14:02:19.001Z</time></trkpt><trkpt lat="43.3371184019631" lon="10.651731157613039"><ele>32.666666666666664</ele><time>2026-04-18T14:02:20.001Z</time></trkpt><trkpt lat="43.33725237507792" lon="10.651533895065484"><ele>32.33333333333333</ele><time>2026-04-18T14:02:21.001Z</time></trkpt><trkpt lat="43.337388616946534" lon="10.651332067758446"><ele>32.0</ele><time>2026-04-18T14:02:22.001Z</time></trkpt><trkpt lat="43.33752470169748" lon="10.651136862388963"><ele>31.666666666666664</ele><time>2026-04-18T14:02:23.001Z</time></trkpt><trkpt lat="43.33765852674114" lon="10.650944119258849"><ele>31.333333333333336</ele><time>2026-04-18T14:02:24.001Z</time></trkpt><trkpt lat="43.33779332385502" lon="10.650744931744034"><ele>31.0</ele><time>2026-04-18T14:02:25.001Z</time></trkpt><trkpt lat="43.33792780396331" lon="10.65054524362941"><ele>31.333333333333336</ele><time>2026-04-18T14:02:26.001Z</time></trkpt><trkpt lat="43.338063442902346" lon="10.650345727291873"><ele>31.666666666666664</ele><time>2026-04-18T14:02:27.001Z</time></trkpt><trkpt lat="43.338192652861444" lon="10.650142830744581"><ele>32.0</ele><time>2026-04-18T14:02:28.001Z</time></trkpt><trkpt lat="43.338309538259665" lon="10.649931184763302"><ele>32.0</ele><time>2026-04-18T14:02:29.001Z</time></trkpt><trkpt lat="43.33841543284293" lon="10.649714075627777"><ele>32.0</ele><time>2026-04-18T14:02:30.001Z</time></trkpt><trkpt lat="43.33851860983717" lon="10.64949666479329"><ele>32.0</ele><time>2026-04-18T14:02:31.001Z</time></trkpt><trkpt lat="43.33861634971517" lon="10.649273257285829"><ele>32.0</ele><time>2026-04-18T14:02:32.001Z</time></trkpt><trkpt lat="43.33870319665814" lon="10.649046720055573"><ele>32.0</ele><time>2026-04-18T14:02:33.001Z</time></trkpt><trkpt lat="43.338781356905976" lon="10.648808039101883"><ele>32.0</ele><time>2026-04-18T14:02:34.001Z</time></trkpt><trkpt lat="43.33886080779054" lon="10.648554454296747"><ele>32.0</ele><time>2026-04-18T14:02:35.001Z</time></trkpt><trkpt lat="43.33893367903684" lon="10.648301744783906"><ele>32.0</ele><time>2026-04-18T14:02:36.001Z</time></trkpt><trkpt lat="43.33900197835954" lon="10.648042032623684"><ele>32.0</ele><time>2026-04-18T14:02:37.001Z</time></trkpt><trkpt lat="43.339066787769255" lon="10.647776732271797"><ele>32.0</ele><time>2026-04-18T14:02:38.001Z</time></trkpt><trkpt lat="43.33912558052931" lon="10.647513033242559"><ele>32.0</ele><time>2026-04-18T14:02:39.001Z</time></trkpt><trkpt lat="43.33918569465001" lon="10.647266465952214"><ele>32.0</ele><time>2026-04-18T14:02:40.001Z</time></trkpt><trkpt lat="43.33924823115558" lon="10.647023452468355"><ele>32.0</ele><time>2026-04-18T14:02:41.001Z</time></trkpt><trkpt lat="43.33930720830914" lon="10.646786137132711"><ele>32.0</ele><time>2026-04-18T14:02:42.001Z</time></trkpt><trkpt lat="43.33936081199919" lon="10.646553482089695"><ele>32.0</ele><time>2026-04-18T14:02:43.001Z</time></trkpt><trkpt lat="43.33941045249546" lon="10.646327814906451"><ele>31.666666666666664</ele><time>2026-04-18T14:02:44.001Z</time></trkpt><trkpt lat="43.339463127369385" lon="10.646104235888009"><ele>31.333333333333336</ele><time>2026-04-18T14:02:45.001Z</time></trkpt><trkpt lat="43.33951299287037" lon="10.645894695816995"><ele>31.0</ele><time>2026-04-18T14:02:46.001Z</time></trkpt><trkpt lat="43.33955811297331" lon="10.645693730560563"><ele>31.0</ele><time>2026-04-18T14:02:47.001Z</time></trkpt><trkpt lat="43.339602511260914" lon="10.64549697071983"><ele>31.0</ele><time>2026-04-18T14:02:48.001Z</time></trkpt><trkpt lat="43.33964796576366" lon="10.645302517271324"><ele>31.0</ele><time>2026-04-18T14:02:49.001Z</time></trkpt><trkpt lat="43.33969449648045" lon="10.645116460692499"><ele>31.0</ele><time>2026-04-18T14:02:50.001Z</time></trkpt><trkpt lat="43.33974393615898" lon="10.64492716442818"><ele>31.0</ele><time>2026-04-18T14:02:51.001Z</time></trkpt><trkpt lat="43.33979206800042" lon="10.644747871619021"><ele>31.0</ele><time>2026-04-18T14:02:52.001Z</time></trkpt><trkpt lat="43.33983481985456" lon="10.644583677900528"><ele>31.0</ele><time>2026-04-18T14:02:53.001Z</time></trkpt><trkpt lat="43.33987173846396" lon="10.644444952204394"><ele>31.0</ele><time>2026-04-18T14:02:54.001Z</time></trkpt><trkpt lat="43.33990497602273" lon="10.644348194315462"><ele>31.000000000000004</ele><time>2026-04-18T14:02:55.001Z</time></trkpt><trkpt lat="43.3399987338297" lon="10.644276173944036"><ele>31.0</ele><time>2026-04-18T14:02:57.001Z</time></trkpt><trkpt lat="43.3400608593828" lon="10.644297861348985"><ele>31.0</ele><time>2026-04-18T14:02:58.001Z</time></trkpt><trkpt lat="43.34011124974858" lon="10.644349806604486"><ele>31.0</ele><time>2026-04-18T14:02:59.001Z</time></trkpt><trkpt lat="43.340139496936146" lon="10.64443459924745"><ele>31.000000000000004</ele><time>2026-04-18T14:03:00.001Z</time></trkpt><trkpt lat="43.34015011242186" lon="10.644575819984846"><ele>31.0</ele><time>2026-04-18T14:03:02.001Z</time></trkpt><trkpt lat="43.34016552893182" lon="10.644717315215264"><ele>31.0</ele><time>2026-04-18T14:03:04.001Z</time></trkpt><trkpt lat="43.340163659765366" lon="10.644825715633814"><ele>31.0</ele><time>2026-04-18T14:03:06.001Z</time></trkpt><trkpt lat="43.3402947007854" lon="10.644835196131716"><ele>31.0</ele><time>2026-04-18T14:03:07.001Z</time></trkpt><trkpt lat="43.34042282452242" lon="10.644893490978847"><ele>31.0</ele><time>2026-04-18T14:03:09.001Z</time></trkpt><trkpt lat="43.3404979931492" lon="10.644946361255728"><ele>31.0</ele><time>2026-04-18T14:03:10.001Z</time></trkpt><trkpt lat="43.3405748425396" lon="10.645034182495488"><ele>31.5</ele><time>2026-04-18T14:03:11.001Z</time></trkpt><trkpt lat="43.34066346645879" lon="10.645113690185182"><ele>32.0</ele><time>2026-04-18T14:03:12Z</time></trkpt><trkpt lat="43.340767450354406" lon="10.645183433602137"><ele>32.5</ele><time>2026-04-18T14:03:13Z</time></trkpt><trkpt lat="43.340871100545336" lon="10.645305872249095"><ele>33.0</ele><time>2026-04-18T14:03:14Z</time></trkpt><trkpt lat="43.340983977166296" lon="10.645418206491545"><ele>33.0</ele><time>2026-04-18T14:03:15Z</time></trkpt><trkpt lat="43.341108375548075" lon="10.645537658125273"><ele>33.0</ele><time>2026-04-18T14:03:16Z</time></trkpt><trkpt lat="43.34126182622211" lon="10.645671534280448"><ele>33.0</ele><time>2026-04-18T14:03:18Z</time></trkpt><trkpt lat="43.341386446689604" lon="10.645796880512625"><ele>32.75</ele><time>2026-04-18T14:03:19Z</time></trkpt><trkpt lat="43.34151865703515" lon="10.645934114322637"><ele>32.5</ele><time>2026-04-18T14:03:20Z</time></trkpt><trkpt lat="43.34164114551074" lon="10.646050221995754"><ele>32.25</ele><time>2026-04-18T14:03:21Z</time></trkpt><trkpt lat="43.34174529997683" lon="10.6461607000233"><ele>32.0</ele><time>2026-04-18T14:03:22Z</time></trkpt><trkpt lat="43.34184387371353" lon="10.646247703169017"><ele>32.0</ele><time>2026-04-18T14:03:23Z</time></trkpt><trkpt lat="43.341946124294516" lon="10.64633191754384"><ele>32.0</ele><time>2026-04-18T14:03:24Z</time></trkpt><trkpt lat="43.34208158269119" lon="10.64638930647581"><ele>32.0</ele><time>2026-04-18T14:03:25Z</time></trkpt><trkpt lat="43.342229310880974" lon="10.646431849782216"><ele>32.0</ele><time>2026-04-18T14:03:26Z</time></trkpt><trkpt lat="43.342377696518774" lon="10.64647783214724"><ele>33.33333333333333</ele><time>2026-04-18T14:03:27Z</time></trkpt><trkpt lat="43.34254263870245" lon="10.646533234227551"><ele>34.666666666666664</ele><time>2026-04-18T14:03:28Z</time></trkpt><trkpt lat="43.342701626333664" lon="10.646587522143953"><ele>36.0</ele><time>2026-04-18T14:03:29Z</time></trkpt><trkpt lat="43.3428390495739" lon="10.646649960660127"><ele>36.0</ele><time>2026-04-18T14:03:30Z</time></trkpt><trkpt lat="43.342964971421736" lon="10.64669964501581"><ele>36.0</ele><time>2026-04-18T14:03:31Z</time></trkpt><trkpt lat="43.34311648854481" lon="10.646724902861"><ele>36.0</ele><time>2026-04-18T14:03:32Z</time></trkpt><trkpt lat="43.34329170061664" lon="10.64672255404626"><ele>37.0</ele><time>2026-04-18T14:03:33Z</time></trkpt><trkpt lat="43.3434832670545" lon="10.646714216315438"><ele>38.0</ele><time>2026-04-18T14:03:34Z</time></trkpt><trkpt lat="43.34367199310704" lon="10.646721500899064"><ele>39.0</ele><time>2026-04-18T14:03:35Z</time></trkpt><trkpt lat="43.34385247076298" lon="10.64673734716913"><ele>39.0</ele><time>2026-04-18T14:03:36Z</time></trkpt><trkpt lat="43.344020651092734" lon="10.646792970219009"><ele>39.0</ele><time>2026-04-18T14:03:37Z</time></trkpt><trkpt lat="43.34419702006782" lon="10.64685264206421"><ele>39.0</ele><time>2026-04-18T14:03:38Z</time></trkpt><trkpt lat="43.34438022352181" lon="10.646878793543655"><ele>39.0</ele><time>2026-04-18T14:03:39Z</time></trkpt><trkpt lat="43.34455611132851" lon="10.646930007204793"><ele>39.0</ele><time>2026-04-18T14:03:40Z</time></trkpt><trkpt lat="43.344731422809645" lon="10.646974524120848"><ele>39.0</ele><time>2026-04-18T14:03:41Z</time></trkpt><trkpt lat="43.34489063181455" lon="10.647019499101813"><ele>39.0</ele><time>2026-04-18T14:03:42Z</time></trkpt><trkpt lat="43.34504876710934" lon="10.647077655800992"><ele>39.0</ele><time>2026-04-18T14:03:43Z</time></trkpt><trkpt lat="43.345184918111514" lon="10.647128643367253"><ele>39.0</ele><time>2026-04-18T14:03:44Z</time></trkpt><trkpt lat="43.345326480152835" lon="10.647190667861398"><ele>39.0</ele><time>2026-04-18T14:03:45Z</time></trkpt><trkpt lat="43.345461373573734" lon="10.64724303061602"><ele>39.0</ele><time>2026-04-18T14:03:46Z</time></trkpt><trkpt lat="43.345606844782424" lon="10.647280191080245"><ele>39.0</ele><time>2026-04-18T14:03:47Z</time></trkpt><trkpt lat="43.34575037886976" lon="10.64731748540153"><ele>39.0</ele><time>2026-04-18T14:03:48Z</time></trkpt><trkpt lat="43.34590986048063" lon="10.647353154494944"><ele>40.0</ele><time>2026-04-18T14:03:49Z</time></trkpt><trkpt lat="43.34607592911452" lon="10.647390848298329"><ele>41.0</ele><time>2026-04-18T14:03:50Z</time></trkpt><trkpt lat="43.34624905767445" lon="10.647428337019043"><ele>42.0</ele><time>2026-04-18T14:03:51Z</time></trkpt><trkpt lat="43.346416411231935" lon="10.647460479901458"><ele>42.0</ele><time>2026-04-18T14:03:52Z</time></trkpt><trkpt lat="43.34658274176118" lon="10.647561777268335"><ele>42.0</ele><time>2026-04-18T14:03:53Z</time></trkpt><trkpt lat="43.34673646599449" lon="10.647635170510586"><ele>42.0</ele><time>2026-04-18T14:03:54Z</time></trkpt><trkpt lat="43.34688816340871" lon="10.647680229738674"><ele>42.0</ele><time>2026-04-18T14:03:55Z</time></trkpt><trkpt lat="43.3470465277187" lon="10.647752322873725"><ele>42.0</ele><time>2026-04-18T14:03:56Z</time></trkpt><trkpt lat="43.347204208602435" lon="10.647818733910364"><ele>42.0</ele><time>2026-04-18T14:03:57Z</time></trkpt><trkpt lat="43.3473752397692" lon="10.647877416418892"><ele>41.0</ele><time>2026-04-18T14:03:58Z</time></trkpt><trkpt lat="43.347546307202904" lon="10.647967279221318"><ele>40.0</ele><time>2026-04-18T14:03:59Z</time></trkpt><trkpt lat="43.34772183895236" lon="10.648023297536614"><ele>39.0</ele><time>2026-04-18T14:04:00Z</time></trkpt><trkpt lat="43.34789461314449" lon="10.648096500468256"><ele>39.333333333333336</ele><time>2026-04-18T14:04:01Z</time></trkpt><trkpt lat="43.34806305943984" lon="10.648170580090863"><ele>39.66666666666667</ele><time>2026-04-18T14:04:02Z</time></trkpt><trkpt lat="43.348228061776645" lon="10.648241559146868"><ele>40.0</ele><time>2026-04-18T14:04:03Z</time></trkpt><trkpt lat="43.34839069443374" lon="10.648310464275122"><ele>40.0</ele><time>2026-04-18T14:04:04Z</time></trkpt><trkpt lat="43.34855575696813" lon="10.64837872621919"><ele>40.0</ele><time>2026-04-18T14:04:05Z</time></trkpt><trkpt lat="43.348719691021984" lon="10.648443772869252"><ele>40.0</ele><time>2026-04-18T14:04:06Z</time></trkpt><trkpt lat="43.34888447609724" lon="10.648512467409532"><ele>40.0</ele><time>2026-04-18T14:04:07Z</time></trkpt><trkpt lat="43.34903946063177" lon="10.648587978591959"><ele>40.0</ele><time>2026-04-18T14:04:08.001Z</time></trkpt><trkpt lat="43.34920464886864" lon="10.64865452738607"><ele>40.0</ele><time>2026-04-18T14:04:09.001Z</time></trkpt><trkpt lat="43.34937151331549" lon="10.648720974584531"><ele>40.0</ele><time>2026-04-18T14:04:10.001Z</time></trkpt><trkpt lat="43.34951775090272" lon="10.648807073615894"><ele>40.0</ele><time>2026-04-18T14:04:11.001Z</time></trkpt><trkpt lat="43.349666666542696" lon="10.648852728895234"><ele>40.0</ele><time>2026-04-18T14:04:12.001Z</time></trkpt><trkpt lat="43.34982910637644" lon="10.648935142463767"><ele>41.333333333333336</ele><time>2026-04-18T14:04:13.001Z</time></trkpt><trkpt lat="43.35001005973906" lon="10.649019711996937"><ele>42.666666666666664</ele><time>2026-04-18T14:04:14.001Z</time></trkpt><trkpt lat="43.35019562112631" lon="10.649112606912837"><ele>44.0</ele><time>2026-04-18T14:04:15.001Z</time></trkpt><trkpt lat="43.350373225106615" lon="10.649205985111335"><ele>44.0</ele><time>2026-04-18T14:04:16.001Z</time></trkpt><trkpt lat="43.35054603529927" lon="10.649291992291287"><ele>44.0</ele><time>2026-04-18T14:04:17.001Z</time></trkpt><trkpt lat="43.35071501030534" lon="10.649378910924025"><ele>44.0</ele><time>2026-04-18T14:04:18.001Z</time></trkpt><trkpt lat="43.35088474813327" lon="10.649464379878836"><ele>44.33333333333333</ele><time>2026-04-18T14:04:19.001Z</time></trkpt><trkpt lat="43.351051043186196" lon="10.649548281838152"><ele>44.666666666666664</ele><time>2026-04-18T14:04:20.001Z</time></trkpt><trkpt lat="43.351218512764596" lon="10.649630959155276"><ele>45.0</ele><time>2026-04-18T14:04:21.001Z</time></trkpt><trkpt lat="43.35139093759974" lon="10.649716439240231"><ele>45.0</ele><time>2026-04-18T14:04:22.001Z</time></trkpt><trkpt lat="43.351563820889595" lon="10.64980174066856"><ele>45.0</ele><time>2026-04-18T14:04:23.001Z</time></trkpt><trkpt lat="43.35173627268788" lon="10.64988871840744"><ele>45.0</ele><time>2026-04-18T14:04:24.001Z</time></trkpt><trkpt lat="43.35190417076658" lon="10.649972371016313"><ele>45.0</ele><time>2026-04-18T14:04:25.001Z</time></trkpt><trkpt lat="43.35206903154798" lon="10.650056720322594"><ele>45.0</ele><time>2026-04-18T14:04:26.001Z</time></trkpt><trkpt lat="43.352232045513695" lon="10.650141369369567"><ele>45.0</ele><time>2026-04-18T14:04:27.001Z</time></trkpt><trkpt lat="43.35239689456135" lon="10.650220818917202"><ele>45.333333333333336</ele><time>2026-04-18T14:04:28.001Z</time></trkpt><trkpt lat="43.35255024374745" lon="10.650298375977378"><ele>45.66666666666667</ele><time>2026-04-18T14:04:29.001Z</time></trkpt><trkpt lat="43.35269966380183" lon="10.650377391759854"><ele>46.0</ele><time>2026-04-18T14:04:30.001Z</time></trkpt><trkpt lat="43.352847185741304" lon="10.650454890583374"><ele>46.0</ele><time>2026-04-18T14:04:31.001Z</time></trkpt><trkpt lat="43.35300122820775" lon="10.650535042608746"><ele>46.0</ele><time>2026-04-18T14:04:32.001Z</time></trkpt><trkpt lat="43.353155581561786" lon="10.650613843100203"><ele>46.0</ele><time>2026-04-18T14:04:33.001Z</time></trkpt><trkpt lat="43.35330735935146" lon="10.650688336662798"><ele>46.5</ele><time>2026-04-18T14:04:34.001Z</time></trkpt><trkpt lat="43.35343538125888" lon="10.650748225738964"><ele>47.0</ele><time>2026-04-18T14:04:35.001Z</time></trkpt><trkpt lat="43.35354945944486" lon="10.65080578568889"><ele>47.5</ele><time>2026-04-18T14:04:36.001Z</time></trkpt><trkpt lat="43.35366437903871" lon="10.650862154871511"><ele>48.0</ele><time>2026-04-18T14:04:37.001Z</time></trkpt><trkpt lat="43.35377972649667" lon="10.650906934020718"><ele>49.0</ele><time>2026-04-18T14:04:38.001Z</time></trkpt><trkpt lat="43.35389441716875" lon="10.650950708385144"><ele>50.0</ele><time>2026-04-18T14:04:39.001Z</time></trkpt><trkpt lat="43.35402235784513" lon="10.650995582803752"><ele>51.0</ele><time>2026-04-18T14:04:40.001Z</time></trkpt><trkpt lat="43.354152452816386" lon="10.651049656595502"><ele>52.0</ele><time>2026-04-18T14:04:41.001Z</time></trkpt><trkpt lat="43.35428014852033" lon="10.651093334397167"><ele>51.75</ele><time>2026-04-18T14:04:42.001Z</time></trkpt><trkpt lat="43.35439411577266" lon="10.651130135471172"><ele>51.5</ele><time>2026-04-18T14:04:43.001Z</time></trkpt><trkpt lat="43.354497736823454" lon="10.651153126830309"><ele>51.25</ele><time>2026-04-18T14:04:44.001Z</time></trkpt><trkpt lat="43.35462017442686" lon="10.65118378750264"><ele>51.0</ele><time>2026-04-18T14:04:45.001Z</time></trkpt><trkpt lat="43.35476451245255" lon="10.651251360887972"><ele>51.0</ele><time>2026-04-18T14:04:46.001Z</time></trkpt><trkpt lat="43.354945260558296" lon="10.651292162468335"><ele>51.0</ele><time>2026-04-18T14:04:47.001Z</time></trkpt><trkpt lat="43.355132133452656" lon="10.651363278194735"><ele>51.0</ele><time>2026-04-18T14:04:48.001Z</time></trkpt><trkpt lat="43.35529304579874" lon="10.651424059502773"><ele>51.0</ele><time>2026-04-18T14:04:49.001Z</time></trkpt><trkpt lat="43.35543669002729" lon="10.651477988460512"><ele>51.0</ele><time>2026-04-18T14:04:50.001Z</time></trkpt><trkpt lat="43.35557925082297" lon="10.651526251425059"><ele>51.0</ele><time>2026-04-18T14:04:51.001Z</time></trkpt><trkpt lat="43.35571480630397" lon="10.651557695171402"><ele>51.0</ele><time>2026-04-18T14:04:52.001Z</time></trkpt><trkpt lat="43.355841535882824" lon="10.651595531303018"><ele>52.25</ele><time>2026-04-18T14:04:53.001Z</time></trkpt><trkpt lat="43.35597761235246" lon="10.651642637974774"><ele>53.5</ele><time>2026-04-18T14:04:54.001Z</time></trkpt><trkpt lat="43.35609237395581" lon="10.651678343671389"><ele>54.75</ele><time>2026-04-18T14:04:55.001Z</time></trkpt><trkpt lat="43.35619693174027" lon="10.651718373365975"><ele>56.0</ele><time>2026-04-18T14:04:56.001Z</time></trkpt><trkpt lat="43.35632983021089" lon="10.651798549454316"><ele>55.66666666666667</ele><time>2026-04-18T14:04:57.001Z</time></trkpt><trkpt lat="43.35646791207306" lon="10.651902048181316"><ele>55.33333333333333</ele><time>2026-04-18T14:04:58.001Z</time></trkpt><trkpt lat="43.356606921506554" lon="10.652015789548088"><ele>55.0</ele><time>2026-04-18T14:04:59.001Z</time></trkpt><trkpt lat="43.35674202341466" lon="10.652103408062178"><ele>55.0</ele><time>2026-04-18T14:05:00.001Z</time></trkpt><trkpt lat="43.35686718342942" lon="10.65217947403413"><ele>55.0</ele><time>2026-04-18T14:05:01.001Z</time></trkpt><trkpt lat="43.357007815407286" lon="10.652270646662501"><ele>55.0</ele><time>2026-04-18T14:05:02.001Z</time></trkpt><trkpt lat="43.35715008438488" lon="10.652355950049175"><ele>55.0</ele><time>2026-04-18T14:05:03.001Z</time></trkpt><trkpt lat="43.35728189411521" lon="10.652443007361406"><ele>56.25</ele><time>2026-04-18T14:05:04.001Z</time></trkpt><trkpt lat="43.35739592628552" lon="10.652529629609178"><ele>57.5</ele><time>2026-04-18T14:05:05.001Z</time></trkpt><trkpt lat="43.357506923254725" lon="10.652609242192165"><ele>58.75</ele><time>2026-04-18T14:05:06.001Z</time></trkpt><trkpt lat="43.35762888944517" lon="10.652683413564677"><ele>60.0</ele><time>2026-04-18T14:05:07.001Z</time></trkpt><trkpt lat="43.35775257006398" lon="10.652749443874606"><ele>59.0</ele><time>2026-04-18T14:05:08.001Z</time></trkpt><trkpt lat="43.357870408891394" lon="10.652798183442432"><ele>58.0</ele><time>2026-04-18T14:05:09.001Z</time></trkpt><trkpt lat="43.357997620764834" lon="10.652839654208547"><ele>57.0</ele><time>2026-04-18T14:05:10.001Z</time></trkpt><trkpt lat="43.35814460948374" lon="10.652886383737183"><ele>56.0</ele><time>2026-04-18T14:05:11.001Z</time></trkpt><trkpt lat="43.35829780829523" lon="10.652915019328303"><ele>56.0</ele><time>2026-04-18T14:05:12.001Z</time></trkpt><trkpt lat="43.358450759286214" lon="10.652939476445455"><ele>56.0</ele><time>2026-04-18T14:05:13.001Z</time></trkpt><trkpt lat="43.35858790356195" lon="10.652959435696916"><ele>56.0</ele><time>2026-04-18T14:05:14.001Z</time></trkpt><trkpt lat="43.35871594197321" lon="10.652975728196914"><ele>56.0</ele><time>2026-04-18T14:05:15.001Z</time></trkpt><trkpt lat="43.35884006647793" lon="10.652993939319925"><ele>57.25</ele><time>2026-04-18T14:05:16.001Z</time></trkpt><trkpt lat="43.35896720468155" lon="10.653020710584414"><ele>58.5</ele><time>2026-04-18T14:05:17.002Z</time></trkpt><trkpt lat="43.35908164894534" lon="10.653065897390471"><ele>59.75</ele><time>2026-04-18T14:05:18Z</time></trkpt><trkpt lat="43.35921587558291" lon="10.653143209099376"><ele>61.0</ele><time>2026-04-18T14:05:19Z</time></trkpt><trkpt lat="43.3593306624434" lon="10.653217863214344"><ele>61.0</ele><time>2026-04-18T14:05:20Z</time></trkpt><trkpt lat="43.359447012319585" lon="10.653272671851733"><ele>61.0</ele><time>2026-04-18T14:05:21Z</time></trkpt><trkpt lat="43.35957402866552" lon="10.653315921971343"><ele>61.0</ele><time>2026-04-18T14:05:22Z</time></trkpt><trkpt lat="43.35968931292709" lon="10.653335682204128"><ele>61.0</ele><time>2026-04-18T14:05:23Z</time></trkpt><trkpt lat="43.35979924151826" lon="10.6533427737846"><ele>61.5</ele><time>2026-04-18T14:05:24Z</time></trkpt><trkpt lat="43.35991651796695" lon="10.653359711525992"><ele>62.0</ele><time>2026-04-18T14:05:25Z</time></trkpt><trkpt lat="43.36003331847444" lon="10.653380512779632"><ele>62.5</ele><time>2026-04-18T14:05:26Z</time></trkpt><trkpt lat="43.36015229286427" lon="10.653404739245037"><ele>63.0</ele><time>2026-04-18T14:05:27Z</time></trkpt><trkpt lat="43.360263118048074" lon="10.653446759331798"><ele>63.0</ele><time>2026-04-18T14:05:28Z</time></trkpt><trkpt lat="43.36038425111832" lon="10.653523236754289"><ele>63.0</ele><time>2026-04-18T14:05:29Z</time></trkpt><trkpt lat="43.36051443037139" lon="10.653593127697173"><ele>63.0</ele><time>2026-04-18T14:05:30Z</time></trkpt><trkpt lat="43.360641201498325" lon="10.653650649649071"><ele>63.0</ele><time>2026-04-18T14:05:31Z</time></trkpt><trkpt lat="43.36075827735567" lon="10.653700481666379"><ele>63.2</ele><time>2026-04-18T14:05:32Z</time></trkpt><trkpt lat="43.3608615387836" lon="10.653743187616618"><ele>63.4</ele><time>2026-04-18T14:05:33Z</time></trkpt><trkpt lat="43.36096151521627" lon="10.653782420288815"><ele>63.60000000000001</ele><time>2026-04-18T14:05:34Z</time></trkpt><trkpt lat="43.36105448693211" lon="10.653831114368723"><ele>63.800000000000004</ele><time>2026-04-18T14:05:35Z</time></trkpt><trkpt lat="43.36115944826145" lon="10.65392136809772"><ele>64.0</ele><time>2026-04-18T14:05:36Z</time></trkpt><trkpt lat="43.361264666469665" lon="10.654030556474908"><ele>64.0</ele><time>2026-04-18T14:05:37Z</time></trkpt><trkpt lat="43.361360331118824" lon="10.654127867025059"><ele>64.0</ele><time>2026-04-18T14:05:38Z</time></trkpt><trkpt lat="43.36146187771034" lon="10.65423169013068"><ele>64.0</ele><time>2026-04-18T14:05:39Z</time></trkpt><trkpt lat="43.36154728402321" lon="10.654359081270123"><ele>64.0</ele><time>2026-04-18T14:05:40Z</time></trkpt><trkpt lat="43.36161168534109" lon="10.654482804187792"><ele>64.8</ele><time>2026-04-18T14:05:41Z</time></trkpt><trkpt lat="43.3616835533618" lon="10.654596247846703"><ele>65.60000000000001</ele><time>2026-04-18T14:05:42Z</time></trkpt><trkpt lat="43.36177105871919" lon="10.654687524364673"><ele>66.4</ele><time>2026-04-18T14:05:43Z</time></trkpt><trkpt lat="43.36187545464864" lon="10.6547475006775"><ele>67.2</ele><time>2026-04-18T14:05:44Z</time></trkpt><trkpt lat="43.361985923892405" lon="10.654780162791731"><ele>68.0</ele><time>2026-04-18T14:05:45Z</time></trkpt><trkpt lat="43.36210749910394" lon="10.654802155059377"><ele>70.6</ele><time>2026-04-18T14:05:46Z</time></trkpt><trkpt lat="43.36222308185831" lon="10.654845142737257"><ele>73.19999999999999</ele><time>2026-04-18T14:05:47Z</time></trkpt><trkpt lat="43.36232095409986" lon="10.654913512242572"><ele>75.8</ele><time>2026-04-18T14:05:48Z</time></trkpt><trkpt lat="43.362409692847564" lon="10.654966441921477"><ele>78.39999999999999</ele><time>2026-04-18T14:05:49Z</time></trkpt><trkpt lat="43.36250889413497" lon="10.654975006184838"><ele>81.0</ele><time>2026-04-18T14:05:50Z</time></trkpt><trkpt lat="43.36260661076149" lon="10.65493534397216"><ele>81.0</ele><time>2026-04-18T14:05:51Z</time></trkpt><trkpt lat="43.36272294362779" lon="10.654901193307326"><ele>81.0</ele><time>2026-04-18T14:05:52Z</time></trkpt><trkpt lat="43.36283479586126" lon="10.65488348098116"><ele>81.0</ele><time>2026-04-18T14:05:53Z</time></trkpt><trkpt lat="43.36293326213013" lon="10.654905643891917"><ele>81.0</ele><time>2026-04-18T14:05:54Z</time></trkpt><trkpt lat="43.36301065608358" lon="10.655006590873349"><ele>81.0</ele><time>2026-04-18T14:05:55Z</time></trkpt><trkpt lat="43.3630790544572" lon="10.655105561460458"><ele>82.6</ele><time>2026-04-18T14:05:56Z</time></trkpt><trkpt lat="43.363156120890714" lon="10.655187341206444"><ele>84.19999999999999</ele><time>2026-04-18T14:05:57Z</time></trkpt><trkpt lat="43.363210683967345" lon="10.655235175161597"><ele>85.80000000000001</ele><time>2026-04-18T14:05:58Z</time></trkpt><trkpt lat="43.363329935171066" lon="10.655202996994719"><ele>87.4</ele><time>2026-04-18T14:06:00Z</time></trkpt><trkpt lat="43.36340041212687" lon="10.65519115283467"><ele>89.0</ele><time>2026-04-18T14:06:01Z</time></trkpt><trkpt lat="43.36350536964218" lon="10.655211861205046"><ele>88.99999999999999</ele><time>2026-04-18T14:06:02Z</time></trkpt><trkpt lat="43.36360132319953" lon="10.655263848136734"><ele>89.0</ele><time>2026-04-18T14:06:03Z</time></trkpt><trkpt lat="43.36366280056634" lon="10.655300358690111"><ele>89.0</ele><time>2026-04-18T14:06:04Z</time></trkpt><trkpt lat="43.36372813454054" lon="10.655281831607748"><ele>89.0</ele><time>2026-04-18T14:06:05Z</time></trkpt><trkpt lat="43.3637736299284" lon="10.655208779148625"><ele>89.0</ele><time>2026-04-18T14:06:06.001Z</time></trkpt><trkpt lat="43.36379579533535" lon="10.655116330944349"><ele>88.99999999999999</ele><time>2026-04-18T14:06:07.001Z</time></trkpt><trkpt lat="43.36378588634568" lon="10.655019025431537"><ele>89.0</ele><time>2026-04-18T14:06:08.001Z</time></trkpt><trkpt lat="43.36374767866837" lon="10.654945013029916"><ele>89.0</ele><time>2026-04-18T14:06:09.001Z</time></trkpt><trkpt lat="43.36368458867554" lon="10.654870803914438"><ele>89.0</ele><time>2026-04-18T14:06:10.001Z</time></trkpt><trkpt lat="43.36360614938543" lon="10.654771077669619"><ele>89.0</ele><time>2026-04-18T14:06:11.001Z</time></trkpt><trkpt lat="43.363566749182425" lon="10.65462819183806"><ele>89.0</ele><time>2026-04-18T14:06:12.001Z</time></trkpt><trkpt lat="43.36350682007669" lon="10.65453344253781"><ele>89.0</ele><time>2026-04-18T14:06:13.001Z</time></trkpt><trkpt lat="43.36348113203682" lon="10.654431281902081"><ele>90.66666666666667</ele><time>2026-04-18T14:06:14.001Z</time></trkpt><trkpt lat="43.36342492231496" lon="10.654358670170003"><ele>92.33333333333334</ele><time>2026-04-18T14:06:15.001Z</time></trkpt><trkpt lat="43.36333763297464" lon="10.654315282495354"><ele>94.0</ele><time>2026-04-18T14:06:16.001Z</time></trkpt><trkpt lat="43.36328010256993" lon="10.65426785549038"><ele>95.66666666666667</ele><time>2026-04-18T14:06:17.001Z</time></trkpt><trkpt lat="43.363249599418324" lon="10.654160729121799"><ele>97.33333333333333</ele><time>2026-04-18T14:06:21.001Z</time></trkpt><trkpt lat="43.36331896249019" lon="10.654127780550839"><ele>99.0</ele><time>2026-04-18T14:06:23.001Z</time></trkpt><trkpt lat="43.36342687281795" lon="10.654182084347658"><ele>99.0</ele><time>2026-04-18T14:06:25.001Z</time></trkpt><trkpt lat="43.36351542324707" lon="10.654231341546993"><ele>99.0</ele><time>2026-04-18T14:06:26.001Z</time></trkpt><trkpt lat="43.36362875902805" lon="10.654277124545922"><ele>99.0</ele><time>2026-04-18T14:06:27.001Z</time></trkpt><trkpt lat="43.36375068261579" lon="10.654317332108391"><ele>99.0</ele><time>2026-04-18T14:06:28.001Z</time></trkpt><trkpt lat="43.36386677587822" lon="10.654361841610044"><ele>99.75</ele><time>2026-04-18T14:06:29.001Z</time></trkpt><trkpt lat="43.36395982703209" lon="10.654426141965983"><ele>100.5</ele><time>2026-04-18T14:06:30.001Z</time></trkpt><trkpt lat="43.364056392542146" lon="10.654520578467492"><ele>101.25</ele><time>2026-04-18T14:06:31.001Z</time></trkpt><trkpt lat="43.364143914145856" lon="10.654638008626463"><ele>102.0</ele><time>2026-04-18T14:06:32.001Z</time></trkpt><trkpt lat="43.36423495698494" lon="10.654738561129559"><ele>102.0</ele><time>2026-04-18T14:06:33.001Z</time></trkpt><trkpt lat="43.364312433506264" lon="10.654831610975016"><ele>102.0</ele><time>2026-04-18T14:06:34.001Z</time></trkpt><trkpt lat="43.36442055385242" lon="10.654893372106322"><ele>102.0</ele><time>2026-04-18T14:06:35.001Z</time></trkpt><trkpt lat="43.36454270982198" lon="10.654930676761104"><ele>102.0</ele><time>2026-04-18T14:06:36.001Z</time></trkpt><trkpt lat="43.364664524224054" lon="10.654960725779805"><ele>104.19999999999999</ele><time>2026-04-18T14:06:37.001Z</time></trkpt><trkpt lat="43.36478817385498" lon="10.654981852357647"><ele>106.4</ele><time>2026-04-18T14:06:38.001Z</time></trkpt><trkpt lat="43.36489248119799" lon="10.655024887898593"><ele>108.60000000000001</ele><time>2026-04-18T14:06:39.001Z</time></trkpt><trkpt lat="43.36497388268694" lon="10.655078935546742"><ele>110.80000000000001</ele><time>2026-04-18T14:06:40.001Z</time></trkpt><trkpt lat="43.36504634407029" lon="10.655101990782276"><ele>113.0</ele><time>2026-04-18T14:06:41.001Z</time></trkpt><trkpt lat="43.36513459109577" lon="10.655092504541443"><ele>113.0</ele><time>2026-04-18T14:06:42.001Z</time></trkpt><trkpt lat="43.36521934976013" lon="10.655043176654726"><ele>113.0</ele><time>2026-04-18T14:06:43.001Z</time></trkpt><trkpt lat="43.36531323349892" lon="10.65497750405351"><ele>113.0</ele><time>2026-04-18T14:06:44.001Z</time></trkpt><trkpt lat="43.365425454720324" lon="10.654915854532517"><ele>113.0</ele><time>2026-04-18T14:06:45.001Z</time></trkpt><trkpt lat="43.365552548994714" lon="10.654861096044892"><ele>113.0</ele><time>2026-04-18T14:06:46.001Z</time></trkpt><trkpt lat="43.36567735308656" lon="10.654817893535204"><ele>113.0</ele><time>2026-04-18T14:06:47.001Z</time></trkpt><trkpt lat="43.36580194032905" lon="10.654795692881914"><ele>113.0</ele><time>2026-04-18T14:06:48.001Z</time></trkpt><trkpt lat="43.36590711072641" lon="10.654842269647617"><ele>113.0</ele><time>2026-04-18T14:06:49.001Z</time></trkpt><trkpt lat="43.3659914055986" lon="10.654824437838176"><ele>113.0</ele><time>2026-04-18T14:06:50.001Z</time></trkpt><trkpt lat="43.366055505135726" lon="10.65484751119967"><ele>113.0</ele><time>2026-04-18T14:06:51.001Z</time></trkpt><trkpt lat="43.36612531669506" lon="10.654826550854784"><ele>113.0</ele><time>2026-04-18T14:06:52.001Z</time></trkpt><trkpt lat="43.366167020751774" lon="10.65475651127558"><ele>113.0</ele><time>2026-04-18T14:06:53.001Z</time></trkpt><trkpt lat="43.36618829039438" lon="10.654663495204323"><ele>113.0</ele><time>2026-04-18T14:06:54.001Z</time></trkpt><trkpt lat="43.366189740318916" lon="10.654564043399306"><ele>113.0</ele><time>2026-04-18T14:06:55.001Z</time></trkpt><trkpt lat="43.36618089130105" lon="10.65445762340064"><ele>113.0</ele><time>2026-04-18T14:06:56.001Z</time></trkpt><trkpt lat="43.36616868131841" lon="10.654345561087373"><ele>114.0</ele><time>2026-04-18T14:06:57.001Z</time></trkpt><trkpt lat="43.36618776749233" lon="10.654212850029033"><ele>115.00000000000001</ele><time>2026-04-18T14:06:58.001Z</time></trkpt><trkpt lat="43.36623423895881" lon="10.654085619257879"><ele>116.00000000000001</ele><time>2026-04-18T14:06:59.001Z</time></trkpt><trkpt lat="43.366295820803956" lon="10.653949972951995"><ele>117.0</ele><time>2026-04-18T14:07:00.001Z</time></trkpt><trkpt lat="43.3663588858988" lon="10.65379807633439"><ele>118.0</ele><time>2026-04-18T14:07:01.001Z</time></trkpt><trkpt lat="43.36639180208669" lon="10.653640967799612"><ele>120.00000000000001</ele><time>2026-04-18T14:07:02.001Z</time></trkpt><trkpt lat="43.36641212110701" lon="10.653488589292403"><ele>122.0</ele><time>2026-04-18T14:07:03.001Z</time></trkpt><trkpt lat="43.36644247665743" lon="10.653386398688456"><ele>124.0</ele><time>2026-04-18T14:07:04.001Z</time></trkpt><trkpt lat="43.36649674139682" lon="10.653316410907758"><ele>126.0</ele><time>2026-04-18T14:07:05.001Z</time></trkpt><trkpt lat="43.366574219398544" lon="10.653308290943924"><ele>128.0</ele><time>2026-04-18T14:07:06.001Z</time></trkpt><trkpt lat="43.36664607007289" lon="10.653302312647021"><ele>130.0</ele><time>2026-04-18T14:07:07.001Z</time></trkpt><trkpt lat="43.36673429408345" lon="10.653305674475883"><ele>130.0</ele><time>2026-04-18T14:07:08.001Z</time></trkpt><trkpt lat="43.36682846073527" lon="10.65328628262621"><ele>130.0</ele><time>2026-04-18T14:07:09.001Z</time></trkpt><trkpt lat="43.366954517141096" lon="10.653282161191097"><ele>130.0</ele><time>2026-04-18T14:07:10.001Z</time></trkpt><trkpt lat="43.36709300592472" lon="10.653254034210839"><ele>130.0</ele><time>2026-04-18T14:07:11.001Z</time></trkpt><trkpt lat="43.36725139675907" lon="10.653218554864015"><ele>129.5</ele><time>2026-04-18T14:07:12.002Z</time></trkpt><trkpt lat="43.36738971110697" lon="10.653165270437901"><ele>129.0</ele><time>2026-04-18T14:07:13.002Z</time></trkpt><trkpt lat="43.367522227841164" lon="10.65314830036705"><ele>128.5</ele><time>2026-04-18T14:07:14.002Z</time></trkpt><trkpt lat="43.36764886135072" lon="10.65309072746171"><ele>128.0</ele><time>2026-04-18T14:07:15.002Z</time></trkpt><trkpt lat="43.367757724375416" lon="10.653042935981102"><ele>127.99999999999999</ele><time>2026-04-18T14:07:16.002Z</time></trkpt><trkpt lat="43.36786319838576" lon="10.653010682128372"><ele>128.0</ele><time>2026-04-18T14:07:17.002Z</time></trkpt><trkpt lat="43.36796473471906" lon="10.653048401849947"><ele>128.0</ele><time>2026-04-18T14:07:18.002Z</time></trkpt><trkpt lat="43.36805643762487" lon="10.653061518921962"><ele>128.0</ele><time>2026-04-18T14:07:19.002Z</time></trkpt><trkpt lat="43.36812774069177" lon="10.653060367703908"><ele>127.99999999999999</ele><time>2026-04-18T14:07:20.002Z</time></trkpt><trkpt lat="43.36818334833189" lon="10.653016600097304"><ele>128.0</ele><time>2026-04-18T14:07:21.002Z</time></trkpt><trkpt lat="43.368233277184615" lon="10.652921389966489"><ele>128.8</ele><time>2026-04-18T14:07:22.002Z</time></trkpt><trkpt lat="43.36828208176604" lon="10.652806597023458"><ele>129.60000000000002</ele><time>2026-04-18T14:07:23.002Z</time></trkpt><trkpt lat="43.36834832626856" lon="10.652708296313342"><ele>130.39999999999998</ele><time>2026-04-18T14:07:24Z</time></trkpt><trkpt lat="43.36841147774021" lon="10.652642907155862"><ele>131.2</ele><time>2026-04-18T14:07:25Z</time></trkpt><trkpt lat="43.36849872665922" lon="10.652545184124246"><ele>132.0</ele><time>2026-04-18T14:07:26Z</time></trkpt><trkpt lat="43.36858664719666" lon="10.652485931778836"><ele>133.0</ele><time>2026-04-18T14:07:27Z</time></trkpt><trkpt lat="43.36866384687086" lon="10.65246525282553"><ele>134.0</ele><time>2026-04-18T14:07:28Z</time></trkpt><trkpt lat="43.368733783787945" lon="10.652481538556177"><ele>135.0</ele><time>2026-04-18T14:07:29Z</time></trkpt><trkpt lat="43.368787977858304" lon="10.652542986425676"><ele>136.0</ele><time>2026-04-18T14:07:30Z</time></trkpt><trkpt lat="43.36881357154945" lon="10.652656195149197"><ele>137.0</ele><time>2026-04-18T14:07:31Z</time></trkpt><trkpt lat="43.368871380748544" lon="10.652761150290807"><ele>138.0</ele><time>2026-04-18T14:07:32Z</time></trkpt><trkpt lat="43.36893783639862" lon="10.652869852391934"><ele>138.0</ele><time>2026-04-18T14:07:33Z</time></trkpt><trkpt lat="43.369029947555056" lon="10.65293891866968"><ele>138.0</ele><time>2026-04-18T14:07:34Z</time></trkpt><trkpt lat="43.3690858992264" lon="10.652989517159307"><ele>138.0</ele><time>2026-04-18T14:07:35Z</time></trkpt><trkpt lat="43.369159272977825" lon="10.652977885469856"><ele>138.0</ele><time>2026-04-18T14:07:36Z</time></trkpt><trkpt lat="43.36923886510627" lon="10.652988576571682"><ele>138.0</ele><time>2026-04-18T14:07:37Z</time></trkpt><trkpt lat="43.369343261800076" lon="10.652988940573755"><ele>138.0</ele><time>2026-04-18T14:07:38Z</time></trkpt><trkpt lat="43.36946386510625" lon="10.652949338073286"><ele>138.0</ele><time>2026-04-18T14:07:39Z</time></trkpt><trkpt lat="43.36957924156943" lon="10.652915489940584"><ele>138.0</ele><time>2026-04-18T14:07:40Z</time></trkpt><trkpt lat="43.36971264282066" lon="10.652877649059864"><ele>138.0</ele><time>2026-04-18T14:07:41Z</time></trkpt><trkpt lat="43.36982016620074" lon="10.652832798350701"><ele>138.0</ele><time>2026-04-18T14:07:42Z</time></trkpt><trkpt lat="43.3699119851978" lon="10.652772686632407"><ele>142.60000000000002</ele><time>2026-04-18T14:07:43Z</time></trkpt><trkpt lat="43.369999310302525" lon="10.65270021142782"><ele>147.20000000000002</ele><time>2026-04-18T14:07:44Z</time></trkpt><trkpt lat="43.370096810666105" lon="10.65265832139607"><ele>151.8</ele><time>2026-04-18T14:07:45Z</time></trkpt><trkpt lat="43.370162191947465" lon="10.652628287928216"><ele>156.4</ele><time>2026-04-18T14:07:46Z</time></trkpt><trkpt lat="43.370260177195775" lon="10.652630310660808"><ele>161.0</ele><time>2026-04-18T14:07:47Z</time></trkpt><trkpt lat="43.37036005340159" lon="10.652643470661271"><ele>161.0</ele><time>2026-04-18T14:07:48Z</time></trkpt><trkpt lat="43.370481210279664" lon="10.652696329179983"><ele>161.0</ele><time>2026-04-18T14:07:49Z</time></trkpt><trkpt lat="43.370582418360776" lon="10.65268749716109"><ele>161.0</ele><time>2026-04-18T14:07:50Z</time></trkpt><trkpt lat="43.37065637843634" lon="10.65269083833868"><ele>161.0</ele><time>2026-04-18T14:07:51Z</time></trkpt><trkpt lat="43.37071812701325" lon="10.652670644271579"><ele>161.0</ele><time>2026-04-18T14:07:52Z</time></trkpt><trkpt lat="43.37083649168839" lon="10.652553402797517"><ele>160.0</ele><time>2026-04-18T14:07:54Z</time></trkpt><trkpt lat="43.37090663562165" lon="10.652457983049317"><ele>159.0</ele><time>2026-04-18T14:07:55Z</time></trkpt><trkpt lat="43.37095940977521" lon="10.652389133779721"><ele>158.0</ele><time>2026-04-18T14:07:56Z</time></trkpt><trkpt lat="43.37094570617369" lon="10.652281370510822"><ele>157.0</ele><time>2026-04-18T14:07:59Z</time></trkpt><trkpt lat="43.37083146441468" lon="10.652183535467424"><ele>156.0</ele><time>2026-04-18T14:08:01Z</time></trkpt><trkpt lat="43.37074673083287" lon="10.652236373953377"><ele>156.0</ele><time>2026-04-18T14:08:02Z</time></trkpt><trkpt lat="43.37067773290657" lon="10.65225536358374"><ele>156.0</ele><time>2026-04-18T14:08:03.001Z</time></trkpt><trkpt lat="43.37059486758019" lon="10.652154045570475"><ele>156.0</ele><time>2026-04-18T14:08:05.001Z</time></trkpt><trkpt lat="43.37053521482673" lon="10.652070486193805"><ele>156.0</ele><time>2026-04-18T14:08:06.001Z</time></trkpt><trkpt lat="43.37046303420963" lon="10.651995928678561"><ele>156.0</ele><time>2026-04-18T14:08:07.001Z</time></trkpt><trkpt lat="43.370379550536384" lon="10.651945438186205"><ele>156.0</ele><time>2026-04-18T14:08:08.001Z</time></trkpt><trkpt lat="43.370315195620236" lon="10.65192372667027"><ele>157.25</ele><time>2026-04-18T14:08:09.001Z</time></trkpt><trkpt lat="43.37022075926494" lon="10.651958401326626"><ele>158.5</ele><time>2026-04-18T14:08:10.001Z</time></trkpt><trkpt lat="43.37010024923681" lon="10.652017554310696"><ele>159.75</ele><time>2026-04-18T14:08:11.001Z</time></trkpt><trkpt lat="43.36997712040864" lon="10.652058307676374"><ele>161.0</ele><time>2026-04-18T14:08:12.001Z</time></trkpt><trkpt lat="43.3698537719998" lon="10.652090680254917"><ele>161.0</ele><time>2026-04-18T14:08:13.001Z</time></trkpt><trkpt lat="43.36976293922493" lon="10.652103917424977"><ele>161.0</ele><time>2026-04-18T14:08:14.001Z</time></trkpt><trkpt lat="43.36965269370622" lon="10.652068002856959"><ele>161.0</ele><time>2026-04-18T14:08:16.001Z</time></trkpt><trkpt lat="43.36958572674101" lon="10.651986526663528"><ele>161.0</ele><time>2026-04-18T14:08:17.001Z</time></trkpt><trkpt lat="43.36949954982169" lon="10.651895485011847"><ele>161.0</ele><time>2026-04-18T14:08:18.001Z</time></trkpt><trkpt lat="43.36941718054529" lon="10.651800609298768"><ele>162.0</ele><time>2026-04-18T14:08:19.001Z</time></trkpt><trkpt lat="43.36936863349893" lon="10.651738474029635"><ele>163.0</ele><time>2026-04-18T14:08:20.001Z</time></trkpt><trkpt lat="43.36934833289163" lon="10.65160189966756"><ele>164.0</ele><time>2026-04-18T14:08:22.001Z</time></trkpt><trkpt lat="43.36937406240274" lon="10.651482441364266"><ele>165.0</ele><time>2026-04-18T14:08:23.001Z</time></trkpt><trkpt lat="43.369429034357374" lon="10.651330111575389"><ele>166.0</ele><time>2026-04-18T14:08:24.001Z</time></trkpt><trkpt lat="43.36948035129201" lon="10.651175779457935"><ele>166.8</ele><time>2026-04-18T14:08:25.001Z</time></trkpt><trkpt lat="43.36953301267251" lon="10.651074386625519"><ele>167.60000000000002</ele><time>2026-04-18T14:08:26.001Z</time></trkpt><trkpt lat="43.36960994683676" lon="10.650952509737088"><ele>168.4</ele><time>2026-04-18T14:08:28.001Z</time></trkpt><trkpt lat="43.369681152027646" lon="10.650894341283365"><ele>169.2</ele><time>2026-04-18T14:08:29.001Z</time></trkpt><trkpt lat="43.369772435830875" lon="10.650856441468372"><ele>170.0</ele><time>2026-04-18T14:08:30.001Z</time></trkpt><trkpt lat="43.36987440337368" lon="10.650815000017497"><ele>172.0</ele><time>2026-04-18T14:08:31.001Z</time></trkpt><trkpt lat="43.36995615935759" lon="10.650797563187627"><ele>174.0</ele><time>2026-04-18T14:08:32.001Z</time></trkpt><trkpt lat="43.370059207730435" lon="10.65083481059903"><ele>176.0</ele><time>2026-04-18T14:08:33.001Z</time></trkpt><trkpt lat="43.37019571009654" lon="10.650835928765977"><ele>178.0</ele><time>2026-04-18T14:08:34.001Z</time></trkpt><trkpt lat="43.37032260132027" lon="10.650875606491095"><ele>178.0</ele><time>2026-04-18T14:08:35.001Z</time></trkpt><trkpt lat="43.37040559630428" lon="10.650914340991209"><ele>178.0</ele><time>2026-04-18T14:08:36.001Z</time></trkpt><trkpt lat="43.37048122749629" lon="10.650935457494164"><ele>178.0</ele><time>2026-04-18T14:08:37.001Z</time></trkpt><trkpt lat="43.37054261948488" lon="10.650965671837328"><ele>178.0</ele><time>2026-04-18T14:08:38.001Z</time></trkpt><trkpt lat="43.370617247984974" lon="10.650918975959145"><ele>178.0</ele><time>2026-04-18T14:08:41.001Z</time></trkpt><trkpt lat="43.3706619284425" lon="10.650856812236228"><ele>178.0</ele><time>2026-04-18T14:08:42.001Z</time></trkpt><trkpt lat="43.37074072269833" lon="10.650775102268657"><ele>178.0</ele><time>2026-04-18T14:08:43.001Z</time></trkpt><trkpt lat="43.370814456620266" lon="10.650643573601176"><ele>178.0</ele><time>2026-04-18T14:08:44.001Z</time></trkpt><trkpt lat="43.3709030362601" lon="10.650518478175984"><ele>178.0</ele><time>2026-04-18T14:08:45.001Z</time></trkpt><trkpt lat="43.37100398746038" lon="10.650375700117053"><ele>178.0</ele><time>2026-04-18T14:08:46.001Z</time></trkpt><trkpt lat="43.37109504743252" lon="10.650243021833964"><ele>177.2</ele><time>2026-04-18T14:08:47.001Z</time></trkpt><trkpt lat="43.371173850933694" lon="10.650131579696732"><ele>176.4</ele><time>2026-04-18T14:08:48.001Z</time></trkpt><trkpt lat="43.37124987837661" lon="10.650034241437103"><ele>175.6</ele><time>2026-04-18T14:08:49.001Z</time></trkpt><trkpt lat="43.3713056479593" lon="10.649952848757412"><ele>174.79999999999998</ele><time>2026-04-18T14:08:50.001Z</time></trkpt><trkpt lat="43.37136764561504" lon="10.649873628749324"><ele>174.0</ele><time>2026-04-18T14:08:52.001Z</time></trkpt><trkpt lat="43.37144561517722" lon="10.64974178071538"><ele>174.6</ele><time>2026-04-18T14:09:19.002Z</time></trkpt><trkpt lat="43.37148773386684" lon="10.649655580205028"><ele>175.2</ele><time>2026-04-18T14:09:20.002Z</time></trkpt><trkpt lat="43.37152755662805" lon="10.649538392146727"><ele>175.79999999999998</ele><time>2026-04-18T14:09:21.002Z</time></trkpt><trkpt lat="43.371559023050686" lon="10.649386974143805"><ele>176.39999999999998</ele><time>2026-04-18T14:09:22.002Z</time></trkpt><trkpt lat="43.37157881496371" lon="10.649222934030345"><ele>177.0</ele><time>2026-04-18T14:09:23.002Z</time></trkpt><trkpt lat="43.37159230611459" lon="10.649099793017262"><ele>177.0</ele><time>2026-04-18T14:09:24.002Z</time></trkpt><trkpt lat="43.371745995795884" lon="10.649066666682774"><ele>177.0</ele><time>2026-04-18T14:09:27.002Z</time></trkpt><trkpt lat="43.37185411270056" lon="10.649062418397852"><ele>177.0</ele><time>2026-04-18T14:09:28.002Z</time></trkpt><trkpt lat="43.37199984346034" lon="10.649046930177773"><ele>177.0</ele><time>2026-04-18T14:09:29.002Z</time></trkpt><trkpt lat="43.37215567551309" lon="10.649043666390014"><ele>177.25</ele><time>2026-04-18T14:09:30Z</time></trkpt><trkpt lat="43.372318176503065" lon="10.64903918517012"><ele>177.5</ele><time>2026-04-18T14:09:31Z</time></trkpt><trkpt lat="43.37245903250764" lon="10.649034913636854"><ele>177.75</ele><time>2026-04-18T14:09:32Z</time></trkpt><trkpt lat="43.3725903621735" lon="10.649028307131239"><ele>178.0</ele><time>2026-04-18T14:09:33Z</time></trkpt><trkpt lat="43.37271226368094" lon="10.649024019981887"><ele>178.0</ele><time>2026-04-18T14:09:34Z</time></trkpt><trkpt lat="43.372844632272795" lon="10.649014121920912"><ele>178.0</ele><time>2026-04-18T14:09:35Z</time></trkpt><trkpt lat="43.373000319772345" lon="10.64900494205499"><ele>178.0</ele><time>2026-04-18T14:09:36Z</time></trkpt><trkpt lat="43.37314378965458" lon="10.648998313825155"><ele>178.0</ele><time>2026-04-18T14:09:37Z</time></trkpt><trkpt lat="43.37325889638233" lon="10.64899272915368"><ele>178.5</ele><time>2026-04-18T14:09:38Z</time></trkpt><trkpt lat="43.37336571735641" lon="10.648990482225525"><ele>179.0</ele><time>2026-04-18T14:09:39Z</time></trkpt><trkpt lat="43.3734921814178" lon="10.64897951421722"><ele>179.5</ele><time>2026-04-18T14:09:40Z</time></trkpt><trkpt lat="43.373624573270945" lon="10.648963698899086"><ele>180.0</ele><time>2026-04-18T14:09:41Z</time></trkpt><trkpt lat="43.37376494798455" lon="10.648948686490884"><ele>179.33333333333334</ele><time>2026-04-18T14:09:42Z</time></trkpt><trkpt lat="43.37386540294912" lon="10.648943563198774"><ele>178.66666666666666</ele><time>2026-04-18T14:09:43Z</time></trkpt><trkpt lat="43.37394154722024" lon="10.648945622966552"><ele>178.0</ele><time>2026-04-18T14:09:44Z</time></trkpt><trkpt lat="43.37401905048316" lon="10.648933506707033"><ele>177.33333333333331</ele><time>2026-04-18T14:09:45Z</time></trkpt><trkpt lat="43.37409283952723" lon="10.648883520520974"><ele>176.66666666666666</ele><time>2026-04-18T14:09:46Z</time></trkpt><trkpt lat="43.37418061083723" lon="10.648802963889958"><ele>176.0</ele><time>2026-04-18T14:09:47Z</time></trkpt><trkpt lat="43.374283328383555" lon="10.648714627117814"><ele>176.25</ele><time>2026-04-18T14:09:48Z</time></trkpt><trkpt lat="43.3743813072667" lon="10.648615886217074"><ele>176.5</ele><time>2026-04-18T14:09:49Z</time></trkpt><trkpt lat="43.37449873983762" lon="10.648509432942099"><ele>176.75</ele><time>2026-04-18T14:09:50Z</time></trkpt><trkpt lat="43.37462648660634" lon="10.648395094655417"><ele>177.0</ele><time>2026-04-18T14:09:51Z</time></trkpt><trkpt lat="43.37474810298045" lon="10.648283629588988"><ele>177.0</ele><time>2026-04-18T14:09:52Z</time></trkpt><trkpt lat="43.37484639409933" lon="10.648189738271773"><ele>177.0</ele><time>2026-04-18T14:09:53Z</time></trkpt><trkpt lat="43.374947478485254" lon="10.648084045861879"><ele>177.0</ele><time>2026-04-18T14:09:54Z</time></trkpt><trkpt lat="43.3750592598501" lon="10.647972794759168"><ele>177.0</ele><time>2026-04-18T14:09:55Z</time></trkpt><trkpt lat="43.375163443825016" lon="10.647882950374964"><ele>177.0</ele><time>2026-04-18T14:09:56Z</time></trkpt><trkpt lat="43.375237215367605" lon="10.64783752363083"><ele>177.0</ele><time>2026-04-18T14:09:57Z</time></trkpt><trkpt lat="43.375303403653824" lon="10.647803727177735"><ele>177.0</ele><time>2026-04-18T14:09:58Z</time></trkpt><trkpt lat="43.37538578915543" lon="10.647802334007471"><ele>177.0</ele><time>2026-04-18T14:09:59Z</time></trkpt><trkpt lat="43.37550219863754" lon="10.647801299749148"><ele>177.0</ele><time>2026-04-18T14:10:00Z</time></trkpt><trkpt lat="43.37562330240971" lon="10.64780770866958"><ele>176.75</ele><time>2026-04-18T14:10:01.001Z</time></trkpt><trkpt lat="43.375753071942235" lon="10.647821378723142"><ele>176.5</ele><time>2026-04-18T14:10:02.001Z</time></trkpt><trkpt lat="43.37589766264562" lon="10.647837646196775"><ele>176.25</ele><time>2026-04-18T14:10:03.001Z</time></trkpt><trkpt lat="43.37602454616618" lon="10.647850418090377"><ele>176.0</ele><time>2026-04-18T14:10:04.001Z</time></trkpt><trkpt lat="43.37612864095362" lon="10.647836341441254"><ele>176.0</ele><time>2026-04-18T14:10:05.001Z</time></trkpt><trkpt lat="43.3761924857738" lon="10.647864455921384"><ele>176.0</ele><time>2026-04-18T14:10:06.001Z</time></trkpt><trkpt lat="43.37632260015497" lon="10.647793562948234"><ele>176.0</ele><time>2026-04-18T14:10:08.001Z</time></trkpt><trkpt lat="43.376411452219656" lon="10.647692458309121"><ele>176.0</ele><time>2026-04-18T14:10:09.001Z</time></trkpt><trkpt lat="43.37648516286118" lon="10.647627128142831"><ele>176.0</ele><time>2026-04-18T14:10:10.001Z</time></trkpt><trkpt lat="43.37658207120384" lon="10.64761095711564"><ele>180.5</ele><time>2026-04-18T14:10:11.001Z</time></trkpt><trkpt lat="43.37668765005425" lon="10.647681776867536"><ele>185.0</ele><time>2026-04-18T14:10:12.001Z</time></trkpt><trkpt lat="43.376824047817976" lon="10.647682541462988"><ele>189.5</ele><time>2026-04-18T14:10:13.001Z</time></trkpt><trkpt lat="43.376922135776326" lon="10.64769159875012"><ele>194.0</ele><time>2026-04-18T14:10:14.001Z</time></trkpt><trkpt lat="43.37702986214536" lon="10.64768303404673"><ele>194.0</ele><time>2026-04-18T14:10:15.001Z</time></trkpt><trkpt lat="43.3771633818968" lon="10.647648797775208"><ele>194.0</ele><time>2026-04-18T14:10:16.001Z</time></trkpt><trkpt lat="43.3773082773021" lon="10.647603700251686"><ele>194.0</ele><time>2026-04-18T14:10:17.001Z</time></trkpt><trkpt lat="43.377439798393944" lon="10.647574729062246"><ele>194.0</ele><time>2026-04-18T14:10:18.001Z</time></trkpt><trkpt lat="43.37755112730147" lon="10.647551358890954"><ele>193.2</ele><time>2026-04-18T14:10:19.001Z</time></trkpt><trkpt lat="43.37764392483848" lon="10.647532218145571"><ele>192.39999999999998</ele><time>2026-04-18T14:10:20.001Z</time></trkpt><trkpt lat="43.377735652594744" lon="10.647512002526714"><ele>191.6</ele><time>2026-04-18T14:10:21.001Z</time></trkpt><trkpt lat="43.37782995832993" lon="10.647472511744194"><ele>190.8</ele><time>2026-04-18T14:10:22.001Z</time></trkpt><trkpt lat="43.37791654549811" lon="10.647395955179679"><ele>190.0</ele><time>2026-04-18T14:10:23.001Z</time></trkpt><trkpt lat="43.377998763111584" lon="10.647301278872256"><ele>188.0</ele><time>2026-04-18T14:10:24.001Z</time></trkpt><trkpt lat="43.37808529889971" lon="10.647181723431109"><ele>186.0</ele><time>2026-04-18T14:10:25.001Z</time></trkpt><trkpt lat="43.378176302560355" lon="10.647083347161628"><ele>184.0</ele><time>2026-04-18T14:10:26.001Z</time></trkpt><trkpt lat="43.37828106931346" lon="10.646983154436406"><ele>182.0</ele><time>2026-04-18T14:10:27.001Z</time></trkpt><trkpt lat="43.37839988782014" lon="10.64687129677905"><ele>182.8</ele><time>2026-04-18T14:10:28.001Z</time></trkpt><trkpt lat="43.378511745745286" lon="10.646763209181614"><ele>183.6</ele><time>2026-04-18T14:10:29.001Z</time></trkpt><trkpt lat="43.37858800824633" lon="10.64667775496005"><ele>184.4</ele><time>2026-04-18T14:10:30.001Z</time></trkpt><trkpt lat="43.37866992935053" lon="10.646604487044591"><ele>185.20000000000002</ele><time>2026-04-18T14:10:31.001Z</time></trkpt><trkpt lat="43.37877434347533" lon="10.64654715225973"><ele>186.0</ele><time>2026-04-18T14:10:32.001Z</time></trkpt><trkpt lat="43.3789046259773" lon="10.646493348982442"><ele>186.0</ele><time>2026-04-18T14:10:33.001Z</time></trkpt><trkpt lat="43.37903155245225" lon="10.646435589036132"><ele>186.0</ele><time>2026-04-18T14:10:34.001Z</time></trkpt><trkpt lat="43.37915007610003" lon="10.646365099243193"><ele>186.0</ele><time>2026-04-18T14:10:35.001Z</time></trkpt><trkpt lat="43.37925091566037" lon="10.646339736577074"><ele>186.0</ele><time>2026-04-18T14:10:36.001Z</time></trkpt><trkpt lat="43.379362863432824" lon="10.646333924194131"><ele>186.0</ele><time>2026-04-18T14:10:37.001Z</time></trkpt><trkpt lat="43.37948494195743" lon="10.646321087815164"><ele>186.0</ele><time>2026-04-18T14:10:38.001Z</time></trkpt><trkpt lat="43.37959510522834" lon="10.646294377245194"><ele>186.0</ele><time>2026-04-18T14:10:39.001Z</time></trkpt><trkpt lat="43.379693452228345" lon="10.646231502625778"><ele>186.0</ele><time>2026-04-18T14:10:40.001Z</time></trkpt><trkpt lat="43.379787367301894" lon="10.646164564416354"><ele>186.0</ele><time>2026-04-18T14:10:41.001Z</time></trkpt><trkpt lat="43.379891377160575" lon="10.646103740382264"><ele>189.75</ele><time>2026-04-18T14:10:42.001Z</time></trkpt><trkpt lat="43.38000327892974" lon="10.646055067208048"><ele>193.5</ele><time>2026-04-18T14:10:43.001Z</time></trkpt><trkpt lat="43.38013527507622" lon="10.646017159535285"><ele>197.25</ele><time>2026-04-18T14:10:44.001Z</time></trkpt><trkpt lat="43.380282101928934" lon="10.64601045342801"><ele>201.0</ele><time>2026-04-18T14:10:45.001Z</time></trkpt><trkpt lat="43.38041682431597" lon="10.645996662591493"><ele>199.60000000000002</ele><time>2026-04-18T14:10:46.001Z</time></trkpt><trkpt lat="43.38053159823803" lon="10.645991212490518"><ele>198.2</ele><time>2026-04-18T14:10:47.001Z</time></trkpt><trkpt lat="43.38061668107028" lon="10.64599714346792"><ele>196.8</ele><time>2026-04-18T14:10:48.001Z</time></trkpt><trkpt lat="43.38069925484206" lon="10.645998749161548"><ele>195.39999999999998</ele><time>2026-04-18T14:10:49.001Z</time></trkpt><trkpt lat="43.38076716607379" lon="10.645957339595851"><ele>194.0</ele><time>2026-04-18T14:10:50.001Z</time></trkpt><trkpt lat="43.380838195830684" lon="10.64587125034829"><ele>194.0</ele><time>2026-04-18T14:10:51.001Z</time></trkpt><trkpt lat="43.38092210380016" lon="10.645769979830066"><ele>194.0</ele><time>2026-04-18T14:10:52.001Z</time></trkpt><trkpt lat="43.38098344869419" lon="10.645601866555692"><ele>194.0</ele><time>2026-04-18T14:10:53.001Z</time></trkpt><trkpt lat="43.38103716766791" lon="10.645447806800561"><ele>194.0</ele><time>2026-04-18T14:10:54.001Z</time></trkpt><trkpt lat="43.38107502393557" lon="10.645348785685023"><ele>194.0</ele><time>2026-04-18T14:10:55.001Z</time></trkpt><trkpt lat="43.3811356274831" lon="10.645286884321854"><ele>194.0</ele><time>2026-04-18T14:10:57.001Z</time></trkpt><trkpt lat="43.38119317216657" lon="10.645334982109926"><ele>194.0</ele><time>2026-04-18T14:10:58.001Z</time></trkpt><trkpt lat="43.381297246294295" lon="10.645427536933868"><ele>194.0</ele><time>2026-04-18T14:11:00.001Z</time></trkpt><trkpt lat="43.3813766257151" lon="10.645499533722234"><ele>194.0</ele><time>2026-04-18T14:11:01.001Z</time></trkpt><trkpt lat="43.38146620309457" lon="10.645571079189624"><ele>193.83333333333334</ele><time>2026-04-18T14:11:02.001Z</time></trkpt><trkpt lat="43.38156230823002" lon="10.645603756929354"><ele>193.66666666666669</ele><time>2026-04-18T14:11:03.001Z</time></trkpt><trkpt lat="43.38165213093504" lon="10.645613585679591"><ele>193.5</ele><time>2026-04-18T14:11:04.002Z</time></trkpt><trkpt lat="43.38171741012577" lon="10.645570371121028"><ele>193.33333333333331</ele><time>2026-04-18T14:11:05.002Z</time></trkpt><trkpt lat="43.38176909667845" lon="10.645492867072335"><ele>193.16666666666666</ele><time>2026-04-18T14:11:06.002Z</time></trkpt><trkpt lat="43.38183030752328" lon="10.64542254986033"><ele>193.0</ele><time>2026-04-18T14:11:07.002Z</time></trkpt><trkpt lat="43.38188480227284" lon="10.645334258266077"><ele>195.60000000000002</ele><time>2026-04-18T14:11:08.002Z</time></trkpt><trkpt lat="43.38194578112419" lon="10.64522137924631"><ele>198.20000000000002</ele><time>2026-04-18T14:11:09.002Z</time></trkpt><trkpt lat="43.38201346683162" lon="10.645103602088508"><ele>200.8</ele><time>2026-04-18T14:11:10.002Z</time></trkpt><trkpt lat="43.382066384386015" lon="10.645018309167414"><ele>203.4</ele><time>2026-04-18T14:11:11.002Z</time></trkpt><trkpt lat="43.382126074748726" lon="10.644945147047762"><ele>206.0</ele><time>2026-04-18T14:11:12.002Z</time></trkpt><trkpt lat="43.382221326412655" lon="10.644914476491966"><ele>206.4</ele><time>2026-04-18T14:11:13.002Z</time></trkpt><trkpt lat="43.38231037001374" lon="10.64489460639544"><ele>206.8</ele><time>2026-04-18T14:11:14.002Z</time></trkpt><trkpt lat="43.38238067887686" lon="10.644882308154356"><ele>207.20000000000002</ele><time>2026-04-18T14:11:15.002Z</time></trkpt><trkpt lat="43.38248234602425" lon="10.644829221950415"><ele>207.60000000000002</ele><time>2026-04-18T14:11:16.002Z</time></trkpt><trkpt lat="43.3825799395499" lon="10.644747250905507"><ele>208.0</ele><time>2026-04-18T14:11:17.002Z</time></trkpt><trkpt lat="43.3826648622454" lon="10.644632919282781"><ele>208.0</ele><time>2026-04-18T14:11:18.002Z</time></trkpt><trkpt lat="43.38275370355984" lon="10.64453678208704"><ele>208.0</ele><time>2026-04-18T14:11:19.002Z</time></trkpt><trkpt lat="43.3827865910732" lon="10.644399124072304"><ele>208.0</ele><time>2026-04-18T14:11:20.002Z</time></trkpt><trkpt lat="43.38280935779307" lon="10.64426295355164"><ele>208.0</ele><time>2026-04-18T14:11:21.002Z</time></trkpt><trkpt lat="43.382846057658334" lon="10.644098856847553"><ele>208.0</ele><time>2026-04-18T14:11:22.002Z</time></trkpt><trkpt lat="43.38290084861771" lon="10.643941989519702"><ele>209.4</ele><time>2026-04-18T14:11:23.002Z</time></trkpt><trkpt lat="43.38293969412646" lon="10.643821350042133"><ele>210.8</ele><time>2026-04-18T14:11:24.002Z</time></trkpt><trkpt lat="43.383001510480895" lon="10.643774953225307"><ele>212.2</ele><time>2026-04-18T14:11:25.002Z</time></trkpt><trkpt lat="43.38312618010466" lon="10.643797580260477"><ele>213.6</ele><time>2026-04-18T14:11:27.002Z</time></trkpt><trkpt lat="43.38322591799694" lon="10.643790114603604"><ele>215.0</ele><time>2026-04-18T14:11:28.002Z</time></trkpt><trkpt lat="43.3833150106236" lon="10.643759001098418"><ele>215.0</ele><time>2026-04-18T14:11:29.002Z</time></trkpt><trkpt lat="43.38335491498282" lon="10.643684898150099"><ele>215.0</ele><time>2026-04-18T14:11:30.002Z</time></trkpt><trkpt lat="43.38340046881481" lon="10.643594185783254"><ele>215.0</ele><time>2026-04-18T14:11:31.002Z</time></trkpt><trkpt lat="43.383453792035134" lon="10.643484533839807"><ele>215.0</ele><time>2026-04-18T14:11:32.002Z</time></trkpt><trkpt lat="43.38356635747048" lon="10.64335647308386"><ele>215.0</ele><time>2026-04-18T14:11:34.002Z</time></trkpt><trkpt lat="43.38363171222513" lon="10.643259371272638"><ele>217.8</ele><time>2026-04-18T14:11:35.002Z</time></trkpt><trkpt lat="43.383662437429386" lon="10.643145112779928"><ele>220.6</ele><time>2026-04-18T14:11:36Z</time></trkpt><trkpt lat="43.383693487322134" lon="10.643042999614376"><ele>223.39999999999998</ele><time>2026-04-18T14:11:37Z</time></trkpt><trkpt lat="43.3837473177769" lon="10.642904116786266"><ele>226.2</ele><time>2026-04-18T14:11:38Z</time></trkpt><trkpt lat="43.38380649539894" lon="10.642811442974459"><ele>229.0</ele><time>2026-04-18T14:11:39Z</time></trkpt><trkpt lat="43.38391577789547" lon="10.642727271192959"><ele>230.6</ele><time>2026-04-18T14:11:41Z</time></trkpt><trkpt lat="43.384021541797445" lon="10.642680460148258"><ele>232.2</ele><time>2026-04-18T14:11:42Z</time></trkpt><trkpt lat="43.384115294579516" lon="10.642633936201724"><ele>233.79999999999998</ele><time>2026-04-18T14:11:43Z</time></trkpt><trkpt lat="43.384184550660855" lon="10.642565497848667"><ele>235.39999999999998</ele><time>2026-04-18T14:11:44Z</time></trkpt><trkpt lat="43.384237120902064" lon="10.642450983986555"><ele>237.0</ele><time>2026-04-18T14:11:45Z</time></trkpt><trkpt lat="43.38430141587381" lon="10.642353143926448"><ele>237.0</ele><time>2026-04-18T14:11:46Z</time></trkpt><trkpt lat="43.38435040589672" lon="10.642254162994321"><ele>237.0</ele><time>2026-04-18T14:11:47Z</time></trkpt><trkpt lat="43.384424597910325" lon="10.64221445597358"><ele>237.0</ele><time>2026-04-18T14:11:48Z</time></trkpt><trkpt lat="43.38454207841357" lon="10.642153349825866"><ele>237.0</ele><time>2026-04-18T14:11:49Z</time></trkpt><trkpt lat="43.384685286759144" lon="10.642058827395566"><ele>239.0</ele><time>2026-04-18T14:11:50Z</time></trkpt><trkpt lat="43.384817515737936" lon="10.641914378910315"><ele>241.0</ele><time>2026-04-18T14:11:51Z</time></trkpt><trkpt lat="43.3849215035501" lon="10.641795370291716"><ele>243.0</ele><time>2026-04-18T14:11:52Z</time></trkpt><trkpt lat="43.38501517586613" lon="10.641696984518608"><ele>245.0</ele><time>2026-04-18T14:11:53Z</time></trkpt><trkpt lat="43.385129054677044" lon="10.641601732634346"><ele>245.0</ele><time>2026-04-18T14:11:54.001Z</time></trkpt><trkpt lat="43.38521037916924" lon="10.641498905862969"><ele>245.0</ele><time>2026-04-18T14:11:55.001Z</time></trkpt><trkpt lat="43.38528497532371" lon="10.64145726114159"><ele>245.0</ele><time>2026-04-18T14:11:56.001Z</time></trkpt><trkpt lat="43.38534176692972" lon="10.641388043164566"><ele>245.0</ele><time>2026-04-18T14:11:57.001Z</time></trkpt><trkpt lat="43.385412143620954" lon="10.641359116710694"><ele>245.0</ele><time>2026-04-18T14:12:00.001Z</time></trkpt><trkpt lat="43.385514771282985" lon="10.641434761312832"><ele>246.16666666666669</ele><time>2026-04-18T14:13:26.002Z</time></trkpt><trkpt lat="43.385564345964305" lon="10.641494802449596"><ele>247.33333333333334</ele><time>2026-04-18T14:13:27.002Z</time></trkpt><trkpt lat="43.38562817063342" lon="10.64157363573454"><ele>248.5</ele><time>2026-04-18T14:13:28.002Z</time></trkpt><trkpt lat="43.38568104942425" lon="10.64165124668396"><ele>249.66666666666669</ele><time>2026-04-18T14:13:29.002Z</time></trkpt><trkpt lat="43.38572881402439" lon="10.641770278736013"><ele>250.83333333333334</ele><time>2026-04-18T14:13:30.002Z</time></trkpt><trkpt lat="43.38577419027638" lon="10.641910627251894"><ele>252.0</ele><time>2026-04-18T14:13:31.002Z</time></trkpt><trkpt lat="43.385796587859154" lon="10.6420449443537"><ele>252.0</ele><time>2026-04-18T14:13:32.002Z</time></trkpt><trkpt lat="43.385765495058116" lon="10.642178326556818"><ele>252.0</ele><time>2026-04-18T14:13:33.002Z</time></trkpt><trkpt lat="43.38574442359561" lon="10.642331674725028"><ele>252.0</ele><time>2026-04-18T14:13:34.002Z</time></trkpt><trkpt lat="43.385726091984694" lon="10.642503217246508"><ele>252.0</ele><time>2026-04-18T14:13:35.002Z</time></trkpt><trkpt lat="43.385713702532826" lon="10.642626570566224"><ele>252.0</ele><time>2026-04-18T14:13:36.002Z</time></trkpt><trkpt lat="43.38570254850751" lon="10.642736480122851"><ele>252.0</ele><time>2026-04-18T14:13:37.002Z</time></trkpt><trkpt lat="43.385708478472" lon="10.642838784770026"><ele>252.0</ele><time>2026-04-18T14:13:38.001Z</time></trkpt><trkpt lat="43.38572173397422" lon="10.642942386753738"><ele>252.0</ele><time>2026-04-18T14:13:39.001Z</time></trkpt><trkpt lat="43.38575573985102" lon="10.643044984657323"><ele>252.0</ele><time>2026-04-18T14:13:40.001Z</time></trkpt><trkpt lat="43.38579440783628" lon="10.643143630459763"><ele>252.0</ele><time>2026-04-18T14:13:41.001Z</time></trkpt><trkpt lat="43.38583611319925" lon="10.64325529868787"><ele>252.0</ele><time>2026-04-18T14:13:42Z</time></trkpt><trkpt lat="43.38586838200678" lon="10.643333698578953"><ele>252.0</ele><time>2026-04-18T14:13:43Z</time></trkpt><trkpt lat="43.38594306176222" lon="10.64338156778223"><ele>252.0</ele><time>2026-04-18T14:13:45Z</time></trkpt><trkpt lat="43.38600965042513" lon="10.643399969106353"><ele>252.0</ele><time>2026-04-18T14:13:46Z</time></trkpt><trkpt lat="43.386084262731075" lon="10.6434101174799"><ele>252.0</ele><time>2026-04-18T14:13:47Z</time></trkpt><trkpt lat="43.386165803603724" lon="10.643421103174079"><ele>252.0</ele><time>2026-04-18T14:13:48Z</time></trkpt><trkpt lat="43.38625399984376" lon="10.643435158070071"><ele>252.0</ele><time>2026-04-18T14:13:49Z</time></trkpt><trkpt lat="43.38634572840637" lon="10.64345100056761"><ele>253.6</ele><time>2026-04-18T14:13:50Z</time></trkpt><trkpt lat="43.38644791584351" lon="10.643471202898123"><ele>255.2</ele><time>2026-04-18T14:13:51Z</time></trkpt><trkpt lat="43.386557063386135" lon="10.643480597298442"><ele>256.8</ele><time>2026-04-18T14:13:52Z</time></trkpt><trkpt lat="43.38666145732736" lon="10.643498484304782"><ele>258.4</ele><time>2026-04-18T14:13:53Z</time></trkpt><trkpt lat="43.386765468868404" lon="10.643508708430476"><ele>260.0</ele><time>2026-04-18T14:13:54Z</time></trkpt><trkpt lat="43.386873389257836" lon="10.643526509238594"><ele>260.0</ele><time>2026-04-18T14:13:55Z</time></trkpt><trkpt lat="43.38699106768157" lon="10.64354660887017"><ele>260.0</ele><time>2026-04-18T14:13:56Z</time></trkpt><trkpt lat="43.38712348239513" lon="10.643563030677905"><ele>260.0</ele><time>2026-04-18T14:13:57Z</time></trkpt><trkpt lat="43.38735914333327" lon="10.643612003851912"><ele>260.1666666666667</ele><time>2026-04-18T14:13:59Z</time></trkpt><trkpt lat="43.38745669752155" lon="10.643646375895093"><ele>260.33333333333337</ele><time>2026-04-18T14:14:00Z</time></trkpt><trkpt lat="43.38753205627804" lon="10.643681385802331"><ele>260.5</ele><time>2026-04-18T14:14:01Z</time></trkpt><trkpt lat="43.387614132283865" lon="10.643708407657906"><ele>260.6666666666667</ele><time>2026-04-18T14:14:03Z</time></trkpt><trkpt lat="43.387671873478624" lon="10.643598955008692"><ele>260.8333333333333</ele><time>2026-04-18T14:14:06Z</time></trkpt><trkpt lat="43.38767565495619" lon="10.643512326217449"><ele>261.0</ele><time>2026-04-18T14:14:08Z</time></trkpt><trkpt lat="43.38767843180161" lon="10.643407758213607"><ele>262.6</ele><time>2026-04-18T14:14:10Z</time></trkpt><trkpt lat="43.38767750108118" lon="10.643266996920238"><ele>264.20000000000005</ele><time>2026-04-18T14:14:12Z</time></trkpt><trkpt lat="43.38768342356003" lon="10.643145753302296"><ele>265.79999999999995</ele><time>2026-04-18T14:14:13Z</time></trkpt><trkpt lat="43.387694523223416" lon="10.642990412317708"><ele>267.4</ele><time>2026-04-18T14:14:14Z</time></trkpt><trkpt lat="43.38771058850615" lon="10.642795666368142"><ele>269.0</ele><time>2026-04-18T14:14:15Z</time></trkpt><trkpt lat="43.38772138923728" lon="10.642602624719592"><ele>270.0</ele><time>2026-04-18T14:14:16Z</time></trkpt><trkpt lat="43.38772691632659" lon="10.642450165343751"><ele>271.0</ele><time>2026-04-18T14:14:17Z</time></trkpt><trkpt lat="43.38774628488973" lon="10.642330864614959"><ele>272.0</ele><time>2026-04-18T14:14:18Z</time></trkpt><trkpt lat="43.38774817476187" lon="10.64221460592161"><ele>273.0</ele><time>2026-04-18T14:14:19Z</time></trkpt><trkpt lat="43.387762715233364" lon="10.642110813934604"><ele>274.0</ele><time>2026-04-18T14:14:20Z</time></trkpt><trkpt lat="43.38778524866457" lon="10.642025136621964"><ele>275.0</ele><time>2026-04-18T14:14:21Z</time></trkpt><trkpt lat="43.38787025333854" lon="10.641930560444438"><ele>275.6666666666667</ele><time>2026-04-18T14:14:23Z</time></trkpt><trkpt lat="43.387983140801715" lon="10.641900886690056"><ele>276.33333333333337</ele><time>2026-04-18T14:14:25Z</time></trkpt><trkpt lat="43.38804663706191" lon="10.641939911924176"><ele>277.0</ele><time>2026-04-18T14:14:26Z</time></trkpt><trkpt lat="43.388126037220616" lon="10.64196609449993"><ele>277.6666666666667</ele><time>2026-04-18T14:14:27Z</time></trkpt><trkpt lat="43.388205701591566" lon="10.641986147201811"><ele>278.3333333333333</ele><time>2026-04-18T14:14:28Z</time></trkpt><trkpt lat="43.3882954185743" lon="10.641989186412847"><ele>279.0</ele><time>2026-04-18T14:14:29Z</time></trkpt><trkpt lat="43.38836732392296" lon="10.642017179419554"><ele>280.59999999999997</ele><time>2026-04-18T14:14:30Z</time></trkpt><trkpt lat="43.3884571212595" lon="10.64204585830989"><ele>282.2</ele><time>2026-04-18T14:14:31Z</time></trkpt><trkpt lat="43.38858099868748" lon="10.642083650962734"><ele>283.79999999999995</ele><time>2026-04-18T14:14:32Z</time></trkpt><trkpt lat="43.38867542527954" lon="10.64210864537396"><ele>285.4</ele><time>2026-04-18T14:14:33Z</time></trkpt><trkpt lat="43.38873714686273" lon="10.6421325459792"><ele>287.0</ele><time>2026-04-18T14:14:34Z</time></trkpt><trkpt lat="43.388848139907054" lon="10.642110763699774"><ele>288.4</ele><time>2026-04-18T14:14:36.001Z</time></trkpt><trkpt lat="43.3889134368539" lon="10.642090327220735"><ele>289.79999999999995</ele><time>2026-04-18T14:14:37.001Z</time></trkpt><trkpt lat="43.38898596719587" lon="10.642062905372061"><ele>291.2</ele><time>2026-04-18T14:14:38.001Z</time></trkpt><trkpt lat="43.389052794977175" lon="10.642041572015097"><ele>292.59999999999997</ele><time>2026-04-18T14:14:39.001Z</time></trkpt><trkpt lat="43.38918574328858" lon="10.64198228898724"><ele>294.0</ele><time>2026-04-18T14:14:41.001Z</time></trkpt><trkpt lat="43.38929132312635" lon="10.641957618352304"><ele>297.75</ele><time>2026-04-18T14:14:42.001Z</time></trkpt><trkpt lat="43.38941680588353" lon="10.641953038476188"><ele>301.5</ele><time>2026-04-18T14:14:43.001Z</time></trkpt><trkpt lat="43.38955417170169" lon="10.64194802463522"><ele>305.25</ele><time>2026-04-18T14:14:44.001Z</time></trkpt><trkpt lat="43.38967125295306" lon="10.641914820480995"><ele>309.0</ele><time>2026-04-18T14:14:45.001Z</time></trkpt><trkpt lat="43.38976918257823" lon="10.641890268912965"><ele>310.0</ele><time>2026-04-18T14:14:46.001Z</time></trkpt><trkpt lat="43.389851711409875" lon="10.64187695931836"><ele>311.0</ele><time>2026-04-18T14:14:47.001Z</time></trkpt><trkpt lat="43.38995869044108" lon="10.641916276243347"><ele>312.0</ele><time>2026-04-18T14:14:48.001Z</time></trkpt><trkpt lat="43.39007291355454" lon="10.641945146555722"><ele>313.0</ele><time>2026-04-18T14:14:49.001Z</time></trkpt><trkpt lat="43.390206535103914" lon="10.641981320451988"><ele>314.0</ele><time>2026-04-18T14:14:50.001Z</time></trkpt><trkpt lat="43.390343566916435" lon="10.642006305563507"><ele>312.59999999999997</ele><time>2026-04-18T14:14:51.001Z</time></trkpt><trkpt lat="43.39046777663734" lon="10.642027375344952"><ele>311.2</ele><time>2026-04-18T14:14:52.001Z</time></trkpt><trkpt lat="43.39055233225471" lon="10.642020402745548"><ele>309.79999999999995</ele><time>2026-04-18T14:14:53.001Z</time></trkpt><trkpt lat="43.39065204267816" lon="10.642042734006264"><ele>308.4</ele><time>2026-04-18T14:14:54.001Z</time></trkpt><trkpt lat="43.39073238797015" lon="10.642047933880976"><ele>307.0</ele><time>2026-04-18T14:14:55.001Z</time></trkpt><trkpt lat="43.39080389649388" lon="10.642050971117458"><ele>307.0</ele><time>2026-04-18T14:14:56.001Z</time></trkpt><trkpt lat="43.390874189463794" lon="10.64202056192359"><ele>307.0</ele><time>2026-04-18T14:14:57.001Z</time></trkpt><trkpt lat="43.390941062758394" lon="10.641955411348304"><ele>307.0</ele><time>2026-04-18T14:14:58.001Z</time></trkpt><trkpt lat="43.39102067479353" lon="10.6418580139178"><ele>307.0</ele><time>2026-04-18T14:14:59.001Z</time></trkpt><trkpt lat="43.39109669151837" lon="10.641784260101435"><ele>307.0</ele><time>2026-04-18T14:15:00.001Z</time></trkpt><trkpt lat="43.3911647603394" lon="10.64175912049316"><ele>307.0</ele><time>2026-04-18T14:15:01.001Z</time></trkpt><trkpt lat="43.39124176655419" lon="10.641794297476268"><ele>309.6</ele><time>2026-04-18T14:15:02.001Z</time></trkpt><trkpt lat="43.39136104946628" lon="10.641924149648178"><ele>312.2</ele><time>2026-04-18T14:15:04.001Z</time></trkpt><trkpt lat="43.39143166447027" lon="10.641951848561366"><ele>314.8</ele><time>2026-04-18T14:15:05.001Z</time></trkpt><trkpt lat="43.39152242330569" lon="10.641957037747527"><ele>317.4</ele><time>2026-04-18T14:15:06.001Z</time></trkpt><trkpt lat="43.39161505268456" lon="10.64196098460552"><ele>320.0</ele><time>2026-04-18T14:15:07.001Z</time></trkpt><trkpt lat="43.391714756900946" lon="10.641942012570748"><ele>320.0</ele><time>2026-04-18T14:15:08.001Z</time></trkpt><trkpt lat="43.39183996466888" lon="10.641960349206473"><ele>320.0</ele><time>2026-04-18T14:15:09.001Z</time></trkpt><trkpt lat="43.391943407379756" lon="10.641958900825527"><ele>320.0</ele><time>2026-04-18T14:15:10.001Z</time></trkpt><trkpt lat="43.39205235284553" lon="10.641962531215961"><ele>320.0</ele><time>2026-04-18T14:15:11.001Z</time></trkpt><trkpt lat="43.39214549724748" lon="10.64195422277497"><ele>320.0</ele><time>2026-04-18T14:15:12.001Z</time></trkpt><trkpt lat="43.39225292811816" lon="10.641950714879961"><ele>321.6666666666667</ele><time>2026-04-18T14:15:13.001Z</time></trkpt><trkpt lat="43.39234779324556" lon="10.641947201242944"><ele>323.33333333333337</ele><time>2026-04-18T14:15:14.001Z</time></trkpt><trkpt lat="43.392429685540726" lon="10.641924915707799"><ele>325.0</ele><time>2026-04-18T14:15:15.001Z</time></trkpt><trkpt lat="43.39249866750627" lon="10.641886498865048"><ele>326.6666666666667</ele><time>2026-04-18T14:15:16.001Z</time></trkpt><trkpt lat="43.392553044329134" lon="10.641832744525214"><ele>328.3333333333333</ele><time>2026-04-18T14:15:17.001Z</time></trkpt><trkpt lat="43.392602752120624" lon="10.64175948336732"><ele>330.0</ele><time>2026-04-18T14:15:18.001Z</time></trkpt><trkpt lat="43.39264125734056" lon="10.641687146823879"><ele>330.0</ele><time>2026-04-18T14:15:19.001Z</time></trkpt><trkpt lat="43.39266911080753" lon="10.641594155232116"><ele>330.0</ele><time>2026-04-18T14:15:20.001Z</time></trkpt><trkpt lat="43.39269612693142" lon="10.641479308019983"><ele>330.0</ele><time>2026-04-18T14:15:21.001Z</time></trkpt><trkpt lat="43.392727884109334" lon="10.641351393638853"><ele>330.0</ele><time>2026-04-18T14:15:22.001Z</time></trkpt><trkpt lat="43.39276130698824" lon="10.64119222550666"><ele>330.0</ele><time>2026-04-18T14:15:23.001Z</time></trkpt><trkpt lat="43.39279743899159" lon="10.641048719580414"><ele>331.8</ele><time>2026-04-18T14:15:24.001Z</time></trkpt><trkpt lat="43.392830824877514" lon="10.640898167670878"><ele>333.6</ele><time>2026-04-18T14:15:25.001Z</time></trkpt><trkpt lat="43.3928738394641" lon="10.640731466714152"><ele>335.4</ele><time>2026-04-18T14:15:26.001Z</time></trkpt><trkpt lat="43.3929158307792" lon="10.64058750478869"><ele>337.2</ele><time>2026-04-18T14:15:27.001Z</time></trkpt><trkpt lat="43.39297127493611" lon="10.640499074166026"><ele>339.0</ele><time>2026-04-18T14:15:28.001Z</time></trkpt><trkpt lat="43.393012104800654" lon="10.640407426277417"><ele>341.2</ele><time>2026-04-18T14:15:29.001Z</time></trkpt><trkpt lat="43.39307644004761" lon="10.640350051503308"><ele>343.4</ele><time>2026-04-18T14:15:30.001Z</time></trkpt><trkpt lat="43.39316068433529" lon="10.640372644892768"><ele>345.6</ele><time>2026-04-18T14:15:31.001Z</time></trkpt><trkpt lat="43.39325265236176" lon="10.640452936527431"><ele>347.8</ele><time>2026-04-18T14:15:33.001Z</time></trkpt><trkpt lat="43.3933154024009" lon="10.640529647816784"><ele>350.0</ele><time>2026-04-18T14:15:34.001Z</time></trkpt><trkpt lat="43.393385263107426" lon="10.640624615908852"><ele>350.0</ele><time>2026-04-18T14:15:35.001Z</time></trkpt><trkpt lat="43.39346926008358" lon="10.64074210053647"><ele>350.0</ele><time>2026-04-18T14:15:36.001Z</time></trkpt><trkpt lat="43.39354524337036" lon="10.640850100912214"><ele>350.0</ele><time>2026-04-18T14:15:37.001Z</time></trkpt><trkpt lat="43.3936329703079" lon="10.640974792679202"><ele>350.0</ele><time>2026-04-18T14:15:38.001Z</time></trkpt><trkpt lat="43.39371904122665" lon="10.64110448486867"><ele>350.8</ele><time>2026-04-18T14:15:39.001Z</time></trkpt><trkpt lat="43.393781542214604" lon="10.64118230147181"><ele>351.6</ele><time>2026-04-18T14:15:40.001Z</time></trkpt><trkpt lat="43.39382583311985" lon="10.641254159122244"><ele>352.4</ele><time>2026-04-18T14:15:41.001Z</time></trkpt><trkpt lat="43.39390451454775" lon="10.641309206046907"><ele>353.2</ele><time>2026-04-18T14:15:43.002Z</time></trkpt><trkpt lat="43.3940153796016" lon="10.641297614841118"><ele>354.0</ele><time>2026-04-18T14:15:45.002Z</time></trkpt><trkpt lat="43.39417207990002" lon="10.641255290836789"><ele>354.0</ele><time>2026-04-18T14:15:47.002Z</time></trkpt><trkpt lat="43.394269303382465" lon="10.64124707423925"><ele>354.0</ele><time>2026-04-18T14:15:48Z</time></trkpt><trkpt lat="43.394379585552045" lon="10.641220711764927"><ele>354.0</ele><time>2026-04-18T14:15:49Z</time></trkpt><trkpt lat="43.394499023561046" lon="10.641196020765396"><ele>354.0</ele><time>2026-04-18T14:15:50Z</time></trkpt><trkpt lat="43.39460805507969" lon="10.641166445621376"><ele>354.0</ele><time>2026-04-18T14:15:51Z</time></trkpt><trkpt lat="43.39472222497473" lon="10.641146231385159"><ele>359.75</ele><time>2026-04-18T14:15:52Z</time></trkpt><trkpt lat="43.394833023946894" lon="10.64111396745778"><ele>365.5</ele><time>2026-04-18T14:15:53Z</time></trkpt><trkpt lat="43.39496034774396" lon="10.641085243709428"><ele>371.25</ele><time>2026-04-18T14:15:54Z</time></trkpt><trkpt lat="43.395071892250996" lon="10.641015073658703"><ele>377.0</ele><time>2026-04-18T14:15:55Z</time></trkpt><trkpt lat="43.3952034849871" lon="10.641007441950325"><ele>377.0</ele><time>2026-04-18T14:15:56Z</time></trkpt><trkpt lat="43.39534624191263" lon="10.640999095804892"><ele>377.0</ele><time>2026-04-18T14:15:57Z</time></trkpt><trkpt lat="43.39548028551266" lon="10.640975392424506"><ele>377.0</ele><time>2026-04-18T14:15:58Z</time></trkpt><trkpt lat="43.39559652332841" lon="10.640972780867454"><ele>377.0</ele><time>2026-04-18T14:15:59Z</time></trkpt><trkpt lat="43.395726005199336" lon="10.640960200605692"><ele>377.25</ele><time>2026-04-18T14:16:00Z</time></trkpt><trkpt lat="43.39584833533938" lon="10.640925814903065"><ele>377.5</ele><time>2026-04-18T14:16:01Z</time></trkpt><trkpt lat="43.39596428825263" lon="10.640929640265819"><ele>377.75</ele><time>2026-04-18T14:16:02Z</time></trkpt><trkpt lat="43.39608864711957" lon="10.640890539502639"><ele>378.0</ele><time>2026-04-18T14:16:03Z</time></trkpt><trkpt lat="43.39621368094241" lon="10.64085538770157"><ele>377.4</ele><time>2026-04-18T14:16:04Z</time></trkpt><trkpt lat="43.39634152619431" lon="10.640835449042966"><ele>376.79999999999995</ele><time>2026-04-18T14:16:05Z</time></trkpt><trkpt lat="43.39644811357332" lon="10.640805554350488"><ele>376.2</ele><time>2026-04-18T14:16:06Z</time></trkpt><trkpt lat="43.39653147608828" lon="10.640737126817735"><ele>375.6</ele><time>2026-04-18T14:16:07Z</time></trkpt><trkpt lat="43.39661433924583" lon="10.640725798507258"><ele>375.0</ele><time>2026-04-18T14:16:08Z</time></trkpt><trkpt lat="43.39669395753932" lon="10.640708480358057"><ele>375.0</ele><time>2026-04-18T14:16:09Z</time></trkpt><trkpt lat="43.396783836338784" lon="10.64069610212218"><ele>375.0</ele><time>2026-04-18T14:16:10Z</time></trkpt><trkpt lat="43.39687298360362" lon="10.640764323092478"><ele>375.0</ele><time>2026-04-18T14:16:11Z</time></trkpt><trkpt lat="43.39697857918497" lon="10.64081560526814"><ele>375.0</ele><time>2026-04-18T14:16:12Z</time></trkpt><trkpt lat="43.39708310186773" lon="10.640858257026043"><ele>375.0</ele><time>2026-04-18T14:16:13Z</time></trkpt><trkpt lat="43.39715997920888" lon="10.640885952586745"><ele>375.2</ele><time>2026-04-18T14:16:14Z</time></trkpt><trkpt lat="43.3972433608982" lon="10.640886990656599"><ele>375.4</ele><time>2026-04-18T14:16:15Z</time></trkpt><trkpt lat="43.39732805828413" lon="10.64093174421165"><ele>375.6</ele><time>2026-04-18T14:16:16Z</time></trkpt><trkpt lat="43.39743070900274" lon="10.640947527843503"><ele>375.8</ele><time>2026-04-18T14:16:17Z</time></trkpt><trkpt lat="43.39754026723583" lon="10.640934926209894"><ele>376.0</ele><time>2026-04-18T14:16:18Z</time></trkpt><trkpt lat="43.39765055554308" lon="10.640921379855438"><ele>376.0</ele><time>2026-04-18T14:16:19Z</time></trkpt><trkpt lat="43.39776437056112" lon="10.64091294167236"><ele>376.0</ele><time>2026-04-18T14:16:20Z</time></trkpt><trkpt lat="43.39788099537082" lon="10.640839690756655"><ele>376.0</ele><time>2026-04-18T14:16:21Z</time></trkpt><trkpt lat="43.39798463128045" lon="10.640725440443346"><ele>376.0</ele><time>2026-04-18T14:16:22Z</time></trkpt><trkpt lat="43.39809414200364" lon="10.640656631964116"><ele>376.4</ele><time>2026-04-18T14:16:23Z</time></trkpt><trkpt lat="43.39819985996962" lon="10.640603765553147"><ele>376.8</ele><time>2026-04-18T14:16:24Z</time></trkpt><trkpt lat="43.398301804166195" lon="10.640598017709365"><ele>377.2</ele><time>2026-04-18T14:16:25Z</time></trkpt><trkpt lat="43.398404358608616" lon="10.640585322132381"><ele>377.59999999999997</ele><time>2026-04-18T14:16:26Z</time></trkpt><trkpt lat="43.39853372071955" lon="10.640560273384098"><ele>378.0</ele><time>2026-04-18T14:16:27Z</time></trkpt><trkpt lat="43.398661250018" lon="10.64055528467915"><ele>378.0</ele><time>2026-04-18T14:16:28Z</time></trkpt><trkpt lat="43.39878760414126" lon="10.640549731457911"><ele>378.0</ele><time>2026-04-18T14:16:29Z</time></trkpt><trkpt lat="43.39890551777137" lon="10.640571176616051"><ele>378.0</ele><time>2026-04-18T14:16:30Z</time></trkpt><trkpt lat="43.39902342748578" lon="10.640606380446124"><ele>378.0</ele><time>2026-04-18T14:16:31Z</time></trkpt><trkpt lat="43.3991368791325" lon="10.640655365363736"><ele>380.0</ele><time>2026-04-18T14:16:32Z</time></trkpt><trkpt lat="43.39925192608467" lon="10.640717318707104"><ele>382.0</ele><time>2026-04-18T14:16:33Z</time></trkpt><trkpt lat="43.399351327302604" lon="10.640779160833317"><ele>384.0</ele><time>2026-04-18T14:16:34Z</time></trkpt><trkpt lat="43.399448755337865" lon="10.640851297449254"><ele>386.0</ele><time>2026-04-18T14:16:35Z</time></trkpt><trkpt lat="43.39953786548331" lon="10.64094115077456"><ele>385.99999999999994</ele><time>2026-04-18T14:16:36Z</time></trkpt><trkpt lat="43.399628003390916" lon="10.641034168343547"><ele>386.0</ele><time>2026-04-18T14:16:37Z</time></trkpt><trkpt lat="43.39970083382193" lon="10.641088191732827"><ele>386.0</ele><time>2026-04-18T14:16:38Z</time></trkpt><trkpt lat="43.399801684401645" lon="10.641117957019873"><ele>386.0</ele><time>2026-04-18T14:16:40Z</time></trkpt><trkpt lat="43.39986130656532" lon="10.641076532954177"><ele>385.99999999999994</ele><time>2026-04-18T14:16:42Z</time></trkpt><trkpt lat="43.39985819797792" lon="10.640985730362134"><ele>386.0</ele><time>2026-04-18T14:16:52.001Z</time></trkpt><trkpt lat="43.399807037731584" lon="10.64090258186152"><ele>386.00000000000006</ele><time>2026-04-18T14:16:54.001Z</time></trkpt><trkpt lat="43.39975469553497" lon="10.640849305056001"><ele>386.0</ele><time>2026-04-18T14:16:55.001Z</time></trkpt><trkpt lat="43.399696995570125" lon="10.64078560142865"><ele>386.0</ele><time>2026-04-18T14:16:56.001Z</time></trkpt><trkpt lat="43.399640308777414" lon="10.640708153694591"><ele>386.0</ele><time>2026-04-18T14:16:57.001Z</time></trkpt><trkpt lat="43.399584463698446" lon="10.640638135788652"><ele>386.0</ele><time>2026-04-18T14:16:58.001Z</time></trkpt><trkpt lat="43.39955715506466" lon="10.640540040802675"><ele>386.00000000000006</ele><time>2026-04-18T14:16:59.001Z</time></trkpt><trkpt lat="43.39954021927262" lon="10.640438582208692"><ele>386.0</ele><time>2026-04-18T14:17:00.001Z</time></trkpt><trkpt lat="43.39955066202302" lon="10.640345427113017"><ele>388.20000000000005</ele><time>2026-04-18T14:17:01.001Z</time></trkpt><trkpt lat="43.399568557609456" lon="10.640224338111052"><ele>390.40000000000003</ele><time>2026-04-18T14:17:02.001Z</time></trkpt><trkpt lat="43.39956348875807" lon="10.640082025616564"><ele>392.6</ele><time>2026-04-18T14:17:03.001Z</time></trkpt><trkpt lat="43.39955388378833" lon="10.639920320456957"><ele>394.8</ele><time>2026-04-18T14:17:04.001Z</time></trkpt><trkpt lat="43.39951947673583" lon="10.639764314454268"><ele>397.0</ele><time>2026-04-18T14:17:05.001Z</time></trkpt><trkpt lat="43.39948118344045" lon="10.639607201090332"><ele>400.0</ele><time>2026-04-18T14:17:06.001Z</time></trkpt><trkpt lat="43.39944089085616" lon="10.639465391588612"><ele>403.0</ele><time>2026-04-18T14:17:07.001Z</time></trkpt><trkpt lat="43.3993807147332" lon="10.639339072649307"><ele>406.0</ele><time>2026-04-18T14:17:08.001Z</time></trkpt><trkpt lat="43.399335325532185" lon="10.639198211284738"><ele>409.0</ele><time>2026-04-18T14:17:09.001Z</time></trkpt><trkpt lat="43.39927605304471" lon="10.63907871629107"><ele>412.0</ele><time>2026-04-18T14:17:10.001Z</time></trkpt><trkpt lat="43.39921299232017" lon="10.638963846968496"><ele>412.0</ele><time>2026-04-18T14:17:11.001Z</time></trkpt><trkpt lat="43.39914119626938" lon="10.638850893897423"><ele>412.0</ele><time>2026-04-18T14:17:12.001Z</time></trkpt><trkpt lat="43.39906772259516" lon="10.638737725948593"><ele>412.0</ele><time>2026-04-18T14:17:13.001Z</time></trkpt><trkpt lat="43.39899932216753" lon="10.638632372049456"><ele>412.0</ele><time>2026-04-18T14:17:14.001Z</time></trkpt><trkpt lat="43.398945396006226" lon="10.638549312204876"><ele>412.0</ele><time>2026-04-18T14:17:15.001Z</time></trkpt><trkpt lat="43.398904134233206" lon="10.638478983398166"><ele>414.40000000000003</ele><time>2026-04-18T14:17:16.001Z</time></trkpt><trkpt lat="43.39886769951501" lon="10.638373317326733"><ele>416.8</ele><time>2026-04-18T14:17:17.001Z</time></trkpt><trkpt lat="43.39885860024925" lon="10.638249967643711"><ele>419.2</ele><time>2026-04-18T14:17:18.001Z</time></trkpt><trkpt lat="43.39888697325188" lon="10.638124656164312"><ele>421.6</ele><time>2026-04-18T14:17:19.001Z</time></trkpt><trkpt lat="43.39889460604184" lon="10.637983112878553"><ele>424.0</ele><time>2026-04-18T14:17:20.001Z</time></trkpt><trkpt lat="43.39887587005214" lon="10.63783388910819"><ele>424.75</ele><time>2026-04-18T14:17:21.001Z</time></trkpt><trkpt lat="43.39885461035649" lon="10.637676568696193"><ele>425.5</ele><time>2026-04-18T14:17:22.001Z</time></trkpt><trkpt lat="43.39881040084912" lon="10.637502472945348"><ele>426.25</ele><time>2026-04-18T14:17:23.001Z</time></trkpt><trkpt lat="43.39876861369169" lon="10.637327677782887"><ele>427.0</ele><time>2026-04-18T14:17:24.001Z</time></trkpt><trkpt lat="43.398719632643804" lon="10.637170340991997"><ele>428.0</ele><time>2026-04-18T14:17:25.001Z</time></trkpt><trkpt lat="43.39866623920913" lon="10.637033771166665"><ele>429.00000000000006</ele><time>2026-04-18T14:17:26.001Z</time></trkpt><trkpt lat="43.39859315474202" lon="10.636937922502618"><ele>430.00000000000006</ele><time>2026-04-18T14:17:27.001Z</time></trkpt><trkpt lat="43.3985161140992" lon="10.636868460235231"><ele>431.0</ele><time>2026-04-18T14:17:28.001Z</time></trkpt><trkpt lat="43.39842726288043" lon="10.636782668086635"><ele>432.0</ele><time>2026-04-18T14:17:29.001Z</time></trkpt><trkpt lat="43.398339526887334" lon="10.636714989931152"><ele>434.75</ele><time>2026-04-18T14:17:30.001Z</time></trkpt><trkpt lat="43.398249334664946" lon="10.636638250209284"><ele>437.5</ele><time>2026-04-18T14:17:31.001Z</time></trkpt><trkpt lat="43.398151754694304" lon="10.636552782925985"><ele>440.25</ele><time>2026-04-18T14:17:32.001Z</time></trkpt><trkpt lat="43.39804610399605" lon="10.636441021770153"><ele>443.0</ele><time>2026-04-18T14:17:33.001Z</time></trkpt><trkpt lat="43.397960646787304" lon="10.636329066690964"><ele>444.25</ele><time>2026-04-18T14:17:34.001Z</time></trkpt><trkpt lat="43.39788228440507" lon="10.63621237673751"><ele>445.5</ele><time>2026-04-18T14:17:35.001Z</time></trkpt><trkpt lat="43.397807390639066" lon="10.636092303022998"><ele>446.75</ele><time>2026-04-18T14:17:36.001Z</time></trkpt><trkpt lat="43.397729058447624" lon="10.635967423433046"><ele>448.0</ele><time>2026-04-18T14:17:37.001Z</time></trkpt><trkpt lat="43.39763483737312" lon="10.635819498760444"><ele>450.5</ele><time>2026-04-18T14:17:38.001Z</time></trkpt><trkpt lat="43.397536403796366" lon="10.635696344468071"><ele>453.0</ele><time>2026-04-18T14:17:39.001Z</time></trkpt><trkpt lat="43.39745268170297" lon="10.635541004420773"><ele>455.5</ele><time>2026-04-18T14:17:40.001Z</time></trkpt><trkpt lat="43.39739158011092" lon="10.635411908358906"><ele>458.0</ele><time>2026-04-18T14:17:41.001Z</time></trkpt><trkpt lat="43.397352790591725" lon="10.635295762232403"><ele>460.5</ele><time>2026-04-18T14:17:42.001Z</time></trkpt><trkpt lat="43.39733424115645" lon="10.635171780788069"><ele>463.0</ele><time>2026-04-18T14:17:43.001Z</time></trkpt><trkpt lat="43.39733732492911" lon="10.635000526949609"><ele>465.5</ele><time>2026-04-18T14:17:44.001Z</time></trkpt><trkpt lat="43.3973411291642" lon="10.634812368040105"><ele>468.0</ele><time>2026-04-18T14:17:45.001Z</time></trkpt><trkpt lat="43.39733096367489" lon="10.634640258136058"><ele>468.0</ele><time>2026-04-18T14:17:46.001Z</time></trkpt><trkpt lat="43.3973420480744" lon="10.634486305882612"><ele>467.99999999999994</ele><time>2026-04-18T14:17:47.001Z</time></trkpt><trkpt lat="43.39734623355225" lon="10.634369671721267"><ele>467.99999999999994</ele><time>2026-04-18T14:17:48.001Z</time></trkpt><trkpt lat="43.397360233625975" lon="10.634244229718856"><ele>468.0</ele><time>2026-04-18T14:17:49.001Z</time></trkpt><trkpt lat="43.397390240426354" lon="10.634102125701352"><ele>468.0</ele><time>2026-04-18T14:17:50.001Z</time></trkpt><trkpt lat="43.397427238517935" lon="10.63394415310726"><ele>468.2</ele><time>2026-04-18T14:17:51.001Z</time></trkpt><trkpt lat="43.39746164803949" lon="10.633794372738175"><ele>468.4</ele><time>2026-04-18T14:17:52.001Z</time></trkpt><trkpt lat="43.39748528303196" lon="10.633667697162144"><ele>468.59999999999997</ele><time>2026-04-18T14:17:53.001Z</time></trkpt><trkpt lat="43.397505484177714" lon="10.633572444641764"><ele>468.79999999999995</ele><time>2026-04-18T14:17:54Z</time></trkpt><trkpt lat="43.3975298796938" lon="10.633442369260274"><ele>469.0</ele><time>2026-04-18T14:17:56Z</time></trkpt><trkpt lat="43.39756046341446" lon="10.633270799061489"><ele>468.79999999999995</ele><time>2026-04-18T14:17:58Z</time></trkpt><trkpt lat="43.39758294001015" lon="10.633147182955684"><ele>468.59999999999997</ele><time>2026-04-18T14:17:59Z</time></trkpt><trkpt lat="43.397609998981444" lon="10.633018323400217"><ele>468.4</ele><time>2026-04-18T14:18:00Z</time></trkpt><trkpt lat="43.397638313364034" lon="10.632885057034684"><ele>468.2</ele><time>2026-04-18T14:18:01Z</time></trkpt><trkpt lat="43.397660683706" lon="10.632765760980707"><ele>468.0</ele><time>2026-04-18T14:18:02Z</time></trkpt><trkpt lat="43.39768093082326" lon="10.632668047167169"><ele>468.0</ele><time>2026-04-18T14:18:03Z</time></trkpt><trkpt lat="43.39769976187911" lon="10.63257168093007"><ele>468.0</ele><time>2026-04-18T14:18:04Z</time></trkpt><trkpt lat="43.39771913505052" lon="10.632487922169156"><ele>468.0</ele><time>2026-04-18T14:18:05Z</time></trkpt><trkpt lat="43.39774362933966" lon="10.632371405139862"><ele>468.0</ele><time>2026-04-18T14:18:07Z</time></trkpt><trkpt lat="43.397757411621825" lon="10.632245149465664"><ele>468.0</ele><time>2026-04-18T14:19:13.001Z</time></trkpt><trkpt lat="43.39778282377433" lon="10.63207351949118"><ele>468.0</ele><time>2026-04-18T14:19:15.001Z</time></trkpt><trkpt lat="43.397805607219716" lon="10.63196537591647"><ele>468.59999999999997</ele><time>2026-04-18T14:19:16.001Z</time></trkpt><trkpt lat="43.397839384683984" lon="10.631874249019361"><ele>469.19999999999993</ele><time>2026-04-18T14:19:17.001Z</time></trkpt><trkpt lat="43.39789846003148" lon="10.631722391362139"><ele>469.8</ele><time>2026-04-18T14:19:18.001Z</time></trkpt><trkpt lat="43.39796018742044" lon="10.63160688025593"><ele>470.4</ele><time>2026-04-18T14:19:19.001Z</time></trkpt><trkpt lat="43.39801804903289" lon="10.631511253072075"><ele>471.0</ele><time>2026-04-18T14:19:20.001Z</time></trkpt><trkpt lat="43.398070848493205" lon="10.631414373812015"><ele>471.3333333333333</ele><time>2026-04-18T14:19:21.001Z</time></trkpt><trkpt lat="43.3981239573775" lon="10.6313176424785"><ele>471.66666666666663</ele><time>2026-04-18T14:19:22.001Z</time></trkpt><trkpt lat="43.39815760258881" lon="10.631210058051737"><ele>472.0</ele><time>2026-04-18T14:19:23.001Z</time></trkpt><trkpt lat="43.39819278973931" lon="10.631119064611747"><ele>472.3333333333333</ele><time>2026-04-18T14:19:24.001Z</time></trkpt><trkpt lat="43.398220633019776" lon="10.63102131241204"><ele>472.66666666666663</ele><time>2026-04-18T14:19:25.001Z</time></trkpt><trkpt lat="43.39823915302479" lon="10.63090618537797"><ele>473.0</ele><time>2026-04-18T14:19:26.001Z</time></trkpt><trkpt lat="43.3982414046762" lon="10.630779581294492"><ele>474.2</ele><time>2026-04-18T14:19:27.001Z</time></trkpt><trkpt lat="43.398220774187585" lon="10.630642998936363"><ele>475.4</ele><time>2026-04-18T14:19:28.001Z</time></trkpt><trkpt lat="43.39818781890777" lon="10.630515140112744"><ele>476.59999999999997</ele><time>2026-04-18T14:19:29.001Z</time></trkpt><trkpt lat="43.398156988713694" lon="10.63039342830662"><ele>477.79999999999995</ele><time>2026-04-18T14:19:30.001Z</time></trkpt><trkpt lat="43.3981236817826" lon="10.630270598546383"><ele>479.0</ele><time>2026-04-18T14:19:31.001Z</time></trkpt><trkpt lat="43.39813294171746" lon="10.63017291931296"><ele>481.4</ele><time>2026-04-18T14:19:32.001Z</time></trkpt><trkpt lat="43.398117252398016" lon="10.630057519521614"><ele>483.79999999999995</ele><time>2026-04-18T14:19:33.001Z</time></trkpt><trkpt lat="43.3981246143973" lon="10.629922455893096"><ele>486.20000000000005</ele><time>2026-04-18T14:19:34.001Z</time></trkpt><trkpt lat="43.39814785673145" lon="10.629785040724812"><ele>488.6</ele><time>2026-04-18T14:19:35.001Z</time></trkpt><trkpt lat="43.39815985552336" lon="10.629641581583526"><ele>491.0</ele><time>2026-04-18T14:19:36.001Z</time></trkpt><trkpt lat="43.398152668667294" lon="10.62949541686074"><ele>492.0</ele><time>2026-04-18T14:19:37.001Z</time></trkpt><trkpt lat="43.398152416113206" lon="10.629335241886427"><ele>493.0</ele><time>2026-04-18T14:19:38.001Z</time></trkpt><trkpt lat="43.398154274062996" lon="10.62917859243612"><ele>494.0</ele><time>2026-04-18T14:19:39.001Z</time></trkpt><trkpt lat="43.39814691097348" lon="10.62902540222634"><ele>495.0</ele><time>2026-04-18T14:19:40.001Z</time></trkpt><trkpt lat="43.3981558618521" lon="10.628874874352862"><ele>495.0</ele><time>2026-04-18T14:19:41.001Z</time></trkpt><trkpt lat="43.39815526884831" lon="10.628710546538406"><ele>495.0</ele><time>2026-04-18T14:19:42.001Z</time></trkpt><trkpt lat="43.39816757742008" lon="10.628549523340764"><ele>495.0</ele><time>2026-04-18T14:19:43.001Z</time></trkpt><trkpt lat="43.398150009751824" lon="10.62839806048176"><ele>495.0</ele><time>2026-04-18T14:19:44.001Z</time></trkpt><trkpt lat="43.39815628189962" lon="10.628267432916806"><ele>495.0</ele><time>2026-04-18T14:19:45.001Z</time></trkpt><trkpt lat="43.39814994479885" lon="10.628143310436545"><ele>495.3333333333333</ele><time>2026-04-18T14:19:46.001Z</time></trkpt><trkpt lat="43.39814376716098" lon="10.628036587650332"><ele>495.66666666666663</ele><time>2026-04-18T14:19:47.001Z</time></trkpt><trkpt lat="43.398151489865306" lon="10.6279391639805"><ele>496.0</ele><time>2026-04-18T14:19:48.001Z</time></trkpt><trkpt lat="43.398158357187384" lon="10.627841263968671"><ele>496.3333333333333</ele><time>2026-04-18T14:19:49.001Z</time></trkpt><trkpt lat="43.39814840784637" lon="10.627747375279384"><ele>496.66666666666663</ele><time>2026-04-18T14:19:50.001Z</time></trkpt><trkpt lat="43.39815332864513" lon="10.627637428429463"><ele>497.0</ele><time>2026-04-18T14:19:51.001Z</time></trkpt><trkpt lat="43.39812480068582" lon="10.62751819229724"><ele>497.8</ele><time>2026-04-18T14:19:52.001Z</time></trkpt><trkpt lat="43.39808239277478" lon="10.62741186557408"><ele>498.6</ele><time>2026-04-18T14:19:53.001Z</time></trkpt><trkpt lat="43.39803183675504" lon="10.627282792900289"><ele>499.40000000000003</ele><time>2026-04-18T14:19:54.001Z</time></trkpt><trkpt lat="43.397985576153665" lon="10.627141351147134"><ele>500.20000000000005</ele><time>2026-04-18T14:19:55.001Z</time></trkpt><trkpt lat="43.3979636407848" lon="10.627036399794141"><ele>501.0</ele><time>2026-04-18T14:19:56.001Z</time></trkpt><trkpt lat="43.397982012885954" lon="10.626893382035938"><ele>502.6666666666667</ele><time>2026-04-18T14:19:58.001Z</time></trkpt><trkpt lat="43.398014225888396" lon="10.626816919150563"><ele>504.33333333333337</ele><time>2026-04-18T14:19:59.001Z</time></trkpt><trkpt lat="43.398067472714445" lon="10.626734368076457"><ele>506.0</ele><time>2026-04-18T14:20:00Z</time></trkpt><trkpt lat="43.39812767307311" lon="10.62665892988331"><ele>507.6666666666667</ele><time>2026-04-18T14:20:01Z</time></trkpt><trkpt lat="43.39819564598292" lon="10.62656721348452"><ele>509.33333333333337</ele><time>2026-04-18T14:20:02Z</time></trkpt><trkpt lat="43.398279522300456" lon="10.626488055779289"><ele>511.0</ele><time>2026-04-18T14:20:03Z</time></trkpt><trkpt lat="43.398361614302026" lon="10.626424792491166"><ele>511.0</ele><time>2026-04-18T14:20:04Z</time></trkpt><trkpt lat="43.398437346203146" lon="10.626349506819118"><ele>511.0</ele><time>2026-04-18T14:20:05Z</time></trkpt><trkpt lat="43.39851064334894" lon="10.626290928468515"><ele>511.0</ele><time>2026-04-18T14:20:06Z</time></trkpt><trkpt lat="43.39855759436264" lon="10.626203704955055"><ele>511.0</ele><time>2026-04-18T14:20:07Z</time></trkpt><trkpt lat="43.39858622945003" lon="10.626031276564134"><ele>511.0</ele><time>2026-04-18T14:20:09Z</time></trkpt><trkpt lat="43.39854585766508" lon="10.625912244682151"><ele>513.75</ele><time>2026-04-18T14:20:11Z</time></trkpt><trkpt lat="43.3985194065807" lon="10.625804763892079"><ele>516.5</ele><time>2026-04-18T14:20:28Z</time></trkpt><trkpt lat="43.39843694369401" lon="10.625638891069395"><ele>519.25</ele><time>2026-04-18T14:20:39Z</time></trkpt><trkpt lat="43.39839993125941" lon="10.625564441136802"><ele>522.0</ele><time>2026-04-18T14:20:40Z</time></trkpt><trkpt lat="43.398122809351676" lon="10.6254075256605"><ele>523.0</ele><time>2026-04-18T14:20:41Z</time></trkpt><trkpt lat="43.39812071859286" lon="10.625304070134234"><ele>524.0</ele><time>2026-04-18T14:20:42Z</time></trkpt><trkpt lat="43.398120900414284" lon="10.62519447978245"><ele>525.0</ele><time>2026-04-18T14:20:43Z</time></trkpt><trkpt lat="43.3981230512246" lon="10.62507480427272"><ele>526.0</ele><time>2026-04-18T14:20:44Z</time></trkpt><trkpt lat="43.39812876102445" lon="10.624944524959936"><ele>527.0</ele><time>2026-04-18T14:20:45Z</time></trkpt><trkpt lat="43.39813277983104" lon="10.624845785399842"><ele>528.0</ele><time>2026-04-18T14:20:46Z</time></trkpt><trkpt lat="43.39813807172622" lon="10.624667900317927"><ele>528.0</ele><time>2026-04-18T14:20:48Z</time></trkpt><trkpt lat="43.3981392762618" lon="10.624578899127652"><ele>528.0</ele><time>2026-04-18T14:20:49Z</time></trkpt><trkpt lat="43.39814090170693" lon="10.624484621520192"><ele>528.0</ele><time>2026-04-18T14:20:50Z</time></trkpt><trkpt lat="43.398130619704816" lon="10.624388110464174"><ele>528.0</ele><time>2026-04-18T14:20:51Z</time></trkpt><trkpt lat="43.3981044245027" lon="10.624291257077289"><ele>528.0</ele><time>2026-04-18T14:20:53Z</time></trkpt><trkpt lat="43.39808183038891" lon="10.624144639315496"><ele>528.0</ele><time>2026-04-18T14:20:56Z</time></trkpt><trkpt lat="43.39806523334145" lon="10.624050375431699"><ele>528.8</ele><time>2026-04-18T14:20:58Z</time></trkpt><trkpt lat="43.39802940169398" lon="10.623894322131063"><ele>529.5999999999999</ele><time>2026-04-18T14:21:00.001Z</time></trkpt><trkpt lat="43.398042259454336" lon="10.623771780127006"><ele>530.4000000000001</ele><time>2026-04-18T14:21:01.001Z</time></trkpt><trkpt lat="43.39807429359115" lon="10.623642095639273"><ele>531.2</ele><time>2026-04-18T14:21:02.001Z</time></trkpt><trkpt lat="43.398140347208866" lon="10.623558947826805"><ele>532.0</ele><time>2026-04-18T14:21:03.001Z</time></trkpt><trkpt lat="43.39819403377131" lon="10.623439888013756"><ele>532.4</ele><time>2026-04-18T14:21:04.001Z</time></trkpt><trkpt lat="43.398280887099794" lon="10.62332749478851"><ele>532.8000000000001</ele><time>2026-04-18T14:21:05.001Z</time></trkpt><trkpt lat="43.39834405577162" lon="10.623206696259055"><ele>533.2</ele><time>2026-04-18T14:21:06.001Z</time></trkpt><trkpt lat="43.3983943975512" lon="10.62308603582282"><ele>533.6</ele><time>2026-04-18T14:21:07.001Z</time></trkpt><trkpt lat="43.39843049481703" lon="10.622977006998918"><ele>534.0</ele><time>2026-04-18T14:21:08.001Z</time></trkpt><trkpt lat="43.39846347443052" lon="10.622874788728291"><ele>534.4</ele><time>2026-04-18T14:21:09.001Z</time></trkpt><trkpt lat="43.398472309880574" lon="10.622778954399237"><ele>534.8</ele><time>2026-04-18T14:21:10.001Z</time></trkpt><trkpt lat="43.39847199784947" lon="10.622663755483986"><ele>535.2</ele><time>2026-04-18T14:21:11.001Z</time></trkpt><trkpt lat="43.39846089894918" lon="10.622504406036692"><ele>535.6</ele><time>2026-04-18T14:21:12.001Z</time></trkpt><trkpt lat="43.39844924714197" lon="10.622352240871411"><ele>536.0</ele><time>2026-04-18T14:21:13.001Z</time></trkpt><trkpt lat="43.39846716408267" lon="10.622230710927951"><ele>536.0</ele><time>2026-04-18T14:21:14.001Z</time></trkpt><trkpt lat="43.39850869565983" lon="10.62211709462497"><ele>536.0</ele><time>2026-04-18T14:21:15.001Z</time></trkpt><trkpt lat="43.39856599610936" lon="10.621993977298509"><ele>536.0</ele><time>2026-04-18T14:21:16.001Z</time></trkpt><trkpt lat="43.39862646648089" lon="10.621881909432537"><ele>536.0</ele><time>2026-04-18T14:21:17.001Z</time></trkpt><trkpt lat="43.39868333935478" lon="10.621799766776041"><ele>536.0</ele><time>2026-04-18T14:21:18.001Z</time></trkpt><trkpt lat="43.39873410977943" lon="10.621737623263973"><ele>536.0</ele><time>2026-04-18T14:21:19.001Z</time></trkpt><trkpt lat="43.39877537902228" lon="10.621662695044323"><ele>536.0</ele><time>2026-04-18T14:21:20.001Z</time></trkpt><trkpt lat="43.39879414655152" lon="10.621569023364204"><ele>536.0</ele><time>2026-04-18T14:21:21.001Z</time></trkpt><trkpt lat="43.39879440187348" lon="10.621460759976582"><ele>536.0</ele><time>2026-04-18T14:21:22.001Z</time></trkpt><trkpt lat="43.39877637484114" lon="10.621324512948727"><ele>536.0</ele><time>2026-04-18T14:21:23.001Z</time></trkpt><trkpt lat="43.39877228457791" lon="10.621184708502893"><ele>536.0</ele><time>2026-04-18T14:21:24.001Z</time></trkpt><trkpt lat="43.39877396299293" lon="10.621062614119277"><ele>536.2</ele><time>2026-04-18T14:21:25.001Z</time></trkpt><trkpt lat="43.39878199011721" lon="10.620937254961488"><ele>536.4000000000001</ele><time>2026-04-18T14:21:26.001Z</time></trkpt><trkpt lat="43.3988232743892" lon="10.620824380610031"><ele>536.6</ele><time>2026-04-18T14:21:27.001Z</time></trkpt><trkpt lat="43.3988883519943" lon="10.620689415101664"><ele>536.8000000000001</ele><time>2026-04-18T14:21:28.001Z</time></trkpt><trkpt lat="43.39896502263406" lon="10.620552866299779"><ele>537.0</ele><time>2026-04-18T14:21:29.001Z</time></trkpt><trkpt lat="43.399053062234096" lon="10.620410581035122"><ele>536.0</ele><time>2026-04-18T14:21:30.001Z</time></trkpt><trkpt lat="43.3991404779793" lon="10.620262968832183"><ele>535.0</ele><time>2026-04-18T14:21:31.001Z</time></trkpt><trkpt lat="43.39921428946427" lon="10.62010132470154"><ele>534.0</ele><time>2026-04-18T14:21:32.001Z</time></trkpt><trkpt lat="43.399280514894166" lon="10.619936851543986"><ele>533.0</ele><time>2026-04-18T14:21:33.001Z</time></trkpt><trkpt lat="43.39933867146943" lon="10.619791578416493"><ele>533.0</ele><time>2026-04-18T14:21:34.001Z</time></trkpt><trkpt lat="43.39939817883902" lon="10.619671795373897"><ele>533.0</ele><time>2026-04-18T14:21:35.001Z</time></trkpt><trkpt lat="43.399440032077614" lon="10.619547184189061"><ele>533.0</ele><time>2026-04-18T14:21:36.001Z</time></trkpt><trkpt lat="43.399472141447085" lon="10.619389840786303"><ele>533.0</ele><time>2026-04-18T14:21:37.001Z</time></trkpt><trkpt lat="43.3994908712623" lon="10.619207143411927"><ele>532.8</ele><time>2026-04-18T14:21:38.001Z</time></trkpt><trkpt lat="43.39949323425654" lon="10.6190308702413"><ele>532.5999999999999</ele><time>2026-04-18T14:21:39.001Z</time></trkpt><trkpt lat="43.39949935472052" lon="10.618903072495593"><ele>532.4000000000001</ele><time>2026-04-18T14:21:40.001Z</time></trkpt><trkpt lat="43.399501687969014" lon="10.618799166090536"><ele>532.2</ele><time>2026-04-18T14:21:41.001Z</time></trkpt><trkpt lat="43.399506275240626" lon="10.618665219132938"><ele>532.0</ele><time>2026-04-18T14:21:43.001Z</time></trkpt><trkpt lat="43.39951932412463" lon="10.618567893234003"><ele>532.0</ele><time>2026-04-18T14:21:45.001Z</time></trkpt><trkpt lat="43.399614103415" lon="10.618583142622272"><ele>532.0</ele><time>2026-04-18T14:21:53.001Z</time></trkpt><trkpt lat="43.399676614472895" lon="10.618630165148753"><ele>532.0</ele><time>2026-04-18T14:22:00.001Z</time></trkpt><trkpt lat="43.39974381964818" lon="10.618682375639244"><ele>532.0</ele><time>2026-04-18T14:22:03.001Z</time></trkpt><trkpt lat="43.399821983815855" lon="10.618725393845322"><ele>532.0</ele><time>2026-04-18T14:22:04.001Z</time></trkpt><trkpt lat="43.39991915509592" lon="10.6187851657506"><ele>532.0</ele><time>2026-04-18T14:22:05.001Z</time></trkpt><trkpt lat="43.40002322480426" lon="10.618867337740149"><ele>531.25</ele><time>2026-04-18T14:22:06Z</time></trkpt><trkpt lat="43.40013924728012" lon="10.618973687170458"><ele>530.5</ele><time>2026-04-18T14:22:07Z</time></trkpt><trkpt lat="43.40026589218888" lon="10.619081412871498"><ele>529.75</ele><time>2026-04-18T14:22:08Z</time></trkpt><trkpt lat="43.40038053903428" lon="10.619169015366092"><ele>529.0</ele><time>2026-04-18T14:22:09Z</time></trkpt><trkpt lat="43.4005051705946" lon="10.619247536212622"><ele>529.0</ele><time>2026-04-18T14:22:10Z</time></trkpt><trkpt lat="43.400629279789044" lon="10.619291940659066"><ele>529.0</ele><time>2026-04-18T14:22:11Z</time></trkpt><trkpt lat="43.400760914659" lon="10.619309761979414"><ele>529.0</ele><time>2026-04-18T14:22:12Z</time></trkpt><trkpt lat="43.4008870744674" lon="10.619310854962881"><ele>529.0</ele><time>2026-04-18T14:22:13Z</time></trkpt><trkpt lat="43.40098665731268" lon="10.6193052763458"><ele>529.0</ele><time>2026-04-18T14:22:14Z</time></trkpt><trkpt lat="43.401095074824845" lon="10.61929089438132"><ele>529.0</ele><time>2026-04-18T14:22:15Z</time></trkpt><trkpt lat="43.4011911288632" lon="10.619229274680254"><ele>529.0</ele><time>2026-04-18T14:22:16Z</time></trkpt><trkpt lat="43.401295393080524" lon="10.619162221821325"><ele>529.0</ele><time>2026-04-18T14:22:17Z</time></trkpt><trkpt lat="43.40138849371777" lon="10.619185422097178"><ele>529.0</ele><time>2026-04-18T14:22:18Z</time></trkpt><trkpt lat="43.40148112217167" lon="10.619204983962742"><ele>527.5</ele><time>2026-04-18T14:22:19Z</time></trkpt><trkpt lat="43.4015831070709" lon="10.619279094945833"><ele>526.0</ele><time>2026-04-18T14:22:20Z</time></trkpt><trkpt lat="43.40167050166352" lon="10.619367397179353"><ele>524.5</ele><time>2026-04-18T14:22:21Z</time></trkpt><trkpt lat="43.40175934175508" lon="10.619438688365657"><ele>523.0</ele><time>2026-04-18T14:22:22Z</time></trkpt><trkpt lat="43.40199748395673" lon="10.619625644074933"><ele>515.3333333333334</ele><time>2026-04-18T14:22:23Z</time></trkpt><trkpt lat="43.40216746134672" lon="10.61972249974928"><ele>507.66666666666663</ele><time>2026-04-18T14:22:24Z</time></trkpt><trkpt lat="43.40230904257745" lon="10.619812886426553"><ele>500.0</ele><time>2026-04-18T14:22:25Z</time></trkpt><trkpt lat="43.40240641260969" lon="10.61994234004738"><ele>500.0</ele><time>2026-04-18T14:22:26Z</time></trkpt><trkpt lat="43.402488676513705" lon="10.620060439056672"><ele>500.0</ele><time>2026-04-18T14:22:27Z</time></trkpt><trkpt lat="43.40257808141423" lon="10.620194883146455"><ele>500.0</ele><time>2026-04-18T14:22:28Z</time></trkpt><trkpt lat="43.40266902399793" lon="10.62034839405312"><ele>500.0</ele><time>2026-04-18T14:22:29Z</time></trkpt><trkpt lat="43.40275191714327" lon="10.620505023840982"><ele>499.6</ele><time>2026-04-18T14:22:30Z</time></trkpt><trkpt lat="43.40281996207308" lon="10.62066101297992"><ele>499.2</ele><time>2026-04-18T14:22:31Z</time></trkpt><trkpt lat="43.40286974880203" lon="10.620808059953793"><ele>498.79999999999995</ele><time>2026-04-18T14:22:32Z</time></trkpt><trkpt lat="43.40290581749027" lon="10.620932623674495"><ele>498.4</ele><time>2026-04-18T14:22:33Z</time></trkpt><trkpt lat="43.402914205686464" lon="10.621072398263236"><ele>498.0</ele><time>2026-04-18T14:22:34Z</time></trkpt><trkpt lat="43.4029190798508" lon="10.621244712171887"><ele>496.33333333333337</ele><time>2026-04-18T14:22:35Z</time></trkpt><trkpt lat="43.40294596824739" lon="10.621462097854616"><ele>494.6666666666667</ele><time>2026-04-18T14:22:36Z</time></trkpt><trkpt lat="43.40294721303212" lon="10.621724005864976"><ele>493.0</ele><time>2026-04-18T14:22:37Z</time></trkpt><trkpt lat="43.402963397468966" lon="10.621945190742379"><ele>492.5</ele><time>2026-04-18T14:22:38Z</time></trkpt><trkpt lat="43.40296848907062" lon="10.622164008024411"><ele>492.0</ele><time>2026-04-18T14:22:39Z</time></trkpt><trkpt lat="43.402961409518525" lon="10.62237668099341"><ele>491.5</ele><time>2026-04-18T14:22:40Z</time></trkpt><trkpt lat="43.402930906532504" lon="10.622537562569256"><ele>491.0</ele><time>2026-04-18T14:22:41Z</time></trkpt><trkpt lat="43.40288423803245" lon="10.622686134478927"><ele>490.75</ele><time>2026-04-18T14:22:42Z</time></trkpt><trkpt lat="43.40282722401501" lon="10.622856192502578"><ele>490.5</ele><time>2026-04-18T14:22:43Z</time></trkpt><trkpt lat="43.402774832368564" lon="10.623024753500689"><ele>490.25</ele><time>2026-04-18T14:22:44Z</time></trkpt><trkpt lat="43.40274157710292" lon="10.62317426704202"><ele>490.0</ele><time>2026-04-18T14:22:45Z</time></trkpt><trkpt lat="43.40273948107041" lon="10.623335845921584"><ele>490.0</ele><time>2026-04-18T14:22:46Z</time></trkpt><trkpt lat="43.402738995520984" lon="10.623503617696349"><ele>490.0</ele><time>2026-04-18T14:22:47Z</time></trkpt><trkpt lat="43.402761729927796" lon="10.623679202804235"><ele>490.0</ele><time>2026-04-18T14:22:48Z</time></trkpt><trkpt lat="43.40279906080363" lon="10.623860889276925"><ele>490.0</ele><time>2026-04-18T14:22:49Z</time></trkpt><trkpt lat="43.402839685086384" lon="10.624037759398824"><ele>490.0</ele><time>2026-04-18T14:22:50Z</time></trkpt><trkpt lat="43.40287543769073" lon="10.624221543070725"><ele>490.0</ele><time>2026-04-18T14:22:51Z</time></trkpt><trkpt lat="43.402910442483325" lon="10.6243950892716"><ele>490.0</ele><time>2026-04-18T14:22:52Z</time></trkpt><trkpt lat="43.40293952496883" lon="10.624544340313912"><ele>490.0</ele><time>2026-04-18T14:22:53Z</time></trkpt><trkpt lat="43.402991638794745" lon="10.624701501578546"><ele>490.75</ele><time>2026-04-18T14:22:54Z</time></trkpt><trkpt lat="43.403071676733866" lon="10.624873480062968"><ele>491.5</ele><time>2026-04-18T14:22:55Z</time></trkpt><trkpt lat="43.40314910025539" lon="10.625039895737926"><ele>492.25</ele><time>2026-04-18T14:22:56Z</time></trkpt><trkpt lat="43.40316603105902" lon="10.625184703987575"><ele>493.0</ele><time>2026-04-18T14:22:57Z</time></trkpt><trkpt lat="43.40320067698473" lon="10.625335299474266"><ele>488.25</ele><time>2026-04-18T14:22:58Z</time></trkpt><trkpt lat="43.40325894848741" lon="10.625472488854939"><ele>483.5</ele><time>2026-04-18T14:22:59Z</time></trkpt><trkpt lat="43.403346132189874" lon="10.625644245676897"><ele>478.75</ele><time>2026-04-18T14:23:00Z</time></trkpt><trkpt lat="43.40345497444337" lon="10.625807522234652"><ele>474.0</ele><time>2026-04-18T14:23:01Z</time></trkpt><trkpt lat="43.40355389717974" lon="10.625971667669583"><ele>474.0</ele><time>2026-04-18T14:23:02Z</time></trkpt><trkpt lat="43.40364343702357" lon="10.626134474502349"><ele>474.0</ele><time>2026-04-18T14:23:03Z</time></trkpt><trkpt lat="43.403722680863396" lon="10.626278389607638"><ele>474.0</ele><time>2026-04-18T14:23:04Z</time></trkpt><trkpt lat="43.40379428282817" lon="10.626404360666621"><ele>474.0</ele><time>2026-04-18T14:23:05Z</time></trkpt><trkpt lat="43.4038696895075" lon="10.62653180521273"><ele>476.25</ele><time>2026-04-18T14:23:06Z</time></trkpt><trkpt lat="43.40394633853877" lon="10.626673926591122"><ele>478.5</ele><time>2026-04-18T14:23:07Z</time></trkpt><trkpt lat="43.40401462164899" lon="10.626809777699155"><ele>480.75</ele><time>2026-04-18T14:23:08.001Z</time></trkpt><trkpt lat="43.40408588960771" lon="10.626910607984298"><ele>483.0</ele><time>2026-04-18T14:23:09.001Z</time></trkpt><trkpt lat="43.40418277591091" lon="10.627008565105122"><ele>478.0</ele><time>2026-04-18T14:23:10.001Z</time></trkpt><trkpt lat="43.40429850019713" lon="10.627141235560678"><ele>473.0</ele><time>2026-04-18T14:23:11.001Z</time></trkpt><trkpt lat="43.404396309743234" lon="10.627256406637715"><ele>468.0</ele><time>2026-04-18T14:23:12.001Z</time></trkpt><trkpt lat="43.4044792206435" lon="10.627342051558431"><ele>463.0</ele><time>2026-04-18T14:23:13.001Z</time></trkpt><trkpt lat="43.404584890426015" lon="10.62739572052726"><ele>464.5</ele><time>2026-04-18T14:23:14.001Z</time></trkpt><trkpt lat="43.40471430641684" lon="10.627415225097543"><ele>466.0</ele><time>2026-04-18T14:23:15.001Z</time></trkpt><trkpt lat="43.40486669555339" lon="10.627430157487128"><ele>467.5</ele><time>2026-04-18T14:23:16.001Z</time></trkpt><trkpt lat="43.40502274265312" lon="10.627450153403883"><ele>469.0</ele><time>2026-04-18T14:23:17.001Z</time></trkpt><trkpt lat="43.40514512856057" lon="10.627476908617176"><ele>469.0</ele><time>2026-04-18T14:23:18.001Z</time></trkpt><trkpt lat="43.4052293286684" lon="10.627537394457066"><ele>469.0</ele><time>2026-04-18T14:23:19.001Z</time></trkpt><trkpt lat="43.40529265970379" lon="10.627646140757065"><ele>469.0</ele><time>2026-04-18T14:23:20.001Z</time></trkpt><trkpt lat="43.405368195337445" lon="10.627761833925996"><ele>469.0</ele><time>2026-04-18T14:23:21.001Z</time></trkpt><trkpt lat="43.40541199825156" lon="10.62793735270004"><ele>469.0</ele><time>2026-04-18T14:23:22.001Z</time></trkpt><trkpt lat="43.405465441478476" lon="10.628133245909881"><ele>465.79999999999995</ele><time>2026-04-18T14:23:23.001Z</time></trkpt><trkpt lat="43.405528611941534" lon="10.628285605404107"><ele>462.59999999999997</ele><time>2026-04-18T14:23:24.001Z</time></trkpt><trkpt lat="43.405572603085325" lon="10.628397921582742"><ele>459.4</ele><time>2026-04-18T14:23:25.001Z</time></trkpt><trkpt lat="43.405646552964136" lon="10.628476967962028"><ele>456.2</ele><time>2026-04-18T14:23:26.001Z</time></trkpt><trkpt lat="43.40571223873264" lon="10.628513317650851"><ele>453.0</ele><time>2026-04-18T14:23:27.001Z</time></trkpt><trkpt lat="43.40578001280077" lon="10.62850613045167"><ele>453.0</ele><time>2026-04-18T14:23:32.001Z</time></trkpt><trkpt lat="43.405871835661365" lon="10.62851584368969"><ele>452.99999999999994</ele><time>2026-04-18T14:23:34.001Z</time></trkpt><trkpt lat="43.40594425138498" lon="10.628531082387807"><ele>452.99999999999994</ele><time>2026-04-18T14:23:35.001Z</time></trkpt><trkpt lat="43.406028358092414" lon="10.628560592419676"><ele>453.0</ele><time>2026-04-18T14:23:36.001Z</time></trkpt><trkpt lat="43.40613189806302" lon="10.62859206707329"><ele>453.0</ele><time>2026-04-18T14:23:37.001Z</time></trkpt><trkpt lat="43.40624535207951" lon="10.628626118245311"><ele>450.4</ele><time>2026-04-18T14:23:38.001Z</time></trkpt><trkpt lat="43.4063660488466" lon="10.628658541927381"><ele>447.79999999999995</ele><time>2026-04-18T14:23:39.001Z</time></trkpt><trkpt lat="43.40648329542113" lon="10.62869159716346"><ele>445.2</ele><time>2026-04-18T14:23:40.001Z</time></trkpt><trkpt lat="43.40657531477092" lon="10.628735876328694"><ele>442.6</ele><time>2026-04-18T14:23:41.001Z</time></trkpt><trkpt lat="43.40662758474578" lon="10.62884016193031"><ele>440.0</ele><time>2026-04-18T14:23:42.001Z</time></trkpt><trkpt lat="43.40670223757629" lon="10.62896057110262"><ele>440.0</ele><time>2026-04-18T14:23:43.001Z</time></trkpt><trkpt lat="43.40679158479997" lon="10.629107474124298"><ele>440.0</ele><time>2026-04-18T14:23:44.001Z</time></trkpt><trkpt lat="43.4068888431865" lon="10.6292605630003"><ele>440.0</ele><time>2026-04-18T14:23:45.001Z</time></trkpt><trkpt lat="43.40699329027681" lon="10.629423719361206"><ele>440.0</ele><time>2026-04-18T14:23:46.001Z</time></trkpt><trkpt lat="43.40709794092635" lon="10.629589875531117"><ele>437.0</ele><time>2026-04-18T14:23:47.001Z</time></trkpt><trkpt lat="43.40719022065199" lon="10.629770074104389"><ele>434.0</ele><time>2026-04-18T14:23:48.001Z</time></trkpt><trkpt lat="43.407282421127285" lon="10.62992212762219"><ele>431.0</ele><time>2026-04-18T14:23:49.001Z</time></trkpt><trkpt lat="43.40737344643702" lon="10.630072189045643"><ele>428.0</ele><time>2026-04-18T14:23:50.001Z</time></trkpt><trkpt lat="43.40747693527735" lon="10.630210943495136"><ele>428.66666666666663</ele><time>2026-04-18T14:23:51.001Z</time></trkpt><trkpt lat="43.407574487075316" lon="10.63037513289268"><ele>429.33333333333337</ele><time>2026-04-18T14:23:52.001Z</time></trkpt><trkpt lat="43.4076793973147" lon="10.630550311006965"><ele>430.0</ele><time>2026-04-18T14:23:53.001Z</time></trkpt><trkpt lat="43.40778194113851" lon="10.630709646876056"><ele>430.0</ele><time>2026-04-18T14:23:54.001Z</time></trkpt><trkpt lat="43.40786522369129" lon="10.630850284328798"><ele>430.0</ele><time>2026-04-18T14:23:55.001Z</time></trkpt><trkpt lat="43.407932395659216" lon="10.630983917990909"><ele>430.0</ele><time>2026-04-18T14:23:56.001Z</time></trkpt><trkpt lat="43.40798981282905" lon="10.631120939537722"><ele>430.0</ele><time>2026-04-18T14:23:57.001Z</time></trkpt><trkpt lat="43.408058824903" lon="10.631240772997703"><ele>427.5</ele><time>2026-04-18T14:23:58.001Z</time></trkpt><trkpt lat="43.408148406206784" lon="10.631342698729457"><ele>425.0</ele><time>2026-04-18T14:23:59.001Z</time></trkpt><trkpt lat="43.40827354300608" lon="10.631424402903999"><ele>422.5</ele><time>2026-04-18T14:24:00.001Z</time></trkpt><trkpt lat="43.408415396211154" lon="10.631505583295244"><ele>420.0</ele><time>2026-04-18T14:24:01.001Z</time></trkpt><trkpt lat="43.408542906083966" lon="10.63159534627245"><ele>420.0</ele><time>2026-04-18T14:24:02.001Z</time></trkpt><trkpt lat="43.408652613756935" lon="10.631682167051025"><ele>420.0</ele><time>2026-04-18T14:24:03.001Z</time></trkpt><trkpt lat="43.40874609572754" lon="10.631749951642615"><ele>420.0</ele><time>2026-04-18T14:24:04.001Z</time></trkpt><trkpt lat="43.40884301244343" lon="10.631776962172806"><ele>420.0</ele><time>2026-04-18T14:24:05.001Z</time></trkpt><trkpt lat="43.40895127822765" lon="10.631767299096888"><ele>420.0</ele><time>2026-04-18T14:24:06.001Z</time></trkpt><trkpt lat="43.40907607902098" lon="10.631738836180709"><ele>416.75</ele><time>2026-04-18T14:24:07.001Z</time></trkpt><trkpt lat="43.40921426311589" lon="10.631688660861492"><ele>413.5</ele><time>2026-04-18T14:24:08.001Z</time></trkpt><trkpt lat="43.40936228436622" lon="10.631642109883524"><ele>410.25</ele><time>2026-04-18T14:24:09.001Z</time></trkpt><trkpt lat="43.40951345615813" lon="10.63160645745566"><ele>407.0</ele><time>2026-04-18T14:24:10.001Z</time></trkpt><trkpt lat="43.40963988417717" lon="10.631570898564247"><ele>405.0</ele><time>2026-04-18T14:24:11.001Z</time></trkpt><trkpt lat="43.40973837651058" lon="10.631541901068417"><ele>403.0</ele><time>2026-04-18T14:24:11.999Z</time></trkpt><trkpt lat="43.409815412334" lon="10.631531978920027"><ele>401.0</ele><time>2026-04-18T14:24:12.999Z</time></trkpt><trkpt lat="43.40989235866806" lon="10.631562655274035"><ele>399.0</ele><time>2026-04-18T14:24:14Z</time></trkpt><trkpt lat="43.40995414721993" lon="10.631672186023218"><ele>397.0</ele><time>2026-04-18T14:24:14.999Z</time></trkpt><trkpt lat="43.41001389854261" lon="10.631810011738436"><ele>398.5</ele><time>2026-04-18T14:24:15.999Z</time></trkpt><trkpt lat="43.41007253089486" lon="10.631977000062228"><ele>400.0</ele><time>2026-04-18T14:24:17Z</time></trkpt><trkpt lat="43.41013104123416" lon="10.632160863091425"><ele>401.5</ele><time>2026-04-18T14:24:18Z</time></trkpt><trkpt lat="43.41019195597238" lon="10.6323393964419"><ele>403.0</ele><time>2026-04-18T14:24:19Z</time></trkpt><trkpt lat="43.41024399421935" lon="10.632471820846233"><ele>403.0</ele><time>2026-04-18T14:24:20Z</time></trkpt><trkpt lat="43.410326401877114" lon="10.632553891965275"><ele>403.0</ele><time>2026-04-18T14:24:21Z</time></trkpt><trkpt lat="43.41042810104205" lon="10.6326274355276"><ele>403.0</ele><time>2026-04-18T14:24:22Z</time></trkpt><trkpt lat="43.410573936580654" lon="10.6326965355294"><ele>403.0</ele><time>2026-04-18T14:24:23Z</time></trkpt><trkpt lat="43.410728854498785" lon="10.632756117248112"><ele>398.75</ele><time>2026-04-18T14:24:24Z</time></trkpt><trkpt lat="43.410876813973275" lon="10.632812188479326"><ele>394.5</ele><time>2026-04-18T14:24:25Z</time></trkpt><trkpt lat="43.410979759685944" lon="10.63289838636751"><ele>390.25</ele><time>2026-04-18T14:24:26Z</time></trkpt><trkpt lat="43.41106051210042" lon="10.632991511658219"><ele>386.0</ele><time>2026-04-18T14:24:27Z</time></trkpt><trkpt lat="43.41110758603116" lon="10.63311538831416"><ele>386.0</ele><time>2026-04-18T14:24:28Z</time></trkpt><trkpt lat="43.41115634370202" lon="10.633281514779727"><ele>386.0</ele><time>2026-04-18T14:24:29Z</time></trkpt><trkpt lat="43.411208071360406" lon="10.633465635534405"><ele>386.0</ele><time>2026-04-18T14:24:30Z</time></trkpt><trkpt lat="43.41127656999316" lon="10.63362447045636"><ele>386.0</ele><time>2026-04-18T14:24:31Z</time></trkpt><trkpt lat="43.411306567919" lon="10.633773223820242"><ele>383.75</ele><time>2026-04-18T14:24:32Z</time></trkpt><trkpt lat="43.41133707375593" lon="10.6339149405974"><ele>381.5</ele><time>2026-04-18T14:24:33Z</time></trkpt><trkpt lat="43.41136344333713" lon="10.634080952601373"><ele>379.25</ele><time>2026-04-18T14:24:34Z</time></trkpt><trkpt lat="43.41139856708472" lon="10.63427106538582"><ele>377.0</ele><time>2026-04-18T14:24:35Z</time></trkpt><trkpt lat="43.41145096987599" lon="10.634448138961304"><ele>378.33333333333337</ele><time>2026-04-18T14:24:36Z</time></trkpt><trkpt lat="43.41152095788582" lon="10.634621205763958"><ele>379.6666666666667</ele><time>2026-04-18T14:24:37Z</time></trkpt><trkpt lat="43.41161517064137" lon="10.634791306146814"><ele>381.0</ele><time>2026-04-18T14:24:38Z</time></trkpt><trkpt lat="43.41170894075632" lon="10.634981819517325"><ele>381.0</ele><time>2026-04-18T14:24:39Z</time></trkpt><trkpt lat="43.411782260707106" lon="10.63514074547038"><ele>381.0</ele><time>2026-04-18T14:24:40Z</time></trkpt><trkpt lat="43.41183988909411" lon="10.635262845716385"><ele>381.0</ele><time>2026-04-18T14:24:41Z</time></trkpt><trkpt lat="43.41189129066658" lon="10.635360477848481"><ele>381.0</ele><time>2026-04-18T14:24:42Z</time></trkpt><trkpt lat="43.411902629615305" lon="10.635474778239344"><ele>381.0</ele><time>2026-04-18T14:24:43Z</time></trkpt><trkpt lat="43.41190879011918" lon="10.635591967658012"><ele>381.6</ele><time>2026-04-18T14:24:44Z</time></trkpt><trkpt lat="43.41189248734845" lon="10.635723281257139"><ele>382.20000000000005</ele><time>2026-04-18T14:24:45Z</time></trkpt><trkpt lat="43.41191950882726" lon="10.635864797741162"><ele>382.79999999999995</ele><time>2026-04-18T14:24:46Z</time></trkpt><trkpt lat="43.411946480528464" lon="10.636010752675825"><ele>383.4</ele><time>2026-04-18T14:24:47Z</time></trkpt><trkpt lat="43.411980855537145" lon="10.636135281062133"><ele>384.0</ele><time>2026-04-18T14:24:48Z</time></trkpt><trkpt lat="43.41202254368874" lon="10.636264275176861"><ele>384.0</ele><time>2026-04-18T14:24:49Z</time></trkpt><trkpt lat="43.41208155145831" lon="10.6363957771984"><ele>384.0</ele><time>2026-04-18T14:24:50Z</time></trkpt><trkpt lat="43.41215499310824" lon="10.63652453022716"><ele>384.0</ele><time>2026-04-18T14:24:51Z</time></trkpt><trkpt lat="43.41223964016583" lon="10.636644303712657"><ele>384.0</ele><time>2026-04-18T14:24:52Z</time></trkpt><trkpt lat="43.41233618630264" lon="10.636788298308552"><ele>380.6666666666667</ele><time>2026-04-18T14:24:53Z</time></trkpt><trkpt lat="43.4124476174242" lon="10.636936636013527"><ele>377.33333333333337</ele><time>2026-04-18T14:24:54Z</time></trkpt><trkpt lat="43.41255489147946" lon="10.637100573645148"><ele>374.0</ele><time>2026-04-18T14:24:55Z</time></trkpt><trkpt lat="43.412650989486814" lon="10.637271647305255"><ele>373.0</ele><time>2026-04-18T14:24:56Z</time></trkpt><trkpt lat="43.41275124956752" lon="10.637432742842185"><ele>372.0</ele><time>2026-04-18T14:24:57Z</time></trkpt><trkpt lat="43.41285286846627" lon="10.637571873191709"><ele>371.0</ele><time>2026-04-18T14:24:58Z</time></trkpt><trkpt lat="43.41292404432115" lon="10.637689446331013"><ele>370.0</ele><time>2026-04-18T14:24:59Z</time></trkpt><trkpt lat="43.412974230423345" lon="10.637747945684744"><ele>368.8</ele><time>2026-04-18T14:25:00Z</time></trkpt><trkpt lat="43.41309640156457" lon="10.637774435304463"><ele>367.6</ele><time>2026-04-18T14:25:02Z</time></trkpt><trkpt lat="43.41317136256452" lon="10.637810939367897"><ele>366.4</ele><time>2026-04-18T14:25:03Z</time></trkpt><trkpt lat="43.41324205798656" lon="10.63783053579788"><ele>365.2</ele><time>2026-04-18T14:25:04Z</time></trkpt><trkpt lat="43.413350997301286" lon="10.637861423222704"><ele>364.0</ele><time>2026-04-18T14:25:06Z</time></trkpt><trkpt lat="43.413414325143044" lon="10.637875913719206"><ele>364.2</ele><time>2026-04-18T14:25:07Z</time></trkpt><trkpt lat="43.41350927205975" lon="10.637919386864773"><ele>364.4</ele><time>2026-04-18T14:25:08Z</time></trkpt><trkpt lat="43.4136224478911" lon="10.63795425265836"><ele>364.6</ele><time>2026-04-18T14:25:09Z</time></trkpt><trkpt lat="43.4137126825892" lon="10.638013639269932"><ele>364.8</ele><time>2026-04-18T14:25:10Z</time></trkpt><trkpt lat="43.41378036979224" lon="10.638124123811444"><ele>365.0</ele><time>2026-04-18T14:25:11Z</time></trkpt><trkpt lat="43.41388896634408" lon="10.638210620486962"><ele>365.0</ele><time>2026-04-18T14:25:12Z</time></trkpt><trkpt lat="43.41400352422034" lon="10.638315358403874"><ele>365.0</ele><time>2026-04-18T14:25:13.001Z</time></trkpt><trkpt lat="43.41413965295655" lon="10.638376752276535"><ele>365.0</ele><time>2026-04-18T14:25:14.001Z</time></trkpt><trkpt lat="43.41425237931872" lon="10.638418444839436"><ele>365.0</ele><time>2026-04-18T14:25:15.001Z</time></trkpt><trkpt lat="43.41431989112" lon="10.638516653159412"><ele>365.0</ele><time>2026-04-18T14:25:16.001Z</time></trkpt><trkpt lat="43.41439635716026" lon="10.638617498659666"><ele>365.0</ele><time>2026-04-18T14:25:17.001Z</time></trkpt><trkpt lat="43.41446770184837" lon="10.638758888824379"><ele>365.0</ele><time>2026-04-18T14:25:18.001Z</time></trkpt><trkpt lat="43.41454851438596" lon="10.638873867578354"><ele>365.0</ele><time>2026-04-18T14:25:19.001Z</time></trkpt><trkpt lat="43.414668253304995" lon="10.638967060952048"><ele>363.5</ele><time>2026-04-18T14:25:20.001Z</time></trkpt><trkpt lat="43.414821938225636" lon="10.639053488305336"><ele>362.0</ele><time>2026-04-18T14:25:21.001Z</time></trkpt><trkpt lat="43.414945927368784" lon="10.639153617275438"><ele>360.5</ele><time>2026-04-18T14:25:22.001Z</time></trkpt><trkpt lat="43.41506246358611" lon="10.63925767520993"><ele>359.0</ele><time>2026-04-18T14:25:23.001Z</time></trkpt><trkpt lat="43.41518158537679" lon="10.63935175066576"><ele>359.0</ele><time>2026-04-18T14:25:24.001Z</time></trkpt><trkpt lat="43.415280088871995" lon="10.639457696103381"><ele>359.0</ele><time>2026-04-18T14:25:25.001Z</time></trkpt><trkpt lat="43.415370045953054" lon="10.639575328408274"><ele>359.0</ele><time>2026-04-18T14:25:26.001Z</time></trkpt><trkpt lat="43.41547546277134" lon="10.639701917227557"><ele>359.0</ele><time>2026-04-18T14:25:27.001Z</time></trkpt><trkpt lat="43.41556720095564" lon="10.639830454484578"><ele>360.5</ele><time>2026-04-18T14:25:28.001Z</time></trkpt><trkpt lat="43.41567009077426" lon="10.63992281042066"><ele>362.0</ele><time>2026-04-18T14:25:29.001Z</time></trkpt><trkpt lat="43.41579603218765" lon="10.639988395245904"><ele>363.5</ele><time>2026-04-18T14:25:30.001Z</time></trkpt><trkpt lat="43.415914445280755" lon="10.640085870326825"><ele>365.0</ele><time>2026-04-18T14:25:31.001Z</time></trkpt><trkpt lat="43.416038694754285" lon="10.640131802718063"><ele>365.0</ele><time>2026-04-18T14:25:32.001Z</time></trkpt><trkpt lat="43.41616337079755" lon="10.640183045488065"><ele>365.0</ele><time>2026-04-18T14:25:33.001Z</time></trkpt><trkpt lat="43.41630259346869" lon="10.640199571760522"><ele>365.0</ele><time>2026-04-18T14:25:34.001Z</time></trkpt><trkpt lat="43.416450696507454" lon="10.640219504936578"><ele>365.0</ele><time>2026-04-18T14:25:35.001Z</time></trkpt><trkpt lat="43.41655861686547" lon="10.640241677766214"><ele>365.6</ele><time>2026-04-18T14:25:36.001Z</time></trkpt><trkpt lat="43.41661726778034" lon="10.640295507987865"><ele>366.2</ele><time>2026-04-18T14:25:37.001Z</time></trkpt><trkpt lat="43.416710573916134" lon="10.640426456386793"><ele>366.79999999999995</ele><time>2026-04-18T14:25:39.001Z</time></trkpt><trkpt lat="43.41677696486186" lon="10.640509134951284"><ele>367.4</ele><time>2026-04-18T14:25:40.001Z</time></trkpt><trkpt lat="43.416888971326834" lon="10.640616400559006"><ele>368.0</ele><time>2026-04-18T14:25:41.001Z</time></trkpt><trkpt lat="43.41699307259081" lon="10.640741584431613"><ele>367.33333333333337</ele><time>2026-04-18T14:25:42.001Z</time></trkpt><trkpt lat="43.4171034837479" lon="10.640914946588408"><ele>366.6666666666667</ele><time>2026-04-18T14:25:43.001Z</time></trkpt><trkpt lat="43.417221902599955" lon="10.641072179153689"><ele>366.0</ele><time>2026-04-18T14:25:44.001Z</time></trkpt><trkpt lat="43.417350451944294" lon="10.64120247258076"><ele>365.6666666666667</ele><time>2026-04-18T14:25:45.001Z</time></trkpt><trkpt lat="43.417472462087034" lon="10.641343142337702"><ele>365.33333333333337</ele><time>2026-04-18T14:25:46.001Z</time></trkpt><trkpt lat="43.41759053947389" lon="10.641498505304092"><ele>365.0</ele><time>2026-04-18T14:25:47.001Z</time></trkpt><trkpt lat="43.417717792034026" lon="10.641661376818842"><ele>365.0</ele><time>2026-04-18T14:25:48.001Z</time></trkpt><trkpt lat="43.41783459805009" lon="10.641816304958596"><ele>365.0</ele><time>2026-04-18T14:25:49.001Z</time></trkpt><trkpt lat="43.4179239258398" lon="10.641961367139011"><ele>365.0</ele><time>2026-04-18T14:25:50.001Z</time></trkpt><trkpt lat="43.418015425762235" lon="10.642084989074139"><ele>365.0</ele><time>2026-04-18T14:25:51.001Z</time></trkpt><trkpt lat="43.418130829364" lon="10.642196990411364"><ele>365.75</ele><time>2026-04-18T14:25:52.001Z</time></trkpt><trkpt lat="43.418269116864046" lon="10.64229380239078"><ele>366.5</ele><time>2026-04-18T14:25:53.001Z</time></trkpt><trkpt lat="43.41838551248568" lon="10.642396403489876"><ele>367.25</ele><time>2026-04-18T14:25:54.001Z</time></trkpt><trkpt lat="43.41848114810129" lon="10.642529392014868"><ele>368.0</ele><time>2026-04-18T14:25:55.001Z</time></trkpt><trkpt lat="43.41859753606788" lon="10.642629050913055"><ele>368.0</ele><time>2026-04-18T14:25:56.001Z</time></trkpt><trkpt lat="43.41874548148706" lon="10.642723816723718"><ele>368.0</ele><time>2026-04-18T14:25:57.001Z</time></trkpt><trkpt lat="43.41890518762348" lon="10.642816534308455"><ele>368.0</ele><time>2026-04-18T14:25:58.001Z</time></trkpt><trkpt lat="43.41900756616642" lon="10.642933622329853"><ele>370.0</ele><time>2026-04-18T14:25:59.001Z</time></trkpt><trkpt lat="43.41911846681659" lon="10.643019465174515"><ele>372.0</ele><time>2026-04-18T14:26:00.001Z</time></trkpt><trkpt lat="43.41923675376649" lon="10.643132642494246"><ele>374.0</ele><time>2026-04-18T14:26:01.001Z</time></trkpt><trkpt lat="43.41939080594899" lon="10.643219216445791"><ele>376.0</ele><time>2026-04-18T14:26:02.001Z</time></trkpt><trkpt lat="43.41953508621275" lon="10.643290598395733"><ele>376.0</ele><time>2026-04-18T14:26:03.001Z</time></trkpt><trkpt lat="43.419620080769604" lon="10.64336748605816"><ele>376.0</ele><time>2026-04-18T14:26:04.001Z</time></trkpt><trkpt lat="43.419675266152296" lon="10.643425020645568"><ele>376.0</ele><time>2026-04-18T14:26:05.001Z</time></trkpt><trkpt lat="43.419733272365484" lon="10.643500771375848"><ele>376.0</ele><time>2026-04-18T14:26:06.001Z</time></trkpt><trkpt lat="43.41981181949148" lon="10.643619061277652"><ele>376.0</ele><time>2026-04-18T14:26:07.001Z</time></trkpt><trkpt lat="43.41988411849045" lon="10.643756206502635"><ele>377.0</ele><time>2026-04-18T14:26:08.001Z</time></trkpt><trkpt lat="43.41995693293529" lon="10.643875225341747"><ele>378.0</ele><time>2026-04-18T14:26:09.001Z</time></trkpt><trkpt lat="43.42005522059269" lon="10.64400998705575"><ele>379.0</ele><time>2026-04-18T14:26:10.001Z</time></trkpt><trkpt lat="43.42016592627577" lon="10.644155042966185"><ele>380.0</ele><time>2026-04-18T14:26:11.001Z</time></trkpt><trkpt lat="43.420277384782466" lon="10.644296087346364"><ele>380.0</ele><time>2026-04-18T14:26:12.001Z</time></trkpt><trkpt lat="43.420387014439775" lon="10.644413279795382"><ele>380.0</ele><time>2026-04-18T14:26:13.001Z</time></trkpt><trkpt lat="43.42048865618143" lon="10.644515395354556"><ele>380.0</ele><time>2026-04-18T14:26:14.002Z</time></trkpt><trkpt lat="43.42060035119529" lon="10.644610486316848"><ele>380.0</ele><time>2026-04-18T14:26:15.002Z</time></trkpt><trkpt lat="43.42072596762863" lon="10.644714455894826"><ele>378.25</ele><time>2026-04-18T14:26:16.002Z</time></trkpt><trkpt lat="43.42085550364751" lon="10.644808227707996"><ele>376.5</ele><time>2026-04-18T14:26:17.002Z</time></trkpt><trkpt lat="43.420961128056206" lon="10.644915506187663"><ele>374.75</ele><time>2026-04-18T14:26:18Z</time></trkpt><trkpt lat="43.421068383125444" lon="10.645051562432359"><ele>373.0</ele><time>2026-04-18T14:26:19Z</time></trkpt><trkpt lat="43.42118506535642" lon="10.645199533067542"><ele>371.5</ele><time>2026-04-18T14:26:20Z</time></trkpt><trkpt lat="43.421308739581676" lon="10.645321017969028"><ele>370.0</ele><time>2026-04-18T14:26:21Z</time></trkpt><trkpt lat="43.42142258391672" lon="10.645431095155208"><ele>368.5</ele><time>2026-04-18T14:26:22Z</time></trkpt><trkpt lat="43.42152979499872" lon="10.645528304158429"><ele>367.0</ele><time>2026-04-18T14:26:23Z</time></trkpt><trkpt lat="43.42163758603538" lon="10.645615832827946"><ele>367.0</ele><time>2026-04-18T14:26:24Z</time></trkpt><trkpt lat="43.42174508447208" lon="10.645693370821363"><ele>367.0</ele><time>2026-04-18T14:26:25Z</time></trkpt><trkpt lat="43.4218531076979" lon="10.645757574237326"><ele>367.0</ele><time>2026-04-18T14:26:26Z</time></trkpt><trkpt lat="43.421968858149874" lon="10.64582988110921"><ele>367.0</ele><time>2026-04-18T14:26:27Z</time></trkpt><trkpt lat="43.42209160101704" lon="10.645906382652397"><ele>365.6</ele><time>2026-04-18T14:26:28Z</time></trkpt><trkpt lat="43.42221373754193" lon="10.645968631806946"><ele>364.20000000000005</ele><time>2026-04-18T14:26:29Z</time></trkpt><trkpt lat="43.422327264599026" lon="10.646010168857384"><ele>362.8</ele><time>2026-04-18T14:26:30Z</time></trkpt><trkpt lat="43.422419234652104" lon="10.646040730211489"><ele>361.4</ele><time>2026-04-18T14:26:31Z</time></trkpt><trkpt lat="43.42250673907592" lon="10.64609001438734"><ele>360.0</ele><time>2026-04-18T14:26:32Z</time></trkpt><trkpt lat="43.42259587583309" lon="10.646170792165309"><ele>356.5</ele><time>2026-04-18T14:26:33Z</time></trkpt><trkpt lat="43.422718032713334" lon="10.64624133985455"><ele>353.0</ele><time>2026-04-18T14:26:34Z</time></trkpt><trkpt lat="43.42285017342977" lon="10.646328680722856"><ele>349.5</ele><time>2026-04-18T14:26:35Z</time></trkpt><trkpt lat="43.422980974764755" lon="10.646416244336166"><ele>346.0</ele><time>2026-04-18T14:26:36Z</time></trkpt><trkpt lat="43.42310441083651" lon="10.646496611602041"><ele>346.0</ele><time>2026-04-18T14:26:37Z</time></trkpt><trkpt lat="43.423222910693866" lon="10.646572529409665"><ele>346.0</ele><time>2026-04-18T14:26:38Z</time></trkpt><trkpt lat="43.42333765945175" lon="10.646656525897848"><ele>346.0</ele><time>2026-04-18T14:26:39Z</time></trkpt><trkpt lat="43.42346201349488" lon="10.646732027919136"><ele>346.0</ele><time>2026-04-18T14:26:40Z</time></trkpt><trkpt lat="43.4235918383896" lon="10.646793451120418"><ele>346.0</ele><time>2026-04-18T14:26:41Z</time></trkpt><trkpt lat="43.42372062317971" lon="10.64685178145992"><ele>346.0</ele><time>2026-04-18T14:26:42Z</time></trkpt><trkpt lat="43.4238486798137" lon="10.646905486602769"><ele>346.0</ele><time>2026-04-18T14:26:43Z</time></trkpt><trkpt lat="43.4239648709717" lon="10.646956185676654"><ele>346.0</ele><time>2026-04-18T14:26:44Z</time></trkpt><trkpt lat="43.4240568346266" lon="10.64701416181393"><ele>339.5</ele><time>2026-04-18T14:26:45Z</time></trkpt><trkpt lat="43.4241304222665" lon="10.647096368984874"><ele>333.0</ele><time>2026-04-18T14:26:46Z</time></trkpt><trkpt lat="43.42422208385985" lon="10.647150798089484"><ele>326.5</ele><time>2026-04-18T14:26:47Z</time></trkpt><trkpt lat="43.42432736604402" lon="10.647266678351622"><ele>320.0</ele><time>2026-04-18T14:26:48Z</time></trkpt><trkpt lat="43.42443779910944" lon="10.647355764403791"><ele>320.0</ele><time>2026-04-18T14:26:49Z</time></trkpt><trkpt lat="43.42453242067484" lon="10.647462204521277"><ele>320.0</ele><time>2026-04-18T14:26:50Z</time></trkpt><trkpt lat="43.42463019899073" lon="10.647569074730965"><ele>320.0</ele><time>2026-04-18T14:26:51Z</time></trkpt><trkpt lat="43.42471622211048" lon="10.647668284398017"><ele>320.0</ele><time>2026-04-18T14:26:52Z</time></trkpt><trkpt lat="43.42478917653951" lon="10.647784357477152"><ele>316.5</ele><time>2026-04-18T14:26:53Z</time></trkpt><trkpt lat="43.4248562399628" lon="10.647906043768764"><ele>313.0</ele><time>2026-04-18T14:26:54Z</time></trkpt><trkpt lat="43.42489208692163" lon="10.648044885933354"><ele>309.5</ele><time>2026-04-18T14:26:55Z</time></trkpt><trkpt lat="43.42491789938806" lon="10.64820964228342"><ele>306.0</ele><time>2026-04-18T14:26:56Z</time></trkpt><trkpt lat="43.42493715310679" lon="10.648396435677727"><ele>306.0</ele><time>2026-04-18T14:26:57Z</time></trkpt><trkpt lat="43.42492917217307" lon="10.648586711745606"><ele>306.0</ele><time>2026-04-18T14:26:58Z</time></trkpt><trkpt lat="43.42493811143758" lon="10.64874942544799"><ele>306.0</ele><time>2026-04-18T14:26:59Z</time></trkpt><trkpt lat="43.42493228678234" lon="10.64886554826559"><ele>306.0</ele><time>2026-04-18T14:27:00Z</time></trkpt><trkpt lat="43.42495265176566" lon="10.648975764040454"><ele>306.0</ele><time>2026-04-18T14:27:01.001Z</time></trkpt><trkpt lat="43.4249943358134" lon="10.649113973944567"><ele>305.6</ele><time>2026-04-18T14:27:02.001Z</time></trkpt><trkpt lat="43.42507612758436" lon="10.649246547267628"><ele>305.20000000000005</ele><time>2026-04-18T14:27:03.001Z</time></trkpt><trkpt lat="43.42517099392654" lon="10.64937033387583"><ele>304.79999999999995</ele><time>2026-04-18T14:27:04.001Z</time></trkpt><trkpt lat="43.42524838730022" lon="10.649447972859402"><ele>304.4</ele><time>2026-04-18T14:27:05.001Z</time></trkpt><trkpt lat="43.425318809391435" lon="10.649513412098443"><ele>304.0</ele><time>2026-04-18T14:27:06.001Z</time></trkpt><trkpt lat="43.42536925772406" lon="10.649604761833189"><ele>303.4</ele><time>2026-04-18T14:27:07.001Z</time></trkpt><trkpt lat="43.42541504910774" lon="10.649718575002936"><ele>302.79999999999995</ele><time>2026-04-18T14:27:08.001Z</time></trkpt><trkpt lat="43.425433201421505" lon="10.64985192333915"><ele>302.20000000000005</ele><time>2026-04-18T14:27:09.001Z</time></trkpt><trkpt lat="43.425423352323946" lon="10.649994997801121"><ele>301.6</ele><time>2026-04-18T14:27:10.001Z</time></trkpt><trkpt lat="43.42538699347991" lon="10.650150136689426"><ele>301.0</ele><time>2026-04-18T14:27:11.001Z</time></trkpt><trkpt lat="43.42535382358746" lon="10.650267572195752"><ele>298.2</ele><time>2026-04-18T14:27:12.001Z</time></trkpt><trkpt lat="43.42533839289751" lon="10.650386956938432"><ele>295.40000000000003</ele><time>2026-04-18T14:27:13.001Z</time></trkpt><trkpt lat="43.42534122300274" lon="10.650514311393675"><ele>292.6</ele><time>2026-04-18T14:27:14.001Z</time></trkpt><trkpt lat="43.42534974618593" lon="10.65066111180241"><ele>289.8</ele><time>2026-04-18T14:27:15.001Z</time></trkpt><trkpt lat="43.42536835274909" lon="10.650820102106614"><ele>287.0</ele><time>2026-04-18T14:27:16.001Z</time></trkpt><trkpt lat="43.425394443257105" lon="10.650972816633034"><ele>287.0</ele><time>2026-04-18T14:27:17.001Z</time></trkpt><trkpt lat="43.425419878151686" lon="10.651111337442128"><ele>287.0</ele><time>2026-04-18T14:27:18.001Z</time></trkpt><trkpt lat="43.42545733357706" lon="10.651223801953206"><ele>287.0</ele><time>2026-04-18T14:27:19.001Z</time></trkpt><trkpt lat="43.425521563148685" lon="10.651300714487464"><ele>287.0</ele><time>2026-04-18T14:27:20.001Z</time></trkpt><trkpt lat="43.42559172540424" lon="10.651378583962227"><ele>287.0</ele><time>2026-04-18T14:27:21.001Z</time></trkpt><trkpt lat="43.42567546663023" lon="10.65145701192802"><ele>282.5</ele><time>2026-04-18T14:27:22.001Z</time></trkpt><trkpt lat="43.4257763404275" lon="10.651551445477526"><ele>278.0</ele><time>2026-04-18T14:27:23.001Z</time></trkpt><trkpt lat="43.42590947650172" lon="10.651618534861154"><ele>273.5</ele><time>2026-04-18T14:27:24.001Z</time></trkpt><trkpt lat="43.42602542948579" lon="10.65169124287566"><ele>269.0</ele><time>2026-04-18T14:27:25.001Z</time></trkpt><trkpt lat="43.426111651028954" lon="10.651780595260643"><ele>269.0</ele><time>2026-04-18T14:27:26.001Z</time></trkpt><trkpt lat="43.42618664253073" lon="10.651831639057722"><ele>269.0</ele><time>2026-04-18T14:27:27.001Z</time></trkpt><trkpt lat="43.42625527745046" lon="10.651900471753722"><ele>269.0</ele><time>2026-04-18T14:27:28.001Z</time></trkpt><trkpt lat="43.426328641784686" lon="10.652027486414044"><ele>269.0</ele><time>2026-04-18T14:27:29.001Z</time></trkpt><trkpt lat="43.42641226985353" lon="10.652150777474626"><ele>269.0</ele><time>2026-04-18T14:27:30.001Z</time></trkpt><trkpt lat="43.426498695012945" lon="10.652234691205143"><ele>265.59999999999997</ele><time>2026-04-18T14:27:31.001Z</time></trkpt><trkpt lat="43.4265816008173" lon="10.652310078561856"><ele>262.2</ele><time>2026-04-18T14:27:32.001Z</time></trkpt><trkpt lat="43.42665320574345" lon="10.652358407738134"><ele>258.79999999999995</ele><time>2026-04-18T14:27:33.001Z</time></trkpt><trkpt lat="43.4267483463788" lon="10.652403858184607"><ele>255.39999999999998</ele><time>2026-04-18T14:27:34.001Z</time></trkpt><trkpt lat="43.42685365802001" lon="10.652421306482172"><ele>252.0</ele><time>2026-04-18T14:27:35.001Z</time></trkpt><trkpt lat="43.42695343594746" lon="10.65241565046418"><ele>252.0</ele><time>2026-04-18T14:27:36.001Z</time></trkpt><trkpt lat="43.42702431712159" lon="10.652443108084325"><ele>252.0</ele><time>2026-04-18T14:27:37.001Z</time></trkpt><trkpt lat="43.42709084830166" lon="10.652472929411577"><ele>252.0</ele><time>2026-04-18T14:27:38.001Z</time></trkpt><trkpt lat="43.4271795104486" lon="10.652523134953242"><ele>252.0</ele><time>2026-04-18T14:27:39.001Z</time></trkpt><trkpt lat="43.427275397399725" lon="10.652575731550396"><ele>252.0</ele><time>2026-04-18T14:27:40.001Z</time></trkpt><trkpt lat="43.42736256963018" lon="10.652627921948357"><ele>252.0</ele><time>2026-04-18T14:27:41.001Z</time></trkpt><trkpt lat="43.42744346145709" lon="10.65268738161432"><ele>250.0</ele><time>2026-04-18T14:27:42.001Z</time></trkpt><trkpt lat="43.42752963073429" lon="10.65276865305693"><ele>248.0</ele><time>2026-04-18T14:27:43.001Z</time></trkpt><trkpt lat="43.42759066130551" lon="10.652864214529771"><ele>246.0</ele><time>2026-04-18T14:27:44.001Z</time></trkpt><trkpt lat="43.427628772399096" lon="10.652968046861172"><ele>244.0</ele><time>2026-04-18T14:27:45.001Z</time></trkpt><trkpt lat="43.42764427147216" lon="10.6530823449811"><ele>242.0</ele><time>2026-04-18T14:27:46.001Z</time></trkpt><trkpt lat="43.427647026305955" lon="10.653211092677745"><ele>240.39999999999998</ele><time>2026-04-18T14:27:47.001Z</time></trkpt><trkpt lat="43.42762516028041" lon="10.653337993763923"><ele>238.79999999999998</ele><time>2026-04-18T14:27:48.001Z</time></trkpt><trkpt lat="43.42759334499579" lon="10.65344494164285"><ele>237.2</ele><time>2026-04-18T14:27:49.001Z</time></trkpt><trkpt lat="43.42755513087681" lon="10.653544391548047"><ele>235.6</ele><time>2026-04-18T14:27:50.001Z</time></trkpt><trkpt lat="43.4274899708038" lon="10.653634934306787"><ele>234.0</ele><time>2026-04-18T14:27:51.001Z</time></trkpt><trkpt lat="43.42740943409121" lon="10.653753659321024"><ele>231.6</ele><time>2026-04-18T14:27:52.001Z</time></trkpt><trkpt lat="43.42732994523451" lon="10.65387492676494"><ele>229.2</ele><time>2026-04-18T14:27:53.001Z</time></trkpt><trkpt lat="43.427281349881405" lon="10.653979547669188"><ele>226.79999999999998</ele><time>2026-04-18T14:27:54.001Z</time></trkpt><trkpt lat="43.4272066764077" lon="10.654107335964893"><ele>224.39999999999998</ele><time>2026-04-18T14:27:56.001Z</time></trkpt><trkpt lat="43.427185591929465" lon="10.654196411663095"><ele>222.0</ele><time>2026-04-18T14:27:57.001Z</time></trkpt><trkpt lat="43.42716964758262" lon="10.65431452878427"><ele>222.0</ele><time>2026-04-18T14:27:58.002Z</time></trkpt><trkpt lat="43.427167147420825" lon="10.654441985188313"><ele>222.0</ele><time>2026-04-18T14:27:59.002Z</time></trkpt><trkpt lat="43.427190472486885" lon="10.65456519153794"><ele>222.0</ele><time>2026-04-18T14:28:00.002Z</time></trkpt><trkpt lat="43.4272510886518" lon="10.65466396162981"><ele>222.0</ele><time>2026-04-18T14:28:01.002Z</time></trkpt><trkpt lat="43.42729164427902" lon="10.654759139113144"><ele>222.0</ele><time>2026-04-18T14:28:02.002Z</time></trkpt><trkpt lat="43.427357602458976" lon="10.654818149050971"><ele>222.0</ele><time>2026-04-18T14:28:03.002Z</time></trkpt><trkpt lat="43.42743796596072" lon="10.654861854118161"><ele>219.0</ele><time>2026-04-18T14:28:04.002Z</time></trkpt><trkpt lat="43.42753609681767" lon="10.654912206023305"><ele>216.0</ele><time>2026-04-18T14:28:05.002Z</time></trkpt><trkpt lat="43.42765008269232" lon="10.654977829213571"><ele>213.0</ele><time>2026-04-18T14:28:06.002Z</time></trkpt><trkpt lat="43.42777392572253" lon="10.655041619898839"><ele>210.0</ele><time>2026-04-18T14:28:07.002Z</time></trkpt><trkpt lat="43.427892270237" lon="10.65510382827424"><ele>209.2</ele><time>2026-04-18T14:28:08.002Z</time></trkpt><trkpt lat="43.42799641844875" lon="10.655160031452318"><ele>208.4</ele><time>2026-04-18T14:28:09.002Z</time></trkpt><trkpt lat="43.42809736248535" lon="10.655222146562185"><ele>207.60000000000002</ele><time>2026-04-18T14:28:10.002Z</time></trkpt><trkpt lat="43.428193076437296" lon="10.655296618717308"><ele>206.8</ele><time>2026-04-18T14:28:11.002Z</time></trkpt><trkpt lat="43.42828615773577" lon="10.655382192662572"><ele>206.0</ele><time>2026-04-18T14:28:12.002Z</time></trkpt><trkpt lat="43.42837345446658" lon="10.655472926418055"><ele>203.60000000000002</ele><time>2026-04-18T14:28:13.002Z</time></trkpt><trkpt lat="43.428452960852816" lon="10.655572086817383"><ele>201.2</ele><time>2026-04-18T14:28:14.002Z</time></trkpt><trkpt lat="43.42851409435883" lon="10.655695602187594"><ele>198.8</ele><time>2026-04-18T14:28:15.002Z</time></trkpt><trkpt lat="43.428581800685556" lon="10.655836222781087"><ele>196.39999999999998</ele><time>2026-04-18T14:28:16.002Z</time></trkpt><trkpt lat="43.42865104237825" lon="10.655950895479858"><ele>194.0</ele><time>2026-04-18T14:28:17.002Z</time></trkpt><trkpt lat="43.42869748333931" lon="10.656033952048396"><ele>194.0</ele><time>2026-04-18T14:28:18.002Z</time></trkpt><trkpt lat="43.428765802099456" lon="10.656104364399367"><ele>194.0</ele><time>2026-04-18T14:28:19.002Z</time></trkpt><trkpt lat="43.428843312903055" lon="10.65616079715824"><ele>194.0</ele><time>2026-04-18T14:28:20.002Z</time></trkpt><trkpt lat="43.42893164151476" lon="10.6562033791335"><ele>194.0</ele><time>2026-04-18T14:28:21.002Z</time></trkpt><trkpt lat="43.429024561131904" lon="10.656237387944092"><ele>194.0</ele><time>2026-04-18T14:28:22.002Z</time></trkpt><trkpt lat="43.42911930871848" lon="10.656258063349425"><ele>192.33333333333334</ele><time>2026-04-18T14:28:23.002Z</time></trkpt><trkpt lat="43.42920259216912" lon="10.65627980423135"><ele>190.66666666666669</ele><time>2026-04-18T14:28:24Z</time></trkpt><trkpt lat="43.4292739277209" lon="10.656331982827236"><ele>189.0</ele><time>2026-04-18T14:28:25Z</time></trkpt><trkpt lat="43.429330998331395" lon="10.656405774981982"><ele>187.33333333333334</ele><time>2026-04-18T14:28:26Z</time></trkpt><trkpt lat="43.42937359482914" lon="10.656483226594487"><ele>185.66666666666669</ele><time>2026-04-18T14:28:27Z</time></trkpt><trkpt lat="43.429412414023574" lon="10.656624101601185"><ele>184.0</ele><time>2026-04-18T14:28:29Z</time></trkpt><trkpt lat="43.42949844202236" lon="10.656678994638067"><ele>184.0</ele><time>2026-04-18T14:28:30Z</time></trkpt><trkpt lat="43.42957308621253" lon="10.656700453606131"><ele>184.0</ele><time>2026-04-18T14:28:31Z</time></trkpt><trkpt lat="43.4296605975664" lon="10.656757021381804"><ele>184.0</ele><time>2026-04-18T14:28:32Z</time></trkpt><trkpt lat="43.429759472640484" lon="10.656810821263038"><ele>184.0</ele><time>2026-04-18T14:28:33Z</time></trkpt><trkpt lat="43.42987285731089" lon="10.65687178634034"><ele>184.0</ele><time>2026-04-18T14:28:34Z</time></trkpt><trkpt lat="43.42999837921213" lon="10.656947264719532"><ele>183.66666666666669</ele><time>2026-04-18T14:28:35Z</time></trkpt><trkpt lat="43.43012989628204" lon="10.657037427218171"><ele>183.33333333333334</ele><time>2026-04-18T14:28:36Z</time></trkpt><trkpt lat="43.43027156041798" lon="10.657130845869746"><ele>183.0</ele><time>2026-04-18T14:28:37Z</time></trkpt><trkpt lat="43.43041845379077" lon="10.657231016178768"><ele>182.66666666666666</ele><time>2026-04-18T14:28:38Z</time></trkpt><trkpt lat="43.43056771030188" lon="10.65733502578742"><ele>182.33333333333331</ele><time>2026-04-18T14:28:39Z</time></trkpt><trkpt lat="43.430723145677355" lon="10.657447147140594"><ele>182.0</ele><time>2026-04-18T14:28:40Z</time></trkpt><trkpt lat="43.430890046609136" lon="10.657554260130862"><ele>182.0</ele><time>2026-04-18T14:28:41Z</time></trkpt><trkpt lat="43.43106023628958" lon="10.657663787441454"><ele>182.0</ele><time>2026-04-18T14:28:42Z</time></trkpt><trkpt lat="43.43123201113988" lon="10.657777837606426"><ele>182.0</ele><time>2026-04-18T14:28:43Z</time></trkpt><trkpt lat="43.431409681255765" lon="10.657900297187325"><ele>181.66666666666666</ele><time>2026-04-18T14:28:44Z</time></trkpt><trkpt lat="43.431585327702756" lon="10.658019763511074"><ele>181.33333333333334</ele><time>2026-04-18T14:28:45Z</time></trkpt><trkpt lat="43.43176116112176" lon="10.658136262056722"><ele>181.0</ele><time>2026-04-18T14:28:46Z</time></trkpt><trkpt lat="43.43192977162194" lon="10.658251504369904"><ele>181.0</ele><time>2026-04-18T14:28:47Z</time></trkpt><trkpt lat="43.43209316300826" lon="10.658364801040554"><ele>181.0</ele><time>2026-04-18T14:28:48Z</time></trkpt><trkpt lat="43.43224713633706" lon="10.658472311970614"><ele>181.0</ele><time>2026-04-18T14:28:49Z</time></trkpt><trkpt lat="43.432394102843375" lon="10.65856659035469"><ele>180.25</ele><time>2026-04-18T14:28:50Z</time></trkpt><trkpt lat="43.43251325080317" lon="10.658652352250662"><ele>179.5</ele><time>2026-04-18T14:28:51Z</time></trkpt><trkpt lat="43.432632576983885" lon="10.658731461322194"><ele>178.75</ele><time>2026-04-18T14:28:52Z</time></trkpt><trkpt lat="43.43274544385019" lon="10.65880589547604"><ele>178.0</ele><time>2026-04-18T14:28:53Z</time></trkpt><trkpt lat="43.432847484909885" lon="10.65887854154524"><ele>178.0</ele><time>2026-04-18T14:28:54Z</time></trkpt><trkpt lat="43.43294241813358" lon="10.6589721570506"><ele>178.0</ele><time>2026-04-18T14:28:55Z</time></trkpt><trkpt lat="43.43302772651669" lon="10.659111141186347"><ele>178.0</ele><time>2026-04-18T14:28:56Z</time></trkpt><trkpt lat="43.433106442032" lon="10.659284871652861"><ele>178.0</ele><time>2026-04-18T14:28:57.001Z</time></trkpt><trkpt lat="43.43318154142495" lon="10.65945670909523"><ele>177.75</ele><time>2026-04-18T14:28:58.001Z</time></trkpt><trkpt lat="43.43325594402418" lon="10.659593322572885"><ele>177.5</ele><time>2026-04-18T14:28:59.001Z</time></trkpt><trkpt lat="43.43335524591521" lon="10.659687404560104"><ele>177.25</ele><time>2026-04-18T14:29:00.001Z</time></trkpt><trkpt lat="43.43349826681769" lon="10.659732519341011"><ele>177.0</ele><time>2026-04-18T14:29:01.001Z</time></trkpt><trkpt lat="43.43366495641619" lon="10.659768978377157"><ele>178.0</ele><time>2026-04-18T14:29:02.001Z</time></trkpt><trkpt lat="43.43384594089472" lon="10.659810442878277"><ele>179.0</ele><time>2026-04-18T14:29:03.001Z</time></trkpt><trkpt lat="43.43405319679948" lon="10.659872384511871"><ele>180.0</ele><time>2026-04-18T14:29:04.001Z</time></trkpt><trkpt lat="43.43426447758635" lon="10.6599428054032"><ele>180.0</ele><time>2026-04-18T14:29:05.001Z</time></trkpt><trkpt lat="43.434456086249966" lon="10.660022941755956"><ele>180.0</ele><time>2026-04-18T14:29:06.001Z</time></trkpt><trkpt lat="43.434630283086136" lon="10.660108516931631"><ele>180.0</ele><time>2026-04-18T14:29:07.001Z</time></trkpt><trkpt lat="43.43479422839562" lon="10.660211559146646"><ele>178.0</ele><time>2026-04-18T14:29:08.001Z</time></trkpt><trkpt lat="43.43495209296405" lon="10.660346053690049"><ele>176.0</ele><time>2026-04-18T14:29:09.001Z</time></trkpt><trkpt lat="43.43512270149867" lon="10.66047120150655"><ele>174.0</ele><time>2026-04-18T14:29:10.001Z</time></trkpt><trkpt lat="43.43529885949607" lon="10.66057931694657"><ele>174.0</ele><time>2026-04-18T14:29:11.001Z</time></trkpt><trkpt lat="43.43545989574568" lon="10.66072474602489"><ele>174.0</ele><time>2026-04-18T14:29:12.001Z</time></trkpt><trkpt lat="43.43562852818206" lon="10.66085275826371"><ele>174.0</ele><time>2026-04-18T14:29:13.001Z</time></trkpt><trkpt lat="43.435794944038044" lon="10.660978192679583"><ele>173.33333333333334</ele><time>2026-04-18T14:29:14.001Z</time></trkpt><trkpt lat="43.43596725383563" lon="10.66108434020267"><ele>172.66666666666669</ele><time>2026-04-18T14:29:15.001Z</time></trkpt><trkpt lat="43.43613497143454" lon="10.661208286749401"><ele>172.0</ele><time>2026-04-18T14:29:16.001Z</time></trkpt><trkpt lat="43.43630570346612" lon="10.66133850538306"><ele>172.0</ele><time>2026-04-18T14:29:17.001Z</time></trkpt><trkpt lat="43.43647630740661" lon="10.661477428262929"><ele>172.0</ele><time>2026-04-18T14:29:18.001Z</time></trkpt><trkpt lat="43.43663798173134" lon="10.661598777336515"><ele>172.0</ele><time>2026-04-18T14:29:19.001Z</time></trkpt><trkpt lat="43.436805882879405" lon="10.661716596344654"><ele>172.0</ele><time>2026-04-18T14:29:20.001Z</time></trkpt><trkpt lat="43.43698501842592" lon="10.66181550368204"><ele>172.0</ele><time>2026-04-18T14:29:21.001Z</time></trkpt><trkpt lat="43.437188163595906" lon="10.661888901795638"><ele>172.0</ele><time>2026-04-18T14:29:22.001Z</time></trkpt><trkpt lat="43.437400951645564" lon="10.661949922865443"><ele>171.33333333333334</ele><time>2026-04-18T14:29:23.001Z</time></trkpt><trkpt lat="43.43760769391725" lon="10.662019815430275"><ele>170.66666666666666</ele><time>2026-04-18T14:29:24.001Z</time></trkpt><trkpt lat="43.43781057660573" lon="10.662097270020613"><ele>170.0</ele><time>2026-04-18T14:29:25.001Z</time></trkpt><trkpt lat="43.43800638318865" lon="10.662175940751174"><ele>170.0</ele><time>2026-04-18T14:29:26.001Z</time></trkpt><trkpt lat="43.438174162447055" lon="10.662245568795436"><ele>170.0</ele><time>2026-04-18T14:29:27.001Z</time></trkpt><trkpt lat="43.43834655877792" lon="10.662312389342091"><ele>170.0</ele><time>2026-04-18T14:29:28.001Z</time></trkpt><trkpt lat="43.43852526325972" lon="10.662380920761972"><ele>170.0</ele><time>2026-04-18T14:29:29.001Z</time></trkpt><trkpt lat="43.43869232163353" lon="10.662454292041659"><ele>170.0</ele><time>2026-04-18T14:29:30.001Z</time></trkpt><trkpt lat="43.438829317063096" lon="10.662546214036613"><ele>170.0</ele><time>2026-04-18T14:29:31.001Z</time></trkpt><trkpt lat="43.43895852218631" lon="10.662663955209954"><ele>169.66666666666666</ele><time>2026-04-18T14:29:32.001Z</time></trkpt><trkpt lat="43.43908987404343" lon="10.662816133846588"><ele>169.33333333333334</ele><time>2026-04-18T14:29:33.001Z</time></trkpt><trkpt lat="43.439213461996076" lon="10.66298449753305"><ele>169.0</ele><time>2026-04-18T14:29:34.001Z</time></trkpt><trkpt lat="43.43934733652195" lon="10.663173019821654"><ele>169.0</ele><time>2026-04-18T14:29:35.001Z</time></trkpt><trkpt lat="43.439496698771116" lon="10.663374481241188"><ele>169.0</ele><time>2026-04-18T14:29:36.001Z</time></trkpt><trkpt lat="43.439659898867696" lon="10.66357788818623"><ele>169.0</ele><time>2026-04-18T14:29:37.001Z</time></trkpt><trkpt lat="43.43981360481086" lon="10.663780176828551"><ele>167.66666666666669</ele><time>2026-04-18T14:29:38.001Z</time></trkpt><trkpt lat="43.4399542294313" lon="10.663963613954074"><ele>166.33333333333334</ele><time>2026-04-18T14:29:39.001Z</time></trkpt><trkpt lat="43.4400863873209" lon="10.664132780558104"><ele>165.0</ele><time>2026-04-18T14:29:40.001Z</time></trkpt><trkpt lat="43.440210845562945" lon="10.664285733567919"><ele>165.0</ele><time>2026-04-18T14:29:41.001Z</time></trkpt><trkpt lat="43.44033749391142" lon="10.664410731673593"><ele>165.0</ele><time>2026-04-18T14:29:42.001Z</time></trkpt><trkpt lat="43.44047223356184" lon="10.664522718419565"><ele>165.0</ele><time>2026-04-18T14:29:43.001Z</time></trkpt><trkpt lat="43.440616411056226" lon="10.66462383183775"><ele>164.0</ele><time>2026-04-18T14:29:44.001Z</time></trkpt><trkpt lat="43.440778382680065" lon="10.664717222282322"><ele>163.0</ele><time>2026-04-18T14:29:45.001Z</time></trkpt><trkpt lat="43.4409551366994" lon="10.664786446202434"><ele>162.0</ele><time>2026-04-18T14:29:46.001Z</time></trkpt><trkpt lat="43.44112861714285" lon="10.664840583396717"><ele>162.0</ele><time>2026-04-18T14:29:47.001Z</time></trkpt><trkpt lat="43.441284841213246" lon="10.66489397751919"><ele>162.0</ele><time>2026-04-18T14:29:48.001Z</time></trkpt><trkpt lat="43.44142777546539" lon="10.664934942980647"><ele>162.0</ele><time>2026-04-18T14:29:49.001Z</time></trkpt><trkpt lat="43.44156100818683" lon="10.664975722598431"><ele>162.0</ele><time>2026-04-18T14:29:50.001Z</time></trkpt><trkpt lat="43.4416870582062" lon="10.665012545602451"><ele>161.83333333333334</ele><time>2026-04-18T14:29:51.001Z</time></trkpt><trkpt lat="43.44179878444995" lon="10.665044247327126"><ele>161.66666666666666</ele><time>2026-04-18T14:29:52.001Z</time></trkpt><trkpt lat="43.44189808594621" lon="10.665072359608956"><ele>161.5</ele><time>2026-04-18T14:29:53.001Z</time></trkpt><trkpt lat="43.44196947479655" lon="10.665100300842528"><ele>161.33333333333331</ele><time>2026-04-18T14:29:54.001Z</time></trkpt><trkpt lat="43.44203794886727" lon="10.665123178957398"><ele>161.16666666666666</ele><time>2026-04-18T14:30:17.002Z</time></trkpt><trkpt lat="43.442124983348535" lon="10.665147575892505"><ele>161.0</ele><time>2026-04-18T14:30:21.002Z</time></trkpt><trkpt lat="43.442190689316845" lon="10.665164706596945"><ele>161.0</ele><time>2026-04-18T14:30:23.002Z</time></trkpt><trkpt lat="43.442044262852306" lon="10.665132256744558"><ele>161.0</ele><time>2026-04-18T14:30:28.002Z</time></trkpt><trkpt lat="43.442126484863316" lon="10.66514659391918"><ele>161.0</ele><time>2026-04-18T14:30:30Z</time></trkpt><trkpt lat="43.44219709090371" lon="10.665170154979336"><ele>161.0</ele><time>2026-04-18T14:30:31Z</time></trkpt><trkpt lat="43.44228393685842" lon="10.665202334633292"><ele>161.0</ele><time>2026-04-18T14:30:32Z</time></trkpt><trkpt lat="43.44238065062717" lon="10.665235853818595"><ele>160.5</ele><time>2026-04-18T14:30:33Z</time></trkpt><trkpt lat="43.442484343378524" lon="10.665267866774114"><ele>160.0</ele><time>2026-04-18T14:30:34Z</time></trkpt><trkpt lat="43.442592619477395" lon="10.665296406446558"><ele>159.5</ele><time>2026-04-18T14:30:35Z</time></trkpt><trkpt lat="43.44272291498106" lon="10.66533463052505"><ele>159.0</ele><time>2026-04-18T14:30:36Z</time></trkpt><trkpt lat="43.44286286570126" lon="10.665381853134408"><ele>158.5</ele><time>2026-04-18T14:30:37Z</time></trkpt><trkpt lat="43.443003743940125" lon="10.665431017618454"><ele>158.0</ele><time>2026-04-18T14:30:38Z</time></trkpt><trkpt lat="43.44314019194255" lon="10.665469391435852"><ele>157.5</ele><time>2026-04-18T14:30:39Z</time></trkpt><trkpt lat="43.44329325135153" lon="10.665515170652702"><ele>157.0</ele><time>2026-04-18T14:30:40Z</time></trkpt><trkpt lat="43.443454659454815" lon="10.665563612523645"><ele>157.0</ele><time>2026-04-18T14:30:41Z</time></trkpt><trkpt lat="43.44361976335273" lon="10.665614963576878"><ele>157.0</ele><time>2026-04-18T14:30:42Z</time></trkpt><trkpt lat="43.4437885426931" lon="10.665676547873813"><ele>157.0</ele><time>2026-04-18T14:30:43Z</time></trkpt><trkpt lat="43.44396342862293" lon="10.665741914149303"><ele>157.0</ele><time>2026-04-18T14:30:44Z</time></trkpt><trkpt lat="43.444139302291575" lon="10.665811506460722"><ele>157.0</ele><time>2026-04-18T14:30:45Z</time></trkpt><trkpt lat="43.44429573547447" lon="10.66587194981483"><ele>157.0</ele><time>2026-04-18T14:30:46Z</time></trkpt><trkpt lat="43.44445029777432" lon="10.665931411383443"><ele>157.0</ele><time>2026-04-18T14:30:47Z</time></trkpt><trkpt lat="43.444604409734744" lon="10.66599646256853"><ele>157.0</ele><time>2026-04-18T14:30:48Z</time></trkpt><trkpt lat="43.44477424854312" lon="10.666065212425409"><ele>157.0</ele><time>2026-04-18T14:30:49Z</time></trkpt><trkpt lat="43.44495280031711" lon="10.666133048780502"><ele>155.66666666666669</ele><time>2026-04-18T14:30:50Z</time></trkpt><trkpt lat="43.445132133540156" lon="10.666203265291605"><ele>154.33333333333334</ele><time>2026-04-18T14:30:51.001Z</time></trkpt><trkpt lat="43.44531263633898" lon="10.66627989946888"><ele>153.0</ele><time>2026-04-18T14:30:52.001Z</time></trkpt><trkpt lat="43.4454955153259" lon="10.666356491766285"><ele>153.0</ele><time>2026-04-18T14:30:53.001Z</time></trkpt><trkpt lat="43.445687460532255" lon="10.666433420857823"><ele>153.0</ele><time>2026-04-18T14:30:54.001Z</time></trkpt><trkpt lat="43.44588509879788" lon="10.666512206452985"><ele>153.0</ele><time>2026-04-18T14:30:55.001Z</time></trkpt><trkpt lat="43.44609009455477" lon="10.666593880767335"><ele>152.33333333333334</ele><time>2026-04-18T14:30:56.001Z</time></trkpt><trkpt lat="43.4462979542626" lon="10.666676851223333"><ele>151.66666666666669</ele><time>2026-04-18T14:30:57.001Z</time></trkpt><trkpt lat="43.44650767106515" lon="10.666762131150824"><ele>151.0</ele><time>2026-04-18T14:30:58.001Z</time></trkpt><trkpt lat="43.44672199554785" lon="10.666851545358643"><ele>151.0</ele><time>2026-04-18T14:30:59.001Z</time></trkpt><trkpt lat="43.44694130958147" lon="10.666937831391584"><ele>151.0</ele><time>2026-04-18T14:31:00.001Z</time></trkpt><trkpt lat="43.44715658351488" lon="10.667016656764837"><ele>150.66666666666669</ele><time>2026-04-18T14:31:01.001Z</time></trkpt><trkpt lat="43.44736498804378" lon="10.667095322851406"><ele>150.33333333333334</ele><time>2026-04-18T14:31:02.001Z</time></trkpt><trkpt lat="43.44758037973429" lon="10.667181202906011"><ele>150.0</ele><time>2026-04-18T14:31:03.001Z</time></trkpt><trkpt lat="43.447797184134856" lon="10.667271513822753"><ele>150.0</ele><time>2026-04-18T14:31:04.001Z</time></trkpt><trkpt lat="43.44800619141229" lon="10.66735664574899"><ele>150.0</ele><time>2026-04-18T14:31:05.001Z</time></trkpt><trkpt lat="43.44821722268145" lon="10.667442159641807"><ele>150.0</ele><time>2026-04-18T14:31:06.001Z</time></trkpt><trkpt lat="43.448423073325216" lon="10.667516690032752"><ele>150.0</ele><time>2026-04-18T14:31:07.001Z</time></trkpt><trkpt lat="43.44861842316944" lon="10.667587162529166"><ele>150.0</ele><time>2026-04-18T14:31:08.001Z</time></trkpt><trkpt lat="43.448815219098414" lon="10.667629425951116"><ele>150.0</ele><time>2026-04-18T14:31:09.001Z</time></trkpt><trkpt lat="43.44901823649765" lon="10.667652899912724"><ele>150.33333333333334</ele><time>2026-04-18T14:31:10.001Z</time></trkpt><trkpt lat="43.44921982310052" lon="10.667662172577668"><ele>150.66666666666669</ele><time>2026-04-18T14:31:11.001Z</time></trkpt><trkpt lat="43.449412617226045" lon="10.667651446087255"><ele>151.0</ele><time>2026-04-18T14:31:12.001Z</time></trkpt><trkpt lat="43.449601175447974" lon="10.667600053407758"><ele>150.33333333333334</ele><time>2026-04-18T14:31:13.001Z</time></trkpt><trkpt lat="43.449792234852026" lon="10.667497929152892"><ele>149.66666666666666</ele><time>2026-04-18T14:31:14.001Z</time></trkpt><trkpt lat="43.44997402566834" lon="10.667386137125426"><ele>149.0</ele><time>2026-04-18T14:31:15.001Z</time></trkpt><trkpt lat="43.45013347602312" lon="10.667309247777201"><ele>149.0</ele><time>2026-04-18T14:31:16.001Z</time></trkpt><trkpt lat="43.4502867405616" lon="10.667257206930138"><ele>149.0</ele><time>2026-04-18T14:31:17.001Z</time></trkpt><trkpt lat="43.45044547206994" lon="10.667236967856454"><ele>149.0</ele><time>2026-04-18T14:31:18.001Z</time></trkpt><trkpt lat="43.45062208269034" lon="10.667251132476158"><ele>149.0</ele><time>2026-04-18T14:31:19.001Z</time></trkpt><trkpt lat="43.450799990732506" lon="10.667292996407971"><ele>149.0</ele><time>2026-04-18T14:31:20.001Z</time></trkpt><trkpt lat="43.45098899286246" lon="10.667341561269996"><ele>149.0</ele><time>2026-04-18T14:31:21.001Z</time></trkpt><trkpt lat="43.451180213115585" lon="10.667380007700276"><ele>149.66666666666666</ele><time>2026-04-18T14:31:22.001Z</time></trkpt><trkpt lat="43.45136063917289" lon="10.667401843609076"><ele>150.33333333333334</ele><time>2026-04-18T14:31:23.001Z</time></trkpt><trkpt lat="43.45153799858187" lon="10.667437657060047"><ele>151.0</ele><time>2026-04-18T14:31:24.001Z</time></trkpt><trkpt lat="43.45169050758822" lon="10.66749218818168"><ele>151.0</ele><time>2026-04-18T14:31:25.001Z</time></trkpt><trkpt lat="43.451868312133975" lon="10.667508816061684"><ele>151.0</ele><time>2026-04-18T14:31:26.001Z</time></trkpt><trkpt lat="43.45204601887843" lon="10.667555112974116"><ele>151.0</ele><time>2026-04-18T14:31:27.001Z</time></trkpt><trkpt lat="43.45222164059542" lon="10.667601371906215"><ele>150.33333333333334</ele><time>2026-04-18T14:31:28.001Z</time></trkpt><trkpt lat="43.45239683299566" lon="10.667621342884372"><ele>149.66666666666666</ele><time>2026-04-18T14:31:29.001Z</time></trkpt><trkpt lat="43.45258074273438" lon="10.667628624863935"><ele>149.0</ele><time>2026-04-18T14:31:30.001Z</time></trkpt><trkpt lat="43.45276828912017" lon="10.667600864473783"><ele>148.66666666666666</ele><time>2026-04-18T14:31:31.001Z</time></trkpt><trkpt lat="43.45295708402888" lon="10.667593571141024"><ele>148.33333333333334</ele><time>2026-04-18T14:31:32.001Z</time></trkpt><trkpt lat="43.453144406490765" lon="10.66758449079263"><ele>148.0</ele><time>2026-04-18T14:31:33.001Z</time></trkpt><trkpt lat="43.45333472253723" lon="10.667596170954024"><ele>148.0</ele><time>2026-04-18T14:31:34.001Z</time></trkpt><trkpt lat="43.45352990149649" lon="10.667618218012525"><ele>148.0</ele><time>2026-04-18T14:31:35.001Z</time></trkpt><trkpt lat="43.45372588995849" lon="10.667645262414435"><ele>148.0</ele><time>2026-04-18T14:31:36.001Z</time></trkpt><trkpt lat="43.45392342772591" lon="10.66770221151657"><ele>147.0</ele><time>2026-04-18T14:31:37.001Z</time></trkpt><trkpt lat="43.45412284280343" lon="10.667737174264776"><ele>146.0</ele><time>2026-04-18T14:31:38.001Z</time></trkpt><trkpt lat="43.454318904276334" lon="10.667751616610698"><ele>145.0</ele><time>2026-04-18T14:31:39.001Z</time></trkpt><trkpt lat="43.45450172349152" lon="10.667807076247307"><ele>144.66666666666669</ele><time>2026-04-18T14:31:40.001Z</time></trkpt><trkpt lat="43.4546794964033" lon="10.667840182625707"><ele>144.33333333333334</ele><time>2026-04-18T14:31:41.001Z</time></trkpt><trkpt lat="43.45486929608447" lon="10.667852759296435"><ele>144.0</ele><time>2026-04-18T14:31:42.001Z</time></trkpt><trkpt lat="43.455059117609366" lon="10.667886277139665"><ele>144.0</ele><time>2026-04-18T14:31:43.001Z</time></trkpt><trkpt lat="43.455246066600616" lon="10.667921155416858"><ele>144.0</ele><time>2026-04-18T14:31:44.001Z</time></trkpt><trkpt lat="43.45540255888261" lon="10.66795403680743"><ele>144.0</ele><time>2026-04-18T14:31:45.001Z</time></trkpt><trkpt lat="43.45553534798052" lon="10.667983053266891"><ele>143.66666666666666</ele><time>2026-04-18T14:31:46.001Z</time></trkpt><trkpt lat="43.455657011958124" lon="10.668014847709696"><ele>143.33333333333331</ele><time>2026-04-18T14:31:47.001Z</time></trkpt><trkpt lat="43.455806557486106" lon="10.668072785819506"><ele>143.0</ele><time>2026-04-18T14:31:48.002Z</time></trkpt><trkpt lat="43.45596587526273" lon="10.66818415710316"><ele>143.0</ele><time>2026-04-18T14:31:49.002Z</time></trkpt><trkpt lat="43.456138570747406" lon="10.668282746304895"><ele>143.0</ele><time>2026-04-18T14:31:50.002Z</time></trkpt><trkpt lat="43.456320044163625" lon="10.668415967065695"><ele>143.0</ele><time>2026-04-18T14:31:51.002Z</time></trkpt><trkpt lat="43.45650437299956" lon="10.6685487709704"><ele>142.33333333333331</ele><time>2026-04-18T14:31:52.002Z</time></trkpt><trkpt lat="43.4566967905632" lon="10.668678310395872"><ele>141.66666666666666</ele><time>2026-04-18T14:31:53.002Z</time></trkpt><trkpt lat="43.45688976066298" lon="10.668814575799411"><ele>141.0</ele><time>2026-04-18T14:31:54.002Z</time></trkpt><trkpt lat="43.457087527915505" lon="10.668954698918167"><ele>140.66666666666666</ele><time>2026-04-18T14:31:55.002Z</time></trkpt><trkpt lat="43.457284935881006" lon="10.669099140461906"><ele>140.33333333333331</ele><time>2026-04-18T14:31:56.002Z</time></trkpt><trkpt lat="43.457481108047276" lon="10.66924441106717"><ele>140.0</ele><time>2026-04-18T14:31:57.002Z</time></trkpt><trkpt lat="43.457676691052555" lon="10.669387278274936"><ele>139.66666666666666</ele><time>2026-04-18T14:31:58.002Z</time></trkpt><trkpt lat="43.457874237344406" lon="10.669530862225155"><ele>139.33333333333334</ele><time>2026-04-18T14:31:59.002Z</time></trkpt><trkpt lat="43.45807483537206" lon="10.669674518499635"><ele>139.0</ele><time>2026-04-18T14:32:00.002Z</time></trkpt><trkpt lat="43.45827859589775" lon="10.669822444767341"><ele>139.0</ele><time>2026-04-18T14:32:01.002Z</time></trkpt><trkpt lat="43.458476318227" lon="10.669971003860633"><ele>139.0</ele><time>2026-04-18T14:32:02.002Z</time></trkpt><trkpt lat="43.4586734789287" lon="10.670120388320305"><ele>140.0</ele><time>2026-04-18T14:32:03.002Z</time></trkpt><trkpt lat="43.45887836900325" lon="10.670260878062894"><ele>141.0</ele><time>2026-04-18T14:32:04.002Z</time></trkpt><trkpt lat="43.45907835971213" lon="10.670405261274555"><ele>138.0</ele><time>2026-04-18T14:32:05.002Z</time></trkpt><trkpt lat="43.459282160844474" lon="10.670550411473178"><ele>135.0</ele><time>2026-04-18T14:32:06.002Z</time></trkpt><trkpt lat="43.45948089682847" lon="10.670695387701738"><ele>136.0</ele><time>2026-04-18T14:32:07.002Z</time></trkpt><trkpt lat="43.4596843813944" lon="10.670837533858318"><ele>137.0</ele><time>2026-04-18T14:32:08.002Z</time></trkpt><trkpt lat="43.459888973797504" lon="10.670985036977601"><ele>135.0</ele><time>2026-04-18T14:32:09.002Z</time></trkpt><trkpt lat="43.46009099935887" lon="10.671132302358915"><ele>133.0</ele><time>2026-04-18T14:32:10.002Z</time></trkpt><trkpt lat="43.46029465973654" lon="10.671278733201673"><ele>132.5</ele><time>2026-04-18T14:32:11.002Z</time></trkpt><trkpt lat="43.460497054445966" lon="10.671425400680038"><ele>132.0</ele><time>2026-04-18T14:32:12.002Z</time></trkpt><trkpt lat="43.46070207265666" lon="10.671574353261004"><ele>132.0</ele><time>2026-04-18T14:32:13.002Z</time></trkpt><trkpt lat="43.46090793898901" lon="10.671728450358716"><ele>132.0</ele><time>2026-04-18T14:32:14.002Z</time></trkpt><trkpt lat="43.4611125309376" lon="10.671874158534266"><ele>131.5</ele><time>2026-04-18T14:32:15.002Z</time></trkpt><trkpt lat="43.461322671649945" lon="10.672022836913529"><ele>131.0</ele><time>2026-04-18T14:32:16.002Z</time></trkpt><trkpt lat="43.46152879702525" lon="10.672166849944022"><ele>131.0</ele><time>2026-04-18T14:32:17.002Z</time></trkpt><trkpt lat="43.46173534961884" lon="10.672312124167284"><ele>131.0</ele><time>2026-04-18T14:32:18.002Z</time></trkpt><trkpt lat="43.461935439825126" lon="10.6724574116701"><ele>130.66666666666666</ele><time>2026-04-18T14:32:19.002Z</time></trkpt><trkpt lat="43.462135393785694" lon="10.672596951386518"><ele>130.33333333333334</ele><time>2026-04-18T14:32:20.002Z</time></trkpt><trkpt lat="43.46233507652964" lon="10.672736557618057"><ele>130.0</ele><time>2026-04-18T14:32:21.002Z</time></trkpt><trkpt lat="43.46253611277864" lon="10.672880091994664"><ele>130.0</ele><time>2026-04-18T14:32:22.002Z</time></trkpt><trkpt lat="43.46273738994087" lon="10.673023936522718"><ele>130.0</ele><time>2026-04-18T14:32:23.002Z</time></trkpt><trkpt lat="43.46293447579821" lon="10.67316741313906"><ele>131.0</ele><time>2026-04-18T14:32:24.002Z</time></trkpt><trkpt lat="43.46313489409902" lon="10.673312315748989"><ele>132.0</ele><time>2026-04-18T14:32:25.002Z</time></trkpt><trkpt lat="43.46333965480239" lon="10.673462674886414"><ele>130.0</ele><time>2026-04-18T14:32:26.002Z</time></trkpt><trkpt lat="43.46354649907608" lon="10.673612799956652"><ele>128.0</ele><time>2026-04-18T14:32:27.002Z</time></trkpt><trkpt lat="43.46375505788831" lon="10.673764475841276"><ele>128.0</ele><time>2026-04-18T14:32:28.002Z</time></trkpt><trkpt lat="43.463965117074274" lon="10.673913624404506"><ele>128.0</ele><time>2026-04-18T14:32:29.002Z</time></trkpt><trkpt lat="43.46417370556025" lon="10.674062420695728"><ele>128.0</ele><time>2026-04-18T14:32:30.002Z</time></trkpt><trkpt lat="43.46436374546079" lon="10.67420264427525"><ele>128.0</ele><time>2026-04-18T14:32:31.002Z</time></trkpt><trkpt lat="43.46454172917718" lon="10.674347010641023"><ele>128.0</ele><time>2026-04-18T14:32:32.002Z</time></trkpt><trkpt lat="43.464716904942065" lon="10.674511436732057"><ele>127.33333333333333</ele><time>2026-04-18T14:32:33.002Z</time></trkpt><trkpt lat="43.46488577973989" lon="10.674705376710865"><ele>126.66666666666666</ele><time>2026-04-18T14:32:34.002Z</time></trkpt><trkpt lat="43.46503580362235" lon="10.674912881806065"><ele>126.0</ele><time>2026-04-18T14:32:35.002Z</time></trkpt><trkpt lat="43.46517528568789" lon="10.675131334547013"><ele>125.66666666666666</ele><time>2026-04-18T14:32:36Z</time></trkpt><trkpt lat="43.46530156257375" lon="10.675372257373375"><ele>125.33333333333333</ele><time>2026-04-18T14:32:37Z</time></trkpt><trkpt lat="43.46540880080365" lon="10.67562996255844"><ele>125.0</ele><time>2026-04-18T14:32:38Z</time></trkpt><trkpt lat="43.465548572982904" lon="10.675859305260099"><ele>126.5</ele><time>2026-04-18T14:32:39Z</time></trkpt><trkpt lat="43.46561139777571" lon="10.676179349608933"><ele>128.0</ele><time>2026-04-18T14:32:40Z</time></trkpt><trkpt lat="43.46571041548669" lon="10.676460246755068"><ele>128.0</ele><time>2026-04-18T14:32:41Z</time></trkpt><trkpt lat="43.46581158732311" lon="10.676735051078834"><ele>128.0</ele><time>2026-04-18T14:32:42Z</time></trkpt><trkpt lat="43.4659159951264" lon="10.677012008166633"><ele>126.5</ele><time>2026-04-18T14:32:43Z</time></trkpt><trkpt lat="43.466022368609295" lon="10.677291118944986"><ele>125.0</ele><time>2026-04-18T14:32:44Z</time></trkpt><trkpt lat="43.46613078330127" lon="10.677571288890286"><ele>124.0</ele><time>2026-04-18T14:32:45Z</time></trkpt><trkpt lat="43.46623814845572" lon="10.677850694148407"><ele>123.0</ele><time>2026-04-18T14:32:46Z</time></trkpt><trkpt lat="43.466339138910925" lon="10.678109298165708"><ele>122.0</ele><time>2026-04-18T14:32:47Z</time></trkpt><trkpt lat="43.466441274782916" lon="10.678354007463566"><ele>121.66666666666666</ele><time>2026-04-18T14:32:48Z</time></trkpt><trkpt lat="43.46654655830106" lon="10.67859734145296"><ele>121.33333333333334</ele><time>2026-04-18T14:32:49Z</time></trkpt><trkpt lat="43.4666525290273" lon="10.678858354463824"><ele>121.0</ele><time>2026-04-18T14:32:50Z</time></trkpt><trkpt lat="43.466772279633695" lon="10.679092109202767"><ele>121.0</ele><time>2026-04-18T14:32:51Z</time></trkpt><trkpt lat="43.46690655725173" lon="10.679332205699884"><ele>121.0</ele><time>2026-04-18T14:32:52Z</time></trkpt><trkpt lat="43.46704636346717" lon="10.67956515478978"><ele>121.0</ele><time>2026-04-18T14:32:53Z</time></trkpt><trkpt lat="43.467186540471964" lon="10.679806018930961"><ele>121.0</ele><time>2026-04-18T14:32:54Z</time></trkpt><trkpt lat="43.46732418802005" lon="10.680047876286384"><ele>121.0</ele><time>2026-04-18T14:32:55Z</time></trkpt><trkpt lat="43.46746316067124" lon="10.680293077753467"><ele>121.0</ele><time>2026-04-18T14:32:56Z</time></trkpt><trkpt lat="43.467605703409205" lon="10.68053351710296"><ele>120.33333333333334</ele><time>2026-04-18T14:32:57Z</time></trkpt><trkpt lat="43.467750657380115" lon="10.680775957428686"><ele>119.66666666666666</ele><time>2026-04-18T14:32:58Z</time></trkpt><trkpt lat="43.467890904358896" lon="10.681007724722976"><ele>119.0</ele><time>2026-04-18T14:32:59Z</time></trkpt><trkpt lat="43.468023296035625" lon="10.681238263566053"><ele>121.33333333333333</ele><time>2026-04-18T14:33:00Z</time></trkpt><trkpt lat="43.46815169319728" lon="10.681446014112815"><ele>123.66666666666666</ele><time>2026-04-18T14:33:01Z</time></trkpt><trkpt lat="43.4682761350607" lon="10.681660400659398"><ele>126.0</ele><time>2026-04-18T14:33:02.001Z</time></trkpt><trkpt lat="43.46839496898174" lon="10.681889902935783"><ele>124.66666666666666</ele><time>2026-04-18T14:33:03.001Z</time></trkpt><trkpt lat="43.46851790342828" lon="10.68209266183001"><ele>123.33333333333333</ele><time>2026-04-18T14:33:04.001Z</time></trkpt><trkpt lat="43.46861864047168" lon="10.68228176217999"><ele>122.0</ele><time>2026-04-18T14:33:05.001Z</time></trkpt><trkpt lat="43.46869758935316" lon="10.682471570212709"><ele>122.0</ele><time>2026-04-18T14:33:06.001Z</time></trkpt><trkpt lat="43.46875171408321" lon="10.682659997024022"><ele>122.0</ele><time>2026-04-18T14:33:07.001Z</time></trkpt><trkpt lat="43.46877469685655" lon="10.682871190187967"><ele>122.0</ele><time>2026-04-18T14:33:08.001Z</time></trkpt><trkpt lat="43.46876746935499" lon="10.683099619036945"><ele>121.33333333333333</ele><time>2026-04-18T14:33:09.001Z</time></trkpt><trkpt lat="43.46873423854137" lon="10.683323656321093"><ele>120.66666666666666</ele><time>2026-04-18T14:33:10.001Z</time></trkpt><trkpt lat="43.46868875167591" lon="10.683528396065748"><ele>120.0</ele><time>2026-04-18T14:33:11.001Z</time></trkpt><trkpt lat="43.46867851847848" lon="10.683706932152369"><ele>119.25</ele><time>2026-04-18T14:33:12.001Z</time></trkpt><trkpt lat="43.46869488547562" lon="10.683876373345178"><ele>118.5</ele><time>2026-04-18T14:33:13.001Z</time></trkpt><trkpt lat="43.468730630001396" lon="10.68406412438793"><ele>117.75</ele><time>2026-04-18T14:33:14.001Z</time></trkpt><trkpt lat="43.46880167267052" lon="10.68424113623516"><ele>117.0</ele><time>2026-04-18T14:33:15.001Z</time></trkpt><trkpt lat="43.468900592161205" lon="10.68438694698076"><ele>117.0</ele><time>2026-04-18T14:33:16.001Z</time></trkpt><trkpt lat="43.46903331754452" lon="10.684516795186216"><ele>117.0</ele><time>2026-04-18T14:33:17.001Z</time></trkpt><trkpt lat="43.46919179817799" lon="10.684644975061477"><ele>117.0</ele><time>2026-04-18T14:33:18.001Z</time></trkpt><trkpt lat="43.46936197586225" lon="10.684775661721174"><ele>117.0</ele><time>2026-04-18T14:33:19.001Z</time></trkpt><trkpt lat="43.46953055563057" lon="10.684929234155236"><ele>117.0</ele><time>2026-04-18T14:33:20.001Z</time></trkpt><trkpt lat="43.46971020118775" lon="10.685073327958413"><ele>117.0</ele><time>2026-04-18T14:33:21.001Z</time></trkpt><trkpt lat="43.46988100170292" lon="10.68522389706068"><ele>115.66666666666666</ele><time>2026-04-18T14:33:22.001Z</time></trkpt><trkpt lat="43.470053215757524" lon="10.685370253365107"><ele>114.33333333333333</ele><time>2026-04-18T14:33:23.001Z</time></trkpt><trkpt lat="43.4702346554868" lon="10.68550747177423"><ele>113.0</ele><time>2026-04-18T14:33:24.001Z</time></trkpt><trkpt lat="43.470420806684494" lon="10.685630809186497"><ele>113.33333333333333</ele><time>2026-04-18T14:33:25.001Z</time></trkpt><trkpt lat="43.47060722126141" lon="10.685750421585764"><ele>113.66666666666666</ele><time>2026-04-18T14:33:26.001Z</time></trkpt><trkpt lat="43.4707960766067" lon="10.685871316952555"><ele>114.0</ele><time>2026-04-18T14:33:27.001Z</time></trkpt><trkpt lat="43.47096306068386" lon="10.685993026184248"><ele>113.66666666666666</ele><time>2026-04-18T14:33:28.001Z</time></trkpt><trkpt lat="43.47113929162043" lon="10.686126375943168"><ele>113.33333333333333</ele><time>2026-04-18T14:33:29.001Z</time></trkpt><trkpt lat="43.4713134980367" lon="10.686275662795449"><ele>113.0</ele><time>2026-04-18T14:33:30.001Z</time></trkpt><trkpt lat="43.47147461635807" lon="10.686445169746067"><ele>113.0</ele><time>2026-04-18T14:33:31Z</time></trkpt><trkpt lat="43.47162195194571" lon="10.686633944775522"><ele>113.0</ele><time>2026-04-18T14:33:32Z</time></trkpt><trkpt lat="43.47176969180899" lon="10.686845195693"><ele>113.0</ele><time>2026-04-18T14:33:33Z</time></trkpt><trkpt lat="43.47190714313141" lon="10.687073843973439"><ele>113.0</ele><time>2026-04-18T14:33:34Z</time></trkpt><trkpt lat="43.472032934770894" lon="10.687319461766997"><ele>113.0</ele><time>2026-04-18T14:33:35Z</time></trkpt><trkpt lat="43.47215275463403" lon="10.687577429974759"><ele>113.0</ele><time>2026-04-18T14:33:36Z</time></trkpt><trkpt lat="43.472276971391636" lon="10.687831295045296"><ele>111.5</ele><time>2026-04-18T14:33:37Z</time></trkpt><trkpt lat="43.47240214164562" lon="10.688088499144536"><ele>110.0</ele><time>2026-04-18T14:33:38Z</time></trkpt><trkpt lat="43.472520550686696" lon="10.688352419669185"><ele>109.0</ele><time>2026-04-18T14:33:39Z</time></trkpt><trkpt lat="43.47263101130139" lon="10.688623156943793"><ele>108.0</ele><time>2026-04-18T14:33:40Z</time></trkpt><trkpt lat="43.47274256755899" lon="10.688901770640909"><ele>108.0</ele><time>2026-04-18T14:33:41Z</time></trkpt><trkpt lat="43.47285052070067" lon="10.689178417203724"><ele>108.0</ele><time>2026-04-18T14:33:42Z</time></trkpt><trkpt lat="43.47295739413189" lon="10.68945687384571"><ele>110.0</ele><time>2026-04-18T14:33:43Z</time></trkpt><trkpt lat="43.47306304320141" lon="10.68973721017381"><ele>112.0</ele><time>2026-04-18T14:33:44Z</time></trkpt><trkpt lat="43.47317111806915" lon="10.690015477342431"><ele>110.0</ele><time>2026-04-18T14:33:45Z</time></trkpt><trkpt lat="43.473281080557314" lon="10.69029727352972"><ele>108.0</ele><time>2026-04-18T14:33:46Z</time></trkpt><trkpt lat="43.47338720549418" lon="10.690573495568449"><ele>108.0</ele><time>2026-04-18T14:33:47Z</time></trkpt><trkpt lat="43.47349476560388" lon="10.69085872447198"><ele>108.0</ele><time>2026-04-18T14:33:48Z</time></trkpt><trkpt lat="43.47360382664315" lon="10.691143379077573"><ele>108.0</ele><time>2026-04-18T14:33:49Z</time></trkpt><trkpt lat="43.47371178321313" lon="10.691426540490431"><ele>108.0</ele><time>2026-04-18T14:33:50Z</time></trkpt><trkpt lat="43.47381974522743" lon="10.69171174201807"><ele>108.5</ele><time>2026-04-18T14:33:51Z</time></trkpt><trkpt lat="43.473928925121264" lon="10.692000892043033"><ele>109.0</ele><time>2026-04-18T14:33:52Z</time></trkpt><trkpt lat="43.47403988176498" lon="10.692294142530205"><ele>109.0</ele><time>2026-04-18T14:33:53Z</time></trkpt><trkpt lat="43.4741516527306" lon="10.69258724488701"><ele>109.0</ele><time>2026-04-18T14:33:54Z</time></trkpt><trkpt lat="43.47426414374686" lon="10.6928805384872"><ele>108.0</ele><time>2026-04-18T14:33:55Z</time></trkpt><trkpt lat="43.474371861072825" lon="10.69316321707425"><ele>107.0</ele><time>2026-04-18T14:33:56.001Z</time></trkpt><trkpt lat="43.474474094907414" lon="10.693424247793763"><ele>106.0</ele><time>2026-04-18T14:33:57.001Z</time></trkpt><trkpt lat="43.47456380827728" lon="10.69366719054715"><ele>107.66666666666667</ele><time>2026-04-18T14:33:58.001Z</time></trkpt><trkpt lat="43.474653023652145" lon="10.693902096197071"><ele>109.33333333333334</ele><time>2026-04-18T14:33:59.001Z</time></trkpt><trkpt lat="43.47473519053255" lon="10.694120796351854"><ele>111.0</ele><time>2026-04-18T14:34:00.001Z</time></trkpt><trkpt lat="43.47481975012586" lon="10.694335387874995"><ele>108.66666666666666</ele><time>2026-04-18T14:34:01.001Z</time></trkpt><trkpt lat="43.47491227470818" lon="10.694546073994939"><ele>106.33333333333333</ele><time>2026-04-18T14:34:02.001Z</time></trkpt><trkpt lat="43.47501698670314" lon="10.694758139434414"><ele>104.0</ele><time>2026-04-18T14:34:03.001Z</time></trkpt><trkpt lat="43.475133661226494" lon="10.694966193223076"><ele>104.0</ele><time>2026-04-18T14:34:04.001Z</time></trkpt><trkpt lat="43.475256122875614" lon="10.695176860910804"><ele>104.0</ele><time>2026-04-18T14:34:05.001Z</time></trkpt><trkpt lat="43.475385072938835" lon="10.695395523493408"><ele>104.0</ele><time>2026-04-18T14:34:06.001Z</time></trkpt><trkpt lat="43.47551374149812" lon="10.695617705243736"><ele>104.66666666666666</ele><time>2026-04-18T14:34:07.001Z</time></trkpt><trkpt lat="43.47564230653862" lon="10.695846144987389"><ele>105.33333333333334</ele><time>2026-04-18T14:34:08.001Z</time></trkpt><trkpt lat="43.47576497511179" lon="10.69607230588616"><ele>106.0</ele><time>2026-04-18T14:34:09.001Z</time></trkpt><trkpt lat="43.47588258863079" lon="10.696289877871616"><ele>104.66666666666667</ele><time>2026-04-18T14:34:10.001Z</time></trkpt><trkpt lat="43.47599927645608" lon="10.696501727455843"><ele>103.33333333333334</ele><time>2026-04-18T14:34:11.001Z</time></trkpt><trkpt lat="43.47612073168395" lon="10.696710680694865"><ele>102.0</ele><time>2026-04-18T14:34:12.001Z</time></trkpt><trkpt lat="43.47624750021297" lon="10.696925571363574"><ele>101.33333333333334</ele><time>2026-04-18T14:34:13.001Z</time></trkpt><trkpt lat="43.476384507427895" lon="10.697129653868632"><ele>100.66666666666667</ele><time>2026-04-18T14:34:14.001Z</time></trkpt><trkpt lat="43.476530290297696" lon="10.697322784700946"><ele>100.0</ele><time>2026-04-18T14:34:15.001Z</time></trkpt><trkpt lat="43.47667270033954" lon="10.697504075932486"><ele>100.0</ele><time>2026-04-18T14:34:16.001Z</time></trkpt><trkpt lat="43.47680236714269" lon="10.69766971000325"><ele>100.0</ele><time>2026-04-18T14:34:17.001Z</time></trkpt><trkpt lat="43.47691876038115" lon="10.697822295219245"><ele>100.0</ele><time>2026-04-18T14:34:18.001Z</time></trkpt><trkpt lat="43.477019552626835" lon="10.697947652481666"><ele>99.2</ele><time>2026-04-18T14:34:19.001Z</time></trkpt><trkpt lat="43.477118601376" lon="10.698081928202043"><ele>98.4</ele><time>2026-04-18T14:34:20.001Z</time></trkpt><trkpt lat="43.477199487991534" lon="10.698190357523353"><ele>97.6</ele><time>2026-04-18T14:34:21.001Z</time></trkpt><trkpt lat="43.47727070768965" lon="10.698289029772896"><ele>96.8</ele><time>2026-04-18T14:34:22.001Z</time></trkpt><trkpt lat="43.47734025152144" lon="10.698378382460477"><ele>96.0</ele><time>2026-04-18T14:34:24.001Z</time></trkpt><trkpt lat="43.47741847668858" lon="10.698468111908944"><ele>96.0</ele><time>2026-04-18T14:34:26.001Z</time></trkpt><trkpt lat="43.47750062720237" lon="10.69854270037861"><ele>96.0</ele><time>2026-04-18T14:34:28.001Z</time></trkpt><trkpt lat="43.47766046625617" lon="10.698348793829513"><ele>96.0</ele><time>2026-04-18T14:34:31.001Z</time></trkpt><trkpt lat="43.477745386863575" lon="10.698222765379457"><ele>96.0</ele><time>2026-04-18T14:34:32.001Z</time></trkpt><trkpt lat="43.477845312069554" lon="10.698117196256439"><ele>96.0</ele><time>2026-04-18T14:34:33.001Z</time></trkpt><trkpt lat="43.477975505785686" lon="10.698000770310509"><ele>96.0</ele><time>2026-04-18T14:34:34.001Z</time></trkpt><trkpt lat="43.47812316948975" lon="10.697896065258359"><ele>96.0</ele><time>2026-04-18T14:34:35.001Z</time></trkpt><trkpt lat="43.47826575972991" lon="10.697785414840563"><ele>96.5</ele><time>2026-04-18T14:34:36.001Z</time></trkpt><trkpt lat="43.47839630055405" lon="10.69768273006456"><ele>97.0</ele><time>2026-04-18T14:34:37.001Z</time></trkpt><trkpt lat="43.47852564765364" lon="10.697585187082915"><ele>97.5</ele><time>2026-04-18T14:34:38.001Z</time></trkpt><trkpt lat="43.47864463651206" lon="10.697487731427548"><ele>98.0</ele><time>2026-04-18T14:34:39.001Z</time></trkpt><trkpt lat="43.478737506259506" lon="10.697376549608268"><ele>99.5</ele><time>2026-04-18T14:34:40.001Z</time></trkpt><trkpt lat="43.47880580515182" lon="10.697233216741632"><ele>101.0</ele><time>2026-04-18T14:34:41.001Z</time></trkpt><trkpt lat="43.47884591422182" lon="10.697076599925559"><ele>102.5</ele><time>2026-04-18T14:34:42Z</time></trkpt><trkpt lat="43.478877716758696" lon="10.696906281896709"><ele>104.0</ele><time>2026-04-18T14:34:43Z</time></trkpt><trkpt lat="43.478901850757524" lon="10.696735689371636"><ele>104.0</ele><time>2026-04-18T14:34:44Z</time></trkpt><trkpt lat="43.47894640713603" lon="10.69656345196701"><ele>104.0</ele><time>2026-04-18T14:34:45Z</time></trkpt><trkpt lat="43.47897623449728" lon="10.696400790796847"><ele>104.0</ele><time>2026-04-18T14:34:46Z</time></trkpt><trkpt lat="43.47904951837188" lon="10.696028738212236"><ele>104.33333333333333</ele><time>2026-04-18T14:34:47Z</time></trkpt><trkpt lat="43.4791035670898" lon="10.695793565610145"><ele>104.66666666666666</ele><time>2026-04-18T14:34:48Z</time></trkpt><trkpt lat="43.47917868159874" lon="10.695571848213776"><ele>105.0</ele><time>2026-04-18T14:34:49Z</time></trkpt><trkpt lat="43.47925479965176" lon="10.695341301483163"><ele>104.33333333333334</ele><time>2026-04-18T14:34:50Z</time></trkpt><trkpt lat="43.47932782373398" lon="10.695104616638957"><ele>103.66666666666667</ele><time>2026-04-18T14:34:51Z</time></trkpt><trkpt lat="43.479447001843255" lon="10.694899737333106"><ele>103.0</ele><time>2026-04-18T14:34:52Z</time></trkpt><trkpt lat="43.47955927531607" lon="10.694702564351296"><ele>104.33333333333334</ele><time>2026-04-18T14:34:53Z</time></trkpt><trkpt lat="43.47968524972742" lon="10.694511262283545"><ele>105.66666666666666</ele><time>2026-04-18T14:34:54Z</time></trkpt><trkpt lat="43.47981469873794" lon="10.69432609858124"><ele>107.0</ele><time>2026-04-18T14:34:55Z</time></trkpt><trkpt lat="43.47994029522502" lon="10.69414181573302"><ele>107.0</ele><time>2026-04-18T14:34:56Z</time></trkpt><trkpt lat="43.480066677379384" lon="10.69399854162926"><ele>107.0</ele><time>2026-04-18T14:34:57Z</time></trkpt><trkpt lat="43.480182237488414" lon="10.693886721876622"><ele>107.0</ele><time>2026-04-18T14:34:58Z</time></trkpt><trkpt lat="43.48031097788737" lon="10.693845992801718"><ele>107.0</ele><time>2026-04-18T14:34:59Z</time></trkpt><trkpt lat="43.480438285752996" lon="10.69380082299264"><ele>106.75</ele><time>2026-04-18T14:35:00Z</time></trkpt><trkpt lat="43.48054675599471" lon="10.693717627737847"><ele>106.5</ele><time>2026-04-18T14:35:01Z</time></trkpt><trkpt lat="43.480648150498226" lon="10.69362714048068"><ele>106.25</ele><time>2026-04-18T14:35:02Z</time></trkpt><trkpt lat="43.480728258864104" lon="10.693483596827651"><ele>106.0</ele><time>2026-04-18T14:35:03Z</time></trkpt><trkpt lat="43.480798968844695" lon="10.693311251798367"><ele>106.0</ele><time>2026-04-18T14:35:04Z</time></trkpt><trkpt lat="43.48086913733459" lon="10.693125977615145"><ele>106.0</ele><time>2026-04-18T14:35:05Z</time></trkpt><trkpt lat="43.480939485223125" lon="10.692938759499652"><ele>106.0</ele><time>2026-04-18T14:35:06Z</time></trkpt><trkpt lat="43.480993004759505" lon="10.69273711120234"><ele>106.33333333333334</ele><time>2026-04-18T14:35:07Z</time></trkpt><trkpt lat="43.481026977248774" lon="10.692508944195414"><ele>106.66666666666666</ele><time>2026-04-18T14:35:08Z</time></trkpt><trkpt lat="43.48105694784078" lon="10.692255282610745"><ele>107.0</ele><time>2026-04-18T14:35:09Z</time></trkpt><trkpt lat="43.48109367494276" lon="10.69200439646171"><ele>107.66666666666666</ele><time>2026-04-18T14:35:10Z</time></trkpt><trkpt lat="43.48114007759718" lon="10.691745943362898"><ele>108.33333333333334</ele><time>2026-04-18T14:35:11Z</time></trkpt><trkpt lat="43.4811905267668" lon="10.691484547875822"><ele>109.0</ele><time>2026-04-18T14:35:12Z</time></trkpt><trkpt lat="43.481235922162355" lon="10.691219655497974"><ele>109.66666666666667</ele><time>2026-04-18T14:35:13Z</time></trkpt><trkpt lat="43.48127835059286" lon="10.690975289594935"><ele>110.33333333333334</ele><time>2026-04-18T14:35:14Z</time></trkpt><trkpt lat="43.48132122360246" lon="10.690751724538437"><ele>111.0</ele><time>2026-04-18T14:35:15Z</time></trkpt><trkpt lat="43.48136583261991" lon="10.690534375478324"><ele>111.0</ele><time>2026-04-18T14:35:16Z</time></trkpt><trkpt lat="43.48140711696931" lon="10.690302592740725"><ele>111.0</ele><time>2026-04-18T14:35:17Z</time></trkpt><trkpt lat="43.481440376612596" lon="10.690063564556201"><ele>111.0</ele><time>2026-04-18T14:35:18Z</time></trkpt><trkpt lat="43.48144950984477" lon="10.689815041283916"><ele>111.0</ele><time>2026-04-18T14:35:19Z</time></trkpt><trkpt lat="43.48143879070329" lon="10.689560998430716"><ele>111.0</ele><time>2026-04-18T14:35:20Z</time></trkpt><trkpt lat="43.48141517982048" lon="10.68930373394281"><ele>111.0</ele><time>2026-04-18T14:35:21Z</time></trkpt><trkpt lat="43.481391020873254" lon="10.689043719288453"><ele>112.0</ele><time>2026-04-18T14:35:22Z</time></trkpt><trkpt lat="43.481363125859794" lon="10.688778803655987"><ele>113.0</ele><time>2026-04-18T14:35:23Z</time></trkpt><trkpt lat="43.4813442035619" lon="10.688535794831106"><ele>114.0</ele><time>2026-04-18T14:35:24Z</time></trkpt><trkpt lat="43.481323908772644" lon="10.688319364300211"><ele>115.0</ele><time>2026-04-18T14:35:25Z</time></trkpt><trkpt lat="43.481315833236046" lon="10.68810786898437"><ele>116.0</ele><time>2026-04-18T14:35:26Z</time></trkpt><trkpt lat="43.48132301319767" lon="10.687888853950952"><ele>117.0</ele><time>2026-04-18T14:35:27Z</time></trkpt><trkpt lat="43.48135000170944" lon="10.687656636082366"><ele>117.0</ele><time>2026-04-18T14:35:28Z</time></trkpt><trkpt lat="43.48139360550563" lon="10.687414691160447"><ele>117.0</ele><time>2026-04-18T14:35:29Z</time></trkpt><trkpt lat="43.48144363756831" lon="10.68716222836418"><ele>117.0</ele><time>2026-04-18T14:35:30Z</time></trkpt><trkpt lat="43.48148530629034" lon="10.68690693767203"><ele>116.0</ele><time>2026-04-18T14:35:31Z</time></trkpt><trkpt lat="43.48152806204607" lon="10.686650380161028"><ele>115.0</ele><time>2026-04-18T14:35:32Z</time></trkpt><trkpt lat="43.48157270171765" lon="10.68641195728418"><ele>114.0</ele><time>2026-04-18T14:35:33Z</time></trkpt><trkpt lat="43.48162147820007" lon="10.686201176221273"><ele>113.75</ele><time>2026-04-18T14:35:34Z</time></trkpt><trkpt lat="43.481673845830095" lon="10.686009960808537"><ele>113.5</ele><time>2026-04-18T14:35:35Z</time></trkpt><trkpt lat="43.481717313479926" lon="10.685821604500639"><ele>113.25</ele><time>2026-04-18T14:35:36Z</time></trkpt><trkpt lat="43.48173494014874" lon="10.685629624430112"><ele>113.0</ele><time>2026-04-18T14:35:37Z</time></trkpt><trkpt lat="43.481714932879584" lon="10.6854137342822"><ele>113.66666666666666</ele><time>2026-04-18T14:35:38Z</time></trkpt><trkpt lat="43.48166740846698" lon="10.685182264238298"><ele>114.33333333333334</ele><time>2026-04-18T14:35:39Z</time></trkpt><trkpt lat="43.481633991460065" lon="10.684947885899316"><ele>115.0</ele><time>2026-04-18T14:35:40Z</time></trkpt><trkpt lat="43.48159756264008" lon="10.68471429167728"><ele>115.0</ele><time>2026-04-18T14:35:41.001Z</time></trkpt><trkpt lat="43.48155992013018" lon="10.684505665494424"><ele>115.0</ele><time>2026-04-18T14:35:42.001Z</time></trkpt><trkpt lat="43.48151816217986" lon="10.684304500820154"><ele>115.0</ele><time>2026-04-18T14:35:43.001Z</time></trkpt><trkpt lat="43.481461571057196" lon="10.684092640589226"><ele>115.33333333333334</ele><time>2026-04-18T14:35:44.001Z</time></trkpt><trkpt lat="43.48138158709444" lon="10.683879136259376"><ele>115.66666666666666</ele><time>2026-04-18T14:35:45.001Z</time></trkpt><trkpt lat="43.48128668687719" lon="10.683662741990522"><ele>116.0</ele><time>2026-04-18T14:35:46.001Z</time></trkpt><trkpt lat="43.48119806331624" lon="10.683461511897715"><ele>116.0</ele><time>2026-04-18T14:35:47.001Z</time></trkpt><trkpt lat="43.48115709508152" lon="10.683283498031876"><ele>116.0</ele><time>2026-04-18T14:35:48.001Z</time></trkpt><trkpt lat="43.481132833409035" lon="10.683122863277998"><ele>116.0</ele><time>2026-04-18T14:35:49.001Z</time></trkpt><trkpt lat="43.481138944442556" lon="10.682939294726946"><ele>116.0</ele><time>2026-04-18T14:35:50.001Z</time></trkpt><trkpt lat="43.48115290860836" lon="10.682720542337442"><ele>116.66666666666666</ele><time>2026-04-18T14:35:51.001Z</time></trkpt><trkpt lat="43.481168368339716" lon="10.682476282030626"><ele>117.33333333333334</ele><time>2026-04-18T14:35:52.001Z</time></trkpt><trkpt lat="43.481170604413315" lon="10.68221403841885"><ele>118.0</ele><time>2026-04-18T14:35:53.001Z</time></trkpt><trkpt lat="43.48118922943974" lon="10.681938856066509"><ele>118.33333333333334</ele><time>2026-04-18T14:35:54.001Z</time></trkpt><trkpt lat="43.4812071202594" lon="10.681660048793079"><ele>118.66666666666666</ele><time>2026-04-18T14:35:55.001Z</time></trkpt><trkpt lat="43.48122550632987" lon="10.681372130294664"><ele>119.0</ele><time>2026-04-18T14:35:56.001Z</time></trkpt><trkpt lat="43.48124341528253" lon="10.681086478679562"><ele>119.0</ele><time>2026-04-18T14:35:57.001Z</time></trkpt><trkpt lat="43.481263118993034" lon="10.680800099182028"><ele>119.0</ele><time>2026-04-18T14:35:58.001Z</time></trkpt><trkpt lat="43.48128208455352" lon="10.680514945050964"><ele>119.0</ele><time>2026-04-18T14:35:59.001Z</time></trkpt><trkpt lat="43.481300950160275" lon="10.680244716922065"><ele>119.66666666666666</ele><time>2026-04-18T14:36:00.001Z</time></trkpt><trkpt lat="43.4813130604788" lon="10.679979445073423"><ele>120.33333333333334</ele><time>2026-04-18T14:36:01.001Z</time></trkpt><trkpt lat="43.48132754343911" lon="10.679710231745664"><ele>121.0</ele><time>2026-04-18T14:36:02.001Z</time></trkpt><trkpt lat="43.48134295354479" lon="10.67944338111539"><ele>121.66666666666667</ele><time>2026-04-18T14:36:03.001Z</time></trkpt><trkpt lat="43.48135762637743" lon="10.679173064455465"><ele>122.33333333333334</ele><time>2026-04-18T14:36:04.001Z</time></trkpt><trkpt lat="43.48137231095382" lon="10.67890929848067"><ele>123.0</ele><time>2026-04-18T14:36:05.001Z</time></trkpt><trkpt lat="43.48138357279584" lon="10.678657607111354"><ele>123.66666666666666</ele><time>2026-04-18T14:36:06.001Z</time></trkpt><trkpt lat="43.48139715661377" lon="10.678433693932615"><ele>124.33333333333333</ele><time>2026-04-18T14:36:07.001Z</time></trkpt><trkpt lat="43.48141527986552" lon="10.678223067381152"><ele>125.0</ele><time>2026-04-18T14:36:08.001Z</time></trkpt><trkpt lat="43.48144977485891" lon="10.678007219539332"><ele>125.0</ele><time>2026-04-18T14:36:09.001Z</time></trkpt><trkpt lat="43.481505613231214" lon="10.677784162568996"><ele>125.0</ele><time>2026-04-18T14:36:10.001Z</time></trkpt><trkpt lat="43.48157804791448" lon="10.677561447775393"><ele>125.0</ele><time>2026-04-18T14:36:11.001Z</time></trkpt><trkpt lat="43.48164435341618" lon="10.677339530929503"><ele>125.66666666666666</ele><time>2026-04-18T14:36:12.001Z</time></trkpt><trkpt lat="43.48171324204252" lon="10.677119451629524"><ele>126.33333333333334</ele><time>2026-04-18T14:36:13.001Z</time></trkpt><trkpt lat="43.481779786795485" lon="10.676893478763027"><ele>127.0</ele><time>2026-04-18T14:36:14.001Z</time></trkpt><trkpt lat="43.481855764570504" lon="10.676666007016637"><ele>128.0</ele><time>2026-04-18T14:36:15.001Z</time></trkpt><trkpt lat="43.481922784653584" lon="10.67643059685345"><ele>129.0</ele><time>2026-04-18T14:36:16.001Z</time></trkpt><trkpt lat="43.481997657292766" lon="10.676188425117589"><ele>130.0</ele><time>2026-04-18T14:36:17.001Z</time></trkpt><trkpt lat="43.48207162781726" lon="10.675946806975665"><ele>131.33333333333334</ele><time>2026-04-18T14:36:18.001Z</time></trkpt><trkpt lat="43.48214655807961" lon="10.675706947041213"><ele>132.66666666666666</ele><time>2026-04-18T14:36:19.001Z</time></trkpt><trkpt lat="43.482223220468576" lon="10.675474061969144"><ele>134.0</ele><time>2026-04-18T14:36:20.001Z</time></trkpt><trkpt lat="43.48228331764321" lon="10.675272013353673"><ele>135.66666666666666</ele><time>2026-04-18T14:36:21.001Z</time></trkpt><trkpt lat="43.48232927640473" lon="10.675072136696182"><ele>137.33333333333334</ele><time>2026-04-18T14:36:22.001Z</time></trkpt><trkpt lat="43.48236317810174" lon="10.674857552466905"><ele>139.0</ele><time>2026-04-18T14:36:23.001Z</time></trkpt><trkpt lat="43.48237758086799" lon="10.674646013544393"><ele>139.0</ele><time>2026-04-18T14:36:24.001Z</time></trkpt><trkpt lat="43.48236641301198" lon="10.674438079108006"><ele>139.0</ele><time>2026-04-18T14:36:25.001Z</time></trkpt><trkpt lat="43.48232647680581" lon="10.67423472820954"><ele>139.0</ele><time>2026-04-18T14:36:26.001Z</time></trkpt><trkpt lat="43.48225953527528" lon="10.674041291405253"><ele>138.5</ele><time>2026-04-18T14:36:27.001Z</time></trkpt><trkpt lat="43.482191114334874" lon="10.673866738585664"><ele>138.0</ele><time>2026-04-18T14:36:28.001Z</time></trkpt><trkpt lat="43.48215357045464" lon="10.673700754403987"><ele>137.5</ele><time>2026-04-18T14:36:29.001Z</time></trkpt><trkpt lat="43.482148196583026" lon="10.673552523877735"><ele>137.0</ele><time>2026-04-18T14:36:30.001Z</time></trkpt><trkpt lat="43.482183936428655" lon="10.673420403955745"><ele>135.75</ele><time>2026-04-18T14:36:31.001Z</time></trkpt><trkpt lat="43.48228092602902" lon="10.673306042378877"><ele>134.5</ele><time>2026-04-18T14:36:32.001Z</time></trkpt><trkpt lat="43.4823826688583" lon="10.673195421873949"><ele>133.25</ele><time>2026-04-18T14:36:33.001Z</time></trkpt><trkpt lat="43.48249465440633" lon="10.673089299981957"><ele>132.0</ele><time>2026-04-18T14:36:34.001Z</time></trkpt><trkpt lat="43.48258952759912" lon="10.673008850343932"><ele>132.0</ele><time>2026-04-18T14:36:35.001Z</time></trkpt><trkpt lat="43.48269706976895" lon="10.672934981397503"><ele>132.0</ele><time>2026-04-18T14:36:36.001Z</time></trkpt><trkpt lat="43.48280579008257" lon="10.672881244191748"><ele>132.0</ele><time>2026-04-18T14:36:37.001Z</time></trkpt><trkpt lat="43.4829096920098" lon="10.672844412468729"><ele>132.0</ele><time>2026-04-18T14:36:38.001Z</time></trkpt><trkpt lat="43.48300075384229" lon="10.672821460845654"><ele>132.0</ele><time>2026-04-18T14:36:39.002Z</time></trkpt><trkpt lat="43.48306618479862" lon="10.672806422460313"><ele>132.0</ele><time>2026-04-18T14:36:40.002Z</time></trkpt><trkpt lat="43.4831284666005" lon="10.672791686223372"><ele>132.0</ele><time>2026-04-18T14:36:42.002Z</time></trkpt><trkpt lat="43.48303053721537" lon="10.672803508189594"><ele>132.0</ele><time>2026-04-18T14:36:54Z</time></trkpt><trkpt lat="43.48295768609664" lon="10.672792994237772"><ele>132.0</ele><time>2026-04-18T14:36:55Z</time></trkpt><trkpt lat="43.48286783433777" lon="10.672817847978099"><ele>132.0</ele><time>2026-04-18T14:36:56Z</time></trkpt><trkpt lat="43.482770064322914" lon="10.672863045941911"><ele>132.0</ele><time>2026-04-18T14:36:57Z</time></trkpt><trkpt lat="43.48268120382724" lon="10.672908493554957"><ele>132.0</ele><time>2026-04-18T14:36:58Z</time></trkpt><trkpt lat="43.48259542474856" lon="10.672963291936693"><ele>132.0</ele><time>2026-04-18T14:36:59Z</time></trkpt><trkpt lat="43.48250934703385" lon="10.673032628588713"><ele>132.0</ele><time>2026-04-18T14:37:00Z</time></trkpt><trkpt lat="43.482415800510026" lon="10.673117549336318"><ele>132.0</ele><time>2026-04-18T14:37:01Z</time></trkpt><trkpt lat="43.48232332019369" lon="10.673205494472084"><ele>132.0</ele><time>2026-04-18T14:37:02Z</time></trkpt><trkpt lat="43.48225300545702" lon="10.673288637551543"><ele>132.0</ele><time>2026-04-18T14:37:03Z</time></trkpt><trkpt lat="43.48220297679829" lon="10.67336229599767"><ele>132.0</ele><time>2026-04-18T14:37:04Z</time></trkpt><trkpt lat="43.48216097606066" lon="10.673450990249286"><ele>132.0</ele><time>2026-04-18T14:37:05Z</time></trkpt><trkpt lat="43.48213966606327" lon="10.673545245910026"><ele>132.0</ele><time>2026-04-18T14:37:06Z</time></trkpt><trkpt lat="43.482126858096144" lon="10.673632371862551"><ele>132.0</ele><time>2026-04-18T14:37:07Z</time></trkpt><trkpt lat="43.482137061904005" lon="10.673723729303898"><ele>132.0</ele><time>2026-04-18T14:37:09Z</time></trkpt><trkpt lat="43.48216764867804" lon="10.67382307028554"><ele>132.0</ele><time>2026-04-18T14:37:23Z</time></trkpt><trkpt lat="43.48221026060216" lon="10.673938129345787"><ele>133.25</ele><time>2026-04-18T14:37:25Z</time></trkpt><trkpt lat="43.48223084447215" lon="10.674048965768987"><ele>134.5</ele><time>2026-04-18T14:37:27Z</time></trkpt><trkpt lat="43.482510295051895" lon="10.673945464413391"><ele>135.75</ele><time>2026-04-18T14:37:28Z</time></trkpt><trkpt lat="43.482569202015625" lon="10.67397972073583"><ele>137.0</ele><time>2026-04-18T14:37:29.001Z</time></trkpt><trkpt lat="43.48264141305225" lon="10.674021595333489"><ele>137.0</ele><time>2026-04-18T14:37:31.001Z</time></trkpt><trkpt lat="43.48257443479788" lon="10.673960608446961"><ele>137.0</ele><time>2026-04-18T14:37:59.001Z</time></trkpt><trkpt lat="43.48247509967364" lon="10.673887636311887"><ele>137.0</ele><time>2026-04-18T14:38:01.001Z</time></trkpt><trkpt lat="43.48237932983612" lon="10.673800806243605"><ele>137.0</ele><time>2026-04-18T14:38:03.001Z</time></trkpt><trkpt lat="43.482196529528515" lon="10.67368828001682"><ele>137.0</ele><time>2026-04-18T14:38:05.001Z</time></trkpt><trkpt lat="43.48213723181179" lon="10.673747816754846"><ele>137.0</ele><time>2026-04-18T14:38:08.001Z</time></trkpt><trkpt lat="43.482051854195184" lon="10.673758932847178"><ele>137.0</ele><time>2026-04-18T14:38:10.001Z</time></trkpt><trkpt lat="43.481960238127584" lon="10.67375428675845"><ele>137.0</ele><time>2026-04-18T14:38:20.001Z</time></trkpt><trkpt lat="43.48189686560344" lon="10.673763293861803"><ele>137.0</ele><time>2026-04-18T14:38:21.001Z</time></trkpt><trkpt lat="43.48182419002073" lon="10.673744101612327"><ele>137.0</ele><time>2026-04-18T14:38:22.001Z</time></trkpt><trkpt lat="43.481740791085365" lon="10.673727722130588"><ele>137.0</ele><time>2026-04-18T14:38:23.001Z</time></trkpt><trkpt lat="43.48165880724706" lon="10.673678548809649"><ele>137.0</ele><time>2026-04-18T14:38:24.001Z</time></trkpt><trkpt lat="43.481593606026145" lon="10.673622577755497"><ele>137.0</ele><time>2026-04-18T14:38:25.001Z</time></trkpt><trkpt lat="43.4815412526628" lon="10.673542121802548"><ele>137.0</ele><time>2026-04-18T14:38:26.001Z</time></trkpt><trkpt lat="43.481474954585636" lon="10.673411869899779"><ele>137.0</ele><time>2026-04-18T14:38:27.001Z</time></trkpt><trkpt lat="43.481421276774675" lon="10.673282184022186"><ele>137.0</ele><time>2026-04-18T14:38:28.001Z</time></trkpt><trkpt lat="43.48137027310982" lon="10.673131795046777"><ele>137.0</ele><time>2026-04-18T14:38:29.001Z</time></trkpt><trkpt lat="43.481301766558225" lon="10.672979147205183"><ele>137.0</ele><time>2026-04-18T14:38:30.001Z</time></trkpt><trkpt lat="43.481244268294695" lon="10.672804302855782"><ele>137.0</ele><time>2026-04-18T14:38:31.001Z</time></trkpt><trkpt lat="43.48120236043875" lon="10.672624840737253"><ele>138.75</ele><time>2026-04-18T14:38:32.002Z</time></trkpt><trkpt lat="43.48115835559525" lon="10.672441492693856"><ele>140.5</ele><time>2026-04-18T14:38:33.002Z</time></trkpt><trkpt lat="43.481118482373084" lon="10.672269360912594"><ele>142.25</ele><time>2026-04-18T14:38:34.002Z</time></trkpt><trkpt lat="43.481079962067334" lon="10.67210343226791"><ele>144.0</ele><time>2026-04-18T14:38:35.002Z</time></trkpt><trkpt lat="43.48103940317007" lon="10.67192973348617"><ele>146.0</ele><time>2026-04-18T14:38:36.002Z</time></trkpt><trkpt lat="43.480980235108746" lon="10.671757514129094"><ele>148.0</ele><time>2026-04-18T14:38:37.002Z</time></trkpt><trkpt lat="43.480944600993844" lon="10.671574798079039"><ele>150.0</ele><time>2026-04-18T14:38:38.002Z</time></trkpt><trkpt lat="43.48089663985649" lon="10.67139883021859"><ele>152.0</ele><time>2026-04-18T14:38:39.002Z</time></trkpt><trkpt lat="43.480877339280426" lon="10.6712377804528"><ele>152.0</ele><time>2026-04-18T14:38:40.002Z</time></trkpt><trkpt lat="43.48084433673081" lon="10.671122776236022"><ele>152.0</ele><time>2026-04-18T14:38:41.002Z</time></trkpt><trkpt lat="43.480849751485515" lon="10.670998651699428"><ele>152.0</ele><time>2026-04-18T14:38:42.002Z</time></trkpt><trkpt lat="43.48089786043159" lon="10.670882270915845"><ele>152.0</ele><time>2026-04-18T14:38:43.002Z</time></trkpt><trkpt lat="43.48092109954028" lon="10.670723361280524"><ele>152.0</ele><time>2026-04-18T14:38:44.002Z</time></trkpt><trkpt lat="43.48094702338315" lon="10.670577911795089"><ele>153.2</ele><time>2026-04-18T14:38:45.002Z</time></trkpt><trkpt lat="43.48095162974416" lon="10.670456963183941"><ele>154.39999999999998</ele><time>2026-04-18T14:38:46.002Z</time></trkpt><trkpt lat="43.48092461194424" lon="10.67033412683808"><ele>155.60000000000002</ele><time>2026-04-18T14:38:47.002Z</time></trkpt><trkpt lat="43.48087148286515" lon="10.670203067658761"><ele>156.8</ele><time>2026-04-18T14:38:48.002Z</time></trkpt><trkpt lat="43.48078601085628" lon="10.670074420260324"><ele>158.0</ele><time>2026-04-18T14:38:49.002Z</time></trkpt><trkpt lat="43.48069579404267" lon="10.669911528645688"><ele>158.0</ele><time>2026-04-18T14:38:50.002Z</time></trkpt><trkpt lat="43.480589218227486" lon="10.66974683832488"><ele>158.0</ele><time>2026-04-18T14:38:51.002Z</time></trkpt><trkpt lat="43.48047504159332" lon="10.669561964266842"><ele>158.0</ele><time>2026-04-18T14:38:52.002Z</time></trkpt><trkpt lat="43.4803560995257" lon="10.669369374084287"><ele>157.0</ele><time>2026-04-18T14:38:53.002Z</time></trkpt><trkpt lat="43.480221335460065" lon="10.669180571394586"><ele>156.0</ele><time>2026-04-18T14:38:54Z</time></trkpt><trkpt lat="43.48012441246574" lon="10.66897410076068"><ele>155.0</ele><time>2026-04-18T14:38:55Z</time></trkpt><trkpt lat="43.48002666051176" lon="10.668815263692148"><ele>155.0</ele><time>2026-04-18T14:38:56Z</time></trkpt><trkpt lat="43.479953152223516" lon="10.668657234531125"><ele>155.0</ele><time>2026-04-18T14:38:57Z</time></trkpt><trkpt lat="43.47988298280207" lon="10.668513717919415"><ele>155.0</ele><time>2026-04-18T14:38:58Z</time></trkpt><trkpt lat="43.47982111871046" lon="10.668407944055716"><ele>155.0</ele><time>2026-04-18T14:38:59Z</time></trkpt><trkpt lat="43.479741614282624" lon="10.668321780952544"><ele>155.2</ele><time>2026-04-18T14:39:00Z</time></trkpt><trkpt lat="43.47963692495489" lon="10.66827853385555"><ele>155.4</ele><time>2026-04-18T14:39:01Z</time></trkpt><trkpt lat="43.4795385614435" lon="10.668286104321636"><ele>155.6</ele><time>2026-04-18T14:39:02Z</time></trkpt><trkpt lat="43.47945057545332" lon="10.668334491855328"><ele>155.8</ele><time>2026-04-18T14:39:03Z</time></trkpt><trkpt lat="43.47936466000229" lon="10.66840324036885"><ele>156.0</ele><time>2026-04-18T14:39:04Z</time></trkpt><trkpt lat="43.479278559807305" lon="10.668489453567458"><ele>156.0</ele><time>2026-04-18T14:39:05Z</time></trkpt><trkpt lat="43.47918605004645" lon="10.66853521419743"><ele>156.0</ele><time>2026-04-18T14:39:06Z</time></trkpt><trkpt lat="43.47909089769707" lon="10.668561718382247"><ele>156.0</ele><time>2026-04-18T14:39:07Z</time></trkpt><trkpt lat="43.47899448052591" lon="10.668567757036245"><ele>156.0</ele><time>2026-04-18T14:39:08Z</time></trkpt><trkpt lat="43.47889281389693" lon="10.668587927746184"><ele>156.0</ele><time>2026-04-18T14:39:09Z</time></trkpt><trkpt lat="43.47878190361262" lon="10.668542815470646"><ele>156.0</ele><time>2026-04-18T14:39:10Z</time></trkpt><trkpt lat="43.478656070325336" lon="10.66851285666667"><ele>156.0</ele><time>2026-04-18T14:39:11Z</time></trkpt><trkpt lat="43.478509766340345" lon="10.66847081431424"><ele>156.0</ele><time>2026-04-18T14:39:12Z</time></trkpt><trkpt lat="43.47834455920773" lon="10.668421150488738"><ele>156.0</ele><time>2026-04-18T14:39:13Z</time></trkpt><trkpt lat="43.478181466390325" lon="10.668392175519605"><ele>156.0</ele><time>2026-04-18T14:39:14Z</time></trkpt><trkpt lat="43.47805031973203" lon="10.668358612894746"><ele>156.0</ele><time>2026-04-18T14:39:15Z</time></trkpt><trkpt lat="43.47794632112599" lon="10.668343409803768"><ele>156.0</ele><time>2026-04-18T14:39:16Z</time></trkpt><trkpt lat="43.47782806811683" lon="10.6683554532332"><ele>156.0</ele><time>2026-04-18T14:39:17Z</time></trkpt><trkpt lat="43.47769307881479" lon="10.668385071068268"><ele>157.0</ele><time>2026-04-18T14:39:18Z</time></trkpt><trkpt lat="43.47753634941531" lon="10.668420236025781"><ele>158.0</ele><time>2026-04-18T14:39:19Z</time></trkpt><trkpt lat="43.47738578459399" lon="10.668451911324102"><ele>159.0</ele><time>2026-04-18T14:39:20Z</time></trkpt><trkpt lat="43.47722125274813" lon="10.668489105885335"><ele>158.0</ele><time>2026-04-18T14:39:21Z</time></trkpt><trkpt lat="43.477035648231116" lon="10.668536625522577"><ele>157.0</ele><time>2026-04-18T14:39:22Z</time></trkpt><trkpt lat="43.47684361289316" lon="10.668591326328187"><ele>156.0</ele><time>2026-04-18T14:39:23Z</time></trkpt><trkpt lat="43.47663993714086" lon="10.668631193823364"><ele>156.0</ele><time>2026-04-18T14:39:24Z</time></trkpt><trkpt lat="43.4764650757266" lon="10.668681929526828"><ele>156.0</ele><time>2026-04-18T14:39:25Z</time></trkpt><trkpt lat="43.476297081033614" lon="10.668731463169838"><ele>156.0</ele><time>2026-04-18T14:39:26Z</time></trkpt><trkpt lat="43.476124938423375" lon="10.668782392615205"><ele>156.0</ele><time>2026-04-18T14:39:27Z</time></trkpt><trkpt lat="43.47595078381852" lon="10.668835168049252"><ele>156.0</ele><time>2026-04-18T14:39:28Z</time></trkpt><trkpt lat="43.4757936407201" lon="10.668903415012919"><ele>156.0</ele><time>2026-04-18T14:39:29Z</time></trkpt><trkpt lat="43.47565791984617" lon="10.66894384571676"><ele>156.0</ele><time>2026-04-18T14:39:30Z</time></trkpt><trkpt lat="43.475537106110146" lon="10.66897506941686"><ele>156.0</ele><time>2026-04-18T14:39:31Z</time></trkpt><trkpt lat="43.47542071471196" lon="10.66899242217189"><ele>156.0</ele><time>2026-04-18T14:39:32Z</time></trkpt><trkpt lat="43.475315085702725" lon="10.668948222199678"><ele>156.0</ele><time>2026-04-18T14:39:33Z</time></trkpt><trkpt lat="43.47524004423589" lon="10.668891689121152"><ele>156.0</ele><time>2026-04-18T14:39:34Z</time></trkpt><trkpt lat="43.47516691294419" lon="10.668818124965762"><ele>158.5</ele><time>2026-04-18T14:39:35Z</time></trkpt><trkpt lat="43.47508279186368" lon="10.668708045091986"><ele>161.0</ele><time>2026-04-18T14:39:36.001Z</time></trkpt><trkpt lat="43.474992175244836" lon="10.668596006357937"><ele>163.5</ele><time>2026-04-18T14:39:37.001Z</time></trkpt><trkpt lat="43.47489867408463" lon="10.668496464294547"><ele>166.0</ele><time>2026-04-18T14:39:38.001Z</time></trkpt><trkpt lat="43.47479816371426" lon="10.668444248508752"><ele>166.0</ele><time>2026-04-18T14:39:39.001Z</time></trkpt><trkpt lat="43.47469999900127" lon="10.668401492515558"><ele>166.0</ele><time>2026-04-18T14:39:40.001Z</time></trkpt><trkpt lat="43.474576470339294" lon="10.668320914801875"><ele>166.0</ele><time>2026-04-18T14:39:41.001Z</time></trkpt><trkpt lat="43.47442401202528" lon="10.668254710421019"><ele>166.0</ele><time>2026-04-18T14:39:42.001Z</time></trkpt><trkpt lat="43.47426589276768" lon="10.668189203878125"><ele>167.25</ele><time>2026-04-18T14:39:43.001Z</time></trkpt><trkpt lat="43.47410967703598" lon="10.668141195385514"><ele>168.5</ele><time>2026-04-18T14:39:44.001Z</time></trkpt><trkpt lat="43.473981520518116" lon="10.668087319044023"><ele>169.75</ele><time>2026-04-18T14:39:45.001Z</time></trkpt><trkpt lat="43.473886877449196" lon="10.668019978735648"><ele>171.0</ele><time>2026-04-18T14:39:46.001Z</time></trkpt><trkpt lat="43.47378527583791" lon="10.667985131105004"><ele>172.0</ele><time>2026-04-18T14:39:47.001Z</time></trkpt><trkpt lat="43.47366980799303" lon="10.667932016643851"><ele>173.0</ele><time>2026-04-18T14:39:48.001Z</time></trkpt><trkpt lat="43.473540825838974" lon="10.66786648116074"><ele>174.0</ele><time>2026-04-18T14:39:49.001Z</time></trkpt><trkpt lat="43.473425417234395" lon="10.667787089558422"><ele>175.0</ele><time>2026-04-18T14:39:50.001Z</time></trkpt><trkpt lat="43.473329241625244" lon="10.667722272200665"><ele>176.25</ele><time>2026-04-18T14:39:51.001Z</time></trkpt><trkpt lat="43.473229689659355" lon="10.667643139106907"><ele>177.5</ele><time>2026-04-18T14:39:52.001Z</time></trkpt><trkpt lat="43.473148993905916" lon="10.66752702676026"><ele>178.75</ele><time>2026-04-18T14:39:53.001Z</time></trkpt><trkpt lat="43.473089203175334" lon="10.667382999413997"><ele>180.0</ele><time>2026-04-18T14:39:54.001Z</time></trkpt><trkpt lat="43.47302193288931" lon="10.66724295189185"><ele>180.0</ele><time>2026-04-18T14:39:55.001Z</time></trkpt><trkpt lat="43.47296042683034" lon="10.667127545436143"><ele>180.0</ele><time>2026-04-18T14:39:56.001Z</time></trkpt><trkpt lat="43.47291615704203" lon="10.667033020550253"><ele>180.0</ele><time>2026-04-18T14:39:57.001Z</time></trkpt><trkpt lat="43.47286354556824" lon="10.66694993541002"><ele>180.0</ele><time>2026-04-18T14:39:58.001Z</time></trkpt><trkpt lat="43.47276294106997" lon="10.666863682572362"><ele>180.0</ele><time>2026-04-18T14:39:59.001Z</time></trkpt><trkpt lat="43.47265561177184" lon="10.666747132753063"><ele>181.75</ele><time>2026-04-18T14:40:00.001Z</time></trkpt><trkpt lat="43.47253864969997" lon="10.666650851105187"><ele>183.5</ele><time>2026-04-18T14:40:01.001Z</time></trkpt><trkpt lat="43.47241330549983" lon="10.666553933957687"><ele>185.25</ele><time>2026-04-18T14:40:02.001Z</time></trkpt><trkpt lat="43.4722793748557" lon="10.666457776560012"><ele>187.0</ele><time>2026-04-18T14:40:03.001Z</time></trkpt><trkpt lat="43.47214102369451" lon="10.666354382294065"><ele>186.66666666666669</ele><time>2026-04-18T14:40:04.001Z</time></trkpt><trkpt lat="43.47198583531689" lon="10.666244939247997"><ele>186.33333333333334</ele><time>2026-04-18T14:40:05.001Z</time></trkpt><trkpt lat="43.471828098185966" lon="10.66611508201081"><ele>186.0</ele><time>2026-04-18T14:40:06.001Z</time></trkpt><trkpt lat="43.471668778093694" lon="10.665991673316249"><ele>188.0</ele><time>2026-04-18T14:40:07.001Z</time></trkpt><trkpt lat="43.47151160660227" lon="10.665869648893718"><ele>190.0</ele><time>2026-04-18T14:40:08.001Z</time></trkpt><trkpt lat="43.47135919080863" lon="10.665751316707103"><ele>192.0</ele><time>2026-04-18T14:40:09.001Z</time></trkpt><trkpt lat="43.471212399405445" lon="10.665637851074216"><ele>192.5</ele><time>2026-04-18T14:40:10.001Z</time></trkpt><trkpt lat="43.471071859006635" lon="10.665529309057792"><ele>193.0</ele><time>2026-04-18T14:40:11.001Z</time></trkpt><trkpt lat="43.47093771383132" lon="10.665426853802241"><ele>193.5</ele><time>2026-04-18T14:40:12.001Z</time></trkpt><trkpt lat="43.470818957599214" lon="10.665340256185571"><ele>194.0</ele><time>2026-04-18T14:40:13.001Z</time></trkpt><trkpt lat="43.470730485483784" lon="10.665262885764433"><ele>195.39999999999998</ele><time>2026-04-18T14:40:14.001Z</time></trkpt><trkpt lat="43.47066555176069" lon="10.665176104420782"><ele>196.8</ele><time>2026-04-18T14:40:15.001Z</time></trkpt><trkpt lat="43.47061442626535" lon="10.665076967326858"><ele>198.2</ele><time>2026-04-18T14:40:16.001Z</time></trkpt><trkpt lat="43.470551271376316" lon="10.664953862729755"><ele>199.60000000000002</ele><time>2026-04-18T14:40:17.001Z</time></trkpt><trkpt lat="43.470483619799175" lon="10.664808719403336"><ele>201.0</ele><time>2026-04-18T14:40:18.001Z</time></trkpt><trkpt lat="43.470414372907406" lon="10.664654095042293"><ele>204.20000000000002</ele><time>2026-04-18T14:40:19.001Z</time></trkpt><trkpt lat="43.470354752718315" lon="10.664519905483063"><ele>207.4</ele><time>2026-04-18T14:40:20.001Z</time></trkpt><trkpt lat="43.47029849788781" lon="10.664372483771837"><ele>210.6</ele><time>2026-04-18T14:40:21.001Z</time></trkpt><trkpt lat="43.47026896952933" lon="10.664227936401636"><ele>213.8</ele><time>2026-04-18T14:40:22.001Z</time></trkpt><trkpt lat="43.470273292847466" lon="10.664093155307073"><ele>217.0</ele><time>2026-04-18T14:40:23.001Z</time></trkpt><trkpt lat="43.47028371951988" lon="10.663930082753687"><ele>217.5</ele><time>2026-04-18T14:40:24.001Z</time></trkpt><trkpt lat="43.470283388410124" lon="10.663741529284573"><ele>218.0</ele><time>2026-04-18T14:40:25.001Z</time></trkpt><trkpt lat="43.470292833362585" lon="10.663547296274318"><ele>218.5</ele><time>2026-04-18T14:40:26.001Z</time></trkpt><trkpt lat="43.47029253485551" lon="10.663385755488948"><ele>219.0</ele><time>2026-04-18T14:40:27.001Z</time></trkpt><trkpt lat="43.47029244986558" lon="10.663254562829652"><ele>220.25</ele><time>2026-04-18T14:40:28.001Z</time></trkpt><trkpt lat="43.47025245877399" lon="10.66311258046949"><ele>221.5</ele><time>2026-04-18T14:40:29.001Z</time></trkpt><trkpt lat="43.47016910044801" lon="10.663003860910722"><ele>222.75</ele><time>2026-04-18T14:40:30.001Z</time></trkpt><trkpt lat="43.4700865569808" lon="10.66289394750351"><ele>224.0</ele><time>2026-04-18T14:40:31.001Z</time></trkpt><trkpt lat="43.47000708941822" lon="10.662777617644997"><ele>225.0</ele><time>2026-04-18T14:40:32.001Z</time></trkpt><trkpt lat="43.469919656582775" lon="10.6626664410727"><ele>226.0</ele><time>2026-04-18T14:40:33.001Z</time></trkpt><trkpt lat="43.469826622774775" lon="10.662548527201247"><ele>227.0</ele><time>2026-04-18T14:40:34.001Z</time></trkpt><trkpt lat="43.46971994065618" lon="10.662445397845417"><ele>228.0</ele><time>2026-04-18T14:40:35.001Z</time></trkpt><trkpt lat="43.46962481725167" lon="10.662321581098313"><ele>229.5</ele><time>2026-04-18T14:40:36.001Z</time></trkpt><trkpt lat="43.469529144868176" lon="10.662209444209434"><ele>231.0</ele><time>2026-04-18T14:40:37.001Z</time></trkpt><trkpt lat="43.469431367036925" lon="10.662082351206163"><ele>232.5</ele><time>2026-04-18T14:40:38.001Z</time></trkpt><trkpt lat="43.46935275374795" lon="10.661973630158778"><ele>234.0</ele><time>2026-04-18T14:40:39.001Z</time></trkpt><trkpt lat="43.46928360385985" lon="10.661861191065691"><ele>234.0</ele><time>2026-04-18T14:40:40.002Z</time></trkpt><trkpt lat="43.46923065356865" lon="10.661714958730235"><ele>234.0</ele><time>2026-04-18T14:40:41.002Z</time></trkpt><trkpt lat="43.46916355148772" lon="10.661555995040313"><ele>234.0</ele><time>2026-04-18T14:40:42.002Z</time></trkpt><trkpt lat="43.46908786829846" lon="10.661383282788453"><ele>234.0</ele><time>2026-04-18T14:40:43.002Z</time></trkpt><trkpt lat="43.46900792833889" lon="10.661201778315135"><ele>233.75</ele><time>2026-04-18T14:40:44.002Z</time></trkpt><trkpt lat="43.46893096710197" lon="10.661031122531785"><ele>233.5</ele><time>2026-04-18T14:40:45.002Z</time></trkpt><trkpt lat="43.46886080999996" lon="10.660883383271177"><ele>233.25</ele><time>2026-04-18T14:40:46.002Z</time></trkpt><trkpt lat="43.46877989091809" lon="10.66073093205858"><ele>233.0</ele><time>2026-04-18T14:40:47.002Z</time></trkpt><trkpt lat="43.468687174642405" lon="10.660580723107776"><ele>233.75</ele><time>2026-04-18T14:40:48.002Z</time></trkpt><trkpt lat="43.46858684941692" lon="10.660429448349346"><ele>234.5</ele><time>2026-04-18T14:40:49.002Z</time></trkpt><trkpt lat="43.468485408195804" lon="10.660281877596233"><ele>235.25</ele><time>2026-04-18T14:40:50.002Z</time></trkpt><trkpt lat="43.46838265450576" lon="10.660132397568196"><ele>236.0</ele><time>2026-04-18T14:40:51.002Z</time></trkpt><trkpt lat="43.46827739032741" lon="10.659981098501522"><ele>238.66666666666669</ele><time>2026-04-18T14:40:52.002Z</time></trkpt><trkpt lat="43.46817228605645" lon="10.659830814051688"><ele>241.33333333333331</ele><time>2026-04-18T14:40:53.002Z</time></trkpt><trkpt lat="43.46805949209814" lon="10.659669534357047"><ele>244.0</ele><time>2026-04-18T14:40:54.002Z</time></trkpt><trkpt lat="43.46794555254838" lon="10.659506618763592"><ele>248.33333333333331</ele><time>2026-04-18T14:40:55.002Z</time></trkpt><trkpt lat="43.46783855967986" lon="10.659352636888952"><ele>252.66666666666669</ele><time>2026-04-18T14:40:56.002Z</time></trkpt><trkpt lat="43.467730752765156" lon="10.65919616588045"><ele>257.0</ele><time>2026-04-18T14:40:57.002Z</time></trkpt><trkpt lat="43.467619425145536" lon="10.659043553664228"><ele>257.0</ele><time>2026-04-18T14:40:58.002Z</time></trkpt><trkpt lat="43.46749876661112" lon="10.65890221037028"><ele>257.0</ele><time>2026-04-18T14:40:59.002Z</time></trkpt><trkpt lat="43.467374957923646" lon="10.658767515240797"><ele>257.0</ele><time>2026-04-18T14:41:00Z</time></trkpt><trkpt lat="43.4672480250472" lon="10.658630568370866"><ele>259.33333333333337</ele><time>2026-04-18T14:41:01Z</time></trkpt><trkpt lat="43.46711597935369" lon="10.658490677071098"><ele>261.6666666666667</ele><time>2026-04-18T14:41:02Z</time></trkpt><trkpt lat="43.46698147492102" lon="10.658348180940267"><ele>264.0</ele><time>2026-04-18T14:41:03Z</time></trkpt><trkpt lat="43.466842948764075" lon="10.658201424141392"><ele>266.0</ele><time>2026-04-18T14:41:04Z</time></trkpt><trkpt lat="43.46670188845958" lon="10.658051982594499"><ele>268.0</ele><time>2026-04-18T14:41:05Z</time></trkpt><trkpt lat="43.466572096657124" lon="10.65791438879669"><ele>270.0</ele><time>2026-04-18T14:41:06Z</time></trkpt><trkpt lat="43.466466914225386" lon="10.657804900335218"><ele>270.6666666666667</ele><time>2026-04-18T14:41:07Z</time></trkpt><trkpt lat="43.46639055289544" lon="10.657723927202944"><ele>271.3333333333333</ele><time>2026-04-18T14:41:08Z</time></trkpt><trkpt lat="43.46633141848932" lon="10.657646923533454"><ele>272.0</ele><time>2026-04-18T14:41:09Z</time></trkpt><trkpt lat="43.46628261806968" lon="10.657568372782627"><ele>272.66666666666663</ele><time>2026-04-18T14:41:10Z</time></trkpt><trkpt lat="43.46625093682229" lon="10.657465021459572"><ele>273.3333333333333</ele><time>2026-04-18T14:41:11Z</time></trkpt><trkpt lat="43.46622552310042" lon="10.657327915634124"><ele>274.0</ele><time>2026-04-18T14:41:12Z</time></trkpt><trkpt lat="43.46619240835663" lon="10.657173774459174"><ele>274.3333333333333</ele><time>2026-04-18T14:41:13Z</time></trkpt><trkpt lat="43.46616062478189" lon="10.657035654392388"><ele>274.66666666666663</ele><time>2026-04-18T14:41:14Z</time></trkpt><trkpt lat="43.466130372399896" lon="10.656905924283658"><ele>275.0</ele><time>2026-04-18T14:41:15Z</time></trkpt><trkpt lat="43.46610264436531" lon="10.656787019286552"><ele>275.3333333333333</ele><time>2026-04-18T14:41:16Z</time></trkpt><trkpt lat="43.46608044545906" lon="10.65669214800955"><ele>275.6666666666667</ele><time>2026-04-18T14:41:17Z</time></trkpt><trkpt lat="43.46605578481673" lon="10.6565872630387"><ele>276.0</ele><time>2026-04-18T14:41:18Z</time></trkpt><trkpt lat="43.466022573052776" lon="10.656446009024512"><ele>277.0</ele><time>2026-04-18T14:41:19Z</time></trkpt><trkpt lat="43.46599013449188" lon="10.65630766396066"><ele>278.0</ele><time>2026-04-18T14:41:20Z</time></trkpt><trkpt lat="43.46595869948808" lon="10.656173361550918"><ele>279.0</ele><time>2026-04-18T14:41:21Z</time></trkpt><trkpt lat="43.46591068671508" lon="10.656031231146066"><ele>280.0</ele><time>2026-04-18T14:41:22Z</time></trkpt><trkpt lat="43.465886875289925" lon="10.655895963665648"><ele>281.0</ele><time>2026-04-18T14:41:23Z</time></trkpt><trkpt lat="43.46585056605899" lon="10.655763841574817"><ele>282.5</ele><time>2026-04-18T14:41:24Z</time></trkpt><trkpt lat="43.46581911733681" lon="10.6556242347772"><ele>284.0</ele><time>2026-04-18T14:41:25Z</time></trkpt><trkpt lat="43.46579381254885" lon="10.655454078954646"><ele>285.5</ele><time>2026-04-18T14:41:26Z</time></trkpt><trkpt lat="43.46574293617214" lon="10.655284853985336"><ele>287.0</ele><time>2026-04-18T14:41:27Z</time></trkpt><trkpt lat="43.46571184821525" lon="10.655096590629938"><ele>288.0</ele><time>2026-04-18T14:41:28Z</time></trkpt><trkpt lat="43.46565365846491" lon="10.65492065156837"><ele>289.0</ele><time>2026-04-18T14:41:29Z</time></trkpt><trkpt lat="43.46560942197107" lon="10.654730903666124"><ele>290.0</ele><time>2026-04-18T14:41:30Z</time></trkpt><trkpt lat="43.46557680830118" lon="10.654518111897502"><ele>291.0</ele><time>2026-04-18T14:41:31Z</time></trkpt><trkpt lat="43.465528854627244" lon="10.654312689861378"><ele>292.3333333333333</ele><time>2026-04-18T14:41:32Z</time></trkpt><trkpt lat="43.465481826263094" lon="10.654113019685601"><ele>293.66666666666663</ele><time>2026-04-18T14:41:33Z</time></trkpt><trkpt lat="43.46542228274598" lon="10.653928569195664"><ele>295.0</ele><time>2026-04-18T14:41:34.001Z</time></trkpt><trkpt lat="43.46537555261648" lon="10.653729147170118"><ele>296.5</ele><time>2026-04-18T14:41:35.001Z</time></trkpt><trkpt lat="43.46534467635118" lon="10.653517229920158"><ele>298.0</ele><time>2026-04-18T14:41:36.001Z</time></trkpt><trkpt lat="43.46530315680697" lon="10.6533280410424"><ele>299.5</ele><time>2026-04-18T14:41:37.001Z</time></trkpt><trkpt lat="43.46526215289825" lon="10.653159796781019"><ele>301.0</ele><time>2026-04-18T14:41:38.001Z</time></trkpt><trkpt lat="43.46522710729672" lon="10.653018156098591"><ele>301.0</ele><time>2026-04-18T14:41:39.001Z</time></trkpt><trkpt lat="43.465197254385195" lon="10.652897502253136"><ele>301.0</ele><time>2026-04-18T14:41:40.001Z</time></trkpt><trkpt lat="43.46516535015534" lon="10.652768557773541"><ele>301.0</ele><time>2026-04-18T14:41:41.001Z</time></trkpt><trkpt lat="43.46513150869849" lon="10.65262818177673"><ele>301.0</ele><time>2026-04-18T14:41:42.001Z</time></trkpt><trkpt lat="43.465117492397574" lon="10.652500656630611"><ele>301.0</ele><time>2026-04-18T14:41:43.001Z</time></trkpt><trkpt lat="43.46513751115037" lon="10.652373741328784"><ele>301.75</ele><time>2026-04-18T14:41:44.001Z</time></trkpt><trkpt lat="43.46515853916588" lon="10.652222819951321"><ele>302.5</ele><time>2026-04-18T14:41:45.001Z</time></trkpt><trkpt lat="43.465186368652006" lon="10.65205355857368"><ele>303.25</ele><time>2026-04-18T14:41:46.001Z</time></trkpt><trkpt lat="43.465202588574385" lon="10.65185318857471"><ele>304.0</ele><time>2026-04-18T14:41:47.001Z</time></trkpt><trkpt lat="43.46523404192625" lon="10.65165461501239"><ele>304.5</ele><time>2026-04-18T14:41:48.001Z</time></trkpt><trkpt lat="43.465255446917766" lon="10.651464488844042"><ele>305.0</ele><time>2026-04-18T14:41:49.001Z</time></trkpt><trkpt lat="43.465285465961436" lon="10.651260023596318"><ele>305.5</ele><time>2026-04-18T14:41:50.001Z</time></trkpt><trkpt lat="43.465309220180956" lon="10.6510458842891"><ele>306.0</ele><time>2026-04-18T14:41:51.001Z</time></trkpt><trkpt lat="43.465337816609896" lon="10.650848038314974"><ele>306.2</ele><time>2026-04-18T14:41:52.001Z</time></trkpt><trkpt lat="43.46535870137864" lon="10.650684879608182"><ele>306.40000000000003</ele><time>2026-04-18T14:41:53.001Z</time></trkpt><trkpt lat="43.4653732742443" lon="10.650538644985597"><ele>306.6</ele><time>2026-04-18T14:41:54.001Z</time></trkpt><trkpt lat="43.46538751767806" lon="10.650404127256829"><ele>306.8</ele><time>2026-04-18T14:41:55.001Z</time></trkpt><trkpt lat="43.46539022454456" lon="10.650294296447633"><ele>307.0</ele><time>2026-04-18T14:41:56.001Z</time></trkpt><trkpt lat="43.465403769756506" lon="10.65016962245508"><ele>307.0</ele><time>2026-04-18T14:41:58.001Z</time></trkpt><trkpt lat="43.4654361118862" lon="10.650004955081426"><ele>307.0</ele><time>2026-04-18T14:42:00.001Z</time></trkpt><trkpt lat="43.465456900239765" lon="10.649891279916362"><ele>307.0</ele><time>2026-04-18T14:42:01.001Z</time></trkpt><trkpt lat="43.465481222561074" lon="10.649774101324839"><ele>307.0</ele><time>2026-04-18T14:42:02.001Z</time></trkpt><trkpt lat="43.465501040587526" lon="10.649663685223674"><ele>307.0</ele><time>2026-04-18T14:42:03.001Z</time></trkpt><trkpt lat="43.46552471137076" lon="10.649552724440174"><ele>307.0</ele><time>2026-04-18T14:42:04.001Z</time></trkpt><trkpt lat="43.465561447853304" lon="10.649444597335957"><ele>307.0</ele><time>2026-04-18T14:42:05.001Z</time></trkpt><trkpt lat="43.46558961179612" lon="10.649312850080038"><ele>307.0</ele><time>2026-04-18T14:42:06.001Z</time></trkpt><trkpt lat="43.4656076750998" lon="10.649152800643867"><ele>307.0</ele><time>2026-04-18T14:42:07.001Z</time></trkpt><trkpt lat="43.46564533063323" lon="10.648989529281627"><ele>307.0</ele><time>2026-04-18T14:42:08.001Z</time></trkpt><trkpt lat="43.465692783194484" lon="10.648830227843105"><ele>307.0</ele><time>2026-04-18T14:42:09.001Z</time></trkpt><trkpt lat="43.465724293777726" lon="10.64867138603429"><ele>307.0</ele><time>2026-04-18T14:42:10.001Z</time></trkpt><trkpt lat="43.46575111759674" lon="10.648512723808087"><ele>307.0</ele><time>2026-04-18T14:42:11.001Z</time></trkpt><trkpt lat="43.465773359928626" lon="10.648359368028073"><ele>307.0</ele><time>2026-04-18T14:42:12.001Z</time></trkpt><trkpt lat="43.46579380391274" lon="10.64819721285464"><ele>304.0</ele><time>2026-04-18T14:42:13.001Z</time></trkpt><trkpt lat="43.4658145163024" lon="10.648016333604659"><ele>301.0</ele><time>2026-04-18T14:42:14.001Z</time></trkpt><trkpt lat="43.46583787934999" lon="10.647823974445389"><ele>298.0</ele><time>2026-04-18T14:42:15.001Z</time></trkpt><trkpt lat="43.46585491423195" lon="10.647618763525603"><ele>295.0</ele><time>2026-04-18T14:42:16.001Z</time></trkpt><trkpt lat="43.46587826804722" lon="10.647390353512385"><ele>292.66666666666663</ele><time>2026-04-18T14:42:17.001Z</time></trkpt><trkpt lat="43.46590712950346" lon="10.647157387329699"><ele>290.3333333333333</ele><time>2026-04-18T14:42:18.001Z</time></trkpt><trkpt lat="43.46592993969186" lon="10.646935236549012"><ele>288.0</ele><time>2026-04-18T14:42:19.001Z</time></trkpt><trkpt lat="43.46594655433558" lon="10.646721177806189"><ele>288.0</ele><time>2026-04-18T14:42:20.001Z</time></trkpt><trkpt lat="43.46596628159158" lon="10.646506076943249"><ele>288.0</ele><time>2026-04-18T14:42:21.001Z</time></trkpt><trkpt lat="43.465994520714155" lon="10.64629251739431"><ele>288.0</ele><time>2026-04-18T14:42:22.001Z</time></trkpt><trkpt lat="43.46602891011795" lon="10.646075899565695"><ele>288.0</ele><time>2026-04-18T14:42:23.001Z</time></trkpt><trkpt lat="43.4660666603205" lon="10.645870970265868"><ele>288.0</ele><time>2026-04-18T14:42:24.001Z</time></trkpt><trkpt lat="43.466127706765164" lon="10.645679474763753"><ele>288.0</ele><time>2026-04-18T14:42:25.001Z</time></trkpt><trkpt lat="43.46617339802064" lon="10.645483155644719"><ele>288.25</ele><time>2026-04-18T14:42:26.001Z</time></trkpt><trkpt lat="43.466202548207" lon="10.645293797044644"><ele>288.5</ele><time>2026-04-18T14:42:27.001Z</time></trkpt><trkpt lat="43.46624562526199" lon="10.645110496991448"><ele>288.75</ele><time>2026-04-18T14:42:28.001Z</time></trkpt><trkpt lat="43.46628981336939" lon="10.644921649931806"><ele>289.0</ele><time>2026-04-18T14:42:29.001Z</time></trkpt><trkpt lat="43.46633812160336" lon="10.644731368797178"><ele>290.3333333333333</ele><time>2026-04-18T14:42:30.001Z</time></trkpt><trkpt lat="43.46639694844118" lon="10.644537865702736"><ele>291.6666666666667</ele><time>2026-04-18T14:42:31.001Z</time></trkpt><trkpt lat="43.466468379396865" lon="10.644353459309402"><ele>293.0</ele><time>2026-04-18T14:42:32.001Z</time></trkpt><trkpt lat="43.46654187251447" lon="10.6441630116198"><ele>294.33333333333337</ele><time>2026-04-18T14:42:33.001Z</time></trkpt><trkpt lat="43.46660945312629" lon="10.643964589363293"><ele>295.6666666666667</ele><time>2026-04-18T14:42:34.001Z</time></trkpt><trkpt lat="43.46668158768927" lon="10.643770941415875"><ele>297.0</ele><time>2026-04-18T14:42:35.001Z</time></trkpt><trkpt lat="43.46675021280393" lon="10.643573902550775"><ele>298.0</ele><time>2026-04-18T14:42:36.001Z</time></trkpt><trkpt lat="43.46680991720463" lon="10.643385696277146"><ele>299.0</ele><time>2026-04-18T14:42:37.001Z</time></trkpt><trkpt lat="43.466871679358974" lon="10.643239905155644"><ele>300.0</ele><time>2026-04-18T14:42:38.001Z</time></trkpt><trkpt lat="43.46691601617373" lon="10.643126375755578"><ele>301.0</ele><time>2026-04-18T14:42:39.001Z</time></trkpt><trkpt lat="43.46694111631608" lon="10.643038371760952"><ele>302.0</ele><time>2026-04-18T14:42:40.001Z</time></trkpt><trkpt lat="43.4669546963236" lon="10.642952855320058"><ele>302.0</ele><time>2026-04-18T14:42:41.001Z</time></trkpt><trkpt lat="43.46694282127705" lon="10.642857604406473"><ele>302.0</ele><time>2026-04-18T14:42:42.001Z</time></trkpt><trkpt lat="43.4669116391946" lon="10.642759112087774"><ele>302.0</ele><time>2026-04-18T14:42:43.001Z</time></trkpt><trkpt lat="43.46690618092983" lon="10.642671907405688"><ele>302.0</ele><time>2026-04-18T14:42:44.001Z</time></trkpt><trkpt lat="43.46699397525154" lon="10.642575803207379"><ele>302.0</ele><time>2026-04-18T14:42:46.002Z</time></trkpt><trkpt lat="43.46704327366627" lon="10.642512138988659"><ele>302.0</ele><time>2026-04-18T14:42:47.002Z</time></trkpt><trkpt lat="43.467114043476904" lon="10.642444831472622"><ele>304.0</ele><time>2026-04-18T14:42:48.002Z</time></trkpt><trkpt lat="43.467167075588016" lon="10.642368587392108"><ele>306.0</ele><time>2026-04-18T14:42:49.002Z</time></trkpt><trkpt lat="43.467235628522715" lon="10.6422865259219"><ele>308.0</ele><time>2026-04-18T14:42:50.002Z</time></trkpt><trkpt lat="43.467305745074164" lon="10.642178279708943"><ele>310.0</ele><time>2026-04-18T14:42:51.002Z</time></trkpt><trkpt lat="43.467389128968186" lon="10.642068215614255"><ele>312.0</ele><time>2026-04-18T14:42:52.002Z</time></trkpt><trkpt lat="43.467450484506976" lon="10.641904163551175"><ele>313.4</ele><time>2026-04-18T14:42:53.002Z</time></trkpt><trkpt lat="43.46751890386691" lon="10.641765585040984"><ele>314.79999999999995</ele><time>2026-04-18T14:42:54.002Z</time></trkpt><trkpt lat="43.46756674232982" lon="10.641629054026701"><ele>316.2</ele><time>2026-04-18T14:42:55.002Z</time></trkpt><trkpt lat="43.46762857114419" lon="10.641500926945255"><ele>317.59999999999997</ele><time>2026-04-18T14:42:56.002Z</time></trkpt><trkpt lat="43.46767572692052" lon="10.641374259192768"><ele>319.0</ele><time>2026-04-18T14:42:57.002Z</time></trkpt><trkpt lat="43.467723012402516" lon="10.641245907833017"><ele>320.25</ele><time>2026-04-18T14:42:58.002Z</time></trkpt><trkpt lat="43.46776592540168" lon="10.641100880870152"><ele>321.5</ele><time>2026-04-18T14:42:59.002Z</time></trkpt><trkpt lat="43.46781794895737" lon="10.640959577875762"><ele>322.75</ele><time>2026-04-18T14:43:00.002Z</time></trkpt><trkpt lat="43.46786253157895" lon="10.64081640337649"><ele>324.0</ele><time>2026-04-18T14:43:01.002Z</time></trkpt><trkpt lat="43.467913492974645" lon="10.640662106236828"><ele>324.2</ele><time>2026-04-18T14:43:02.002Z</time></trkpt><trkpt lat="43.46797066556934" lon="10.640516284131145"><ele>324.4</ele><time>2026-04-18T14:43:03.002Z</time></trkpt><trkpt lat="43.4680236145932" lon="10.640374321541987"><ele>324.6</ele><time>2026-04-18T14:43:04.002Z</time></trkpt><trkpt lat="43.46807532550388" lon="10.640251290034367"><ele>324.8</ele><time>2026-04-18T14:43:05.002Z</time></trkpt><trkpt lat="43.468133496064986" lon="10.640146864531685"><ele>325.0</ele><time>2026-04-18T14:43:06.001Z</time></trkpt><trkpt lat="43.46820783103613" lon="10.640054320844653"><ele>326.4</ele><time>2026-04-18T14:43:07.001Z</time></trkpt><trkpt lat="43.4682878669406" lon="10.639980309487424"><ele>327.8</ele><time>2026-04-18T14:43:08.001Z</time></trkpt><trkpt lat="43.46839129456802" lon="10.639924107802306"><ele>329.20000000000005</ele><time>2026-04-18T14:43:09.001Z</time></trkpt><trkpt lat="43.46849150860671" lon="10.639845628692191"><ele>330.6</ele><time>2026-04-18T14:43:10.001Z</time></trkpt><trkpt lat="43.468607938354836" lon="10.639804496066132"><ele>332.0</ele><time>2026-04-18T14:43:11.001Z</time></trkpt><trkpt lat="43.46870317985542" lon="10.639763667047886"><ele>332.25</ele><time>2026-04-18T14:43:12.001Z</time></trkpt><trkpt lat="43.46879668521131" lon="10.63970763117465"><ele>332.5</ele><time>2026-04-18T14:43:13.001Z</time></trkpt><trkpt lat="43.468892377674436" lon="10.639634244045405"><ele>332.75</ele><time>2026-04-18T14:43:14.001Z</time></trkpt><trkpt lat="43.469001413333416" lon="10.639552382105142"><ele>333.0</ele><time>2026-04-18T14:43:15.001Z</time></trkpt><trkpt lat="43.469131871091584" lon="10.639455804193402"><ele>333.0</ele><time>2026-04-18T14:43:16.001Z</time></trkpt><trkpt lat="43.46926047623262" lon="10.639340947568684"><ele>333.0</ele><time>2026-04-18T14:43:17.001Z</time></trkpt><trkpt lat="43.469344904387555" lon="10.639237495832033"><ele>333.0</ele><time>2026-04-18T14:43:18.001Z</time></trkpt><trkpt lat="43.469423747635936" lon="10.639127173968697"><ele>333.0</ele><time>2026-04-18T14:43:19.001Z</time></trkpt><trkpt lat="43.469481607258665" lon="10.639003449294727"><ele>333.0</ele><time>2026-04-18T14:43:20.001Z</time></trkpt><trkpt lat="43.469527301686455" lon="10.638871739321372"><ele>333.0</ele><time>2026-04-18T14:43:21.001Z</time></trkpt><trkpt lat="43.469557506243305" lon="10.638711407147403"><ele>333.0</ele><time>2026-04-18T14:43:22.001Z</time></trkpt><trkpt lat="43.46959067200076" lon="10.638569388158928"><ele>333.0</ele><time>2026-04-18T14:43:23.001Z</time></trkpt><trkpt lat="43.46963487636744" lon="10.638461482373941"><ele>333.0</ele><time>2026-04-18T14:43:24.001Z</time></trkpt><trkpt lat="43.46968072265721" lon="10.638364889360831"><ele>335.4</ele><time>2026-04-18T14:43:25.001Z</time></trkpt><trkpt lat="43.469769250492504" lon="10.638272532374652"><ele>337.79999999999995</ele><time>2026-04-18T14:43:26.001Z</time></trkpt><trkpt lat="43.469864552547335" lon="10.638180607848074"><ele>340.2</ele><time>2026-04-18T14:43:27.001Z</time></trkpt><trkpt lat="43.46995234851801" lon="10.638115292979851"><ele>342.6</ele><time>2026-04-18T14:43:28.001Z</time></trkpt><trkpt lat="43.47004901648974" lon="10.638046907096808"><ele>345.0</ele><time>2026-04-18T14:43:29.001Z</time></trkpt><trkpt lat="43.47016098856732" lon="10.637988570751611"><ele>345.0</ele><time>2026-04-18T14:43:30.001Z</time></trkpt><trkpt lat="43.470283209501034" lon="10.637932928938874"><ele>345.0</ele><time>2026-04-18T14:43:31.001Z</time></trkpt><trkpt lat="43.47042141406327" lon="10.637871728540429"><ele>345.0</ele><time>2026-04-18T14:43:32.001Z</time></trkpt><trkpt lat="43.47053969530738" lon="10.637811272729461"><ele>345.0</ele><time>2026-04-18T14:43:33.001Z</time></trkpt><trkpt lat="43.470646385098156" lon="10.637753258422794"><ele>346.0</ele><time>2026-04-18T14:43:34.001Z</time></trkpt><trkpt lat="43.470750506551596" lon="10.637707642440704"><ele>347.0</ele><time>2026-04-18T14:43:35.001Z</time></trkpt><trkpt lat="43.47084059040293" lon="10.637672532577863"><ele>348.0</ele><time>2026-04-18T14:43:36.001Z</time></trkpt><trkpt lat="43.47092005117684" lon="10.63762770787859"><ele>349.0</ele><time>2026-04-18T14:43:37.001Z</time></trkpt><trkpt lat="43.47099956142713" lon="10.637529667924818"><ele>350.0</ele><time>2026-04-18T14:43:38.001Z</time></trkpt><trkpt lat="43.47109035906165" lon="10.63741330194578"><ele>350.0</ele><time>2026-04-18T14:43:39.001Z</time></trkpt><trkpt lat="43.471183376911135" lon="10.637335400724933"><ele>350.0</ele><time>2026-04-18T14:43:40.001Z</time></trkpt><trkpt lat="43.47127619639669" lon="10.63725990105771"><ele>350.0</ele><time>2026-04-18T14:43:41.001Z</time></trkpt><trkpt lat="43.4713814329287" lon="10.637145368865017"><ele>350.0</ele><time>2026-04-18T14:43:42.001Z</time></trkpt><trkpt lat="43.471504518211745" lon="10.637029446569748"><ele>352.0</ele><time>2026-04-18T14:43:43.001Z</time></trkpt><trkpt lat="43.47164272269034" lon="10.636927480866309"><ele>354.0</ele><time>2026-04-18T14:43:44.001Z</time></trkpt><trkpt lat="43.47178419413666" lon="10.63682433704788"><ele>356.0</ele><time>2026-04-18T14:43:45.001Z</time></trkpt><trkpt lat="43.471921366472756" lon="10.636716718922568"><ele>356.0</ele><time>2026-04-18T14:43:46.001Z</time></trkpt><trkpt lat="43.47204625846594" lon="10.636618287625073"><ele>356.0</ele><time>2026-04-18T14:43:47.001Z</time></trkpt><trkpt lat="43.472160030090606" lon="10.63652484428747"><ele>356.0</ele><time>2026-04-18T14:43:48.001Z</time></trkpt><trkpt lat="43.472263021008665" lon="10.63644004799003"><ele>356.0</ele><time>2026-04-18T14:43:49.001Z</time></trkpt><trkpt lat="43.47234977183758" lon="10.636365641467178"><ele>355.33333333333337</ele><time>2026-04-18T14:43:50.001Z</time></trkpt><trkpt lat="43.472411992608414" lon="10.6363081227341"><ele>354.6666666666667</ele><time>2026-04-18T14:43:51.001Z</time></trkpt><trkpt lat="43.47247656634087" lon="10.636247716490674"><ele>354.0</ele><time>2026-04-18T14:43:52.001Z</time></trkpt><trkpt lat="43.472530654108155" lon="10.636196059899978"><ele>353.3333333333333</ele><time>2026-04-18T14:43:53.001Z</time></trkpt><trkpt lat="43.47259912820512" lon="10.636128489614563"><ele>352.66666666666663</ele><time>2026-04-18T14:43:55.001Z</time></trkpt><trkpt lat="43.47253932786441" lon="10.636187754022476"><ele>352.0</ele><time>2026-04-18T14:44:09.001Z</time></trkpt><trkpt lat="43.47245776144164" lon="10.636268588943931"><ele>352.0</ele><time>2026-04-18T14:44:11.001Z</time></trkpt><trkpt lat="43.472372285437906" lon="10.636353298779909"><ele>352.0</ele><time>2026-04-18T14:44:13.001Z</time></trkpt><trkpt lat="43.472161371779094" lon="10.636147752332162"><ele>352.0</ele><time>2026-04-18T14:44:14.001Z</time></trkpt><trkpt lat="43.47207056797871" lon="10.636126225133319"><ele>353.3333333333333</ele><time>2026-04-18T14:44:16.001Z</time></trkpt><trkpt lat="43.47199428957114" lon="10.63608579168603"><ele>354.66666666666663</ele><time>2026-04-18T14:44:18.001Z</time></trkpt><trkpt lat="43.4719168248804" lon="10.636024065270902"><ele>356.0</ele><time>2026-04-18T14:44:20.001Z</time></trkpt><trkpt lat="43.47186781724368" lon="10.635946523993912"><ele>357.3333333333333</ele><time>2026-04-18T14:44:21.001Z</time></trkpt><trkpt lat="43.4718049091872" lon="10.635883582184047"><ele>358.6666666666667</ele><time>2026-04-18T14:44:22.001Z</time></trkpt><trkpt lat="43.471779181802866" lon="10.635778214209886"><ele>360.0</ele><time>2026-04-18T14:44:23.001Z</time></trkpt><trkpt lat="43.471745338735616" lon="10.635700962901673"><ele>360.0</ele><time>2026-04-18T14:44:24.001Z</time></trkpt><trkpt lat="43.47169468686462" lon="10.635622055166797"><ele>360.0</ele><time>2026-04-18T14:44:25.001Z</time></trkpt><trkpt lat="43.47166877611492" lon="10.635531746174314"><ele>360.0</ele><time>2026-04-18T14:44:26.001Z</time></trkpt><trkpt lat="43.471646615235414" lon="10.635441745669873"><ele>360.0</ele><time>2026-04-18T14:44:27.001Z</time></trkpt><trkpt lat="43.47153159389923" lon="10.635157187509456"><ele>360.6</ele><time>2026-04-18T14:44:29.001Z</time></trkpt><trkpt lat="43.471471622934594" lon="10.635045174998243"><ele>361.2</ele><time>2026-04-18T14:44:30.001Z</time></trkpt><trkpt lat="43.471428749501115" lon="10.634915938880402"><ele>361.79999999999995</ele><time>2026-04-18T14:44:31.001Z</time></trkpt><trkpt lat="43.47138285622925" lon="10.634792972246858"><ele>362.4</ele><time>2026-04-18T14:44:32.001Z</time></trkpt><trkpt lat="43.47132845062273" lon="10.634660214215035"><ele>363.0</ele><time>2026-04-18T14:44:33.001Z</time></trkpt><trkpt lat="43.471274867805356" lon="10.63452605515656"><ele>360.79999999999995</ele><time>2026-04-18T14:44:34.001Z</time></trkpt><trkpt lat="43.47122088668051" lon="10.634388043261952"><ele>358.6</ele><time>2026-04-18T14:44:35.001Z</time></trkpt><trkpt lat="43.471170537369424" lon="10.634256925058393"><ele>356.4</ele><time>2026-04-18T14:44:36.001Z</time></trkpt><trkpt lat="43.47112246657374" lon="10.63413281258085"><ele>354.20000000000005</ele><time>2026-04-18T14:44:37.001Z</time></trkpt><trkpt lat="43.47108591525565" lon="10.634008995194812"><ele>352.0</ele><time>2026-04-18T14:44:38.001Z</time></trkpt><trkpt lat="43.47104213082344" lon="10.633892658989588"><ele>352.0</ele><time>2026-04-18T14:44:39.001Z</time></trkpt><trkpt lat="43.470999498265144" lon="10.633778647548542"><ele>352.0</ele><time>2026-04-18T14:44:40.001Z</time></trkpt><trkpt lat="43.470961871989154" lon="10.633664821172674"><ele>352.0</ele><time>2026-04-18T14:44:41.001Z</time></trkpt><trkpt lat="43.47091581464079" lon="10.633556305696889"><ele>352.0</ele><time>2026-04-18T14:44:42.001Z</time></trkpt><trkpt lat="43.47086883509786" lon="10.633446439584779"><ele>352.0</ele><time>2026-04-18T14:44:43.001Z</time></trkpt><trkpt lat="43.470820650093145" lon="10.633333291595147"><ele>353.40000000000003</ele><time>2026-04-18T14:44:44.001Z</time></trkpt><trkpt lat="43.47077534678769" lon="10.633215589153373"><ele>354.8</ele><time>2026-04-18T14:44:45.001Z</time></trkpt><trkpt lat="43.47072927535724" lon="10.633101709595628"><ele>356.2</ele><time>2026-04-18T14:44:46.001Z</time></trkpt><trkpt lat="43.47067595003783" lon="10.632993387861362"><ele>357.6</ele><time>2026-04-18T14:44:47.002Z</time></trkpt><trkpt lat="43.47060720312057" lon="10.632899229671162"><ele>359.0</ele><time>2026-04-18T14:44:48.002Z</time></trkpt><trkpt lat="43.47052892623798" lon="10.632809970266491"><ele>357.0</ele><time>2026-04-18T14:44:49.002Z</time></trkpt><trkpt lat="43.47044535067484" lon="10.632720489170907"><ele>355.0</ele><time>2026-04-18T14:44:50.002Z</time></trkpt><trkpt lat="43.47034324426677" lon="10.632573011154523"><ele>353.0</ele><time>2026-04-18T14:44:51.002Z</time></trkpt><trkpt lat="43.47023312872492" lon="10.632431919453778"><ele>351.0</ele><time>2026-04-18T14:44:52.002Z</time></trkpt><trkpt lat="43.470126076557165" lon="10.632303147223316"><ele>351.0</ele><time>2026-04-18T14:44:53.002Z</time></trkpt><trkpt lat="43.47004127228576" lon="10.632178742267763"><ele>351.0</ele><time>2026-04-18T14:44:54.002Z</time></trkpt><trkpt lat="43.469948033916886" lon="10.63206096443916"><ele>351.0</ele><time>2026-04-18T14:44:55.002Z</time></trkpt><trkpt lat="43.46982528339886" lon="10.631963638465717"><ele>351.0</ele><time>2026-04-18T14:44:56.002Z</time></trkpt><trkpt lat="43.4696871904975" lon="10.631901481743883"><ele>348.6</ele><time>2026-04-18T14:44:57.002Z</time></trkpt><trkpt lat="43.46955521472109" lon="10.63188423124324"><ele>346.20000000000005</ele><time>2026-04-18T14:44:58.002Z</time></trkpt><trkpt lat="43.46946131680278" lon="10.631812578323656"><ele>343.79999999999995</ele><time>2026-04-18T14:44:59.002Z</time></trkpt><trkpt lat="43.46939808195357" lon="10.631732857609238"><ele>341.4</ele><time>2026-04-18T14:45:00.002Z</time></trkpt><trkpt lat="43.469361159409026" lon="10.631629134052714"><ele>339.0</ele><time>2026-04-18T14:45:01.002Z</time></trkpt><trkpt lat="43.46940075080278" lon="10.631473849024877"><ele>339.0</ele><time>2026-04-18T14:45:02.002Z</time></trkpt><trkpt lat="43.46938511447437" lon="10.631290412877245"><ele>339.0</ele><time>2026-04-18T14:45:03.002Z</time></trkpt><trkpt lat="43.46934368459726" lon="10.631087615804649"><ele>339.0</ele><time>2026-04-18T14:45:04.002Z</time></trkpt><trkpt lat="43.46926299305369" lon="10.630878302638397"><ele>341.0</ele><time>2026-04-18T14:45:05.002Z</time></trkpt><trkpt lat="43.469221125994665" lon="10.63069333802025"><ele>343.0</ele><time>2026-04-18T14:45:06.002Z</time></trkpt><trkpt lat="43.469200535118645" lon="10.63054695969743"><ele>345.0</ele><time>2026-04-18T14:45:07.002Z</time></trkpt><trkpt lat="43.46920104752737" lon="10.630417081385414"><ele>347.0</ele><time>2026-04-18T14:45:08.002Z</time></trkpt><trkpt lat="43.46926131713817" lon="10.630301016491636"><ele>349.0</ele><time>2026-04-18T14:45:09.002Z</time></trkpt><trkpt lat="43.46936536775393" lon="10.63019101273977"><ele>351.0</ele><time>2026-04-18T14:45:10.002Z</time></trkpt><trkpt lat="43.469446692349514" lon="10.630067573918256"><ele>353.0</ele><time>2026-04-18T14:45:11.002Z</time></trkpt><trkpt lat="43.469489194119035" lon="10.629933191657287"><ele>355.0</ele><time>2026-04-18T14:45:12.001Z</time></trkpt><trkpt lat="43.46950175326488" lon="10.629800267444093"><ele>357.0</ele><time>2026-04-18T14:45:13.001Z</time></trkpt><trkpt lat="43.46949408452707" lon="10.629677524517877"><ele>359.0</ele><time>2026-04-18T14:45:14.001Z</time></trkpt><trkpt lat="43.46945591741166" lon="10.629593020813667"><ele>359.0</ele><time>2026-04-18T14:45:15.001Z</time></trkpt><trkpt lat="43.46939975025206" lon="10.629524215317387"><ele>359.0</ele><time>2026-04-18T14:45:16.001Z</time></trkpt><trkpt lat="43.46929181168536" lon="10.629507374539372"><ele>359.0</ele><time>2026-04-18T14:45:17.001Z</time></trkpt><trkpt lat="43.46917867935374" lon="10.629568115840515"><ele>359.0</ele><time>2026-04-18T14:45:18.001Z</time></trkpt><trkpt lat="43.46907210572532" lon="10.629682778553375"><ele>359.0</ele><time>2026-04-18T14:45:19.001Z</time></trkpt><trkpt lat="43.468955393852696" lon="10.629810272589447"><ele>359.0</ele><time>2026-04-18T14:45:20.001Z</time></trkpt><trkpt lat="43.46881400230952" lon="10.629912393730667"><ele>359.0</ele><time>2026-04-18T14:45:21.001Z</time></trkpt><trkpt lat="43.468700733479196" lon="10.630025521329445"><ele>359.0</ele><time>2026-04-18T14:45:22.001Z</time></trkpt><trkpt lat="43.4686042749682" lon="10.630185665891682"><ele>360.6666666666667</ele><time>2026-04-18T14:45:23.001Z</time></trkpt><trkpt lat="43.468549180463064" lon="10.630373049959474"><ele>362.3333333333333</ele><time>2026-04-18T14:45:24.001Z</time></trkpt><trkpt lat="43.46850834755938" lon="10.630629697368988"><ele>364.0</ele><time>2026-04-18T14:45:25.001Z</time></trkpt><trkpt lat="43.46843640272638" lon="10.630893128259"><ele>364.0</ele><time>2026-04-18T14:45:26.001Z</time></trkpt><trkpt lat="43.46837930657752" lon="10.631067624653097"><ele>364.0</ele><time>2026-04-18T14:45:27.001Z</time></trkpt><trkpt lat="43.4682974316481" lon="10.631215153233844"><ele>364.0</ele><time>2026-04-18T14:45:28.001Z</time></trkpt><trkpt lat="43.46819879360726" lon="10.631263920942601"><ele>364.0</ele><time>2026-04-18T14:45:29.001Z</time></trkpt><trkpt lat="43.46811695481279" lon="10.63125990162162"><ele>364.25</ele><time>2026-04-18T14:45:30.001Z</time></trkpt><trkpt lat="43.46801238460169" lon="10.631189217398076"><ele>364.5</ele><time>2026-04-18T14:45:31.001Z</time></trkpt><trkpt lat="43.46788224169003" lon="10.631105603817636"><ele>364.75</ele><time>2026-04-18T14:45:32.001Z</time></trkpt><trkpt lat="43.46771094115919" lon="10.63101684736253"><ele>365.0</ele><time>2026-04-18T14:45:33.001Z</time></trkpt><trkpt lat="43.46753162604503" lon="10.630940142348793"><ele>365.0</ele><time>2026-04-18T14:45:34.001Z</time></trkpt><trkpt lat="43.467355566658036" lon="10.630855634923153"><ele>365.0</ele><time>2026-04-18T14:45:35.001Z</time></trkpt><trkpt lat="43.4671978990602" lon="10.630775149466226"><ele>365.0</ele><time>2026-04-18T14:45:36.001Z</time></trkpt><trkpt lat="43.46705665432403" lon="10.63074816636261"><ele>364.6666666666667</ele><time>2026-04-18T14:45:37.001Z</time></trkpt><trkpt lat="43.466894224925866" lon="10.630793770028516"><ele>364.3333333333333</ele><time>2026-04-18T14:45:38.001Z</time></trkpt><trkpt lat="43.46671208582292" lon="10.63086258027248"><ele>364.0</ele><time>2026-04-18T14:45:39.001Z</time></trkpt><trkpt lat="43.46653475961353" lon="10.630918555211599"><ele>364.0</ele><time>2026-04-18T14:45:40.001Z</time></trkpt><trkpt lat="43.46639486612347" lon="10.630942294785765"><ele>364.0</ele><time>2026-04-18T14:45:41.001Z</time></trkpt><trkpt lat="43.46629331237395" lon="10.63092862119366"><ele>364.0</ele><time>2026-04-18T14:45:42.001Z</time></trkpt><trkpt lat="43.46618815517873" lon="10.630891260576645"><ele>364.0</ele><time>2026-04-18T14:45:43.001Z</time></trkpt><trkpt lat="43.466087008608525" lon="10.630798550643167"><ele>363.8333333333333</ele><time>2026-04-18T14:45:44.001Z</time></trkpt><trkpt lat="43.46601935120399" lon="10.630757442823478"><ele>363.66666666666663</ele><time>2026-04-18T14:45:45.001Z</time></trkpt><trkpt lat="43.46594208205655" lon="10.630742564010488"><ele>363.5</ele><time>2026-04-18T14:45:46.001Z</time></trkpt><trkpt lat="43.465864282457474" lon="10.630714939202559"><ele>363.3333333333333</ele><time>2026-04-18T14:45:47.001Z</time></trkpt><trkpt lat="43.46578121756645" lon="10.630773064279785"><ele>363.1666666666667</ele><time>2026-04-18T14:45:48.001Z</time></trkpt><trkpt lat="43.46568412980721" lon="10.630833513569339"><ele>363.0</ele><time>2026-04-18T14:45:49.001Z</time></trkpt><trkpt lat="43.465567933292654" lon="10.630892199112257"><ele>363.0</ele><time>2026-04-18T14:45:50.001Z</time></trkpt><trkpt lat="43.46546602206513" lon="10.630953752028105"><ele>363.0</ele><time>2026-04-18T14:45:51.001Z</time></trkpt><trkpt lat="43.465363534165675" lon="10.631012409152767"><ele>363.0</ele><time>2026-04-18T14:45:52.001Z</time></trkpt><trkpt lat="43.46526550914844" lon="10.63106486514172"><ele>363.0</ele><time>2026-04-18T14:45:53.001Z</time></trkpt><trkpt lat="43.46519537979422" lon="10.631102082365917"><ele>363.0</ele><time>2026-04-18T14:45:54.001Z</time></trkpt><trkpt lat="43.46529489557067" lon="10.631090087159821"><ele>363.0</ele><time>2026-04-18T14:46:06.001Z</time></trkpt><trkpt lat="43.46539627854682" lon="10.631042359755195"><ele>363.0</ele><time>2026-04-18T14:46:08.001Z</time></trkpt><trkpt lat="43.46546995944644" lon="10.631000926630817"><ele>363.0</ele><time>2026-04-18T14:46:09.001Z</time></trkpt><trkpt lat="43.46554952674389" lon="10.63094721107765"><ele>363.0</ele><time>2026-04-18T14:46:10.001Z</time></trkpt><trkpt lat="43.46563354858943" lon="10.630893711866337"><ele>363.0</ele><time>2026-04-18T14:46:11.001Z</time></trkpt><trkpt lat="43.46571216954854" lon="10.630846482698786"><ele>363.0</ele><time>2026-04-18T14:46:12.001Z</time></trkpt><trkpt lat="43.46579107309025" lon="10.630799201695265"><ele>363.0</ele><time>2026-04-18T14:46:13.001Z</time></trkpt><trkpt lat="43.4658679546182" lon="10.630773215572226"><ele>363.0</ele><time>2026-04-18T14:46:14.001Z</time></trkpt><trkpt lat="43.46593531239021" lon="10.630764548477906"><ele>363.0</ele><time>2026-04-18T14:46:15.001Z</time></trkpt><trkpt lat="43.466022946386076" lon="10.630766861521662"><ele>363.0</ele><time>2026-04-18T14:46:17.001Z</time></trkpt><trkpt lat="43.4660837017788" lon="10.63071931900839"><ele>363.0</ele><time>2026-04-18T14:46:20.001Z</time></trkpt><trkpt lat="43.46606040529539" lon="10.630602953701258"><ele>363.0</ele><time>2026-04-18T14:46:22.001Z</time></trkpt><trkpt lat="43.46603024533079" lon="10.630457833902836"><ele>363.0</ele><time>2026-04-18T14:46:24.001Z</time></trkpt><trkpt lat="43.46603895837038" lon="10.63032918496394"><ele>363.0</ele><time>2026-04-18T14:46:26.001Z</time></trkpt><trkpt lat="43.46605424434024" lon="10.630191661085881"><ele>363.0</ele><time>2026-04-18T14:46:28.001Z</time></trkpt><trkpt lat="43.46606300510773" lon="10.630092126977797"><ele>363.0</ele><time>2026-04-18T14:46:30.001Z</time></trkpt><trkpt lat="43.4660639709587" lon="10.629998429892208"><ele>363.0</ele><time>2026-04-18T14:46:33.001Z</time></trkpt><trkpt lat="43.46604125769776" lon="10.629902465144772"><ele>363.4</ele><time>2026-04-18T14:46:36.001Z</time></trkpt><trkpt lat="43.46599170341498" lon="10.62980758240024"><ele>363.79999999999995</ele><time>2026-04-18T14:46:42.001Z</time></trkpt><trkpt lat="43.46594590271728" lon="10.629725510921986"><ele>364.2</ele><time>2026-04-18T14:46:43.001Z</time></trkpt><trkpt lat="43.46590757903378" lon="10.629606236012279"><ele>364.6</ele><time>2026-04-18T14:46:44.001Z</time></trkpt><trkpt lat="43.46583283789034" lon="10.629486786983083"><ele>365.0</ele><time>2026-04-18T14:46:45.001Z</time></trkpt><trkpt lat="43.46574787401558" lon="10.629360212515945"><ele>363.5</ele><time>2026-04-18T14:46:46.001Z</time></trkpt><trkpt lat="43.465672373299135" lon="10.629250930168162"><ele>362.0</ele><time>2026-04-18T14:46:47.001Z</time></trkpt><trkpt lat="43.46560079084017" lon="10.629161867468113"><ele>360.5</ele><time>2026-04-18T14:46:48.001Z</time></trkpt><trkpt lat="43.46548229282766" lon="10.6290925680739"><ele>359.0</ele><time>2026-04-18T14:46:49.001Z</time></trkpt><trkpt lat="43.465389043133904" lon="10.628989758771807"><ele>359.0</ele><time>2026-04-18T14:46:50.001Z</time></trkpt><trkpt lat="43.46531261456909" lon="10.628876350317602"><ele>359.0</ele><time>2026-04-18T14:46:51.001Z</time></trkpt><trkpt lat="43.46522977971314" lon="10.628747081926763"><ele>359.0</ele><time>2026-04-18T14:46:52.001Z</time></trkpt><trkpt lat="43.465139499377734" lon="10.628618167718647"><ele>359.0</ele><time>2026-04-18T14:46:53.001Z</time></trkpt><trkpt lat="43.4650909099521" lon="10.628495882699376"><ele>360.33333333333337</ele><time>2026-04-18T14:46:54.001Z</time></trkpt><trkpt lat="43.46505942539165" lon="10.628415284899857"><ele>361.6666666666667</ele><time>2026-04-18T14:46:55.001Z</time></trkpt><trkpt lat="43.46502413531662" lon="10.628337532678268"><ele>363.0</ele><time>2026-04-18T14:46:56.002Z</time></trkpt><trkpt lat="43.46503503133284" lon="10.628245240981014"><ele>364.3333333333333</ele><time>2026-04-18T14:46:57.002Z</time></trkpt><trkpt lat="43.46506401191678" lon="10.628142809671909"><ele>365.66666666666663</ele><time>2026-04-18T14:46:58.002Z</time></trkpt><trkpt lat="43.46513444911746" lon="10.628034538275521"><ele>367.0</ele><time>2026-04-18T14:46:59.002Z</time></trkpt><trkpt lat="43.46520741723907" lon="10.627901309463587"><ele>367.8</ele><time>2026-04-18T14:47:00.002Z</time></trkpt><trkpt lat="43.46529373570979" lon="10.627757035870665"><ele>368.6</ele><time>2026-04-18T14:47:01.002Z</time></trkpt><trkpt lat="43.46536588347996" lon="10.627652778594332"><ele>369.40000000000003</ele><time>2026-04-18T14:47:02.002Z</time></trkpt><trkpt lat="43.465415060206375" lon="10.62754525673007"><ele>370.20000000000005</ele><time>2026-04-18T14:47:03.002Z</time></trkpt><trkpt lat="43.4654750447444" lon="10.627475824682916"><ele>371.0</ele><time>2026-04-18T14:47:04.002Z</time></trkpt><trkpt lat="43.46552099279292" lon="10.627380689189254"><ele>371.0</ele><time>2026-04-18T14:47:06.002Z</time></trkpt><trkpt lat="43.465548370583875" lon="10.627210414761441"><ele>371.0</ele><time>2026-04-18T14:47:08.002Z</time></trkpt><trkpt lat="43.465499699723466" lon="10.62711225575633"><ele>371.0</ele><time>2026-04-18T14:47:09.002Z</time></trkpt><trkpt lat="43.46538919935443" lon="10.627100517261745"><ele>371.0</ele><time>2026-04-18T14:47:10.002Z</time></trkpt><trkpt lat="43.46531089602057" lon="10.627078877156457"><ele>371.0</ele><time>2026-04-18T14:47:11.002Z</time></trkpt><trkpt lat="43.46522584883724" lon="10.627060032496708"><ele>371.0</ele><time>2026-04-18T14:47:12.002Z</time></trkpt><trkpt lat="43.46511325708561" lon="10.62703825800526"><ele>371.0</ele><time>2026-04-18T14:47:13.002Z</time></trkpt><trkpt lat="43.46500162733275" lon="10.627014825984089"><ele>371.0</ele><time>2026-04-18T14:47:14.002Z</time></trkpt><trkpt lat="43.4648853573834" lon="10.626983119144082"><ele>371.0</ele><time>2026-04-18T14:47:15.002Z</time></trkpt><trkpt lat="43.46477887984608" lon="10.626962346528884"><ele>369.5</ele><time>2026-04-18T14:47:16.002Z</time></trkpt><trkpt lat="43.46469948025011" lon="10.626931639163478"><ele>368.0</ele><time>2026-04-18T14:47:17.002Z</time></trkpt><trkpt lat="43.46462648655683" lon="10.626862078913602"><ele>366.5</ele><time>2026-04-18T14:47:18Z</time></trkpt><trkpt lat="43.46455605922666" lon="10.626780234866573"><ele>365.0</ele><time>2026-04-18T14:47:19Z</time></trkpt><trkpt lat="43.46450290240797" lon="10.626714588389182"><ele>363.5</ele><time>2026-04-18T14:47:20Z</time></trkpt><trkpt lat="43.46446161966284" lon="10.626634061964669"><ele>362.0</ele><time>2026-04-18T14:47:21Z</time></trkpt><trkpt lat="43.464432404593026" lon="10.626545929135178"><ele>362.0</ele><time>2026-04-18T14:47:22Z</time></trkpt><trkpt lat="43.46443394946661" lon="10.626438120957808"><ele>362.0</ele><time>2026-04-18T14:47:23Z</time></trkpt><trkpt lat="43.46442114913365" lon="10.626313645389564"><ele>362.0</ele><time>2026-04-18T14:47:24Z</time></trkpt><trkpt lat="43.4644178510102" lon="10.626156551672533"><ele>362.0</ele><time>2026-04-18T14:47:25Z</time></trkpt><trkpt lat="43.46442799863169" lon="10.626009458310133"><ele>362.0</ele><time>2026-04-18T14:47:26Z</time></trkpt><trkpt lat="43.46450099399441" lon="10.62587752940621"><ele>362.8</ele><time>2026-04-18T14:47:28Z</time></trkpt><trkpt lat="43.46454628087381" lon="10.625757211885208"><ele>363.6</ele><time>2026-04-18T14:47:29Z</time></trkpt><trkpt lat="43.46462391443227" lon="10.625644932700899"><ele>364.40000000000003</ele><time>2026-04-18T14:47:30Z</time></trkpt><trkpt lat="43.46470185137091" lon="10.625516195563845"><ele>365.20000000000005</ele><time>2026-04-18T14:47:31Z</time></trkpt><trkpt lat="43.46474842544675" lon="10.625417217097661"><ele>366.0</ele><time>2026-04-18T14:47:32Z</time></trkpt><trkpt lat="43.46477752200903" lon="10.625255616898027"><ele>371.1666666666667</ele><time>2026-04-18T14:47:34Z</time></trkpt><trkpt lat="43.464731587643364" lon="10.625109454604655"><ele>376.33333333333337</ele><time>2026-04-18T14:47:35Z</time></trkpt><trkpt lat="43.464719481584815" lon="10.62497054027189"><ele>381.5</ele><time>2026-04-18T14:47:36Z</time></trkpt><trkpt lat="43.46473174017364" lon="10.624877135991328"><ele>386.6666666666667</ele><time>2026-04-18T14:47:37Z</time></trkpt><trkpt lat="43.464798411645" lon="10.624825912837036"><ele>391.83333333333337</ele><time>2026-04-18T14:47:38Z</time></trkpt><trkpt lat="43.46485163834027" lon="10.624754824487805"><ele>397.0</ele><time>2026-04-18T14:47:39Z</time></trkpt><trkpt lat="43.464921129413405" lon="10.624651666732856"><ele>397.0</ele><time>2026-04-18T14:47:40Z</time></trkpt><trkpt lat="43.46498560827382" lon="10.62452891801996"><ele>397.0</ele><time>2026-04-18T14:47:41Z</time></trkpt><trkpt lat="43.465065637606884" lon="10.624419491336493"><ele>397.0</ele><time>2026-04-18T14:47:42Z</time></trkpt><trkpt lat="43.465143766115375" lon="10.624280712026774"><ele>397.0</ele><time>2026-04-18T14:47:43Z</time></trkpt><trkpt lat="43.46519405068517" lon="10.624114315369797"><ele>397.75</ele><time>2026-04-18T14:47:44Z</time></trkpt><trkpt lat="43.4652666916731" lon="10.623972853873882"><ele>398.5</ele><time>2026-04-18T14:47:45Z</time></trkpt><trkpt lat="43.46532961143591" lon="10.623837478672616"><ele>399.25</ele><time>2026-04-18T14:47:46.001Z</time></trkpt><trkpt lat="43.46538199514096" lon="10.623721668400767"><ele>400.0</ele><time>2026-04-18T14:47:47.001Z</time></trkpt><trkpt lat="43.465445979618906" lon="10.623587271515339"><ele>400.0</ele><time>2026-04-18T14:47:48.001Z</time></trkpt><trkpt lat="43.4655312623245" lon="10.623431705749825"><ele>400.0</ele><time>2026-04-18T14:47:49.001Z</time></trkpt><trkpt lat="43.465586187583426" lon="10.623254744863415"><ele>400.0</ele><time>2026-04-18T14:47:50.001Z</time></trkpt><trkpt lat="43.46563425558716" lon="10.623133271090177"><ele>400.0</ele><time>2026-04-18T14:47:51.001Z</time></trkpt><trkpt lat="43.465680493225356" lon="10.623067906288393"><ele>400.0</ele><time>2026-04-18T14:47:52.001Z</time></trkpt><trkpt lat="43.46574042349611" lon="10.623040257976504"><ele>400.0</ele><time>2026-04-18T14:47:53.001Z</time></trkpt><trkpt lat="43.465812170095155" lon="10.623003294124441"><ele>400.0</ele><time>2026-04-18T14:47:54.001Z</time></trkpt><trkpt lat="43.46590218555792" lon="10.62297599533549"><ele>400.0</ele><time>2026-04-18T14:47:55.001Z</time></trkpt><trkpt lat="43.46602191556838" lon="10.622932470438206"><ele>400.0</ele><time>2026-04-18T14:47:56.001Z</time></trkpt><trkpt lat="43.466134084186244" lon="10.622890820080432"><ele>400.0</ele><time>2026-04-18T14:47:57.001Z</time></trkpt><trkpt lat="43.46621573827268" lon="10.622842370969618"><ele>402.6</ele><time>2026-04-18T14:47:58.001Z</time></trkpt><trkpt lat="43.46631479220546" lon="10.62277474063233"><ele>405.2</ele><time>2026-04-18T14:47:59.001Z</time></trkpt><trkpt lat="43.46639834068554" lon="10.622672348515689"><ele>407.79999999999995</ele><time>2026-04-18T14:48:00.001Z</time></trkpt><trkpt lat="43.466440309570686" lon="10.62257096668781"><ele>410.4</ele><time>2026-04-18T14:48:01.001Z</time></trkpt><trkpt lat="43.466465245889694" lon="10.622380885157451"><ele>413.0</ele><time>2026-04-18T14:48:03.001Z</time></trkpt><trkpt lat="43.46647795034541" lon="10.622228284974875"><ele>413.0</ele><time>2026-04-18T14:48:04.001Z</time></trkpt><trkpt lat="43.4664752241152" lon="10.622090647047544"><ele>413.0</ele><time>2026-04-18T14:48:05.001Z</time></trkpt><trkpt lat="43.46647331605707" lon="10.621931214562354"><ele>413.0</ele><time>2026-04-18T14:48:06.001Z</time></trkpt><trkpt lat="43.466489262061536" lon="10.621802215808504"><ele>413.0</ele><time>2026-04-18T14:48:07.001Z</time></trkpt><trkpt lat="43.46651285529221" lon="10.621681677420394"><ele>413.0</ele><time>2026-04-18T14:48:08.001Z</time></trkpt><trkpt lat="43.46654766831139" lon="10.621581849480044"><ele>411.3333333333333</ele><time>2026-04-18T14:48:09.001Z</time></trkpt><trkpt lat="43.46659098278772" lon="10.62147628873914"><ele>409.66666666666663</ele><time>2026-04-18T14:48:11.001Z</time></trkpt><trkpt lat="43.466664132633476" lon="10.621448103977913"><ele>408.0</ele><time>2026-04-18T14:48:12.001Z</time></trkpt><trkpt lat="43.46671397083561" lon="10.621347972966596"><ele>406.33333333333337</ele><time>2026-04-18T14:48:13.001Z</time></trkpt><trkpt lat="43.46677146776705" lon="10.621272921759362"><ele>404.6666666666667</ele><time>2026-04-18T14:48:14.001Z</time></trkpt><trkpt lat="43.466826591221626" lon="10.621201710508855"><ele>403.0</ele><time>2026-04-18T14:48:16.001Z</time></trkpt><trkpt lat="43.46689681333655" lon="10.621056205778636"><ele>401.79999999999995</ele><time>2026-04-18T14:48:18.001Z</time></trkpt><trkpt lat="43.46690058057261" lon="10.620929727745635"><ele>400.6</ele><time>2026-04-18T14:48:19.001Z</time></trkpt><trkpt lat="43.46688205207853" lon="10.620816613845728"><ele>399.4</ele><time>2026-04-18T14:48:20.001Z</time></trkpt><trkpt lat="43.46680289742807" lon="10.620642896625293"><ele>398.20000000000005</ele><time>2026-04-18T14:48:22.001Z</time></trkpt><trkpt lat="43.466748697222336" lon="10.620544372166671"><ele>397.0</ele><time>2026-04-18T14:48:23.001Z</time></trkpt><trkpt lat="43.46667858121441" lon="10.620435621826545"><ele>397.00000000000006</ele><time>2026-04-18T14:48:24.001Z</time></trkpt><trkpt lat="43.46663755648941" lon="10.620348035101493"><ele>397.0</ele><time>2026-04-18T14:48:25.001Z</time></trkpt><trkpt lat="43.466634924107986" lon="10.62024941161044"><ele>397.0</ele><time>2026-04-18T14:48:27.001Z</time></trkpt><trkpt lat="43.46664532425292" lon="10.620142907970823"><ele>397.0</ele><time>2026-04-18T14:48:28.001Z</time></trkpt><trkpt lat="43.46665368967723" lon="10.62000311685366"><ele>397.00000000000006</ele><time>2026-04-18T14:48:29.001Z</time></trkpt><trkpt lat="43.46668156862617" lon="10.619850210049961"><ele>397.0</ele><time>2026-04-18T14:48:30.001Z</time></trkpt><trkpt lat="43.46670054125327" lon="10.619684690751313"><ele>398.8</ele><time>2026-04-18T14:48:31.001Z</time></trkpt><trkpt lat="43.46670657290304" lon="10.619520956176771"><ele>400.6</ele><time>2026-04-18T14:48:32.001Z</time></trkpt><trkpt lat="43.46669616112665" lon="10.619386429508646"><ele>402.40000000000003</ele><time>2026-04-18T14:48:33.001Z</time></trkpt><trkpt lat="43.466683325261386" lon="10.619256948701302"><ele>404.20000000000005</ele><time>2026-04-18T14:48:34.001Z</time></trkpt><trkpt lat="43.46666121250781" lon="10.619150915898166"><ele>406.0</ele><time>2026-04-18T14:48:35.001Z</time></trkpt><trkpt lat="43.466654237602995" lon="10.619035947470886"><ele>406.85714285714283</ele><time>2026-04-18T14:48:36.001Z</time></trkpt><trkpt lat="43.46665244087754" lon="10.618930196815228"><ele>407.7142857142857</ele><time>2026-04-18T14:48:37.001Z</time></trkpt><trkpt lat="43.466650150731326" lon="10.6188273726875"><ele>408.57142857142856</ele><time>2026-04-18T14:48:38.001Z</time></trkpt><trkpt lat="43.466650579526934" lon="10.618736198109595"><ele>409.42857142857144</ele><time>2026-04-18T14:48:39.001Z</time></trkpt><trkpt lat="43.46664007915315" lon="10.618641345870595"><ele>410.2857142857143</ele><time>2026-04-18T14:48:40.001Z</time></trkpt><trkpt lat="43.4666083083458" lon="10.618561735976623"><ele>411.1428571428571</ele><time>2026-04-18T14:48:41.001Z</time></trkpt><trkpt lat="43.46656332810142" lon="10.618483984084673"><ele>412.0</ele><time>2026-04-18T14:48:42.001Z</time></trkpt><trkpt lat="43.46651034060116" lon="10.618414224301858"><ele>410.33333333333337</ele><time>2026-04-18T14:48:43.001Z</time></trkpt><trkpt lat="43.46646055124737" lon="10.618338925162464"><ele>408.6666666666667</ele><time>2026-04-18T14:48:44.001Z</time></trkpt><trkpt lat="43.4664036633594" lon="10.61826338608899"><ele>407.0</ele><time>2026-04-18T14:48:45.001Z</time></trkpt><trkpt lat="43.46637403544584" lon="10.618162343652479"><ele>405.33333333333337</ele><time>2026-04-18T14:48:46.001Z</time></trkpt><trkpt lat="43.46633329628092" lon="10.61807585179348"><ele>403.6666666666667</ele><time>2026-04-18T14:48:47.001Z</time></trkpt><trkpt lat="43.46628956990943" lon="10.617965694536592"><ele>402.0</ele><time>2026-04-18T14:48:48.001Z</time></trkpt><trkpt lat="43.46624583753913" lon="10.61788224013388"><ele>402.0</ele><time>2026-04-18T14:48:49.001Z</time></trkpt><trkpt lat="43.46619803046883" lon="10.617825512164627"><ele>402.0</ele><time>2026-04-18T14:48:50.001Z</time></trkpt><trkpt lat="43.46615858764757" lon="10.61775721039903"><ele>402.0</ele><time>2026-04-18T14:48:51.001Z</time></trkpt><trkpt lat="43.466097893584966" lon="10.617584162895383"><ele>402.0</ele><time>2026-04-18T14:48:53.001Z</time></trkpt><trkpt lat="43.46606993631488" lon="10.617472592523422"><ele>402.0</ele><time>2026-04-18T14:48:54.001Z</time></trkpt><trkpt lat="43.46602237050205" lon="10.617354366557281"><ele>405.0</ele><time>2026-04-18T14:48:55.001Z</time></trkpt><trkpt lat="43.46597055146122" lon="10.617222339629114"><ele>408.0</ele><time>2026-04-18T14:48:56.001Z</time></trkpt><trkpt lat="43.4659219108463" lon="10.617064584602481"><ele>411.0</ele><time>2026-04-18T14:48:57.001Z</time></trkpt><trkpt lat="43.4658560141691" lon="10.61691780214107"><ele>414.0</ele><time>2026-04-18T14:48:58.001Z</time></trkpt><trkpt lat="43.465816545125044" lon="10.616782689989146"><ele>418.5</ele><time>2026-04-18T14:48:59.001Z</time></trkpt><trkpt lat="43.46578078534233" lon="10.616647417465737"><ele>423.0</ele><time>2026-04-18T14:49:00.001Z</time></trkpt><trkpt lat="43.465744855750536" lon="10.616477466714333"><ele>427.5</ele><time>2026-04-18T14:49:01.001Z</time></trkpt><trkpt lat="43.46570504794112" lon="10.616314787080844"><ele>432.0</ele><time>2026-04-18T14:49:02.001Z</time></trkpt><trkpt lat="43.46566905579385" lon="10.616150930898899"><ele>433.5</ele><time>2026-04-18T14:49:03.001Z</time></trkpt><trkpt lat="43.465627363319896" lon="10.6160324824043"><ele>435.0</ele><time>2026-04-18T14:49:04.001Z</time></trkpt><trkpt lat="43.46560435284032" lon="10.615909054034663"><ele>436.5</ele><time>2026-04-18T14:49:05.001Z</time></trkpt><trkpt lat="43.46558667560047" lon="10.615805784604994"><ele>438.0</ele><time>2026-04-18T14:49:06.001Z</time></trkpt><trkpt lat="43.465580394269395" lon="10.615706802290584"><ele>439.5</ele><time>2026-04-18T14:49:07.001Z</time></trkpt><trkpt lat="43.46560604678853" lon="10.615574912049848"><ele>441.0</ele><time>2026-04-18T14:49:09.001Z</time></trkpt><trkpt lat="43.46571200474129" lon="10.6154418194524"><ele>441.0</ele><time>2026-04-18T14:49:11.002Z</time></trkpt><trkpt lat="43.46578011151635" lon="10.615336950637603"><ele>441.0</ele><time>2026-04-18T14:49:12.002Z</time></trkpt><trkpt lat="43.46582360200156" lon="10.615218658670406"><ele>441.0</ele><time>2026-04-18T14:49:13.002Z</time></trkpt><trkpt lat="43.46581856984207" lon="10.615069348241809"><ele>441.0</ele><time>2026-04-18T14:49:14.002Z</time></trkpt><trkpt lat="43.46581896322213" lon="10.614936179098757"><ele>441.0</ele><time>2026-04-18T14:49:15.002Z</time></trkpt><trkpt lat="43.465827400249935" lon="10.614810606661424"><ele>441.20000000000005</ele><time>2026-04-18T14:49:16.002Z</time></trkpt><trkpt lat="43.465850892136366" lon="10.614709142562544"><ele>441.40000000000003</ele><time>2026-04-18T14:49:17.002Z</time></trkpt><trkpt lat="43.46588429964145" lon="10.614612011406422"><ele>441.6</ele><time>2026-04-18T14:49:18.002Z</time></trkpt><trkpt lat="43.46593643476535" lon="10.614481753302048"><ele>441.8</ele><time>2026-04-18T14:49:19.002Z</time></trkpt><trkpt lat="43.46601050593226" lon="10.614330592614603"><ele>442.0</ele><time>2026-04-18T14:49:20.002Z</time></trkpt><trkpt lat="43.46609653552173" lon="10.614164683443533"><ele>443.8</ele><time>2026-04-18T14:49:21.002Z</time></trkpt><trkpt lat="43.46616824144856" lon="10.614024927284067"><ele>445.6</ele><time>2026-04-18T14:49:22.002Z</time></trkpt><trkpt lat="43.46621709753437" lon="10.613912095749033"><ele>447.40000000000003</ele><time>2026-04-18T14:49:23.002Z</time></trkpt><trkpt lat="43.466248224871286" lon="10.613819240253891"><ele>449.20000000000005</ele><time>2026-04-18T14:49:24Z</time></trkpt><trkpt lat="43.4662641465011" lon="10.613729443899143"><ele>451.0</ele><time>2026-04-18T14:49:25Z</time></trkpt><trkpt lat="43.466256148034724" lon="10.613575455226535"><ele>454.1666666666667</ele><time>2026-04-18T14:49:27Z</time></trkpt><trkpt lat="43.466218408911736" lon="10.613500270148071"><ele>457.33333333333337</ele><time>2026-04-18T14:49:28Z</time></trkpt><trkpt lat="43.4661721042044" lon="10.613430128010469"><ele>460.5</ele><time>2026-04-18T14:49:29Z</time></trkpt><trkpt lat="43.46607166473269" lon="10.61340408623101"><ele>463.66666666666663</ele><time>2026-04-18T14:49:31Z</time></trkpt><trkpt lat="43.46600077172784" lon="10.613466483565887"><ele>466.8333333333333</ele><time>2026-04-18T14:49:33Z</time></trkpt><trkpt lat="43.46596741516109" lon="10.613542814127912"><ele>470.0</ele><time>2026-04-18T14:49:35Z</time></trkpt><trkpt lat="43.46591333791211" lon="10.6135913263662"><ele>465.25</ele><time>2026-04-18T14:49:37Z</time></trkpt><trkpt lat="43.46582586019828" lon="10.613743838714075"><ele>460.5</ele><time>2026-04-18T14:49:39Z</time></trkpt><trkpt lat="43.46573908115561" lon="10.613837490566477"><ele>455.75</ele><time>2026-04-18T14:49:40Z</time></trkpt><trkpt lat="43.465652309502" lon="10.613960962014875"><ele>451.0</ele><time>2026-04-18T14:49:41Z</time></trkpt><trkpt lat="43.46556412197027" lon="10.614089857572313"><ele>451.00000000000006</ele><time>2026-04-18T14:49:42Z</time></trkpt><trkpt lat="43.46550817768035" lon="10.614180388672146"><ele>451.0</ele><time>2026-04-18T14:49:43Z</time></trkpt><trkpt lat="43.46544897238544" lon="10.614250665080668"><ele>451.0</ele><time>2026-04-18T14:49:44Z</time></trkpt><trkpt lat="43.4654028879891" lon="10.614316944268804"><ele>451.0</ele><time>2026-04-18T14:49:45Z</time></trkpt><trkpt lat="43.46534440505496" lon="10.6144010552322"><ele>451.00000000000006</ele><time>2026-04-18T14:49:46Z</time></trkpt><trkpt lat="43.46527377352798" lon="10.614502524437887"><ele>451.0</ele><time>2026-04-18T14:49:47Z</time></trkpt><trkpt lat="43.46519333080157" lon="10.614621879723614"><ele>454.20000000000005</ele><time>2026-04-18T14:49:48Z</time></trkpt><trkpt lat="43.46511256094845" lon="10.614742680791764"><ele>457.40000000000003</ele><time>2026-04-18T14:49:49Z</time></trkpt><trkpt lat="43.46505452983643" lon="10.614831538176658"><ele>460.6</ele><time>2026-04-18T14:49:50Z</time></trkpt><trkpt lat="43.464999575818815" lon="10.614915798430593"><ele>463.8</ele><time>2026-04-18T14:49:51.001Z</time></trkpt><trkpt lat="43.464934217954166" lon="10.615021064770767"><ele>467.0</ele><time>2026-04-18T14:49:52.001Z</time></trkpt><trkpt lat="43.46486497975806" lon="10.615138775154849"><ele>467.0</ele><time>2026-04-18T14:49:53.001Z</time></trkpt><trkpt lat="43.46477672972408" lon="10.615297990453836"><ele>467.0</ele><time>2026-04-18T14:49:54.001Z</time></trkpt><trkpt lat="43.46470681491665" lon="10.615433261325053"><ele>467.0</ele><time>2026-04-18T14:49:55.001Z</time></trkpt><trkpt lat="43.46463671700259" lon="10.615579707264468"><ele>467.0</ele><time>2026-04-18T14:49:56.001Z</time></trkpt><trkpt lat="43.464584385766884" lon="10.615693940983506"><ele>468.40000000000003</ele><time>2026-04-18T14:49:57.001Z</time></trkpt><trkpt lat="43.46453110333787" lon="10.615802683383102"><ele>469.80000000000007</ele><time>2026-04-18T14:49:58.001Z</time></trkpt><trkpt lat="43.464460903935894" lon="10.615926594416521"><ele>471.2</ele><time>2026-04-18T14:49:59.001Z</time></trkpt><trkpt lat="43.46441350492507" lon="10.61604124446846"><ele>472.6</ele><time>2026-04-18T14:50:00.001Z</time></trkpt><trkpt lat="43.46437433291828" lon="10.616135233546956"><ele>474.0</ele><time>2026-04-18T14:50:01.001Z</time></trkpt><trkpt lat="43.46433100336251" lon="10.616220222458416"><ele>471.1666666666667</ele><time>2026-04-18T14:50:02.001Z</time></trkpt><trkpt lat="43.46432051476192" lon="10.616320555207212"><ele>468.33333333333337</ele><time>2026-04-18T14:50:03.001Z</time></trkpt><trkpt lat="43.46430054750178" lon="10.616462379805855"><ele>465.5</ele><time>2026-04-18T14:50:04.001Z</time></trkpt><trkpt lat="43.464242780191285" lon="10.616576302061896"><ele>462.6666666666667</ele><time>2026-04-18T14:50:05.001Z</time></trkpt><trkpt lat="43.46421733618363" lon="10.616664553996051"><ele>459.83333333333337</ele><time>2026-04-18T14:50:06.001Z</time></trkpt><trkpt lat="43.46414012579865" lon="10.616747760639376"><ele>457.0</ele><time>2026-04-18T14:50:08.001Z</time></trkpt><trkpt lat="43.46407665940814" lon="10.616722152746668"><ele>457.00000000000006</ele><time>2026-04-18T14:50:11.001Z</time></trkpt><trkpt lat="43.46405935387156" lon="10.616608343074182"><ele>457.0</ele><time>2026-04-18T14:50:14.001Z</time></trkpt><trkpt lat="43.464010073921266" lon="10.61653554624463"><ele>457.0</ele><time>2026-04-18T14:51:16.002Z</time></trkpt><trkpt lat="43.463982203009756" lon="10.616384190844677"><ele>457.0</ele><time>2026-04-18T14:51:18.002Z</time></trkpt><trkpt lat="43.46395454719045" lon="10.616287750663835"><ele>457.00000000000006</ele><time>2026-04-18T14:51:19.002Z</time></trkpt><trkpt lat="43.46392168294861" lon="10.616192957886762"><ele>457.0</ele><time>2026-04-18T14:51:20.002Z</time></trkpt><trkpt lat="43.46388254405991" lon="10.616120634925116"><ele>462.33333333333337</ele><time>2026-04-18T14:51:21.002Z</time></trkpt><trkpt lat="43.463837466372674" lon="10.616031320439111"><ele>467.66666666666663</ele><time>2026-04-18T14:51:23.002Z</time></trkpt><trkpt lat="43.46366100009104" lon="10.615624919757275"><ele>473.0</ele><time>2026-04-18T14:51:25.002Z</time></trkpt><trkpt lat="43.463591020924085" lon="10.615499650006694"><ele>473.0</ele><time>2026-04-18T14:51:26.002Z</time></trkpt><trkpt lat="43.46352266386926" lon="10.61539104708149"><ele>472.99999999999994</ele><time>2026-04-18T14:51:27.002Z</time></trkpt><trkpt lat="43.46345284066664" lon="10.615290094892613"><ele>472.99999999999994</ele><time>2026-04-18T14:51:28.002Z</time></trkpt><trkpt lat="43.463379862644594" lon="10.615200349844134"><ele>473.0</ele><time>2026-04-18T14:51:29.002Z</time></trkpt><trkpt lat="43.463307872542444" lon="10.615087073250455"><ele>473.0</ele><time>2026-04-18T14:51:31.001Z</time></trkpt><trkpt lat="43.46325864160885" lon="10.615144997609457"><ele>473.0</ele><time>2026-04-18T14:51:34.001Z</time></trkpt><trkpt lat="43.46322408221842" lon="10.615385539622356"><ele>472.99999999999994</ele><time>2026-04-18T14:51:38.001Z</time></trkpt><trkpt lat="43.463211238745124" lon="10.615498130528508"><ele>472.99999999999994</ele><time>2026-04-18T14:51:39.001Z</time></trkpt><trkpt lat="43.46321893281494" lon="10.615603405877676"><ele>473.0</ele><time>2026-04-18T14:51:40.001Z</time></trkpt><trkpt lat="43.46322567571915" lon="10.615728523673276"><ele>473.0</ele><time>2026-04-18T14:51:41.001Z</time></trkpt><trkpt lat="43.46324472872978" lon="10.61590501297503"><ele>473.0</ele><time>2026-04-18T14:51:42.001Z</time></trkpt><trkpt lat="43.46325567304994" lon="10.61606488614812"><ele>472.99999999999994</ele><time>2026-04-18T14:51:43.001Z</time></trkpt><trkpt lat="43.46326099570304" lon="10.616214170640166"><ele>472.99999999999994</ele><time>2026-04-18T14:51:44.001Z</time></trkpt><trkpt lat="43.46326299403502" lon="10.616351973253225"><ele>473.0</ele><time>2026-04-18T14:51:45.001Z</time></trkpt><trkpt lat="43.46322322510311" lon="10.616487400400779"><ele>473.0</ele><time>2026-04-18T14:51:46.001Z</time></trkpt><trkpt lat="43.46318843005102" lon="10.616586467789428"><ele>471.3333333333333</ele><time>2026-04-18T14:51:47.001Z</time></trkpt><trkpt lat="43.46314014024876" lon="10.616646786207296"><ele>469.66666666666663</ele><time>2026-04-18T14:51:48.001Z</time></trkpt><trkpt lat="43.463055047180234" lon="10.616743496272223"><ele>468.0</ele><time>2026-04-18T14:51:50.001Z</time></trkpt><trkpt lat="43.4629787897204" lon="10.616806812826875"><ele>466.33333333333337</ele><time>2026-04-18T14:51:51.001Z</time></trkpt><trkpt lat="43.462884908191725" lon="10.616847176017867"><ele>464.6666666666667</ele><time>2026-04-18T14:51:52.001Z</time></trkpt><trkpt lat="43.462802228838704" lon="10.616852748092873"><ele>463.0</ele><time>2026-04-18T14:51:53.001Z</time></trkpt><trkpt lat="43.46268712885881" lon="10.616824443019315"><ele>463.0</ele><time>2026-04-18T14:51:55.001Z</time></trkpt><trkpt lat="43.462621705791726" lon="10.61675283124176"><ele>462.99999999999994</ele><time>2026-04-18T14:51:56.001Z</time></trkpt><trkpt lat="43.462555311282095" lon="10.616659807161906"><ele>462.99999999999994</ele><time>2026-04-18T14:51:57.001Z</time></trkpt><trkpt lat="43.46249386979088" lon="10.616563390546752"><ele>463.0</ele><time>2026-04-18T14:51:58.001Z</time></trkpt><trkpt lat="43.46243233202498" lon="10.616453780307607"><ele>463.0</ele><time>2026-04-18T14:51:59.001Z</time></trkpt><trkpt lat="43.462378040095004" lon="10.616339517889346"><ele>463.00000000000006</ele><time>2026-04-18T14:52:00.001Z</time></trkpt><trkpt lat="43.46233418763872" lon="10.616273296521523"><ele>463.0</ele><time>2026-04-18T14:52:01.001Z</time></trkpt><trkpt lat="43.4622859757065" lon="10.616206528497278"><ele>463.0</ele><time>2026-04-18T14:52:03.001Z</time></trkpt><trkpt lat="43.46224278031771" lon="10.616131534290925"><ele>463.0</ele><time>2026-04-18T14:52:14.001Z</time></trkpt><trkpt lat="43.46229410972109" lon="10.616228526505123"><ele>463.00000000000006</ele><time>2026-04-18T14:52:33.001Z</time></trkpt><trkpt lat="43.462220050661365" lon="10.616035271116514"><ele>463.0</ele><time>2026-04-18T14:52:34.001Z</time></trkpt><trkpt lat="43.46236835507554" lon="10.616383109202298"><ele>463.0</ele><time>2026-04-18T14:52:35.001Z</time></trkpt><trkpt lat="43.46241492349981" lon="10.616468495327783"><ele>462.99999999999994</ele><time>2026-04-18T14:52:36.001Z</time></trkpt><trkpt lat="43.46246180054713" lon="10.616554650535159"><ele>463.0</ele><time>2026-04-18T14:52:37.001Z</time></trkpt><trkpt lat="43.462510230958074" lon="10.616629468152972"><ele>463.0</ele><time>2026-04-18T14:52:38.001Z</time></trkpt><trkpt lat="43.46255279459675" lon="10.616718059482025"><ele>462.99999999999994</ele><time>2026-04-18T14:52:39.001Z</time></trkpt><trkpt lat="43.46259815878259" lon="10.616780811549425"><ele>463.0</ele><time>2026-04-18T14:52:40.001Z</time></trkpt><trkpt lat="43.46264485356397" lon="10.61684817050152"><ele>463.0</ele><time>2026-04-18T14:52:41.001Z</time></trkpt><trkpt lat="43.46274396494566" lon="10.616912563830432"><ele>463.00000000000006</ele><time>2026-04-18T14:52:43.001Z</time></trkpt><trkpt lat="43.46287574029996" lon="10.616924839424913"><ele>463.0</ele><time>2026-04-18T14:52:45.001Z</time></trkpt><trkpt lat="43.462948677879496" lon="10.616893752337752"><ele>463.0</ele><time>2026-04-18T14:52:46.001Z</time></trkpt><trkpt lat="43.46301324646717" lon="10.616830128804438"><ele>463.0</ele><time>2026-04-18T14:52:47.001Z</time></trkpt><trkpt lat="43.46307216454988" lon="10.616780112193617"><ele>463.00000000000006</ele><time>2026-04-18T14:52:48.001Z</time></trkpt><trkpt lat="43.46312134587836" lon="10.616702291472265"><ele>463.0</ele><time>2026-04-18T14:52:49.001Z</time></trkpt><trkpt lat="43.463217125235644" lon="10.616577340028353"><ele>462.83333333333337</ele><time>2026-04-18T14:52:51.001Z</time></trkpt><trkpt lat="43.4632494485971" lon="10.616495990248563"><ele>462.6666666666667</ele><time>2026-04-18T14:52:52.001Z</time></trkpt><trkpt lat="43.463274988948505" lon="10.616388789937517"><ele>462.5</ele><time>2026-04-18T14:52:53.001Z</time></trkpt><trkpt lat="43.46328880552111" lon="10.616272919258959"><ele>462.33333333333337</ele><time>2026-04-18T14:52:54.001Z</time></trkpt><trkpt lat="43.46328631030012" lon="10.616164469487915"><ele>462.1666666666667</ele><time>2026-04-18T14:52:55.001Z</time></trkpt><trkpt lat="43.46328118276957" lon="10.616064689246404"><ele>462.0</ele><time>2026-04-18T14:52:56.001Z</time></trkpt><trkpt lat="43.463273693556076" lon="10.615946401652698"><ele>464.20000000000005</ele><time>2026-04-18T14:52:57.001Z</time></trkpt><trkpt lat="43.46326504724965" lon="10.615809838486383"><ele>466.40000000000003</ele><time>2026-04-18T14:52:58.001Z</time></trkpt><trkpt lat="43.463260238613046" lon="10.615684491829171"><ele>468.59999999999997</ele><time>2026-04-18T14:52:59.001Z</time></trkpt><trkpt lat="43.463255389263225" lon="10.615550533680223"><ele>470.79999999999995</ele><time>2026-04-18T14:53:00.002Z</time></trkpt><trkpt lat="43.463251906996604" lon="10.61544772424587"><ele>473.0</ele><time>2026-04-18T14:53:01.002Z</time></trkpt><trkpt lat="43.46325141132535" lon="10.615304587684967"><ele>473.0</ele><time>2026-04-18T14:53:03.002Z</time></trkpt><trkpt lat="43.46326551683954" lon="10.615211789663812"><ele>472.99999999999994</ele><time>2026-04-18T14:53:07.002Z</time></trkpt><trkpt lat="43.46341098214197" lon="10.615340118696267"><ele>472.99999999999994</ele><time>2026-04-18T14:53:13.002Z</time></trkpt><trkpt lat="43.46347389395253" lon="10.615400816316434"><ele>473.0</ele><time>2026-04-18T14:53:14.002Z</time></trkpt><trkpt lat="43.46355615286333" lon="10.615477056958333"><ele>473.0</ele><time>2026-04-18T14:53:15.002Z</time></trkpt><trkpt lat="43.46361167986563" lon="10.61561130613081"><ele>472.99999999999994</ele><time>2026-04-18T14:53:16.002Z</time></trkpt><trkpt lat="43.46366151110625" lon="10.615703360877083"><ele>473.0</ele><time>2026-04-18T14:53:17.002Z</time></trkpt><trkpt lat="43.46369685106436" lon="10.615775254551574"><ele>473.0</ele><time>2026-04-18T14:53:18.002Z</time></trkpt><trkpt lat="43.46374362846535" lon="10.615885273773142"><ele>473.0</ele><time>2026-04-18T14:53:19.002Z</time></trkpt><trkpt lat="43.46378754459766" lon="10.615998721389854"><ele>472.99999999999994</ele><time>2026-04-18T14:53:20.002Z</time></trkpt><trkpt lat="43.46383301946459" lon="10.616120197836342"><ele>473.0</ele><time>2026-04-18T14:53:21.002Z</time></trkpt><trkpt lat="43.463885788892675" lon="10.616266478220757"><ele>470.3333333333333</ele><time>2026-04-18T14:53:22.002Z</time></trkpt><trkpt lat="43.46392211418761" lon="10.616365613094484"><ele>467.66666666666663</ele><time>2026-04-18T14:53:23.002Z</time></trkpt><trkpt lat="43.463969800001145" lon="10.616460808955969"><ele>465.0</ele><time>2026-04-18T14:53:24.002Z</time></trkpt><trkpt lat="43.464012651726" lon="10.616592466179295"><ele>462.33333333333337</ele><time>2026-04-18T14:53:26.002Z</time></trkpt><trkpt lat="43.464033091477816" lon="10.616709756548232"><ele>459.6666666666667</ele><time>2026-04-18T14:53:28.002Z</time></trkpt><trkpt lat="43.46407039516446" lon="10.616799979544627"><ele>457.0</ele><time>2026-04-18T14:53:31.002Z</time></trkpt><trkpt lat="43.46406387201856" lon="10.616705158743995"><ele>457.0</ele><time>2026-04-18T14:53:43.001Z</time></trkpt><trkpt lat="43.464238479482916" lon="10.616680517648032"><ele>457.0</ele><time>2026-04-18T14:53:44.001Z</time></trkpt><trkpt lat="43.46428586559074" lon="10.61655923962268"><ele>457.0</ele><time>2026-04-18T14:53:46.001Z</time></trkpt><trkpt lat="43.46432843613302" lon="10.616436859625033"><ele>457.0</ele><time>2026-04-18T14:53:48.001Z</time></trkpt><trkpt lat="43.46437211347439" lon="10.616306557431864"><ele>457.0</ele><time>2026-04-18T14:53:50.001Z</time></trkpt><trkpt lat="43.464411482687126" lon="10.61618910799037"><ele>457.0</ele><time>2026-04-18T14:53:54.001Z</time></trkpt><trkpt lat="43.464370191156284" lon="10.616082412343868"><ele>457.0</ele><time>2026-04-18T14:53:57.001Z</time></trkpt><trkpt lat="43.46407605963446" lon="10.615830304330677"><ele>460.40000000000003</ele><time>2026-04-18T14:53:59.001Z</time></trkpt><trkpt lat="43.46404943832146" lon="10.615741256431782"><ele>463.80000000000007</ele><time>2026-04-18T14:54:02.001Z</time></trkpt><trkpt lat="43.4640513348813" lon="10.615613977457324"><ele>467.2</ele><time>2026-04-18T14:54:05Z</time></trkpt><trkpt lat="43.46407784039794" lon="10.615508094714256"><ele>470.6</ele><time>2026-04-18T14:54:07Z</time></trkpt><trkpt lat="43.46410037461457" lon="10.615361704514198"><ele>474.0</ele><time>2026-04-18T14:54:09Z</time></trkpt><trkpt lat="43.46414184641683" lon="10.615224791428599"><ele>477.5</ele><time>2026-04-18T14:54:11Z</time></trkpt><trkpt lat="43.46417986086559" lon="10.615081702843872"><ele>481.0</ele><time>2026-04-18T14:54:13Z</time></trkpt><trkpt lat="43.464199666224424" lon="10.614996359796702"><ele>484.5</ele><time>2026-04-18T14:54:15Z</time></trkpt><trkpt lat="43.46420920231319" lon="10.614864989714588"><ele>488.0</ele><time>2026-04-18T14:54:19Z</time></trkpt><trkpt lat="43.46422939814562" lon="10.61477680359087"><ele>491.5</ele><time>2026-04-18T14:54:20Z</time></trkpt><trkpt lat="43.46426216723919" lon="10.614657064500603"><ele>495.0</ele><time>2026-04-18T14:54:22Z</time></trkpt><trkpt lat="43.46429918636686" lon="10.614563270355989"><ele>497.5</ele><time>2026-04-18T14:54:24Z</time></trkpt><trkpt lat="43.46432243995504" lon="10.614442203082755"><ele>500.0</ele><time>2026-04-18T14:54:26Z</time></trkpt><trkpt lat="43.464343572306895" lon="10.614304026289625"><ele>502.5</ele><time>2026-04-18T14:54:28Z</time></trkpt><trkpt lat="43.464369131034566" lon="10.614156686532162"><ele>505.0</ele><time>2026-04-18T14:54:30Z</time></trkpt><trkpt lat="43.46438037422754" lon="10.61406590015808"><ele>507.5</ele><time>2026-04-18T14:54:31Z</time></trkpt><trkpt lat="43.46439506376493" lon="10.613980575266046"><ele>510.0</ele><time>2026-04-18T14:54:32Z</time></trkpt><trkpt lat="43.46441701396406" lon="10.613888979906275"><ele>510.0</ele><time>2026-04-18T14:54:33Z</time></trkpt><trkpt lat="43.4644325337735" lon="10.613777104224207"><ele>510.0</ele><time>2026-04-18T14:54:34Z</time></trkpt><trkpt lat="43.464460142112706" lon="10.613677632651438"><ele>510.0</ele><time>2026-04-18T14:54:35Z</time></trkpt><trkpt lat="43.464508546004026" lon="10.613527963890661"><ele>510.0</ele><time>2026-04-18T14:54:37Z</time></trkpt><trkpt lat="43.464559528852504" lon="10.613390383603903"><ele>510.0</ele><time>2026-04-18T14:54:39Z</time></trkpt><trkpt lat="43.46461052063712" lon="10.613254154064862"><ele>510.5</ele><time>2026-04-18T14:54:41Z</time></trkpt><trkpt lat="43.46462069408103" lon="10.613147439097299"><ele>511.0</ele><time>2026-04-18T14:54:43Z</time></trkpt><trkpt lat="43.464591507381385" lon="10.61302223036095"><ele>511.5</ele><time>2026-04-18T14:54:45Z</time></trkpt><trkpt lat="43.46462804232064" lon="10.612938893233991"><ele>512.0</ele><time>2026-04-18T14:55:15.001Z</time></trkpt><trkpt lat="43.46460239564412" lon="10.612831744035194"><ele>512.5</ele><time>2026-04-18T14:55:20.001Z</time></trkpt><trkpt lat="43.46458777860781" lon="10.61270726907911"><ele>513.0</ele><time>2026-04-18T14:55:23.001Z</time></trkpt><trkpt lat="43.4645748644169" lon="10.612603874671278"><ele>516.4</ele><time>2026-04-18T14:55:27.001Z</time></trkpt><trkpt lat="43.4645672828604" lon="10.61251552809512"><ele>519.8</ele><time>2026-04-18T14:55:29.001Z</time></trkpt><trkpt lat="43.46456962688518" lon="10.612368943384276"><ele>523.2</ele><time>2026-04-18T14:55:32.001Z</time></trkpt><trkpt lat="43.46457362633593" lon="10.612213066437429"><ele>526.6</ele><time>2026-04-18T14:55:34.001Z</time></trkpt><trkpt lat="43.464567527640675" lon="10.612125795234206"><ele>530.0</ele><time>2026-04-18T14:55:35.001Z</time></trkpt><trkpt lat="43.464555894399425" lon="10.611960076178882"><ele>531.7142857142857</ele><time>2026-04-18T14:55:37.001Z</time></trkpt><trkpt lat="43.46456401255505" lon="10.611858625146347"><ele>533.4285714285714</ele><time>2026-04-18T14:55:39.001Z</time></trkpt><trkpt lat="43.46457671959521" lon="10.611761612296602"><ele>535.1428571428571</ele><time>2026-04-18T14:55:40.001Z</time></trkpt><trkpt lat="43.464594909358794" lon="10.611664607779892"><ele>536.8571428571429</ele><time>2026-04-18T14:55:41.001Z</time></trkpt><trkpt lat="43.464560064075776" lon="10.6117425693175"><ele>538.5714285714286</ele><time>2026-04-18T14:55:42Z</time></trkpt><trkpt lat="43.46455538898835" lon="10.61162543153749"><ele>540.2857142857142</ele><time>2026-04-18T14:55:46Z</time></trkpt><trkpt lat="43.46457498283573" lon="10.611534490388143"><ele>542.0</ele><time>2026-04-18T14:55:49Z</time></trkpt><trkpt lat="43.46459132019438" lon="10.611413266788022"><ele>542.0</ele><time>2026-04-18T14:55:52Z</time></trkpt><trkpt lat="43.46458089126339" lon="10.611263523650042"><ele>542.0</ele><time>2026-04-18T14:55:54Z</time></trkpt><trkpt lat="43.46461963652184" lon="10.611157466490331"><ele>542.0</ele><time>2026-04-18T14:55:56Z</time></trkpt><trkpt lat="43.464690786372806" lon="10.611042961520312"><ele>542.0</ele><time>2026-04-18T14:55:58Z</time></trkpt><trkpt lat="43.464729641568944" lon="10.610951163435512"><ele>542.0</ele><time>2026-04-18T14:55:59Z</time></trkpt><trkpt lat="43.46477367823206" lon="10.610860774776386"><ele>545.0</ele><time>2026-04-18T14:56:00Z</time></trkpt><trkpt lat="43.46481913914272" lon="10.610761033991807"><ele>548.0</ele><time>2026-04-18T14:56:01Z</time></trkpt><trkpt lat="43.4648479448352" lon="10.610675786869724"><ele>551.0</ele><time>2026-04-18T14:56:02Z</time></trkpt><trkpt lat="43.464884965485886" lon="10.610580889739726"><ele>554.0</ele><time>2026-04-18T14:56:04Z</time></trkpt><trkpt lat="43.46492205308365" lon="10.610430601701593"><ele>557.0</ele><time>2026-04-18T14:56:06Z</time></trkpt><trkpt lat="43.46498437458893" lon="10.61033807192508"><ele>560.0</ele><time>2026-04-18T14:56:08Z</time></trkpt><trkpt lat="43.4650433594042" lon="10.610231192763427"><ele>560.6666666666666</ele><time>2026-04-18T14:56:10Z</time></trkpt><trkpt lat="43.46504022522879" lon="10.610107110105375"><ele>561.3333333333333</ele><time>2026-04-18T14:56:12Z</time></trkpt><trkpt lat="43.46505838161397" lon="10.609986461056948"><ele>562.0</ele><time>2026-04-18T14:56:14Z</time></trkpt><trkpt lat="43.46510016429909" lon="10.609891927051372"><ele>562.6666666666666</ele><time>2026-04-18T14:56:16Z</time></trkpt><trkpt lat="43.46512994258519" lon="10.609807078165483"><ele>563.3333333333334</ele><time>2026-04-18T14:56:17Z</time></trkpt><trkpt lat="43.46518302444083" lon="10.609696125073604"><ele>564.0</ele><time>2026-04-18T14:56:18Z</time></trkpt><trkpt lat="43.46522808327677" lon="10.609610441466979"><ele>564.0</ele><time>2026-04-18T14:56:19Z</time></trkpt><trkpt lat="43.465292154334215" lon="10.609498547175383"><ele>564.0</ele><time>2026-04-18T14:56:21Z</time></trkpt><trkpt lat="43.465359212049016" lon="10.609353098431832"><ele>564.0</ele><time>2026-04-18T14:56:23Z</time></trkpt><trkpt lat="43.46538826239464" lon="10.609276144581465"><ele>564.0</ele><time>2026-04-18T14:56:24Z</time></trkpt><trkpt lat="43.465462106796345" lon="10.609184067807535"><ele>564.0</ele><time>2026-04-18T14:56:26Z</time></trkpt><trkpt lat="43.46552276710623" lon="10.609091971957437"><ele>565.5714285714286</ele><time>2026-04-18T14:56:28Z</time></trkpt><trkpt lat="43.46555425379645" lon="10.609003384134562"><ele>567.1428571428571</ele><time>2026-04-18T14:56:30Z</time></trkpt><trkpt lat="43.46553951768534" lon="10.608882331682986"><ele>568.7142857142857</ele><time>2026-04-18T14:56:32Z</time></trkpt><trkpt lat="43.46550908299763" lon="10.608794865341608"><ele>570.2857142857142</ele><time>2026-04-18T14:56:33Z</time></trkpt><trkpt lat="43.46551134138479" lon="10.608681181661472"><ele>571.8571428571428</ele><time>2026-04-18T14:56:35Z</time></trkpt><trkpt lat="43.46557475332712" lon="10.60864901594875"><ele>573.4285714285714</ele><time>2026-04-18T14:56:37Z</time></trkpt><trkpt lat="43.465638639441686" lon="10.608618636531629"><ele>575.0</ele><time>2026-04-18T14:56:38Z</time></trkpt><trkpt lat="43.46572225306291" lon="10.608590674629852"><ele>575.1666666666666</ele><time>2026-04-18T14:56:39Z</time></trkpt><trkpt lat="43.465817109890935" lon="10.608581077209731"><ele>575.3333333333333</ele><time>2026-04-18T14:56:40Z</time></trkpt><trkpt lat="43.4658857388652" lon="10.608584867917793"><ele>575.5</ele><time>2026-04-18T14:56:41Z</time></trkpt><trkpt lat="43.46597166476431" lon="10.608592691418494"><ele>575.6666666666666</ele><time>2026-04-18T14:56:43Z</time></trkpt><trkpt lat="43.466047714020554" lon="10.608545822664937"><ele>575.8333333333334</ele><time>2026-04-18T15:05:48.001Z</time></trkpt><trkpt lat="43.466130448752345" lon="10.608540270423754"><ele>576.0</ele><time>2026-04-18T15:05:53.001Z</time></trkpt><trkpt lat="43.4662398503206" lon="10.608559978651357"><ele>576.3333333333334</ele><time>2026-04-18T15:05:55.001Z</time></trkpt><trkpt lat="43.46634409551455" lon="10.608573996498281"><ele>576.6666666666666</ele><time>2026-04-18T15:05:57.001Z</time></trkpt><trkpt lat="43.466428012917255" lon="10.608528758580409"><ele>577.0</ele><time>2026-04-18T15:05:59.001Z</time></trkpt><trkpt lat="43.4664715234227" lon="10.608457865802768"><ele>577.3333333333333</ele><time>2026-04-18T15:06:02.001Z</time></trkpt><trkpt lat="43.46654554591121" lon="10.608343115175947"><ele>577.6666666666666</ele><time>2026-04-18T15:06:04.001Z</time></trkpt><trkpt lat="43.466579296834624" lon="10.60826691982551"><ele>578.0</ele><time>2026-04-18T15:06:05.001Z</time></trkpt><trkpt lat="43.46663841034064" lon="10.608204599860693"><ele>578.0</ele><time>2026-04-18T15:06:07.001Z</time></trkpt><trkpt lat="43.46670237778369" lon="10.608119539055782"><ele>578.0</ele><time>2026-04-18T15:06:09.002Z</time></trkpt><trkpt lat="43.46674528704944" lon="10.60802050993119"><ele>578.0</ele><time>2026-04-18T15:06:11.001Z</time></trkpt><trkpt lat="43.46678814359791" lon="10.607918687029512"><ele>578.0</ele><time>2026-04-18T15:06:13.001Z</time></trkpt><trkpt lat="43.46684106960692" lon="10.607824486709182"><ele>578.0</ele><time>2026-04-18T15:06:16.001Z</time></trkpt><trkpt lat="43.466883352955726" lon="10.607717771918571"><ele>578.0</ele><time>2026-04-18T15:06:20.001Z</time></trkpt><trkpt lat="43.466893741482956" lon="10.607624934971215"><ele>577.5</ele><time>2026-04-18T15:06:23.001Z</time></trkpt><trkpt lat="43.4669458482409" lon="10.60756573138824"><ele>577.0</ele><time>2026-04-18T15:06:26.001Z</time></trkpt><trkpt lat="43.467021769011886" lon="10.607558616207289"><ele>576.5</ele><time>2026-04-18T15:06:29.001Z</time></trkpt><trkpt lat="43.46711921910678" lon="10.607544353893676"><ele>576.0</ele><time>2026-04-18T15:06:31.001Z</time></trkpt><trkpt lat="43.467182309576884" lon="10.607462783262115"><ele>575.5</ele><time>2026-04-18T15:06:32.001Z</time></trkpt><trkpt lat="43.46726646198823" lon="10.607363198145524"><ele>575.0</ele><time>2026-04-18T15:06:33.001Z</time></trkpt><trkpt lat="43.46733504620661" lon="10.607322488305185"><ele>574.8333333333333</ele><time>2026-04-18T15:06:34.001Z</time></trkpt><trkpt lat="43.467398606964345" lon="10.60718853101896"><ele>574.6666666666666</ele><time>2026-04-18T15:06:36.001Z</time></trkpt><trkpt lat="43.467456656519204" lon="10.607120112654648"><ele>574.5</ele><time>2026-04-18T15:06:37.001Z</time></trkpt><trkpt lat="43.46752120209084" lon="10.607076306911173"><ele>574.3333333333334</ele><time>2026-04-18T15:06:38.001Z</time></trkpt><trkpt lat="43.46758938340071" lon="10.607021528207765"><ele>574.1666666666667</ele><time>2026-04-18T15:06:39.001Z</time></trkpt><trkpt lat="43.46767716735206" lon="10.606992104799572"><ele>574.0</ele><time>2026-04-18T15:06:40.001Z</time></trkpt><trkpt lat="43.46775162043607" lon="10.60695284699625"><ele>574.8</ele><time>2026-04-18T15:06:41.001Z</time></trkpt><trkpt lat="43.4678118513633" lon="10.606906037977254"><ele>575.5999999999999</ele><time>2026-04-18T15:06:42.001Z</time></trkpt><trkpt lat="43.467872861457415" lon="10.606848002146661"><ele>576.4</ele><time>2026-04-18T15:06:43.001Z</time></trkpt><trkpt lat="43.467963770924335" lon="10.606735059468145"><ele>577.1999999999999</ele><time>2026-04-18T15:06:45.001Z</time></trkpt><trkpt lat="43.46801795073494" lon="10.606570152507858"><ele>578.0</ele><time>2026-04-18T15:06:47.001Z</time></trkpt><trkpt lat="43.46803410549223" lon="10.606473643125184"><ele>578.0</ele><time>2026-04-18T15:06:48.001Z</time></trkpt><trkpt lat="43.46803942352332" lon="10.606386305921237"><ele>578.0</ele><time>2026-04-18T15:06:49.001Z</time></trkpt><trkpt lat="43.468051143558064" lon="10.606223568706044"><ele>578.0</ele><time>2026-04-18T15:06:51.001Z</time></trkpt><trkpt lat="43.46805338766661" lon="10.60613355682515"><ele>578.0</ele><time>2026-04-18T15:06:52.001Z</time></trkpt><trkpt lat="43.468054823106705" lon="10.60602035541661"><ele>578.0</ele><time>2026-04-18T15:06:53.001Z</time></trkpt><trkpt lat="43.468054242750966" lon="10.60590150072736"><ele>578.0</ele><time>2026-04-18T15:06:54.001Z</time></trkpt><trkpt lat="43.468070468152035" lon="10.605788426381977"><ele>578.6</ele><time>2026-04-18T15:06:55.001Z</time></trkpt><trkpt lat="43.46807771962252" lon="10.605667364653437"><ele>579.1999999999999</ele><time>2026-04-18T15:06:56.001Z</time></trkpt><trkpt lat="43.4680850194085" lon="10.605545066473542"><ele>579.8</ele><time>2026-04-18T15:06:57.001Z</time></trkpt><trkpt lat="43.46808227881408" lon="10.605431540410684"><ele>580.4</ele><time>2026-04-18T15:06:58.001Z</time></trkpt><trkpt lat="43.46807986118957" lon="10.60529237797145"><ele>581.0</ele><time>2026-04-18T15:06:59.001Z</time></trkpt><trkpt lat="43.46805921479803" lon="10.60516345427997"><ele>581.2</ele><time>2026-04-18T15:07:00.001Z</time></trkpt><trkpt lat="43.46804132648172" lon="10.605031555545768"><ele>581.4000000000001</ele><time>2026-04-18T15:07:01.001Z</time></trkpt><trkpt lat="43.468026338991955" lon="10.604903824913274"><ele>581.6</ele><time>2026-04-18T15:07:02.001Z</time></trkpt><trkpt lat="43.46802464006701" lon="10.604794446880799"><ele>581.8000000000001</ele><time>2026-04-18T15:07:03.001Z</time></trkpt><trkpt lat="43.468035976359026" lon="10.604708790027763"><ele>582.0</ele><time>2026-04-18T15:07:04.001Z</time></trkpt><trkpt lat="43.468088191472155" lon="10.604553488875387"><ele>581.6666666666666</ele><time>2026-04-18T15:07:06.001Z</time></trkpt><trkpt lat="43.468112606020235" lon="10.604458957623388"><ele>581.3333333333334</ele><time>2026-04-18T15:07:07.001Z</time></trkpt><trkpt lat="43.46813159761591" lon="10.604371018581734"><ele>581.0</ele><time>2026-04-18T15:07:08.001Z</time></trkpt><trkpt lat="43.46820305113902" lon="10.604291891283024"><ele>580.6666666666667</ele><time>2026-04-18T15:07:11.001Z</time></trkpt><trkpt lat="43.46825801842465" lon="10.60424917067562"><ele>580.3333333333334</ele><time>2026-04-18T15:07:12.001Z</time></trkpt><trkpt lat="43.46833339683396" lon="10.60418456207683"><ele>580.0</ele><time>2026-04-18T15:07:13.001Z</time></trkpt><trkpt lat="43.468398865098656" lon="10.604117703300044"><ele>580.0</ele><time>2026-04-18T15:07:14.001Z</time></trkpt><trkpt lat="43.46844566866485" lon="10.60402712143399"><ele>580.0</ele><time>2026-04-18T15:07:16.001Z</time></trkpt><trkpt lat="43.468451844933455" lon="10.603885919448894"><ele>580.0</ele><time>2026-04-18T15:07:18.001Z</time></trkpt><trkpt lat="43.4684414656841" lon="10.603797576352658"><ele>580.0</ele><time>2026-04-18T15:07:19.001Z</time></trkpt><trkpt lat="43.46841347857482" lon="10.603641966555555"><ele>580.0</ele><time>2026-04-18T15:07:21.001Z</time></trkpt><trkpt lat="43.468403183922945" lon="10.603467659087372"><ele>580.0</ele><time>2026-04-18T15:07:23.001Z</time></trkpt><trkpt lat="43.46838211017071" lon="10.603358352395206"><ele>580.0</ele><time>2026-04-18T15:07:24.001Z</time></trkpt><trkpt lat="43.46835979535869" lon="10.603262105614652"><ele>580.0</ele><time>2026-04-18T15:07:25.001Z</time></trkpt><trkpt lat="43.46833832563251" lon="10.603166450731196"><ele>580.0</ele><time>2026-04-18T15:07:26.001Z</time></trkpt><trkpt lat="43.46832479538119" lon="10.603078020244302"><ele>580.0</ele><time>2026-04-18T15:07:27.001Z</time></trkpt><trkpt lat="43.46831264772215" lon="10.60299058685621"><ele>580.0</ele><time>2026-04-18T15:07:28.001Z</time></trkpt><trkpt lat="43.46830705676978" lon="10.602889056131307"><ele>580.0</ele><time>2026-04-18T15:07:30.001Z</time></trkpt><trkpt lat="43.468308559226465" lon="10.602801120534581"><ele>580.0</ele><time>2026-04-18T15:07:38.001Z</time></trkpt><trkpt lat="43.46837570425576" lon="10.602816950506899"><ele>580.0</ele><time>2026-04-18T15:07:42.001Z</time></trkpt><trkpt lat="43.468440673841336" lon="10.602878104807994"><ele>580.0</ele><time>2026-04-18T15:07:44.001Z</time></trkpt><trkpt lat="43.4685359474002" lon="10.602919758905141"><ele>580.0</ele><time>2026-04-18T15:07:47.001Z</time></trkpt><trkpt lat="43.46866025510288" lon="10.602994773845566"><ele>580.0</ele><time>2026-04-18T15:07:49.001Z</time></trkpt><trkpt lat="43.46874789950557" lon="10.60303565468202"><ele>582.25</ele><time>2026-04-18T15:07:50.001Z</time></trkpt><trkpt lat="43.46882381910034" lon="10.603086407162062"><ele>584.5</ele><time>2026-04-18T15:07:51.001Z</time></trkpt><trkpt lat="43.468936412745485" lon="10.603155453390702"><ele>586.75</ele><time>2026-04-18T15:07:52.001Z</time></trkpt><trkpt lat="43.46905790509377" lon="10.603246449513454"><ele>589.0</ele><time>2026-04-18T15:07:53.001Z</time></trkpt><trkpt lat="43.46917798340799" lon="10.603328210062978"><ele>589.0</ele><time>2026-04-18T15:07:54.001Z</time></trkpt><trkpt lat="43.46927220369229" lon="10.603421849574108"><ele>589.0</ele><time>2026-04-18T15:07:55.001Z</time></trkpt><trkpt lat="43.46935685847623" lon="10.603501164087666"><ele>589.0</ele><time>2026-04-18T15:07:56.001Z</time></trkpt><trkpt lat="43.46946069289337" lon="10.603573364787385"><ele>589.0</ele><time>2026-04-18T15:07:57.001Z</time></trkpt><trkpt lat="43.46955644195774" lon="10.603641983920962"><ele>589.0</ele><time>2026-04-18T15:07:58.001Z</time></trkpt><trkpt lat="43.46963828924372" lon="10.603711489154977"><ele>588.0</ele><time>2026-04-18T15:07:59.001Z</time></trkpt><trkpt lat="43.4697146688684" lon="10.60379485259971"><ele>587.0</ele><time>2026-04-18T15:08:00.001Z</time></trkpt><trkpt lat="43.46978918697727" lon="10.603884182274046"><ele>586.0</ele><time>2026-04-18T15:08:01.001Z</time></trkpt><trkpt lat="43.46985568966476" lon="10.603952081703312"><ele>585.0</ele><time>2026-04-18T15:08:02.001Z</time></trkpt><trkpt lat="43.46992589657134" lon="10.603997911163866"><ele>584.0</ele><time>2026-04-18T15:08:03.001Z</time></trkpt><trkpt lat="43.47001152187008" lon="10.604061018735528"><ele>584.0</ele><time>2026-04-18T15:08:04.001Z</time></trkpt><trkpt lat="43.470096408412765" lon="10.604102938576977"><ele>584.0</ele><time>2026-04-18T15:08:05.001Z</time></trkpt><trkpt lat="43.47020739572834" lon="10.60413520404994"><ele>584.0</ele><time>2026-04-18T15:08:06.001Z</time></trkpt><trkpt lat="43.470313003472704" lon="10.604152160921"><ele>584.0</ele><time>2026-04-18T15:08:07.001Z</time></trkpt><trkpt lat="43.470402520587385" lon="10.604173845509447"><ele>584.0</ele><time>2026-04-18T15:08:08.001Z</time></trkpt><trkpt lat="43.47047069858024" lon="10.604205539876896"><ele>583.2</ele><time>2026-04-18T15:08:09.001Z</time></trkpt><trkpt lat="43.47056705092092" lon="10.604222370992668"><ele>582.4</ele><time>2026-04-18T15:08:10.001Z</time></trkpt><trkpt lat="43.47068497287107" lon="10.604215135806514"><ele>581.6</ele><time>2026-04-18T15:08:11.001Z</time></trkpt><trkpt lat="43.47080684209217" lon="10.604182600926322"><ele>580.8</ele><time>2026-04-18T15:08:12.001Z</time></trkpt><trkpt lat="43.47090703586876" lon="10.604167762022355"><ele>580.0</ele><time>2026-04-18T15:08:13.001Z</time></trkpt><trkpt lat="43.470997652677035" lon="10.604170085059128"><ele>580.0</ele><time>2026-04-18T15:08:14.001Z</time></trkpt><trkpt lat="43.471100984980694" lon="10.604177336649073"><ele>580.0</ele><time>2026-04-18T15:08:15.001Z</time></trkpt><trkpt lat="43.47120886736911" lon="10.604227604023118"><ele>580.0</ele><time>2026-04-18T15:08:16.001Z</time></trkpt><trkpt lat="43.47131603798391" lon="10.604277816521089"><ele>580.0</ele><time>2026-04-18T15:08:17Z</time></trkpt><trkpt lat="43.47142252607707" lon="10.604321022313687"><ele>580.0</ele><time>2026-04-18T15:08:18Z</time></trkpt><trkpt lat="43.47151573975522" lon="10.604325890337917"><ele>580.4</ele><time>2026-04-18T15:08:19Z</time></trkpt><trkpt lat="43.47160730586606" lon="10.604313739053609"><ele>580.8</ele><time>2026-04-18T15:08:20Z</time></trkpt><trkpt lat="43.471693754220674" lon="10.604277755165398"><ele>581.2</ele><time>2026-04-18T15:08:21Z</time></trkpt><trkpt lat="43.471789312082926" lon="10.60421127374154"><ele>581.6</ele><time>2026-04-18T15:08:22Z</time></trkpt><trkpt lat="43.47188122353552" lon="10.604150264578363"><ele>582.0</ele><time>2026-04-18T15:08:23Z</time></trkpt><trkpt lat="43.471962705868876" lon="10.604111076758551"><ele>582.0</ele><time>2026-04-18T15:08:24Z</time></trkpt><trkpt lat="43.47203727215584" lon="10.604128548515739"><ele>582.0</ele><time>2026-04-18T15:08:25Z</time></trkpt><trkpt lat="43.47210571671847" lon="10.60417049559834"><ele>582.0</ele><time>2026-04-18T15:08:26Z</time></trkpt><trkpt lat="43.4721743121475" lon="10.604258683527556"><ele>582.0</ele><time>2026-04-18T15:08:27Z</time></trkpt><trkpt lat="43.472224871569914" lon="10.604372136828605"><ele>582.0</ele><time>2026-04-18T15:08:28Z</time></trkpt><trkpt lat="43.47227508710531" lon="10.604497259676824"><ele>582.0</ele><time>2026-04-18T15:08:29Z</time></trkpt><trkpt lat="43.472338589813326" lon="10.604673338714926"><ele>583.0</ele><time>2026-04-18T15:08:30Z</time></trkpt><trkpt lat="43.472414459785504" lon="10.604831659147187"><ele>584.0</ele><time>2026-04-18T15:08:31Z</time></trkpt><trkpt lat="43.472480902063474" lon="10.604990176012357"><ele>585.0</ele><time>2026-04-18T15:08:32Z</time></trkpt><trkpt lat="43.472517752358684" lon="10.605131631981665"><ele>586.0</ele><time>2026-04-18T15:08:33Z</time></trkpt><trkpt lat="43.4725347488986" lon="10.6052697258365"><ele>585.4</ele><time>2026-04-18T15:08:34Z</time></trkpt><trkpt lat="43.472574468799635" lon="10.605426420367952"><ele>584.8</ele><time>2026-04-18T15:08:35Z</time></trkpt><trkpt lat="43.47260423394073" lon="10.605551635728588"><ele>584.1999999999999</ele><time>2026-04-18T15:08:36Z</time></trkpt><trkpt lat="43.47265121922125" lon="10.605669889019634"><ele>583.6</ele><time>2026-04-18T15:08:37Z</time></trkpt><trkpt lat="43.47271737374086" lon="10.605781295027445"><ele>583.0</ele><time>2026-04-18T15:08:38Z</time></trkpt><trkpt lat="43.472804810962245" lon="10.605892053852276"><ele>583.0</ele><time>2026-04-18T15:08:39Z</time></trkpt><trkpt lat="43.47291150922838" lon="10.605966807839552"><ele>583.0</ele><time>2026-04-18T15:08:40Z</time></trkpt><trkpt lat="43.47301188887468" lon="10.606062587974616"><ele>583.0</ele><time>2026-04-18T15:08:41Z</time></trkpt><trkpt lat="43.47310189234457" lon="10.60615366314212"><ele>583.0</ele><time>2026-04-18T15:08:42Z</time></trkpt><trkpt lat="43.473185996188846" lon="10.606227743585707"><ele>582.8</ele><time>2026-04-18T15:08:43Z</time></trkpt><trkpt lat="43.473247629735205" lon="10.606300441045727"><ele>582.5999999999999</ele><time>2026-04-18T15:08:44Z</time></trkpt><trkpt lat="43.4733568007827" lon="10.606358310229153"><ele>582.4000000000001</ele><time>2026-04-18T15:08:46Z</time></trkpt><trkpt lat="43.47347245222383" lon="10.606375506617157"><ele>582.2</ele><time>2026-04-18T15:08:48Z</time></trkpt><trkpt lat="43.47359223848667" lon="10.60633399576841"><ele>582.0</ele><time>2026-04-18T15:08:50Z</time></trkpt><trkpt lat="43.47370872390784" lon="10.606257288996595"><ele>581.2</ele><time>2026-04-18T15:08:52Z</time></trkpt><trkpt lat="43.47379279472297" lon="10.606243747557265"><ele>580.4000000000001</ele><time>2026-04-18T15:08:53Z</time></trkpt><trkpt lat="43.473901417186596" lon="10.606250850018567"><ele>579.5999999999999</ele><time>2026-04-18T15:08:54Z</time></trkpt><trkpt lat="43.474032751521456" lon="10.606243951226272"><ele>578.8</ele><time>2026-04-18T15:08:55Z</time></trkpt><trkpt lat="43.47415232323831" lon="10.606254995328783"><ele>578.0</ele><time>2026-04-18T15:08:56Z</time></trkpt><trkpt lat="43.47425798142194" lon="10.606259808961813"><ele>578.0</ele><time>2026-04-18T15:08:57Z</time></trkpt><trkpt lat="43.47435331162268" lon="10.606233633675172"><ele>578.0</ele><time>2026-04-18T15:08:58Z</time></trkpt><trkpt lat="43.47444876868993" lon="10.606207941147675"><ele>578.0</ele><time>2026-04-18T15:08:59Z</time></trkpt><trkpt lat="43.47455378961154" lon="10.606170835076757"><ele>578.0</ele><time>2026-04-18T15:09:00Z</time></trkpt><trkpt lat="43.47465236017634" lon="10.606160898612691"><ele>578.0</ele><time>2026-04-18T15:09:01Z</time></trkpt><trkpt lat="43.47473113816276" lon="10.606184078460046"><ele>577.6666666666666</ele><time>2026-04-18T15:09:02Z</time></trkpt><trkpt lat="43.47480076745604" lon="10.60618670919809"><ele>577.3333333333333</ele><time>2026-04-18T15:09:03Z</time></trkpt><trkpt lat="43.47490318426153" lon="10.606076046402054"><ele>577.0</ele><time>2026-04-18T15:09:05Z</time></trkpt><trkpt lat="43.47495677839732" lon="10.605994200994834"><ele>576.6666666666666</ele><time>2026-04-18T15:09:07Z</time></trkpt><trkpt lat="43.4749817458266" lon="10.605879613465246"><ele>576.3333333333334</ele><time>2026-04-18T15:09:10Z</time></trkpt><trkpt lat="43.47498363170816" lon="10.605773908204803"><ele>576.0</ele><time>2026-04-18T15:09:12Z</time></trkpt><trkpt lat="43.47497004734099" lon="10.605571950098991"><ele>576.2</ele><time>2026-04-18T15:09:14Z</time></trkpt><trkpt lat="43.47493924630461" lon="10.60542648227116"><ele>576.4000000000001</ele><time>2026-04-18T15:09:15.001Z</time></trkpt><trkpt lat="43.47490135836691" lon="10.605255906054532"><ele>576.6</ele><time>2026-04-18T15:09:16.001Z</time></trkpt><trkpt lat="43.474882069056925" lon="10.605129364479906"><ele>576.8000000000001</ele><time>2026-04-18T15:09:17.001Z</time></trkpt><trkpt lat="43.47486463925211" lon="10.604997887059318"><ele>577.0</ele><time>2026-04-18T15:09:18.001Z</time></trkpt><trkpt lat="43.47485089878352" lon="10.604873316134219"><ele>577.0</ele><time>2026-04-18T15:09:19.001Z</time></trkpt><trkpt lat="43.474827363406696" lon="10.60475884492853"><ele>577.0</ele><time>2026-04-18T15:09:20.001Z</time></trkpt><trkpt lat="43.47478519910507" lon="10.604639763001018"><ele>577.0</ele><time>2026-04-18T15:09:22.001Z</time></trkpt><trkpt lat="43.47480055057815" lon="10.604507345325828"><ele>577.0</ele><time>2026-04-18T15:09:24.001Z</time></trkpt><trkpt lat="43.47480864518417" lon="10.60440923646261"><ele>577.0</ele><time>2026-04-18T15:09:25.001Z</time></trkpt><trkpt lat="43.47481804688398" lon="10.604282667120861"><ele>577.0</ele><time>2026-04-18T15:09:26.001Z</time></trkpt><trkpt lat="43.474807713345854" lon="10.604150551712523"><ele>577.2</ele><time>2026-04-18T15:09:27.001Z</time></trkpt><trkpt lat="43.47480695793941" lon="10.604029227943393"><ele>577.4000000000001</ele><time>2026-04-18T15:09:28.001Z</time></trkpt><trkpt lat="43.47481983112005" lon="10.603939466537437"><ele>577.5999999999999</ele><time>2026-04-18T15:09:29.001Z</time></trkpt><trkpt lat="43.47486963153866" lon="10.603756672426558"><ele>577.8</ele><time>2026-04-18T15:09:31.001Z</time></trkpt><trkpt lat="43.47487141206606" lon="10.60364416852007"><ele>578.0</ele><time>2026-04-18T15:09:32.001Z</time></trkpt><trkpt lat="43.47488573930362" lon="10.603513768643808"><ele>578.0</ele><time>2026-04-18T15:09:34.001Z</time></trkpt><trkpt lat="43.474962416591595" lon="10.603439894178978"><ele>578.0</ele><time>2026-04-18T15:09:36.001Z</time></trkpt><trkpt lat="43.47510166763181" lon="10.603412830449022"><ele>578.0</ele><time>2026-04-18T15:09:38.001Z</time></trkpt><trkpt lat="43.47518094969478" lon="10.603397425763811"><ele>578.0</ele><time>2026-04-18T15:09:39.001Z</time></trkpt><trkpt lat="43.475287703585494" lon="10.603399606216653"><ele>578.0</ele><time>2026-04-18T15:09:41.001Z</time></trkpt><trkpt lat="43.47537713519519" lon="10.603402109731263"><ele>577.5</ele><time>2026-04-18T15:09:43.001Z</time></trkpt><trkpt lat="43.47544469568475" lon="10.603375558706196"><ele>577.0</ele><time>2026-04-18T15:09:46.001Z</time></trkpt><trkpt lat="43.47553642061247" lon="10.603352080535585"><ele>576.5</ele><time>2026-04-18T15:09:48.001Z</time></trkpt><trkpt lat="43.47564878615025" lon="10.603348573858199"><ele>576.0</ele><time>2026-04-18T15:09:50.001Z</time></trkpt><trkpt lat="43.475721216957005" lon="10.603352696451914"><ele>575.5</ele><time>2026-04-18T15:09:51.001Z</time></trkpt><trkpt lat="43.475814156039306" lon="10.603353316005489"><ele>575.0</ele><time>2026-04-18T15:09:52.001Z</time></trkpt><trkpt lat="43.475932621697176" lon="10.603382544788218"><ele>575.0</ele><time>2026-04-18T15:09:53.001Z</time></trkpt><trkpt lat="43.476050301604126" lon="10.60346027477308"><ele>575.0</ele><time>2026-04-18T15:09:54.001Z</time></trkpt><trkpt lat="43.47613641857587" lon="10.603541336660419"><ele>575.0</ele><time>2026-04-18T15:09:55.001Z</time></trkpt><trkpt lat="43.47621235677516" lon="10.603633447608745"><ele>575.0</ele><time>2026-04-18T15:09:56.001Z</time></trkpt><trkpt lat="43.47628446730026" lon="10.603720585512525"><ele>575.0</ele><time>2026-04-18T15:09:57.001Z</time></trkpt><trkpt lat="43.47636995942262" lon="10.60380336482947"><ele>573.6</ele><time>2026-04-18T15:09:58.001Z</time></trkpt><trkpt lat="43.47647142380684" lon="10.603854083715904"><ele>572.2</ele><time>2026-04-18T15:09:59.001Z</time></trkpt><trkpt lat="43.47656615890033" lon="10.603881052540896"><ele>570.8</ele><time>2026-04-18T15:10:00.001Z</time></trkpt><trkpt lat="43.47667515111068" lon="10.603879302635551"><ele>569.4</ele><time>2026-04-18T15:10:01.001Z</time></trkpt><trkpt lat="43.476779611869205" lon="10.60384765809715"><ele>568.0</ele><time>2026-04-18T15:10:02.001Z</time></trkpt><trkpt lat="43.47689173128783" lon="10.603797445100746"><ele>568.0</ele><time>2026-04-18T15:10:03.001Z</time></trkpt><trkpt lat="43.47702809984466" lon="10.6037249407782"><ele>568.0</ele><time>2026-04-18T15:10:04.001Z</time></trkpt><trkpt lat="43.47716700770802" lon="10.603657632023593"><ele>568.0</ele><time>2026-04-18T15:10:05.001Z</time></trkpt><trkpt lat="43.47728479188296" lon="10.603635358294135"><ele>568.0</ele><time>2026-04-18T15:10:06.001Z</time></trkpt><trkpt lat="43.477393128626225" lon="10.603617714872387"><ele>566.1999999999999</ele><time>2026-04-18T15:10:07.001Z</time></trkpt><trkpt lat="43.477485198403926" lon="10.603580473224564"><ele>564.4</ele><time>2026-04-18T15:10:08.001Z</time></trkpt><trkpt lat="43.4775575698166" lon="10.603523783313063"><ele>562.5999999999999</ele><time>2026-04-18T15:10:09.001Z</time></trkpt><trkpt lat="43.47763957695852" lon="10.60344302799998"><ele>560.8</ele><time>2026-04-18T15:10:10.001Z</time></trkpt><trkpt lat="43.47773865645958" lon="10.603327024245607"><ele>559.0</ele><time>2026-04-18T15:10:11.001Z</time></trkpt><trkpt lat="43.4778432278733" lon="10.603185464863165"><ele>556.0</ele><time>2026-04-18T15:10:12.001Z</time></trkpt><trkpt lat="43.477945176700466" lon="10.603050645884371"><ele>553.0</ele><time>2026-04-18T15:10:13.001Z</time></trkpt><trkpt lat="43.47802330264225" lon="10.602943310768906"><ele>550.0</ele><time>2026-04-18T15:10:14.001Z</time></trkpt><trkpt lat="43.47809453625983" lon="10.602842421583713"><ele>547.0</ele><time>2026-04-18T15:10:15.001Z</time></trkpt><trkpt lat="43.478152386910836" lon="10.602732282963176"><ele>547.0</ele><time>2026-04-18T15:10:16.001Z</time></trkpt><trkpt lat="43.47821332618278" lon="10.60259400880333"><ele>547.0</ele><time>2026-04-18T15:10:17.001Z</time></trkpt><trkpt lat="43.47823643450173" lon="10.602469886858449"><ele>547.0</ele><time>2026-04-18T15:10:18.001Z</time></trkpt><trkpt lat="43.47826607820022" lon="10.602381069743021"><ele>547.0</ele><time>2026-04-18T15:10:19.001Z</time></trkpt><trkpt lat="43.478357680591856" lon="10.60215529253074"><ele>547.0</ele><time>2026-04-18T15:10:20.001Z</time></trkpt><trkpt lat="43.478445284356795" lon="10.602041090406805"><ele>547.0</ele><time>2026-04-18T15:10:21.001Z</time></trkpt><trkpt lat="43.4785307645504" lon="10.601963276930288"><ele>547.0</ele><time>2026-04-18T15:10:22.001Z</time></trkpt><trkpt lat="43.478614149415" lon="10.601878745418778"><ele>547.0</ele><time>2026-04-18T15:10:23Z</time></trkpt><trkpt lat="43.478693599564" lon="10.601791156753576"><ele>547.0</ele><time>2026-04-18T15:10:24Z</time></trkpt><trkpt lat="43.47877610792471" lon="10.60173126628195"><ele>546.3333333333334</ele><time>2026-04-18T15:10:25Z</time></trkpt><trkpt lat="43.478843490372725" lon="10.601702778689232"><ele>545.6666666666667</ele><time>2026-04-18T15:10:26Z</time></trkpt><trkpt lat="43.47891736839326" lon="10.601705016406438"><ele>545.0</ele><time>2026-04-18T15:10:27Z</time></trkpt><trkpt lat="43.4790171710349" lon="10.601723863793673"><ele>544.3333333333334</ele><time>2026-04-18T15:10:28Z</time></trkpt><trkpt lat="43.479123456640544" lon="10.601756482599143"><ele>543.6666666666666</ele><time>2026-04-18T15:10:29Z</time></trkpt><trkpt lat="43.479212404205946" lon="10.60175904852365"><ele>543.0</ele><time>2026-04-18T15:10:30Z</time></trkpt><trkpt lat="43.47928591618095" lon="10.601720597320845"><ele>543.0</ele><time>2026-04-18T15:10:31Z</time></trkpt><trkpt lat="43.47935382685519" lon="10.601641613784288"><ele>543.0</ele><time>2026-04-18T15:10:32Z</time></trkpt><trkpt lat="43.479433075295624" lon="10.601518914269311"><ele>543.0</ele><time>2026-04-18T15:10:33Z</time></trkpt><trkpt lat="43.47953151443408" lon="10.601379728694978"><ele>543.0</ele><time>2026-04-18T15:10:34Z</time></trkpt><trkpt lat="43.47965631000983" lon="10.601230038814252"><ele>541.1999999999999</ele><time>2026-04-18T15:10:35Z</time></trkpt><trkpt lat="43.47976084456313" lon="10.6011341193846"><ele>539.4</ele><time>2026-04-18T15:10:36Z</time></trkpt><trkpt lat="43.47984501457967" lon="10.601078493776456"><ele>537.5999999999999</ele><time>2026-04-18T15:10:37Z</time></trkpt><trkpt lat="43.47990100931983" lon="10.601008753336508"><ele>535.8</ele><time>2026-04-18T15:10:38Z</time></trkpt><trkpt lat="43.47993599002586" lon="10.600913540243527"><ele>534.0</ele><time>2026-04-18T15:10:39Z</time></trkpt><trkpt lat="43.47995814366099" lon="10.60078276333789"><ele>534.0</ele><time>2026-04-18T15:10:40Z</time></trkpt><trkpt lat="43.479978238440744" lon="10.600607319400462"><ele>534.0</ele><time>2026-04-18T15:10:41Z</time></trkpt><trkpt lat="43.47998876013148" lon="10.600431494989701"><ele>534.0</ele><time>2026-04-18T15:10:42Z</time></trkpt><trkpt lat="43.480004796893226" lon="10.600280917504268"><ele>534.0</ele><time>2026-04-18T15:10:43Z</time></trkpt><trkpt lat="43.48003524868193" lon="10.600157101049584"><ele>533.0</ele><time>2026-04-18T15:10:44Z</time></trkpt><trkpt lat="43.48009298212793" lon="10.600039484000487"><ele>532.0</ele><time>2026-04-18T15:10:45Z</time></trkpt><trkpt lat="43.48018152456922" lon="10.59991734092596"><ele>531.0</ele><time>2026-04-18T15:10:46Z</time></trkpt><trkpt lat="43.4802806918615" lon="10.59981310028119"><ele>530.0</ele><time>2026-04-18T15:10:47Z</time></trkpt><trkpt lat="43.48037975096788" lon="10.599736158621637"><ele>529.2</ele><time>2026-04-18T15:10:48Z</time></trkpt><trkpt lat="43.480479938085146" lon="10.59968373792781"><ele>528.4</ele><time>2026-04-18T15:10:49Z</time></trkpt><trkpt lat="43.480588613864846" lon="10.59963573386804"><ele>527.6</ele><time>2026-04-18T15:10:50Z</time></trkpt><trkpt lat="43.48068645487604" lon="10.599595930362874"><ele>526.8</ele><time>2026-04-18T15:10:51Z</time></trkpt><trkpt lat="43.48076872749967" lon="10.599560899359656"><ele>526.0</ele><time>2026-04-18T15:10:52Z</time></trkpt><trkpt lat="43.480842230473684" lon="10.59952574071233"><ele>525.5</ele><time>2026-04-18T15:10:53Z</time></trkpt><trkpt lat="43.48094297378121" lon="10.599496168192665"><ele>525.0</ele><time>2026-04-18T15:10:55Z</time></trkpt><trkpt lat="43.4810061459538" lon="10.599488759889589"><ele>524.5</ele><time>2026-04-18T15:10:56Z</time></trkpt><trkpt lat="43.48109394164905" lon="10.599470726247967"><ele>524.0</ele><time>2026-04-18T15:10:57Z</time></trkpt><trkpt lat="43.48119268348962" lon="10.599436045822175"><ele>523.5</ele><time>2026-04-18T15:10:58Z</time></trkpt><trkpt lat="43.48128099843642" lon="10.599409385213477"><ele>523.0</ele><time>2026-04-18T15:10:59Z</time></trkpt><trkpt lat="43.48136543941153" lon="10.599379200887443"><ele>520.8</ele><time>2026-04-18T15:11:00Z</time></trkpt><trkpt lat="43.481462305354455" lon="10.59936315713881"><ele>518.5999999999999</ele><time>2026-04-18T15:11:01Z</time></trkpt><trkpt lat="43.481575945698324" lon="10.59935782585138"><ele>516.4000000000001</ele><time>2026-04-18T15:11:02Z</time></trkpt><trkpt lat="43.481701052932614" lon="10.599361046273197"><ele>514.2</ele><time>2026-04-18T15:11:03Z</time></trkpt><trkpt lat="43.481801638912394" lon="10.599370325890678"><ele>512.0</ele><time>2026-04-18T15:11:04Z</time></trkpt><trkpt lat="43.48192658104641" lon="10.599377722165652"><ele>512.0</ele><time>2026-04-18T15:11:05Z</time></trkpt><trkpt lat="43.482052737490775" lon="10.599358953308068"><ele>512.0</ele><time>2026-04-18T15:11:06Z</time></trkpt><trkpt lat="43.48216739897975" lon="10.599356790353474"><ele>512.0</ele><time>2026-04-18T15:11:07Z</time></trkpt><trkpt lat="43.48228209364466" lon="10.599373970761052"><ele>512.0</ele><time>2026-04-18T15:11:08Z</time></trkpt><trkpt lat="43.482384245649214" lon="10.599411612482573"><ele>508.8</ele><time>2026-04-18T15:11:09Z</time></trkpt><trkpt lat="43.48247807792294" lon="10.599458604386374"><ele>505.6</ele><time>2026-04-18T15:11:10Z</time></trkpt><trkpt lat="43.482577125583" lon="10.599521202912387"><ele>502.40000000000003</ele><time>2026-04-18T15:11:11Z</time></trkpt><trkpt lat="43.4826803138694" lon="10.599587027552763"><ele>499.20000000000005</ele><time>2026-04-18T15:11:12Z</time></trkpt><trkpt lat="43.48278626703125" lon="10.599655802997754"><ele>496.0</ele><time>2026-04-18T15:11:13Z</time></trkpt><trkpt lat="43.48290755041232" lon="10.599727835415116"><ele>496.25</ele><time>2026-04-18T15:11:14Z</time></trkpt><trkpt lat="43.48303512665937" lon="10.599806388608497"><ele>496.5</ele><time>2026-04-18T15:11:15Z</time></trkpt><trkpt lat="43.48315362823851" lon="10.599874288533542"><ele>496.75</ele><time>2026-04-18T15:11:16Z</time></trkpt><trkpt lat="43.48326938779275" lon="10.599933356706535"><ele>497.0</ele><time>2026-04-18T15:11:17Z</time></trkpt><trkpt lat="43.483393278812" lon="10.599993898017837"><ele>497.0</ele><time>2026-04-18T15:11:18Z</time></trkpt><trkpt lat="43.48351851695265" lon="10.600047276977378"><ele>497.0</ele><time>2026-04-18T15:11:19Z</time></trkpt><trkpt lat="43.48364031405053" lon="10.600095629698021"><ele>497.0</ele><time>2026-04-18T15:11:20Z</time></trkpt><trkpt lat="43.48375320994004" lon="10.60012150706705"><ele>497.0</ele><time>2026-04-18T15:11:21Z</time></trkpt><trkpt lat="43.48387548705062" lon="10.600139240259928"><ele>498.5</ele><time>2026-04-18T15:11:22Z</time></trkpt><trkpt lat="43.48400755174648" lon="10.600137926326424"><ele>500.0</ele><time>2026-04-18T15:11:23Z</time></trkpt><trkpt lat="43.48414288497767" lon="10.600126953081915"><ele>501.5</ele><time>2026-04-18T15:11:24Z</time></trkpt><trkpt lat="43.484291554645814" lon="10.600108607771965"><ele>503.0</ele><time>2026-04-18T15:11:25Z</time></trkpt><trkpt lat="43.484477111968694" lon="10.600083712193449"><ele>503.66666666666663</ele><time>2026-04-18T15:11:26Z</time></trkpt><trkpt lat="43.48468953959258" lon="10.600062326410937"><ele>504.33333333333337</ele><time>2026-04-18T15:11:27Z</time></trkpt><trkpt lat="43.484889982113735" lon="10.600040226355196"><ele>505.0</ele><time>2026-04-18T15:11:28Z</time></trkpt><trkpt lat="43.48503029621046" lon="10.600015191682838"><ele>505.0</ele><time>2026-04-18T15:11:29Z</time></trkpt><trkpt lat="43.48514852657903" lon="10.599985644372119"><ele>505.0</ele><time>2026-04-18T15:11:30Z</time></trkpt><trkpt lat="43.48525519368888" lon="10.599935776620214"><ele>505.0</ele><time>2026-04-18T15:11:31Z</time></trkpt><trkpt lat="43.48535043417049" lon="10.599890946710673"><ele>505.0</ele><time>2026-04-18T15:11:32Z</time></trkpt><trkpt lat="43.48545863399792" lon="10.599847564945126"><ele>505.0</ele><time>2026-04-18T15:11:33Z</time></trkpt><trkpt lat="43.48554521294101" lon="10.59980104153455"><ele>505.4</ele><time>2026-04-18T15:11:34Z</time></trkpt><trkpt lat="43.48563378826028" lon="10.599750779745705"><ele>505.8</ele><time>2026-04-18T15:11:35Z</time></trkpt><trkpt lat="43.485712732715925" lon="10.599705023204"><ele>506.20000000000005</ele><time>2026-04-18T15:11:36Z</time></trkpt><trkpt lat="43.48580869870203" lon="10.59966813171138"><ele>506.6</ele><time>2026-04-18T15:11:37Z</time></trkpt><trkpt lat="43.48592147594988" lon="10.599649182373412"><ele>507.0</ele><time>2026-04-18T15:11:38Z</time></trkpt><trkpt lat="43.48607101465958" lon="10.599649303195688"><ele>507.0</ele><time>2026-04-18T15:11:39Z</time></trkpt><trkpt lat="43.48622802675909" lon="10.59966820347984"><ele>507.0</ele><time>2026-04-18T15:11:40.001Z</time></trkpt><trkpt lat="43.486392557769115" lon="10.599640160301323"><ele>507.0</ele><time>2026-04-18T15:11:41.001Z</time></trkpt><trkpt lat="43.486552232105666" lon="10.599636681688162"><ele>505.75</ele><time>2026-04-18T15:11:42.001Z</time></trkpt><trkpt lat="43.48672088203491" lon="10.599611009279116"><ele>504.5</ele><time>2026-04-18T15:11:43.001Z</time></trkpt><trkpt lat="43.4867815741939" lon="10.599740123056204"><ele>503.25</ele><time>2026-04-18T15:11:44.001Z</time></trkpt><trkpt lat="43.48688736856087" lon="10.599740213313153"><ele>502.0</ele><time>2026-04-18T15:11:45.001Z</time></trkpt><trkpt lat="43.48698686936706" lon="10.599675063975665"><ele>502.0</ele><time>2026-04-18T15:11:46.001Z</time></trkpt><trkpt lat="43.48708436726955" lon="10.599598876983055"><ele>502.0</ele><time>2026-04-18T15:11:47.001Z</time></trkpt><trkpt lat="43.4871813350863" lon="10.599488594608639"><ele>502.0</ele><time>2026-04-18T15:11:48.001Z</time></trkpt><trkpt lat="43.487284630444854" lon="10.59934456131794"><ele>502.0</ele><time>2026-04-18T15:11:49.001Z</time></trkpt><trkpt lat="43.487402114852834" lon="10.599179229517375"><ele>500.0</ele><time>2026-04-18T15:11:50.001Z</time></trkpt><trkpt lat="43.48748786927952" lon="10.599041262561629"><ele>498.0</ele><time>2026-04-18T15:11:51.001Z</time></trkpt><trkpt lat="43.487565000295824" lon="10.598931333975056"><ele>496.0</ele><time>2026-04-18T15:11:52.001Z</time></trkpt><trkpt lat="43.48763061092044" lon="10.598830370225755"><ele>494.0</ele><time>2026-04-18T15:11:53.001Z</time></trkpt><trkpt lat="43.48769642631871" lon="10.598700939894883"><ele>493.25</ele><time>2026-04-18T15:11:54.001Z</time></trkpt><trkpt lat="43.48776110701296" lon="10.5985397682924"><ele>492.5</ele><time>2026-04-18T15:11:55.001Z</time></trkpt><trkpt lat="43.48781661270642" lon="10.598374451447622"><ele>491.75</ele><time>2026-04-18T15:11:56.001Z</time></trkpt><trkpt lat="43.48786393603421" lon="10.598223525324862"><ele>491.0</ele><time>2026-04-18T15:11:57.001Z</time></trkpt><trkpt lat="43.487916424118325" lon="10.598108343957465"><ele>491.5</ele><time>2026-04-18T15:11:58.001Z</time></trkpt><trkpt lat="43.487985892464074" lon="10.597969243585363"><ele>492.0</ele><time>2026-04-18T15:11:59.001Z</time></trkpt><trkpt lat="43.48807123864943" lon="10.597841746960764"><ele>492.5</ele><time>2026-04-18T15:12:00.001Z</time></trkpt><trkpt lat="43.488166007810705" lon="10.597722658093025"><ele>493.0</ele><time>2026-04-18T15:12:01.001Z</time></trkpt><trkpt lat="43.48826676562603" lon="10.597603306099137"><ele>493.4</ele><time>2026-04-18T15:12:02.001Z</time></trkpt><trkpt lat="43.48834270169263" lon="10.597504237093988"><ele>493.79999999999995</ele><time>2026-04-18T15:12:03.001Z</time></trkpt><trkpt lat="43.48840242289995" lon="10.597405550430308"><ele>494.2</ele><time>2026-04-18T15:12:04.001Z</time></trkpt><trkpt lat="43.48845250132188" lon="10.597296886272742"><ele>494.6</ele><time>2026-04-18T15:12:05.001Z</time></trkpt><trkpt lat="43.48849622280527" lon="10.5971538799249"><ele>495.0</ele><time>2026-04-18T15:12:06.001Z</time></trkpt><trkpt lat="43.488558495425224" lon="10.596990338190853"><ele>494.25</ele><time>2026-04-18T15:12:07.001Z</time></trkpt><trkpt lat="43.48862830143481" lon="10.596830943614753"><ele>493.5</ele><time>2026-04-18T15:12:08.001Z</time></trkpt><trkpt lat="43.48870903801147" lon="10.596673993662364"><ele>492.75</ele><time>2026-04-18T15:12:09.001Z</time></trkpt><trkpt lat="43.48877584482733" lon="10.59656725388577"><ele>492.0</ele><time>2026-04-18T15:12:10.001Z</time></trkpt><trkpt lat="43.48884021189404" lon="10.596464800006384"><ele>492.0</ele><time>2026-04-18T15:12:11.001Z</time></trkpt><trkpt lat="43.48891854852229" lon="10.596409125990101"><ele>492.00000000000006</ele><time>2026-04-18T15:12:12.001Z</time></trkpt><trkpt lat="43.489003554229946" lon="10.596365840676881"><ele>492.00000000000006</ele><time>2026-04-18T15:12:13.001Z</time></trkpt><trkpt lat="43.48909324407827" lon="10.596368478879524"><ele>492.0</ele><time>2026-04-18T15:12:14.001Z</time></trkpt><trkpt lat="43.48917921480154" lon="10.596393170829069"><ele>492.0</ele><time>2026-04-18T15:12:15.001Z</time></trkpt><trkpt lat="43.489278664352966" lon="10.596438898024855"><ele>492.0</ele><time>2026-04-18T15:12:16.001Z</time></trkpt><trkpt lat="43.4893869533655" lon="10.596503743853475"><ele>492.0</ele><time>2026-04-18T15:12:17.001Z</time></trkpt><trkpt lat="43.48950832225372" lon="10.596542796603835"><ele>492.0</ele><time>2026-04-18T15:12:18.001Z</time></trkpt><trkpt lat="43.489636124906404" lon="10.596563772475232"><ele>492.0</ele><time>2026-04-18T15:12:19.001Z</time></trkpt><trkpt lat="43.48975851957943" lon="10.596586762321955"><ele>492.0</ele><time>2026-04-18T15:12:20.001Z</time></trkpt><trkpt lat="43.489857654997074" lon="10.596595979598648"><ele>492.00000000000006</ele><time>2026-04-18T15:12:21.001Z</time></trkpt><trkpt lat="43.48996345747088" lon="10.596590131209402"><ele>492.00000000000006</ele><time>2026-04-18T15:12:22.001Z</time></trkpt><trkpt lat="43.49007288237794" lon="10.596532345764826"><ele>492.0</ele><time>2026-04-18T15:12:23.001Z</time></trkpt><trkpt lat="43.490187462660955" lon="10.596472980956325"><ele>492.0</ele><time>2026-04-18T15:12:24.001Z</time></trkpt><trkpt lat="43.49028192023004" lon="10.59639381011739"><ele>492.0</ele><time>2026-04-18T15:12:25.001Z</time></trkpt><trkpt lat="43.4903729178378" lon="10.596336837059068"><ele>492.00000000000006</ele><time>2026-04-18T15:12:26.001Z</time></trkpt><trkpt lat="43.49045699638664" lon="10.596322725211309"><ele>492.00000000000006</ele><time>2026-04-18T15:12:27.001Z</time></trkpt><trkpt lat="43.49054368830736" lon="10.596325037704602"><ele>492.0</ele><time>2026-04-18T15:12:28.001Z</time></trkpt><trkpt lat="43.490645908279134" lon="10.596339657474388"><ele>492.0</ele><time>2026-04-18T15:12:29Z</time></trkpt><trkpt lat="43.49076398493465" lon="10.596355279832876"><ele>491.5</ele><time>2026-04-18T15:12:30Z</time></trkpt><trkpt lat="43.490911910235305" lon="10.596370692737187"><ele>491.0</ele><time>2026-04-18T15:12:31Z</time></trkpt><trkpt lat="43.49104617341886" lon="10.596371454146936"><ele>490.5</ele><time>2026-04-18T15:12:32Z</time></trkpt><trkpt lat="43.49114870670397" lon="10.596375297155197"><ele>490.0</ele><time>2026-04-18T15:12:33Z</time></trkpt><trkpt lat="43.49124334778549" lon="10.596383676876963"><ele>489.0</ele><time>2026-04-18T15:12:34Z</time></trkpt><trkpt lat="43.49134496848914" lon="10.596404689040899"><ele>488.0</ele><time>2026-04-18T15:12:35Z</time></trkpt><trkpt lat="43.49145941780456" lon="10.596471745311439"><ele>487.0</ele><time>2026-04-18T15:12:36Z</time></trkpt><trkpt lat="43.491579787751455" lon="10.596563602422425"><ele>486.0</ele><time>2026-04-18T15:12:37Z</time></trkpt><trkpt lat="43.49170463614117" lon="10.59666081792436"><ele>486.0</ele><time>2026-04-18T15:12:38Z</time></trkpt><trkpt lat="43.49181009421299" lon="10.596738122693548"><ele>486.0</ele><time>2026-04-18T15:12:39Z</time></trkpt><trkpt lat="43.49188097163729" lon="10.596783571740454"><ele>486.0</ele><time>2026-04-18T15:12:40Z</time></trkpt><trkpt lat="43.49195295569386" lon="10.596827287310063"><ele>486.0</ele><time>2026-04-18T15:12:42Z</time></trkpt><trkpt lat="43.491887432879714" lon="10.596910574669494"><ele>486.0</ele><time>2026-04-18T15:12:53Z</time></trkpt><trkpt lat="43.49188565609974" lon="10.597079192221805"><ele>485.25</ele><time>2026-04-18T15:12:55Z</time></trkpt><trkpt lat="43.491911903950516" lon="10.597191907066213"><ele>484.5</ele><time>2026-04-18T15:12:56Z</time></trkpt><trkpt lat="43.49194719545876" lon="10.597362855094778"><ele>483.75</ele><time>2026-04-18T15:12:57Z</time></trkpt><trkpt lat="43.49198441966069" lon="10.597544065678871"><ele>483.0</ele><time>2026-04-18T15:12:58Z</time></trkpt><trkpt lat="43.492010633848274" lon="10.597724744038283"><ele>480.75</ele><time>2026-04-18T15:12:59Z</time></trkpt><trkpt lat="43.49202694399213" lon="10.597905812984488"><ele>478.5</ele><time>2026-04-18T15:13:00Z</time></trkpt><trkpt lat="43.49205221037746" lon="10.598075131151058"><ele>476.25</ele><time>2026-04-18T15:13:01Z</time></trkpt><trkpt lat="43.492071636724575" lon="10.59819947581146"><ele>474.0</ele><time>2026-04-18T15:13:02Z</time></trkpt><trkpt lat="43.49206577081602" lon="10.598358806163688"><ele>474.0</ele><time>2026-04-18T15:13:04Z</time></trkpt><trkpt lat="43.49204627733151" lon="10.598487253842572"><ele>474.0</ele><time>2026-04-18T15:13:05Z</time></trkpt><trkpt lat="43.49201769843425" lon="10.598645518143929"><ele>474.0</ele><time>2026-04-18T15:13:06Z</time></trkpt><trkpt lat="43.49199725532124" lon="10.598782778044612"><ele>474.0</ele><time>2026-04-18T15:13:07Z</time></trkpt><trkpt lat="43.491978706561994" lon="10.598916318786314"><ele>474.0</ele><time>2026-04-18T15:13:08Z</time></trkpt><trkpt lat="43.4919772642021" lon="10.599086950260405"><ele>472.5</ele><time>2026-04-18T15:13:09Z</time></trkpt><trkpt lat="43.49198735879312" lon="10.599284504535246"><ele>471.0</ele><time>2026-04-18T15:13:10Z</time></trkpt><trkpt lat="43.49199512552378" lon="10.599460477440385"><ele>469.5</ele><time>2026-04-18T15:13:11Z</time></trkpt><trkpt lat="43.49198737051318" lon="10.599603864695752"><ele>468.0</ele><time>2026-04-18T15:13:12Z</time></trkpt><trkpt lat="43.49199061021065" lon="10.59970604734076"><ele>467.79999999999995</ele><time>2026-04-18T15:13:13Z</time></trkpt><trkpt lat="43.49202189934568" lon="10.599797087171906"><ele>467.59999999999997</ele><time>2026-04-18T15:13:14Z</time></trkpt><trkpt lat="43.49207125514657" lon="10.599883602031024"><ele>467.40000000000003</ele><time>2026-04-18T15:13:15Z</time></trkpt><trkpt lat="43.49212519595113" lon="10.599960964270968"><ele>467.20000000000005</ele><time>2026-04-18T15:13:16Z</time></trkpt><trkpt lat="43.492226409247415" lon="10.600015835531106"><ele>467.0</ele><time>2026-04-18T15:13:17Z</time></trkpt><trkpt lat="43.49234236295671" lon="10.600092250221882"><ele>466.99999999999994</ele><time>2026-04-18T15:13:18Z</time></trkpt><trkpt lat="43.4924200592442" lon="10.600173479059055"><ele>467.0</ele><time>2026-04-18T15:13:19Z</time></trkpt><trkpt lat="43.49246347994455" lon="10.60026171345474"><ele>467.0</ele><time>2026-04-18T15:13:20Z</time></trkpt><trkpt lat="43.4924763266734" lon="10.60035654521259"><ele>467.0</ele><time>2026-04-18T15:13:21Z</time></trkpt><trkpt lat="43.49249791517953" lon="10.60048375130076"><ele>466.99999999999994</ele><time>2026-04-18T15:13:22Z</time></trkpt><trkpt lat="43.49253595059459" lon="10.600623519494388"><ele>467.0</ele><time>2026-04-18T15:13:23Z</time></trkpt><trkpt lat="43.49259711025771" lon="10.60076395029464"><ele>466.75</ele><time>2026-04-18T15:13:24Z</time></trkpt><trkpt lat="43.49268297191627" lon="10.600881503430854"><ele>466.5</ele><time>2026-04-18T15:13:25Z</time></trkpt><trkpt lat="43.492784643210044" lon="10.601003082299318"><ele>466.25</ele><time>2026-04-18T15:13:26Z</time></trkpt><trkpt lat="43.49286505868374" lon="10.601098455151133"><ele>466.0</ele><time>2026-04-18T15:13:27Z</time></trkpt><trkpt lat="43.49297655590751" lon="10.601208603440359"><ele>466.0</ele><time>2026-04-18T15:13:29Z</time></trkpt><trkpt lat="43.49308759778874" lon="10.601283014274216"><ele>466.0</ele><time>2026-04-18T15:13:30Z</time></trkpt><trkpt lat="43.49320520419923" lon="10.601346184874895"><ele>466.0</ele><time>2026-04-18T15:13:31Z</time></trkpt><trkpt lat="43.49329620928877" lon="10.601415938498022"><ele>466.0</ele><time>2026-04-18T15:13:32Z</time></trkpt><trkpt lat="43.493364868410715" lon="10.601500131718907"><ele>466.0</ele><time>2026-04-18T15:13:33Z</time></trkpt><trkpt lat="43.49343796445008" lon="10.60160020716749"><ele>466.0</ele><time>2026-04-18T15:13:34Z</time></trkpt><trkpt lat="43.49353968832935" lon="10.60172257519561"><ele>466.0</ele><time>2026-04-18T15:13:35.001Z</time></trkpt><trkpt lat="43.49362552106463" lon="10.60183401174669"><ele>466.0</ele><time>2026-04-18T15:13:36.001Z</time></trkpt><trkpt lat="43.49368763003795" lon="10.601942091762167"><ele>466.0</ele><time>2026-04-18T15:13:37.001Z</time></trkpt><trkpt lat="43.49372871151195" lon="10.602056721893648"><ele>466.0</ele><time>2026-04-18T15:13:38.001Z</time></trkpt><trkpt lat="43.49375825350481" lon="10.602145725117905"><ele>466.83333333333337</ele><time>2026-04-18T15:13:39.001Z</time></trkpt><trkpt lat="43.4937740135874" lon="10.602254080930345"><ele>467.6666666666667</ele><time>2026-04-18T15:13:43.001Z</time></trkpt><trkpt lat="43.49380121701307" lon="10.602382909776976"><ele>468.5</ele><time>2026-04-18T15:13:46.001Z</time></trkpt><trkpt lat="43.49381056628372" lon="10.602473989032644"><ele>469.33333333333337</ele><time>2026-04-18T15:13:50.001Z</time></trkpt><trkpt lat="43.49379587723672" lon="10.602571177398021"><ele>470.1666666666667</ele><time>2026-04-18T15:13:52.001Z</time></trkpt><trkpt lat="43.49385252125885" lon="10.602526192069176"><ele>471.0</ele><time>2026-04-18T15:13:57.001Z</time></trkpt><trkpt lat="43.49383068667048" lon="10.602355913061185"><ele>471.0</ele><time>2026-04-18T15:13:59.001Z</time></trkpt><trkpt lat="43.49378740698325" lon="10.602250362716319"><ele>471.0</ele><time>2026-04-18T15:14:00.001Z</time></trkpt><trkpt lat="43.493757319645574" lon="10.602136559776195"><ele>471.0</ele><time>2026-04-18T15:14:01.001Z</time></trkpt><trkpt lat="43.49371314048587" lon="10.602020320684233"><ele>471.0</ele><time>2026-04-18T15:14:03.001Z</time></trkpt><trkpt lat="43.49368598715666" lon="10.601937867137298"><ele>471.0</ele><time>2026-04-18T15:14:05.001Z</time></trkpt><trkpt lat="43.49361542619663" lon="10.601780325456572"><ele>470.0</ele><time>2026-04-18T15:14:07.001Z</time></trkpt><trkpt lat="43.493536529271125" lon="10.601670860638226"><ele>469.0</ele><time>2026-04-18T15:14:08.001Z</time></trkpt><trkpt lat="43.493444167812356" lon="10.6015636472473"><ele>468.0</ele><time>2026-04-18T15:14:09.001Z</time></trkpt><trkpt lat="43.49337478270668" lon="10.601484605818737"><ele>467.0</ele><time>2026-04-18T15:14:10.001Z</time></trkpt><trkpt lat="43.493309661732866" lon="10.601395536106649"><ele>466.0</ele><time>2026-04-18T15:14:11.001Z</time></trkpt><trkpt lat="43.49323972888571" lon="10.601329373365472"><ele>466.0</ele><time>2026-04-18T15:14:12.001Z</time></trkpt><trkpt lat="43.49316820460021" lon="10.601291837753141"><ele>466.0</ele><time>2026-04-18T15:14:13.001Z</time></trkpt><trkpt lat="43.49309324561593" lon="10.601242196379015"><ele>466.0</ele><time>2026-04-18T15:14:14.001Z</time></trkpt><trkpt lat="43.49298356309985" lon="10.60117224337262"><ele>466.0</ele><time>2026-04-18T15:14:15.001Z</time></trkpt><trkpt lat="43.492890472328384" lon="10.601110706058556"><ele>466.0</ele><time>2026-04-18T15:14:16.001Z</time></trkpt><trkpt lat="43.49281930795345" lon="10.601056195305851"><ele>465.4</ele><time>2026-04-18T15:14:17.001Z</time></trkpt><trkpt lat="43.49275858542811" lon="10.600986624441948"><ele>464.8</ele><time>2026-04-18T15:14:18.001Z</time></trkpt><trkpt lat="43.492699855104625" lon="10.600892318997452"><ele>464.19999999999993</ele><time>2026-04-18T15:14:19.001Z</time></trkpt><trkpt lat="43.492624598182076" lon="10.600789557340093"><ele>463.59999999999997</ele><time>2026-04-18T15:14:20.001Z</time></trkpt><trkpt lat="43.492523415292915" lon="10.600649715806494"><ele>463.0</ele><time>2026-04-18T15:14:22.001Z</time></trkpt><trkpt lat="43.49245435764564" lon="10.600569681135354"><ele>463.0</ele><time>2026-04-18T15:14:25.001Z</time></trkpt><trkpt lat="43.49240880670206" lon="10.600468820919772"><ele>462.99999999999994</ele><time>2026-04-18T15:14:28.001Z</time></trkpt><trkpt lat="43.49246852578668" lon="10.600412217590149"><ele>462.99999999999994</ele><time>2026-04-18T15:14:32.001Z</time></trkpt><trkpt lat="43.49244530763903" lon="10.600547203787631"><ele>463.0</ele><time>2026-04-18T15:14:59.999Z</time></trkpt><trkpt lat="43.49253697991048" lon="10.600673761870805"><ele>463.0</ele><time>2026-04-18T15:15:00.999Z</time></trkpt><trkpt lat="43.49263230809196" lon="10.600790805076896"><ele>463.0</ele><time>2026-04-18T15:15:01.999Z</time></trkpt><trkpt lat="43.492730120266856" lon="10.600915841018326"><ele>462.99999999999994</ele><time>2026-04-18T15:15:02.999Z</time></trkpt><trkpt lat="43.49280633396773" lon="10.601012643579326"><ele>462.99999999999994</ele><time>2026-04-18T15:15:03.999Z</time></trkpt><trkpt lat="43.49286767363717" lon="10.601094332787193"><ele>463.0</ele><time>2026-04-18T15:15:04.999Z</time></trkpt><trkpt lat="43.49294471439919" lon="10.601174304565347"><ele>463.0</ele><time>2026-04-18T15:15:05.999Z</time></trkpt><trkpt lat="43.49304257959616" lon="10.60124184806825"><ele>463.59999999999997</ele><time>2026-04-18T15:15:06.999Z</time></trkpt><trkpt lat="43.493158196798525" lon="10.601306058877102"><ele>464.19999999999993</ele><time>2026-04-18T15:15:07.999Z</time></trkpt><trkpt lat="43.49324510009389" lon="10.60136273013425"><ele>464.8</ele><time>2026-04-18T15:15:08.999Z</time></trkpt><trkpt lat="43.493309231614894" lon="10.601430146719887"><ele>465.4</ele><time>2026-04-18T15:15:09.999Z</time></trkpt><trkpt lat="43.493414008008145" lon="10.601543731309908"><ele>466.0</ele><time>2026-04-18T15:15:10.999Z</time></trkpt><trkpt lat="43.49351176614252" lon="10.601671708902497"><ele>466.0</ele><time>2026-04-18T15:15:11.999Z</time></trkpt><trkpt lat="43.493605632846034" lon="10.601777021805601"><ele>466.0</ele><time>2026-04-18T15:15:12.999Z</time></trkpt><trkpt lat="43.4936596299019" lon="10.60187334156357"><ele>466.0</ele><time>2026-04-18T15:15:13.999Z</time></trkpt><trkpt lat="43.493706919768556" lon="10.601980960384681"><ele>466.0</ele><time>2026-04-18T15:15:14.999Z</time></trkpt><trkpt lat="43.49374915899544" lon="10.602125568232124"><ele>466.0</ele><time>2026-04-18T15:15:15.999Z</time></trkpt><trkpt lat="43.493784907796325" lon="10.60229562480872"><ele>466.6</ele><time>2026-04-18T15:15:16.999Z</time></trkpt><trkpt lat="43.49381097615355" lon="10.602473226887724"><ele>467.20000000000005</ele><time>2026-04-18T15:15:17.999Z</time></trkpt><trkpt lat="43.49383281306916" lon="10.602620148198982"><ele>467.79999999999995</ele><time>2026-04-18T15:15:18.999Z</time></trkpt><trkpt lat="43.493854539620195" lon="10.602751834987123"><ele>468.4</ele><time>2026-04-18T15:15:20Z</time></trkpt><trkpt lat="43.493870051744985" lon="10.602866173917873"><ele>469.0</ele><time>2026-04-18T15:15:21Z</time></trkpt><trkpt lat="43.493896245149415" lon="10.602959830680865"><ele>469.0</ele><time>2026-04-18T15:15:22Z</time></trkpt><trkpt lat="43.49392917364611" lon="10.603063903251526"><ele>469.0</ele><time>2026-04-18T15:15:23Z</time></trkpt><trkpt lat="43.49397217611962" lon="10.603152267804647"><ele>469.0</ele><time>2026-04-18T15:15:24Z</time></trkpt><trkpt lat="43.49403744805728" lon="10.603260661148024"><ele>469.0</ele><time>2026-04-18T15:15:25Z</time></trkpt><trkpt lat="43.494118085059114" lon="10.603395645201719"><ele>469.0</ele><time>2026-04-18T15:15:26Z</time></trkpt><trkpt lat="43.49418273933655" lon="10.603536553034408"><ele>469.0</ele><time>2026-04-18T15:15:27Z</time></trkpt><trkpt lat="43.494250509157496" lon="10.603648569803735"><ele>469.0</ele><time>2026-04-18T15:15:28Z</time></trkpt><trkpt lat="43.494316122216205" lon="10.603745446735257"><ele>469.0</ele><time>2026-04-18T15:15:29Z</time></trkpt><trkpt lat="43.49436150643502" lon="10.603816276858591"><ele>469.0</ele><time>2026-04-18T15:15:30Z</time></trkpt><trkpt lat="43.49444978562655" lon="10.603958437062914"><ele>469.0</ele><time>2026-04-18T15:15:32Z</time></trkpt><trkpt lat="43.49452481654548" lon="10.60402101006068"><ele>469.0</ele><time>2026-04-18T15:15:33Z</time></trkpt><trkpt lat="43.49459704849126" lon="10.604068527503847"><ele>469.0</ele><time>2026-04-18T15:15:34Z</time></trkpt><trkpt lat="43.494671201623056" lon="10.604121602826382"><ele>469.0</ele><time>2026-04-18T15:15:35Z</time></trkpt><trkpt lat="43.494755922800614" lon="10.604181656946123"><ele>469.0</ele><time>2026-04-18T15:15:37Z</time></trkpt><trkpt lat="43.49489067798242" lon="10.60421589196494"><ele>469.0</ele><time>2026-04-18T15:15:39Z</time></trkpt><trkpt lat="43.4949672504782" lon="10.60425219696015"><ele>469.00000000000006</ele><time>2026-04-18T15:15:40Z</time></trkpt><trkpt lat="43.49502612639842" lon="10.604286763663517"><ele>469.0</ele><time>2026-04-18T15:15:41Z</time></trkpt><trkpt lat="43.49508281186491" lon="10.604345557249502"><ele>469.0</ele><time>2026-04-18T15:15:44Z</time></trkpt><trkpt lat="43.495147571789694" lon="10.604428309320525"><ele>469.0</ele><time>2026-04-18T15:15:47Z</time></trkpt><trkpt lat="43.49520709176368" lon="10.604533187336582"><ele>469.00000000000006</ele><time>2026-04-18T15:15:49Z</time></trkpt><trkpt lat="43.49525566383216" lon="10.60460323263405"><ele>469.0</ele><time>2026-04-18T15:15:50Z</time></trkpt><trkpt lat="43.495312986329786" lon="10.604669249004607"><ele>467.79999999999995</ele><time>2026-04-18T15:15:51Z</time></trkpt><trkpt lat="43.49537902124582" lon="10.604745092165437"><ele>466.59999999999997</ele><time>2026-04-18T15:15:52Z</time></trkpt><trkpt lat="43.495425060203445" lon="10.60481190981599"><ele>465.4</ele><time>2026-04-18T15:15:53Z</time></trkpt><trkpt lat="43.495447136046664" lon="10.604972464269197"><ele>464.2</ele><time>2026-04-18T15:15:55Z</time></trkpt><trkpt lat="43.49544746040423" lon="10.605101316879608"><ele>463.0</ele><time>2026-04-18T15:15:56Z</time></trkpt><trkpt lat="43.49546054386611" lon="10.605253640867241"><ele>463.4</ele><time>2026-04-18T15:15:57Z</time></trkpt><trkpt lat="43.49547163243054" lon="10.605385598163002"><ele>463.79999999999995</ele><time>2026-04-18T15:15:58Z</time></trkpt><trkpt lat="43.49549345444514" lon="10.605494053972555"><ele>464.2</ele><time>2026-04-18T15:15:59Z</time></trkpt><trkpt lat="43.49553285716503" lon="10.605615547371405"><ele>464.6</ele><time>2026-04-18T15:16:00Z</time></trkpt><trkpt lat="43.495577854331884" lon="10.605745879175439"><ele>465.0</ele><time>2026-04-18T15:16:01Z</time></trkpt><trkpt lat="43.49562250467104" lon="10.605857980637559"><ele>465.0</ele><time>2026-04-18T15:16:02Z</time></trkpt><trkpt lat="43.495684007304035" lon="10.605967524349262"><ele>465.0</ele><time>2026-04-18T15:16:03Z</time></trkpt><trkpt lat="43.4957333372452" lon="10.606083705261051"><ele>465.0</ele><time>2026-04-18T15:16:04Z</time></trkpt><trkpt lat="43.495766130770605" lon="10.606215773680303"><ele>465.0</ele><time>2026-04-18T15:16:05Z</time></trkpt><trkpt lat="43.495771207395734" lon="10.6063397255898"><ele>465.0</ele><time>2026-04-18T15:16:06Z</time></trkpt><trkpt lat="43.495777580606784" lon="10.606437178495236"><ele>465.6</ele><time>2026-04-18T15:16:07Z</time></trkpt><trkpt lat="43.49577776017548" lon="10.606537353464423"><ele>466.2</ele><time>2026-04-18T15:16:08Z</time></trkpt><trkpt lat="43.49573781431938" lon="10.606689325738335"><ele>466.79999999999995</ele><time>2026-04-18T15:16:10Z</time></trkpt><trkpt lat="43.49573311442622" lon="10.60678065526249"><ele>467.4</ele><time>2026-04-18T15:16:12Z</time></trkpt><trkpt lat="43.49581826964385" lon="10.606822942162504"><ele>468.0</ele><time>2026-04-18T15:16:20Z</time></trkpt><trkpt lat="43.495957489614" lon="10.606815982390893"><ele>468.0</ele><time>2026-04-18T15:16:22Z</time></trkpt><trkpt lat="43.49603830109626" lon="10.606809034337108"><ele>468.0</ele><time>2026-04-18T15:16:23Z</time></trkpt><trkpt lat="43.496125872268486" lon="10.606809426027777"><ele>468.0</ele><time>2026-04-18T15:16:24Z</time></trkpt><trkpt lat="43.496205257516365" lon="10.60682269946626"><ele>468.0</ele><time>2026-04-18T15:16:25Z</time></trkpt><trkpt lat="43.496304680637834" lon="10.606843904466794"><ele>468.0</ele><time>2026-04-18T15:16:27Z</time></trkpt><trkpt lat="43.49639347252055" lon="10.606894476537411"><ele>468.0</ele><time>2026-04-18T15:16:29Z</time></trkpt><trkpt lat="43.4964207445003" lon="10.607000234601559"><ele>467.79999999999995</ele><time>2026-04-18T15:16:31Z</time></trkpt><trkpt lat="43.49641877215671" lon="10.607189873468569"><ele>467.59999999999997</ele><time>2026-04-18T15:16:33Z</time></trkpt><trkpt lat="43.496394457184614" lon="10.607333988042942"><ele>467.40000000000003</ele><time>2026-04-18T15:16:35Z</time></trkpt><trkpt lat="43.49638249173972" lon="10.607421568997296"><ele>467.20000000000005</ele><time>2026-04-18T15:16:36Z</time></trkpt><trkpt lat="43.496366846812315" lon="10.607559559413419"><ele>467.0</ele><time>2026-04-18T15:16:38Z</time></trkpt><trkpt lat="43.49637899829417" lon="10.60773821647852"><ele>466.99999999999994</ele><time>2026-04-18T15:16:40Z</time></trkpt><trkpt lat="43.49639312701196" lon="10.60782336774267"><ele>467.0</ele><time>2026-04-18T15:16:40.999Z</time></trkpt><trkpt lat="43.49638658474356" lon="10.60795648705524"><ele>467.0</ele><time>2026-04-18T15:16:42.999Z</time></trkpt><trkpt lat="43.496359461373395" lon="10.608088758658226"><ele>467.0</ele><time>2026-04-18T15:16:44.999Z</time></trkpt><trkpt lat="43.4963278260315" lon="10.608177545018755"><ele>466.99999999999994</ele><time>2026-04-18T15:16:45.999Z</time></trkpt><trkpt lat="43.49625012770328" lon="10.608296519537111"><ele>467.0</ele><time>2026-04-18T15:16:47.999Z</time></trkpt><trkpt lat="43.49620235511365" lon="10.60835908698829"><ele>466.0</ele><time>2026-04-18T15:16:48.999Z</time></trkpt><trkpt lat="43.49613628074957" lon="10.608465994300715"><ele>465.00000000000006</ele><time>2026-04-18T15:16:50.999Z</time></trkpt><trkpt lat="43.49610343217622" lon="10.608563409816364"><ele>464.00000000000006</ele><time>2026-04-18T15:16:52.999Z</time></trkpt><trkpt lat="43.49608385646435" lon="10.60867947730322"><ele>463.0</ele><time>2026-04-18T15:16:54.999Z</time></trkpt><trkpt lat="43.49606506386958" lon="10.60886478780801"><ele>462.0</ele><time>2026-04-18T15:16:56.999Z</time></trkpt><trkpt lat="43.496035872902304" lon="10.608965137825962"><ele>462.0</ele><time>2026-04-18T15:16:57.999Z</time></trkpt><trkpt lat="43.495999072602295" lon="10.60905489943106"><ele>462.0</ele><time>2026-04-18T15:16:58.999Z</time></trkpt><trkpt lat="43.49595855569615" lon="10.609172119680279"><ele>462.0</ele><time>2026-04-18T15:16:59.999Z</time></trkpt><trkpt lat="43.49593799127212" lon="10.609267915901826"><ele>462.0</ele><time>2026-04-18T15:17:00.999Z</time></trkpt><trkpt lat="43.4959321701098" lon="10.609356513705565"><ele>462.0</ele><time>2026-04-18T15:17:01.999Z</time></trkpt><trkpt lat="43.495946097210535" lon="10.609492159682178"><ele>462.0</ele><time>2026-04-18T15:17:03.999Z</time></trkpt><trkpt lat="43.49597763593314" lon="10.609593116521054"><ele>460.3333333333333</ele><time>2026-04-18T15:17:04.999Z</time></trkpt><trkpt lat="43.496021464962446" lon="10.609683748230042"><ele>458.66666666666663</ele><time>2026-04-18T15:17:05.999Z</time></trkpt><trkpt lat="43.49608306684937" lon="10.609759743914614"><ele>457.0</ele><time>2026-04-18T15:17:06.999Z</time></trkpt><trkpt lat="43.49613376909819" lon="10.609853721327596"><ele>455.3333333333333</ele><time>2026-04-18T15:17:07.999Z</time></trkpt><trkpt lat="43.496178310546085" lon="10.60994219701768"><ele>453.66666666666663</ele><time>2026-04-18T15:17:08.999Z</time></trkpt><trkpt lat="43.496245518343194" lon="10.610021323337518"><ele>452.0</ele><time>2026-04-18T15:17:09.999Z</time></trkpt><trkpt lat="43.4963333490302" lon="10.610145791682223"><ele>452.20000000000005</ele><time>2026-04-18T15:17:11.999Z</time></trkpt><trkpt lat="43.49642107281954" lon="10.610238028152734"><ele>452.40000000000003</ele><time>2026-04-18T15:17:13.999Z</time></trkpt><trkpt lat="43.496488097007315" lon="10.610352244607622"><ele>452.59999999999997</ele><time>2026-04-18T15:17:15.999Z</time></trkpt><trkpt lat="43.496548203442316" lon="10.610443726834847"><ele>452.79999999999995</ele><time>2026-04-18T15:17:17.999Z</time></trkpt><trkpt lat="43.496609785778205" lon="10.6105556840879"><ele>453.0</ele><time>2026-04-18T15:17:19.999Z</time></trkpt><trkpt lat="43.496651350028486" lon="10.610629176138827"><ele>453.0</ele><time>2026-04-18T15:17:21Z</time></trkpt><trkpt lat="43.496683983839375" lon="10.610711279162155"><ele>453.0</ele><time>2026-04-18T15:17:22Z</time></trkpt><trkpt lat="43.496719302298025" lon="10.610784571405102"><ele>453.0</ele><time>2026-04-18T15:17:23Z</time></trkpt><trkpt lat="43.49677802129567" lon="10.610864502448528"><ele>453.0</ele><time>2026-04-18T15:17:24Z</time></trkpt><trkpt lat="43.49686910983159" lon="10.610989849610847"><ele>453.0</ele><time>2026-04-18T15:17:25Z</time></trkpt><trkpt lat="43.49693761892798" lon="10.6110981430415"><ele>453.0</ele><time>2026-04-18T15:17:26Z</time></trkpt><trkpt lat="43.49698723861571" lon="10.611181965585379"><ele>449.79999999999995</ele><time>2026-04-18T15:17:27Z</time></trkpt><trkpt lat="43.497032968580704" lon="10.61133219175719"><ele>446.59999999999997</ele><time>2026-04-18T15:17:29Z</time></trkpt><trkpt lat="43.497039917083164" lon="10.611491738516492"><ele>443.40000000000003</ele><time>2026-04-18T15:17:31Z</time></trkpt><trkpt lat="43.49702935405619" lon="10.611600565626325"><ele>440.20000000000005</ele><time>2026-04-18T15:17:32Z</time></trkpt><trkpt lat="43.49700830985658" lon="10.611711036462566"><ele>437.0</ele><time>2026-04-18T15:17:33Z</time></trkpt><trkpt lat="43.49701075294771" lon="10.611859782424515"><ele>437.0</ele><time>2026-04-18T15:17:35Z</time></trkpt><trkpt lat="43.49701436763955" lon="10.61197607135562"><ele>437.00000000000006</ele><time>2026-04-18T15:17:37Z</time></trkpt><trkpt lat="43.49703300306008" lon="10.612062829686758"><ele>437.00000000000006</ele><time>2026-04-18T15:17:38Z</time></trkpt><trkpt lat="43.49708509170295" lon="10.612209083275616"><ele>437.0</ele><time>2026-04-18T15:17:40Z</time></trkpt><trkpt lat="43.4971373773721" lon="10.612327196342628"><ele>437.0</ele><time>2026-04-18T15:17:42Z</time></trkpt><trkpt lat="43.497193680213186" lon="10.612477317870216"><ele>436.66666666666663</ele><time>2026-04-18T15:17:44Z</time></trkpt><trkpt lat="43.49726256928409" lon="10.61259566567483"><ele>436.3333333333333</ele><time>2026-04-18T15:17:46Z</time></trkpt><trkpt lat="43.497320722975445" lon="10.612654907654427"><ele>436.0</ele><time>2026-04-18T15:17:47Z</time></trkpt><trkpt lat="43.497378509323944" lon="10.612699277200715"><ele>435.66666666666663</ele><time>2026-04-18T15:17:48Z</time></trkpt><trkpt lat="43.497435070140945" lon="10.612755695667317"><ele>435.3333333333333</ele><time>2026-04-18T15:17:49Z</time></trkpt><trkpt lat="43.49750501402804" lon="10.612837143334138"><ele>435.0</ele><time>2026-04-18T15:17:50Z</time></trkpt><trkpt lat="43.497587848719256" lon="10.612944850678097"><ele>432.0</ele><time>2026-04-18T15:17:51Z</time></trkpt><trkpt lat="43.49769056980247" lon="10.613075158107174"><ele>429.0</ele><time>2026-04-18T15:17:52Z</time></trkpt><trkpt lat="43.49779611293409" lon="10.613208538204269"><ele>426.0</ele><time>2026-04-18T15:17:53Z</time></trkpt><trkpt lat="43.497882317016774" lon="10.613302969200396"><ele>423.0</ele><time>2026-04-18T15:17:54Z</time></trkpt><trkpt lat="43.49795485582251" lon="10.613383448707427"><ele>422.57142857142856</ele><time>2026-04-18T15:17:55Z</time></trkpt><trkpt lat="43.498014526167104" lon="10.613456868858293"><ele>422.14285714285717</ele><time>2026-04-18T15:17:56Z</time></trkpt><trkpt lat="43.49806913225465" lon="10.61353520574983"><ele>421.7142857142857</ele><time>2026-04-18T15:17:57Z</time></trkpt><trkpt lat="43.498114880083634" lon="10.613610758418147"><ele>421.2857142857143</ele><time>2026-04-18T15:17:58Z</time></trkpt><trkpt lat="43.49815556241494" lon="10.613705691884697"><ele>420.8571428571429</ele><time>2026-04-18T15:17:59Z</time></trkpt><trkpt lat="43.498179535712424" lon="10.61378957432963"><ele>420.42857142857144</ele><time>2026-04-18T15:18:00Z</time></trkpt><trkpt lat="43.49819398562962" lon="10.613875818712904"><ele>420.0</ele><time>2026-04-18T15:18:01Z</time></trkpt><trkpt lat="43.49820984974351" lon="10.613978273721717"><ele>420.0</ele><time>2026-04-18T15:18:02Z</time></trkpt><trkpt lat="43.4982343275396" lon="10.614091617183362"><ele>420.0</ele><time>2026-04-18T15:18:03Z</time></trkpt><trkpt lat="43.49826908211951" lon="10.614226416808531"><ele>420.0</ele><time>2026-04-18T15:18:04Z</time></trkpt><trkpt lat="43.49832363407926" lon="10.614340691229744"><ele>420.0</ele><time>2026-04-18T15:18:05Z</time></trkpt><trkpt lat="43.498378353002785" lon="10.61445787038548"><ele>420.0</ele><time>2026-04-18T15:18:06Z</time></trkpt><trkpt lat="43.49843303709442" lon="10.614590774251885"><ele>420.0</ele><time>2026-04-18T15:18:07Z</time></trkpt><trkpt lat="43.49849105162691" lon="10.61474941699642"><ele>420.0</ele><time>2026-04-18T15:18:08Z</time></trkpt><trkpt lat="43.49853788237021" lon="10.614889683645025"><ele>420.0</ele><time>2026-04-18T15:18:09Z</time></trkpt><trkpt lat="43.49856957131912" lon="10.614993140127375"><ele>420.0</ele><time>2026-04-18T15:18:10Z</time></trkpt><trkpt lat="43.498651727523885" lon="10.61510804475043"><ele>420.0</ele><time>2026-04-18T15:18:12Z</time></trkpt><trkpt lat="43.49872400878406" lon="10.615125033834211"><ele>418.2</ele><time>2026-04-18T15:18:13Z</time></trkpt><trkpt lat="43.49881809719987" lon="10.615123863567701"><ele>416.4</ele><time>2026-04-18T15:18:14Z</time></trkpt><trkpt lat="43.498903320742365" lon="10.615129137017556"><ele>414.6</ele><time>2026-04-18T15:18:15Z</time></trkpt><trkpt lat="43.49897100816502" lon="10.615145396683083"><ele>412.8</ele><time>2026-04-18T15:18:16Z</time></trkpt><trkpt lat="43.49905258508988" lon="10.61520819775133"><ele>411.0</ele><time>2026-04-18T15:18:18Z</time></trkpt><trkpt lat="43.49913338189277" lon="10.615335747830606"><ele>410.0</ele><time>2026-04-18T15:18:20Z</time></trkpt><trkpt lat="43.49918373227339" lon="10.615457136246734"><ele>409.0</ele><time>2026-04-18T15:18:22Z</time></trkpt><trkpt lat="43.49914118933765" lon="10.615626581752387"><ele>408.0</ele><time>2026-04-18T15:18:24Z</time></trkpt><trkpt lat="43.499095345404896" lon="10.615736388470093"><ele>407.0</ele><time>2026-04-18T15:18:25Z</time></trkpt><trkpt lat="43.49903946138403" lon="10.615845068294941"><ele>406.0</ele><time>2026-04-18T15:18:26Z</time></trkpt><trkpt lat="43.49900952590219" lon="10.61594781660738"><ele>406.00000000000006</ele><time>2026-04-18T15:18:27Z</time></trkpt><trkpt lat="43.498970804905674" lon="10.61603519587499"><ele>406.0</ele><time>2026-04-18T15:18:28Z</time></trkpt><trkpt lat="43.498992156748756" lon="10.616119040158733"><ele>406.0</ele><time>2026-04-18T15:18:30Z</time></trkpt><trkpt lat="43.49905929196871" lon="10.616185121483753"><ele>406.0</ele><time>2026-04-18T15:18:32Z</time></trkpt><trkpt lat="43.49911693251199" lon="10.616229288092656"><ele>406.00000000000006</ele><time>2026-04-18T15:18:33Z</time></trkpt><trkpt lat="43.49918828041712" lon="10.616264523561856"><ele>406.0</ele><time>2026-04-18T15:18:34Z</time></trkpt><trkpt lat="43.49928743658878" lon="10.616306963004819"><ele>404.6</ele><time>2026-04-18T15:18:35Z</time></trkpt><trkpt lat="43.49939570554462" lon="10.61633624323573"><ele>403.20000000000005</ele><time>2026-04-18T15:18:36Z</time></trkpt><trkpt lat="43.49949117590209" lon="10.616344436058501"><ele>401.79999999999995</ele><time>2026-04-18T15:18:37.001Z</time></trkpt><trkpt lat="43.49957959065554" lon="10.616340141646692"><ele>400.4</ele><time>2026-04-18T15:18:38.001Z</time></trkpt><trkpt lat="43.49966903916172" lon="10.616351810762287"><ele>399.0</ele><time>2026-04-18T15:18:39.001Z</time></trkpt><trkpt lat="43.49973157994094" lon="10.616379992810602"><ele>399.0</ele><time>2026-04-18T15:18:40.001Z</time></trkpt><trkpt lat="43.499810236409836" lon="10.616420491149483"><ele>399.0</ele><time>2026-04-18T15:18:41.001Z</time></trkpt><trkpt lat="43.49987224151212" lon="10.616436748661519"><ele>399.0</ele><time>2026-04-18T15:18:42.001Z</time></trkpt><trkpt lat="43.49998602156516" lon="10.616405628609424"><ele>399.0</ele><time>2026-04-18T15:18:44.001Z</time></trkpt><trkpt lat="43.50005476492679" lon="10.61637221959694"><ele>399.0</ele><time>2026-04-18T15:18:45.001Z</time></trkpt><trkpt lat="43.50011946538337" lon="10.616327154105553"><ele>399.0</ele><time>2026-04-18T15:18:46.001Z</time></trkpt><trkpt lat="43.50018035797765" lon="10.616263494134081"><ele>399.0</ele><time>2026-04-18T15:18:46.999Z</time></trkpt><trkpt lat="43.50023144858864" lon="10.616206152960018"><ele>399.0</ele><time>2026-04-18T15:18:47.999Z</time></trkpt><trkpt lat="43.500331352780385" lon="10.616143790038775"><ele>399.0</ele><time>2026-04-18T15:18:49.999Z</time></trkpt><trkpt lat="43.500418335900015" lon="10.61613856941883"><ele>399.0</ele><time>2026-04-18T15:18:51.999Z</time></trkpt><trkpt lat="43.50051286080233" lon="10.616173975692174"><ele>399.0</ele><time>2026-04-18T15:18:53.999Z</time></trkpt><trkpt lat="43.500574632470475" lon="10.616248652812194"><ele>399.0</ele><time>2026-04-18T15:18:54.999Z</time></trkpt><trkpt lat="43.500640192969634" lon="10.616330182831815"><ele>396.4</ele><time>2026-04-18T15:18:55.999Z</time></trkpt><trkpt lat="43.500749009076195" lon="10.61635208406155"><ele>393.79999999999995</ele><time>2026-04-18T15:18:57.999Z</time></trkpt><trkpt lat="43.50084032370702" lon="10.616344182733103"><ele>391.20000000000005</ele><time>2026-04-18T15:18:58.999Z</time></trkpt><trkpt lat="43.500949021920164" lon="10.616323573068215"><ele>388.6</ele><time>2026-04-18T15:18:59.999Z</time></trkpt><trkpt lat="43.50106994533082" lon="10.61628900271554"><ele>386.0</ele><time>2026-04-18T15:19:00.999Z</time></trkpt><trkpt lat="43.501156295976216" lon="10.616259355259508"><ele>385.99999999999994</ele><time>2026-04-18T15:19:01.999Z</time></trkpt><trkpt lat="43.50122690819378" lon="10.616235517620748"><ele>386.0</ele><time>2026-04-18T15:19:02.999Z</time></trkpt><trkpt lat="43.50132697456582" lon="10.616160618568577"><ele>386.0</ele><time>2026-04-18T15:19:04.999Z</time></trkpt><trkpt lat="43.50137171793761" lon="10.616078190094655"><ele>386.0</ele><time>2026-04-18T15:19:05.999Z</time></trkpt><trkpt lat="43.50142303621652" lon="10.615971355618598"><ele>385.99999999999994</ele><time>2026-04-18T15:19:06.999Z</time></trkpt><trkpt lat="43.501478857279736" lon="10.615876322149889"><ele>386.0</ele><time>2026-04-18T15:19:07.999Z</time></trkpt><trkpt lat="43.501556850095845" lon="10.615835629823057"><ele>387.8</ele><time>2026-04-18T15:19:08.999Z</time></trkpt><trkpt lat="43.501629390048436" lon="10.615765816788238"><ele>389.6</ele><time>2026-04-18T15:19:09.999Z</time></trkpt><trkpt lat="43.50171552999616" lon="10.615695081580451"><ele>391.4</ele><time>2026-04-18T15:19:11.999Z</time></trkpt><trkpt lat="43.50184545367833" lon="10.615667025970238"><ele>393.2</ele><time>2026-04-18T15:19:13.999Z</time></trkpt><trkpt lat="43.50197209772627" lon="10.615667836779497"><ele>395.0</ele><time>2026-04-18T15:19:15.999Z</time></trkpt><trkpt lat="43.50206819450114" lon="10.61565673958925"><ele>393.8333333333333</ele><time>2026-04-18T15:19:16.999Z</time></trkpt><trkpt lat="43.502150089690566" lon="10.61563979170258"><ele>392.66666666666663</ele><time>2026-04-18T15:19:17.999Z</time></trkpt><trkpt lat="43.50225361768291" lon="10.615634256725926"><ele>391.5</ele><time>2026-04-18T15:19:20Z</time></trkpt><trkpt lat="43.502318003030176" lon="10.6156812284503"><ele>390.33333333333337</ele><time>2026-04-18T15:19:21Z</time></trkpt><trkpt lat="43.50240411055287" lon="10.615722587789003"><ele>389.1666666666667</ele><time>2026-04-18T15:19:22Z</time></trkpt><trkpt lat="43.50248089845643" lon="10.615774013032528"><ele>388.0</ele><time>2026-04-18T15:19:23Z</time></trkpt><trkpt lat="43.50254129459789" lon="10.615859219779132"><ele>388.00000000000006</ele><time>2026-04-18T15:19:24Z</time></trkpt><trkpt lat="43.5026093526647" lon="10.615908950287874"><ele>388.0</ele><time>2026-04-18T15:19:25Z</time></trkpt><trkpt lat="43.50267780133923" lon="10.61592491258864"><ele>388.0</ele><time>2026-04-18T15:19:26Z</time></trkpt><trkpt lat="43.50274309442679" lon="10.615929227201482"><ele>388.0</ele><time>2026-04-18T15:19:27Z</time></trkpt><trkpt lat="43.50281980485454" lon="10.615867871891941"><ele>388.00000000000006</ele><time>2026-04-18T15:19:29Z</time></trkpt><trkpt lat="43.50287781285289" lon="10.615786933571686"><ele>388.0</ele><time>2026-04-18T15:19:30Z</time></trkpt><trkpt lat="43.502943158702706" lon="10.615697399017378"><ele>386.79999999999995</ele><time>2026-04-18T15:19:31Z</time></trkpt><trkpt lat="43.503000554815884" lon="10.615603383635325"><ele>385.6</ele><time>2026-04-18T15:19:32Z</time></trkpt><trkpt lat="43.50310976122625" lon="10.615529506519053"><ele>384.4</ele><time>2026-04-18T15:19:34Z</time></trkpt><trkpt lat="43.503179325853644" lon="10.615525657489918"><ele>383.20000000000005</ele><time>2026-04-18T15:19:35Z</time></trkpt><trkpt lat="43.503245650928456" lon="10.615505019229799"><ele>382.0</ele><time>2026-04-18T15:19:36Z</time></trkpt><trkpt lat="43.50335267313022" lon="10.61541882881829"><ele>382.0</ele><time>2026-04-18T15:19:38Z</time></trkpt><trkpt lat="43.50343921269013" lon="10.615280249734369"><ele>382.0</ele><time>2026-04-18T15:19:40Z</time></trkpt><trkpt lat="43.50347688690526" lon="10.615163640280075"><ele>382.0</ele><time>2026-04-18T15:19:41Z</time></trkpt><trkpt lat="43.50350543354767" lon="10.615045993975329"><ele>382.0</ele><time>2026-04-18T15:19:42Z</time></trkpt><trkpt lat="43.503533716218904" lon="10.614966773085525"><ele>382.0</ele><time>2026-04-18T15:19:43Z</time></trkpt><trkpt lat="43.50361159664478" lon="10.614862036027104"><ele>382.0</ele><time>2026-04-18T15:19:45Z</time></trkpt><trkpt lat="43.503722462024044" lon="10.614820237073856"><ele>382.0</ele><time>2026-04-18T15:19:47Z</time></trkpt><trkpt lat="43.50383098345866" lon="10.61477743658207"><ele>382.0</ele><time>2026-04-18T15:19:49Z</time></trkpt><trkpt lat="43.50395034139264" lon="10.614721783263775"><ele>382.0</ele><time>2026-04-18T15:19:51Z</time></trkpt><trkpt lat="43.50402620486272" lon="10.614699096049355"><ele>382.0</ele><time>2026-04-18T15:19:52Z</time></trkpt><trkpt lat="43.504098272413444" lon="10.614704725514175"><ele>379.7142857142857</ele><time>2026-04-18T15:19:53Z</time></trkpt><trkpt lat="43.50416858420625" lon="10.614737805406152"><ele>377.4285714285714</ele><time>2026-04-18T15:19:54Z</time></trkpt><trkpt lat="43.50423910508198" lon="10.614791304632893"><ele>375.1428571428571</ele><time>2026-04-18T15:19:55Z</time></trkpt><trkpt lat="43.504289038538346" lon="10.614849392793516"><ele>372.8571428571429</ele><time>2026-04-18T15:19:56Z</time></trkpt><trkpt lat="43.504335653200485" lon="10.614916770065944"><ele>370.57142857142856</ele><time>2026-04-18T15:19:57Z</time></trkpt><trkpt lat="43.50439203601649" lon="10.615000603036345"><ele>368.2857142857143</ele><time>2026-04-18T15:19:59Z</time></trkpt><trkpt lat="43.50445500559188" lon="10.615019521848373"><ele>366.0</ele><time>2026-04-18T15:20:01Z</time></trkpt><trkpt lat="43.504542874497886" lon="10.615059353029874"><ele>362.6</ele><time>2026-04-18T15:20:02Z</time></trkpt><trkpt lat="43.504624444900635" lon="10.615097607803461"><ele>359.20000000000005</ele><time>2026-04-18T15:20:03Z</time></trkpt><trkpt lat="43.50472300822992" lon="10.615153905135706"><ele>355.79999999999995</ele><time>2026-04-18T15:20:05Z</time></trkpt><trkpt lat="43.50480949934117" lon="10.615207895663145"><ele>352.4</ele><time>2026-04-18T15:20:07Z</time></trkpt><trkpt lat="43.50489624973001" lon="10.61520964708542"><ele>349.0</ele><time>2026-04-18T15:20:09Z</time></trkpt><trkpt lat="43.504972420404066" lon="10.615191367735374"><ele>349.0</ele><time>2026-04-18T15:20:12Z</time></trkpt><trkpt lat="43.505051409036575" lon="10.615167661525245"><ele>349.0</ele><time>2026-04-18T15:20:15Z</time></trkpt><trkpt lat="43.50512302847991" lon="10.615160522908628"><ele>349.0</ele><time>2026-04-18T15:20:17Z</time></trkpt><trkpt lat="43.50520442278284" lon="10.615120865645643"><ele>349.0</ele><time>2026-04-18T15:20:19Z</time></trkpt><trkpt lat="43.505294392421085" lon="10.615043431195186"><ele>349.0</ele><time>2026-04-18T15:20:21Z</time></trkpt><trkpt lat="43.505349801123884" lon="10.614992437431388"><ele>349.0</ele><time>2026-04-18T15:20:22Z</time></trkpt><trkpt lat="43.50546867827304" lon="10.615030919687158"><ele>345.6</ele><time>2026-04-18T15:20:23Z</time></trkpt><trkpt lat="43.50553267358684" lon="10.614966728245198"><ele>342.2</ele><time>2026-04-18T15:20:24Z</time></trkpt><trkpt lat="43.50561306548229" lon="10.614891722005765"><ele>338.8</ele><time>2026-04-18T15:20:26.001Z</time></trkpt><trkpt lat="43.50572752518773" lon="10.614828481174193"><ele>335.40000000000003</ele><time>2026-04-18T15:20:29.001Z</time></trkpt><trkpt lat="43.505839933551314" lon="10.614905117440282"><ele>332.0</ele><time>2026-04-18T15:20:31.001Z</time></trkpt><trkpt lat="43.505989391601126" lon="10.614977674831636"><ele>332.0</ele><time>2026-04-18T15:20:34.001Z</time></trkpt><trkpt lat="43.506086139683354" lon="10.614902835459189"><ele>332.0</ele><time>2026-04-18T15:20:39.001Z</time></trkpt><trkpt lat="43.50603154086916" lon="10.614779977788015"><ele>332.0</ele><time>2026-04-18T15:20:40.001Z</time></trkpt><trkpt lat="43.50601079959634" lon="10.614662149407133"><ele>332.0</ele><time>2026-04-18T15:20:41.001Z</time></trkpt><trkpt lat="43.505981714928396" lon="10.614545214505618"><ele>332.0</ele><time>2026-04-18T15:20:42.001Z</time></trkpt><trkpt lat="43.50596141829057" lon="10.614447929113764"><ele>332.0</ele><time>2026-04-18T15:20:43.001Z</time></trkpt><trkpt lat="43.50594442820496" lon="10.61436336025996"><ele>332.0</ele><time>2026-04-18T15:20:44.001Z</time></trkpt><trkpt lat="43.50591999063633" lon="10.614228845174555"><ele>332.0</ele><time>2026-04-18T15:20:46.001Z</time></trkpt><trkpt lat="43.505934793118136" lon="10.614372560952278"><ele>332.0</ele><time>2026-04-18T15:20:57.999Z</time></trkpt><trkpt lat="43.50596754876091" lon="10.614547341166833"><ele>332.0</ele><time>2026-04-18T15:20:58.999Z</time></trkpt><trkpt lat="43.505988197683216" lon="10.614656846595883"><ele>332.0</ele><time>2026-04-18T15:20:59.999Z</time></trkpt><trkpt lat="43.50603671502784" lon="10.614783123942859"><ele>332.0</ele><time>2026-04-18T15:21:00.999Z</time></trkpt><trkpt lat="43.506069597518064" lon="10.614908181690053"><ele>332.0</ele><time>2026-04-18T15:21:01.999Z</time></trkpt><trkpt lat="43.506125839700296" lon="10.615043290252649"><ele>332.0</ele><time>2026-04-18T15:21:02.999Z</time></trkpt><trkpt lat="43.506202497532364" lon="10.615179855736432"><ele>332.0</ele><time>2026-04-18T15:21:03.999Z</time></trkpt><trkpt lat="43.50629512982247" lon="10.615335343906137"><ele>330.20000000000005</ele><time>2026-04-18T15:21:04.999Z</time></trkpt><trkpt lat="43.5063597844012" lon="10.61546997654257"><ele>328.4</ele><time>2026-04-18T15:21:05.999Z</time></trkpt><trkpt lat="43.50641945355327" lon="10.615609243124727"><ele>326.6</ele><time>2026-04-18T15:21:06.999Z</time></trkpt><trkpt lat="43.506486718969825" lon="10.615722229272073"><ele>324.79999999999995</ele><time>2026-04-18T15:21:07.999Z</time></trkpt><trkpt lat="43.50655024825035" lon="10.615824199554078"><ele>323.0</ele><time>2026-04-18T15:21:09Z</time></trkpt><trkpt lat="43.506620911763314" lon="10.615901265755223"><ele>323.0</ele><time>2026-04-18T15:21:10Z</time></trkpt><trkpt lat="43.50668711164193" lon="10.615983580417831"><ele>323.0</ele><time>2026-04-18T15:21:11Z</time></trkpt><trkpt lat="43.50675073296081" lon="10.616050026118177"><ele>323.0</ele><time>2026-04-18T15:21:12Z</time></trkpt><trkpt lat="43.50682229823621" lon="10.616070908252134"><ele>323.0</ele><time>2026-04-18T15:21:13Z</time></trkpt><trkpt lat="43.50690977524462" lon="10.616063538978235"><ele>323.0</ele><time>2026-04-18T15:21:14Z</time></trkpt><trkpt lat="43.50702226789595" lon="10.616062735838437"><ele>323.0</ele><time>2026-04-18T15:21:15Z</time></trkpt><trkpt lat="43.507152926113825" lon="10.61604527968714"><ele>321.25</ele><time>2026-04-18T15:21:16Z</time></trkpt><trkpt lat="43.50728429963643" lon="10.616020519705618"><ele>319.5</ele><time>2026-04-18T15:21:17Z</time></trkpt><trkpt lat="43.507406080634546" lon="10.615983563280443"><ele>317.75</ele><time>2026-04-18T15:21:18Z</time></trkpt><trkpt lat="43.507516146861775" lon="10.61595060774474"><ele>316.0</ele><time>2026-04-18T15:21:19Z</time></trkpt><trkpt lat="43.50763130682056" lon="10.615869586954126"><ele>316.0</ele><time>2026-04-18T15:21:20Z</time></trkpt><trkpt lat="43.50775025106786" lon="10.615782454808109"><ele>316.0</ele><time>2026-04-18T15:21:21Z</time></trkpt><trkpt lat="43.5078642708766" lon="10.615697638657718"><ele>316.0</ele><time>2026-04-18T15:21:22Z</time></trkpt><trkpt lat="43.50797462518923" lon="10.615655946632979"><ele>316.0</ele><time>2026-04-18T15:21:23Z</time></trkpt><trkpt lat="43.508077085355225" lon="10.615629734886816"><ele>314.0</ele><time>2026-04-18T15:21:24Z</time></trkpt><trkpt lat="43.50818170319133" lon="10.615606543152019"><ele>312.0</ele><time>2026-04-18T15:21:25Z</time></trkpt><trkpt lat="43.50827341857685" lon="10.615559399922398"><ele>310.0</ele><time>2026-04-18T15:21:26Z</time></trkpt><trkpt lat="43.50835257394755" lon="10.615502241797554"><ele>308.0</ele><time>2026-04-18T15:21:27Z</time></trkpt><trkpt lat="43.508426385735845" lon="10.615433356946761"><ele>306.0</ele><time>2026-04-18T15:21:28Z</time></trkpt><trkpt lat="43.5084970187345" lon="10.615339872803242"><ele>307.5</ele><time>2026-04-18T15:21:29Z</time></trkpt><trkpt lat="43.508557408071624" lon="10.615217679453748"><ele>309.0</ele><time>2026-04-18T15:21:30Z</time></trkpt><trkpt lat="43.50860277524798" lon="10.61513620259427"><ele>310.5</ele><time>2026-04-18T15:21:31Z</time></trkpt><trkpt lat="43.50869158599421" lon="10.615125536214183"><ele>312.0</ele><time>2026-04-18T15:21:33Z</time></trkpt><trkpt lat="43.508747159029944" lon="10.615194590497703"><ele>313.5</ele><time>2026-04-18T15:21:34Z</time></trkpt><trkpt lat="43.50878966703577" lon="10.615290726367476"><ele>315.0</ele><time>2026-04-18T15:21:35Z</time></trkpt><trkpt lat="43.508825619176065" lon="10.615431505441967"><ele>313.5</ele><time>2026-04-18T15:21:36Z</time></trkpt><trkpt lat="43.50885776800259" lon="10.615554240563878"><ele>312.0</ele><time>2026-04-18T15:21:37Z</time></trkpt><trkpt lat="43.50886956864463" lon="10.615644483738954"><ele>310.5</ele><time>2026-04-18T15:21:38Z</time></trkpt><trkpt lat="43.50887812515077" lon="10.615743797778597"><ele>309.0</ele><time>2026-04-18T15:21:40Z</time></trkpt><trkpt lat="43.50877562002144" lon="10.61582736208281"><ele>307.5</ele><time>2026-04-18T15:21:43Z</time></trkpt><trkpt lat="43.50870468941358" lon="10.615863978418297"><ele>306.0</ele><time>2026-04-18T15:21:44Z</time></trkpt><trkpt lat="43.508635872013976" lon="10.615950417490948"><ele>306.0</ele><time>2026-04-18T15:21:45Z</time></trkpt><trkpt lat="43.50855646044214" lon="10.61602526919633"><ele>306.0</ele><time>2026-04-18T15:21:46Z</time></trkpt><trkpt lat="43.508476158533334" lon="10.61609092752021"><ele>306.0</ele><time>2026-04-18T15:21:47Z</time></trkpt><trkpt lat="43.50841761432006" lon="10.616149481169854"><ele>306.0</ele><time>2026-04-18T15:21:48Z</time></trkpt><trkpt lat="43.50848312155283" lon="10.61607530612892"><ele>306.0</ele><time>2026-04-18T15:22:03Z</time></trkpt><trkpt lat="43.50856239227221" lon="10.615995448563709"><ele>306.0</ele><time>2026-04-18T15:22:04Z</time></trkpt><trkpt lat="43.50863036115928" lon="10.615968842639198"><ele>306.0</ele><time>2026-04-18T15:22:05Z</time></trkpt><trkpt lat="43.50868406526603" lon="10.615914724693967"><ele>306.0</ele><time>2026-04-18T15:22:06.001Z</time></trkpt><trkpt lat="43.5087375911497" lon="10.61586557779495"><ele>306.0</ele><time>2026-04-18T15:22:07.001Z</time></trkpt><trkpt lat="43.50882846678079" lon="10.615787959575554"><ele>306.0</ele><time>2026-04-18T15:22:09.001Z</time></trkpt><trkpt lat="43.50894257731045" lon="10.61596332951371"><ele>306.0</ele><time>2026-04-18T15:22:13.001Z</time></trkpt><trkpt lat="43.50899334493369" lon="10.616096982310362"><ele>302.5</ele><time>2026-04-18T15:22:14.001Z</time></trkpt><trkpt lat="43.5090513457031" lon="10.616184259549808"><ele>299.0</ele><time>2026-04-18T15:22:15.001Z</time></trkpt><trkpt lat="43.50899704649703" lon="10.616337395167188"><ele>295.5</ele><time>2026-04-18T15:22:17.001Z</time></trkpt><trkpt lat="43.508877460316405" lon="10.61642686213449"><ele>292.0</ele><time>2026-04-18T15:22:19.001Z</time></trkpt><trkpt lat="43.50877767465492" lon="10.616525151501042"><ele>291.25</ele><time>2026-04-18T15:22:20.001Z</time></trkpt><trkpt lat="43.508673091912925" lon="10.616655281864256"><ele>290.5</ele><time>2026-04-18T15:22:21.001Z</time></trkpt><trkpt lat="43.50856071120384" lon="10.616797090326168"><ele>289.75</ele><time>2026-04-18T15:22:22.001Z</time></trkpt><trkpt lat="43.508449584071585" lon="10.616942100215566"><ele>289.0</ele><time>2026-04-18T15:22:23.001Z</time></trkpt><trkpt lat="43.50836120183183" lon="10.617070748280371"><ele>289.0</ele><time>2026-04-18T15:22:24.001Z</time></trkpt><trkpt lat="43.50829460047375" lon="10.617186713447575"><ele>289.0</ele><time>2026-04-18T15:22:25.001Z</time></trkpt><trkpt lat="43.50823851610885" lon="10.61731478153407"><ele>289.0</ele><time>2026-04-18T15:22:26.001Z</time></trkpt><trkpt lat="43.508182139574856" lon="10.617483211851644"><ele>289.0</ele><time>2026-04-18T15:22:27.001Z</time></trkpt><trkpt lat="43.50812755540173" lon="10.617666709019856"><ele>289.0</ele><time>2026-04-18T15:22:28.001Z</time></trkpt><trkpt lat="43.50805797631065" lon="10.617811500581217"><ele>289.0</ele><time>2026-04-18T15:22:29.001Z</time></trkpt><trkpt lat="43.50800735939025" lon="10.617961751613555"><ele>289.0</ele><time>2026-04-18T15:22:30.001Z</time></trkpt><trkpt lat="43.50795248318099" lon="10.618104694819904"><ele>289.0</ele><time>2026-04-18T15:22:31.001Z</time></trkpt><trkpt lat="43.50789831756037" lon="10.61822353442173"><ele>288.0</ele><time>2026-04-18T15:22:32.001Z</time></trkpt><trkpt lat="43.50783059968043" lon="10.618349111432602"><ele>287.0</ele><time>2026-04-18T15:22:33.001Z</time></trkpt><trkpt lat="43.50774993672966" lon="10.61846921662525"><ele>286.0</ele><time>2026-04-18T15:22:34.001Z</time></trkpt><trkpt lat="43.5076597518874" lon="10.61855686765991"><ele>285.0</ele><time>2026-04-18T15:22:35.001Z</time></trkpt><trkpt lat="43.5075616856392" lon="10.618639351645214"><ele>285.8</ele><time>2026-04-18T15:22:36.001Z</time></trkpt><trkpt lat="43.50747821640444" lon="10.618701348586644"><ele>286.6</ele><time>2026-04-18T15:22:37.001Z</time></trkpt><trkpt lat="43.50739600798749" lon="10.618761640770416"><ele>287.4</ele><time>2026-04-18T15:22:38.001Z</time></trkpt><trkpt lat="43.50728728487123" lon="10.618791499946976"><ele>288.2</ele><time>2026-04-18T15:22:39.001Z</time></trkpt><trkpt lat="43.50717282833336" lon="10.618831513206462"><ele>289.0</ele><time>2026-04-18T15:22:40.001Z</time></trkpt><trkpt lat="43.50707385770314" lon="10.618913282246652"><ele>289.0</ele><time>2026-04-18T15:22:41.001Z</time></trkpt><trkpt lat="43.5069857482063" lon="10.619032603292892"><ele>289.0</ele><time>2026-04-18T15:22:42.001Z</time></trkpt><trkpt lat="43.506921100556184" lon="10.619141413526675"><ele>289.0</ele><time>2026-04-18T15:22:43.001Z</time></trkpt><trkpt lat="43.506857974803204" lon="10.61920832099231"><ele>289.0</ele><time>2026-04-18T15:22:44.001Z</time></trkpt><trkpt lat="43.50678392550299" lon="10.619232623369397"><ele>289.0</ele><time>2026-04-18T15:22:45.001Z</time></trkpt><trkpt lat="43.50669955912918" lon="10.61927460859631"><ele>289.0</ele><time>2026-04-18T15:22:46.001Z</time></trkpt><trkpt lat="43.506612458222676" lon="10.619306843867266"><ele>289.0</ele><time>2026-04-18T15:22:47.001Z</time></trkpt><trkpt lat="43.50650671980041" lon="10.619314159102348"><ele>289.0</ele><time>2026-04-18T15:22:48.001Z</time></trkpt><trkpt lat="43.50640012254079" lon="10.619297770756"><ele>289.0</ele><time>2026-04-18T15:22:49.001Z</time></trkpt><trkpt lat="43.506296094611024" lon="10.619313277902672"><ele>289.0</ele><time>2026-04-18T15:22:50.001Z</time></trkpt><trkpt lat="43.50617965548045" lon="10.619332898276856"><ele>291.2</ele><time>2026-04-18T15:22:51.001Z</time></trkpt><trkpt lat="43.50605985465014" lon="10.619378454631525"><ele>293.4</ele><time>2026-04-18T15:22:52.001Z</time></trkpt><trkpt lat="43.50593916197796" lon="10.619395230377073"><ele>295.6</ele><time>2026-04-18T15:22:53.001Z</time></trkpt><trkpt lat="43.50582983011974" lon="10.619434030731181"><ele>297.8</ele><time>2026-04-18T15:22:54.001Z</time></trkpt><trkpt lat="43.50574881479157" lon="10.619453825012021"><ele>300.0</ele><time>2026-04-18T15:22:55.001Z</time></trkpt><trkpt lat="43.50567426320498" lon="10.61945504704169"><ele>300.0</ele><time>2026-04-18T15:22:56.001Z</time></trkpt><trkpt lat="43.50559325609769" lon="10.619416232165438"><ele>300.0</ele><time>2026-04-18T15:22:57.001Z</time></trkpt><trkpt lat="43.505479667348624" lon="10.61937229221255"><ele>300.0</ele><time>2026-04-18T15:22:58.001Z</time></trkpt><trkpt lat="43.50536921457884" lon="10.61936535644282"><ele>300.0</ele><time>2026-04-18T15:22:59Z</time></trkpt><trkpt lat="43.50529697957839" lon="10.61934388318904"><ele>300.0</ele><time>2026-04-18T15:23:00Z</time></trkpt><trkpt lat="43.50520477103882" lon="10.61931812494747"><ele>301.8</ele><time>2026-04-18T15:23:02Z</time></trkpt><trkpt lat="43.505124807580316" lon="10.61943674502478"><ele>303.6</ele><time>2026-04-18T15:23:04Z</time></trkpt><trkpt lat="43.50510192769519" lon="10.61955423199338"><ele>305.4</ele><time>2026-04-18T15:23:05Z</time></trkpt><trkpt lat="43.505069612447826" lon="10.619664420101065"><ele>307.2</ele><time>2026-04-18T15:23:06Z</time></trkpt><trkpt lat="43.50502144781707" lon="10.619773090041782"><ele>309.0</ele><time>2026-04-18T15:23:07Z</time></trkpt><trkpt lat="43.504974896707154" lon="10.619863305396748"><ele>309.0</ele><time>2026-04-18T15:23:08Z</time></trkpt><trkpt lat="43.50485466750741" lon="10.61996348443399"><ele>309.0</ele><time>2026-04-18T15:23:10Z</time></trkpt><trkpt lat="43.50478641034173" lon="10.620052014392598"><ele>309.0</ele><time>2026-04-18T15:23:11Z</time></trkpt><trkpt lat="43.50473337804762" lon="10.620132581911962"><ele>309.0</ele><time>2026-04-18T15:23:12Z</time></trkpt><trkpt lat="43.50465504094848" lon="10.620176576138638"><ele>309.0</ele><time>2026-04-18T15:23:14Z</time></trkpt><trkpt lat="43.50457995724262" lon="10.62015912498324"><ele>309.4</ele><time>2026-04-18T15:23:17Z</time></trkpt><trkpt lat="43.504520523371205" lon="10.620064564651566"><ele>309.79999999999995</ele><time>2026-04-18T15:25:54.001Z</time></trkpt><trkpt lat="43.50445971437112" lon="10.61990869633077"><ele>310.20000000000005</ele><time>2026-04-18T15:25:56.001Z</time></trkpt><trkpt lat="43.50441709273999" lon="10.6197951814918"><ele>310.6</ele><time>2026-04-18T15:25:57.001Z</time></trkpt><trkpt lat="43.50438278489459" lon="10.619697734649097"><ele>311.0</ele><time>2026-04-18T15:25:58.001Z</time></trkpt><trkpt lat="43.50435499926675" lon="10.619608427272643"><ele>311.0</ele><time>2026-04-18T15:25:59.001Z</time></trkpt><trkpt lat="43.50434432276258" lon="10.619495421068104"><ele>311.0</ele><time>2026-04-18T15:26:00.001Z</time></trkpt><trkpt lat="43.50428469444744" lon="10.619379842246682"><ele>311.0</ele><time>2026-04-18T15:26:02.001Z</time></trkpt><trkpt lat="43.50420693448085" lon="10.619296974012935"><ele>311.0</ele><time>2026-04-18T15:26:04.001Z</time></trkpt><trkpt lat="43.5041482865605" lon="10.619253142467759"><ele>311.0</ele><time>2026-04-18T15:26:05.001Z</time></trkpt><trkpt lat="43.50406841171418" lon="10.619205018007825"><ele>311.0</ele><time>2026-04-18T15:26:06.001Z</time></trkpt><trkpt lat="43.503988895705085" lon="10.61913380453843"><ele>312.5</ele><time>2026-04-18T15:26:07.001Z</time></trkpt><trkpt lat="43.50390637457358" lon="10.61906595838133"><ele>314.0</ele><time>2026-04-18T15:26:08.001Z</time></trkpt><trkpt lat="43.50381819686548" lon="10.61902113586946"><ele>315.5</ele><time>2026-04-18T15:26:09.001Z</time></trkpt><trkpt lat="43.50372839034224" lon="10.619029880119372"><ele>317.0</ele><time>2026-04-18T15:26:10.001Z</time></trkpt><trkpt lat="43.503658738014565" lon="10.619043635617876"><ele>318.5</ele><time>2026-04-18T15:26:11.001Z</time></trkpt><trkpt lat="43.50358830377773" lon="10.61905210891759"><ele>320.0</ele><time>2026-04-18T15:26:12.001Z</time></trkpt><trkpt lat="43.50352014892204" lon="10.619087929286142"><ele>320.0</ele><time>2026-04-18T15:26:13.001Z</time></trkpt><trkpt lat="43.503456089896375" lon="10.619122128119757"><ele>320.0</ele><time>2026-04-18T15:26:14.001Z</time></trkpt><trkpt lat="43.50338913392857" lon="10.619157873280976"><ele>320.0</ele><time>2026-04-18T15:26:20.001Z</time></trkpt><trkpt lat="43.50332956354241" lon="10.619000804232403"><ele>320.0</ele><time>2026-04-18T15:26:21.001Z</time></trkpt><trkpt lat="43.50325696100125" lon="10.61896561503002"><ele>320.0</ele><time>2026-04-18T15:26:22.001Z</time></trkpt><trkpt lat="43.50317356082533" lon="10.618958399024173"><ele>320.0</ele><time>2026-04-18T15:26:23.001Z</time></trkpt><trkpt lat="43.503096698159766" lon="10.618937513220114"><ele>320.0</ele><time>2026-04-18T15:26:24.001Z</time></trkpt><trkpt lat="43.503029774159295" lon="10.618930337943366"><ele>320.0</ele><time>2026-04-18T15:26:25.001Z</time></trkpt><trkpt lat="43.50292601488951" lon="10.618897023566998"><ele>320.0</ele><time>2026-04-18T15:26:27.001Z</time></trkpt><trkpt lat="43.50282220815226" lon="10.618878225013598"><ele>313.0</ele><time>2026-04-18T15:26:29.001Z</time></trkpt><trkpt lat="43.50272616410693" lon="10.618878585175368"><ele>313.0</ele><time>2026-04-18T15:26:31.001Z</time></trkpt></trkseg></trk></gpx>